<?xml version="1.0" encoding="UTF-8" standalone="no" ?>
<gpx xmlns="http://www.topografix.com/GPX/1/1" xmlns:xsi="http://www.w3.org/2001/XMLSchema-instance" xsi:schemaLocation="http://www.topografix.com/GPX/1/1 http://www.topografix.com/GPX/1/1/gpx.xsd" version="1.1" creator="VisuGPX - https://www.visugpx.com">
  <metadata>
    <name>Oasis dury</name>
    <desc><![CDATA[#métropolitaine]]></desc>
  </metadata>
  <trk>
    <name><![CDATA[Oasis dury_1]]></name>
    <trkseg>
      <trkpt lat="49.86032" lon="2.27792">
        <ele>112.3</ele>
        <time>2022-10-29T12:02:16Z</time>
      </trkpt>
      <trkpt lat="49.86032" lon="2.27792">
        <ele>112.3</ele>
        <time>2022-10-29T12:02:17Z</time>
      </trkpt>
      <trkpt lat="49.86032" lon="2.27792">
        <ele>112.3</ele>
        <time>2022-10-29T12:02:18Z</time>
      </trkpt>
      <trkpt lat="49.86032" lon="2.27792">
        <ele>112.3</ele>
        <time>2022-10-29T12:02:19Z</time>
      </trkpt>
      <trkpt lat="49.86032" lon="2.27792">
        <ele>112.3</ele>
        <time>2022-10-29T12:02:20Z</time>
      </trkpt>
      <trkpt lat="49.86032" lon="2.27792">
        <ele>112.3</ele>
        <time>2022-10-29T12:02:21Z</time>
      </trkpt>
      <trkpt lat="49.86032" lon="2.27792">
        <ele>112.3</ele>
        <time>2022-10-29T12:02:22Z</time>
      </trkpt>
      <trkpt lat="49.86032" lon="2.27792">
        <ele>112.3</ele>
        <time>2022-10-29T12:02:23Z</time>
      </trkpt>
      <trkpt lat="49.86032" lon="2.27792">
        <ele>112.3</ele>
        <time>2022-10-29T12:02:24Z</time>
      </trkpt>
      <trkpt lat="49.86032" lon="2.27792">
        <ele>112.3</ele>
        <time>2022-10-29T12:02:25Z</time>
      </trkpt>
      <trkpt lat="49.86032" lon="2.27792">
        <ele>112.3</ele>
        <time>2022-10-29T12:02:26Z</time>
      </trkpt>
      <trkpt lat="49.86032" lon="2.27792">
        <ele>112.3</ele>
        <time>2022-10-29T12:02:27Z</time>
      </trkpt>
      <trkpt lat="49.86032" lon="2.27792">
        <ele>112.3</ele>
        <time>2022-10-29T12:02:28Z</time>
      </trkpt>
      <trkpt lat="49.86032" lon="2.27792">
        <ele>112.3</ele>
        <time>2022-10-29T12:02:29Z</time>
      </trkpt>
      <trkpt lat="49.86032" lon="2.27792">
        <ele>112.3</ele>
        <time>2022-10-29T12:02:30Z</time>
      </trkpt>
      <trkpt lat="49.86032" lon="2.27792">
        <ele>112.3</ele>
        <time>2022-10-29T12:02:31Z</time>
      </trkpt>
      <trkpt lat="49.86032" lon="2.27792">
        <ele>112.3</ele>
        <time>2022-10-29T12:02:32Z</time>
      </trkpt>
      <trkpt lat="49.86032" lon="2.27792">
        <ele>112.3</ele>
        <time>2022-10-29T12:02:33Z</time>
      </trkpt>
      <trkpt lat="49.86032" lon="2.27792">
        <ele>112.3</ele>
        <time>2022-10-29T12:02:34Z</time>
      </trkpt>
      <trkpt lat="49.86032" lon="2.27792">
        <ele>112.3</ele>
        <time>2022-10-29T12:02:35Z</time>
      </trkpt>
      <trkpt lat="49.86032" lon="2.27792">
        <ele>112.3</ele>
        <time>2022-10-29T12:02:36Z</time>
      </trkpt>
      <trkpt lat="49.86032" lon="2.27792">
        <ele>112.3</ele>
        <time>2022-10-29T12:02:37Z</time>
      </trkpt>
      <trkpt lat="49.86032" lon="2.27792">
        <ele>112.3</ele>
        <time>2022-10-29T12:02:38Z</time>
      </trkpt>
      <trkpt lat="49.86032" lon="2.27792">
        <ele>112.3</ele>
        <time>2022-10-29T12:02:39Z</time>
      </trkpt>
      <trkpt lat="49.86032" lon="2.27792">
        <ele>112.3</ele>
        <time>2022-10-29T12:02:40Z</time>
      </trkpt>
      <trkpt lat="49.86032" lon="2.27792">
        <ele>112.3</ele>
        <time>2022-10-29T12:02:41Z</time>
      </trkpt>
      <trkpt lat="49.86032" lon="2.27792">
        <ele>112.3</ele>
        <time>2022-10-29T12:02:42Z</time>
      </trkpt>
      <trkpt lat="49.86032" lon="2.27792">
        <ele>112.3</ele>
        <time>2022-10-29T12:02:43Z</time>
      </trkpt>
      <trkpt lat="49.86032" lon="2.27792">
        <ele>112.3</ele>
        <time>2022-10-29T12:02:44Z</time>
      </trkpt>
      <trkpt lat="49.86032" lon="2.27792">
        <ele>112.3</ele>
        <time>2022-10-29T12:02:45Z</time>
      </trkpt>
      <trkpt lat="49.86032" lon="2.27792">
        <ele>112.3</ele>
        <time>2022-10-29T12:02:46Z</time>
      </trkpt>
      <trkpt lat="49.86032" lon="2.27792">
        <ele>112.3</ele>
        <time>2022-10-29T12:02:47Z</time>
      </trkpt>
      <trkpt lat="49.86032" lon="2.27792">
        <ele>112.3</ele>
        <time>2022-10-29T12:02:48Z</time>
      </trkpt>
      <trkpt lat="49.86032" lon="2.27791">
        <ele>112.3</ele>
        <time>2022-10-29T12:02:49Z</time>
      </trkpt>
      <trkpt lat="49.86032" lon="2.27791">
        <ele>112.3</ele>
        <time>2022-10-29T12:02:50Z</time>
      </trkpt>
      <trkpt lat="49.86032" lon="2.27791">
        <ele>112.3</ele>
        <time>2022-10-29T12:02:51Z</time>
      </trkpt>
      <trkpt lat="49.86032" lon="2.27791">
        <ele>112.3</ele>
        <time>2022-10-29T12:02:52Z</time>
      </trkpt>
      <trkpt lat="49.86032" lon="2.27792">
        <ele>112.3</ele>
        <time>2022-10-29T12:02:53Z</time>
      </trkpt>
      <trkpt lat="49.86032" lon="2.27792">
        <ele>112.3</ele>
        <time>2022-10-29T12:02:55Z</time>
      </trkpt>
      <trkpt lat="49.86033" lon="2.27792">
        <ele>112.3</ele>
        <time>2022-10-29T12:02:56Z</time>
      </trkpt>
      <trkpt lat="49.86033" lon="2.27792">
        <ele>112.3</ele>
        <time>2022-10-29T12:02:57Z</time>
      </trkpt>
      <trkpt lat="49.86033" lon="2.27792">
        <ele>112.3</ele>
        <time>2022-10-29T12:02:58Z</time>
      </trkpt>
      <trkpt lat="49.86033" lon="2.27792">
        <ele>112.3</ele>
        <time>2022-10-29T12:03:00Z</time>
      </trkpt>
      <trkpt lat="49.86033" lon="2.27792">
        <ele>112.3</ele>
        <time>2022-10-29T12:03:01Z</time>
      </trkpt>
      <trkpt lat="49.86033" lon="2.27792">
        <ele>112.3</ele>
        <time>2022-10-29T12:03:02Z</time>
      </trkpt>
      <trkpt lat="49.86033" lon="2.27792">
        <ele>112.3</ele>
        <time>2022-10-29T12:03:03Z</time>
      </trkpt>
      <trkpt lat="49.86033" lon="2.27792">
        <ele>112.3</ele>
        <time>2022-10-29T12:03:05Z</time>
      </trkpt>
      <trkpt lat="49.86033" lon="2.27792">
        <ele>112.3</ele>
        <time>2022-10-29T12:03:06Z</time>
      </trkpt>
      <trkpt lat="49.86033" lon="2.27792">
        <ele>112.3</ele>
        <time>2022-10-29T12:03:07Z</time>
      </trkpt>
      <trkpt lat="49.86033" lon="2.27792">
        <ele>112.3</ele>
        <time>2022-10-29T12:03:08Z</time>
      </trkpt>
      <trkpt lat="49.86032" lon="2.27792">
        <ele>112.3</ele>
        <time>2022-10-29T12:03:10Z</time>
      </trkpt>
      <trkpt lat="49.86032" lon="2.27792">
        <ele>112.3</ele>
        <time>2022-10-29T12:03:11Z</time>
      </trkpt>
      <trkpt lat="49.86032" lon="2.27792">
        <ele>112.3</ele>
        <time>2022-10-29T12:03:12Z</time>
      </trkpt>
      <trkpt lat="49.86032" lon="2.27792">
        <ele>112.3</ele>
        <time>2022-10-29T12:03:13Z</time>
      </trkpt>
      <trkpt lat="49.86032" lon="2.27792">
        <ele>112.3</ele>
        <time>2022-10-29T12:03:14Z</time>
      </trkpt>
      <trkpt lat="49.86032" lon="2.27792">
        <ele>112.3</ele>
        <time>2022-10-29T12:03:15Z</time>
      </trkpt>
      <trkpt lat="49.86032" lon="2.27792">
        <ele>112.3</ele>
        <time>2022-10-29T12:03:16Z</time>
      </trkpt>
      <trkpt lat="49.86032" lon="2.27792">
        <ele>112.3</ele>
        <time>2022-10-29T12:03:17Z</time>
      </trkpt>
      <trkpt lat="49.86032" lon="2.27792">
        <ele>112.3</ele>
        <time>2022-10-29T12:03:18Z</time>
      </trkpt>
      <trkpt lat="49.86032" lon="2.27792">
        <ele>112.3</ele>
        <time>2022-10-29T12:03:19Z</time>
      </trkpt>
      <trkpt lat="49.86032" lon="2.27792">
        <ele>112.3</ele>
        <time>2022-10-29T12:03:20Z</time>
      </trkpt>
      <trkpt lat="49.86032" lon="2.27792">
        <ele>112.3</ele>
        <time>2022-10-29T12:03:21Z</time>
      </trkpt>
      <trkpt lat="49.86032" lon="2.27792">
        <ele>112.3</ele>
        <time>2022-10-29T12:03:22Z</time>
      </trkpt>
      <trkpt lat="49.86033" lon="2.27792">
        <ele>112.3</ele>
        <time>2022-10-29T12:03:23Z</time>
      </trkpt>
      <trkpt lat="49.86033" lon="2.27791">
        <ele>112.3</ele>
        <time>2022-10-29T12:03:24Z</time>
      </trkpt>
      <trkpt lat="49.86034" lon="2.27791">
        <ele>112.3</ele>
        <time>2022-10-29T12:03:25Z</time>
      </trkpt>
      <trkpt lat="49.86035" lon="2.2779">
        <ele>112.3</ele>
        <time>2022-10-29T12:03:26Z</time>
      </trkpt>
      <trkpt lat="49.86036" lon="2.2779">
        <ele>112.3</ele>
        <time>2022-10-29T12:03:27Z</time>
      </trkpt>
      <trkpt lat="49.86038" lon="2.27789">
        <ele>112.3</ele>
        <time>2022-10-29T12:03:29Z</time>
      </trkpt>
      <trkpt lat="49.8604" lon="2.27788">
        <ele>112.4</ele>
        <time>2022-10-29T12:03:31Z</time>
      </trkpt>
      <trkpt lat="49.86041" lon="2.27787">
        <ele>112.4</ele>
        <time>2022-10-29T12:03:32Z</time>
      </trkpt>
      <trkpt lat="49.86041" lon="2.27787">
        <ele>112.4</ele>
        <time>2022-10-29T12:03:33Z</time>
      </trkpt>
      <trkpt lat="49.86042" lon="2.27786">
        <ele>112.4</ele>
        <time>2022-10-29T12:03:35Z</time>
      </trkpt>
      <trkpt lat="49.86042" lon="2.27786">
        <ele>112.4</ele>
        <time>2022-10-29T12:03:36Z</time>
      </trkpt>
      <trkpt lat="49.86042" lon="2.27786">
        <ele>112.4</ele>
        <time>2022-10-29T12:03:37Z</time>
      </trkpt>
      <trkpt lat="49.86042" lon="2.27785">
        <ele>112.4</ele>
        <time>2022-10-29T12:03:38Z</time>
      </trkpt>
      <trkpt lat="49.86042" lon="2.27784">
        <ele>112.4</ele>
        <time>2022-10-29T12:03:40Z</time>
      </trkpt>
      <trkpt lat="49.86042" lon="2.27783">
        <ele>112.4</ele>
        <time>2022-10-29T12:03:41Z</time>
      </trkpt>
      <trkpt lat="49.86042" lon="2.27783">
        <ele>112.4</ele>
        <time>2022-10-29T12:03:42Z</time>
      </trkpt>
      <trkpt lat="49.86042" lon="2.27784">
        <ele>112.4</ele>
        <time>2022-10-29T12:03:43Z</time>
      </trkpt>
      <trkpt lat="49.86042" lon="2.27785">
        <ele>112.4</ele>
        <time>2022-10-29T12:03:44Z</time>
      </trkpt>
      <trkpt lat="49.86042" lon="2.27785">
        <ele>112.4</ele>
        <time>2022-10-29T12:03:45Z</time>
      </trkpt>
      <trkpt lat="49.86042" lon="2.27786">
        <ele>112.4</ele>
        <time>2022-10-29T12:03:47Z</time>
      </trkpt>
      <trkpt lat="49.86041" lon="2.27786">
        <ele>112.4</ele>
        <time>2022-10-29T12:03:48Z</time>
      </trkpt>
      <trkpt lat="49.8604" lon="2.27787">
        <ele>112.4</ele>
        <time>2022-10-29T12:03:50Z</time>
      </trkpt>
      <trkpt lat="49.86039" lon="2.27785">
        <ele>112.4</ele>
        <time>2022-10-29T12:03:52Z</time>
      </trkpt>
      <trkpt lat="49.86039" lon="2.27785">
        <ele>112.4</ele>
        <time>2022-10-29T12:03:53Z</time>
      </trkpt>
      <trkpt lat="49.86039" lon="2.27784">
        <ele>112.4</ele>
        <time>2022-10-29T12:03:54Z</time>
      </trkpt>
      <trkpt lat="49.86039" lon="2.27784">
        <ele>112.4</ele>
        <time>2022-10-29T12:03:55Z</time>
      </trkpt>
      <trkpt lat="49.86039" lon="2.27783">
        <ele>112.4</ele>
        <time>2022-10-29T12:03:56Z</time>
      </trkpt>
      <trkpt lat="49.86039" lon="2.27783">
        <ele>112.4</ele>
        <time>2022-10-29T12:03:57Z</time>
      </trkpt>
      <trkpt lat="49.86039" lon="2.27782">
        <ele>112.4</ele>
        <time>2022-10-29T12:03:58Z</time>
      </trkpt>
      <trkpt lat="49.86039" lon="2.27782">
        <ele>112.4</ele>
        <time>2022-10-29T12:04:00Z</time>
      </trkpt>
      <trkpt lat="49.86039" lon="2.27782">
        <ele>112.4</ele>
        <time>2022-10-29T12:04:01Z</time>
      </trkpt>
      <trkpt lat="49.86039" lon="2.27781">
        <ele>112.4</ele>
        <time>2022-10-29T12:04:02Z</time>
      </trkpt>
      <trkpt lat="49.86039" lon="2.27781">
        <ele>112.4</ele>
        <time>2022-10-29T12:04:03Z</time>
      </trkpt>
      <trkpt lat="49.86039" lon="2.27782">
        <ele>112.4</ele>
        <time>2022-10-29T12:04:04Z</time>
      </trkpt>
      <trkpt lat="49.86038" lon="2.27782">
        <ele>112.4</ele>
        <time>2022-10-29T12:04:06Z</time>
      </trkpt>
      <trkpt lat="49.86038" lon="2.27782">
        <ele>112.4</ele>
        <time>2022-10-29T12:04:07Z</time>
      </trkpt>
      <trkpt lat="49.86037" lon="2.27782">
        <ele>112.4</ele>
        <time>2022-10-29T12:04:08Z</time>
      </trkpt>
      <trkpt lat="49.86037" lon="2.27781">
        <ele>112.4</ele>
        <time>2022-10-29T12:04:10Z</time>
      </trkpt>
      <trkpt lat="49.86037" lon="2.27781">
        <ele>112.4</ele>
        <time>2022-10-29T12:04:11Z</time>
      </trkpt>
      <trkpt lat="49.86037" lon="2.27781">
        <ele>112.4</ele>
        <time>2022-10-29T12:04:12Z</time>
      </trkpt>
      <trkpt lat="49.86036" lon="2.27781">
        <ele>112.4</ele>
        <time>2022-10-29T12:04:13Z</time>
      </trkpt>
      <trkpt lat="49.86036" lon="2.2778">
        <ele>112.4</ele>
        <time>2022-10-29T12:04:14Z</time>
      </trkpt>
      <trkpt lat="49.86036" lon="2.2778">
        <ele>112.4</ele>
        <time>2022-10-29T12:04:15Z</time>
      </trkpt>
      <trkpt lat="49.86035" lon="2.2778">
        <ele>112.4</ele>
        <time>2022-10-29T12:04:17Z</time>
      </trkpt>
      <trkpt lat="49.86035" lon="2.2778">
        <ele>112.4</ele>
        <time>2022-10-29T12:04:18Z</time>
      </trkpt>
      <trkpt lat="49.86034" lon="2.2778">
        <ele>112.4</ele>
        <time>2022-10-29T12:04:20Z</time>
      </trkpt>
      <trkpt lat="49.86032" lon="2.2778">
        <ele>112.4</ele>
        <time>2022-10-29T12:04:21Z</time>
      </trkpt>
      <trkpt lat="49.86031" lon="2.27779">
        <ele>112.5</ele>
        <time>2022-10-29T12:04:22Z</time>
      </trkpt>
      <trkpt lat="49.8603" lon="2.27779">
        <ele>112.5</ele>
        <time>2022-10-29T12:04:24Z</time>
      </trkpt>
      <trkpt lat="49.86029" lon="2.27779">
        <ele>112.5</ele>
        <time>2022-10-29T12:04:25Z</time>
      </trkpt>
      <trkpt lat="49.86028" lon="2.27779">
        <ele>112.5</ele>
        <time>2022-10-29T12:04:26Z</time>
      </trkpt>
      <trkpt lat="49.86026" lon="2.27779">
        <ele>112.5</ele>
        <time>2022-10-29T12:04:27Z</time>
      </trkpt>
      <trkpt lat="49.86025" lon="2.2778">
        <ele>112.5</ele>
        <time>2022-10-29T12:04:29Z</time>
      </trkpt>
      <trkpt lat="49.86024" lon="2.2778">
        <ele>112.5</ele>
        <time>2022-10-29T12:04:30Z</time>
      </trkpt>
      <trkpt lat="49.86023" lon="2.2778">
        <ele>112.5</ele>
        <time>2022-10-29T12:04:32Z</time>
      </trkpt>
      <trkpt lat="49.86021" lon="2.2778">
        <ele>112.5</ele>
        <time>2022-10-29T12:04:33Z</time>
      </trkpt>
      <trkpt lat="49.8602" lon="2.2778">
        <ele>112.5</ele>
        <time>2022-10-29T12:04:35Z</time>
      </trkpt>
      <trkpt lat="49.8602" lon="2.2778">
        <ele>112.5</ele>
        <time>2022-10-29T12:04:36Z</time>
      </trkpt>
      <trkpt lat="49.8602" lon="2.27779">
        <ele>112.5</ele>
        <time>2022-10-29T12:04:37Z</time>
      </trkpt>
      <trkpt lat="49.8602" lon="2.27779">
        <ele>112.5</ele>
        <time>2022-10-29T12:04:38Z</time>
      </trkpt>
      <trkpt lat="49.8602" lon="2.27779">
        <ele>112.5</ele>
        <time>2022-10-29T12:04:39Z</time>
      </trkpt>
      <trkpt lat="49.8602" lon="2.27779">
        <ele>112.5</ele>
        <time>2022-10-29T12:04:40Z</time>
      </trkpt>
      <trkpt lat="49.86021" lon="2.27779">
        <ele>112.5</ele>
        <time>2022-10-29T12:04:41Z</time>
      </trkpt>
      <trkpt lat="49.86021" lon="2.27779">
        <ele>112.5</ele>
        <time>2022-10-29T12:04:42Z</time>
      </trkpt>
      <trkpt lat="49.86021" lon="2.27779">
        <ele>112.5</ele>
        <time>2022-10-29T12:04:44Z</time>
      </trkpt>
      <trkpt lat="49.86021" lon="2.27779">
        <ele>112.5</ele>
        <time>2022-10-29T12:04:45Z</time>
      </trkpt>
      <trkpt lat="49.86021" lon="2.27779">
        <ele>112.5</ele>
        <time>2022-10-29T12:04:46Z</time>
      </trkpt>
      <trkpt lat="49.86021" lon="2.27779">
        <ele>112.5</ele>
        <time>2022-10-29T12:04:48Z</time>
      </trkpt>
      <trkpt lat="49.8602" lon="2.27779">
        <ele>112.5</ele>
        <time>2022-10-29T12:04:49Z</time>
      </trkpt>
      <trkpt lat="49.86019" lon="2.2778">
        <ele>112.5</ele>
        <time>2022-10-29T12:04:50Z</time>
      </trkpt>
      <trkpt lat="49.86018" lon="2.2778">
        <ele>112.5</ele>
        <time>2022-10-29T12:04:52Z</time>
      </trkpt>
      <trkpt lat="49.86017" lon="2.27781">
        <ele>112.5</ele>
        <time>2022-10-29T12:04:53Z</time>
      </trkpt>
      <trkpt lat="49.86016" lon="2.27782">
        <ele>112.5</ele>
        <time>2022-10-29T12:04:54Z</time>
      </trkpt>
      <trkpt lat="49.86015" lon="2.27783">
        <ele>112.5</ele>
        <time>2022-10-29T12:04:55Z</time>
      </trkpt>
      <trkpt lat="49.86014" lon="2.27784">
        <ele>112.6</ele>
        <time>2022-10-29T12:04:56Z</time>
      </trkpt>
      <trkpt lat="49.86013" lon="2.27785">
        <ele>112.6</ele>
        <time>2022-10-29T12:04:57Z</time>
      </trkpt>
      <trkpt lat="49.86012" lon="2.27786">
        <ele>112.6</ele>
        <time>2022-10-29T12:04:58Z</time>
      </trkpt>
      <trkpt lat="49.86011" lon="2.27787">
        <ele>112.6</ele>
        <time>2022-10-29T12:04:59Z</time>
      </trkpt>
      <trkpt lat="49.86011" lon="2.27788">
        <ele>112.6</ele>
        <time>2022-10-29T12:05:00Z</time>
      </trkpt>
      <trkpt lat="49.86012" lon="2.27789">
        <ele>112.6</ele>
        <time>2022-10-29T12:05:02Z</time>
      </trkpt>
      <trkpt lat="49.86012" lon="2.27789">
        <ele>112.6</ele>
        <time>2022-10-29T12:05:03Z</time>
      </trkpt>
      <trkpt lat="49.86011" lon="2.27788">
        <ele>112.6</ele>
        <time>2022-10-29T12:05:04Z</time>
      </trkpt>
      <trkpt lat="49.86011" lon="2.2779">
        <ele>112.6</ele>
        <time>2022-10-29T12:05:05Z</time>
      </trkpt>
      <trkpt lat="49.86011" lon="2.27793">
        <ele>112.6</ele>
        <time>2022-10-29T12:05:06Z</time>
      </trkpt>
      <trkpt lat="49.86011" lon="2.27795">
        <ele>112.6</ele>
        <time>2022-10-29T12:05:07Z</time>
      </trkpt>
      <trkpt lat="49.8601" lon="2.27798">
        <ele>112.6</ele>
        <time>2022-10-29T12:05:08Z</time>
      </trkpt>
      <trkpt lat="49.8601" lon="2.278">
        <ele>112.6</ele>
        <time>2022-10-29T12:05:10Z</time>
      </trkpt>
      <trkpt lat="49.8601" lon="2.27801">
        <ele>112.6</ele>
        <time>2022-10-29T12:05:11Z</time>
      </trkpt>
      <trkpt lat="49.86009" lon="2.27804">
        <ele>112.6</ele>
        <time>2022-10-29T12:05:12Z</time>
      </trkpt>
      <trkpt lat="49.86009" lon="2.27806">
        <ele>112.6</ele>
        <time>2022-10-29T12:05:13Z</time>
      </trkpt>
      <trkpt lat="49.86009" lon="2.27807">
        <ele>112.6</ele>
        <time>2022-10-29T12:05:14Z</time>
      </trkpt>
      <trkpt lat="49.86009" lon="2.27809">
        <ele>112.6</ele>
        <time>2022-10-29T12:05:15Z</time>
      </trkpt>
      <trkpt lat="49.86009" lon="2.27811">
        <ele>112.6</ele>
        <time>2022-10-29T12:05:16Z</time>
      </trkpt>
      <trkpt lat="49.86009" lon="2.27812">
        <ele>112.6</ele>
        <time>2022-10-29T12:05:18Z</time>
      </trkpt>
      <trkpt lat="49.86009" lon="2.27813">
        <ele>112.6</ele>
        <time>2022-10-29T12:05:19Z</time>
      </trkpt>
      <trkpt lat="49.86008" lon="2.27816">
        <ele>112.7</ele>
        <time>2022-10-29T12:05:20Z</time>
      </trkpt>
      <trkpt lat="49.86008" lon="2.27818">
        <ele>112.7</ele>
        <time>2022-10-29T12:05:21Z</time>
      </trkpt>
      <trkpt lat="49.86008" lon="2.27819">
        <ele>112.7</ele>
        <time>2022-10-29T12:05:22Z</time>
      </trkpt>
      <trkpt lat="49.86007" lon="2.2782">
        <ele>112.7</ele>
        <time>2022-10-29T12:05:23Z</time>
      </trkpt>
      <trkpt lat="49.86007" lon="2.27822">
        <ele>112.7</ele>
        <time>2022-10-29T12:05:24Z</time>
      </trkpt>
      <trkpt lat="49.86006" lon="2.27824">
        <ele>112.7</ele>
        <time>2022-10-29T12:05:25Z</time>
      </trkpt>
      <trkpt lat="49.86005" lon="2.27827">
        <ele>112.7</ele>
        <time>2022-10-29T12:05:27Z</time>
      </trkpt>
      <trkpt lat="49.86005" lon="2.27828">
        <ele>112.7</ele>
        <time>2022-10-29T12:05:28Z</time>
      </trkpt>
      <trkpt lat="49.86004" lon="2.2783">
        <ele>112.7</ele>
        <time>2022-10-29T12:05:29Z</time>
      </trkpt>
      <trkpt lat="49.86004" lon="2.27831">
        <ele>112.7</ele>
        <time>2022-10-29T12:05:30Z</time>
      </trkpt>
      <trkpt lat="49.86004" lon="2.27833">
        <ele>112.8</ele>
        <time>2022-10-29T12:05:31Z</time>
      </trkpt>
      <trkpt lat="49.86003" lon="2.27834">
        <ele>112.8</ele>
        <time>2022-10-29T12:05:32Z</time>
      </trkpt>
      <trkpt lat="49.86003" lon="2.27836">
        <ele>112.8</ele>
        <time>2022-10-29T12:05:34Z</time>
      </trkpt>
      <trkpt lat="49.86002" lon="2.27838">
        <ele>112.8</ele>
        <time>2022-10-29T12:05:35Z</time>
      </trkpt>
      <trkpt lat="49.86001" lon="2.27841">
        <ele>112.8</ele>
        <time>2022-10-29T12:05:36Z</time>
      </trkpt>
      <trkpt lat="49.86001" lon="2.27843">
        <ele>112.8</ele>
        <time>2022-10-29T12:05:37Z</time>
      </trkpt>
      <trkpt lat="49.86001" lon="2.27844">
        <ele>112.8</ele>
        <time>2022-10-29T12:05:38Z</time>
      </trkpt>
      <trkpt lat="49.86" lon="2.27846">
        <ele>112.9</ele>
        <time>2022-10-29T12:05:39Z</time>
      </trkpt>
      <trkpt lat="49.86" lon="2.27848">
        <ele>112.9</ele>
        <time>2022-10-29T12:05:40Z</time>
      </trkpt>
      <trkpt lat="49.85999" lon="2.27851">
        <ele>112.9</ele>
        <time>2022-10-29T12:05:41Z</time>
      </trkpt>
      <trkpt lat="49.85999" lon="2.27852">
        <ele>112.9</ele>
        <time>2022-10-29T12:05:43Z</time>
      </trkpt>
      <trkpt lat="49.85998" lon="2.27854">
        <ele>112.9</ele>
        <time>2022-10-29T12:05:44Z</time>
      </trkpt>
      <trkpt lat="49.85998" lon="2.27856">
        <ele>112.9</ele>
        <time>2022-10-29T12:05:45Z</time>
      </trkpt>
      <trkpt lat="49.85997" lon="2.27858">
        <ele>113</ele>
        <time>2022-10-29T12:05:46Z</time>
      </trkpt>
      <trkpt lat="49.85997" lon="2.27861">
        <ele>113</ele>
        <time>2022-10-29T12:05:47Z</time>
      </trkpt>
      <trkpt lat="49.85996" lon="2.27862">
        <ele>113</ele>
        <time>2022-10-29T12:05:48Z</time>
      </trkpt>
      <trkpt lat="49.85996" lon="2.27863">
        <ele>113</ele>
        <time>2022-10-29T12:05:49Z</time>
      </trkpt>
      <trkpt lat="49.85996" lon="2.27865">
        <ele>113</ele>
        <time>2022-10-29T12:05:50Z</time>
      </trkpt>
      <trkpt lat="49.85995" lon="2.27866">
        <ele>113</ele>
        <time>2022-10-29T12:05:52Z</time>
      </trkpt>
      <trkpt lat="49.85995" lon="2.27868">
        <ele>113.1</ele>
        <time>2022-10-29T12:05:53Z</time>
      </trkpt>
      <trkpt lat="49.85994" lon="2.2787">
        <ele>113.1</ele>
        <time>2022-10-29T12:05:54Z</time>
      </trkpt>
      <trkpt lat="49.85994" lon="2.27872">
        <ele>113.1</ele>
        <time>2022-10-29T12:05:55Z</time>
      </trkpt>
      <trkpt lat="49.85994" lon="2.27874">
        <ele>113.1</ele>
        <time>2022-10-29T12:05:56Z</time>
      </trkpt>
      <trkpt lat="49.85994" lon="2.27875">
        <ele>113.1</ele>
        <time>2022-10-29T12:05:57Z</time>
      </trkpt>
      <trkpt lat="49.85993" lon="2.27877">
        <ele>113.1</ele>
        <time>2022-10-29T12:05:58Z</time>
      </trkpt>
      <trkpt lat="49.85993" lon="2.2788">
        <ele>113.2</ele>
        <time>2022-10-29T12:06:00Z</time>
      </trkpt>
      <trkpt lat="49.85993" lon="2.27881">
        <ele>113.2</ele>
        <time>2022-10-29T12:06:01Z</time>
      </trkpt>
      <trkpt lat="49.85993" lon="2.27882">
        <ele>113.2</ele>
        <time>2022-10-29T12:06:02Z</time>
      </trkpt>
      <trkpt lat="49.85992" lon="2.27884">
        <ele>113.2</ele>
        <time>2022-10-29T12:06:03Z</time>
      </trkpt>
      <trkpt lat="49.85992" lon="2.27886">
        <ele>113.2</ele>
        <time>2022-10-29T12:06:04Z</time>
      </trkpt>
      <trkpt lat="49.85992" lon="2.27887">
        <ele>113.2</ele>
        <time>2022-10-29T12:06:05Z</time>
      </trkpt>
      <trkpt lat="49.85992" lon="2.2789">
        <ele>113.2</ele>
        <time>2022-10-29T12:06:06Z</time>
      </trkpt>
      <trkpt lat="49.85991" lon="2.27892">
        <ele>113.3</ele>
        <time>2022-10-29T12:06:07Z</time>
      </trkpt>
      <trkpt lat="49.85991" lon="2.27893">
        <ele>113.3</ele>
        <time>2022-10-29T12:06:09Z</time>
      </trkpt>
      <trkpt lat="49.85991" lon="2.27895">
        <ele>113.3</ele>
        <time>2022-10-29T12:06:10Z</time>
      </trkpt>
      <trkpt lat="49.85991" lon="2.27896">
        <ele>113.3</ele>
        <time>2022-10-29T12:06:11Z</time>
      </trkpt>
      <trkpt lat="49.85991" lon="2.27898">
        <ele>113.3</ele>
        <time>2022-10-29T12:06:12Z</time>
      </trkpt>
      <trkpt lat="49.85991" lon="2.27899">
        <ele>113.3</ele>
        <time>2022-10-29T12:06:13Z</time>
      </trkpt>
      <trkpt lat="49.8599" lon="2.27902">
        <ele>113.3</ele>
        <time>2022-10-29T12:06:14Z</time>
      </trkpt>
      <trkpt lat="49.8599" lon="2.27903">
        <ele>113.3</ele>
        <time>2022-10-29T12:06:15Z</time>
      </trkpt>
      <trkpt lat="49.8599" lon="2.27905">
        <ele>113.3</ele>
        <time>2022-10-29T12:06:16Z</time>
      </trkpt>
      <trkpt lat="49.8599" lon="2.27907">
        <ele>113.4</ele>
        <time>2022-10-29T12:06:18Z</time>
      </trkpt>
      <trkpt lat="49.8599" lon="2.27908">
        <ele>113.4</ele>
        <time>2022-10-29T12:06:19Z</time>
      </trkpt>
      <trkpt lat="49.85989" lon="2.2791">
        <ele>113.4</ele>
        <time>2022-10-29T12:06:20Z</time>
      </trkpt>
      <trkpt lat="49.85989" lon="2.27912">
        <ele>113.4</ele>
        <time>2022-10-29T12:06:21Z</time>
      </trkpt>
      <trkpt lat="49.85989" lon="2.27914">
        <ele>113.4</ele>
        <time>2022-10-29T12:06:22Z</time>
      </trkpt>
      <trkpt lat="49.85989" lon="2.27915">
        <ele>113.4</ele>
        <time>2022-10-29T12:06:23Z</time>
      </trkpt>
      <trkpt lat="49.85988" lon="2.27917">
        <ele>113.4</ele>
        <time>2022-10-29T12:06:24Z</time>
      </trkpt>
      <trkpt lat="49.85988" lon="2.27919">
        <ele>113.4</ele>
        <time>2022-10-29T12:06:25Z</time>
      </trkpt>
      <trkpt lat="49.85988" lon="2.2792">
        <ele>113.4</ele>
        <time>2022-10-29T12:06:27Z</time>
      </trkpt>
      <trkpt lat="49.85989" lon="2.27922">
        <ele>113.4</ele>
        <time>2022-10-29T12:06:28Z</time>
      </trkpt>
      <trkpt lat="49.85989" lon="2.27924">
        <ele>113.5</ele>
        <time>2022-10-29T12:06:29Z</time>
      </trkpt>
      <trkpt lat="49.85989" lon="2.27926">
        <ele>113.5</ele>
        <time>2022-10-29T12:06:30Z</time>
      </trkpt>
      <trkpt lat="49.85989" lon="2.27928">
        <ele>113.5</ele>
        <time>2022-10-29T12:06:31Z</time>
      </trkpt>
      <trkpt lat="49.85989" lon="2.27929">
        <ele>113.5</ele>
        <time>2022-10-29T12:06:32Z</time>
      </trkpt>
      <trkpt lat="49.85989" lon="2.27931">
        <ele>113.5</ele>
        <time>2022-10-29T12:06:33Z</time>
      </trkpt>
      <trkpt lat="49.85988" lon="2.27933">
        <ele>113.5</ele>
        <time>2022-10-29T12:06:35Z</time>
      </trkpt>
      <trkpt lat="49.85988" lon="2.27934">
        <ele>113.5</ele>
        <time>2022-10-29T12:06:36Z</time>
      </trkpt>
      <trkpt lat="49.85988" lon="2.27935">
        <ele>113.5</ele>
        <time>2022-10-29T12:06:37Z</time>
      </trkpt>
      <trkpt lat="49.85988" lon="2.27937">
        <ele>113.5</ele>
        <time>2022-10-29T12:06:38Z</time>
      </trkpt>
      <trkpt lat="49.85987" lon="2.27939">
        <ele>113.5</ele>
        <time>2022-10-29T12:06:39Z</time>
      </trkpt>
      <trkpt lat="49.85987" lon="2.2794">
        <ele>113.5</ele>
        <time>2022-10-29T12:06:40Z</time>
      </trkpt>
      <trkpt lat="49.85986" lon="2.27941">
        <ele>113.5</ele>
        <time>2022-10-29T12:06:41Z</time>
      </trkpt>
      <trkpt lat="49.85986" lon="2.27943">
        <ele>113.5</ele>
        <time>2022-10-29T12:06:42Z</time>
      </trkpt>
      <trkpt lat="49.85985" lon="2.27944">
        <ele>113.5</ele>
        <time>2022-10-29T12:06:44Z</time>
      </trkpt>
      <trkpt lat="49.85985" lon="2.27946">
        <ele>113.6</ele>
        <time>2022-10-29T12:06:45Z</time>
      </trkpt>
      <trkpt lat="49.85985" lon="2.27947">
        <ele>113.6</ele>
        <time>2022-10-29T12:06:46Z</time>
      </trkpt>
      <trkpt lat="49.85984" lon="2.27948">
        <ele>113.6</ele>
        <time>2022-10-29T12:06:47Z</time>
      </trkpt>
      <trkpt lat="49.85984" lon="2.2795">
        <ele>113.6</ele>
        <time>2022-10-29T12:06:48Z</time>
      </trkpt>
      <trkpt lat="49.85983" lon="2.27952">
        <ele>113.6</ele>
        <time>2022-10-29T12:06:49Z</time>
      </trkpt>
      <trkpt lat="49.85983" lon="2.27953">
        <ele>113.6</ele>
        <time>2022-10-29T12:06:50Z</time>
      </trkpt>
      <trkpt lat="49.85982" lon="2.27954">
        <ele>113.6</ele>
        <time>2022-10-29T12:06:51Z</time>
      </trkpt>
      <trkpt lat="49.85981" lon="2.27957">
        <ele>113.6</ele>
        <time>2022-10-29T12:06:52Z</time>
      </trkpt>
      <trkpt lat="49.85981" lon="2.27959">
        <ele>113.6</ele>
        <time>2022-10-29T12:06:54Z</time>
      </trkpt>
      <trkpt lat="49.85981" lon="2.2796">
        <ele>113.6</ele>
        <time>2022-10-29T12:06:55Z</time>
      </trkpt>
      <trkpt lat="49.8598" lon="2.27962">
        <ele>113.6</ele>
        <time>2022-10-29T12:06:56Z</time>
      </trkpt>
      <trkpt lat="49.8598" lon="2.27963">
        <ele>113.6</ele>
        <time>2022-10-29T12:06:57Z</time>
      </trkpt>
      <trkpt lat="49.85979" lon="2.27965">
        <ele>113.7</ele>
        <time>2022-10-29T12:06:58Z</time>
      </trkpt>
      <trkpt lat="49.85979" lon="2.27967">
        <ele>113.7</ele>
        <time>2022-10-29T12:06:59Z</time>
      </trkpt>
      <trkpt lat="49.85978" lon="2.27968">
        <ele>113.7</ele>
        <time>2022-10-29T12:07:00Z</time>
      </trkpt>
      <trkpt lat="49.85978" lon="2.2797">
        <ele>113.7</ele>
        <time>2022-10-29T12:07:02Z</time>
      </trkpt>
      <trkpt lat="49.85977" lon="2.27973">
        <ele>113.7</ele>
        <time>2022-10-29T12:07:03Z</time>
      </trkpt>
      <trkpt lat="49.85977" lon="2.27974">
        <ele>113.7</ele>
        <time>2022-10-29T12:07:04Z</time>
      </trkpt>
      <trkpt lat="49.85977" lon="2.27976">
        <ele>113.7</ele>
        <time>2022-10-29T12:07:05Z</time>
      </trkpt>
      <trkpt lat="49.85977" lon="2.27977">
        <ele>113.7</ele>
        <time>2022-10-29T12:07:06Z</time>
      </trkpt>
      <trkpt lat="49.85977" lon="2.27979">
        <ele>113.7</ele>
        <time>2022-10-29T12:07:07Z</time>
      </trkpt>
      <trkpt lat="49.85976" lon="2.27981">
        <ele>113.7</ele>
        <time>2022-10-29T12:07:08Z</time>
      </trkpt>
      <trkpt lat="49.85976" lon="2.27983">
        <ele>113.7</ele>
        <time>2022-10-29T12:07:09Z</time>
      </trkpt>
      <trkpt lat="49.85975" lon="2.27984">
        <ele>113.7</ele>
        <time>2022-10-29T12:07:11Z</time>
      </trkpt>
      <trkpt lat="49.85975" lon="2.27986">
        <ele>113.7</ele>
        <time>2022-10-29T12:07:12Z</time>
      </trkpt>
      <trkpt lat="49.85975" lon="2.27989">
        <ele>113.7</ele>
        <time>2022-10-29T12:07:13Z</time>
      </trkpt>
      <trkpt lat="49.85974" lon="2.2799">
        <ele>113.8</ele>
        <time>2022-10-29T12:07:14Z</time>
      </trkpt>
      <trkpt lat="49.85974" lon="2.27991">
        <ele>113.8</ele>
        <time>2022-10-29T12:07:15Z</time>
      </trkpt>
      <trkpt lat="49.85974" lon="2.27993">
        <ele>113.8</ele>
        <time>2022-10-29T12:07:16Z</time>
      </trkpt>
      <trkpt lat="49.85974" lon="2.27995">
        <ele>113.8</ele>
        <time>2022-10-29T12:07:17Z</time>
      </trkpt>
      <trkpt lat="49.85973" lon="2.27996">
        <ele>113.8</ele>
        <time>2022-10-29T12:07:18Z</time>
      </trkpt>
      <trkpt lat="49.85973" lon="2.27999">
        <ele>113.8</ele>
        <time>2022-10-29T12:07:19Z</time>
      </trkpt>
      <trkpt lat="49.85972" lon="2.28001">
        <ele>113.8</ele>
        <time>2022-10-29T12:07:21Z</time>
      </trkpt>
      <trkpt lat="49.85972" lon="2.28003">
        <ele>113.8</ele>
        <time>2022-10-29T12:07:22Z</time>
      </trkpt>
      <trkpt lat="49.85971" lon="2.28005">
        <ele>113.8</ele>
        <time>2022-10-29T12:07:23Z</time>
      </trkpt>
      <trkpt lat="49.85971" lon="2.28007">
        <ele>113.8</ele>
        <time>2022-10-29T12:07:24Z</time>
      </trkpt>
      <trkpt lat="49.8597" lon="2.2801">
        <ele>113.8</ele>
        <time>2022-10-29T12:07:25Z</time>
      </trkpt>
      <trkpt lat="49.8597" lon="2.28011">
        <ele>113.8</ele>
        <time>2022-10-29T12:07:26Z</time>
      </trkpt>
      <trkpt lat="49.8597" lon="2.28013">
        <ele>113.9</ele>
        <time>2022-10-29T12:07:27Z</time>
      </trkpt>
      <trkpt lat="49.8597" lon="2.28015">
        <ele>113.9</ele>
        <time>2022-10-29T12:07:28Z</time>
      </trkpt>
      <trkpt lat="49.85969" lon="2.28018">
        <ele>113.9</ele>
        <time>2022-10-29T12:07:29Z</time>
      </trkpt>
      <trkpt lat="49.85969" lon="2.28019">
        <ele>113.9</ele>
        <time>2022-10-29T12:07:30Z</time>
      </trkpt>
      <trkpt lat="49.85969" lon="2.2802">
        <ele>113.9</ele>
        <time>2022-10-29T12:07:31Z</time>
      </trkpt>
      <trkpt lat="49.85967" lon="2.28023">
        <ele>113.9</ele>
        <time>2022-10-29T12:07:33Z</time>
      </trkpt>
      <trkpt lat="49.85967" lon="2.28024">
        <ele>113.9</ele>
        <time>2022-10-29T12:07:34Z</time>
      </trkpt>
      <trkpt lat="49.85966" lon="2.28026">
        <ele>113.9</ele>
        <time>2022-10-29T12:07:35Z</time>
      </trkpt>
      <trkpt lat="49.85965" lon="2.28027">
        <ele>113.9</ele>
        <time>2022-10-29T12:07:36Z</time>
      </trkpt>
      <trkpt lat="49.85965" lon="2.28029">
        <ele>113.9</ele>
        <time>2022-10-29T12:07:37Z</time>
      </trkpt>
      <trkpt lat="49.85964" lon="2.28031">
        <ele>113.9</ele>
        <time>2022-10-29T12:07:38Z</time>
      </trkpt>
      <trkpt lat="49.85964" lon="2.28032">
        <ele>113.9</ele>
        <time>2022-10-29T12:07:39Z</time>
      </trkpt>
      <trkpt lat="49.85964" lon="2.28034">
        <ele>113.9</ele>
        <time>2022-10-29T12:07:40Z</time>
      </trkpt>
      <trkpt lat="49.85963" lon="2.28036">
        <ele>113.9</ele>
        <time>2022-10-29T12:07:41Z</time>
      </trkpt>
      <trkpt lat="49.85963" lon="2.28039">
        <ele>114</ele>
        <time>2022-10-29T12:07:42Z</time>
      </trkpt>
      <trkpt lat="49.85962" lon="2.2804">
        <ele>114</ele>
        <time>2022-10-29T12:07:44Z</time>
      </trkpt>
      <trkpt lat="49.85962" lon="2.28041">
        <ele>114</ele>
        <time>2022-10-29T12:07:45Z</time>
      </trkpt>
      <trkpt lat="49.85962" lon="2.28043">
        <ele>114</ele>
        <time>2022-10-29T12:07:46Z</time>
      </trkpt>
      <trkpt lat="49.85962" lon="2.28045">
        <ele>114</ele>
        <time>2022-10-29T12:07:47Z</time>
      </trkpt>
      <trkpt lat="49.85961" lon="2.28046">
        <ele>114</ele>
        <time>2022-10-29T12:07:48Z</time>
      </trkpt>
      <trkpt lat="49.85961" lon="2.28048">
        <ele>114</ele>
        <time>2022-10-29T12:07:49Z</time>
      </trkpt>
      <trkpt lat="49.85961" lon="2.2805">
        <ele>114</ele>
        <time>2022-10-29T12:07:50Z</time>
      </trkpt>
      <trkpt lat="49.85961" lon="2.28052">
        <ele>114</ele>
        <time>2022-10-29T12:07:51Z</time>
      </trkpt>
      <trkpt lat="49.85961" lon="2.28054">
        <ele>114</ele>
        <time>2022-10-29T12:07:52Z</time>
      </trkpt>
      <trkpt lat="49.85961" lon="2.28056">
        <ele>114</ele>
        <time>2022-10-29T12:07:53Z</time>
      </trkpt>
      <trkpt lat="49.8596" lon="2.28057">
        <ele>114</ele>
        <time>2022-10-29T12:07:54Z</time>
      </trkpt>
      <trkpt lat="49.8596" lon="2.28058">
        <ele>114</ele>
        <time>2022-10-29T12:07:55Z</time>
      </trkpt>
      <trkpt lat="49.8596" lon="2.2806">
        <ele>114</ele>
        <time>2022-10-29T12:07:57Z</time>
      </trkpt>
      <trkpt lat="49.8596" lon="2.28062">
        <ele>114</ele>
        <time>2022-10-29T12:07:58Z</time>
      </trkpt>
      <trkpt lat="49.8596" lon="2.28064">
        <ele>114</ele>
        <time>2022-10-29T12:07:59Z</time>
      </trkpt>
      <trkpt lat="49.8596" lon="2.28067">
        <ele>114</ele>
        <time>2022-10-29T12:08:00Z</time>
      </trkpt>
      <trkpt lat="49.8596" lon="2.28069">
        <ele>114</ele>
        <time>2022-10-29T12:08:01Z</time>
      </trkpt>
      <trkpt lat="49.85959" lon="2.28071">
        <ele>114</ele>
        <time>2022-10-29T12:08:02Z</time>
      </trkpt>
      <trkpt lat="49.85959" lon="2.28073">
        <ele>114</ele>
        <time>2022-10-29T12:08:04Z</time>
      </trkpt>
      <trkpt lat="49.85958" lon="2.28075">
        <ele>114</ele>
        <time>2022-10-29T12:08:05Z</time>
      </trkpt>
      <trkpt lat="49.85958" lon="2.28078">
        <ele>114</ele>
        <time>2022-10-29T12:08:06Z</time>
      </trkpt>
      <trkpt lat="49.85958" lon="2.28079">
        <ele>114</ele>
        <time>2022-10-29T12:08:07Z</time>
      </trkpt>
      <trkpt lat="49.85957" lon="2.28081">
        <ele>114</ele>
        <time>2022-10-29T12:08:08Z</time>
      </trkpt>
      <trkpt lat="49.85957" lon="2.28083">
        <ele>114</ele>
        <time>2022-10-29T12:08:09Z</time>
      </trkpt>
      <trkpt lat="49.85957" lon="2.28085">
        <ele>114</ele>
        <time>2022-10-29T12:08:10Z</time>
      </trkpt>
      <trkpt lat="49.85956" lon="2.28088">
        <ele>114</ele>
        <time>2022-10-29T12:08:11Z</time>
      </trkpt>
      <trkpt lat="49.85956" lon="2.2809">
        <ele>114</ele>
        <time>2022-10-29T12:08:12Z</time>
      </trkpt>
      <trkpt lat="49.85956" lon="2.28091">
        <ele>114</ele>
        <time>2022-10-29T12:08:13Z</time>
      </trkpt>
      <trkpt lat="49.85956" lon="2.28093">
        <ele>113.9</ele>
        <time>2022-10-29T12:08:14Z</time>
      </trkpt>
      <trkpt lat="49.85955" lon="2.28095">
        <ele>113.9</ele>
        <time>2022-10-29T12:08:15Z</time>
      </trkpt>
      <trkpt lat="49.85955" lon="2.28097">
        <ele>113.9</ele>
        <time>2022-10-29T12:08:16Z</time>
      </trkpt>
      <trkpt lat="49.85955" lon="2.28099">
        <ele>113.9</ele>
        <time>2022-10-29T12:08:18Z</time>
      </trkpt>
      <trkpt lat="49.85955" lon="2.281">
        <ele>113.9</ele>
        <time>2022-10-29T12:08:19Z</time>
      </trkpt>
      <trkpt lat="49.85954" lon="2.28102">
        <ele>113.9</ele>
        <time>2022-10-29T12:08:20Z</time>
      </trkpt>
      <trkpt lat="49.85954" lon="2.28105">
        <ele>113.9</ele>
        <time>2022-10-29T12:08:21Z</time>
      </trkpt>
      <trkpt lat="49.85953" lon="2.28108">
        <ele>113.9</ele>
        <time>2022-10-29T12:08:22Z</time>
      </trkpt>
      <trkpt lat="49.85953" lon="2.28109">
        <ele>113.9</ele>
        <time>2022-10-29T12:08:24Z</time>
      </trkpt>
      <trkpt lat="49.85952" lon="2.28111">
        <ele>113.9</ele>
        <time>2022-10-29T12:08:25Z</time>
      </trkpt>
      <trkpt lat="49.85952" lon="2.28112">
        <ele>113.9</ele>
        <time>2022-10-29T12:08:26Z</time>
      </trkpt>
      <trkpt lat="49.85952" lon="2.28114">
        <ele>113.9</ele>
        <time>2022-10-29T12:08:27Z</time>
      </trkpt>
      <trkpt lat="49.85952" lon="2.28116">
        <ele>113.9</ele>
        <time>2022-10-29T12:08:28Z</time>
      </trkpt>
      <trkpt lat="49.85951" lon="2.28118">
        <ele>113.9</ele>
        <time>2022-10-29T12:08:30Z</time>
      </trkpt>
      <trkpt lat="49.85951" lon="2.2812">
        <ele>113.9</ele>
        <time>2022-10-29T12:08:31Z</time>
      </trkpt>
      <trkpt lat="49.85951" lon="2.28122">
        <ele>113.9</ele>
        <time>2022-10-29T12:08:32Z</time>
      </trkpt>
      <trkpt lat="49.85951" lon="2.28123">
        <ele>113.9</ele>
        <time>2022-10-29T12:08:33Z</time>
      </trkpt>
      <trkpt lat="49.85951" lon="2.28125">
        <ele>113.9</ele>
        <time>2022-10-29T12:08:34Z</time>
      </trkpt>
      <trkpt lat="49.8595" lon="2.28128">
        <ele>113.9</ele>
        <time>2022-10-29T12:08:35Z</time>
      </trkpt>
      <trkpt lat="49.8595" lon="2.2813">
        <ele>113.9</ele>
        <time>2022-10-29T12:08:36Z</time>
      </trkpt>
      <trkpt lat="49.8595" lon="2.28131">
        <ele>113.9</ele>
        <time>2022-10-29T12:08:37Z</time>
      </trkpt>
      <trkpt lat="49.8595" lon="2.28133">
        <ele>113.9</ele>
        <time>2022-10-29T12:08:38Z</time>
      </trkpt>
      <trkpt lat="49.85949" lon="2.28135">
        <ele>113.9</ele>
        <time>2022-10-29T12:08:39Z</time>
      </trkpt>
      <trkpt lat="49.85949" lon="2.28137">
        <ele>113.9</ele>
        <time>2022-10-29T12:08:41Z</time>
      </trkpt>
      <trkpt lat="49.85949" lon="2.28138">
        <ele>113.9</ele>
        <time>2022-10-29T12:08:42Z</time>
      </trkpt>
      <trkpt lat="49.85949" lon="2.2814">
        <ele>113.9</ele>
        <time>2022-10-29T12:08:43Z</time>
      </trkpt>
      <trkpt lat="49.85948" lon="2.28141">
        <ele>113.8</ele>
        <time>2022-10-29T12:08:44Z</time>
      </trkpt>
      <trkpt lat="49.85948" lon="2.28144">
        <ele>113.8</ele>
        <time>2022-10-29T12:08:45Z</time>
      </trkpt>
      <trkpt lat="49.85948" lon="2.28145">
        <ele>113.8</ele>
        <time>2022-10-29T12:08:46Z</time>
      </trkpt>
      <trkpt lat="49.85948" lon="2.28147">
        <ele>113.8</ele>
        <time>2022-10-29T12:08:47Z</time>
      </trkpt>
      <trkpt lat="49.85947" lon="2.28149">
        <ele>113.8</ele>
        <time>2022-10-29T12:08:48Z</time>
      </trkpt>
      <trkpt lat="49.85947" lon="2.28151">
        <ele>113.8</ele>
        <time>2022-10-29T12:08:49Z</time>
      </trkpt>
      <trkpt lat="49.85947" lon="2.28153">
        <ele>113.8</ele>
        <time>2022-10-29T12:08:50Z</time>
      </trkpt>
      <trkpt lat="49.85947" lon="2.28155">
        <ele>113.8</ele>
        <time>2022-10-29T12:08:52Z</time>
      </trkpt>
      <trkpt lat="49.85946" lon="2.28156">
        <ele>113.8</ele>
        <time>2022-10-29T12:08:53Z</time>
      </trkpt>
      <trkpt lat="49.85946" lon="2.28158">
        <ele>113.8</ele>
        <time>2022-10-29T12:08:54Z</time>
      </trkpt>
      <trkpt lat="49.85946" lon="2.28159">
        <ele>113.8</ele>
        <time>2022-10-29T12:08:55Z</time>
      </trkpt>
      <trkpt lat="49.85946" lon="2.2816">
        <ele>113.8</ele>
        <time>2022-10-29T12:08:56Z</time>
      </trkpt>
      <trkpt lat="49.85946" lon="2.28162">
        <ele>113.8</ele>
        <time>2022-10-29T12:08:57Z</time>
      </trkpt>
      <trkpt lat="49.85945" lon="2.28164">
        <ele>113.8</ele>
        <time>2022-10-29T12:08:58Z</time>
      </trkpt>
      <trkpt lat="49.85945" lon="2.28166">
        <ele>113.8</ele>
        <time>2022-10-29T12:08:59Z</time>
      </trkpt>
      <trkpt lat="49.85944" lon="2.28169">
        <ele>113.7</ele>
        <time>2022-10-29T12:09:00Z</time>
      </trkpt>
      <trkpt lat="49.85944" lon="2.28169">
        <ele>113.7</ele>
        <time>2022-10-29T12:09:01Z</time>
      </trkpt>
      <trkpt lat="49.85944" lon="2.28171">
        <ele>113.7</ele>
        <time>2022-10-29T12:09:03Z</time>
      </trkpt>
      <trkpt lat="49.85943" lon="2.28174">
        <ele>113.7</ele>
        <time>2022-10-29T12:09:04Z</time>
      </trkpt>
      <trkpt lat="49.85943" lon="2.28176">
        <ele>113.7</ele>
        <time>2022-10-29T12:09:05Z</time>
      </trkpt>
      <trkpt lat="49.85942" lon="2.28177">
        <ele>113.7</ele>
        <time>2022-10-29T12:09:06Z</time>
      </trkpt>
      <trkpt lat="49.85942" lon="2.28178">
        <ele>113.7</ele>
        <time>2022-10-29T12:09:07Z</time>
      </trkpt>
      <trkpt lat="49.85942" lon="2.28181">
        <ele>113.7</ele>
        <time>2022-10-29T12:09:08Z</time>
      </trkpt>
      <trkpt lat="49.85941" lon="2.28182">
        <ele>113.7</ele>
        <time>2022-10-29T12:09:09Z</time>
      </trkpt>
      <trkpt lat="49.85941" lon="2.28183">
        <ele>113.7</ele>
        <time>2022-10-29T12:09:10Z</time>
      </trkpt>
      <trkpt lat="49.8594" lon="2.28186">
        <ele>113.7</ele>
        <time>2022-10-29T12:09:11Z</time>
      </trkpt>
      <trkpt lat="49.8594" lon="2.28187">
        <ele>113.7</ele>
        <time>2022-10-29T12:09:13Z</time>
      </trkpt>
      <trkpt lat="49.8594" lon="2.28188">
        <ele>113.7</ele>
        <time>2022-10-29T12:09:14Z</time>
      </trkpt>
      <trkpt lat="49.85939" lon="2.2819">
        <ele>113.7</ele>
        <time>2022-10-29T12:09:15Z</time>
      </trkpt>
      <trkpt lat="49.85939" lon="2.28192">
        <ele>113.7</ele>
        <time>2022-10-29T12:09:16Z</time>
      </trkpt>
      <trkpt lat="49.85939" lon="2.28194">
        <ele>113.7</ele>
        <time>2022-10-29T12:09:17Z</time>
      </trkpt>
      <trkpt lat="49.85939" lon="2.28195">
        <ele>113.7</ele>
        <time>2022-10-29T12:09:18Z</time>
      </trkpt>
      <trkpt lat="49.85939" lon="2.28197">
        <ele>113.6</ele>
        <time>2022-10-29T12:09:19Z</time>
      </trkpt>
      <trkpt lat="49.85938" lon="2.28198">
        <ele>113.6</ele>
        <time>2022-10-29T12:09:20Z</time>
      </trkpt>
      <trkpt lat="49.85938" lon="2.282">
        <ele>113.6</ele>
        <time>2022-10-29T12:09:21Z</time>
      </trkpt>
      <trkpt lat="49.85938" lon="2.28202">
        <ele>113.6</ele>
        <time>2022-10-29T12:09:22Z</time>
      </trkpt>
      <trkpt lat="49.85937" lon="2.28203">
        <ele>113.6</ele>
        <time>2022-10-29T12:09:23Z</time>
      </trkpt>
      <trkpt lat="49.85937" lon="2.28206">
        <ele>113.6</ele>
        <time>2022-10-29T12:09:24Z</time>
      </trkpt>
      <trkpt lat="49.85937" lon="2.28208">
        <ele>113.6</ele>
        <time>2022-10-29T12:09:26Z</time>
      </trkpt>
      <trkpt lat="49.85937" lon="2.28209">
        <ele>113.6</ele>
        <time>2022-10-29T12:09:27Z</time>
      </trkpt>
      <trkpt lat="49.85936" lon="2.28211">
        <ele>113.6</ele>
        <time>2022-10-29T12:09:28Z</time>
      </trkpt>
      <trkpt lat="49.85936" lon="2.28212">
        <ele>113.6</ele>
        <time>2022-10-29T12:09:29Z</time>
      </trkpt>
      <trkpt lat="49.85936" lon="2.28214">
        <ele>113.6</ele>
        <time>2022-10-29T12:09:30Z</time>
      </trkpt>
      <trkpt lat="49.85936" lon="2.28218">
        <ele>113.6</ele>
        <time>2022-10-29T12:09:31Z</time>
      </trkpt>
      <trkpt lat="49.85935" lon="2.28219">
        <ele>113.6</ele>
        <time>2022-10-29T12:09:32Z</time>
      </trkpt>
      <trkpt lat="49.85935" lon="2.28221">
        <ele>113.6</ele>
        <time>2022-10-29T12:09:34Z</time>
      </trkpt>
      <trkpt lat="49.85935" lon="2.28222">
        <ele>113.6</ele>
        <time>2022-10-29T12:09:35Z</time>
      </trkpt>
      <trkpt lat="49.85935" lon="2.28224">
        <ele>113.6</ele>
        <time>2022-10-29T12:09:36Z</time>
      </trkpt>
      <trkpt lat="49.85935" lon="2.28225">
        <ele>113.5</ele>
        <time>2022-10-29T12:09:37Z</time>
      </trkpt>
      <trkpt lat="49.85934" lon="2.28227">
        <ele>113.5</ele>
        <time>2022-10-29T12:09:38Z</time>
      </trkpt>
      <trkpt lat="49.85934" lon="2.2823">
        <ele>113.5</ele>
        <time>2022-10-29T12:09:39Z</time>
      </trkpt>
      <trkpt lat="49.85934" lon="2.28232">
        <ele>113.5</ele>
        <time>2022-10-29T12:09:40Z</time>
      </trkpt>
      <trkpt lat="49.85933" lon="2.28234">
        <ele>113.5</ele>
        <time>2022-10-29T12:09:41Z</time>
      </trkpt>
      <trkpt lat="49.85933" lon="2.28236">
        <ele>113.4</ele>
        <time>2022-10-29T12:09:42Z</time>
      </trkpt>
      <trkpt lat="49.85932" lon="2.28238">
        <ele>113.4</ele>
        <time>2022-10-29T12:09:43Z</time>
      </trkpt>
      <trkpt lat="49.85932" lon="2.2824">
        <ele>113.4</ele>
        <time>2022-10-29T12:09:44Z</time>
      </trkpt>
      <trkpt lat="49.85932" lon="2.28241">
        <ele>113.4</ele>
        <time>2022-10-29T12:09:46Z</time>
      </trkpt>
      <trkpt lat="49.85931" lon="2.28244">
        <ele>113.4</ele>
        <time>2022-10-29T12:09:47Z</time>
      </trkpt>
      <trkpt lat="49.85931" lon="2.28245">
        <ele>113.4</ele>
        <time>2022-10-29T12:09:48Z</time>
      </trkpt>
      <trkpt lat="49.8593" lon="2.28246">
        <ele>113.4</ele>
        <time>2022-10-29T12:09:49Z</time>
      </trkpt>
      <trkpt lat="49.8593" lon="2.28248">
        <ele>113.3</ele>
        <time>2022-10-29T12:09:50Z</time>
      </trkpt>
      <trkpt lat="49.85929" lon="2.28251">
        <ele>113.3</ele>
        <time>2022-10-29T12:09:51Z</time>
      </trkpt>
      <trkpt lat="49.85929" lon="2.28253">
        <ele>113.3</ele>
        <time>2022-10-29T12:09:52Z</time>
      </trkpt>
      <trkpt lat="49.85929" lon="2.28254">
        <ele>113.3</ele>
        <time>2022-10-29T12:09:53Z</time>
      </trkpt>
      <trkpt lat="49.85929" lon="2.28256">
        <ele>113.3</ele>
        <time>2022-10-29T12:09:54Z</time>
      </trkpt>
      <trkpt lat="49.85928" lon="2.28258">
        <ele>113.3</ele>
        <time>2022-10-29T12:09:55Z</time>
      </trkpt>
      <trkpt lat="49.85928" lon="2.2826">
        <ele>113.2</ele>
        <time>2022-10-29T12:09:56Z</time>
      </trkpt>
      <trkpt lat="49.85927" lon="2.28261">
        <ele>113.2</ele>
        <time>2022-10-29T12:09:58Z</time>
      </trkpt>
      <trkpt lat="49.85927" lon="2.28263">
        <ele>113.2</ele>
        <time>2022-10-29T12:09:59Z</time>
      </trkpt>
      <trkpt lat="49.85927" lon="2.28265">
        <ele>113.2</ele>
        <time>2022-10-29T12:10:00Z</time>
      </trkpt>
      <trkpt lat="49.85926" lon="2.28267">
        <ele>113.2</ele>
        <time>2022-10-29T12:10:01Z</time>
      </trkpt>
      <trkpt lat="49.85926" lon="2.28269">
        <ele>113.2</ele>
        <time>2022-10-29T12:10:02Z</time>
      </trkpt>
      <trkpt lat="49.85925" lon="2.28271">
        <ele>113.2</ele>
        <time>2022-10-29T12:10:03Z</time>
      </trkpt>
      <trkpt lat="49.85925" lon="2.28273">
        <ele>113.2</ele>
        <time>2022-10-29T12:10:04Z</time>
      </trkpt>
      <trkpt lat="49.85925" lon="2.28274">
        <ele>113.2</ele>
        <time>2022-10-29T12:10:05Z</time>
      </trkpt>
      <trkpt lat="49.85924" lon="2.28277">
        <ele>113.1</ele>
        <time>2022-10-29T12:10:07Z</time>
      </trkpt>
      <trkpt lat="49.85924" lon="2.28278">
        <ele>113.1</ele>
        <time>2022-10-29T12:10:08Z</time>
      </trkpt>
      <trkpt lat="49.85924" lon="2.28279">
        <ele>113.1</ele>
        <time>2022-10-29T12:10:09Z</time>
      </trkpt>
      <trkpt lat="49.85924" lon="2.28281">
        <ele>113.1</ele>
        <time>2022-10-29T12:10:10Z</time>
      </trkpt>
      <trkpt lat="49.85923" lon="2.28284">
        <ele>113</ele>
        <time>2022-10-29T12:10:11Z</time>
      </trkpt>
      <trkpt lat="49.85923" lon="2.28286">
        <ele>113</ele>
        <time>2022-10-29T12:10:12Z</time>
      </trkpt>
      <trkpt lat="49.85923" lon="2.28287">
        <ele>113</ele>
        <time>2022-10-29T12:10:13Z</time>
      </trkpt>
      <trkpt lat="49.85923" lon="2.28289">
        <ele>113</ele>
        <time>2022-10-29T12:10:14Z</time>
      </trkpt>
      <trkpt lat="49.85923" lon="2.28291">
        <ele>113</ele>
        <time>2022-10-29T12:10:15Z</time>
      </trkpt>
      <trkpt lat="49.85923" lon="2.28293">
        <ele>112.9</ele>
        <time>2022-10-29T12:10:17Z</time>
      </trkpt>
      <trkpt lat="49.85923" lon="2.28294">
        <ele>112.9</ele>
        <time>2022-10-29T12:10:18Z</time>
      </trkpt>
      <trkpt lat="49.85923" lon="2.28295">
        <ele>112.9</ele>
        <time>2022-10-29T12:10:19Z</time>
      </trkpt>
      <trkpt lat="49.85923" lon="2.28298">
        <ele>112.9</ele>
        <time>2022-10-29T12:10:20Z</time>
      </trkpt>
      <trkpt lat="49.85922" lon="2.283">
        <ele>112.8</ele>
        <time>2022-10-29T12:10:21Z</time>
      </trkpt>
      <trkpt lat="49.85922" lon="2.28301">
        <ele>112.8</ele>
        <time>2022-10-29T12:10:22Z</time>
      </trkpt>
      <trkpt lat="49.85922" lon="2.28302">
        <ele>112.8</ele>
        <time>2022-10-29T12:10:23Z</time>
      </trkpt>
      <trkpt lat="49.85922" lon="2.28304">
        <ele>112.8</ele>
        <time>2022-10-29T12:10:24Z</time>
      </trkpt>
      <trkpt lat="49.85922" lon="2.28306">
        <ele>112.7</ele>
        <time>2022-10-29T12:10:25Z</time>
      </trkpt>
      <trkpt lat="49.85922" lon="2.28308">
        <ele>112.7</ele>
        <time>2022-10-29T12:10:27Z</time>
      </trkpt>
      <trkpt lat="49.85922" lon="2.28309">
        <ele>112.7</ele>
        <time>2022-10-29T12:10:28Z</time>
      </trkpt>
      <trkpt lat="49.85921" lon="2.2831">
        <ele>112.7</ele>
        <time>2022-10-29T12:10:29Z</time>
      </trkpt>
      <trkpt lat="49.85921" lon="2.28311">
        <ele>112.6</ele>
        <time>2022-10-29T12:10:30Z</time>
      </trkpt>
      <trkpt lat="49.85921" lon="2.28313">
        <ele>112.6</ele>
        <time>2022-10-29T12:10:31Z</time>
      </trkpt>
      <trkpt lat="49.85921" lon="2.28316">
        <ele>112.6</ele>
        <time>2022-10-29T12:10:32Z</time>
      </trkpt>
      <trkpt lat="49.8592" lon="2.28319">
        <ele>112.5</ele>
        <time>2022-10-29T12:10:33Z</time>
      </trkpt>
      <trkpt lat="49.8592" lon="2.2832">
        <ele>112.5</ele>
        <time>2022-10-29T12:10:34Z</time>
      </trkpt>
      <trkpt lat="49.8592" lon="2.28321">
        <ele>112.5</ele>
        <time>2022-10-29T12:10:35Z</time>
      </trkpt>
      <trkpt lat="49.85919" lon="2.28324">
        <ele>112.4</ele>
        <time>2022-10-29T12:10:36Z</time>
      </trkpt>
      <trkpt lat="49.85919" lon="2.28326">
        <ele>112.4</ele>
        <time>2022-10-29T12:10:37Z</time>
      </trkpt>
      <trkpt lat="49.85919" lon="2.28327">
        <ele>112.4</ele>
        <time>2022-10-29T12:10:39Z</time>
      </trkpt>
      <trkpt lat="49.85919" lon="2.28329">
        <ele>112.3</ele>
        <time>2022-10-29T12:10:40Z</time>
      </trkpt>
      <trkpt lat="49.85919" lon="2.28331">
        <ele>112.3</ele>
        <time>2022-10-29T12:10:41Z</time>
      </trkpt>
      <trkpt lat="49.85918" lon="2.28333">
        <ele>112.3</ele>
        <time>2022-10-29T12:10:42Z</time>
      </trkpt>
      <trkpt lat="49.85918" lon="2.28335">
        <ele>112.2</ele>
        <time>2022-10-29T12:10:43Z</time>
      </trkpt>
      <trkpt lat="49.85917" lon="2.28337">
        <ele>112.2</ele>
        <time>2022-10-29T12:10:44Z</time>
      </trkpt>
      <trkpt lat="49.85917" lon="2.28339">
        <ele>112.2</ele>
        <time>2022-10-29T12:10:45Z</time>
      </trkpt>
      <trkpt lat="49.85916" lon="2.28342">
        <ele>112.1</ele>
        <time>2022-10-29T12:10:46Z</time>
      </trkpt>
      <trkpt lat="49.85916" lon="2.28344">
        <ele>112.1</ele>
        <time>2022-10-29T12:10:47Z</time>
      </trkpt>
      <trkpt lat="49.85916" lon="2.28345">
        <ele>112</ele>
        <time>2022-10-29T12:10:48Z</time>
      </trkpt>
      <trkpt lat="49.85916" lon="2.28346">
        <ele>112</ele>
        <time>2022-10-29T12:10:50Z</time>
      </trkpt>
      <trkpt lat="49.85916" lon="2.28348">
        <ele>112</ele>
        <time>2022-10-29T12:10:51Z</time>
      </trkpt>
      <trkpt lat="49.85915" lon="2.28349">
        <ele>111.9</ele>
        <time>2022-10-29T12:10:52Z</time>
      </trkpt>
      <trkpt lat="49.85915" lon="2.28351">
        <ele>111.9</ele>
        <time>2022-10-29T12:10:53Z</time>
      </trkpt>
      <trkpt lat="49.85915" lon="2.28353">
        <ele>111.9</ele>
        <time>2022-10-29T12:10:54Z</time>
      </trkpt>
      <trkpt lat="49.85914" lon="2.28354">
        <ele>111.8</ele>
        <time>2022-10-29T12:10:55Z</time>
      </trkpt>
      <trkpt lat="49.85914" lon="2.28357">
        <ele>111.8</ele>
        <time>2022-10-29T12:10:56Z</time>
      </trkpt>
      <trkpt lat="49.85914" lon="2.28358">
        <ele>111.8</ele>
        <time>2022-10-29T12:10:57Z</time>
      </trkpt>
      <trkpt lat="49.85914" lon="2.2836">
        <ele>111.7</ele>
        <time>2022-10-29T12:10:58Z</time>
      </trkpt>
      <trkpt lat="49.85913" lon="2.28363">
        <ele>111.7</ele>
        <time>2022-10-29T12:11:00Z</time>
      </trkpt>
      <trkpt lat="49.85913" lon="2.28364">
        <ele>111.7</ele>
        <time>2022-10-29T12:11:01Z</time>
      </trkpt>
      <trkpt lat="49.85913" lon="2.28365">
        <ele>111.6</ele>
        <time>2022-10-29T12:11:02Z</time>
      </trkpt>
      <trkpt lat="49.85913" lon="2.28367">
        <ele>111.6</ele>
        <time>2022-10-29T12:11:03Z</time>
      </trkpt>
      <trkpt lat="49.85912" lon="2.28369">
        <ele>111.6</ele>
        <time>2022-10-29T12:11:04Z</time>
      </trkpt>
      <trkpt lat="49.85912" lon="2.28371">
        <ele>111.5</ele>
        <time>2022-10-29T12:11:06Z</time>
      </trkpt>
      <trkpt lat="49.85911" lon="2.28373">
        <ele>111.5</ele>
        <time>2022-10-29T12:11:07Z</time>
      </trkpt>
      <trkpt lat="49.85911" lon="2.28375">
        <ele>111.4</ele>
        <time>2022-10-29T12:11:08Z</time>
      </trkpt>
      <trkpt lat="49.8591" lon="2.28378">
        <ele>111.4</ele>
        <time>2022-10-29T12:11:09Z</time>
      </trkpt>
      <trkpt lat="49.8591" lon="2.2838">
        <ele>111.3</ele>
        <time>2022-10-29T12:11:10Z</time>
      </trkpt>
      <trkpt lat="49.8591" lon="2.28381">
        <ele>111.3</ele>
        <time>2022-10-29T12:11:11Z</time>
      </trkpt>
      <trkpt lat="49.85909" lon="2.28382">
        <ele>111.3</ele>
        <time>2022-10-29T12:11:13Z</time>
      </trkpt>
      <trkpt lat="49.85909" lon="2.28383">
        <ele>111.2</ele>
        <time>2022-10-29T12:11:14Z</time>
      </trkpt>
      <trkpt lat="49.85909" lon="2.28385">
        <ele>111.2</ele>
        <time>2022-10-29T12:11:15Z</time>
      </trkpt>
      <trkpt lat="49.85908" lon="2.28388">
        <ele>111.1</ele>
        <time>2022-10-29T12:11:16Z</time>
      </trkpt>
      <trkpt lat="49.85908" lon="2.28389">
        <ele>111.1</ele>
        <time>2022-10-29T12:11:17Z</time>
      </trkpt>
      <trkpt lat="49.85907" lon="2.2839">
        <ele>111.1</ele>
        <time>2022-10-29T12:11:18Z</time>
      </trkpt>
      <trkpt lat="49.85907" lon="2.28393">
        <ele>111</ele>
        <time>2022-10-29T12:11:19Z</time>
      </trkpt>
      <trkpt lat="49.85906" lon="2.28395">
        <ele>111</ele>
        <time>2022-10-29T12:11:20Z</time>
      </trkpt>
      <trkpt lat="49.85906" lon="2.28396">
        <ele>111</ele>
        <time>2022-10-29T12:11:21Z</time>
      </trkpt>
      <trkpt lat="49.85906" lon="2.28397">
        <ele>110.9</ele>
        <time>2022-10-29T12:11:23Z</time>
      </trkpt>
      <trkpt lat="49.85906" lon="2.28399">
        <ele>110.9</ele>
        <time>2022-10-29T12:11:24Z</time>
      </trkpt>
      <trkpt lat="49.85905" lon="2.28401">
        <ele>110.9</ele>
        <time>2022-10-29T12:11:25Z</time>
      </trkpt>
      <trkpt lat="49.85905" lon="2.28404">
        <ele>110.8</ele>
        <time>2022-10-29T12:11:26Z</time>
      </trkpt>
      <trkpt lat="49.85905" lon="2.28405">
        <ele>110.8</ele>
        <time>2022-10-29T12:11:27Z</time>
      </trkpt>
      <trkpt lat="49.85904" lon="2.28407">
        <ele>110.7</ele>
        <time>2022-10-29T12:11:28Z</time>
      </trkpt>
      <trkpt lat="49.85904" lon="2.2841">
        <ele>110.7</ele>
        <time>2022-10-29T12:11:29Z</time>
      </trkpt>
      <trkpt lat="49.85903" lon="2.28411">
        <ele>110.6</ele>
        <time>2022-10-29T12:11:30Z</time>
      </trkpt>
      <trkpt lat="49.85903" lon="2.28412">
        <ele>110.6</ele>
        <time>2022-10-29T12:11:31Z</time>
      </trkpt>
      <trkpt lat="49.85903" lon="2.28414">
        <ele>110.6</ele>
        <time>2022-10-29T12:11:33Z</time>
      </trkpt>
      <trkpt lat="49.85903" lon="2.28415">
        <ele>110.6</ele>
        <time>2022-10-29T12:11:34Z</time>
      </trkpt>
      <trkpt lat="49.85903" lon="2.28417">
        <ele>110.5</ele>
        <time>2022-10-29T12:11:35Z</time>
      </trkpt>
      <trkpt lat="49.85902" lon="2.28419">
        <ele>110.5</ele>
        <time>2022-10-29T12:11:36Z</time>
      </trkpt>
      <trkpt lat="49.85902" lon="2.28421">
        <ele>110.4</ele>
        <time>2022-10-29T12:11:37Z</time>
      </trkpt>
      <trkpt lat="49.85902" lon="2.28424">
        <ele>110.4</ele>
        <time>2022-10-29T12:11:38Z</time>
      </trkpt>
      <trkpt lat="49.85901" lon="2.28425">
        <ele>110.3</ele>
        <time>2022-10-29T12:11:39Z</time>
      </trkpt>
      <trkpt lat="49.85901" lon="2.28426">
        <ele>110.3</ele>
        <time>2022-10-29T12:11:40Z</time>
      </trkpt>
      <trkpt lat="49.85901" lon="2.28428">
        <ele>110.3</ele>
        <time>2022-10-29T12:11:41Z</time>
      </trkpt>
      <trkpt lat="49.85901" lon="2.28431">
        <ele>110.2</ele>
        <time>2022-10-29T12:11:42Z</time>
      </trkpt>
      <trkpt lat="49.85901" lon="2.28432">
        <ele>110.2</ele>
        <time>2022-10-29T12:11:44Z</time>
      </trkpt>
      <trkpt lat="49.859" lon="2.28433">
        <ele>110.2</ele>
        <time>2022-10-29T12:11:45Z</time>
      </trkpt>
      <trkpt lat="49.859" lon="2.28435">
        <ele>110.1</ele>
        <time>2022-10-29T12:11:46Z</time>
      </trkpt>
      <trkpt lat="49.85899" lon="2.28438">
        <ele>110.1</ele>
        <time>2022-10-29T12:11:47Z</time>
      </trkpt>
      <trkpt lat="49.85899" lon="2.28439">
        <ele>110</ele>
        <time>2022-10-29T12:11:48Z</time>
      </trkpt>
      <trkpt lat="49.85899" lon="2.28441">
        <ele>110</ele>
        <time>2022-10-29T12:11:49Z</time>
      </trkpt>
      <trkpt lat="49.85899" lon="2.28442">
        <ele>110</ele>
        <time>2022-10-29T12:11:50Z</time>
      </trkpt>
      <trkpt lat="49.85898" lon="2.28446">
        <ele>109.9</ele>
        <time>2022-10-29T12:11:52Z</time>
      </trkpt>
      <trkpt lat="49.85898" lon="2.28448">
        <ele>109.9</ele>
        <time>2022-10-29T12:11:53Z</time>
      </trkpt>
      <trkpt lat="49.85897" lon="2.2845">
        <ele>109.8</ele>
        <time>2022-10-29T12:11:54Z</time>
      </trkpt>
      <trkpt lat="49.85897" lon="2.28451">
        <ele>109.8</ele>
        <time>2022-10-29T12:11:56Z</time>
      </trkpt>
      <trkpt lat="49.85897" lon="2.28455">
        <ele>109.7</ele>
        <time>2022-10-29T12:11:57Z</time>
      </trkpt>
      <trkpt lat="49.85897" lon="2.28456">
        <ele>109.7</ele>
        <time>2022-10-29T12:11:58Z</time>
      </trkpt>
      <trkpt lat="49.85897" lon="2.28458">
        <ele>109.7</ele>
        <time>2022-10-29T12:11:59Z</time>
      </trkpt>
      <trkpt lat="49.85896" lon="2.28461">
        <ele>109.6</ele>
        <time>2022-10-29T12:12:00Z</time>
      </trkpt>
      <trkpt lat="49.85896" lon="2.28463">
        <ele>109.6</ele>
        <time>2022-10-29T12:12:02Z</time>
      </trkpt>
      <trkpt lat="49.85896" lon="2.28464">
        <ele>109.6</ele>
        <time>2022-10-29T12:12:03Z</time>
      </trkpt>
      <trkpt lat="49.85895" lon="2.28467">
        <ele>109.5</ele>
        <time>2022-10-29T12:12:04Z</time>
      </trkpt>
      <trkpt lat="49.85895" lon="2.28468">
        <ele>109.5</ele>
        <time>2022-10-29T12:12:05Z</time>
      </trkpt>
      <trkpt lat="49.85895" lon="2.2847">
        <ele>109.5</ele>
        <time>2022-10-29T12:12:06Z</time>
      </trkpt>
      <trkpt lat="49.85894" lon="2.28473">
        <ele>109.4</ele>
        <time>2022-10-29T12:12:07Z</time>
      </trkpt>
      <trkpt lat="49.85893" lon="2.28474">
        <ele>109.4</ele>
        <time>2022-10-29T12:12:08Z</time>
      </trkpt>
      <trkpt lat="49.85893" lon="2.28475">
        <ele>109.4</ele>
        <time>2022-10-29T12:12:09Z</time>
      </trkpt>
      <trkpt lat="49.85892" lon="2.28477">
        <ele>109.3</ele>
        <time>2022-10-29T12:12:10Z</time>
      </trkpt>
      <trkpt lat="49.85892" lon="2.28479">
        <ele>109.3</ele>
        <time>2022-10-29T12:12:11Z</time>
      </trkpt>
      <trkpt lat="49.85892" lon="2.2848">
        <ele>109.3</ele>
        <time>2022-10-29T12:12:12Z</time>
      </trkpt>
      <trkpt lat="49.85891" lon="2.28482">
        <ele>109.3</ele>
        <time>2022-10-29T12:12:13Z</time>
      </trkpt>
      <trkpt lat="49.85891" lon="2.28483">
        <ele>109.2</ele>
        <time>2022-10-29T12:12:15Z</time>
      </trkpt>
      <trkpt lat="49.85891" lon="2.28485">
        <ele>109.2</ele>
        <time>2022-10-29T12:12:16Z</time>
      </trkpt>
      <trkpt lat="49.8589" lon="2.28487">
        <ele>109.2</ele>
        <time>2022-10-29T12:12:17Z</time>
      </trkpt>
      <trkpt lat="49.8589" lon="2.28489">
        <ele>109.1</ele>
        <time>2022-10-29T12:12:18Z</time>
      </trkpt>
      <trkpt lat="49.85889" lon="2.28492">
        <ele>109.1</ele>
        <time>2022-10-29T12:12:19Z</time>
      </trkpt>
      <trkpt lat="49.85889" lon="2.28494">
        <ele>109.1</ele>
        <time>2022-10-29T12:12:20Z</time>
      </trkpt>
      <trkpt lat="49.85888" lon="2.28495">
        <ele>109</ele>
        <time>2022-10-29T12:12:21Z</time>
      </trkpt>
      <trkpt lat="49.85887" lon="2.28499">
        <ele>109</ele>
        <time>2022-10-29T12:12:22Z</time>
      </trkpt>
      <trkpt lat="49.85887" lon="2.28499">
        <ele>109</ele>
        <time>2022-10-29T12:12:23Z</time>
      </trkpt>
      <trkpt lat="49.85887" lon="2.285">
        <ele>109</ele>
        <time>2022-10-29T12:12:24Z</time>
      </trkpt>
      <trkpt lat="49.85886" lon="2.28503">
        <ele>108.9</ele>
        <time>2022-10-29T12:12:25Z</time>
      </trkpt>
      <trkpt lat="49.85886" lon="2.28505">
        <ele>108.9</ele>
        <time>2022-10-29T12:12:26Z</time>
      </trkpt>
      <trkpt lat="49.85885" lon="2.28506">
        <ele>108.9</ele>
        <time>2022-10-29T12:12:27Z</time>
      </trkpt>
      <trkpt lat="49.85885" lon="2.28508">
        <ele>108.9</ele>
        <time>2022-10-29T12:12:29Z</time>
      </trkpt>
      <trkpt lat="49.85885" lon="2.2851">
        <ele>108.8</ele>
        <time>2022-10-29T12:12:30Z</time>
      </trkpt>
      <trkpt lat="49.85884" lon="2.28512">
        <ele>108.8</ele>
        <time>2022-10-29T12:12:31Z</time>
      </trkpt>
      <trkpt lat="49.85883" lon="2.28514">
        <ele>108.8</ele>
        <time>2022-10-29T12:12:32Z</time>
      </trkpt>
      <trkpt lat="49.85883" lon="2.28516">
        <ele>108.8</ele>
        <time>2022-10-29T12:12:33Z</time>
      </trkpt>
      <trkpt lat="49.85883" lon="2.28517">
        <ele>108.7</ele>
        <time>2022-10-29T12:12:34Z</time>
      </trkpt>
      <trkpt lat="49.85883" lon="2.28519">
        <ele>108.7</ele>
        <time>2022-10-29T12:12:35Z</time>
      </trkpt>
      <trkpt lat="49.85882" lon="2.28521">
        <ele>108.7</ele>
        <time>2022-10-29T12:12:36Z</time>
      </trkpt>
      <trkpt lat="49.85882" lon="2.28524">
        <ele>108.6</ele>
        <time>2022-10-29T12:12:37Z</time>
      </trkpt>
      <trkpt lat="49.85882" lon="2.28525">
        <ele>108.6</ele>
        <time>2022-10-29T12:12:39Z</time>
      </trkpt>
      <trkpt lat="49.85882" lon="2.28527">
        <ele>108.6</ele>
        <time>2022-10-29T12:12:40Z</time>
      </trkpt>
      <trkpt lat="49.85881" lon="2.2853">
        <ele>108.6</ele>
        <time>2022-10-29T12:12:41Z</time>
      </trkpt>
      <trkpt lat="49.85881" lon="2.28531">
        <ele>108.6</ele>
        <time>2022-10-29T12:12:42Z</time>
      </trkpt>
      <trkpt lat="49.85881" lon="2.28533">
        <ele>108.5</ele>
        <time>2022-10-29T12:12:43Z</time>
      </trkpt>
      <trkpt lat="49.85881" lon="2.28534">
        <ele>108.5</ele>
        <time>2022-10-29T12:12:44Z</time>
      </trkpt>
      <trkpt lat="49.85881" lon="2.28535">
        <ele>108.5</ele>
        <time>2022-10-29T12:12:45Z</time>
      </trkpt>
      <trkpt lat="49.8588" lon="2.28537">
        <ele>108.5</ele>
        <time>2022-10-29T12:12:46Z</time>
      </trkpt>
      <trkpt lat="49.8588" lon="2.28539">
        <ele>108.5</ele>
        <time>2022-10-29T12:12:47Z</time>
      </trkpt>
      <trkpt lat="49.8588" lon="2.28541">
        <ele>108.5</ele>
        <time>2022-10-29T12:12:49Z</time>
      </trkpt>
      <trkpt lat="49.85879" lon="2.28542">
        <ele>108.4</ele>
        <time>2022-10-29T12:12:50Z</time>
      </trkpt>
      <trkpt lat="49.85879" lon="2.28544">
        <ele>108.4</ele>
        <time>2022-10-29T12:12:51Z</time>
      </trkpt>
      <trkpt lat="49.85879" lon="2.28545">
        <ele>108.4</ele>
        <time>2022-10-29T12:12:52Z</time>
      </trkpt>
      <trkpt lat="49.85878" lon="2.28547">
        <ele>108.4</ele>
        <time>2022-10-29T12:12:53Z</time>
      </trkpt>
      <trkpt lat="49.85878" lon="2.28549">
        <ele>108.4</ele>
        <time>2022-10-29T12:12:54Z</time>
      </trkpt>
      <trkpt lat="49.85878" lon="2.2855">
        <ele>108.3</ele>
        <time>2022-10-29T12:12:55Z</time>
      </trkpt>
      <trkpt lat="49.85878" lon="2.28552">
        <ele>108.3</ele>
        <time>2022-10-29T12:12:56Z</time>
      </trkpt>
      <trkpt lat="49.85877" lon="2.28554">
        <ele>108.3</ele>
        <time>2022-10-29T12:12:57Z</time>
      </trkpt>
      <trkpt lat="49.85877" lon="2.28555">
        <ele>108.3</ele>
        <time>2022-10-29T12:12:58Z</time>
      </trkpt>
      <trkpt lat="49.85877" lon="2.28557">
        <ele>108.3</ele>
        <time>2022-10-29T12:13:00Z</time>
      </trkpt>
      <trkpt lat="49.85876" lon="2.2856">
        <ele>108.2</ele>
        <time>2022-10-29T12:13:01Z</time>
      </trkpt>
      <trkpt lat="49.85876" lon="2.28562">
        <ele>108.2</ele>
        <time>2022-10-29T12:13:02Z</time>
      </trkpt>
      <trkpt lat="49.85875" lon="2.28563">
        <ele>108.2</ele>
        <time>2022-10-29T12:13:03Z</time>
      </trkpt>
      <trkpt lat="49.85875" lon="2.28564">
        <ele>108.2</ele>
        <time>2022-10-29T12:13:04Z</time>
      </trkpt>
      <trkpt lat="49.85875" lon="2.28566">
        <ele>108.2</ele>
        <time>2022-10-29T12:13:05Z</time>
      </trkpt>
      <trkpt lat="49.85875" lon="2.28568">
        <ele>108.2</ele>
        <time>2022-10-29T12:13:06Z</time>
      </trkpt>
      <trkpt lat="49.85874" lon="2.2857">
        <ele>108.2</ele>
        <time>2022-10-29T12:13:07Z</time>
      </trkpt>
      <trkpt lat="49.85874" lon="2.28571">
        <ele>108.2</ele>
        <time>2022-10-29T12:13:08Z</time>
      </trkpt>
      <trkpt lat="49.85874" lon="2.28573">
        <ele>108.2</ele>
        <time>2022-10-29T12:13:09Z</time>
      </trkpt>
      <trkpt lat="49.85874" lon="2.28575">
        <ele>108.1</ele>
        <time>2022-10-29T12:13:10Z</time>
      </trkpt>
      <trkpt lat="49.85874" lon="2.28576">
        <ele>108.1</ele>
        <time>2022-10-29T12:13:12Z</time>
      </trkpt>
      <trkpt lat="49.85873" lon="2.28578">
        <ele>108.1</ele>
        <time>2022-10-29T12:13:13Z</time>
      </trkpt>
      <trkpt lat="49.85873" lon="2.2858">
        <ele>108.1</ele>
        <time>2022-10-29T12:13:14Z</time>
      </trkpt>
      <trkpt lat="49.85873" lon="2.28582">
        <ele>108.1</ele>
        <time>2022-10-29T12:13:15Z</time>
      </trkpt>
      <trkpt lat="49.85873" lon="2.28584">
        <ele>108.1</ele>
        <time>2022-10-29T12:13:17Z</time>
      </trkpt>
      <trkpt lat="49.85873" lon="2.28586">
        <ele>108.1</ele>
        <time>2022-10-29T12:13:18Z</time>
      </trkpt>
      <trkpt lat="49.85873" lon="2.28587">
        <ele>108.1</ele>
        <time>2022-10-29T12:13:19Z</time>
      </trkpt>
      <trkpt lat="49.85872" lon="2.28589">
        <ele>108.1</ele>
        <time>2022-10-29T12:13:20Z</time>
      </trkpt>
      <trkpt lat="49.85872" lon="2.28593">
        <ele>108.1</ele>
        <time>2022-10-29T12:13:21Z</time>
      </trkpt>
      <trkpt lat="49.85872" lon="2.28594">
        <ele>108.1</ele>
        <time>2022-10-29T12:13:22Z</time>
      </trkpt>
      <trkpt lat="49.85872" lon="2.28595">
        <ele>108.1</ele>
        <time>2022-10-29T12:13:23Z</time>
      </trkpt>
      <trkpt lat="49.85871" lon="2.28597">
        <ele>108.1</ele>
        <time>2022-10-29T12:13:24Z</time>
      </trkpt>
      <trkpt lat="49.85871" lon="2.28599">
        <ele>108.1</ele>
        <time>2022-10-29T12:13:25Z</time>
      </trkpt>
      <trkpt lat="49.85871" lon="2.28601">
        <ele>108</ele>
        <time>2022-10-29T12:13:27Z</time>
      </trkpt>
      <trkpt lat="49.85871" lon="2.28604">
        <ele>108</ele>
        <time>2022-10-29T12:13:28Z</time>
      </trkpt>
      <trkpt lat="49.85871" lon="2.28605">
        <ele>108</ele>
        <time>2022-10-29T12:13:29Z</time>
      </trkpt>
      <trkpt lat="49.85871" lon="2.28606">
        <ele>108</ele>
        <time>2022-10-29T12:13:30Z</time>
      </trkpt>
      <trkpt lat="49.85871" lon="2.28608">
        <ele>108</ele>
        <time>2022-10-29T12:13:31Z</time>
      </trkpt>
      <trkpt lat="49.8587" lon="2.28611">
        <ele>108</ele>
        <time>2022-10-29T12:13:32Z</time>
      </trkpt>
      <trkpt lat="49.8587" lon="2.28614">
        <ele>108</ele>
        <time>2022-10-29T12:13:34Z</time>
      </trkpt>
      <trkpt lat="49.85869" lon="2.28615">
        <ele>108</ele>
        <time>2022-10-29T12:13:35Z</time>
      </trkpt>
      <trkpt lat="49.85868" lon="2.28617">
        <ele>108</ele>
        <time>2022-10-29T12:13:36Z</time>
      </trkpt>
      <trkpt lat="49.85868" lon="2.28619">
        <ele>108</ele>
        <time>2022-10-29T12:13:37Z</time>
      </trkpt>
      <trkpt lat="49.85867" lon="2.28622">
        <ele>108</ele>
        <time>2022-10-29T12:13:38Z</time>
      </trkpt>
      <trkpt lat="49.85867" lon="2.28623">
        <ele>108</ele>
        <time>2022-10-29T12:13:39Z</time>
      </trkpt>
      <trkpt lat="49.85866" lon="2.28625">
        <ele>108</ele>
        <time>2022-10-29T12:13:40Z</time>
      </trkpt>
      <trkpt lat="49.85866" lon="2.28627">
        <ele>108.1</ele>
        <time>2022-10-29T12:13:41Z</time>
      </trkpt>
      <trkpt lat="49.85865" lon="2.28629">
        <ele>108.1</ele>
        <time>2022-10-29T12:13:43Z</time>
      </trkpt>
      <trkpt lat="49.85865" lon="2.2863">
        <ele>108.2</ele>
        <time>2022-10-29T12:13:44Z</time>
      </trkpt>
      <trkpt lat="49.85864" lon="2.28631">
        <ele>108.2</ele>
        <time>2022-10-29T12:13:45Z</time>
      </trkpt>
      <trkpt lat="49.85863" lon="2.28633">
        <ele>108.3</ele>
        <time>2022-10-29T12:13:46Z</time>
      </trkpt>
      <trkpt lat="49.85862" lon="2.28635">
        <ele>108.3</ele>
        <time>2022-10-29T12:13:49Z</time>
      </trkpt>
      <trkpt lat="49.85862" lon="2.28635">
        <ele>108.4</ele>
        <time>2022-10-29T12:13:50Z</time>
      </trkpt>
      <trkpt lat="49.85862" lon="2.28636">
        <ele>108.4</ele>
        <time>2022-10-29T12:13:51Z</time>
      </trkpt>
      <trkpt lat="49.85862" lon="2.28636">
        <ele>108.4</ele>
        <time>2022-10-29T12:13:52Z</time>
      </trkpt>
      <trkpt lat="49.85863" lon="2.28635">
        <ele>108.4</ele>
        <time>2022-10-29T12:13:53Z</time>
      </trkpt>
      <trkpt lat="49.85863" lon="2.28635">
        <ele>108.4</ele>
        <time>2022-10-29T12:13:54Z</time>
      </trkpt>
      <trkpt lat="49.85863" lon="2.28635">
        <ele>108.4</ele>
        <time>2022-10-29T12:13:55Z</time>
      </trkpt>
      <trkpt lat="49.85863" lon="2.28635">
        <ele>108.4</ele>
        <time>2022-10-29T12:13:56Z</time>
      </trkpt>
      <trkpt lat="49.85863" lon="2.28635">
        <ele>108.4</ele>
        <time>2022-10-29T12:13:57Z</time>
      </trkpt>
      <trkpt lat="49.85863" lon="2.28635">
        <ele>108.4</ele>
        <time>2022-10-29T12:13:58Z</time>
      </trkpt>
      <trkpt lat="49.85863" lon="2.28635">
        <ele>108.4</ele>
        <time>2022-10-29T12:14:00Z</time>
      </trkpt>
      <trkpt lat="49.85863" lon="2.28635">
        <ele>108.4</ele>
        <time>2022-10-29T12:14:01Z</time>
      </trkpt>
      <trkpt lat="49.85863" lon="2.28635">
        <ele>108.4</ele>
        <time>2022-10-29T12:14:02Z</time>
      </trkpt>
      <trkpt lat="49.85862" lon="2.28635">
        <ele>108.5</ele>
        <time>2022-10-29T12:14:03Z</time>
      </trkpt>
      <trkpt lat="49.85862" lon="2.28635">
        <ele>108.5</ele>
        <time>2022-10-29T12:14:04Z</time>
      </trkpt>
      <trkpt lat="49.85862" lon="2.28636">
        <ele>108.5</ele>
        <time>2022-10-29T12:14:05Z</time>
      </trkpt>
      <trkpt lat="49.85861" lon="2.28636">
        <ele>108.5</ele>
        <time>2022-10-29T12:14:06Z</time>
      </trkpt>
      <trkpt lat="49.8586" lon="2.28637">
        <ele>108.6</ele>
        <time>2022-10-29T12:14:07Z</time>
      </trkpt>
      <trkpt lat="49.85859" lon="2.28638">
        <ele>108.6</ele>
        <time>2022-10-29T12:14:09Z</time>
      </trkpt>
      <trkpt lat="49.85858" lon="2.28638">
        <ele>108.6</ele>
        <time>2022-10-29T12:14:10Z</time>
      </trkpt>
      <trkpt lat="49.85857" lon="2.28638">
        <ele>108.7</ele>
        <time>2022-10-29T12:14:11Z</time>
      </trkpt>
      <trkpt lat="49.85855" lon="2.28637">
        <ele>108.8</ele>
        <time>2022-10-29T12:14:12Z</time>
      </trkpt>
      <trkpt lat="49.85855" lon="2.28637">
        <ele>108.8</ele>
        <time>2022-10-29T12:14:14Z</time>
      </trkpt>
      <trkpt lat="49.85854" lon="2.28636">
        <ele>108.9</ele>
        <time>2022-10-29T12:14:15Z</time>
      </trkpt>
      <trkpt lat="49.85853" lon="2.28636">
        <ele>108.9</ele>
        <time>2022-10-29T12:14:16Z</time>
      </trkpt>
      <trkpt lat="49.85851" lon="2.28635">
        <ele>109</ele>
        <time>2022-10-29T12:14:17Z</time>
      </trkpt>
      <trkpt lat="49.8585" lon="2.28634">
        <ele>109.1</ele>
        <time>2022-10-29T12:14:19Z</time>
      </trkpt>
      <trkpt lat="49.85849" lon="2.28634">
        <ele>109.1</ele>
        <time>2022-10-29T12:14:20Z</time>
      </trkpt>
      <trkpt lat="49.85848" lon="2.28633">
        <ele>109.2</ele>
        <time>2022-10-29T12:14:21Z</time>
      </trkpt>
      <trkpt lat="49.85847" lon="2.28633">
        <ele>109.3</ele>
        <time>2022-10-29T12:14:22Z</time>
      </trkpt>
      <trkpt lat="49.85846" lon="2.28632">
        <ele>109.3</ele>
        <time>2022-10-29T12:14:23Z</time>
      </trkpt>
      <trkpt lat="49.85845" lon="2.28631">
        <ele>109.4</ele>
        <time>2022-10-29T12:14:25Z</time>
      </trkpt>
      <trkpt lat="49.85844" lon="2.28631">
        <ele>109.5</ele>
        <time>2022-10-29T12:14:26Z</time>
      </trkpt>
      <trkpt lat="49.85843" lon="2.2863">
        <ele>109.5</ele>
        <time>2022-10-29T12:14:27Z</time>
      </trkpt>
      <trkpt lat="49.85842" lon="2.2863">
        <ele>109.6</ele>
        <time>2022-10-29T12:14:28Z</time>
      </trkpt>
      <trkpt lat="49.85841" lon="2.28629">
        <ele>109.7</ele>
        <time>2022-10-29T12:14:29Z</time>
      </trkpt>
      <trkpt lat="49.8584" lon="2.28629">
        <ele>109.7</ele>
        <time>2022-10-29T12:14:30Z</time>
      </trkpt>
      <trkpt lat="49.85839" lon="2.28629">
        <ele>109.8</ele>
        <time>2022-10-29T12:14:32Z</time>
      </trkpt>
      <trkpt lat="49.85838" lon="2.28628">
        <ele>109.9</ele>
        <time>2022-10-29T12:14:33Z</time>
      </trkpt>
      <trkpt lat="49.85837" lon="2.28628">
        <ele>109.9</ele>
        <time>2022-10-29T12:14:34Z</time>
      </trkpt>
      <trkpt lat="49.85836" lon="2.28628">
        <ele>110</ele>
        <time>2022-10-29T12:14:35Z</time>
      </trkpt>
      <trkpt lat="49.85835" lon="2.28628">
        <ele>110</ele>
        <time>2022-10-29T12:14:36Z</time>
      </trkpt>
      <trkpt lat="49.85834" lon="2.28628">
        <ele>110.1</ele>
        <time>2022-10-29T12:14:37Z</time>
      </trkpt>
      <trkpt lat="49.85833" lon="2.28628">
        <ele>110.2</ele>
        <time>2022-10-29T12:14:38Z</time>
      </trkpt>
      <trkpt lat="49.85832" lon="2.28627">
        <ele>110.2</ele>
        <time>2022-10-29T12:14:39Z</time>
      </trkpt>
      <trkpt lat="49.85831" lon="2.28627">
        <ele>110.3</ele>
        <time>2022-10-29T12:14:41Z</time>
      </trkpt>
      <trkpt lat="49.8583" lon="2.28627">
        <ele>110.3</ele>
        <time>2022-10-29T12:14:42Z</time>
      </trkpt>
      <trkpt lat="49.85828" lon="2.28627">
        <ele>110.4</ele>
        <time>2022-10-29T12:14:43Z</time>
      </trkpt>
      <trkpt lat="49.85828" lon="2.28626">
        <ele>110.5</ele>
        <time>2022-10-29T12:14:44Z</time>
      </trkpt>
      <trkpt lat="49.85827" lon="2.28626">
        <ele>110.5</ele>
        <time>2022-10-29T12:14:45Z</time>
      </trkpt>
      <trkpt lat="49.85825" lon="2.28626">
        <ele>110.6</ele>
        <time>2022-10-29T12:14:46Z</time>
      </trkpt>
      <trkpt lat="49.85824" lon="2.28625">
        <ele>110.7</ele>
        <time>2022-10-29T12:14:48Z</time>
      </trkpt>
      <trkpt lat="49.85823" lon="2.28624">
        <ele>110.8</ele>
        <time>2022-10-29T12:14:49Z</time>
      </trkpt>
      <trkpt lat="49.85821" lon="2.28623">
        <ele>110.9</ele>
        <time>2022-10-29T12:14:51Z</time>
      </trkpt>
      <trkpt lat="49.8582" lon="2.28622">
        <ele>111</ele>
        <time>2022-10-29T12:14:52Z</time>
      </trkpt>
      <trkpt lat="49.85819" lon="2.28622">
        <ele>111</ele>
        <time>2022-10-29T12:14:53Z</time>
      </trkpt>
      <trkpt lat="49.85818" lon="2.28621">
        <ele>111.1</ele>
        <time>2022-10-29T12:14:54Z</time>
      </trkpt>
      <trkpt lat="49.85817" lon="2.28621">
        <ele>111.1</ele>
        <time>2022-10-29T12:14:55Z</time>
      </trkpt>
      <trkpt lat="49.85816" lon="2.28621">
        <ele>111.2</ele>
        <time>2022-10-29T12:14:56Z</time>
      </trkpt>
      <trkpt lat="49.85815" lon="2.28621">
        <ele>111.2</ele>
        <time>2022-10-29T12:14:58Z</time>
      </trkpt>
      <trkpt lat="49.85814" lon="2.2862">
        <ele>111.3</ele>
        <time>2022-10-29T12:14:59Z</time>
      </trkpt>
      <trkpt lat="49.85813" lon="2.2862">
        <ele>111.3</ele>
        <time>2022-10-29T12:15:00Z</time>
      </trkpt>
      <trkpt lat="49.8581" lon="2.2862">
        <ele>111.4</ele>
        <time>2022-10-29T12:15:01Z</time>
      </trkpt>
      <trkpt lat="49.85809" lon="2.2862">
        <ele>111.5</ele>
        <time>2022-10-29T12:15:02Z</time>
      </trkpt>
      <trkpt lat="49.85808" lon="2.2862">
        <ele>111.5</ele>
        <time>2022-10-29T12:15:03Z</time>
      </trkpt>
      <trkpt lat="49.85807" lon="2.2862">
        <ele>111.6</ele>
        <time>2022-10-29T12:15:04Z</time>
      </trkpt>
      <trkpt lat="49.85806" lon="2.2862">
        <ele>111.6</ele>
        <time>2022-10-29T12:15:06Z</time>
      </trkpt>
      <trkpt lat="49.85805" lon="2.2862">
        <ele>111.7</ele>
        <time>2022-10-29T12:15:07Z</time>
      </trkpt>
      <trkpt lat="49.85803" lon="2.2862">
        <ele>111.7</ele>
        <time>2022-10-29T12:15:08Z</time>
      </trkpt>
      <trkpt lat="49.85803" lon="2.2862">
        <ele>111.8</ele>
        <time>2022-10-29T12:15:09Z</time>
      </trkpt>
      <trkpt lat="49.858" lon="2.2862">
        <ele>111.8</ele>
        <time>2022-10-29T12:15:10Z</time>
      </trkpt>
      <trkpt lat="49.858" lon="2.2862">
        <ele>111.9</ele>
        <time>2022-10-29T12:15:11Z</time>
      </trkpt>
      <trkpt lat="49.85799" lon="2.2862">
        <ele>111.9</ele>
        <time>2022-10-29T12:15:12Z</time>
      </trkpt>
      <trkpt lat="49.85796" lon="2.2862">
        <ele>112</ele>
        <time>2022-10-29T12:15:14Z</time>
      </trkpt>
      <trkpt lat="49.85796" lon="2.2862">
        <ele>112</ele>
        <time>2022-10-29T12:15:15Z</time>
      </trkpt>
      <trkpt lat="49.85795" lon="2.2862">
        <ele>112</ele>
        <time>2022-10-29T12:15:16Z</time>
      </trkpt>
      <trkpt lat="49.85794" lon="2.2862">
        <ele>112</ele>
        <time>2022-10-29T12:15:17Z</time>
      </trkpt>
      <trkpt lat="49.85792" lon="2.2862">
        <ele>112.1</ele>
        <time>2022-10-29T12:15:18Z</time>
      </trkpt>
      <trkpt lat="49.8579" lon="2.2862">
        <ele>112.1</ele>
        <time>2022-10-29T12:15:19Z</time>
      </trkpt>
      <trkpt lat="49.85789" lon="2.2862">
        <ele>112.2</ele>
        <time>2022-10-29T12:15:20Z</time>
      </trkpt>
      <trkpt lat="49.85788" lon="2.28621">
        <ele>112.2</ele>
        <time>2022-10-29T12:15:21Z</time>
      </trkpt>
      <trkpt lat="49.85787" lon="2.28621">
        <ele>112.2</ele>
        <time>2022-10-29T12:15:22Z</time>
      </trkpt>
      <trkpt lat="49.85785" lon="2.28622">
        <ele>112.3</ele>
        <time>2022-10-29T12:15:24Z</time>
      </trkpt>
      <trkpt lat="49.85785" lon="2.28622">
        <ele>112.3</ele>
        <time>2022-10-29T12:15:25Z</time>
      </trkpt>
      <trkpt lat="49.85784" lon="2.28622">
        <ele>112.3</ele>
        <time>2022-10-29T12:15:26Z</time>
      </trkpt>
      <trkpt lat="49.85782" lon="2.28622">
        <ele>112.3</ele>
        <time>2022-10-29T12:15:27Z</time>
      </trkpt>
      <trkpt lat="49.8578" lon="2.28622">
        <ele>112.4</ele>
        <time>2022-10-29T12:15:28Z</time>
      </trkpt>
      <trkpt lat="49.85779" lon="2.28622">
        <ele>112.4</ele>
        <time>2022-10-29T12:15:29Z</time>
      </trkpt>
      <trkpt lat="49.85778" lon="2.28622">
        <ele>112.4</ele>
        <time>2022-10-29T12:15:30Z</time>
      </trkpt>
      <trkpt lat="49.85777" lon="2.28622">
        <ele>112.4</ele>
        <time>2022-10-29T12:15:31Z</time>
      </trkpt>
      <trkpt lat="49.85775" lon="2.28622">
        <ele>112.4</ele>
        <time>2022-10-29T12:15:32Z</time>
      </trkpt>
      <trkpt lat="49.85773" lon="2.28622">
        <ele>112.5</ele>
        <time>2022-10-29T12:15:33Z</time>
      </trkpt>
      <trkpt lat="49.85772" lon="2.28622">
        <ele>112.5</ele>
        <time>2022-10-29T12:15:34Z</time>
      </trkpt>
      <trkpt lat="49.85772" lon="2.28622">
        <ele>112.5</ele>
        <time>2022-10-29T12:15:35Z</time>
      </trkpt>
      <trkpt lat="49.85771" lon="2.28621">
        <ele>112.5</ele>
        <time>2022-10-29T12:15:36Z</time>
      </trkpt>
      <trkpt lat="49.85769" lon="2.28621">
        <ele>112.5</ele>
        <time>2022-10-29T12:15:38Z</time>
      </trkpt>
      <trkpt lat="49.85768" lon="2.28621">
        <ele>112.5</ele>
        <time>2022-10-29T12:15:39Z</time>
      </trkpt>
      <trkpt lat="49.85767" lon="2.28621">
        <ele>112.5</ele>
        <time>2022-10-29T12:15:40Z</time>
      </trkpt>
      <trkpt lat="49.85765" lon="2.28621">
        <ele>112.5</ele>
        <time>2022-10-29T12:15:41Z</time>
      </trkpt>
      <trkpt lat="49.85764" lon="2.28621">
        <ele>112.5</ele>
        <time>2022-10-29T12:15:42Z</time>
      </trkpt>
      <trkpt lat="49.85762" lon="2.28622">
        <ele>112.5</ele>
        <time>2022-10-29T12:15:44Z</time>
      </trkpt>
      <trkpt lat="49.85761" lon="2.28623">
        <ele>112.5</ele>
        <time>2022-10-29T12:15:45Z</time>
      </trkpt>
      <trkpt lat="49.85761" lon="2.28624">
        <ele>112.5</ele>
        <time>2022-10-29T12:15:46Z</time>
      </trkpt>
      <trkpt lat="49.85761" lon="2.28624">
        <ele>112.5</ele>
        <time>2022-10-29T12:15:47Z</time>
      </trkpt>
      <trkpt lat="49.8576" lon="2.28625">
        <ele>112.5</ele>
        <time>2022-10-29T12:15:48Z</time>
      </trkpt>
      <trkpt lat="49.8576" lon="2.28625">
        <ele>112.5</ele>
        <time>2022-10-29T12:15:49Z</time>
      </trkpt>
      <trkpt lat="49.8576" lon="2.28625">
        <ele>112.5</ele>
        <time>2022-10-29T12:15:50Z</time>
      </trkpt>
      <trkpt lat="49.8576" lon="2.28625">
        <ele>112.5</ele>
        <time>2022-10-29T12:15:51Z</time>
      </trkpt>
      <trkpt lat="49.85759" lon="2.28625">
        <ele>112.5</ele>
        <time>2022-10-29T12:15:52Z</time>
      </trkpt>
      <trkpt lat="49.85759" lon="2.28625">
        <ele>112.5</ele>
        <time>2022-10-29T12:15:53Z</time>
      </trkpt>
      <trkpt lat="49.85759" lon="2.28625">
        <ele>112.5</ele>
        <time>2022-10-29T12:15:54Z</time>
      </trkpt>
      <trkpt lat="49.8576" lon="2.28625">
        <ele>112.5</ele>
        <time>2022-10-29T12:15:55Z</time>
      </trkpt>
      <trkpt lat="49.8576" lon="2.28624">
        <ele>112.5</ele>
        <time>2022-10-29T12:15:56Z</time>
      </trkpt>
      <trkpt lat="49.8576" lon="2.28624">
        <ele>112.5</ele>
        <time>2022-10-29T12:15:57Z</time>
      </trkpt>
      <trkpt lat="49.85759" lon="2.28624">
        <ele>112.5</ele>
        <time>2022-10-29T12:15:58Z</time>
      </trkpt>
      <trkpt lat="49.85759" lon="2.28624">
        <ele>112.5</ele>
        <time>2022-10-29T12:15:59Z</time>
      </trkpt>
      <trkpt lat="49.85759" lon="2.28624">
        <ele>112.5</ele>
        <time>2022-10-29T12:16:00Z</time>
      </trkpt>
      <trkpt lat="49.85759" lon="2.28624">
        <ele>112.5</ele>
        <time>2022-10-29T12:16:01Z</time>
      </trkpt>
      <trkpt lat="49.85759" lon="2.28624">
        <ele>112.5</ele>
        <time>2022-10-29T12:16:02Z</time>
      </trkpt>
      <trkpt lat="49.85759" lon="2.28624">
        <ele>112.5</ele>
        <time>2022-10-29T12:16:03Z</time>
      </trkpt>
      <trkpt lat="49.85758" lon="2.28624">
        <ele>112.5</ele>
        <time>2022-10-29T12:16:04Z</time>
      </trkpt>
      <trkpt lat="49.85758" lon="2.28624">
        <ele>112.5</ele>
        <time>2022-10-29T12:16:05Z</time>
      </trkpt>
      <trkpt lat="49.85758" lon="2.28624">
        <ele>112.5</ele>
        <time>2022-10-29T12:16:06Z</time>
      </trkpt>
      <trkpt lat="49.85758" lon="2.28624">
        <ele>112.5</ele>
        <time>2022-10-29T12:16:07Z</time>
      </trkpt>
      <trkpt lat="49.85758" lon="2.28624">
        <ele>112.5</ele>
        <time>2022-10-29T12:16:08Z</time>
      </trkpt>
      <trkpt lat="49.85758" lon="2.28624">
        <ele>112.5</ele>
        <time>2022-10-29T12:16:09Z</time>
      </trkpt>
      <trkpt lat="49.85759" lon="2.28624">
        <ele>112.5</ele>
        <time>2022-10-29T12:16:10Z</time>
      </trkpt>
      <trkpt lat="49.85759" lon="2.28624">
        <ele>112.5</ele>
        <time>2022-10-29T12:16:11Z</time>
      </trkpt>
      <trkpt lat="49.85759" lon="2.28624">
        <ele>112.5</ele>
        <time>2022-10-29T12:16:12Z</time>
      </trkpt>
      <trkpt lat="49.85759" lon="2.28624">
        <ele>112.5</ele>
        <time>2022-10-29T12:16:13Z</time>
      </trkpt>
      <trkpt lat="49.85759" lon="2.28623">
        <ele>112.5</ele>
        <time>2022-10-29T12:16:14Z</time>
      </trkpt>
      <trkpt lat="49.85759" lon="2.28624">
        <ele>112.5</ele>
        <time>2022-10-29T12:16:15Z</time>
      </trkpt>
      <trkpt lat="49.85759" lon="2.28623">
        <ele>112.5</ele>
        <time>2022-10-29T12:16:16Z</time>
      </trkpt>
      <trkpt lat="49.85759" lon="2.28623">
        <ele>112.5</ele>
        <time>2022-10-29T12:16:17Z</time>
      </trkpt>
      <trkpt lat="49.85759" lon="2.28623">
        <ele>112.5</ele>
        <time>2022-10-29T12:16:18Z</time>
      </trkpt>
      <trkpt lat="49.85759" lon="2.28623">
        <ele>112.5</ele>
        <time>2022-10-29T12:16:19Z</time>
      </trkpt>
      <trkpt lat="49.85759" lon="2.28623">
        <ele>112.5</ele>
        <time>2022-10-29T12:16:20Z</time>
      </trkpt>
      <trkpt lat="49.85759" lon="2.28623">
        <ele>112.5</ele>
        <time>2022-10-29T12:16:21Z</time>
      </trkpt>
      <trkpt lat="49.85759" lon="2.28623">
        <ele>112.5</ele>
        <time>2022-10-29T12:16:22Z</time>
      </trkpt>
      <trkpt lat="49.8576" lon="2.28623">
        <ele>112.5</ele>
        <time>2022-10-29T12:16:23Z</time>
      </trkpt>
      <trkpt lat="49.8576" lon="2.28622">
        <ele>112.5</ele>
        <time>2022-10-29T12:16:24Z</time>
      </trkpt>
      <trkpt lat="49.8576" lon="2.28622">
        <ele>112.5</ele>
        <time>2022-10-29T12:16:25Z</time>
      </trkpt>
      <trkpt lat="49.8576" lon="2.28622">
        <ele>112.5</ele>
        <time>2022-10-29T12:16:26Z</time>
      </trkpt>
      <trkpt lat="49.8576" lon="2.28622">
        <ele>112.5</ele>
        <time>2022-10-29T12:16:27Z</time>
      </trkpt>
      <trkpt lat="49.8576" lon="2.28622">
        <ele>112.5</ele>
        <time>2022-10-29T12:16:28Z</time>
      </trkpt>
      <trkpt lat="49.8576" lon="2.28622">
        <ele>112.5</ele>
        <time>2022-10-29T12:16:29Z</time>
      </trkpt>
      <trkpt lat="49.8576" lon="2.28622">
        <ele>112.5</ele>
        <time>2022-10-29T12:16:30Z</time>
      </trkpt>
      <trkpt lat="49.8576" lon="2.28622">
        <ele>112.5</ele>
        <time>2022-10-29T12:16:31Z</time>
      </trkpt>
      <trkpt lat="49.8576" lon="2.28622">
        <ele>112.5</ele>
        <time>2022-10-29T12:16:32Z</time>
      </trkpt>
      <trkpt lat="49.8576" lon="2.28621">
        <ele>112.5</ele>
        <time>2022-10-29T12:16:33Z</time>
      </trkpt>
      <trkpt lat="49.85759" lon="2.28622">
        <ele>112.5</ele>
        <time>2022-10-29T12:16:34Z</time>
      </trkpt>
      <trkpt lat="49.85758" lon="2.28622">
        <ele>112.5</ele>
        <time>2022-10-29T12:16:35Z</time>
      </trkpt>
      <trkpt lat="49.85758" lon="2.28622">
        <ele>112.5</ele>
        <time>2022-10-29T12:16:36Z</time>
      </trkpt>
      <trkpt lat="49.85757" lon="2.28621">
        <ele>112.5</ele>
        <time>2022-10-29T12:16:37Z</time>
      </trkpt>
      <trkpt lat="49.85755" lon="2.28621">
        <ele>112.5</ele>
        <time>2022-10-29T12:16:39Z</time>
      </trkpt>
      <trkpt lat="49.85754" lon="2.28621">
        <ele>112.5</ele>
        <time>2022-10-29T12:16:40Z</time>
      </trkpt>
      <trkpt lat="49.85753" lon="2.28621">
        <ele>112.5</ele>
        <time>2022-10-29T12:16:41Z</time>
      </trkpt>
      <trkpt lat="49.85752" lon="2.28621">
        <ele>112.5</ele>
        <time>2022-10-29T12:16:42Z</time>
      </trkpt>
      <trkpt lat="49.85752" lon="2.28621">
        <ele>112.5</ele>
        <time>2022-10-29T12:16:43Z</time>
      </trkpt>
      <trkpt lat="49.8575" lon="2.28621">
        <ele>112.5</ele>
        <time>2022-10-29T12:16:44Z</time>
      </trkpt>
      <trkpt lat="49.8575" lon="2.28621">
        <ele>112.5</ele>
        <time>2022-10-29T12:16:45Z</time>
      </trkpt>
      <trkpt lat="49.85748" lon="2.28621">
        <ele>112.5</ele>
        <time>2022-10-29T12:16:46Z</time>
      </trkpt>
      <trkpt lat="49.85746" lon="2.2862">
        <ele>112.5</ele>
        <time>2022-10-29T12:16:47Z</time>
      </trkpt>
      <trkpt lat="49.85745" lon="2.2862">
        <ele>112.5</ele>
        <time>2022-10-29T12:16:48Z</time>
      </trkpt>
      <trkpt lat="49.85744" lon="2.2862">
        <ele>112.5</ele>
        <time>2022-10-29T12:16:49Z</time>
      </trkpt>
      <trkpt lat="49.85743" lon="2.2862">
        <ele>112.5</ele>
        <time>2022-10-29T12:16:51Z</time>
      </trkpt>
      <trkpt lat="49.85742" lon="2.2862">
        <ele>112.5</ele>
        <time>2022-10-29T12:16:52Z</time>
      </trkpt>
      <trkpt lat="49.85741" lon="2.2862">
        <ele>112.5</ele>
        <time>2022-10-29T12:16:53Z</time>
      </trkpt>
      <trkpt lat="49.85738" lon="2.2862">
        <ele>112.5</ele>
        <time>2022-10-29T12:16:54Z</time>
      </trkpt>
      <trkpt lat="49.85738" lon="2.2862">
        <ele>112.5</ele>
        <time>2022-10-29T12:16:55Z</time>
      </trkpt>
      <trkpt lat="49.85737" lon="2.2862">
        <ele>112.5</ele>
        <time>2022-10-29T12:16:56Z</time>
      </trkpt>
      <trkpt lat="49.85736" lon="2.28619">
        <ele>112.5</ele>
        <time>2022-10-29T12:16:57Z</time>
      </trkpt>
      <trkpt lat="49.85735" lon="2.28619">
        <ele>112.5</ele>
        <time>2022-10-29T12:16:59Z</time>
      </trkpt>
      <trkpt lat="49.85734" lon="2.28618">
        <ele>112.5</ele>
        <time>2022-10-29T12:17:00Z</time>
      </trkpt>
      <trkpt lat="49.85733" lon="2.28618">
        <ele>112.5</ele>
        <time>2022-10-29T12:17:01Z</time>
      </trkpt>
      <trkpt lat="49.85732" lon="2.28618">
        <ele>112.5</ele>
        <time>2022-10-29T12:17:02Z</time>
      </trkpt>
      <trkpt lat="49.85731" lon="2.28618">
        <ele>112.5</ele>
        <time>2022-10-29T12:17:03Z</time>
      </trkpt>
      <trkpt lat="49.8573" lon="2.28617">
        <ele>112.5</ele>
        <time>2022-10-29T12:17:04Z</time>
      </trkpt>
      <trkpt lat="49.85729" lon="2.28617">
        <ele>112.5</ele>
        <time>2022-10-29T12:17:05Z</time>
      </trkpt>
      <trkpt lat="49.85728" lon="2.28617">
        <ele>112.5</ele>
        <time>2022-10-29T12:17:06Z</time>
      </trkpt>
      <trkpt lat="49.85727" lon="2.28617">
        <ele>112.5</ele>
        <time>2022-10-29T12:17:08Z</time>
      </trkpt>
      <trkpt lat="49.85726" lon="2.28616">
        <ele>112.5</ele>
        <time>2022-10-29T12:17:09Z</time>
      </trkpt>
      <trkpt lat="49.85725" lon="2.28616">
        <ele>112.5</ele>
        <time>2022-10-29T12:17:10Z</time>
      </trkpt>
      <trkpt lat="49.85724" lon="2.28616">
        <ele>112.4</ele>
        <time>2022-10-29T12:17:11Z</time>
      </trkpt>
      <trkpt lat="49.85723" lon="2.28615">
        <ele>112.4</ele>
        <time>2022-10-29T12:17:12Z</time>
      </trkpt>
      <trkpt lat="49.85721" lon="2.28615">
        <ele>112.4</ele>
        <time>2022-10-29T12:17:13Z</time>
      </trkpt>
      <trkpt lat="49.8572" lon="2.28615">
        <ele>112.4</ele>
        <time>2022-10-29T12:17:14Z</time>
      </trkpt>
      <trkpt lat="49.85719" lon="2.28615">
        <ele>112.4</ele>
        <time>2022-10-29T12:17:15Z</time>
      </trkpt>
      <trkpt lat="49.85718" lon="2.28615">
        <ele>112.4</ele>
        <time>2022-10-29T12:17:16Z</time>
      </trkpt>
      <trkpt lat="49.85716" lon="2.28615">
        <ele>112.4</ele>
        <time>2022-10-29T12:17:17Z</time>
      </trkpt>
      <trkpt lat="49.85715" lon="2.28615">
        <ele>112.3</ele>
        <time>2022-10-29T12:17:19Z</time>
      </trkpt>
      <trkpt lat="49.85714" lon="2.28615">
        <ele>112.3</ele>
        <time>2022-10-29T12:17:20Z</time>
      </trkpt>
      <trkpt lat="49.85712" lon="2.28615">
        <ele>112.3</ele>
        <time>2022-10-29T12:17:21Z</time>
      </trkpt>
      <trkpt lat="49.85711" lon="2.28615">
        <ele>112.3</ele>
        <time>2022-10-29T12:17:22Z</time>
      </trkpt>
      <trkpt lat="49.8571" lon="2.28616">
        <ele>112.3</ele>
        <time>2022-10-29T12:17:23Z</time>
      </trkpt>
      <trkpt lat="49.85708" lon="2.28616">
        <ele>112.2</ele>
        <time>2022-10-29T12:17:24Z</time>
      </trkpt>
      <trkpt lat="49.85707" lon="2.28616">
        <ele>112.2</ele>
        <time>2022-10-29T12:17:25Z</time>
      </trkpt>
      <trkpt lat="49.85706" lon="2.28616">
        <ele>112.2</ele>
        <time>2022-10-29T12:17:26Z</time>
      </trkpt>
      <trkpt lat="49.85705" lon="2.28617">
        <ele>112.2</ele>
        <time>2022-10-29T12:17:27Z</time>
      </trkpt>
      <trkpt lat="49.85704" lon="2.28617">
        <ele>112.1</ele>
        <time>2022-10-29T12:17:28Z</time>
      </trkpt>
      <trkpt lat="49.85703" lon="2.28617">
        <ele>112.1</ele>
        <time>2022-10-29T12:17:29Z</time>
      </trkpt>
      <trkpt lat="49.85702" lon="2.28617">
        <ele>112.1</ele>
        <time>2022-10-29T12:17:31Z</time>
      </trkpt>
      <trkpt lat="49.85701" lon="2.28618">
        <ele>112.1</ele>
        <time>2022-10-29T12:17:32Z</time>
      </trkpt>
      <trkpt lat="49.85699" lon="2.28617">
        <ele>112</ele>
        <time>2022-10-29T12:17:33Z</time>
      </trkpt>
      <trkpt lat="49.85698" lon="2.28617">
        <ele>112</ele>
        <time>2022-10-29T12:17:34Z</time>
      </trkpt>
      <trkpt lat="49.85697" lon="2.28617">
        <ele>112</ele>
        <time>2022-10-29T12:17:35Z</time>
      </trkpt>
      <trkpt lat="49.85696" lon="2.28617">
        <ele>111.9</ele>
        <time>2022-10-29T12:17:36Z</time>
      </trkpt>
      <trkpt lat="49.85694" lon="2.28617">
        <ele>111.9</ele>
        <time>2022-10-29T12:17:37Z</time>
      </trkpt>
      <trkpt lat="49.85693" lon="2.28616">
        <ele>111.8</ele>
        <time>2022-10-29T12:17:38Z</time>
      </trkpt>
      <trkpt lat="49.85692" lon="2.28616">
        <ele>111.8</ele>
        <time>2022-10-29T12:17:39Z</time>
      </trkpt>
      <trkpt lat="49.85691" lon="2.28616">
        <ele>111.8</ele>
        <time>2022-10-29T12:17:40Z</time>
      </trkpt>
      <trkpt lat="49.8569" lon="2.28616">
        <ele>111.7</ele>
        <time>2022-10-29T12:17:41Z</time>
      </trkpt>
      <trkpt lat="49.85689" lon="2.28616">
        <ele>111.7</ele>
        <time>2022-10-29T12:17:43Z</time>
      </trkpt>
      <trkpt lat="49.85688" lon="2.28616">
        <ele>111.7</ele>
        <time>2022-10-29T12:17:44Z</time>
      </trkpt>
      <trkpt lat="49.85686" lon="2.28616">
        <ele>111.6</ele>
        <time>2022-10-29T12:17:45Z</time>
      </trkpt>
      <trkpt lat="49.85684" lon="2.28615">
        <ele>111.5</ele>
        <time>2022-10-29T12:17:46Z</time>
      </trkpt>
      <trkpt lat="49.85683" lon="2.28615">
        <ele>111.5</ele>
        <time>2022-10-29T12:17:47Z</time>
      </trkpt>
      <trkpt lat="49.85683" lon="2.28614">
        <ele>111.4</ele>
        <time>2022-10-29T12:17:48Z</time>
      </trkpt>
      <trkpt lat="49.85681" lon="2.28614">
        <ele>111.4</ele>
        <time>2022-10-29T12:17:50Z</time>
      </trkpt>
      <trkpt lat="49.8568" lon="2.28614">
        <ele>111.3</ele>
        <time>2022-10-29T12:17:51Z</time>
      </trkpt>
      <trkpt lat="49.85679" lon="2.28614">
        <ele>111.3</ele>
        <time>2022-10-29T12:17:52Z</time>
      </trkpt>
      <trkpt lat="49.85678" lon="2.28613">
        <ele>111.2</ele>
        <time>2022-10-29T12:17:53Z</time>
      </trkpt>
      <trkpt lat="49.85677" lon="2.28613">
        <ele>111.2</ele>
        <time>2022-10-29T12:17:54Z</time>
      </trkpt>
      <trkpt lat="49.85676" lon="2.28612">
        <ele>111.1</ele>
        <time>2022-10-29T12:17:55Z</time>
      </trkpt>
      <trkpt lat="49.85675" lon="2.28612">
        <ele>111.1</ele>
        <time>2022-10-29T12:17:56Z</time>
      </trkpt>
      <trkpt lat="49.85673" lon="2.28611">
        <ele>111</ele>
        <time>2022-10-29T12:17:57Z</time>
      </trkpt>
      <trkpt lat="49.85672" lon="2.2861">
        <ele>110.9</ele>
        <time>2022-10-29T12:17:59Z</time>
      </trkpt>
      <trkpt lat="49.8567" lon="2.2861">
        <ele>110.8</ele>
        <time>2022-10-29T12:18:00Z</time>
      </trkpt>
      <trkpt lat="49.85668" lon="2.28609">
        <ele>110.7</ele>
        <time>2022-10-29T12:18:01Z</time>
      </trkpt>
      <trkpt lat="49.85668" lon="2.28608">
        <ele>110.7</ele>
        <time>2022-10-29T12:18:02Z</time>
      </trkpt>
      <trkpt lat="49.85667" lon="2.28608">
        <ele>110.6</ele>
        <time>2022-10-29T12:18:03Z</time>
      </trkpt>
      <trkpt lat="49.85665" lon="2.28607">
        <ele>110.5</ele>
        <time>2022-10-29T12:18:04Z</time>
      </trkpt>
      <trkpt lat="49.85664" lon="2.28606">
        <ele>110.4</ele>
        <time>2022-10-29T12:18:05Z</time>
      </trkpt>
      <trkpt lat="49.85663" lon="2.28606">
        <ele>110.4</ele>
        <time>2022-10-29T12:18:06Z</time>
      </trkpt>
      <trkpt lat="49.85662" lon="2.28605">
        <ele>110.3</ele>
        <time>2022-10-29T12:18:07Z</time>
      </trkpt>
      <trkpt lat="49.85662" lon="2.28605">
        <ele>110.3</ele>
        <time>2022-10-29T12:18:08Z</time>
      </trkpt>
      <trkpt lat="49.8566" lon="2.28604">
        <ele>110.2</ele>
        <time>2022-10-29T12:18:09Z</time>
      </trkpt>
      <trkpt lat="49.85659" lon="2.28604">
        <ele>110.1</ele>
        <time>2022-10-29T12:18:10Z</time>
      </trkpt>
      <trkpt lat="49.85658" lon="2.28604">
        <ele>110.1</ele>
        <time>2022-10-29T12:18:11Z</time>
      </trkpt>
      <trkpt lat="49.85657" lon="2.28603">
        <ele>110</ele>
        <time>2022-10-29T12:18:13Z</time>
      </trkpt>
      <trkpt lat="49.85656" lon="2.28603">
        <ele>109.9</ele>
        <time>2022-10-29T12:18:14Z</time>
      </trkpt>
      <trkpt lat="49.85655" lon="2.28602">
        <ele>109.9</ele>
        <time>2022-10-29T12:18:15Z</time>
      </trkpt>
      <trkpt lat="49.85653" lon="2.28601">
        <ele>109.7</ele>
        <time>2022-10-29T12:18:16Z</time>
      </trkpt>
      <trkpt lat="49.85652" lon="2.28601">
        <ele>109.7</ele>
        <time>2022-10-29T12:18:17Z</time>
      </trkpt>
      <trkpt lat="49.85651" lon="2.28601">
        <ele>109.6</ele>
        <time>2022-10-29T12:18:18Z</time>
      </trkpt>
      <trkpt lat="49.85649" lon="2.28599">
        <ele>109.5</ele>
        <time>2022-10-29T12:18:19Z</time>
      </trkpt>
      <trkpt lat="49.85648" lon="2.28599">
        <ele>109.4</ele>
        <time>2022-10-29T12:18:20Z</time>
      </trkpt>
      <trkpt lat="49.85646" lon="2.28598">
        <ele>109.3</ele>
        <time>2022-10-29T12:18:21Z</time>
      </trkpt>
      <trkpt lat="49.85646" lon="2.28598">
        <ele>109.3</ele>
        <time>2022-10-29T12:18:22Z</time>
      </trkpt>
      <trkpt lat="49.85645" lon="2.28598">
        <ele>109.2</ele>
        <time>2022-10-29T12:18:23Z</time>
      </trkpt>
      <trkpt lat="49.85644" lon="2.28597">
        <ele>109.1</ele>
        <time>2022-10-29T12:18:25Z</time>
      </trkpt>
      <trkpt lat="49.85643" lon="2.28596">
        <ele>109.1</ele>
        <time>2022-10-29T12:18:26Z</time>
      </trkpt>
      <trkpt lat="49.85642" lon="2.28595">
        <ele>109</ele>
        <time>2022-10-29T12:18:27Z</time>
      </trkpt>
      <trkpt lat="49.8564" lon="2.28594">
        <ele>108.9</ele>
        <time>2022-10-29T12:18:28Z</time>
      </trkpt>
      <trkpt lat="49.85639" lon="2.28594">
        <ele>108.9</ele>
        <time>2022-10-29T12:18:29Z</time>
      </trkpt>
      <trkpt lat="49.85638" lon="2.28593">
        <ele>108.8</ele>
        <time>2022-10-29T12:18:30Z</time>
      </trkpt>
      <trkpt lat="49.85637" lon="2.28593">
        <ele>108.7</ele>
        <time>2022-10-29T12:18:31Z</time>
      </trkpt>
      <trkpt lat="49.85635" lon="2.28592">
        <ele>108.6</ele>
        <time>2022-10-29T12:18:32Z</time>
      </trkpt>
      <trkpt lat="49.85634" lon="2.28591">
        <ele>108.6</ele>
        <time>2022-10-29T12:18:34Z</time>
      </trkpt>
      <trkpt lat="49.85633" lon="2.2859">
        <ele>108.5</ele>
        <time>2022-10-29T12:18:35Z</time>
      </trkpt>
      <trkpt lat="49.85632" lon="2.28589">
        <ele>108.4</ele>
        <time>2022-10-29T12:18:36Z</time>
      </trkpt>
      <trkpt lat="49.85631" lon="2.28588">
        <ele>108.4</ele>
        <time>2022-10-29T12:18:37Z</time>
      </trkpt>
      <trkpt lat="49.8563" lon="2.28587">
        <ele>108.3</ele>
        <time>2022-10-29T12:18:38Z</time>
      </trkpt>
      <trkpt lat="49.85629" lon="2.28586">
        <ele>108.3</ele>
        <time>2022-10-29T12:18:39Z</time>
      </trkpt>
      <trkpt lat="49.85627" lon="2.28585">
        <ele>108.2</ele>
        <time>2022-10-29T12:18:40Z</time>
      </trkpt>
      <trkpt lat="49.85626" lon="2.28584">
        <ele>108.2</ele>
        <time>2022-10-29T12:18:41Z</time>
      </trkpt>
      <trkpt lat="49.85625" lon="2.28583">
        <ele>108.1</ele>
        <time>2022-10-29T12:18:42Z</time>
      </trkpt>
      <trkpt lat="49.85625" lon="2.28582">
        <ele>108.1</ele>
        <time>2022-10-29T12:18:43Z</time>
      </trkpt>
      <trkpt lat="49.85623" lon="2.28581">
        <ele>108</ele>
        <time>2022-10-29T12:18:45Z</time>
      </trkpt>
      <trkpt lat="49.85622" lon="2.28581">
        <ele>108</ele>
        <time>2022-10-29T12:18:46Z</time>
      </trkpt>
      <trkpt lat="49.8562" lon="2.28579">
        <ele>107.9</ele>
        <time>2022-10-29T12:18:47Z</time>
      </trkpt>
      <trkpt lat="49.85619" lon="2.28579">
        <ele>107.9</ele>
        <time>2022-10-29T12:18:48Z</time>
      </trkpt>
      <trkpt lat="49.85619" lon="2.28578">
        <ele>107.9</ele>
        <time>2022-10-29T12:18:49Z</time>
      </trkpt>
      <trkpt lat="49.85617" lon="2.28578">
        <ele>107.8</ele>
        <time>2022-10-29T12:18:50Z</time>
      </trkpt>
      <trkpt lat="49.85615" lon="2.28577">
        <ele>107.8</ele>
        <time>2022-10-29T12:18:51Z</time>
      </trkpt>
      <trkpt lat="49.85613" lon="2.28575">
        <ele>107.7</ele>
        <time>2022-10-29T12:18:52Z</time>
      </trkpt>
      <trkpt lat="49.85612" lon="2.28575">
        <ele>107.7</ele>
        <time>2022-10-29T12:18:54Z</time>
      </trkpt>
      <trkpt lat="49.85611" lon="2.28575">
        <ele>107.7</ele>
        <time>2022-10-29T12:18:55Z</time>
      </trkpt>
      <trkpt lat="49.85609" lon="2.28574">
        <ele>107.7</ele>
        <time>2022-10-29T12:18:56Z</time>
      </trkpt>
      <trkpt lat="49.85608" lon="2.28574">
        <ele>107.6</ele>
        <time>2022-10-29T12:18:57Z</time>
      </trkpt>
      <trkpt lat="49.85607" lon="2.28574">
        <ele>107.6</ele>
        <time>2022-10-29T12:18:58Z</time>
      </trkpt>
      <trkpt lat="49.85606" lon="2.28574">
        <ele>107.6</ele>
        <time>2022-10-29T12:18:59Z</time>
      </trkpt>
      <trkpt lat="49.85605" lon="2.28573">
        <ele>107.6</ele>
        <time>2022-10-29T12:19:00Z</time>
      </trkpt>
      <trkpt lat="49.85604" lon="2.28573">
        <ele>107.6</ele>
        <time>2022-10-29T12:19:02Z</time>
      </trkpt>
      <trkpt lat="49.85602" lon="2.28573">
        <ele>107.6</ele>
        <time>2022-10-29T12:19:03Z</time>
      </trkpt>
      <trkpt lat="49.85602" lon="2.28573">
        <ele>107.6</ele>
        <time>2022-10-29T12:19:04Z</time>
      </trkpt>
      <trkpt lat="49.856" lon="2.28572">
        <ele>107.5</ele>
        <time>2022-10-29T12:19:05Z</time>
      </trkpt>
      <trkpt lat="49.85598" lon="2.28572">
        <ele>107.5</ele>
        <time>2022-10-29T12:19:06Z</time>
      </trkpt>
      <trkpt lat="49.85597" lon="2.28572">
        <ele>107.5</ele>
        <time>2022-10-29T12:19:08Z</time>
      </trkpt>
      <trkpt lat="49.85596" lon="2.28571">
        <ele>107.5</ele>
        <time>2022-10-29T12:19:09Z</time>
      </trkpt>
      <trkpt lat="49.85595" lon="2.28571">
        <ele>107.5</ele>
        <time>2022-10-29T12:19:10Z</time>
      </trkpt>
      <trkpt lat="49.85594" lon="2.2857">
        <ele>107.5</ele>
        <time>2022-10-29T12:19:11Z</time>
      </trkpt>
      <trkpt lat="49.85593" lon="2.2857">
        <ele>107.5</ele>
        <time>2022-10-29T12:19:12Z</time>
      </trkpt>
      <trkpt lat="49.85592" lon="2.2857">
        <ele>107.5</ele>
        <time>2022-10-29T12:19:13Z</time>
      </trkpt>
      <trkpt lat="49.85591" lon="2.2857">
        <ele>107.5</ele>
        <time>2022-10-29T12:19:14Z</time>
      </trkpt>
      <trkpt lat="49.8559" lon="2.28569">
        <ele>107.5</ele>
        <time>2022-10-29T12:19:15Z</time>
      </trkpt>
      <trkpt lat="49.85589" lon="2.28569">
        <ele>107.4</ele>
        <time>2022-10-29T12:19:16Z</time>
      </trkpt>
      <trkpt lat="49.85588" lon="2.28569">
        <ele>107.4</ele>
        <time>2022-10-29T12:19:17Z</time>
      </trkpt>
      <trkpt lat="49.85587" lon="2.28568">
        <ele>107.4</ele>
        <time>2022-10-29T12:19:19Z</time>
      </trkpt>
      <trkpt lat="49.85585" lon="2.28568">
        <ele>107.4</ele>
        <time>2022-10-29T12:19:20Z</time>
      </trkpt>
      <trkpt lat="49.85584" lon="2.28568">
        <ele>107.4</ele>
        <time>2022-10-29T12:19:21Z</time>
      </trkpt>
      <trkpt lat="49.85582" lon="2.28567">
        <ele>107.4</ele>
        <time>2022-10-29T12:19:22Z</time>
      </trkpt>
      <trkpt lat="49.85581" lon="2.28567">
        <ele>107.4</ele>
        <time>2022-10-29T12:19:24Z</time>
      </trkpt>
      <trkpt lat="49.8558" lon="2.28567">
        <ele>107.4</ele>
        <time>2022-10-29T12:19:25Z</time>
      </trkpt>
      <trkpt lat="49.85578" lon="2.28567">
        <ele>107.4</ele>
        <time>2022-10-29T12:19:26Z</time>
      </trkpt>
      <trkpt lat="49.85577" lon="2.28567">
        <ele>107.4</ele>
        <time>2022-10-29T12:19:27Z</time>
      </trkpt>
      <trkpt lat="49.85576" lon="2.28567">
        <ele>107.3</ele>
        <time>2022-10-29T12:19:28Z</time>
      </trkpt>
      <trkpt lat="49.85574" lon="2.28566">
        <ele>107.3</ele>
        <time>2022-10-29T12:19:30Z</time>
      </trkpt>
      <trkpt lat="49.85573" lon="2.28566">
        <ele>107.3</ele>
        <time>2022-10-29T12:19:31Z</time>
      </trkpt>
      <trkpt lat="49.85573" lon="2.28566">
        <ele>107.3</ele>
        <time>2022-10-29T12:19:32Z</time>
      </trkpt>
      <trkpt lat="49.8557" lon="2.28566">
        <ele>107.3</ele>
        <time>2022-10-29T12:19:33Z</time>
      </trkpt>
      <trkpt lat="49.85569" lon="2.28566">
        <ele>107.3</ele>
        <time>2022-10-29T12:19:34Z</time>
      </trkpt>
      <trkpt lat="49.85569" lon="2.28566">
        <ele>107.3</ele>
        <time>2022-10-29T12:19:35Z</time>
      </trkpt>
      <trkpt lat="49.85568" lon="2.28565">
        <ele>107.3</ele>
        <time>2022-10-29T12:19:36Z</time>
      </trkpt>
      <trkpt lat="49.85567" lon="2.28565">
        <ele>107.3</ele>
        <time>2022-10-29T12:19:37Z</time>
      </trkpt>
      <trkpt lat="49.85565" lon="2.28565">
        <ele>107.3</ele>
        <time>2022-10-29T12:19:38Z</time>
      </trkpt>
      <trkpt lat="49.85563" lon="2.28565">
        <ele>107.2</ele>
        <time>2022-10-29T12:19:39Z</time>
      </trkpt>
      <trkpt lat="49.85562" lon="2.28565">
        <ele>107.2</ele>
        <time>2022-10-29T12:19:41Z</time>
      </trkpt>
      <trkpt lat="49.85562" lon="2.28564">
        <ele>107.2</ele>
        <time>2022-10-29T12:19:42Z</time>
      </trkpt>
      <trkpt lat="49.8556" lon="2.28564">
        <ele>107.2</ele>
        <time>2022-10-29T12:19:43Z</time>
      </trkpt>
      <trkpt lat="49.85559" lon="2.28563">
        <ele>107.2</ele>
        <time>2022-10-29T12:19:44Z</time>
      </trkpt>
      <trkpt lat="49.85558" lon="2.28563">
        <ele>107.2</ele>
        <time>2022-10-29T12:19:45Z</time>
      </trkpt>
      <trkpt lat="49.85557" lon="2.28563">
        <ele>107.2</ele>
        <time>2022-10-29T12:19:46Z</time>
      </trkpt>
      <trkpt lat="49.85556" lon="2.28563">
        <ele>107.2</ele>
        <time>2022-10-29T12:19:47Z</time>
      </trkpt>
      <trkpt lat="49.85555" lon="2.28563">
        <ele>107.2</ele>
        <time>2022-10-29T12:19:48Z</time>
      </trkpt>
      <trkpt lat="49.85554" lon="2.28563">
        <ele>107.2</ele>
        <time>2022-10-29T12:19:49Z</time>
      </trkpt>
      <trkpt lat="49.85553" lon="2.28562">
        <ele>107.1</ele>
        <time>2022-10-29T12:19:51Z</time>
      </trkpt>
      <trkpt lat="49.85552" lon="2.28563">
        <ele>107.1</ele>
        <time>2022-10-29T12:19:52Z</time>
      </trkpt>
      <trkpt lat="49.8555" lon="2.28563">
        <ele>107.1</ele>
        <time>2022-10-29T12:19:53Z</time>
      </trkpt>
      <trkpt lat="49.85549" lon="2.28563">
        <ele>107.1</ele>
        <time>2022-10-29T12:19:54Z</time>
      </trkpt>
      <trkpt lat="49.85548" lon="2.28563">
        <ele>107.1</ele>
        <time>2022-10-29T12:19:55Z</time>
      </trkpt>
      <trkpt lat="49.85547" lon="2.28563">
        <ele>107.1</ele>
        <time>2022-10-29T12:19:56Z</time>
      </trkpt>
      <trkpt lat="49.85546" lon="2.28563">
        <ele>107.1</ele>
        <time>2022-10-29T12:19:57Z</time>
      </trkpt>
      <trkpt lat="49.85545" lon="2.28563">
        <ele>107.1</ele>
        <time>2022-10-29T12:19:58Z</time>
      </trkpt>
      <trkpt lat="49.85543" lon="2.28562">
        <ele>107.1</ele>
        <time>2022-10-29T12:19:59Z</time>
      </trkpt>
      <trkpt lat="49.85542" lon="2.28562">
        <ele>107.1</ele>
        <time>2022-10-29T12:20:00Z</time>
      </trkpt>
      <trkpt lat="49.85542" lon="2.28562">
        <ele>107.1</ele>
        <time>2022-10-29T12:20:01Z</time>
      </trkpt>
      <trkpt lat="49.85539" lon="2.28561">
        <ele>107</ele>
        <time>2022-10-29T12:20:02Z</time>
      </trkpt>
      <trkpt lat="49.85538" lon="2.28561">
        <ele>107</ele>
        <time>2022-10-29T12:20:04Z</time>
      </trkpt>
      <trkpt lat="49.85537" lon="2.28561">
        <ele>107</ele>
        <time>2022-10-29T12:20:05Z</time>
      </trkpt>
      <trkpt lat="49.85536" lon="2.28561">
        <ele>107</ele>
        <time>2022-10-29T12:20:06Z</time>
      </trkpt>
      <trkpt lat="49.85535" lon="2.2856">
        <ele>107</ele>
        <time>2022-10-29T12:20:07Z</time>
      </trkpt>
      <trkpt lat="49.85534" lon="2.2856">
        <ele>107</ele>
        <time>2022-10-29T12:20:09Z</time>
      </trkpt>
      <trkpt lat="49.85532" lon="2.2856">
        <ele>107</ele>
        <time>2022-10-29T12:20:10Z</time>
      </trkpt>
      <trkpt lat="49.85531" lon="2.2856">
        <ele>107</ele>
        <time>2022-10-29T12:20:11Z</time>
      </trkpt>
      <trkpt lat="49.8553" lon="2.28559">
        <ele>107</ele>
        <time>2022-10-29T12:20:12Z</time>
      </trkpt>
      <trkpt lat="49.85528" lon="2.28559">
        <ele>106.9</ele>
        <time>2022-10-29T12:20:13Z</time>
      </trkpt>
      <trkpt lat="49.85527" lon="2.28559">
        <ele>106.9</ele>
        <time>2022-10-29T12:20:14Z</time>
      </trkpt>
      <trkpt lat="49.85526" lon="2.28559">
        <ele>106.9</ele>
        <time>2022-10-29T12:20:15Z</time>
      </trkpt>
      <trkpt lat="49.85525" lon="2.28559">
        <ele>106.9</ele>
        <time>2022-10-29T12:20:16Z</time>
      </trkpt>
      <trkpt lat="49.85524" lon="2.28559">
        <ele>106.9</ele>
        <time>2022-10-29T12:20:17Z</time>
      </trkpt>
      <trkpt lat="49.85523" lon="2.28559">
        <ele>106.9</ele>
        <time>2022-10-29T12:20:18Z</time>
      </trkpt>
      <trkpt lat="49.85521" lon="2.28558">
        <ele>106.9</ele>
        <time>2022-10-29T12:20:20Z</time>
      </trkpt>
      <trkpt lat="49.8552" lon="2.28558">
        <ele>106.9</ele>
        <time>2022-10-29T12:20:21Z</time>
      </trkpt>
      <trkpt lat="49.85519" lon="2.28558">
        <ele>106.9</ele>
        <time>2022-10-29T12:20:22Z</time>
      </trkpt>
      <trkpt lat="49.85517" lon="2.28557">
        <ele>106.8</ele>
        <time>2022-10-29T12:20:23Z</time>
      </trkpt>
      <trkpt lat="49.85516" lon="2.28557">
        <ele>106.8</ele>
        <time>2022-10-29T12:20:24Z</time>
      </trkpt>
      <trkpt lat="49.85515" lon="2.28557">
        <ele>106.8</ele>
        <time>2022-10-29T12:20:25Z</time>
      </trkpt>
      <trkpt lat="49.85514" lon="2.28556">
        <ele>106.8</ele>
        <time>2022-10-29T12:20:26Z</time>
      </trkpt>
      <trkpt lat="49.85513" lon="2.28556">
        <ele>106.8</ele>
        <time>2022-10-29T12:20:27Z</time>
      </trkpt>
      <trkpt lat="49.85512" lon="2.28556">
        <ele>106.8</ele>
        <time>2022-10-29T12:20:28Z</time>
      </trkpt>
      <trkpt lat="49.85511" lon="2.28556">
        <ele>106.8</ele>
        <time>2022-10-29T12:20:30Z</time>
      </trkpt>
      <trkpt lat="49.85509" lon="2.28556">
        <ele>106.8</ele>
        <time>2022-10-29T12:20:31Z</time>
      </trkpt>
      <trkpt lat="49.85509" lon="2.28556">
        <ele>106.8</ele>
        <time>2022-10-29T12:20:32Z</time>
      </trkpt>
      <trkpt lat="49.85506" lon="2.28555">
        <ele>106.8</ele>
        <time>2022-10-29T12:20:33Z</time>
      </trkpt>
      <trkpt lat="49.85505" lon="2.28555">
        <ele>106.7</ele>
        <time>2022-10-29T12:20:34Z</time>
      </trkpt>
      <trkpt lat="49.85504" lon="2.28554">
        <ele>106.7</ele>
        <time>2022-10-29T12:20:35Z</time>
      </trkpt>
      <trkpt lat="49.85504" lon="2.28554">
        <ele>106.7</ele>
        <time>2022-10-29T12:20:36Z</time>
      </trkpt>
      <trkpt lat="49.85502" lon="2.28554">
        <ele>106.7</ele>
        <time>2022-10-29T12:20:37Z</time>
      </trkpt>
      <trkpt lat="49.85501" lon="2.28553">
        <ele>106.7</ele>
        <time>2022-10-29T12:20:38Z</time>
      </trkpt>
      <trkpt lat="49.855" lon="2.28553">
        <ele>106.7</ele>
        <time>2022-10-29T12:20:40Z</time>
      </trkpt>
      <trkpt lat="49.85498" lon="2.28552">
        <ele>106.7</ele>
        <time>2022-10-29T12:20:41Z</time>
      </trkpt>
      <trkpt lat="49.85498" lon="2.28551">
        <ele>106.7</ele>
        <time>2022-10-29T12:20:42Z</time>
      </trkpt>
      <trkpt lat="49.85496" lon="2.28551">
        <ele>106.7</ele>
        <time>2022-10-29T12:20:43Z</time>
      </trkpt>
      <trkpt lat="49.85495" lon="2.2855">
        <ele>106.7</ele>
        <time>2022-10-29T12:20:45Z</time>
      </trkpt>
      <trkpt lat="49.85493" lon="2.2855">
        <ele>106.7</ele>
        <time>2022-10-29T12:20:46Z</time>
      </trkpt>
      <trkpt lat="49.85492" lon="2.2855">
        <ele>106.7</ele>
        <time>2022-10-29T12:20:47Z</time>
      </trkpt>
      <trkpt lat="49.85491" lon="2.2855">
        <ele>106.7</ele>
        <time>2022-10-29T12:20:48Z</time>
      </trkpt>
      <trkpt lat="49.8549" lon="2.28549">
        <ele>106.7</ele>
        <time>2022-10-29T12:20:49Z</time>
      </trkpt>
      <trkpt lat="49.85488" lon="2.28549">
        <ele>106.7</ele>
        <time>2022-10-29T12:20:50Z</time>
      </trkpt>
      <trkpt lat="49.85488" lon="2.28549">
        <ele>106.6</ele>
        <time>2022-10-29T12:20:51Z</time>
      </trkpt>
      <trkpt lat="49.85486" lon="2.28548">
        <ele>106.6</ele>
        <time>2022-10-29T12:20:52Z</time>
      </trkpt>
      <trkpt lat="49.85486" lon="2.28548">
        <ele>106.6</ele>
        <time>2022-10-29T12:20:53Z</time>
      </trkpt>
      <trkpt lat="49.85484" lon="2.28548">
        <ele>106.6</ele>
        <time>2022-10-29T12:20:54Z</time>
      </trkpt>
      <trkpt lat="49.85483" lon="2.28548">
        <ele>106.6</ele>
        <time>2022-10-29T12:20:55Z</time>
      </trkpt>
      <trkpt lat="49.85482" lon="2.28548">
        <ele>106.6</ele>
        <time>2022-10-29T12:20:57Z</time>
      </trkpt>
      <trkpt lat="49.8548" lon="2.28548">
        <ele>106.6</ele>
        <time>2022-10-29T12:20:58Z</time>
      </trkpt>
      <trkpt lat="49.85479" lon="2.28548">
        <ele>106.6</ele>
        <time>2022-10-29T12:20:59Z</time>
      </trkpt>
      <trkpt lat="49.85478" lon="2.28547">
        <ele>106.6</ele>
        <time>2022-10-29T12:21:00Z</time>
      </trkpt>
      <trkpt lat="49.85476" lon="2.28547">
        <ele>106.6</ele>
        <time>2022-10-29T12:21:01Z</time>
      </trkpt>
      <trkpt lat="49.85475" lon="2.28547">
        <ele>106.6</ele>
        <time>2022-10-29T12:21:02Z</time>
      </trkpt>
      <trkpt lat="49.85475" lon="2.28547">
        <ele>106.6</ele>
        <time>2022-10-29T12:21:03Z</time>
      </trkpt>
      <trkpt lat="49.85474" lon="2.28547">
        <ele>106.6</ele>
        <time>2022-10-29T12:21:04Z</time>
      </trkpt>
      <trkpt lat="49.85473" lon="2.28547">
        <ele>106.6</ele>
        <time>2022-10-29T12:21:06Z</time>
      </trkpt>
      <trkpt lat="49.85472" lon="2.28546">
        <ele>106.6</ele>
        <time>2022-10-29T12:21:07Z</time>
      </trkpt>
      <trkpt lat="49.85471" lon="2.28546">
        <ele>106.6</ele>
        <time>2022-10-29T12:21:08Z</time>
      </trkpt>
      <trkpt lat="49.8547" lon="2.28545">
        <ele>106.6</ele>
        <time>2022-10-29T12:21:09Z</time>
      </trkpt>
      <trkpt lat="49.85468" lon="2.28545">
        <ele>106.6</ele>
        <time>2022-10-29T12:21:10Z</time>
      </trkpt>
      <trkpt lat="49.85467" lon="2.28545">
        <ele>106.6</ele>
        <time>2022-10-29T12:21:11Z</time>
      </trkpt>
      <trkpt lat="49.85466" lon="2.28545">
        <ele>106.6</ele>
        <time>2022-10-29T12:21:12Z</time>
      </trkpt>
      <trkpt lat="49.85466" lon="2.28545">
        <ele>106.6</ele>
        <time>2022-10-29T12:21:14Z</time>
      </trkpt>
      <trkpt lat="49.85465" lon="2.28546">
        <ele>106.5</ele>
        <time>2022-10-29T12:21:15Z</time>
      </trkpt>
      <trkpt lat="49.85465" lon="2.28547">
        <ele>106.5</ele>
        <time>2022-10-29T12:21:16Z</time>
      </trkpt>
      <trkpt lat="49.85465" lon="2.28548">
        <ele>106.5</ele>
        <time>2022-10-29T12:21:17Z</time>
      </trkpt>
      <trkpt lat="49.85465" lon="2.28548">
        <ele>106.5</ele>
        <time>2022-10-29T12:21:18Z</time>
      </trkpt>
      <trkpt lat="49.85465" lon="2.28549">
        <ele>106.5</ele>
        <time>2022-10-29T12:21:19Z</time>
      </trkpt>
      <trkpt lat="49.85465" lon="2.28549">
        <ele>106.5</ele>
        <time>2022-10-29T12:21:20Z</time>
      </trkpt>
      <trkpt lat="49.85465" lon="2.2855">
        <ele>106.5</ele>
        <time>2022-10-29T12:21:21Z</time>
      </trkpt>
      <trkpt lat="49.85466" lon="2.2855">
        <ele>106.5</ele>
        <time>2022-10-29T12:21:22Z</time>
      </trkpt>
      <trkpt lat="49.85466" lon="2.2855">
        <ele>106.5</ele>
        <time>2022-10-29T12:21:23Z</time>
      </trkpt>
      <trkpt lat="49.85466" lon="2.2855">
        <ele>106.5</ele>
        <time>2022-10-29T12:21:24Z</time>
      </trkpt>
      <trkpt lat="49.85466" lon="2.28549">
        <ele>106.5</ele>
        <time>2022-10-29T12:21:25Z</time>
      </trkpt>
      <trkpt lat="49.85466" lon="2.28549">
        <ele>106.5</ele>
        <time>2022-10-29T12:21:26Z</time>
      </trkpt>
      <trkpt lat="49.85466" lon="2.2855">
        <ele>106.5</ele>
        <time>2022-10-29T12:21:27Z</time>
      </trkpt>
      <trkpt lat="49.85466" lon="2.28551">
        <ele>106.5</ele>
        <time>2022-10-29T12:21:29Z</time>
      </trkpt>
      <trkpt lat="49.85466" lon="2.28552">
        <ele>106.5</ele>
        <time>2022-10-29T12:21:30Z</time>
      </trkpt>
      <trkpt lat="49.85466" lon="2.28552">
        <ele>106.5</ele>
        <time>2022-10-29T12:21:31Z</time>
      </trkpt>
      <trkpt lat="49.85466" lon="2.28553">
        <ele>106.5</ele>
        <time>2022-10-29T12:21:32Z</time>
      </trkpt>
      <trkpt lat="49.85466" lon="2.28553">
        <ele>106.5</ele>
        <time>2022-10-29T12:21:33Z</time>
      </trkpt>
      <trkpt lat="49.85467" lon="2.28553">
        <ele>106.5</ele>
        <time>2022-10-29T12:21:34Z</time>
      </trkpt>
      <trkpt lat="49.85467" lon="2.28553">
        <ele>106.5</ele>
        <time>2022-10-29T12:21:35Z</time>
      </trkpt>
      <trkpt lat="49.85467" lon="2.28553">
        <ele>106.5</ele>
        <time>2022-10-29T12:21:36Z</time>
      </trkpt>
      <trkpt lat="49.85467" lon="2.28553">
        <ele>106.5</ele>
        <time>2022-10-29T12:21:37Z</time>
      </trkpt>
      <trkpt lat="49.85467" lon="2.28553">
        <ele>106.5</ele>
        <time>2022-10-29T12:21:38Z</time>
      </trkpt>
      <trkpt lat="49.85467" lon="2.28553">
        <ele>106.5</ele>
        <time>2022-10-29T12:21:39Z</time>
      </trkpt>
      <trkpt lat="49.85467" lon="2.28553">
        <ele>106.5</ele>
        <time>2022-10-29T12:21:40Z</time>
      </trkpt>
      <trkpt lat="49.85467" lon="2.28553">
        <ele>106.5</ele>
        <time>2022-10-29T12:21:41Z</time>
      </trkpt>
      <trkpt lat="49.85467" lon="2.28553">
        <ele>106.5</ele>
        <time>2022-10-29T12:21:42Z</time>
      </trkpt>
      <trkpt lat="49.85467" lon="2.28553">
        <ele>106.5</ele>
        <time>2022-10-29T12:21:43Z</time>
      </trkpt>
      <trkpt lat="49.85467" lon="2.28553">
        <ele>106.5</ele>
        <time>2022-10-29T12:21:44Z</time>
      </trkpt>
      <trkpt lat="49.85467" lon="2.28553">
        <ele>106.5</ele>
        <time>2022-10-29T12:21:45Z</time>
      </trkpt>
      <trkpt lat="49.85468" lon="2.28553">
        <ele>106.5</ele>
        <time>2022-10-29T12:21:46Z</time>
      </trkpt>
      <trkpt lat="49.85468" lon="2.28553">
        <ele>106.5</ele>
        <time>2022-10-29T12:21:47Z</time>
      </trkpt>
      <trkpt lat="49.85468" lon="2.28553">
        <ele>106.5</ele>
        <time>2022-10-29T12:21:49Z</time>
      </trkpt>
      <trkpt lat="49.85469" lon="2.28551">
        <ele>106.5</ele>
        <time>2022-10-29T12:21:50Z</time>
      </trkpt>
      <trkpt lat="49.85469" lon="2.28549">
        <ele>106.4</ele>
        <time>2022-10-29T12:21:51Z</time>
      </trkpt>
      <trkpt lat="49.85469" lon="2.28548">
        <ele>106.4</ele>
        <time>2022-10-29T12:21:52Z</time>
      </trkpt>
      <trkpt lat="49.85469" lon="2.28548">
        <ele>106.4</ele>
        <time>2022-10-29T12:21:53Z</time>
      </trkpt>
      <trkpt lat="49.85469" lon="2.28548">
        <ele>106.4</ele>
        <time>2022-10-29T12:21:54Z</time>
      </trkpt>
      <trkpt lat="49.85469" lon="2.28547">
        <ele>106.4</ele>
        <time>2022-10-29T12:21:55Z</time>
      </trkpt>
      <trkpt lat="49.85469" lon="2.28547">
        <ele>106.4</ele>
        <time>2022-10-29T12:21:56Z</time>
      </trkpt>
      <trkpt lat="49.85469" lon="2.28547">
        <ele>106.4</ele>
        <time>2022-10-29T12:21:57Z</time>
      </trkpt>
      <trkpt lat="49.85469" lon="2.28547">
        <ele>106.4</ele>
        <time>2022-10-29T12:21:58Z</time>
      </trkpt>
      <trkpt lat="49.85469" lon="2.28547">
        <ele>106.4</ele>
        <time>2022-10-29T12:21:59Z</time>
      </trkpt>
      <trkpt lat="49.85469" lon="2.28547">
        <ele>106.4</ele>
        <time>2022-10-29T12:22:00Z</time>
      </trkpt>
      <trkpt lat="49.85469" lon="2.28547">
        <ele>106.4</ele>
        <time>2022-10-29T12:22:01Z</time>
      </trkpt>
      <trkpt lat="49.85469" lon="2.28547">
        <ele>106.4</ele>
        <time>2022-10-29T12:22:02Z</time>
      </trkpt>
      <trkpt lat="49.85469" lon="2.28547">
        <ele>106.4</ele>
        <time>2022-10-29T12:22:03Z</time>
      </trkpt>
      <trkpt lat="49.85469" lon="2.28547">
        <ele>106.4</ele>
        <time>2022-10-29T12:22:04Z</time>
      </trkpt>
      <trkpt lat="49.85469" lon="2.28547">
        <ele>106.4</ele>
        <time>2022-10-29T12:22:05Z</time>
      </trkpt>
      <trkpt lat="49.85469" lon="2.28547">
        <ele>106.4</ele>
        <time>2022-10-29T12:22:06Z</time>
      </trkpt>
      <trkpt lat="49.85469" lon="2.28547">
        <ele>106.4</ele>
        <time>2022-10-29T12:22:07Z</time>
      </trkpt>
      <trkpt lat="49.85469" lon="2.28547">
        <ele>106.4</ele>
        <time>2022-10-29T12:22:08Z</time>
      </trkpt>
      <trkpt lat="49.85469" lon="2.28547">
        <ele>106.4</ele>
        <time>2022-10-29T12:22:09Z</time>
      </trkpt>
      <trkpt lat="49.85469" lon="2.28547">
        <ele>106.4</ele>
        <time>2022-10-29T12:22:10Z</time>
      </trkpt>
      <trkpt lat="49.85469" lon="2.28547">
        <ele>106.4</ele>
        <time>2022-10-29T12:22:11Z</time>
      </trkpt>
      <trkpt lat="49.85469" lon="2.28547">
        <ele>106.4</ele>
        <time>2022-10-29T12:22:12Z</time>
      </trkpt>
      <trkpt lat="49.85469" lon="2.28547">
        <ele>106.4</ele>
        <time>2022-10-29T12:22:13Z</time>
      </trkpt>
      <trkpt lat="49.85469" lon="2.28547">
        <ele>106.4</ele>
        <time>2022-10-29T12:22:14Z</time>
      </trkpt>
      <trkpt lat="49.85469" lon="2.28547">
        <ele>106.4</ele>
        <time>2022-10-29T12:22:15Z</time>
      </trkpt>
      <trkpt lat="49.85469" lon="2.28547">
        <ele>106.4</ele>
        <time>2022-10-29T12:22:16Z</time>
      </trkpt>
      <trkpt lat="49.85469" lon="2.28547">
        <ele>106.4</ele>
        <time>2022-10-29T12:22:17Z</time>
      </trkpt>
      <trkpt lat="49.85469" lon="2.28547">
        <ele>106.4</ele>
        <time>2022-10-29T12:22:18Z</time>
      </trkpt>
      <trkpt lat="49.85469" lon="2.28547">
        <ele>106.4</ele>
        <time>2022-10-29T12:22:19Z</time>
      </trkpt>
      <trkpt lat="49.85469" lon="2.28547">
        <ele>106.4</ele>
        <time>2022-10-29T12:22:20Z</time>
      </trkpt>
      <trkpt lat="49.85469" lon="2.28547">
        <ele>106.4</ele>
        <time>2022-10-29T12:22:21Z</time>
      </trkpt>
      <trkpt lat="49.85469" lon="2.28547">
        <ele>106.4</ele>
        <time>2022-10-29T12:22:22Z</time>
      </trkpt>
      <trkpt lat="49.85469" lon="2.28547">
        <ele>106.4</ele>
        <time>2022-10-29T12:22:23Z</time>
      </trkpt>
      <trkpt lat="49.85469" lon="2.28547">
        <ele>106.4</ele>
        <time>2022-10-29T12:22:24Z</time>
      </trkpt>
      <trkpt lat="49.85469" lon="2.28547">
        <ele>106.4</ele>
        <time>2022-10-29T12:22:25Z</time>
      </trkpt>
      <trkpt lat="49.85469" lon="2.28547">
        <ele>106.4</ele>
        <time>2022-10-29T12:22:26Z</time>
      </trkpt>
      <trkpt lat="49.85469" lon="2.28547">
        <ele>106.4</ele>
        <time>2022-10-29T12:22:27Z</time>
      </trkpt>
      <trkpt lat="49.85469" lon="2.28547">
        <ele>106.4</ele>
        <time>2022-10-29T12:22:28Z</time>
      </trkpt>
      <trkpt lat="49.85469" lon="2.28547">
        <ele>106.4</ele>
        <time>2022-10-29T12:22:29Z</time>
      </trkpt>
      <trkpt lat="49.85469" lon="2.28547">
        <ele>106.4</ele>
        <time>2022-10-29T12:22:30Z</time>
      </trkpt>
      <trkpt lat="49.85469" lon="2.28547">
        <ele>106.4</ele>
        <time>2022-10-29T12:22:31Z</time>
      </trkpt>
      <trkpt lat="49.85469" lon="2.28547">
        <ele>106.4</ele>
        <time>2022-10-29T12:22:32Z</time>
      </trkpt>
      <trkpt lat="49.85469" lon="2.28547">
        <ele>106.4</ele>
        <time>2022-10-29T12:22:33Z</time>
      </trkpt>
      <trkpt lat="49.85469" lon="2.28547">
        <ele>106.4</ele>
        <time>2022-10-29T12:22:34Z</time>
      </trkpt>
      <trkpt lat="49.85469" lon="2.28547">
        <ele>106.4</ele>
        <time>2022-10-29T12:22:35Z</time>
      </trkpt>
      <trkpt lat="49.85469" lon="2.28547">
        <ele>106.4</ele>
        <time>2022-10-29T12:22:36Z</time>
      </trkpt>
      <trkpt lat="49.85469" lon="2.28547">
        <ele>106.4</ele>
        <time>2022-10-29T12:22:37Z</time>
      </trkpt>
      <trkpt lat="49.85469" lon="2.28547">
        <ele>106.4</ele>
        <time>2022-10-29T12:22:38Z</time>
      </trkpt>
      <trkpt lat="49.85469" lon="2.28547">
        <ele>106.4</ele>
        <time>2022-10-29T12:22:39Z</time>
      </trkpt>
      <trkpt lat="49.85469" lon="2.28547">
        <ele>106.4</ele>
        <time>2022-10-29T12:22:40Z</time>
      </trkpt>
      <trkpt lat="49.85469" lon="2.28547">
        <ele>106.4</ele>
        <time>2022-10-29T12:22:41Z</time>
      </trkpt>
      <trkpt lat="49.85469" lon="2.28547">
        <ele>106.4</ele>
        <time>2022-10-29T12:22:42Z</time>
      </trkpt>
      <trkpt lat="49.85469" lon="2.28547">
        <ele>106.4</ele>
        <time>2022-10-29T12:22:43Z</time>
      </trkpt>
      <trkpt lat="49.85469" lon="2.28547">
        <ele>106.4</ele>
        <time>2022-10-29T12:22:44Z</time>
      </trkpt>
      <trkpt lat="49.85469" lon="2.28547">
        <ele>106.4</ele>
        <time>2022-10-29T12:22:45Z</time>
      </trkpt>
      <trkpt lat="49.85469" lon="2.28547">
        <ele>106.4</ele>
        <time>2022-10-29T12:22:46Z</time>
      </trkpt>
      <trkpt lat="49.85469" lon="2.28547">
        <ele>106.4</ele>
        <time>2022-10-29T12:22:47Z</time>
      </trkpt>
      <trkpt lat="49.85469" lon="2.28547">
        <ele>106.4</ele>
        <time>2022-10-29T12:22:48Z</time>
      </trkpt>
      <trkpt lat="49.85469" lon="2.28547">
        <ele>106.4</ele>
        <time>2022-10-29T12:22:49Z</time>
      </trkpt>
      <trkpt lat="49.85469" lon="2.28547">
        <ele>106.4</ele>
        <time>2022-10-29T12:22:50Z</time>
      </trkpt>
      <trkpt lat="49.85469" lon="2.28547">
        <ele>106.4</ele>
        <time>2022-10-29T12:22:51Z</time>
      </trkpt>
      <trkpt lat="49.85469" lon="2.28547">
        <ele>106.4</ele>
        <time>2022-10-29T12:22:52Z</time>
      </trkpt>
      <trkpt lat="49.85469" lon="2.28547">
        <ele>106.4</ele>
        <time>2022-10-29T12:22:53Z</time>
      </trkpt>
      <trkpt lat="49.85469" lon="2.28547">
        <ele>106.4</ele>
        <time>2022-10-29T12:22:54Z</time>
      </trkpt>
      <trkpt lat="49.85469" lon="2.28547">
        <ele>106.4</ele>
        <time>2022-10-29T12:22:55Z</time>
      </trkpt>
      <trkpt lat="49.8547" lon="2.28546">
        <ele>106.4</ele>
        <time>2022-10-29T12:22:56Z</time>
      </trkpt>
      <trkpt lat="49.8547" lon="2.28544">
        <ele>106.4</ele>
        <time>2022-10-29T12:22:57Z</time>
      </trkpt>
      <trkpt lat="49.8547" lon="2.28544">
        <ele>106.4</ele>
        <time>2022-10-29T12:22:58Z</time>
      </trkpt>
      <trkpt lat="49.8547" lon="2.28544">
        <ele>106.4</ele>
        <time>2022-10-29T12:22:59Z</time>
      </trkpt>
      <trkpt lat="49.8547" lon="2.28544">
        <ele>106.4</ele>
        <time>2022-10-29T12:23:00Z</time>
      </trkpt>
      <trkpt lat="49.8547" lon="2.28544">
        <ele>106.4</ele>
        <time>2022-10-29T12:23:01Z</time>
      </trkpt>
      <trkpt lat="49.8547" lon="2.28544">
        <ele>106.4</ele>
        <time>2022-10-29T12:23:02Z</time>
      </trkpt>
      <trkpt lat="49.8547" lon="2.28544">
        <ele>106.4</ele>
        <time>2022-10-29T12:23:03Z</time>
      </trkpt>
      <trkpt lat="49.8547" lon="2.28544">
        <ele>106.4</ele>
        <time>2022-10-29T12:23:04Z</time>
      </trkpt>
      <trkpt lat="49.8547" lon="2.28544">
        <ele>106.4</ele>
        <time>2022-10-29T12:23:05Z</time>
      </trkpt>
      <trkpt lat="49.8547" lon="2.28544">
        <ele>106.4</ele>
        <time>2022-10-29T12:23:06Z</time>
      </trkpt>
      <trkpt lat="49.8547" lon="2.28544">
        <ele>106.4</ele>
        <time>2022-10-29T12:23:07Z</time>
      </trkpt>
      <trkpt lat="49.8547" lon="2.28544">
        <ele>106.4</ele>
        <time>2022-10-29T12:23:08Z</time>
      </trkpt>
      <trkpt lat="49.8547" lon="2.28544">
        <ele>106.4</ele>
        <time>2022-10-29T12:23:09Z</time>
      </trkpt>
      <trkpt lat="49.8547" lon="2.28544">
        <ele>106.4</ele>
        <time>2022-10-29T12:23:10Z</time>
      </trkpt>
      <trkpt lat="49.8547" lon="2.28544">
        <ele>106.4</ele>
        <time>2022-10-29T12:23:11Z</time>
      </trkpt>
      <trkpt lat="49.8547" lon="2.28544">
        <ele>106.4</ele>
        <time>2022-10-29T12:23:12Z</time>
      </trkpt>
      <trkpt lat="49.8547" lon="2.28544">
        <ele>106.4</ele>
        <time>2022-10-29T12:23:13Z</time>
      </trkpt>
      <trkpt lat="49.8547" lon="2.28544">
        <ele>106.4</ele>
        <time>2022-10-29T12:23:14Z</time>
      </trkpt>
      <trkpt lat="49.8547" lon="2.28544">
        <ele>106.4</ele>
        <time>2022-10-29T12:23:15Z</time>
      </trkpt>
      <trkpt lat="49.8547" lon="2.28544">
        <ele>106.4</ele>
        <time>2022-10-29T12:23:16Z</time>
      </trkpt>
      <trkpt lat="49.8547" lon="2.28544">
        <ele>106.4</ele>
        <time>2022-10-29T12:23:17Z</time>
      </trkpt>
      <trkpt lat="49.8547" lon="2.28544">
        <ele>106.4</ele>
        <time>2022-10-29T12:23:18Z</time>
      </trkpt>
      <trkpt lat="49.8547" lon="2.28544">
        <ele>106.4</ele>
        <time>2022-10-29T12:23:19Z</time>
      </trkpt>
      <trkpt lat="49.8547" lon="2.28544">
        <ele>106.4</ele>
        <time>2022-10-29T12:23:20Z</time>
      </trkpt>
      <trkpt lat="49.8547" lon="2.28544">
        <ele>106.4</ele>
        <time>2022-10-29T12:23:21Z</time>
      </trkpt>
      <trkpt lat="49.8547" lon="2.28544">
        <ele>106.4</ele>
        <time>2022-10-29T12:23:22Z</time>
      </trkpt>
      <trkpt lat="49.8547" lon="2.28544">
        <ele>106.4</ele>
        <time>2022-10-29T12:23:23Z</time>
      </trkpt>
      <trkpt lat="49.8547" lon="2.28544">
        <ele>106.4</ele>
        <time>2022-10-29T12:23:24Z</time>
      </trkpt>
      <trkpt lat="49.8547" lon="2.28544">
        <ele>106.4</ele>
        <time>2022-10-29T12:23:25Z</time>
      </trkpt>
      <trkpt lat="49.8547" lon="2.28544">
        <ele>106.4</ele>
        <time>2022-10-29T12:23:26Z</time>
      </trkpt>
      <trkpt lat="49.8547" lon="2.28544">
        <ele>106.4</ele>
        <time>2022-10-29T12:23:27Z</time>
      </trkpt>
      <trkpt lat="49.8547" lon="2.28544">
        <ele>106.4</ele>
        <time>2022-10-29T12:23:28Z</time>
      </trkpt>
      <trkpt lat="49.8547" lon="2.28544">
        <ele>106.4</ele>
        <time>2022-10-29T12:23:29Z</time>
      </trkpt>
      <trkpt lat="49.8547" lon="2.28544">
        <ele>106.4</ele>
        <time>2022-10-29T12:23:30Z</time>
      </trkpt>
      <trkpt lat="49.8547" lon="2.28544">
        <ele>106.4</ele>
        <time>2022-10-29T12:23:31Z</time>
      </trkpt>
      <trkpt lat="49.8547" lon="2.28544">
        <ele>106.4</ele>
        <time>2022-10-29T12:23:32Z</time>
      </trkpt>
      <trkpt lat="49.8547" lon="2.28544">
        <ele>106.4</ele>
        <time>2022-10-29T12:23:33Z</time>
      </trkpt>
      <trkpt lat="49.8547" lon="2.28544">
        <ele>106.4</ele>
        <time>2022-10-29T12:23:34Z</time>
      </trkpt>
      <trkpt lat="49.8547" lon="2.28544">
        <ele>106.4</ele>
        <time>2022-10-29T12:23:35Z</time>
      </trkpt>
      <trkpt lat="49.8547" lon="2.28544">
        <ele>106.4</ele>
        <time>2022-10-29T12:23:36Z</time>
      </trkpt>
      <trkpt lat="49.8547" lon="2.28544">
        <ele>106.4</ele>
        <time>2022-10-29T12:23:37Z</time>
      </trkpt>
      <trkpt lat="49.8547" lon="2.28544">
        <ele>106.4</ele>
        <time>2022-10-29T12:23:38Z</time>
      </trkpt>
      <trkpt lat="49.8547" lon="2.28544">
        <ele>106.4</ele>
        <time>2022-10-29T12:23:39Z</time>
      </trkpt>
      <trkpt lat="49.8547" lon="2.28544">
        <ele>106.4</ele>
        <time>2022-10-29T12:23:40Z</time>
      </trkpt>
      <trkpt lat="49.8547" lon="2.28544">
        <ele>106.4</ele>
        <time>2022-10-29T12:23:41Z</time>
      </trkpt>
      <trkpt lat="49.8547" lon="2.28544">
        <ele>106.4</ele>
        <time>2022-10-29T12:23:42Z</time>
      </trkpt>
      <trkpt lat="49.8547" lon="2.28544">
        <ele>106.4</ele>
        <time>2022-10-29T12:23:43Z</time>
      </trkpt>
      <trkpt lat="49.8547" lon="2.28544">
        <ele>106.4</ele>
        <time>2022-10-29T12:23:44Z</time>
      </trkpt>
      <trkpt lat="49.8547" lon="2.28544">
        <ele>106.4</ele>
        <time>2022-10-29T12:23:45Z</time>
      </trkpt>
      <trkpt lat="49.8547" lon="2.28544">
        <ele>106.4</ele>
        <time>2022-10-29T12:23:46Z</time>
      </trkpt>
      <trkpt lat="49.8547" lon="2.28544">
        <ele>106.4</ele>
        <time>2022-10-29T12:23:47Z</time>
      </trkpt>
      <trkpt lat="49.8547" lon="2.28544">
        <ele>106.4</ele>
        <time>2022-10-29T12:23:48Z</time>
      </trkpt>
      <trkpt lat="49.8547" lon="2.28544">
        <ele>106.4</ele>
        <time>2022-10-29T12:23:49Z</time>
      </trkpt>
      <trkpt lat="49.8547" lon="2.28544">
        <ele>106.4</ele>
        <time>2022-10-29T12:23:50Z</time>
      </trkpt>
      <trkpt lat="49.8547" lon="2.28544">
        <ele>106.4</ele>
        <time>2022-10-29T12:23:51Z</time>
      </trkpt>
      <trkpt lat="49.8547" lon="2.28544">
        <ele>106.4</ele>
        <time>2022-10-29T12:23:52Z</time>
      </trkpt>
      <trkpt lat="49.8547" lon="2.28544">
        <ele>106.4</ele>
        <time>2022-10-29T12:23:53Z</time>
      </trkpt>
      <trkpt lat="49.8547" lon="2.28544">
        <ele>106.4</ele>
        <time>2022-10-29T12:23:54Z</time>
      </trkpt>
      <trkpt lat="49.8547" lon="2.28544">
        <ele>106.4</ele>
        <time>2022-10-29T12:23:55Z</time>
      </trkpt>
      <trkpt lat="49.8547" lon="2.28544">
        <ele>106.4</ele>
        <time>2022-10-29T12:23:56Z</time>
      </trkpt>
      <trkpt lat="49.8547" lon="2.28544">
        <ele>106.4</ele>
        <time>2022-10-29T12:23:57Z</time>
      </trkpt>
      <trkpt lat="49.8547" lon="2.28544">
        <ele>106.4</ele>
        <time>2022-10-29T12:23:58Z</time>
      </trkpt>
      <trkpt lat="49.8547" lon="2.28544">
        <ele>106.4</ele>
        <time>2022-10-29T12:23:59Z</time>
      </trkpt>
      <trkpt lat="49.8547" lon="2.28544">
        <ele>106.4</ele>
        <time>2022-10-29T12:24:00Z</time>
      </trkpt>
      <trkpt lat="49.8547" lon="2.28544">
        <ele>106.4</ele>
        <time>2022-10-29T12:24:01Z</time>
      </trkpt>
      <trkpt lat="49.8547" lon="2.28544">
        <ele>106.4</ele>
        <time>2022-10-29T12:24:02Z</time>
      </trkpt>
      <trkpt lat="49.8547" lon="2.28544">
        <ele>106.4</ele>
        <time>2022-10-29T12:24:03Z</time>
      </trkpt>
      <trkpt lat="49.8547" lon="2.28544">
        <ele>106.4</ele>
        <time>2022-10-29T12:24:04Z</time>
      </trkpt>
      <trkpt lat="49.8547" lon="2.28544">
        <ele>106.4</ele>
        <time>2022-10-29T12:24:05Z</time>
      </trkpt>
      <trkpt lat="49.8547" lon="2.28544">
        <ele>106.4</ele>
        <time>2022-10-29T12:24:06Z</time>
      </trkpt>
      <trkpt lat="49.8547" lon="2.28544">
        <ele>106.4</ele>
        <time>2022-10-29T12:24:07Z</time>
      </trkpt>
      <trkpt lat="49.8547" lon="2.28544">
        <ele>106.4</ele>
        <time>2022-10-29T12:24:08Z</time>
      </trkpt>
      <trkpt lat="49.8547" lon="2.28544">
        <ele>106.4</ele>
        <time>2022-10-29T12:24:09Z</time>
      </trkpt>
      <trkpt lat="49.8547" lon="2.28544">
        <ele>106.4</ele>
        <time>2022-10-29T12:24:10Z</time>
      </trkpt>
      <trkpt lat="49.8547" lon="2.28544">
        <ele>106.4</ele>
        <time>2022-10-29T12:24:11Z</time>
      </trkpt>
      <trkpt lat="49.8547" lon="2.28544">
        <ele>106.4</ele>
        <time>2022-10-29T12:24:12Z</time>
      </trkpt>
      <trkpt lat="49.8547" lon="2.28544">
        <ele>106.4</ele>
        <time>2022-10-29T12:24:13Z</time>
      </trkpt>
      <trkpt lat="49.8547" lon="2.28544">
        <ele>106.4</ele>
        <time>2022-10-29T12:24:14Z</time>
      </trkpt>
      <trkpt lat="49.8547" lon="2.28544">
        <ele>106.4</ele>
        <time>2022-10-29T12:24:15Z</time>
      </trkpt>
      <trkpt lat="49.8547" lon="2.28544">
        <ele>106.4</ele>
        <time>2022-10-29T12:24:16Z</time>
      </trkpt>
      <trkpt lat="49.8547" lon="2.28544">
        <ele>106.4</ele>
        <time>2022-10-29T12:24:17Z</time>
      </trkpt>
      <trkpt lat="49.8547" lon="2.28544">
        <ele>106.4</ele>
        <time>2022-10-29T12:24:18Z</time>
      </trkpt>
      <trkpt lat="49.8547" lon="2.28544">
        <ele>106.4</ele>
        <time>2022-10-29T12:24:19Z</time>
      </trkpt>
      <trkpt lat="49.8547" lon="2.28544">
        <ele>106.4</ele>
        <time>2022-10-29T12:24:20Z</time>
      </trkpt>
      <trkpt lat="49.8547" lon="2.28544">
        <ele>106.4</ele>
        <time>2022-10-29T12:24:21Z</time>
      </trkpt>
      <trkpt lat="49.85469" lon="2.28544">
        <ele>106.4</ele>
        <time>2022-10-29T12:24:22Z</time>
      </trkpt>
      <trkpt lat="49.85468" lon="2.28543">
        <ele>106.4</ele>
        <time>2022-10-29T12:24:23Z</time>
      </trkpt>
      <trkpt lat="49.85467" lon="2.28543">
        <ele>106.4</ele>
        <time>2022-10-29T12:24:24Z</time>
      </trkpt>
      <trkpt lat="49.85466" lon="2.28543">
        <ele>106.4</ele>
        <time>2022-10-29T12:24:25Z</time>
      </trkpt>
      <trkpt lat="49.85465" lon="2.28543">
        <ele>106.4</ele>
        <time>2022-10-29T12:24:26Z</time>
      </trkpt>
      <trkpt lat="49.85464" lon="2.28543">
        <ele>106.4</ele>
        <time>2022-10-29T12:24:27Z</time>
      </trkpt>
      <trkpt lat="49.85463" lon="2.28543">
        <ele>106.3</ele>
        <time>2022-10-29T12:24:28Z</time>
      </trkpt>
      <trkpt lat="49.85462" lon="2.28543">
        <ele>106.3</ele>
        <time>2022-10-29T12:24:29Z</time>
      </trkpt>
      <trkpt lat="49.85461" lon="2.28542">
        <ele>106.3</ele>
        <time>2022-10-29T12:24:30Z</time>
      </trkpt>
      <trkpt lat="49.85461" lon="2.28542">
        <ele>106.3</ele>
        <time>2022-10-29T12:24:31Z</time>
      </trkpt>
      <trkpt lat="49.85459" lon="2.28541">
        <ele>106.3</ele>
        <time>2022-10-29T12:24:32Z</time>
      </trkpt>
      <trkpt lat="49.85459" lon="2.28541">
        <ele>106.3</ele>
        <time>2022-10-29T12:24:33Z</time>
      </trkpt>
      <trkpt lat="49.85458" lon="2.28541">
        <ele>106.3</ele>
        <time>2022-10-29T12:24:34Z</time>
      </trkpt>
      <trkpt lat="49.85457" lon="2.2854">
        <ele>106.3</ele>
        <time>2022-10-29T12:24:35Z</time>
      </trkpt>
      <trkpt lat="49.85456" lon="2.2854">
        <ele>106.3</ele>
        <time>2022-10-29T12:24:36Z</time>
      </trkpt>
      <trkpt lat="49.85455" lon="2.28539">
        <ele>106.3</ele>
        <time>2022-10-29T12:24:37Z</time>
      </trkpt>
      <trkpt lat="49.85453" lon="2.28539">
        <ele>106.3</ele>
        <time>2022-10-29T12:24:38Z</time>
      </trkpt>
      <trkpt lat="49.85452" lon="2.28539">
        <ele>106.3</ele>
        <time>2022-10-29T12:24:39Z</time>
      </trkpt>
      <trkpt lat="49.8545" lon="2.28538">
        <ele>106.2</ele>
        <time>2022-10-29T12:24:40Z</time>
      </trkpt>
      <trkpt lat="49.85449" lon="2.28537">
        <ele>106.2</ele>
        <time>2022-10-29T12:24:41Z</time>
      </trkpt>
      <trkpt lat="49.85447" lon="2.28537">
        <ele>106.2</ele>
        <time>2022-10-29T12:24:42Z</time>
      </trkpt>
      <trkpt lat="49.85444" lon="2.28536">
        <ele>106.2</ele>
        <time>2022-10-29T12:24:44Z</time>
      </trkpt>
      <trkpt lat="49.85442" lon="2.28535">
        <ele>106.2</ele>
        <time>2022-10-29T12:24:45Z</time>
      </trkpt>
      <trkpt lat="49.85441" lon="2.28535">
        <ele>106.2</ele>
        <time>2022-10-29T12:24:46Z</time>
      </trkpt>
      <trkpt lat="49.8544" lon="2.28534">
        <ele>106.2</ele>
        <time>2022-10-29T12:24:47Z</time>
      </trkpt>
      <trkpt lat="49.85438" lon="2.28533">
        <ele>106.2</ele>
        <time>2022-10-29T12:24:49Z</time>
      </trkpt>
      <trkpt lat="49.85437" lon="2.28533">
        <ele>106.2</ele>
        <time>2022-10-29T12:24:50Z</time>
      </trkpt>
      <trkpt lat="49.85436" lon="2.28532">
        <ele>106.2</ele>
        <time>2022-10-29T12:24:51Z</time>
      </trkpt>
      <trkpt lat="49.85434" lon="2.28531">
        <ele>106.2</ele>
        <time>2022-10-29T12:24:52Z</time>
      </trkpt>
      <trkpt lat="49.85433" lon="2.28531">
        <ele>106.1</ele>
        <time>2022-10-29T12:24:53Z</time>
      </trkpt>
      <trkpt lat="49.85432" lon="2.2853">
        <ele>106.1</ele>
        <time>2022-10-29T12:24:55Z</time>
      </trkpt>
      <trkpt lat="49.85431" lon="2.2853">
        <ele>106.1</ele>
        <time>2022-10-29T12:24:56Z</time>
      </trkpt>
      <trkpt lat="49.8543" lon="2.28529">
        <ele>106.1</ele>
        <time>2022-10-29T12:24:57Z</time>
      </trkpt>
      <trkpt lat="49.85429" lon="2.28528">
        <ele>106.1</ele>
        <time>2022-10-29T12:24:58Z</time>
      </trkpt>
      <trkpt lat="49.85428" lon="2.28528">
        <ele>106.1</ele>
        <time>2022-10-29T12:24:59Z</time>
      </trkpt>
      <trkpt lat="49.85426" lon="2.28527">
        <ele>106.1</ele>
        <time>2022-10-29T12:25:00Z</time>
      </trkpt>
      <trkpt lat="49.85425" lon="2.28527">
        <ele>106.1</ele>
        <time>2022-10-29T12:25:01Z</time>
      </trkpt>
      <trkpt lat="49.85424" lon="2.28526">
        <ele>106.1</ele>
        <time>2022-10-29T12:25:02Z</time>
      </trkpt>
      <trkpt lat="49.85422" lon="2.28526">
        <ele>106.1</ele>
        <time>2022-10-29T12:25:04Z</time>
      </trkpt>
      <trkpt lat="49.85422" lon="2.28525">
        <ele>106.1</ele>
        <time>2022-10-29T12:25:05Z</time>
      </trkpt>
      <trkpt lat="49.85421" lon="2.28524">
        <ele>106.1</ele>
        <time>2022-10-29T12:25:06Z</time>
      </trkpt>
      <trkpt lat="49.85419" lon="2.28522">
        <ele>106.1</ele>
        <time>2022-10-29T12:25:07Z</time>
      </trkpt>
      <trkpt lat="49.85419" lon="2.28522">
        <ele>106</ele>
        <time>2022-10-29T12:25:08Z</time>
      </trkpt>
      <trkpt lat="49.85418" lon="2.28521">
        <ele>106</ele>
        <time>2022-10-29T12:25:09Z</time>
      </trkpt>
      <trkpt lat="49.85417" lon="2.2852">
        <ele>106</ele>
        <time>2022-10-29T12:25:10Z</time>
      </trkpt>
      <trkpt lat="49.85416" lon="2.2852">
        <ele>106</ele>
        <time>2022-10-29T12:25:12Z</time>
      </trkpt>
      <trkpt lat="49.85415" lon="2.28519">
        <ele>106</ele>
        <time>2022-10-29T12:25:13Z</time>
      </trkpt>
      <trkpt lat="49.85414" lon="2.28518">
        <ele>106</ele>
        <time>2022-10-29T12:25:14Z</time>
      </trkpt>
      <trkpt lat="49.85413" lon="2.28517">
        <ele>106</ele>
        <time>2022-10-29T12:25:15Z</time>
      </trkpt>
      <trkpt lat="49.85412" lon="2.28517">
        <ele>106</ele>
        <time>2022-10-29T12:25:16Z</time>
      </trkpt>
      <trkpt lat="49.85411" lon="2.28516">
        <ele>106</ele>
        <time>2022-10-29T12:25:17Z</time>
      </trkpt>
      <trkpt lat="49.85409" lon="2.28515">
        <ele>106</ele>
        <time>2022-10-29T12:25:18Z</time>
      </trkpt>
      <trkpt lat="49.85408" lon="2.28515">
        <ele>106</ele>
        <time>2022-10-29T12:25:20Z</time>
      </trkpt>
      <trkpt lat="49.85407" lon="2.28514">
        <ele>106</ele>
        <time>2022-10-29T12:25:21Z</time>
      </trkpt>
      <trkpt lat="49.85407" lon="2.28514">
        <ele>106</ele>
        <time>2022-10-29T12:25:22Z</time>
      </trkpt>
      <trkpt lat="49.85406" lon="2.28514">
        <ele>105.9</ele>
        <time>2022-10-29T12:25:23Z</time>
      </trkpt>
      <trkpt lat="49.85404" lon="2.28513">
        <ele>105.9</ele>
        <time>2022-10-29T12:25:24Z</time>
      </trkpt>
      <trkpt lat="49.85403" lon="2.28513">
        <ele>105.9</ele>
        <time>2022-10-29T12:25:25Z</time>
      </trkpt>
      <trkpt lat="49.85402" lon="2.28512">
        <ele>105.9</ele>
        <time>2022-10-29T12:25:26Z</time>
      </trkpt>
      <trkpt lat="49.85401" lon="2.28512">
        <ele>105.9</ele>
        <time>2022-10-29T12:25:27Z</time>
      </trkpt>
      <trkpt lat="49.854" lon="2.28511">
        <ele>105.9</ele>
        <time>2022-10-29T12:25:28Z</time>
      </trkpt>
      <trkpt lat="49.85398" lon="2.28511">
        <ele>105.9</ele>
        <time>2022-10-29T12:25:30Z</time>
      </trkpt>
      <trkpt lat="49.85397" lon="2.28511">
        <ele>105.9</ele>
        <time>2022-10-29T12:25:31Z</time>
      </trkpt>
      <trkpt lat="49.85396" lon="2.28512">
        <ele>105.9</ele>
        <time>2022-10-29T12:25:32Z</time>
      </trkpt>
      <trkpt lat="49.85396" lon="2.28512">
        <ele>105.9</ele>
        <time>2022-10-29T12:25:33Z</time>
      </trkpt>
      <trkpt lat="49.85393" lon="2.28511">
        <ele>105.9</ele>
        <time>2022-10-29T12:25:34Z</time>
      </trkpt>
      <trkpt lat="49.85393" lon="2.28511">
        <ele>105.9</ele>
        <time>2022-10-29T12:25:35Z</time>
      </trkpt>
      <trkpt lat="49.85392" lon="2.2851">
        <ele>105.9</ele>
        <time>2022-10-29T12:25:36Z</time>
      </trkpt>
      <trkpt lat="49.85391" lon="2.2851">
        <ele>105.9</ele>
        <time>2022-10-29T12:25:37Z</time>
      </trkpt>
      <trkpt lat="49.85389" lon="2.28508">
        <ele>105.9</ele>
        <time>2022-10-29T12:25:38Z</time>
      </trkpt>
      <trkpt lat="49.85389" lon="2.28508">
        <ele>105.9</ele>
        <time>2022-10-29T12:25:40Z</time>
      </trkpt>
      <trkpt lat="49.85388" lon="2.28507">
        <ele>105.9</ele>
        <time>2022-10-29T12:25:41Z</time>
      </trkpt>
      <trkpt lat="49.85387" lon="2.28506">
        <ele>105.8</ele>
        <time>2022-10-29T12:25:42Z</time>
      </trkpt>
      <trkpt lat="49.85386" lon="2.28504">
        <ele>105.8</ele>
        <time>2022-10-29T12:25:43Z</time>
      </trkpt>
      <trkpt lat="49.85384" lon="2.28503">
        <ele>105.8</ele>
        <time>2022-10-29T12:25:44Z</time>
      </trkpt>
      <trkpt lat="49.85382" lon="2.28502">
        <ele>105.8</ele>
        <time>2022-10-29T12:25:45Z</time>
      </trkpt>
      <trkpt lat="49.85382" lon="2.28501">
        <ele>105.8</ele>
        <time>2022-10-29T12:25:46Z</time>
      </trkpt>
      <trkpt lat="49.85381" lon="2.28501">
        <ele>105.8</ele>
        <time>2022-10-29T12:25:47Z</time>
      </trkpt>
      <trkpt lat="49.85379" lon="2.285">
        <ele>105.8</ele>
        <time>2022-10-29T12:25:48Z</time>
      </trkpt>
      <trkpt lat="49.85378" lon="2.28499">
        <ele>105.8</ele>
        <time>2022-10-29T12:25:49Z</time>
      </trkpt>
      <trkpt lat="49.85377" lon="2.28499">
        <ele>105.8</ele>
        <time>2022-10-29T12:25:51Z</time>
      </trkpt>
      <trkpt lat="49.85376" lon="2.28498">
        <ele>105.8</ele>
        <time>2022-10-29T12:25:52Z</time>
      </trkpt>
      <trkpt lat="49.85375" lon="2.28498">
        <ele>105.8</ele>
        <time>2022-10-29T12:25:53Z</time>
      </trkpt>
      <trkpt lat="49.85374" lon="2.28497">
        <ele>105.8</ele>
        <time>2022-10-29T12:25:54Z</time>
      </trkpt>
      <trkpt lat="49.85372" lon="2.28496">
        <ele>105.8</ele>
        <time>2022-10-29T12:25:55Z</time>
      </trkpt>
      <trkpt lat="49.85371" lon="2.28496">
        <ele>105.7</ele>
        <time>2022-10-29T12:25:56Z</time>
      </trkpt>
      <trkpt lat="49.8537" lon="2.28496">
        <ele>105.7</ele>
        <time>2022-10-29T12:25:57Z</time>
      </trkpt>
      <trkpt lat="49.85369" lon="2.28495">
        <ele>105.7</ele>
        <time>2022-10-29T12:25:58Z</time>
      </trkpt>
      <trkpt lat="49.85368" lon="2.28494">
        <ele>105.7</ele>
        <time>2022-10-29T12:25:59Z</time>
      </trkpt>
      <trkpt lat="49.85367" lon="2.28494">
        <ele>105.7</ele>
        <time>2022-10-29T12:26:01Z</time>
      </trkpt>
      <trkpt lat="49.85366" lon="2.28493">
        <ele>105.7</ele>
        <time>2022-10-29T12:26:02Z</time>
      </trkpt>
      <trkpt lat="49.85365" lon="2.28493">
        <ele>105.7</ele>
        <time>2022-10-29T12:26:03Z</time>
      </trkpt>
      <trkpt lat="49.85364" lon="2.28493">
        <ele>105.7</ele>
        <time>2022-10-29T12:26:04Z</time>
      </trkpt>
      <trkpt lat="49.85363" lon="2.28493">
        <ele>105.7</ele>
        <time>2022-10-29T12:26:05Z</time>
      </trkpt>
      <trkpt lat="49.85362" lon="2.28492">
        <ele>105.7</ele>
        <time>2022-10-29T12:26:06Z</time>
      </trkpt>
      <trkpt lat="49.8536" lon="2.28491">
        <ele>105.7</ele>
        <time>2022-10-29T12:26:07Z</time>
      </trkpt>
      <trkpt lat="49.85359" lon="2.28491">
        <ele>105.7</ele>
        <time>2022-10-29T12:26:08Z</time>
      </trkpt>
      <trkpt lat="49.85358" lon="2.2849">
        <ele>105.7</ele>
        <time>2022-10-29T12:26:09Z</time>
      </trkpt>
      <trkpt lat="49.85358" lon="2.2849">
        <ele>105.7</ele>
        <time>2022-10-29T12:26:11Z</time>
      </trkpt>
      <trkpt lat="49.85357" lon="2.28489">
        <ele>105.7</ele>
        <time>2022-10-29T12:26:12Z</time>
      </trkpt>
      <trkpt lat="49.85356" lon="2.28488">
        <ele>105.6</ele>
        <time>2022-10-29T12:26:13Z</time>
      </trkpt>
      <trkpt lat="49.85354" lon="2.28486">
        <ele>105.6</ele>
        <time>2022-10-29T12:26:14Z</time>
      </trkpt>
      <trkpt lat="49.85353" lon="2.28486">
        <ele>105.6</ele>
        <time>2022-10-29T12:26:15Z</time>
      </trkpt>
      <trkpt lat="49.85353" lon="2.28486">
        <ele>105.6</ele>
        <time>2022-10-29T12:26:16Z</time>
      </trkpt>
      <trkpt lat="49.85352" lon="2.28485">
        <ele>105.6</ele>
        <time>2022-10-29T12:26:17Z</time>
      </trkpt>
      <trkpt lat="49.8535" lon="2.28484">
        <ele>105.6</ele>
        <time>2022-10-29T12:26:18Z</time>
      </trkpt>
      <trkpt lat="49.85349" lon="2.28483">
        <ele>105.6</ele>
        <time>2022-10-29T12:26:20Z</time>
      </trkpt>
      <trkpt lat="49.85348" lon="2.28483">
        <ele>105.6</ele>
        <time>2022-10-29T12:26:21Z</time>
      </trkpt>
      <trkpt lat="49.85347" lon="2.28483">
        <ele>105.6</ele>
        <time>2022-10-29T12:26:22Z</time>
      </trkpt>
      <trkpt lat="49.85346" lon="2.28482">
        <ele>105.6</ele>
        <time>2022-10-29T12:26:23Z</time>
      </trkpt>
      <trkpt lat="49.85344" lon="2.2848">
        <ele>105.6</ele>
        <time>2022-10-29T12:26:24Z</time>
      </trkpt>
      <trkpt lat="49.85344" lon="2.2848">
        <ele>105.6</ele>
        <time>2022-10-29T12:26:25Z</time>
      </trkpt>
      <trkpt lat="49.85343" lon="2.28479">
        <ele>105.6</ele>
        <time>2022-10-29T12:26:26Z</time>
      </trkpt>
      <trkpt lat="49.85342" lon="2.28478">
        <ele>105.6</ele>
        <time>2022-10-29T12:26:28Z</time>
      </trkpt>
      <trkpt lat="49.8534" lon="2.28478">
        <ele>105.6</ele>
        <time>2022-10-29T12:26:29Z</time>
      </trkpt>
      <trkpt lat="49.85339" lon="2.28476">
        <ele>105.6</ele>
        <time>2022-10-29T12:26:30Z</time>
      </trkpt>
      <trkpt lat="49.85338" lon="2.28476">
        <ele>105.6</ele>
        <time>2022-10-29T12:26:31Z</time>
      </trkpt>
      <trkpt lat="49.85337" lon="2.28475">
        <ele>105.6</ele>
        <time>2022-10-29T12:26:32Z</time>
      </trkpt>
      <trkpt lat="49.85336" lon="2.28475">
        <ele>105.6</ele>
        <time>2022-10-29T12:26:33Z</time>
      </trkpt>
      <trkpt lat="49.85334" lon="2.28474">
        <ele>105.6</ele>
        <time>2022-10-29T12:26:34Z</time>
      </trkpt>
      <trkpt lat="49.85333" lon="2.28474">
        <ele>105.6</ele>
        <time>2022-10-29T12:26:35Z</time>
      </trkpt>
      <trkpt lat="49.85332" lon="2.28474">
        <ele>105.6</ele>
        <time>2022-10-29T12:26:37Z</time>
      </trkpt>
      <trkpt lat="49.85331" lon="2.28474">
        <ele>105.6</ele>
        <time>2022-10-29T12:26:38Z</time>
      </trkpt>
      <trkpt lat="49.85329" lon="2.28476">
        <ele>105.6</ele>
        <time>2022-10-29T12:26:40Z</time>
      </trkpt>
      <trkpt lat="49.85329" lon="2.28477">
        <ele>105.6</ele>
        <time>2022-10-29T12:26:41Z</time>
      </trkpt>
      <trkpt lat="49.85329" lon="2.2848">
        <ele>105.6</ele>
        <time>2022-10-29T12:26:42Z</time>
      </trkpt>
      <trkpt lat="49.85329" lon="2.28482">
        <ele>105.6</ele>
        <time>2022-10-29T12:26:44Z</time>
      </trkpt>
      <trkpt lat="49.85329" lon="2.28483">
        <ele>105.6</ele>
        <time>2022-10-29T12:26:45Z</time>
      </trkpt>
      <trkpt lat="49.85328" lon="2.28483">
        <ele>105.6</ele>
        <time>2022-10-29T12:26:46Z</time>
      </trkpt>
      <trkpt lat="49.85327" lon="2.28482">
        <ele>105.6</ele>
        <time>2022-10-29T12:26:47Z</time>
      </trkpt>
      <trkpt lat="49.85326" lon="2.28481">
        <ele>105.6</ele>
        <time>2022-10-29T12:26:48Z</time>
      </trkpt>
      <trkpt lat="49.85324" lon="2.28479">
        <ele>105.6</ele>
        <time>2022-10-29T12:26:49Z</time>
      </trkpt>
      <trkpt lat="49.85324" lon="2.28478">
        <ele>105.6</ele>
        <time>2022-10-29T12:26:50Z</time>
      </trkpt>
      <trkpt lat="49.85323" lon="2.28477">
        <ele>105.6</ele>
        <time>2022-10-29T12:26:51Z</time>
      </trkpt>
      <trkpt lat="49.85322" lon="2.28475">
        <ele>105.6</ele>
        <time>2022-10-29T12:26:53Z</time>
      </trkpt>
      <trkpt lat="49.85321" lon="2.28473">
        <ele>105.6</ele>
        <time>2022-10-29T12:26:54Z</time>
      </trkpt>
      <trkpt lat="49.8532" lon="2.28472">
        <ele>105.6</ele>
        <time>2022-10-29T12:26:55Z</time>
      </trkpt>
      <trkpt lat="49.85319" lon="2.28471">
        <ele>105.6</ele>
        <time>2022-10-29T12:26:56Z</time>
      </trkpt>
      <trkpt lat="49.85319" lon="2.28469">
        <ele>105.6</ele>
        <time>2022-10-29T12:26:57Z</time>
      </trkpt>
      <trkpt lat="49.85318" lon="2.28468">
        <ele>105.6</ele>
        <time>2022-10-29T12:26:58Z</time>
      </trkpt>
      <trkpt lat="49.85317" lon="2.28467">
        <ele>105.6</ele>
        <time>2022-10-29T12:26:59Z</time>
      </trkpt>
      <trkpt lat="49.85316" lon="2.28466">
        <ele>105.6</ele>
        <time>2022-10-29T12:27:00Z</time>
      </trkpt>
      <trkpt lat="49.85314" lon="2.28464">
        <ele>105.6</ele>
        <time>2022-10-29T12:27:02Z</time>
      </trkpt>
      <trkpt lat="49.85313" lon="2.28463">
        <ele>105.6</ele>
        <time>2022-10-29T12:27:03Z</time>
      </trkpt>
      <trkpt lat="49.85312" lon="2.28462">
        <ele>105.6</ele>
        <time>2022-10-29T12:27:04Z</time>
      </trkpt>
      <trkpt lat="49.85311" lon="2.28462">
        <ele>105.6</ele>
        <time>2022-10-29T12:27:05Z</time>
      </trkpt>
      <trkpt lat="49.8531" lon="2.28461">
        <ele>105.6</ele>
        <time>2022-10-29T12:27:06Z</time>
      </trkpt>
      <trkpt lat="49.85309" lon="2.2846">
        <ele>105.6</ele>
        <time>2022-10-29T12:27:07Z</time>
      </trkpt>
      <trkpt lat="49.85308" lon="2.2846">
        <ele>105.6</ele>
        <time>2022-10-29T12:27:08Z</time>
      </trkpt>
      <trkpt lat="49.85307" lon="2.28459">
        <ele>105.5</ele>
        <time>2022-10-29T12:27:09Z</time>
      </trkpt>
      <trkpt lat="49.85306" lon="2.28458">
        <ele>105.5</ele>
        <time>2022-10-29T12:27:11Z</time>
      </trkpt>
      <trkpt lat="49.85304" lon="2.28457">
        <ele>105.5</ele>
        <time>2022-10-29T12:27:12Z</time>
      </trkpt>
      <trkpt lat="49.85303" lon="2.28457">
        <ele>105.5</ele>
        <time>2022-10-29T12:27:13Z</time>
      </trkpt>
      <trkpt lat="49.85302" lon="2.28456">
        <ele>105.5</ele>
        <time>2022-10-29T12:27:14Z</time>
      </trkpt>
      <trkpt lat="49.853" lon="2.28455">
        <ele>105.5</ele>
        <time>2022-10-29T12:27:15Z</time>
      </trkpt>
      <trkpt lat="49.853" lon="2.28455">
        <ele>105.5</ele>
        <time>2022-10-29T12:27:16Z</time>
      </trkpt>
      <trkpt lat="49.85299" lon="2.28455">
        <ele>105.5</ele>
        <time>2022-10-29T12:27:17Z</time>
      </trkpt>
      <trkpt lat="49.85298" lon="2.28454">
        <ele>105.5</ele>
        <time>2022-10-29T12:27:18Z</time>
      </trkpt>
      <trkpt lat="49.85296" lon="2.28454">
        <ele>105.5</ele>
        <time>2022-10-29T12:27:20Z</time>
      </trkpt>
      <trkpt lat="49.85295" lon="2.28453">
        <ele>105.5</ele>
        <time>2022-10-29T12:27:21Z</time>
      </trkpt>
      <trkpt lat="49.85293" lon="2.28452">
        <ele>105.4</ele>
        <time>2022-10-29T12:27:22Z</time>
      </trkpt>
      <trkpt lat="49.85292" lon="2.28452">
        <ele>105.4</ele>
        <time>2022-10-29T12:27:23Z</time>
      </trkpt>
      <trkpt lat="49.85291" lon="2.28452">
        <ele>105.4</ele>
        <time>2022-10-29T12:27:24Z</time>
      </trkpt>
      <trkpt lat="49.85291" lon="2.28451">
        <ele>105.4</ele>
        <time>2022-10-29T12:27:25Z</time>
      </trkpt>
      <trkpt lat="49.8529" lon="2.28451">
        <ele>105.4</ele>
        <time>2022-10-29T12:27:26Z</time>
      </trkpt>
      <trkpt lat="49.85289" lon="2.2845">
        <ele>105.4</ele>
        <time>2022-10-29T12:27:27Z</time>
      </trkpt>
      <trkpt lat="49.85286" lon="2.28449">
        <ele>105.4</ele>
        <time>2022-10-29T12:27:28Z</time>
      </trkpt>
      <trkpt lat="49.85285" lon="2.28448">
        <ele>105.4</ele>
        <time>2022-10-29T12:27:30Z</time>
      </trkpt>
      <trkpt lat="49.85285" lon="2.28447">
        <ele>105.4</ele>
        <time>2022-10-29T12:27:31Z</time>
      </trkpt>
      <trkpt lat="49.85284" lon="2.28447">
        <ele>105.4</ele>
        <time>2022-10-29T12:27:32Z</time>
      </trkpt>
      <trkpt lat="49.85283" lon="2.28446">
        <ele>105.4</ele>
        <time>2022-10-29T12:27:33Z</time>
      </trkpt>
      <trkpt lat="49.85281" lon="2.28445">
        <ele>105.4</ele>
        <time>2022-10-29T12:27:34Z</time>
      </trkpt>
      <trkpt lat="49.8528" lon="2.28444">
        <ele>105.3</ele>
        <time>2022-10-29T12:27:35Z</time>
      </trkpt>
      <trkpt lat="49.8528" lon="2.28443">
        <ele>105.3</ele>
        <time>2022-10-29T12:27:36Z</time>
      </trkpt>
      <trkpt lat="49.85278" lon="2.28442">
        <ele>105.3</ele>
        <time>2022-10-29T12:27:37Z</time>
      </trkpt>
      <trkpt lat="49.85277" lon="2.28441">
        <ele>105.3</ele>
        <time>2022-10-29T12:27:39Z</time>
      </trkpt>
      <trkpt lat="49.85276" lon="2.2844">
        <ele>105.3</ele>
        <time>2022-10-29T12:27:40Z</time>
      </trkpt>
      <trkpt lat="49.85274" lon="2.28439">
        <ele>105.3</ele>
        <time>2022-10-29T12:27:41Z</time>
      </trkpt>
      <trkpt lat="49.85274" lon="2.28438">
        <ele>105.3</ele>
        <time>2022-10-29T12:27:42Z</time>
      </trkpt>
      <trkpt lat="49.85273" lon="2.28437">
        <ele>105.3</ele>
        <time>2022-10-29T12:27:43Z</time>
      </trkpt>
      <trkpt lat="49.85271" lon="2.28435">
        <ele>105.3</ele>
        <time>2022-10-29T12:27:44Z</time>
      </trkpt>
      <trkpt lat="49.8527" lon="2.28434">
        <ele>105.3</ele>
        <time>2022-10-29T12:27:45Z</time>
      </trkpt>
      <trkpt lat="49.8527" lon="2.28433">
        <ele>105.3</ele>
        <time>2022-10-29T12:27:47Z</time>
      </trkpt>
      <trkpt lat="49.85269" lon="2.28432">
        <ele>105.2</ele>
        <time>2022-10-29T12:27:48Z</time>
      </trkpt>
      <trkpt lat="49.85269" lon="2.28431">
        <ele>105.2</ele>
        <time>2022-10-29T12:27:49Z</time>
      </trkpt>
      <trkpt lat="49.85268" lon="2.2843">
        <ele>105.2</ele>
        <time>2022-10-29T12:27:50Z</time>
      </trkpt>
      <trkpt lat="49.85267" lon="2.28429">
        <ele>105.2</ele>
        <time>2022-10-29T12:27:51Z</time>
      </trkpt>
      <trkpt lat="49.85266" lon="2.28428">
        <ele>105.2</ele>
        <time>2022-10-29T12:27:52Z</time>
      </trkpt>
      <trkpt lat="49.85265" lon="2.28427">
        <ele>105.2</ele>
        <time>2022-10-29T12:27:53Z</time>
      </trkpt>
      <trkpt lat="49.85264" lon="2.28426">
        <ele>105.2</ele>
        <time>2022-10-29T12:27:54Z</time>
      </trkpt>
      <trkpt lat="49.85264" lon="2.28425">
        <ele>105.2</ele>
        <time>2022-10-29T12:27:55Z</time>
      </trkpt>
      <trkpt lat="49.85263" lon="2.28424">
        <ele>105.2</ele>
        <time>2022-10-29T12:27:56Z</time>
      </trkpt>
      <trkpt lat="49.85261" lon="2.28422">
        <ele>105.2</ele>
        <time>2022-10-29T12:27:58Z</time>
      </trkpt>
      <trkpt lat="49.8526" lon="2.28422">
        <ele>105.2</ele>
        <time>2022-10-29T12:27:59Z</time>
      </trkpt>
      <trkpt lat="49.8526" lon="2.28421">
        <ele>105.2</ele>
        <time>2022-10-29T12:28:00Z</time>
      </trkpt>
      <trkpt lat="49.85259" lon="2.2842">
        <ele>105.2</ele>
        <time>2022-10-29T12:28:01Z</time>
      </trkpt>
      <trkpt lat="49.85258" lon="2.28419">
        <ele>105.2</ele>
        <time>2022-10-29T12:28:02Z</time>
      </trkpt>
      <trkpt lat="49.85256" lon="2.28419">
        <ele>105.2</ele>
        <time>2022-10-29T12:28:03Z</time>
      </trkpt>
      <trkpt lat="49.85254" lon="2.2842">
        <ele>105.2</ele>
        <time>2022-10-29T12:28:04Z</time>
      </trkpt>
      <trkpt lat="49.85254" lon="2.28421">
        <ele>105.2</ele>
        <time>2022-10-29T12:28:05Z</time>
      </trkpt>
      <trkpt lat="49.85253" lon="2.28422">
        <ele>104.9</ele>
        <time>2022-10-29T12:28:06Z</time>
      </trkpt>
      <trkpt lat="49.85252" lon="2.28424">
        <ele>104.8</ele>
        <time>2022-10-29T12:28:07Z</time>
      </trkpt>
      <trkpt lat="49.85251" lon="2.28426">
        <ele>104.8</ele>
        <time>2022-10-29T12:28:09Z</time>
      </trkpt>
      <trkpt lat="49.85251" lon="2.28428">
        <ele>104.7</ele>
        <time>2022-10-29T12:28:10Z</time>
      </trkpt>
      <trkpt lat="49.8525" lon="2.2843">
        <ele>104.6</ele>
        <time>2022-10-29T12:28:11Z</time>
      </trkpt>
      <trkpt lat="49.8525" lon="2.28432">
        <ele>104.5</ele>
        <time>2022-10-29T12:28:12Z</time>
      </trkpt>
      <trkpt lat="49.85249" lon="2.28435">
        <ele>104.5</ele>
        <time>2022-10-29T12:28:13Z</time>
      </trkpt>
      <trkpt lat="49.85248" lon="2.28438">
        <ele>104.4</ele>
        <time>2022-10-29T12:28:14Z</time>
      </trkpt>
      <trkpt lat="49.85248" lon="2.28439">
        <ele>104.3</ele>
        <time>2022-10-29T12:28:15Z</time>
      </trkpt>
      <trkpt lat="49.85248" lon="2.2844">
        <ele>104.3</ele>
        <time>2022-10-29T12:28:16Z</time>
      </trkpt>
      <trkpt lat="49.85247" lon="2.28443">
        <ele>104.2</ele>
        <time>2022-10-29T12:28:18Z</time>
      </trkpt>
      <trkpt lat="49.85247" lon="2.28445">
        <ele>104.2</ele>
        <time>2022-10-29T12:28:19Z</time>
      </trkpt>
      <trkpt lat="49.85247" lon="2.28446">
        <ele>104.2</ele>
        <time>2022-10-29T12:28:20Z</time>
      </trkpt>
      <trkpt lat="49.85246" lon="2.28449">
        <ele>104.1</ele>
        <time>2022-10-29T12:28:21Z</time>
      </trkpt>
      <trkpt lat="49.85246" lon="2.2845">
        <ele>104.1</ele>
        <time>2022-10-29T12:28:22Z</time>
      </trkpt>
      <trkpt lat="49.85245" lon="2.28451">
        <ele>104</ele>
        <time>2022-10-29T12:28:23Z</time>
      </trkpt>
      <trkpt lat="49.85245" lon="2.28453">
        <ele>104</ele>
        <time>2022-10-29T12:28:24Z</time>
      </trkpt>
      <trkpt lat="49.85245" lon="2.28455">
        <ele>103.9</ele>
        <time>2022-10-29T12:28:25Z</time>
      </trkpt>
      <trkpt lat="49.85244" lon="2.28457">
        <ele>103.9</ele>
        <time>2022-10-29T12:28:27Z</time>
      </trkpt>
      <trkpt lat="49.85243" lon="2.2846">
        <ele>103.8</ele>
        <time>2022-10-29T12:28:28Z</time>
      </trkpt>
      <trkpt lat="49.85243" lon="2.28462">
        <ele>103.8</ele>
        <time>2022-10-29T12:28:29Z</time>
      </trkpt>
      <trkpt lat="49.85243" lon="2.28463">
        <ele>103.7</ele>
        <time>2022-10-29T12:28:30Z</time>
      </trkpt>
      <trkpt lat="49.85242" lon="2.28465">
        <ele>103.7</ele>
        <time>2022-10-29T12:28:31Z</time>
      </trkpt>
      <trkpt lat="49.85242" lon="2.28467">
        <ele>103.6</ele>
        <time>2022-10-29T12:28:32Z</time>
      </trkpt>
      <trkpt lat="49.85242" lon="2.28468">
        <ele>103.6</ele>
        <time>2022-10-29T12:28:33Z</time>
      </trkpt>
      <trkpt lat="49.85242" lon="2.28471">
        <ele>103.5</ele>
        <time>2022-10-29T12:28:34Z</time>
      </trkpt>
      <trkpt lat="49.85241" lon="2.28473">
        <ele>103.5</ele>
        <time>2022-10-29T12:28:35Z</time>
      </trkpt>
      <trkpt lat="49.85241" lon="2.28476">
        <ele>103.4</ele>
        <time>2022-10-29T12:28:37Z</time>
      </trkpt>
      <trkpt lat="49.85241" lon="2.28477">
        <ele>103.4</ele>
        <time>2022-10-29T12:28:38Z</time>
      </trkpt>
      <trkpt lat="49.85241" lon="2.28478">
        <ele>103.3</ele>
        <time>2022-10-29T12:28:39Z</time>
      </trkpt>
      <trkpt lat="49.8524" lon="2.28481">
        <ele>103.3</ele>
        <time>2022-10-29T12:28:40Z</time>
      </trkpt>
      <trkpt lat="49.8524" lon="2.28482">
        <ele>103.2</ele>
        <time>2022-10-29T12:28:41Z</time>
      </trkpt>
      <trkpt lat="49.8524" lon="2.28484">
        <ele>103.2</ele>
        <time>2022-10-29T12:28:42Z</time>
      </trkpt>
      <trkpt lat="49.8524" lon="2.28486">
        <ele>103.2</ele>
        <time>2022-10-29T12:28:43Z</time>
      </trkpt>
      <trkpt lat="49.8524" lon="2.28488">
        <ele>103.1</ele>
        <time>2022-10-29T12:28:44Z</time>
      </trkpt>
      <trkpt lat="49.85239" lon="2.28489">
        <ele>103.1</ele>
        <time>2022-10-29T12:28:46Z</time>
      </trkpt>
      <trkpt lat="49.85239" lon="2.28491">
        <ele>103</ele>
        <time>2022-10-29T12:28:47Z</time>
      </trkpt>
      <trkpt lat="49.85239" lon="2.28492">
        <ele>103</ele>
        <time>2022-10-29T12:28:48Z</time>
      </trkpt>
      <trkpt lat="49.85239" lon="2.28496">
        <ele>102.9</ele>
        <time>2022-10-29T12:28:49Z</time>
      </trkpt>
      <trkpt lat="49.85239" lon="2.28497">
        <ele>102.9</ele>
        <time>2022-10-29T12:28:51Z</time>
      </trkpt>
      <trkpt lat="49.85239" lon="2.28499">
        <ele>102.8</ele>
        <time>2022-10-29T12:28:52Z</time>
      </trkpt>
      <trkpt lat="49.85239" lon="2.285">
        <ele>102.8</ele>
        <time>2022-10-29T12:28:53Z</time>
      </trkpt>
      <trkpt lat="49.85238" lon="2.28502">
        <ele>102.7</ele>
        <time>2022-10-29T12:28:54Z</time>
      </trkpt>
      <trkpt lat="49.85238" lon="2.28505">
        <ele>102.7</ele>
        <time>2022-10-29T12:28:55Z</time>
      </trkpt>
      <trkpt lat="49.85238" lon="2.28506">
        <ele>102.6</ele>
        <time>2022-10-29T12:28:56Z</time>
      </trkpt>
      <trkpt lat="49.85238" lon="2.28508">
        <ele>102.6</ele>
        <time>2022-10-29T12:28:57Z</time>
      </trkpt>
      <trkpt lat="49.85237" lon="2.2851">
        <ele>102.5</ele>
        <time>2022-10-29T12:28:58Z</time>
      </trkpt>
      <trkpt lat="49.85237" lon="2.28513">
        <ele>102.4</ele>
        <time>2022-10-29T12:29:00Z</time>
      </trkpt>
      <trkpt lat="49.85237" lon="2.28514">
        <ele>102.4</ele>
        <time>2022-10-29T12:29:01Z</time>
      </trkpt>
      <trkpt lat="49.85236" lon="2.28515">
        <ele>102.4</ele>
        <time>2022-10-29T12:29:02Z</time>
      </trkpt>
      <trkpt lat="49.85236" lon="2.28517">
        <ele>102.3</ele>
        <time>2022-10-29T12:29:03Z</time>
      </trkpt>
      <trkpt lat="49.85236" lon="2.28519">
        <ele>102.3</ele>
        <time>2022-10-29T12:29:04Z</time>
      </trkpt>
      <trkpt lat="49.85235" lon="2.28522">
        <ele>102.2</ele>
        <time>2022-10-29T12:29:05Z</time>
      </trkpt>
      <trkpt lat="49.85235" lon="2.28525">
        <ele>102.1</ele>
        <time>2022-10-29T12:29:06Z</time>
      </trkpt>
      <trkpt lat="49.85235" lon="2.28526">
        <ele>102.1</ele>
        <time>2022-10-29T12:29:08Z</time>
      </trkpt>
      <trkpt lat="49.85234" lon="2.28527">
        <ele>102.1</ele>
        <time>2022-10-29T12:29:09Z</time>
      </trkpt>
      <trkpt lat="49.85234" lon="2.28529">
        <ele>102</ele>
        <time>2022-10-29T12:29:10Z</time>
      </trkpt>
      <trkpt lat="49.85234" lon="2.2853">
        <ele>102</ele>
        <time>2022-10-29T12:29:11Z</time>
      </trkpt>
      <trkpt lat="49.85233" lon="2.28532">
        <ele>101.9</ele>
        <time>2022-10-29T12:29:12Z</time>
      </trkpt>
      <trkpt lat="49.85233" lon="2.28536">
        <ele>101.8</ele>
        <time>2022-10-29T12:29:13Z</time>
      </trkpt>
      <trkpt lat="49.85232" lon="2.28537">
        <ele>101.8</ele>
        <time>2022-10-29T12:29:14Z</time>
      </trkpt>
      <trkpt lat="49.85232" lon="2.28538">
        <ele>101.8</ele>
        <time>2022-10-29T12:29:15Z</time>
      </trkpt>
      <trkpt lat="49.85232" lon="2.2854">
        <ele>101.7</ele>
        <time>2022-10-29T12:29:16Z</time>
      </trkpt>
      <trkpt lat="49.85231" lon="2.28541">
        <ele>101.7</ele>
        <time>2022-10-29T12:29:18Z</time>
      </trkpt>
      <trkpt lat="49.85231" lon="2.28543">
        <ele>101.6</ele>
        <time>2022-10-29T12:29:19Z</time>
      </trkpt>
      <trkpt lat="49.85231" lon="2.28546">
        <ele>101.5</ele>
        <time>2022-10-29T12:29:20Z</time>
      </trkpt>
      <trkpt lat="49.85231" lon="2.28547">
        <ele>101.5</ele>
        <time>2022-10-29T12:29:21Z</time>
      </trkpt>
      <trkpt lat="49.8523" lon="2.28548">
        <ele>101.5</ele>
        <time>2022-10-29T12:29:22Z</time>
      </trkpt>
      <trkpt lat="49.8523" lon="2.2855">
        <ele>101.4</ele>
        <time>2022-10-29T12:29:23Z</time>
      </trkpt>
      <trkpt lat="49.8523" lon="2.28553">
        <ele>101.4</ele>
        <time>2022-10-29T12:29:25Z</time>
      </trkpt>
      <trkpt lat="49.8523" lon="2.28555">
        <ele>101.3</ele>
        <time>2022-10-29T12:29:26Z</time>
      </trkpt>
      <trkpt lat="49.8523" lon="2.28556">
        <ele>101.3</ele>
        <time>2022-10-29T12:29:27Z</time>
      </trkpt>
      <trkpt lat="49.8523" lon="2.28557">
        <ele>101.2</ele>
        <time>2022-10-29T12:29:28Z</time>
      </trkpt>
      <trkpt lat="49.85229" lon="2.28559">
        <ele>101.2</ele>
        <time>2022-10-29T12:29:30Z</time>
      </trkpt>
      <trkpt lat="49.85229" lon="2.28561">
        <ele>101.1</ele>
        <time>2022-10-29T12:29:31Z</time>
      </trkpt>
      <trkpt lat="49.85229" lon="2.28562">
        <ele>101.1</ele>
        <time>2022-10-29T12:29:32Z</time>
      </trkpt>
      <trkpt lat="49.85228" lon="2.28565">
        <ele>101</ele>
        <time>2022-10-29T12:29:33Z</time>
      </trkpt>
      <trkpt lat="49.85228" lon="2.28567">
        <ele>101</ele>
        <time>2022-10-29T12:29:34Z</time>
      </trkpt>
      <trkpt lat="49.85228" lon="2.28568">
        <ele>100.9</ele>
        <time>2022-10-29T12:29:35Z</time>
      </trkpt>
      <trkpt lat="49.85228" lon="2.28571">
        <ele>100.8</ele>
        <time>2022-10-29T12:29:36Z</time>
      </trkpt>
      <trkpt lat="49.85228" lon="2.28572">
        <ele>100.8</ele>
        <time>2022-10-29T12:29:37Z</time>
      </trkpt>
      <trkpt lat="49.85228" lon="2.28574">
        <ele>100.7</ele>
        <time>2022-10-29T12:29:39Z</time>
      </trkpt>
      <trkpt lat="49.85227" lon="2.28575">
        <ele>100.7</ele>
        <time>2022-10-29T12:29:40Z</time>
      </trkpt>
      <trkpt lat="49.85227" lon="2.28577">
        <ele>100.6</ele>
        <time>2022-10-29T12:29:41Z</time>
      </trkpt>
      <trkpt lat="49.85227" lon="2.28578">
        <ele>100.6</ele>
        <time>2022-10-29T12:29:42Z</time>
      </trkpt>
      <trkpt lat="49.85227" lon="2.2858">
        <ele>100.5</ele>
        <time>2022-10-29T12:29:43Z</time>
      </trkpt>
      <trkpt lat="49.85226" lon="2.28582">
        <ele>100.4</ele>
        <time>2022-10-29T12:29:44Z</time>
      </trkpt>
      <trkpt lat="49.85226" lon="2.28584">
        <ele>100.4</ele>
        <time>2022-10-29T12:29:45Z</time>
      </trkpt>
      <trkpt lat="49.85226" lon="2.28585">
        <ele>100.3</ele>
        <time>2022-10-29T12:29:46Z</time>
      </trkpt>
      <trkpt lat="49.85226" lon="2.28587">
        <ele>100.3</ele>
        <time>2022-10-29T12:29:47Z</time>
      </trkpt>
      <trkpt lat="49.85225" lon="2.28588">
        <ele>100.2</ele>
        <time>2022-10-29T12:29:49Z</time>
      </trkpt>
      <trkpt lat="49.85225" lon="2.2859">
        <ele>100.1</ele>
        <time>2022-10-29T12:29:50Z</time>
      </trkpt>
      <trkpt lat="49.85225" lon="2.28592">
        <ele>100.1</ele>
        <time>2022-10-29T12:29:51Z</time>
      </trkpt>
      <trkpt lat="49.85225" lon="2.28594">
        <ele>100</ele>
        <time>2022-10-29T12:29:52Z</time>
      </trkpt>
      <trkpt lat="49.85225" lon="2.28595">
        <ele>100</ele>
        <time>2022-10-29T12:29:53Z</time>
      </trkpt>
      <trkpt lat="49.85224" lon="2.28597">
        <ele>99.9</ele>
        <time>2022-10-29T12:29:54Z</time>
      </trkpt>
      <trkpt lat="49.85224" lon="2.28599">
        <ele>99.9</ele>
        <time>2022-10-29T12:29:55Z</time>
      </trkpt>
      <trkpt lat="49.85224" lon="2.286">
        <ele>99.8</ele>
        <time>2022-10-29T12:29:57Z</time>
      </trkpt>
      <trkpt lat="49.85224" lon="2.28601">
        <ele>99.8</ele>
        <time>2022-10-29T12:29:58Z</time>
      </trkpt>
      <trkpt lat="49.85223" lon="2.28603">
        <ele>99.7</ele>
        <time>2022-10-29T12:29:59Z</time>
      </trkpt>
      <trkpt lat="49.85223" lon="2.28605">
        <ele>99.6</ele>
        <time>2022-10-29T12:30:00Z</time>
      </trkpt>
      <trkpt lat="49.85223" lon="2.28607">
        <ele>99.6</ele>
        <time>2022-10-29T12:30:01Z</time>
      </trkpt>
      <trkpt lat="49.85222" lon="2.28608">
        <ele>99.5</ele>
        <time>2022-10-29T12:30:02Z</time>
      </trkpt>
      <trkpt lat="49.85222" lon="2.2861">
        <ele>99.4</ele>
        <time>2022-10-29T12:30:03Z</time>
      </trkpt>
      <trkpt lat="49.85221" lon="2.28612">
        <ele>99.3</ele>
        <time>2022-10-29T12:30:05Z</time>
      </trkpt>
      <trkpt lat="49.85221" lon="2.28613">
        <ele>99.3</ele>
        <time>2022-10-29T12:30:06Z</time>
      </trkpt>
      <trkpt lat="49.85221" lon="2.28615">
        <ele>99.2</ele>
        <time>2022-10-29T12:30:07Z</time>
      </trkpt>
      <trkpt lat="49.8522" lon="2.28617">
        <ele>99.2</ele>
        <time>2022-10-29T12:30:08Z</time>
      </trkpt>
      <trkpt lat="49.8522" lon="2.28619">
        <ele>99.1</ele>
        <time>2022-10-29T12:30:09Z</time>
      </trkpt>
      <trkpt lat="49.8522" lon="2.28621">
        <ele>99</ele>
        <time>2022-10-29T12:30:10Z</time>
      </trkpt>
      <trkpt lat="49.85219" lon="2.28622">
        <ele>99</ele>
        <time>2022-10-29T12:30:11Z</time>
      </trkpt>
      <trkpt lat="49.85219" lon="2.28625">
        <ele>98.8</ele>
        <time>2022-10-29T12:30:12Z</time>
      </trkpt>
      <trkpt lat="49.85219" lon="2.28626">
        <ele>98.8</ele>
        <time>2022-10-29T12:30:14Z</time>
      </trkpt>
      <trkpt lat="49.85219" lon="2.28628">
        <ele>98.8</ele>
        <time>2022-10-29T12:30:15Z</time>
      </trkpt>
      <trkpt lat="49.85218" lon="2.28629">
        <ele>98.7</ele>
        <time>2022-10-29T12:30:16Z</time>
      </trkpt>
      <trkpt lat="49.85218" lon="2.28631">
        <ele>98.6</ele>
        <time>2022-10-29T12:30:17Z</time>
      </trkpt>
      <trkpt lat="49.85218" lon="2.28632">
        <ele>98.6</ele>
        <time>2022-10-29T12:30:18Z</time>
      </trkpt>
      <trkpt lat="49.85218" lon="2.28634">
        <ele>98.5</ele>
        <time>2022-10-29T12:30:19Z</time>
      </trkpt>
      <trkpt lat="49.85218" lon="2.28636">
        <ele>98.4</ele>
        <time>2022-10-29T12:30:21Z</time>
      </trkpt>
      <trkpt lat="49.85218" lon="2.28637">
        <ele>98.4</ele>
        <time>2022-10-29T12:30:22Z</time>
      </trkpt>
      <trkpt lat="49.85217" lon="2.2864">
        <ele>98.3</ele>
        <time>2022-10-29T12:30:23Z</time>
      </trkpt>
      <trkpt lat="49.85217" lon="2.28642">
        <ele>98.2</ele>
        <time>2022-10-29T12:30:24Z</time>
      </trkpt>
      <trkpt lat="49.85217" lon="2.28643">
        <ele>98.2</ele>
        <time>2022-10-29T12:30:25Z</time>
      </trkpt>
      <trkpt lat="49.85216" lon="2.28644">
        <ele>98.1</ele>
        <time>2022-10-29T12:30:26Z</time>
      </trkpt>
      <trkpt lat="49.85216" lon="2.28646">
        <ele>98.1</ele>
        <time>2022-10-29T12:30:27Z</time>
      </trkpt>
      <trkpt lat="49.85216" lon="2.28648">
        <ele>98</ele>
        <time>2022-10-29T12:30:28Z</time>
      </trkpt>
      <trkpt lat="49.85215" lon="2.28651">
        <ele>97.9</ele>
        <time>2022-10-29T12:30:30Z</time>
      </trkpt>
      <trkpt lat="49.85215" lon="2.28652">
        <ele>97.8</ele>
        <time>2022-10-29T12:30:31Z</time>
      </trkpt>
      <trkpt lat="49.85215" lon="2.28653">
        <ele>97.8</ele>
        <time>2022-10-29T12:30:32Z</time>
      </trkpt>
      <trkpt lat="49.85214" lon="2.28655">
        <ele>97.7</ele>
        <time>2022-10-29T12:30:33Z</time>
      </trkpt>
      <trkpt lat="49.85214" lon="2.28656">
        <ele>97.7</ele>
        <time>2022-10-29T12:30:34Z</time>
      </trkpt>
      <trkpt lat="49.85214" lon="2.28658">
        <ele>97.6</ele>
        <time>2022-10-29T12:30:35Z</time>
      </trkpt>
      <trkpt lat="49.85213" lon="2.28659">
        <ele>97.5</ele>
        <time>2022-10-29T12:30:36Z</time>
      </trkpt>
      <trkpt lat="49.85213" lon="2.28661">
        <ele>97.4</ele>
        <time>2022-10-29T12:30:37Z</time>
      </trkpt>
      <trkpt lat="49.85213" lon="2.28663">
        <ele>97.4</ele>
        <time>2022-10-29T12:30:39Z</time>
      </trkpt>
      <trkpt lat="49.85212" lon="2.28666">
        <ele>97.3</ele>
        <time>2022-10-29T12:30:40Z</time>
      </trkpt>
      <trkpt lat="49.85212" lon="2.28667">
        <ele>97.2</ele>
        <time>2022-10-29T12:30:41Z</time>
      </trkpt>
      <trkpt lat="49.85212" lon="2.28668">
        <ele>97.2</ele>
        <time>2022-10-29T12:30:42Z</time>
      </trkpt>
      <trkpt lat="49.85212" lon="2.2867">
        <ele>97.1</ele>
        <time>2022-10-29T12:30:43Z</time>
      </trkpt>
      <trkpt lat="49.85211" lon="2.28671">
        <ele>97</ele>
        <time>2022-10-29T12:30:44Z</time>
      </trkpt>
      <trkpt lat="49.85211" lon="2.28673">
        <ele>97</ele>
        <time>2022-10-29T12:30:45Z</time>
      </trkpt>
      <trkpt lat="49.85211" lon="2.28675">
        <ele>96.9</ele>
        <time>2022-10-29T12:30:46Z</time>
      </trkpt>
      <trkpt lat="49.8521" lon="2.28676">
        <ele>96.8</ele>
        <time>2022-10-29T12:30:48Z</time>
      </trkpt>
      <trkpt lat="49.8521" lon="2.28678">
        <ele>96.8</ele>
        <time>2022-10-29T12:30:49Z</time>
      </trkpt>
      <trkpt lat="49.85209" lon="2.28682">
        <ele>96.6</ele>
        <time>2022-10-29T12:30:50Z</time>
      </trkpt>
      <trkpt lat="49.85209" lon="2.28682">
        <ele>96.6</ele>
        <time>2022-10-29T12:30:51Z</time>
      </trkpt>
      <trkpt lat="49.85209" lon="2.28683">
        <ele>96.6</ele>
        <time>2022-10-29T12:30:52Z</time>
      </trkpt>
      <trkpt lat="49.85208" lon="2.28685">
        <ele>96.5</ele>
        <time>2022-10-29T12:30:53Z</time>
      </trkpt>
      <trkpt lat="49.85208" lon="2.28687">
        <ele>96.4</ele>
        <time>2022-10-29T12:30:54Z</time>
      </trkpt>
      <trkpt lat="49.85208" lon="2.28689">
        <ele>96.3</ele>
        <time>2022-10-29T12:30:55Z</time>
      </trkpt>
      <trkpt lat="49.85207" lon="2.2869">
        <ele>96.3</ele>
        <time>2022-10-29T12:30:56Z</time>
      </trkpt>
      <trkpt lat="49.85207" lon="2.28692">
        <ele>96.2</ele>
        <time>2022-10-29T12:30:58Z</time>
      </trkpt>
      <trkpt lat="49.85207" lon="2.28694">
        <ele>96.1</ele>
        <time>2022-10-29T12:30:59Z</time>
      </trkpt>
      <trkpt lat="49.85206" lon="2.28696">
        <ele>96</ele>
        <time>2022-10-29T12:31:00Z</time>
      </trkpt>
      <trkpt lat="49.85206" lon="2.28698">
        <ele>95.9</ele>
        <time>2022-10-29T12:31:01Z</time>
      </trkpt>
      <trkpt lat="49.85205" lon="2.287">
        <ele>95.9</ele>
        <time>2022-10-29T12:31:02Z</time>
      </trkpt>
      <trkpt lat="49.85205" lon="2.28701">
        <ele>95.8</ele>
        <time>2022-10-29T12:31:03Z</time>
      </trkpt>
      <trkpt lat="49.85205" lon="2.28703">
        <ele>95.7</ele>
        <time>2022-10-29T12:31:04Z</time>
      </trkpt>
      <trkpt lat="49.85204" lon="2.28705">
        <ele>95.6</ele>
        <time>2022-10-29T12:31:05Z</time>
      </trkpt>
      <trkpt lat="49.85204" lon="2.28707">
        <ele>95.5</ele>
        <time>2022-10-29T12:31:06Z</time>
      </trkpt>
      <trkpt lat="49.85204" lon="2.28709">
        <ele>95.5</ele>
        <time>2022-10-29T12:31:08Z</time>
      </trkpt>
      <trkpt lat="49.85203" lon="2.28712">
        <ele>95.3</ele>
        <time>2022-10-29T12:31:09Z</time>
      </trkpt>
      <trkpt lat="49.85203" lon="2.28714">
        <ele>95.3</ele>
        <time>2022-10-29T12:31:10Z</time>
      </trkpt>
      <trkpt lat="49.85203" lon="2.28715">
        <ele>95.2</ele>
        <time>2022-10-29T12:31:11Z</time>
      </trkpt>
      <trkpt lat="49.85203" lon="2.28717">
        <ele>95.1</ele>
        <time>2022-10-29T12:31:12Z</time>
      </trkpt>
      <trkpt lat="49.85202" lon="2.28718">
        <ele>95</ele>
        <time>2022-10-29T12:31:13Z</time>
      </trkpt>
      <trkpt lat="49.85202" lon="2.2872">
        <ele>95</ele>
        <time>2022-10-29T12:31:14Z</time>
      </trkpt>
      <trkpt lat="49.85201" lon="2.28723">
        <ele>94.8</ele>
        <time>2022-10-29T12:31:16Z</time>
      </trkpt>
      <trkpt lat="49.85201" lon="2.28724">
        <ele>94.8</ele>
        <time>2022-10-29T12:31:17Z</time>
      </trkpt>
      <trkpt lat="49.85201" lon="2.28725">
        <ele>94.7</ele>
        <time>2022-10-29T12:31:18Z</time>
      </trkpt>
      <trkpt lat="49.852" lon="2.28728">
        <ele>94.6</ele>
        <time>2022-10-29T12:31:19Z</time>
      </trkpt>
      <trkpt lat="49.852" lon="2.2873">
        <ele>94.5</ele>
        <time>2022-10-29T12:31:20Z</time>
      </trkpt>
      <trkpt lat="49.852" lon="2.28731">
        <ele>94.5</ele>
        <time>2022-10-29T12:31:21Z</time>
      </trkpt>
      <trkpt lat="49.852" lon="2.28732">
        <ele>94.4</ele>
        <time>2022-10-29T12:31:22Z</time>
      </trkpt>
      <trkpt lat="49.85199" lon="2.28734">
        <ele>94.3</ele>
        <time>2022-10-29T12:31:24Z</time>
      </trkpt>
      <trkpt lat="49.85199" lon="2.28736">
        <ele>94.2</ele>
        <time>2022-10-29T12:31:25Z</time>
      </trkpt>
      <trkpt lat="49.85199" lon="2.28738">
        <ele>94.1</ele>
        <time>2022-10-29T12:31:26Z</time>
      </trkpt>
      <trkpt lat="49.85199" lon="2.28739">
        <ele>94.1</ele>
        <time>2022-10-29T12:31:27Z</time>
      </trkpt>
      <trkpt lat="49.85199" lon="2.28741">
        <ele>94</ele>
        <time>2022-10-29T12:31:28Z</time>
      </trkpt>
      <trkpt lat="49.85199" lon="2.28743">
        <ele>93.9</ele>
        <time>2022-10-29T12:31:29Z</time>
      </trkpt>
      <trkpt lat="49.85199" lon="2.28745">
        <ele>93.8</ele>
        <time>2022-10-29T12:31:30Z</time>
      </trkpt>
      <trkpt lat="49.85199" lon="2.28747">
        <ele>93.7</ele>
        <time>2022-10-29T12:31:32Z</time>
      </trkpt>
      <trkpt lat="49.85199" lon="2.28748">
        <ele>93.6</ele>
        <time>2022-10-29T12:31:33Z</time>
      </trkpt>
      <trkpt lat="49.85199" lon="2.2875">
        <ele>93.6</ele>
        <time>2022-10-29T12:31:34Z</time>
      </trkpt>
      <trkpt lat="49.85199" lon="2.28752">
        <ele>93.5</ele>
        <time>2022-10-29T12:31:35Z</time>
      </trkpt>
      <trkpt lat="49.85199" lon="2.28755">
        <ele>93.3</ele>
        <time>2022-10-29T12:31:36Z</time>
      </trkpt>
      <trkpt lat="49.85199" lon="2.28756">
        <ele>93.3</ele>
        <time>2022-10-29T12:31:37Z</time>
      </trkpt>
      <trkpt lat="49.85199" lon="2.28758">
        <ele>93.2</ele>
        <time>2022-10-29T12:31:38Z</time>
      </trkpt>
      <trkpt lat="49.85199" lon="2.28759">
        <ele>93.1</ele>
        <time>2022-10-29T12:31:39Z</time>
      </trkpt>
      <trkpt lat="49.85199" lon="2.28762">
        <ele>93</ele>
        <time>2022-10-29T12:31:41Z</time>
      </trkpt>
      <trkpt lat="49.852" lon="2.28763">
        <ele>93</ele>
        <time>2022-10-29T12:31:42Z</time>
      </trkpt>
      <trkpt lat="49.852" lon="2.28765">
        <ele>92.9</ele>
        <time>2022-10-29T12:31:43Z</time>
      </trkpt>
      <trkpt lat="49.852" lon="2.28767">
        <ele>92.8</ele>
        <time>2022-10-29T12:31:44Z</time>
      </trkpt>
      <trkpt lat="49.852" lon="2.28769">
        <ele>92.7</ele>
        <time>2022-10-29T12:31:45Z</time>
      </trkpt>
      <trkpt lat="49.852" lon="2.2877">
        <ele>92.6</ele>
        <time>2022-10-29T12:31:46Z</time>
      </trkpt>
      <trkpt lat="49.852" lon="2.28772">
        <ele>92.6</ele>
        <time>2022-10-29T12:31:47Z</time>
      </trkpt>
      <trkpt lat="49.852" lon="2.28775">
        <ele>92.4</ele>
        <time>2022-10-29T12:31:49Z</time>
      </trkpt>
      <trkpt lat="49.852" lon="2.28776">
        <ele>92.4</ele>
        <time>2022-10-29T12:31:50Z</time>
      </trkpt>
      <trkpt lat="49.852" lon="2.28778">
        <ele>92.3</ele>
        <time>2022-10-29T12:31:51Z</time>
      </trkpt>
      <trkpt lat="49.852" lon="2.2878">
        <ele>92.2</ele>
        <time>2022-10-29T12:31:52Z</time>
      </trkpt>
      <trkpt lat="49.852" lon="2.28782">
        <ele>92.1</ele>
        <time>2022-10-29T12:31:53Z</time>
      </trkpt>
      <trkpt lat="49.852" lon="2.28783">
        <ele>92.1</ele>
        <time>2022-10-29T12:31:54Z</time>
      </trkpt>
      <trkpt lat="49.852" lon="2.28784">
        <ele>92</ele>
        <time>2022-10-29T12:31:55Z</time>
      </trkpt>
      <trkpt lat="49.852" lon="2.28786">
        <ele>92</ele>
        <time>2022-10-29T12:31:57Z</time>
      </trkpt>
      <trkpt lat="49.852" lon="2.28787">
        <ele>91.9</ele>
        <time>2022-10-29T12:31:58Z</time>
      </trkpt>
      <trkpt lat="49.852" lon="2.28789">
        <ele>91.8</ele>
        <time>2022-10-29T12:31:59Z</time>
      </trkpt>
      <trkpt lat="49.852" lon="2.28791">
        <ele>91.7</ele>
        <time>2022-10-29T12:32:00Z</time>
      </trkpt>
      <trkpt lat="49.852" lon="2.28793">
        <ele>91.6</ele>
        <time>2022-10-29T12:32:01Z</time>
      </trkpt>
      <trkpt lat="49.852" lon="2.28794">
        <ele>91.6</ele>
        <time>2022-10-29T12:32:02Z</time>
      </trkpt>
      <trkpt lat="49.852" lon="2.28796">
        <ele>91.5</ele>
        <time>2022-10-29T12:32:03Z</time>
      </trkpt>
      <trkpt lat="49.852" lon="2.28797">
        <ele>91.4</ele>
        <time>2022-10-29T12:32:04Z</time>
      </trkpt>
      <trkpt lat="49.852" lon="2.28799">
        <ele>91.4</ele>
        <time>2022-10-29T12:32:06Z</time>
      </trkpt>
      <trkpt lat="49.852" lon="2.28801">
        <ele>91.3</ele>
        <time>2022-10-29T12:32:07Z</time>
      </trkpt>
      <trkpt lat="49.85201" lon="2.28803">
        <ele>91.2</ele>
        <time>2022-10-29T12:32:08Z</time>
      </trkpt>
      <trkpt lat="49.85201" lon="2.28804">
        <ele>91.1</ele>
        <time>2022-10-29T12:32:09Z</time>
      </trkpt>
      <trkpt lat="49.85201" lon="2.28806">
        <ele>91.1</ele>
        <time>2022-10-29T12:32:10Z</time>
      </trkpt>
      <trkpt lat="49.85201" lon="2.28808">
        <ele>91</ele>
        <time>2022-10-29T12:32:11Z</time>
      </trkpt>
      <trkpt lat="49.85201" lon="2.28809">
        <ele>90.9</ele>
        <time>2022-10-29T12:32:12Z</time>
      </trkpt>
      <trkpt lat="49.85201" lon="2.28812">
        <ele>90.8</ele>
        <time>2022-10-29T12:32:13Z</time>
      </trkpt>
      <trkpt lat="49.85201" lon="2.28814">
        <ele>90.8</ele>
        <time>2022-10-29T12:32:15Z</time>
      </trkpt>
      <trkpt lat="49.85201" lon="2.28815">
        <ele>90.7</ele>
        <time>2022-10-29T12:32:16Z</time>
      </trkpt>
      <trkpt lat="49.85202" lon="2.28818">
        <ele>90.6</ele>
        <time>2022-10-29T12:32:17Z</time>
      </trkpt>
      <trkpt lat="49.85202" lon="2.28819">
        <ele>90.5</ele>
        <time>2022-10-29T12:32:18Z</time>
      </trkpt>
      <trkpt lat="49.85202" lon="2.28821">
        <ele>90.5</ele>
        <time>2022-10-29T12:32:19Z</time>
      </trkpt>
      <trkpt lat="49.85202" lon="2.28822">
        <ele>90.4</ele>
        <time>2022-10-29T12:32:20Z</time>
      </trkpt>
      <trkpt lat="49.85202" lon="2.28824">
        <ele>90.4</ele>
        <time>2022-10-29T12:32:21Z</time>
      </trkpt>
      <trkpt lat="49.85202" lon="2.28826">
        <ele>90.3</ele>
        <time>2022-10-29T12:32:22Z</time>
      </trkpt>
      <trkpt lat="49.85203" lon="2.28829">
        <ele>90.2</ele>
        <time>2022-10-29T12:32:24Z</time>
      </trkpt>
      <trkpt lat="49.85203" lon="2.2883">
        <ele>90.1</ele>
        <time>2022-10-29T12:32:25Z</time>
      </trkpt>
      <trkpt lat="49.85203" lon="2.28832">
        <ele>90.1</ele>
        <time>2022-10-29T12:32:26Z</time>
      </trkpt>
      <trkpt lat="49.85203" lon="2.28833">
        <ele>90</ele>
        <time>2022-10-29T12:32:27Z</time>
      </trkpt>
      <trkpt lat="49.85203" lon="2.28835">
        <ele>89.9</ele>
        <time>2022-10-29T12:32:28Z</time>
      </trkpt>
      <trkpt lat="49.85203" lon="2.28837">
        <ele>89.9</ele>
        <time>2022-10-29T12:32:29Z</time>
      </trkpt>
      <trkpt lat="49.85202" lon="2.28839">
        <ele>89.8</ele>
        <time>2022-10-29T12:32:31Z</time>
      </trkpt>
      <trkpt lat="49.85202" lon="2.28841">
        <ele>89.7</ele>
        <time>2022-10-29T12:32:32Z</time>
      </trkpt>
      <trkpt lat="49.85202" lon="2.28843">
        <ele>89.6</ele>
        <time>2022-10-29T12:32:34Z</time>
      </trkpt>
      <trkpt lat="49.85202" lon="2.28844">
        <ele>89.6</ele>
        <time>2022-10-29T12:32:35Z</time>
      </trkpt>
      <trkpt lat="49.85203" lon="2.28847">
        <ele>89.6</ele>
        <time>2022-10-29T12:32:37Z</time>
      </trkpt>
      <trkpt lat="49.85203" lon="2.28848">
        <ele>89.6</ele>
        <time>2022-10-29T12:32:38Z</time>
      </trkpt>
      <trkpt lat="49.85203" lon="2.28848">
        <ele>89.5</ele>
        <time>2022-10-29T12:32:39Z</time>
      </trkpt>
      <trkpt lat="49.85203" lon="2.28848">
        <ele>89.5</ele>
        <time>2022-10-29T12:32:40Z</time>
      </trkpt>
      <trkpt lat="49.85203" lon="2.28848">
        <ele>89.5</ele>
        <time>2022-10-29T12:32:41Z</time>
      </trkpt>
      <trkpt lat="49.85203" lon="2.28848">
        <ele>89.5</ele>
        <time>2022-10-29T12:32:42Z</time>
      </trkpt>
      <trkpt lat="49.85203" lon="2.28848">
        <ele>89.5</ele>
        <time>2022-10-29T12:32:43Z</time>
      </trkpt>
      <trkpt lat="49.85203" lon="2.28848">
        <ele>89.5</ele>
        <time>2022-10-29T12:32:45Z</time>
      </trkpt>
      <trkpt lat="49.85203" lon="2.28849">
        <ele>89.5</ele>
        <time>2022-10-29T12:32:47Z</time>
      </trkpt>
      <trkpt lat="49.85203" lon="2.28849">
        <ele>89.5</ele>
        <time>2022-10-29T12:32:48Z</time>
      </trkpt>
      <trkpt lat="49.85203" lon="2.28849">
        <ele>89.5</ele>
        <time>2022-10-29T12:32:49Z</time>
      </trkpt>
      <trkpt lat="49.85203" lon="2.28849">
        <ele>89.5</ele>
        <time>2022-10-29T12:32:50Z</time>
      </trkpt>
      <trkpt lat="49.85203" lon="2.28849">
        <ele>89.5</ele>
        <time>2022-10-29T12:32:51Z</time>
      </trkpt>
      <trkpt lat="49.85203" lon="2.28849">
        <ele>89.5</ele>
        <time>2022-10-29T12:32:52Z</time>
      </trkpt>
      <trkpt lat="49.85203" lon="2.28849">
        <ele>89.5</ele>
        <time>2022-10-29T12:32:53Z</time>
      </trkpt>
      <trkpt lat="49.85204" lon="2.28848">
        <ele>89.5</ele>
        <time>2022-10-29T12:32:54Z</time>
      </trkpt>
      <trkpt lat="49.85204" lon="2.28848">
        <ele>89.5</ele>
        <time>2022-10-29T12:32:55Z</time>
      </trkpt>
      <trkpt lat="49.85204" lon="2.28848">
        <ele>89.5</ele>
        <time>2022-10-29T12:32:57Z</time>
      </trkpt>
      <trkpt lat="49.85204" lon="2.28848">
        <ele>89.5</ele>
        <time>2022-10-29T12:32:58Z</time>
      </trkpt>
      <trkpt lat="49.85204" lon="2.28848">
        <ele>89.5</ele>
        <time>2022-10-29T12:32:59Z</time>
      </trkpt>
      <trkpt lat="49.85204" lon="2.28848">
        <ele>89.5</ele>
        <time>2022-10-29T12:33:00Z</time>
      </trkpt>
      <trkpt lat="49.85204" lon="2.28848">
        <ele>89.5</ele>
        <time>2022-10-29T12:33:01Z</time>
      </trkpt>
      <trkpt lat="49.85204" lon="2.28848">
        <ele>89.5</ele>
        <time>2022-10-29T12:33:02Z</time>
      </trkpt>
      <trkpt lat="49.85204" lon="2.28848">
        <ele>89.4</ele>
        <time>2022-10-29T12:33:03Z</time>
      </trkpt>
      <trkpt lat="49.85203" lon="2.28847">
        <ele>89.4</ele>
        <time>2022-10-29T12:33:04Z</time>
      </trkpt>
      <trkpt lat="49.85203" lon="2.28847">
        <ele>89.4</ele>
        <time>2022-10-29T12:33:05Z</time>
      </trkpt>
      <trkpt lat="49.85203" lon="2.28847">
        <ele>89.4</ele>
        <time>2022-10-29T12:33:06Z</time>
      </trkpt>
      <trkpt lat="49.85203" lon="2.28847">
        <ele>89.4</ele>
        <time>2022-10-29T12:33:07Z</time>
      </trkpt>
      <trkpt lat="49.85203" lon="2.28847">
        <ele>89.4</ele>
        <time>2022-10-29T12:33:08Z</time>
      </trkpt>
      <trkpt lat="49.85203" lon="2.28847">
        <ele>89.4</ele>
        <time>2022-10-29T12:33:09Z</time>
      </trkpt>
      <trkpt lat="49.85203" lon="2.28847">
        <ele>89.4</ele>
        <time>2022-10-29T12:33:10Z</time>
      </trkpt>
      <trkpt lat="49.85203" lon="2.28847">
        <ele>89.4</ele>
        <time>2022-10-29T12:33:11Z</time>
      </trkpt>
      <trkpt lat="49.85203" lon="2.28847">
        <ele>89.4</ele>
        <time>2022-10-29T12:33:12Z</time>
      </trkpt>
      <trkpt lat="49.85203" lon="2.28847">
        <ele>89.4</ele>
        <time>2022-10-29T12:33:13Z</time>
      </trkpt>
      <trkpt lat="49.85203" lon="2.28847">
        <ele>89.4</ele>
        <time>2022-10-29T12:33:14Z</time>
      </trkpt>
      <trkpt lat="49.85203" lon="2.28847">
        <ele>89.4</ele>
        <time>2022-10-29T12:33:15Z</time>
      </trkpt>
      <trkpt lat="49.85203" lon="2.28847">
        <ele>89.4</ele>
        <time>2022-10-29T12:33:16Z</time>
      </trkpt>
      <trkpt lat="49.85203" lon="2.28847">
        <ele>89.4</ele>
        <time>2022-10-29T12:33:17Z</time>
      </trkpt>
      <trkpt lat="49.85203" lon="2.28847">
        <ele>89.4</ele>
        <time>2022-10-29T12:33:18Z</time>
      </trkpt>
      <trkpt lat="49.85203" lon="2.28847">
        <ele>89.4</ele>
        <time>2022-10-29T12:33:19Z</time>
      </trkpt>
      <trkpt lat="49.85203" lon="2.28847">
        <ele>89.4</ele>
        <time>2022-10-29T12:33:20Z</time>
      </trkpt>
      <trkpt lat="49.85203" lon="2.28847">
        <ele>89.4</ele>
        <time>2022-10-29T12:33:21Z</time>
      </trkpt>
      <trkpt lat="49.85203" lon="2.28847">
        <ele>89.4</ele>
        <time>2022-10-29T12:33:22Z</time>
      </trkpt>
      <trkpt lat="49.85203" lon="2.28847">
        <ele>89.4</ele>
        <time>2022-10-29T12:33:23Z</time>
      </trkpt>
      <trkpt lat="49.85203" lon="2.28847">
        <ele>89.4</ele>
        <time>2022-10-29T12:33:24Z</time>
      </trkpt>
      <trkpt lat="49.85203" lon="2.28847">
        <ele>89.4</ele>
        <time>2022-10-29T12:33:25Z</time>
      </trkpt>
      <trkpt lat="49.85203" lon="2.28847">
        <ele>89.4</ele>
        <time>2022-10-29T12:33:26Z</time>
      </trkpt>
      <trkpt lat="49.85203" lon="2.28847">
        <ele>89.4</ele>
        <time>2022-10-29T12:33:27Z</time>
      </trkpt>
      <trkpt lat="49.85203" lon="2.28847">
        <ele>89.4</ele>
        <time>2022-10-29T12:33:28Z</time>
      </trkpt>
      <trkpt lat="49.85203" lon="2.28847">
        <ele>89.4</ele>
        <time>2022-10-29T12:33:29Z</time>
      </trkpt>
      <trkpt lat="49.85203" lon="2.28847">
        <ele>89.4</ele>
        <time>2022-10-29T12:33:30Z</time>
      </trkpt>
      <trkpt lat="49.85203" lon="2.28847">
        <ele>89.4</ele>
        <time>2022-10-29T12:33:31Z</time>
      </trkpt>
      <trkpt lat="49.85203" lon="2.28847">
        <ele>89.4</ele>
        <time>2022-10-29T12:33:32Z</time>
      </trkpt>
      <trkpt lat="49.85203" lon="2.28847">
        <ele>89.4</ele>
        <time>2022-10-29T12:33:33Z</time>
      </trkpt>
      <trkpt lat="49.85203" lon="2.28847">
        <ele>89.4</ele>
        <time>2022-10-29T12:33:34Z</time>
      </trkpt>
      <trkpt lat="49.85203" lon="2.28847">
        <ele>89.4</ele>
        <time>2022-10-29T12:33:35Z</time>
      </trkpt>
      <trkpt lat="49.85203" lon="2.28847">
        <ele>89.4</ele>
        <time>2022-10-29T12:33:36Z</time>
      </trkpt>
      <trkpt lat="49.85203" lon="2.28847">
        <ele>89.4</ele>
        <time>2022-10-29T12:33:37Z</time>
      </trkpt>
      <trkpt lat="49.85203" lon="2.28847">
        <ele>89.4</ele>
        <time>2022-10-29T12:33:38Z</time>
      </trkpt>
      <trkpt lat="49.85203" lon="2.28847">
        <ele>89.4</ele>
        <time>2022-10-29T12:33:39Z</time>
      </trkpt>
      <trkpt lat="49.85203" lon="2.28847">
        <ele>89.4</ele>
        <time>2022-10-29T12:33:40Z</time>
      </trkpt>
      <trkpt lat="49.85203" lon="2.28847">
        <ele>89.4</ele>
        <time>2022-10-29T12:33:41Z</time>
      </trkpt>
      <trkpt lat="49.85203" lon="2.28847">
        <ele>89.4</ele>
        <time>2022-10-29T12:33:42Z</time>
      </trkpt>
      <trkpt lat="49.85202" lon="2.28844">
        <ele>89.4</ele>
        <time>2022-10-29T12:33:43Z</time>
      </trkpt>
      <trkpt lat="49.85202" lon="2.28843">
        <ele>89.3</ele>
        <time>2022-10-29T12:33:44Z</time>
      </trkpt>
      <trkpt lat="49.85202" lon="2.28844">
        <ele>89.3</ele>
        <time>2022-10-29T12:33:45Z</time>
      </trkpt>
      <trkpt lat="49.85202" lon="2.28845">
        <ele>89.3</ele>
        <time>2022-10-29T12:33:46Z</time>
      </trkpt>
      <trkpt lat="49.85202" lon="2.28847">
        <ele>89.3</ele>
        <time>2022-10-29T12:33:47Z</time>
      </trkpt>
      <trkpt lat="49.85202" lon="2.28848">
        <ele>89.3</ele>
        <time>2022-10-29T12:33:48Z</time>
      </trkpt>
      <trkpt lat="49.85202" lon="2.28849">
        <ele>89.2</ele>
        <time>2022-10-29T12:33:49Z</time>
      </trkpt>
      <trkpt lat="49.85203" lon="2.28849">
        <ele>89.2</ele>
        <time>2022-10-29T12:33:50Z</time>
      </trkpt>
      <trkpt lat="49.85203" lon="2.2885">
        <ele>89.2</ele>
        <time>2022-10-29T12:33:51Z</time>
      </trkpt>
      <trkpt lat="49.85203" lon="2.28851">
        <ele>89.2</ele>
        <time>2022-10-29T12:33:53Z</time>
      </trkpt>
      <trkpt lat="49.85203" lon="2.28853">
        <ele>89.2</ele>
        <time>2022-10-29T12:33:54Z</time>
      </trkpt>
      <trkpt lat="49.85203" lon="2.28855">
        <ele>89.1</ele>
        <time>2022-10-29T12:33:55Z</time>
      </trkpt>
      <trkpt lat="49.85203" lon="2.28857">
        <ele>89.1</ele>
        <time>2022-10-29T12:33:56Z</time>
      </trkpt>
      <trkpt lat="49.85203" lon="2.28859">
        <ele>89.1</ele>
        <time>2022-10-29T12:33:58Z</time>
      </trkpt>
      <trkpt lat="49.85203" lon="2.28861">
        <ele>89</ele>
        <time>2022-10-29T12:33:59Z</time>
      </trkpt>
      <trkpt lat="49.85203" lon="2.28862">
        <ele>89</ele>
        <time>2022-10-29T12:34:00Z</time>
      </trkpt>
      <trkpt lat="49.85204" lon="2.28863">
        <ele>89</ele>
        <time>2022-10-29T12:34:01Z</time>
      </trkpt>
      <trkpt lat="49.85204" lon="2.28866">
        <ele>88.9</ele>
        <time>2022-10-29T12:34:02Z</time>
      </trkpt>
      <trkpt lat="49.85203" lon="2.28867">
        <ele>88.9</ele>
        <time>2022-10-29T12:34:03Z</time>
      </trkpt>
      <trkpt lat="49.85203" lon="2.28868">
        <ele>88.9</ele>
        <time>2022-10-29T12:34:04Z</time>
      </trkpt>
      <trkpt lat="49.85203" lon="2.28869">
        <ele>88.9</ele>
        <time>2022-10-29T12:34:05Z</time>
      </trkpt>
      <trkpt lat="49.85203" lon="2.28872">
        <ele>88.8</ele>
        <time>2022-10-29T12:34:07Z</time>
      </trkpt>
      <trkpt lat="49.85203" lon="2.28874">
        <ele>88.8</ele>
        <time>2022-10-29T12:34:08Z</time>
      </trkpt>
      <trkpt lat="49.85203" lon="2.28876">
        <ele>88.8</ele>
        <time>2022-10-29T12:34:09Z</time>
      </trkpt>
      <trkpt lat="49.85203" lon="2.28878">
        <ele>88.8</ele>
        <time>2022-10-29T12:34:10Z</time>
      </trkpt>
      <trkpt lat="49.85203" lon="2.2888">
        <ele>88.7</ele>
        <time>2022-10-29T12:34:11Z</time>
      </trkpt>
      <trkpt lat="49.85203" lon="2.28882">
        <ele>88.7</ele>
        <time>2022-10-29T12:34:12Z</time>
      </trkpt>
      <trkpt lat="49.85203" lon="2.28883">
        <ele>88.7</ele>
        <time>2022-10-29T12:34:13Z</time>
      </trkpt>
      <trkpt lat="49.85203" lon="2.28886">
        <ele>88.7</ele>
        <time>2022-10-29T12:34:15Z</time>
      </trkpt>
      <trkpt lat="49.85203" lon="2.28888">
        <ele>88.6</ele>
        <time>2022-10-29T12:34:16Z</time>
      </trkpt>
      <trkpt lat="49.85203" lon="2.28889">
        <ele>88.6</ele>
        <time>2022-10-29T12:34:17Z</time>
      </trkpt>
      <trkpt lat="49.85203" lon="2.28891">
        <ele>88.6</ele>
        <time>2022-10-29T12:34:18Z</time>
      </trkpt>
      <trkpt lat="49.85203" lon="2.28892">
        <ele>88.6</ele>
        <time>2022-10-29T12:34:19Z</time>
      </trkpt>
      <trkpt lat="49.85203" lon="2.28894">
        <ele>88.6</ele>
        <time>2022-10-29T12:34:20Z</time>
      </trkpt>
      <trkpt lat="49.85203" lon="2.28897">
        <ele>88.5</ele>
        <time>2022-10-29T12:34:21Z</time>
      </trkpt>
      <trkpt lat="49.85204" lon="2.28898">
        <ele>88.5</ele>
        <time>2022-10-29T12:34:23Z</time>
      </trkpt>
      <trkpt lat="49.85204" lon="2.28899">
        <ele>88.5</ele>
        <time>2022-10-29T12:34:24Z</time>
      </trkpt>
      <trkpt lat="49.85204" lon="2.28901">
        <ele>88.5</ele>
        <time>2022-10-29T12:34:25Z</time>
      </trkpt>
      <trkpt lat="49.85203" lon="2.28904">
        <ele>88.5</ele>
        <time>2022-10-29T12:34:26Z</time>
      </trkpt>
      <trkpt lat="49.85203" lon="2.28905">
        <ele>88.5</ele>
        <time>2022-10-29T12:34:27Z</time>
      </trkpt>
      <trkpt lat="49.85203" lon="2.28906">
        <ele>88.4</ele>
        <time>2022-10-29T12:34:28Z</time>
      </trkpt>
      <trkpt lat="49.85204" lon="2.28908">
        <ele>88.4</ele>
        <time>2022-10-29T12:34:30Z</time>
      </trkpt>
      <trkpt lat="49.85204" lon="2.2891">
        <ele>88.4</ele>
        <time>2022-10-29T12:34:31Z</time>
      </trkpt>
      <trkpt lat="49.85204" lon="2.28913">
        <ele>88.4</ele>
        <time>2022-10-29T12:34:32Z</time>
      </trkpt>
      <trkpt lat="49.85204" lon="2.28914">
        <ele>88.4</ele>
        <time>2022-10-29T12:34:33Z</time>
      </trkpt>
      <trkpt lat="49.85204" lon="2.28916">
        <ele>88.4</ele>
        <time>2022-10-29T12:34:34Z</time>
      </trkpt>
      <trkpt lat="49.85204" lon="2.28918">
        <ele>88.3</ele>
        <time>2022-10-29T12:34:35Z</time>
      </trkpt>
      <trkpt lat="49.85205" lon="2.2892">
        <ele>88.3</ele>
        <time>2022-10-29T12:34:36Z</time>
      </trkpt>
      <trkpt lat="49.85205" lon="2.28922">
        <ele>88.3</ele>
        <time>2022-10-29T12:34:37Z</time>
      </trkpt>
      <trkpt lat="49.85205" lon="2.28923">
        <ele>88.3</ele>
        <time>2022-10-29T12:34:39Z</time>
      </trkpt>
      <trkpt lat="49.85205" lon="2.28927">
        <ele>88.3</ele>
        <time>2022-10-29T12:34:40Z</time>
      </trkpt>
      <trkpt lat="49.85205" lon="2.28928">
        <ele>88.3</ele>
        <time>2022-10-29T12:34:41Z</time>
      </trkpt>
      <trkpt lat="49.85205" lon="2.28929">
        <ele>88.3</ele>
        <time>2022-10-29T12:34:42Z</time>
      </trkpt>
      <trkpt lat="49.85205" lon="2.28931">
        <ele>88.3</ele>
        <time>2022-10-29T12:34:43Z</time>
      </trkpt>
      <trkpt lat="49.85205" lon="2.28932">
        <ele>88.3</ele>
        <time>2022-10-29T12:34:44Z</time>
      </trkpt>
      <trkpt lat="49.85205" lon="2.28934">
        <ele>88.2</ele>
        <time>2022-10-29T12:34:45Z</time>
      </trkpt>
      <trkpt lat="49.85206" lon="2.28937">
        <ele>88.2</ele>
        <time>2022-10-29T12:34:46Z</time>
      </trkpt>
      <trkpt lat="49.85206" lon="2.28938">
        <ele>88.2</ele>
        <time>2022-10-29T12:34:48Z</time>
      </trkpt>
      <trkpt lat="49.85206" lon="2.28939">
        <ele>88.2</ele>
        <time>2022-10-29T12:34:49Z</time>
      </trkpt>
      <trkpt lat="49.85207" lon="2.28942">
        <ele>88.2</ele>
        <time>2022-10-29T12:34:50Z</time>
      </trkpt>
      <trkpt lat="49.85207" lon="2.28944">
        <ele>88.2</ele>
        <time>2022-10-29T12:34:51Z</time>
      </trkpt>
      <trkpt lat="49.85207" lon="2.28945">
        <ele>88.2</ele>
        <time>2022-10-29T12:34:52Z</time>
      </trkpt>
      <trkpt lat="49.85207" lon="2.28947">
        <ele>88.2</ele>
        <time>2022-10-29T12:34:53Z</time>
      </trkpt>
      <trkpt lat="49.85208" lon="2.28948">
        <ele>88.2</ele>
        <time>2022-10-29T12:34:55Z</time>
      </trkpt>
      <trkpt lat="49.85208" lon="2.2895">
        <ele>88.2</ele>
        <time>2022-10-29T12:34:56Z</time>
      </trkpt>
      <trkpt lat="49.85208" lon="2.28952">
        <ele>88.2</ele>
        <time>2022-10-29T12:34:57Z</time>
      </trkpt>
      <trkpt lat="49.85208" lon="2.28954">
        <ele>88.2</ele>
        <time>2022-10-29T12:34:58Z</time>
      </trkpt>
      <trkpt lat="49.85208" lon="2.28956">
        <ele>88.2</ele>
        <time>2022-10-29T12:34:59Z</time>
      </trkpt>
      <trkpt lat="49.85208" lon="2.28959">
        <ele>88.2</ele>
        <time>2022-10-29T12:35:00Z</time>
      </trkpt>
      <trkpt lat="49.85209" lon="2.28961">
        <ele>88.1</ele>
        <time>2022-10-29T12:35:02Z</time>
      </trkpt>
      <trkpt lat="49.85209" lon="2.28962">
        <ele>88.1</ele>
        <time>2022-10-29T12:35:03Z</time>
      </trkpt>
      <trkpt lat="49.85209" lon="2.28963">
        <ele>88.1</ele>
        <time>2022-10-29T12:35:04Z</time>
      </trkpt>
      <trkpt lat="49.85209" lon="2.28965">
        <ele>88.1</ele>
        <time>2022-10-29T12:35:05Z</time>
      </trkpt>
      <trkpt lat="49.85209" lon="2.28968">
        <ele>88.1</ele>
        <time>2022-10-29T12:35:06Z</time>
      </trkpt>
      <trkpt lat="49.8521" lon="2.28969">
        <ele>88.1</ele>
        <time>2022-10-29T12:35:07Z</time>
      </trkpt>
      <trkpt lat="49.8521" lon="2.28971">
        <ele>88.1</ele>
        <time>2022-10-29T12:35:09Z</time>
      </trkpt>
      <trkpt lat="49.8521" lon="2.28973">
        <ele>88</ele>
        <time>2022-10-29T12:35:10Z</time>
      </trkpt>
      <trkpt lat="49.8521" lon="2.28975">
        <ele>88</ele>
        <time>2022-10-29T12:35:11Z</time>
      </trkpt>
      <trkpt lat="49.8521" lon="2.28977">
        <ele>88</ele>
        <time>2022-10-29T12:35:12Z</time>
      </trkpt>
      <trkpt lat="49.8521" lon="2.2898">
        <ele>88</ele>
        <time>2022-10-29T12:35:13Z</time>
      </trkpt>
      <trkpt lat="49.85211" lon="2.28981">
        <ele>88</ele>
        <time>2022-10-29T12:35:14Z</time>
      </trkpt>
      <trkpt lat="49.85211" lon="2.28983">
        <ele>88</ele>
        <time>2022-10-29T12:35:15Z</time>
      </trkpt>
      <trkpt lat="49.85211" lon="2.28985">
        <ele>88</ele>
        <time>2022-10-29T12:35:17Z</time>
      </trkpt>
      <trkpt lat="49.85211" lon="2.28987">
        <ele>87.9</ele>
        <time>2022-10-29T12:35:18Z</time>
      </trkpt>
      <trkpt lat="49.85211" lon="2.2899">
        <ele>87.9</ele>
        <time>2022-10-29T12:35:19Z</time>
      </trkpt>
      <trkpt lat="49.85211" lon="2.28992">
        <ele>87.9</ele>
        <time>2022-10-29T12:35:20Z</time>
      </trkpt>
      <trkpt lat="49.85211" lon="2.28993">
        <ele>87.9</ele>
        <time>2022-10-29T12:35:21Z</time>
      </trkpt>
      <trkpt lat="49.85211" lon="2.28997">
        <ele>87.9</ele>
        <time>2022-10-29T12:35:22Z</time>
      </trkpt>
      <trkpt lat="49.85211" lon="2.28998">
        <ele>87.9</ele>
        <time>2022-10-29T12:35:23Z</time>
      </trkpt>
      <trkpt lat="49.85212" lon="2.28999">
        <ele>87.8</ele>
        <time>2022-10-29T12:35:24Z</time>
      </trkpt>
      <trkpt lat="49.85212" lon="2.29001">
        <ele>87.8</ele>
        <time>2022-10-29T12:35:26Z</time>
      </trkpt>
      <trkpt lat="49.85212" lon="2.29003">
        <ele>87.8</ele>
        <time>2022-10-29T12:35:27Z</time>
      </trkpt>
      <trkpt lat="49.85212" lon="2.29004">
        <ele>87.8</ele>
        <time>2022-10-29T12:35:28Z</time>
      </trkpt>
      <trkpt lat="49.85212" lon="2.29006">
        <ele>87.8</ele>
        <time>2022-10-29T12:35:29Z</time>
      </trkpt>
      <trkpt lat="49.85212" lon="2.29007">
        <ele>87.8</ele>
        <time>2022-10-29T12:35:30Z</time>
      </trkpt>
      <trkpt lat="49.85213" lon="2.29009">
        <ele>87.7</ele>
        <time>2022-10-29T12:35:31Z</time>
      </trkpt>
      <trkpt lat="49.85213" lon="2.29012">
        <ele>87.7</ele>
        <time>2022-10-29T12:35:32Z</time>
      </trkpt>
      <trkpt lat="49.85213" lon="2.29013">
        <ele>87.7</ele>
        <time>2022-10-29T12:35:33Z</time>
      </trkpt>
      <trkpt lat="49.85214" lon="2.29015">
        <ele>87.7</ele>
        <time>2022-10-29T12:35:34Z</time>
      </trkpt>
      <trkpt lat="49.85214" lon="2.29016">
        <ele>87.7</ele>
        <time>2022-10-29T12:35:35Z</time>
      </trkpt>
      <trkpt lat="49.85214" lon="2.29019">
        <ele>87.6</ele>
        <time>2022-10-29T12:35:36Z</time>
      </trkpt>
      <trkpt lat="49.85214" lon="2.29021">
        <ele>87.6</ele>
        <time>2022-10-29T12:35:37Z</time>
      </trkpt>
      <trkpt lat="49.85214" lon="2.29022">
        <ele>87.6</ele>
        <time>2022-10-29T12:35:39Z</time>
      </trkpt>
      <trkpt lat="49.85214" lon="2.29023">
        <ele>87.6</ele>
        <time>2022-10-29T12:35:40Z</time>
      </trkpt>
      <trkpt lat="49.85215" lon="2.29025">
        <ele>87.6</ele>
        <time>2022-10-29T12:35:41Z</time>
      </trkpt>
      <trkpt lat="49.85215" lon="2.29027">
        <ele>87.5</ele>
        <time>2022-10-29T12:35:42Z</time>
      </trkpt>
      <trkpt lat="49.85216" lon="2.29028">
        <ele>87.5</ele>
        <time>2022-10-29T12:35:43Z</time>
      </trkpt>
      <trkpt lat="49.85216" lon="2.2903">
        <ele>87.5</ele>
        <time>2022-10-29T12:35:44Z</time>
      </trkpt>
      <trkpt lat="49.85216" lon="2.29032">
        <ele>87.5</ele>
        <time>2022-10-29T12:35:45Z</time>
      </trkpt>
      <trkpt lat="49.85216" lon="2.29033">
        <ele>87.4</ele>
        <time>2022-10-29T12:35:46Z</time>
      </trkpt>
      <trkpt lat="49.85216" lon="2.29037">
        <ele>87.4</ele>
        <time>2022-10-29T12:35:47Z</time>
      </trkpt>
      <trkpt lat="49.85216" lon="2.29037">
        <ele>87.4</ele>
        <time>2022-10-29T12:35:48Z</time>
      </trkpt>
      <trkpt lat="49.85216" lon="2.29038">
        <ele>87.4</ele>
        <time>2022-10-29T12:35:50Z</time>
      </trkpt>
      <trkpt lat="49.85216" lon="2.2904">
        <ele>87.3</ele>
        <time>2022-10-29T12:35:51Z</time>
      </trkpt>
      <trkpt lat="49.85216" lon="2.29041">
        <ele>87.3</ele>
        <time>2022-10-29T12:35:52Z</time>
      </trkpt>
      <trkpt lat="49.85217" lon="2.29043">
        <ele>87.3</ele>
        <time>2022-10-29T12:35:53Z</time>
      </trkpt>
      <trkpt lat="49.85216" lon="2.29046">
        <ele>87.3</ele>
        <time>2022-10-29T12:35:54Z</time>
      </trkpt>
      <trkpt lat="49.85216" lon="2.29047">
        <ele>87.3</ele>
        <time>2022-10-29T12:35:55Z</time>
      </trkpt>
      <trkpt lat="49.85216" lon="2.29048">
        <ele>87.3</ele>
        <time>2022-10-29T12:35:56Z</time>
      </trkpt>
      <trkpt lat="49.85216" lon="2.2905">
        <ele>87.3</ele>
        <time>2022-10-29T12:35:57Z</time>
      </trkpt>
      <trkpt lat="49.85216" lon="2.29051">
        <ele>87.3</ele>
        <time>2022-10-29T12:35:59Z</time>
      </trkpt>
      <trkpt lat="49.85216" lon="2.29053">
        <ele>87.2</ele>
        <time>2022-10-29T12:36:00Z</time>
      </trkpt>
      <trkpt lat="49.85216" lon="2.29056">
        <ele>87.2</ele>
        <time>2022-10-29T12:36:01Z</time>
      </trkpt>
      <trkpt lat="49.85216" lon="2.29057">
        <ele>87.2</ele>
        <time>2022-10-29T12:36:02Z</time>
      </trkpt>
      <trkpt lat="49.85216" lon="2.29058">
        <ele>87.2</ele>
        <time>2022-10-29T12:36:03Z</time>
      </trkpt>
      <trkpt lat="49.85217" lon="2.29062">
        <ele>87.2</ele>
        <time>2022-10-29T12:36:04Z</time>
      </trkpt>
      <trkpt lat="49.85217" lon="2.29063">
        <ele>87.2</ele>
        <time>2022-10-29T12:36:05Z</time>
      </trkpt>
      <trkpt lat="49.85217" lon="2.29065">
        <ele>87.2</ele>
        <time>2022-10-29T12:36:06Z</time>
      </trkpt>
      <trkpt lat="49.85217" lon="2.29066">
        <ele>87.2</ele>
        <time>2022-10-29T12:36:08Z</time>
      </trkpt>
      <trkpt lat="49.85217" lon="2.29067">
        <ele>87.2</ele>
        <time>2022-10-29T12:36:09Z</time>
      </trkpt>
      <trkpt lat="49.85217" lon="2.29069">
        <ele>87.1</ele>
        <time>2022-10-29T12:36:10Z</time>
      </trkpt>
      <trkpt lat="49.85218" lon="2.29073">
        <ele>87.1</ele>
        <time>2022-10-29T12:36:11Z</time>
      </trkpt>
      <trkpt lat="49.85218" lon="2.29075">
        <ele>87.1</ele>
        <time>2022-10-29T12:36:13Z</time>
      </trkpt>
      <trkpt lat="49.85218" lon="2.29077">
        <ele>87.1</ele>
        <time>2022-10-29T12:36:14Z</time>
      </trkpt>
      <trkpt lat="49.85218" lon="2.29079">
        <ele>87</ele>
        <time>2022-10-29T12:36:15Z</time>
      </trkpt>
      <trkpt lat="49.85218" lon="2.2908">
        <ele>87</ele>
        <time>2022-10-29T12:36:16Z</time>
      </trkpt>
      <trkpt lat="49.85219" lon="2.29083">
        <ele>87</ele>
        <time>2022-10-29T12:36:17Z</time>
      </trkpt>
      <trkpt lat="49.85219" lon="2.29084">
        <ele>87</ele>
        <time>2022-10-29T12:36:18Z</time>
      </trkpt>
      <trkpt lat="49.85219" lon="2.29085">
        <ele>87</ele>
        <time>2022-10-29T12:36:19Z</time>
      </trkpt>
      <trkpt lat="49.85219" lon="2.29087">
        <ele>87</ele>
        <time>2022-10-29T12:36:20Z</time>
      </trkpt>
      <trkpt lat="49.85219" lon="2.29089">
        <ele>86.9</ele>
        <time>2022-10-29T12:36:21Z</time>
      </trkpt>
      <trkpt lat="49.85219" lon="2.29091">
        <ele>86.9</ele>
        <time>2022-10-29T12:36:23Z</time>
      </trkpt>
      <trkpt lat="49.8522" lon="2.29095">
        <ele>86.9</ele>
        <time>2022-10-29T12:36:24Z</time>
      </trkpt>
      <trkpt lat="49.8522" lon="2.29096">
        <ele>86.9</ele>
        <time>2022-10-29T12:36:25Z</time>
      </trkpt>
      <trkpt lat="49.8522" lon="2.29097">
        <ele>86.9</ele>
        <time>2022-10-29T12:36:26Z</time>
      </trkpt>
      <trkpt lat="49.8522" lon="2.291">
        <ele>86.8</ele>
        <time>2022-10-29T12:36:27Z</time>
      </trkpt>
      <trkpt lat="49.8522" lon="2.29101">
        <ele>86.8</ele>
        <time>2022-10-29T12:36:28Z</time>
      </trkpt>
      <trkpt lat="49.8522" lon="2.29103">
        <ele>86.8</ele>
        <time>2022-10-29T12:36:29Z</time>
      </trkpt>
      <trkpt lat="49.8522" lon="2.29104">
        <ele>86.8</ele>
        <time>2022-10-29T12:36:30Z</time>
      </trkpt>
      <trkpt lat="49.8522" lon="2.29107">
        <ele>86.8</ele>
        <time>2022-10-29T12:36:32Z</time>
      </trkpt>
      <trkpt lat="49.8522" lon="2.29109">
        <ele>86.8</ele>
        <time>2022-10-29T12:36:33Z</time>
      </trkpt>
      <trkpt lat="49.8522" lon="2.29111">
        <ele>86.8</ele>
        <time>2022-10-29T12:36:34Z</time>
      </trkpt>
      <trkpt lat="49.8522" lon="2.29113">
        <ele>86.8</ele>
        <time>2022-10-29T12:36:35Z</time>
      </trkpt>
      <trkpt lat="49.8522" lon="2.29114">
        <ele>86.7</ele>
        <time>2022-10-29T12:36:36Z</time>
      </trkpt>
      <trkpt lat="49.8522" lon="2.29116">
        <ele>86.7</ele>
        <time>2022-10-29T12:36:38Z</time>
      </trkpt>
      <trkpt lat="49.8522" lon="2.29117">
        <ele>86.7</ele>
        <time>2022-10-29T12:36:39Z</time>
      </trkpt>
      <trkpt lat="49.8522" lon="2.29119">
        <ele>86.7</ele>
        <time>2022-10-29T12:36:40Z</time>
      </trkpt>
      <trkpt lat="49.85221" lon="2.2912">
        <ele>86.7</ele>
        <time>2022-10-29T12:36:41Z</time>
      </trkpt>
      <trkpt lat="49.85221" lon="2.29123">
        <ele>86.7</ele>
        <time>2022-10-29T12:36:42Z</time>
      </trkpt>
      <trkpt lat="49.85221" lon="2.29124">
        <ele>86.7</ele>
        <time>2022-10-29T12:36:43Z</time>
      </trkpt>
      <trkpt lat="49.85222" lon="2.29126">
        <ele>86.6</ele>
        <time>2022-10-29T12:36:44Z</time>
      </trkpt>
      <trkpt lat="49.85222" lon="2.29127">
        <ele>86.6</ele>
        <time>2022-10-29T12:36:45Z</time>
      </trkpt>
      <trkpt lat="49.85223" lon="2.2913">
        <ele>86.6</ele>
        <time>2022-10-29T12:36:47Z</time>
      </trkpt>
      <trkpt lat="49.85223" lon="2.29131">
        <ele>86.6</ele>
        <time>2022-10-29T12:36:48Z</time>
      </trkpt>
      <trkpt lat="49.85224" lon="2.29132">
        <ele>86.6</ele>
        <time>2022-10-29T12:36:49Z</time>
      </trkpt>
      <trkpt lat="49.85225" lon="2.29135">
        <ele>86.5</ele>
        <time>2022-10-29T12:36:50Z</time>
      </trkpt>
      <trkpt lat="49.85225" lon="2.29136">
        <ele>86.5</ele>
        <time>2022-10-29T12:36:51Z</time>
      </trkpt>
      <trkpt lat="49.85225" lon="2.29138">
        <ele>86.5</ele>
        <time>2022-10-29T12:36:52Z</time>
      </trkpt>
      <trkpt lat="49.85225" lon="2.29139">
        <ele>86.5</ele>
        <time>2022-10-29T12:36:54Z</time>
      </trkpt>
      <trkpt lat="49.85226" lon="2.29141">
        <ele>86.5</ele>
        <time>2022-10-29T12:36:55Z</time>
      </trkpt>
      <trkpt lat="49.85226" lon="2.29143">
        <ele>86.5</ele>
        <time>2022-10-29T12:36:56Z</time>
      </trkpt>
      <trkpt lat="49.85226" lon="2.29145">
        <ele>86.4</ele>
        <time>2022-10-29T12:36:57Z</time>
      </trkpt>
      <trkpt lat="49.85226" lon="2.29146">
        <ele>86.4</ele>
        <time>2022-10-29T12:36:58Z</time>
      </trkpt>
      <trkpt lat="49.85226" lon="2.29148">
        <ele>86.4</ele>
        <time>2022-10-29T12:36:59Z</time>
      </trkpt>
      <trkpt lat="49.85226" lon="2.2915">
        <ele>86.4</ele>
        <time>2022-10-29T12:37:00Z</time>
      </trkpt>
      <trkpt lat="49.85226" lon="2.29152">
        <ele>86.3</ele>
        <time>2022-10-29T12:37:01Z</time>
      </trkpt>
      <trkpt lat="49.85226" lon="2.29154">
        <ele>86.3</ele>
        <time>2022-10-29T12:37:03Z</time>
      </trkpt>
      <trkpt lat="49.85226" lon="2.29155">
        <ele>86.3</ele>
        <time>2022-10-29T12:37:04Z</time>
      </trkpt>
      <trkpt lat="49.85226" lon="2.29157">
        <ele>86.3</ele>
        <time>2022-10-29T12:37:05Z</time>
      </trkpt>
      <trkpt lat="49.85227" lon="2.29159">
        <ele>86.3</ele>
        <time>2022-10-29T12:37:06Z</time>
      </trkpt>
      <trkpt lat="49.85227" lon="2.29162">
        <ele>86.2</ele>
        <time>2022-10-29T12:37:07Z</time>
      </trkpt>
      <trkpt lat="49.85228" lon="2.29162">
        <ele>86.2</ele>
        <time>2022-10-29T12:37:08Z</time>
      </trkpt>
      <trkpt lat="49.85228" lon="2.29164">
        <ele>86.2</ele>
        <time>2022-10-29T12:37:09Z</time>
      </trkpt>
      <trkpt lat="49.85228" lon="2.29167">
        <ele>86.2</ele>
        <time>2022-10-29T12:37:10Z</time>
      </trkpt>
      <trkpt lat="49.85228" lon="2.29168">
        <ele>86.1</ele>
        <time>2022-10-29T12:37:11Z</time>
      </trkpt>
      <trkpt lat="49.85228" lon="2.2917">
        <ele>86.1</ele>
        <time>2022-10-29T12:37:12Z</time>
      </trkpt>
      <trkpt lat="49.85228" lon="2.29171">
        <ele>86.1</ele>
        <time>2022-10-29T12:37:14Z</time>
      </trkpt>
      <trkpt lat="49.85228" lon="2.29173">
        <ele>86.1</ele>
        <time>2022-10-29T12:37:15Z</time>
      </trkpt>
      <trkpt lat="49.85228" lon="2.29175">
        <ele>86</ele>
        <time>2022-10-29T12:37:16Z</time>
      </trkpt>
      <trkpt lat="49.85228" lon="2.29177">
        <ele>86</ele>
        <time>2022-10-29T12:37:17Z</time>
      </trkpt>
      <trkpt lat="49.85228" lon="2.2918">
        <ele>86</ele>
        <time>2022-10-29T12:37:18Z</time>
      </trkpt>
      <trkpt lat="49.85228" lon="2.29181">
        <ele>85.9</ele>
        <time>2022-10-29T12:37:19Z</time>
      </trkpt>
      <trkpt lat="49.85228" lon="2.29183">
        <ele>85.9</ele>
        <time>2022-10-29T12:37:20Z</time>
      </trkpt>
      <trkpt lat="49.85228" lon="2.29185">
        <ele>85.9</ele>
        <time>2022-10-29T12:37:21Z</time>
      </trkpt>
      <trkpt lat="49.85228" lon="2.29188">
        <ele>85.8</ele>
        <time>2022-10-29T12:37:22Z</time>
      </trkpt>
      <trkpt lat="49.85228" lon="2.29189">
        <ele>85.8</ele>
        <time>2022-10-29T12:37:24Z</time>
      </trkpt>
      <trkpt lat="49.85228" lon="2.29191">
        <ele>85.8</ele>
        <time>2022-10-29T12:37:25Z</time>
      </trkpt>
      <trkpt lat="49.85228" lon="2.29194">
        <ele>85.7</ele>
        <time>2022-10-29T12:37:26Z</time>
      </trkpt>
      <trkpt lat="49.85228" lon="2.29196">
        <ele>85.7</ele>
        <time>2022-10-29T12:37:27Z</time>
      </trkpt>
      <trkpt lat="49.85228" lon="2.29197">
        <ele>85.7</ele>
        <time>2022-10-29T12:37:28Z</time>
      </trkpt>
      <trkpt lat="49.85228" lon="2.29199">
        <ele>85.7</ele>
        <time>2022-10-29T12:37:30Z</time>
      </trkpt>
      <trkpt lat="49.85228" lon="2.292">
        <ele>85.6</ele>
        <time>2022-10-29T12:37:31Z</time>
      </trkpt>
      <trkpt lat="49.85228" lon="2.29203">
        <ele>85.6</ele>
        <time>2022-10-29T12:37:32Z</time>
      </trkpt>
      <trkpt lat="49.85228" lon="2.29206">
        <ele>85.5</ele>
        <time>2022-10-29T12:37:33Z</time>
      </trkpt>
      <trkpt lat="49.85228" lon="2.29207">
        <ele>85.5</ele>
        <time>2022-10-29T12:37:34Z</time>
      </trkpt>
      <trkpt lat="49.85228" lon="2.29209">
        <ele>85.4</ele>
        <time>2022-10-29T12:37:35Z</time>
      </trkpt>
      <trkpt lat="49.85229" lon="2.2921">
        <ele>85.4</ele>
        <time>2022-10-29T12:37:36Z</time>
      </trkpt>
      <trkpt lat="49.85229" lon="2.29212">
        <ele>85.4</ele>
        <time>2022-10-29T12:37:37Z</time>
      </trkpt>
      <trkpt lat="49.85229" lon="2.29215">
        <ele>85.3</ele>
        <time>2022-10-29T12:37:39Z</time>
      </trkpt>
      <trkpt lat="49.8523" lon="2.29216">
        <ele>85.3</ele>
        <time>2022-10-29T12:37:40Z</time>
      </trkpt>
      <trkpt lat="49.8523" lon="2.29217">
        <ele>85.3</ele>
        <time>2022-10-29T12:37:41Z</time>
      </trkpt>
      <trkpt lat="49.8523" lon="2.29219">
        <ele>85.2</ele>
        <time>2022-10-29T12:37:42Z</time>
      </trkpt>
      <trkpt lat="49.8523" lon="2.29221">
        <ele>85.2</ele>
        <time>2022-10-29T12:37:43Z</time>
      </trkpt>
      <trkpt lat="49.8523" lon="2.29222">
        <ele>85.1</ele>
        <time>2022-10-29T12:37:44Z</time>
      </trkpt>
      <trkpt lat="49.85231" lon="2.29224">
        <ele>85.1</ele>
        <time>2022-10-29T12:37:45Z</time>
      </trkpt>
      <trkpt lat="49.85231" lon="2.29227">
        <ele>85.1</ele>
        <time>2022-10-29T12:37:46Z</time>
      </trkpt>
      <trkpt lat="49.85232" lon="2.29229">
        <ele>85</ele>
        <time>2022-10-29T12:37:47Z</time>
      </trkpt>
      <trkpt lat="49.85232" lon="2.2923">
        <ele>85</ele>
        <time>2022-10-29T12:37:48Z</time>
      </trkpt>
      <trkpt lat="49.85233" lon="2.29233">
        <ele>85</ele>
        <time>2022-10-29T12:37:50Z</time>
      </trkpt>
      <trkpt lat="49.85233" lon="2.29234">
        <ele>85</ele>
        <time>2022-10-29T12:37:51Z</time>
      </trkpt>
      <trkpt lat="49.85234" lon="2.29236">
        <ele>85</ele>
        <time>2022-10-29T12:37:52Z</time>
      </trkpt>
      <trkpt lat="49.85235" lon="2.29238">
        <ele>84.9</ele>
        <time>2022-10-29T12:37:54Z</time>
      </trkpt>
      <trkpt lat="49.85235" lon="2.2924">
        <ele>84.9</ele>
        <time>2022-10-29T12:37:55Z</time>
      </trkpt>
      <trkpt lat="49.85236" lon="2.29241">
        <ele>84.9</ele>
        <time>2022-10-29T12:37:56Z</time>
      </trkpt>
      <trkpt lat="49.85236" lon="2.29243">
        <ele>84.9</ele>
        <time>2022-10-29T12:37:57Z</time>
      </trkpt>
      <trkpt lat="49.85237" lon="2.29245">
        <ele>84.9</ele>
        <time>2022-10-29T12:37:58Z</time>
      </trkpt>
      <trkpt lat="49.85237" lon="2.29248">
        <ele>84.8</ele>
        <time>2022-10-29T12:37:59Z</time>
      </trkpt>
      <trkpt lat="49.85237" lon="2.2925">
        <ele>84.8</ele>
        <time>2022-10-29T12:38:00Z</time>
      </trkpt>
      <trkpt lat="49.85237" lon="2.29251">
        <ele>84.8</ele>
        <time>2022-10-29T12:38:01Z</time>
      </trkpt>
      <trkpt lat="49.85238" lon="2.29253">
        <ele>84.8</ele>
        <time>2022-10-29T12:38:02Z</time>
      </trkpt>
      <trkpt lat="49.85238" lon="2.29255">
        <ele>84.8</ele>
        <time>2022-10-29T12:38:04Z</time>
      </trkpt>
      <trkpt lat="49.85238" lon="2.29257">
        <ele>84.8</ele>
        <time>2022-10-29T12:38:05Z</time>
      </trkpt>
      <trkpt lat="49.85239" lon="2.29258">
        <ele>84.8</ele>
        <time>2022-10-29T12:38:06Z</time>
      </trkpt>
      <trkpt lat="49.85239" lon="2.2926">
        <ele>84.8</ele>
        <time>2022-10-29T12:38:07Z</time>
      </trkpt>
      <trkpt lat="49.85239" lon="2.29263">
        <ele>84.8</ele>
        <time>2022-10-29T12:38:08Z</time>
      </trkpt>
      <trkpt lat="49.85239" lon="2.29264">
        <ele>84.7</ele>
        <time>2022-10-29T12:38:09Z</time>
      </trkpt>
      <trkpt lat="49.85239" lon="2.29266">
        <ele>84.7</ele>
        <time>2022-10-29T12:38:10Z</time>
      </trkpt>
      <trkpt lat="49.8524" lon="2.29267">
        <ele>84.7</ele>
        <time>2022-10-29T12:38:11Z</time>
      </trkpt>
      <trkpt lat="49.8524" lon="2.29269">
        <ele>84.7</ele>
        <time>2022-10-29T12:38:12Z</time>
      </trkpt>
      <trkpt lat="49.8524" lon="2.29271">
        <ele>84.7</ele>
        <time>2022-10-29T12:38:13Z</time>
      </trkpt>
      <trkpt lat="49.8524" lon="2.29273">
        <ele>84.6</ele>
        <time>2022-10-29T12:38:14Z</time>
      </trkpt>
      <trkpt lat="49.8524" lon="2.29275">
        <ele>84.6</ele>
        <time>2022-10-29T12:38:16Z</time>
      </trkpt>
      <trkpt lat="49.85239" lon="2.29276">
        <ele>84.6</ele>
        <time>2022-10-29T12:38:17Z</time>
      </trkpt>
      <trkpt lat="49.85239" lon="2.29278">
        <ele>84.6</ele>
        <time>2022-10-29T12:38:18Z</time>
      </trkpt>
      <trkpt lat="49.85239" lon="2.2928">
        <ele>84.6</ele>
        <time>2022-10-29T12:38:19Z</time>
      </trkpt>
      <trkpt lat="49.85239" lon="2.29283">
        <ele>84.6</ele>
        <time>2022-10-29T12:38:20Z</time>
      </trkpt>
      <trkpt lat="49.85239" lon="2.29284">
        <ele>84.6</ele>
        <time>2022-10-29T12:38:21Z</time>
      </trkpt>
      <trkpt lat="49.85239" lon="2.29285">
        <ele>84.6</ele>
        <time>2022-10-29T12:38:22Z</time>
      </trkpt>
      <trkpt lat="49.85239" lon="2.29288">
        <ele>84.6</ele>
        <time>2022-10-29T12:38:23Z</time>
      </trkpt>
      <trkpt lat="49.85239" lon="2.29289">
        <ele>84.6</ele>
        <time>2022-10-29T12:38:24Z</time>
      </trkpt>
      <trkpt lat="49.85239" lon="2.2929">
        <ele>84.6</ele>
        <time>2022-10-29T12:38:26Z</time>
      </trkpt>
      <trkpt lat="49.8524" lon="2.29292">
        <ele>84.6</ele>
        <time>2022-10-29T12:38:27Z</time>
      </trkpt>
      <trkpt lat="49.8524" lon="2.29294">
        <ele>84.6</ele>
        <time>2022-10-29T12:38:29Z</time>
      </trkpt>
      <trkpt lat="49.8524" lon="2.29296">
        <ele>84.7</ele>
        <time>2022-10-29T12:38:31Z</time>
      </trkpt>
      <trkpt lat="49.8524" lon="2.29297">
        <ele>84.7</ele>
        <time>2022-10-29T12:38:32Z</time>
      </trkpt>
      <trkpt lat="49.8524" lon="2.29298">
        <ele>84.7</ele>
        <time>2022-10-29T12:38:34Z</time>
      </trkpt>
      <trkpt lat="49.8524" lon="2.29298">
        <ele>84.7</ele>
        <time>2022-10-29T12:38:35Z</time>
      </trkpt>
      <trkpt lat="49.8524" lon="2.29298">
        <ele>84.7</ele>
        <time>2022-10-29T12:38:36Z</time>
      </trkpt>
      <trkpt lat="49.8524" lon="2.29298">
        <ele>84.7</ele>
        <time>2022-10-29T12:38:37Z</time>
      </trkpt>
      <trkpt lat="49.8524" lon="2.29297">
        <ele>84.7</ele>
        <time>2022-10-29T12:38:38Z</time>
      </trkpt>
      <trkpt lat="49.8524" lon="2.29297">
        <ele>84.7</ele>
        <time>2022-10-29T12:38:39Z</time>
      </trkpt>
      <trkpt lat="49.8524" lon="2.29297">
        <ele>84.7</ele>
        <time>2022-10-29T12:38:40Z</time>
      </trkpt>
      <trkpt lat="49.8524" lon="2.29297">
        <ele>84.7</ele>
        <time>2022-10-29T12:38:41Z</time>
      </trkpt>
      <trkpt lat="49.8524" lon="2.29297">
        <ele>84.7</ele>
        <time>2022-10-29T12:38:42Z</time>
      </trkpt>
      <trkpt lat="49.8524" lon="2.29297">
        <ele>84.7</ele>
        <time>2022-10-29T12:38:43Z</time>
      </trkpt>
      <trkpt lat="49.85239" lon="2.29297">
        <ele>84.7</ele>
        <time>2022-10-29T12:38:44Z</time>
      </trkpt>
      <trkpt lat="49.85239" lon="2.29297">
        <ele>84.7</ele>
        <time>2022-10-29T12:38:45Z</time>
      </trkpt>
      <trkpt lat="49.85239" lon="2.29297">
        <ele>84.7</ele>
        <time>2022-10-29T12:38:47Z</time>
      </trkpt>
      <trkpt lat="49.85239" lon="2.29297">
        <ele>84.7</ele>
        <time>2022-10-29T12:38:48Z</time>
      </trkpt>
      <trkpt lat="49.85239" lon="2.29297">
        <ele>84.7</ele>
        <time>2022-10-29T12:38:49Z</time>
      </trkpt>
      <trkpt lat="49.8524" lon="2.29296">
        <ele>84.7</ele>
        <time>2022-10-29T12:38:50Z</time>
      </trkpt>
      <trkpt lat="49.8524" lon="2.29296">
        <ele>84.7</ele>
        <time>2022-10-29T12:38:51Z</time>
      </trkpt>
      <trkpt lat="49.8524" lon="2.29296">
        <ele>84.7</ele>
        <time>2022-10-29T12:38:52Z</time>
      </trkpt>
      <trkpt lat="49.8524" lon="2.29295">
        <ele>84.7</ele>
        <time>2022-10-29T12:38:53Z</time>
      </trkpt>
      <trkpt lat="49.85239" lon="2.29294">
        <ele>84.7</ele>
        <time>2022-10-29T12:38:54Z</time>
      </trkpt>
      <trkpt lat="49.85239" lon="2.29292">
        <ele>84.7</ele>
        <time>2022-10-29T12:38:55Z</time>
      </trkpt>
      <trkpt lat="49.85239" lon="2.29292">
        <ele>84.7</ele>
        <time>2022-10-29T12:38:56Z</time>
      </trkpt>
      <trkpt lat="49.85239" lon="2.29292">
        <ele>84.7</ele>
        <time>2022-10-29T12:38:57Z</time>
      </trkpt>
      <trkpt lat="49.85239" lon="2.29292">
        <ele>84.7</ele>
        <time>2022-10-29T12:38:58Z</time>
      </trkpt>
      <trkpt lat="49.85239" lon="2.29292">
        <ele>84.7</ele>
        <time>2022-10-29T12:38:59Z</time>
      </trkpt>
      <trkpt lat="49.85239" lon="2.29292">
        <ele>84.7</ele>
        <time>2022-10-29T12:39:00Z</time>
      </trkpt>
      <trkpt lat="49.85239" lon="2.29292">
        <ele>84.7</ele>
        <time>2022-10-29T12:39:01Z</time>
      </trkpt>
      <trkpt lat="49.85239" lon="2.29292">
        <ele>84.7</ele>
        <time>2022-10-29T12:39:02Z</time>
      </trkpt>
      <trkpt lat="49.85239" lon="2.29292">
        <ele>84.7</ele>
        <time>2022-10-29T12:39:03Z</time>
      </trkpt>
      <trkpt lat="49.85239" lon="2.29292">
        <ele>84.7</ele>
        <time>2022-10-29T12:39:04Z</time>
      </trkpt>
      <trkpt lat="49.85239" lon="2.29292">
        <ele>84.7</ele>
        <time>2022-10-29T12:39:05Z</time>
      </trkpt>
      <trkpt lat="49.85239" lon="2.29292">
        <ele>84.7</ele>
        <time>2022-10-29T12:39:06Z</time>
      </trkpt>
      <trkpt lat="49.8524" lon="2.29293">
        <ele>84.7</ele>
        <time>2022-10-29T12:39:07Z</time>
      </trkpt>
      <trkpt lat="49.8524" lon="2.29293">
        <ele>84.7</ele>
        <time>2022-10-29T12:39:08Z</time>
      </trkpt>
      <trkpt lat="49.8524" lon="2.29293">
        <ele>84.7</ele>
        <time>2022-10-29T12:39:10Z</time>
      </trkpt>
      <trkpt lat="49.8524" lon="2.29294">
        <ele>84.7</ele>
        <time>2022-10-29T12:39:11Z</time>
      </trkpt>
      <trkpt lat="49.85241" lon="2.29295">
        <ele>84.7</ele>
        <time>2022-10-29T12:39:12Z</time>
      </trkpt>
      <trkpt lat="49.85242" lon="2.29298">
        <ele>84.7</ele>
        <time>2022-10-29T12:39:13Z</time>
      </trkpt>
      <trkpt lat="49.85242" lon="2.293">
        <ele>84.7</ele>
        <time>2022-10-29T12:39:15Z</time>
      </trkpt>
      <trkpt lat="49.85242" lon="2.29301">
        <ele>84.7</ele>
        <time>2022-10-29T12:39:16Z</time>
      </trkpt>
      <trkpt lat="49.85243" lon="2.29303">
        <ele>84.8</ele>
        <time>2022-10-29T12:39:17Z</time>
      </trkpt>
      <trkpt lat="49.85243" lon="2.29305">
        <ele>84.8</ele>
        <time>2022-10-29T12:39:18Z</time>
      </trkpt>
      <trkpt lat="49.85244" lon="2.29306">
        <ele>84.8</ele>
        <time>2022-10-29T12:39:19Z</time>
      </trkpt>
      <trkpt lat="49.85244" lon="2.29307">
        <ele>84.8</ele>
        <time>2022-10-29T12:39:20Z</time>
      </trkpt>
      <trkpt lat="49.85245" lon="2.29309">
        <ele>84.8</ele>
        <time>2022-10-29T12:39:22Z</time>
      </trkpt>
      <trkpt lat="49.85246" lon="2.29309">
        <ele>84.8</ele>
        <time>2022-10-29T12:39:23Z</time>
      </trkpt>
      <trkpt lat="49.85247" lon="2.29309">
        <ele>84.8</ele>
        <time>2022-10-29T12:39:25Z</time>
      </trkpt>
      <trkpt lat="49.85247" lon="2.29309">
        <ele>84.8</ele>
        <time>2022-10-29T12:39:26Z</time>
      </trkpt>
      <trkpt lat="49.85247" lon="2.29308">
        <ele>84.8</ele>
        <time>2022-10-29T12:39:27Z</time>
      </trkpt>
      <trkpt lat="49.85247" lon="2.29309">
        <ele>84.8</ele>
        <time>2022-10-29T12:39:28Z</time>
      </trkpt>
      <trkpt lat="49.85247" lon="2.29309">
        <ele>84.8</ele>
        <time>2022-10-29T12:39:29Z</time>
      </trkpt>
      <trkpt lat="49.85246" lon="2.2931">
        <ele>84.8</ele>
        <time>2022-10-29T12:39:30Z</time>
      </trkpt>
      <trkpt lat="49.85246" lon="2.2931">
        <ele>84.8</ele>
        <time>2022-10-29T12:39:31Z</time>
      </trkpt>
      <trkpt lat="49.85246" lon="2.29311">
        <ele>84.8</ele>
        <time>2022-10-29T12:39:32Z</time>
      </trkpt>
      <trkpt lat="49.85246" lon="2.29311">
        <ele>84.8</ele>
        <time>2022-10-29T12:39:33Z</time>
      </trkpt>
      <trkpt lat="49.85246" lon="2.29311">
        <ele>84.8</ele>
        <time>2022-10-29T12:39:34Z</time>
      </trkpt>
      <trkpt lat="49.85246" lon="2.29311">
        <ele>84.8</ele>
        <time>2022-10-29T12:39:35Z</time>
      </trkpt>
      <trkpt lat="49.85246" lon="2.29312">
        <ele>84.8</ele>
        <time>2022-10-29T12:39:36Z</time>
      </trkpt>
      <trkpt lat="49.85246" lon="2.29312">
        <ele>84.8</ele>
        <time>2022-10-29T12:39:37Z</time>
      </trkpt>
      <trkpt lat="49.85246" lon="2.29312">
        <ele>84.8</ele>
        <time>2022-10-29T12:39:38Z</time>
      </trkpt>
      <trkpt lat="49.85246" lon="2.29313">
        <ele>84.8</ele>
        <time>2022-10-29T12:39:39Z</time>
      </trkpt>
      <trkpt lat="49.85246" lon="2.29313">
        <ele>84.8</ele>
        <time>2022-10-29T12:39:40Z</time>
      </trkpt>
      <trkpt lat="49.85246" lon="2.29313">
        <ele>84.8</ele>
        <time>2022-10-29T12:39:41Z</time>
      </trkpt>
      <trkpt lat="49.85245" lon="2.29313">
        <ele>84.8</ele>
        <time>2022-10-29T12:39:42Z</time>
      </trkpt>
      <trkpt lat="49.85245" lon="2.29313">
        <ele>84.8</ele>
        <time>2022-10-29T12:39:43Z</time>
      </trkpt>
      <trkpt lat="49.85245" lon="2.29312">
        <ele>84.8</ele>
        <time>2022-10-29T12:39:44Z</time>
      </trkpt>
      <trkpt lat="49.85245" lon="2.29312">
        <ele>84.8</ele>
        <time>2022-10-29T12:39:45Z</time>
      </trkpt>
      <trkpt lat="49.85245" lon="2.29311">
        <ele>84.8</ele>
        <time>2022-10-29T12:39:46Z</time>
      </trkpt>
      <trkpt lat="49.85244" lon="2.2931">
        <ele>84.8</ele>
        <time>2022-10-29T12:39:47Z</time>
      </trkpt>
      <trkpt lat="49.85244" lon="2.2931">
        <ele>84.8</ele>
        <time>2022-10-29T12:39:49Z</time>
      </trkpt>
      <trkpt lat="49.85244" lon="2.29312">
        <ele>84.8</ele>
        <time>2022-10-29T12:39:50Z</time>
      </trkpt>
      <trkpt lat="49.85244" lon="2.29312">
        <ele>84.8</ele>
        <time>2022-10-29T12:39:51Z</time>
      </trkpt>
      <trkpt lat="49.85244" lon="2.29313">
        <ele>84.8</ele>
        <time>2022-10-29T12:39:53Z</time>
      </trkpt>
      <trkpt lat="49.85244" lon="2.29314">
        <ele>84.8</ele>
        <time>2022-10-29T12:39:54Z</time>
      </trkpt>
      <trkpt lat="49.85244" lon="2.29314">
        <ele>84.8</ele>
        <time>2022-10-29T12:39:55Z</time>
      </trkpt>
      <trkpt lat="49.85244" lon="2.29315">
        <ele>84.8</ele>
        <time>2022-10-29T12:39:56Z</time>
      </trkpt>
      <trkpt lat="49.85244" lon="2.29316">
        <ele>84.8</ele>
        <time>2022-10-29T12:39:58Z</time>
      </trkpt>
      <trkpt lat="49.85244" lon="2.29318">
        <ele>84.8</ele>
        <time>2022-10-29T12:39:59Z</time>
      </trkpt>
      <trkpt lat="49.85244" lon="2.29318">
        <ele>84.8</ele>
        <time>2022-10-29T12:40:00Z</time>
      </trkpt>
      <trkpt lat="49.85244" lon="2.29318">
        <ele>84.8</ele>
        <time>2022-10-29T12:40:01Z</time>
      </trkpt>
      <trkpt lat="49.85243" lon="2.29317">
        <ele>84.8</ele>
        <time>2022-10-29T12:40:03Z</time>
      </trkpt>
      <trkpt lat="49.85243" lon="2.29317">
        <ele>84.8</ele>
        <time>2022-10-29T12:40:04Z</time>
      </trkpt>
      <trkpt lat="49.85243" lon="2.29317">
        <ele>84.8</ele>
        <time>2022-10-29T12:40:05Z</time>
      </trkpt>
      <trkpt lat="49.85243" lon="2.29317">
        <ele>84.8</ele>
        <time>2022-10-29T12:40:06Z</time>
      </trkpt>
      <trkpt lat="49.85243" lon="2.29317">
        <ele>84.8</ele>
        <time>2022-10-29T12:40:07Z</time>
      </trkpt>
      <trkpt lat="49.85243" lon="2.29317">
        <ele>84.8</ele>
        <time>2022-10-29T12:40:08Z</time>
      </trkpt>
      <trkpt lat="49.85244" lon="2.29317">
        <ele>84.8</ele>
        <time>2022-10-29T12:40:09Z</time>
      </trkpt>
      <trkpt lat="49.85244" lon="2.29317">
        <ele>84.8</ele>
        <time>2022-10-29T12:40:10Z</time>
      </trkpt>
      <trkpt lat="49.85244" lon="2.29317">
        <ele>84.8</ele>
        <time>2022-10-29T12:40:11Z</time>
      </trkpt>
      <trkpt lat="49.85244" lon="2.29317">
        <ele>84.8</ele>
        <time>2022-10-29T12:40:12Z</time>
      </trkpt>
      <trkpt lat="49.85244" lon="2.29317">
        <ele>84.8</ele>
        <time>2022-10-29T12:40:13Z</time>
      </trkpt>
      <trkpt lat="49.85244" lon="2.29318">
        <ele>84.8</ele>
        <time>2022-10-29T12:40:14Z</time>
      </trkpt>
      <trkpt lat="49.85244" lon="2.29318">
        <ele>84.8</ele>
        <time>2022-10-29T12:40:15Z</time>
      </trkpt>
      <trkpt lat="49.85244" lon="2.29319">
        <ele>84.8</ele>
        <time>2022-10-29T12:40:16Z</time>
      </trkpt>
      <trkpt lat="49.85244" lon="2.29319">
        <ele>84.8</ele>
        <time>2022-10-29T12:40:17Z</time>
      </trkpt>
      <trkpt lat="49.85244" lon="2.29318">
        <ele>84.8</ele>
        <time>2022-10-29T12:40:18Z</time>
      </trkpt>
      <trkpt lat="49.85243" lon="2.29318">
        <ele>84.8</ele>
        <time>2022-10-29T12:40:19Z</time>
      </trkpt>
      <trkpt lat="49.85243" lon="2.29318">
        <ele>84.8</ele>
        <time>2022-10-29T12:40:21Z</time>
      </trkpt>
      <trkpt lat="49.85242" lon="2.29319">
        <ele>84.8</ele>
        <time>2022-10-29T12:40:23Z</time>
      </trkpt>
      <trkpt lat="49.85241" lon="2.29319">
        <ele>84.8</ele>
        <time>2022-10-29T12:40:24Z</time>
      </trkpt>
      <trkpt lat="49.8524" lon="2.29319">
        <ele>84.9</ele>
        <time>2022-10-29T12:40:25Z</time>
      </trkpt>
      <trkpt lat="49.85239" lon="2.29318">
        <ele>84.9</ele>
        <time>2022-10-29T12:40:27Z</time>
      </trkpt>
      <trkpt lat="49.85239" lon="2.29319">
        <ele>84.9</ele>
        <time>2022-10-29T12:40:28Z</time>
      </trkpt>
      <trkpt lat="49.85238" lon="2.29319">
        <ele>84.9</ele>
        <time>2022-10-29T12:40:29Z</time>
      </trkpt>
      <trkpt lat="49.85237" lon="2.29319">
        <ele>84.9</ele>
        <time>2022-10-29T12:40:31Z</time>
      </trkpt>
      <trkpt lat="49.85236" lon="2.29319">
        <ele>84.9</ele>
        <time>2022-10-29T12:40:32Z</time>
      </trkpt>
      <trkpt lat="49.85235" lon="2.29319">
        <ele>84.9</ele>
        <time>2022-10-29T12:40:34Z</time>
      </trkpt>
      <trkpt lat="49.85235" lon="2.2932">
        <ele>84.9</ele>
        <time>2022-10-29T12:40:35Z</time>
      </trkpt>
      <trkpt lat="49.85234" lon="2.2932">
        <ele>84.9</ele>
        <time>2022-10-29T12:40:36Z</time>
      </trkpt>
      <trkpt lat="49.85233" lon="2.2932">
        <ele>84.9</ele>
        <time>2022-10-29T12:40:37Z</time>
      </trkpt>
      <trkpt lat="49.85232" lon="2.29321">
        <ele>84.9</ele>
        <time>2022-10-29T12:40:38Z</time>
      </trkpt>
      <trkpt lat="49.85232" lon="2.29321">
        <ele>84.9</ele>
        <time>2022-10-29T12:40:40Z</time>
      </trkpt>
      <trkpt lat="49.85232" lon="2.29322">
        <ele>84.9</ele>
        <time>2022-10-29T12:40:41Z</time>
      </trkpt>
      <trkpt lat="49.85232" lon="2.29322">
        <ele>84.9</ele>
        <time>2022-10-29T12:40:42Z</time>
      </trkpt>
      <trkpt lat="49.8523" lon="2.29323">
        <ele>84.9</ele>
        <time>2022-10-29T12:40:44Z</time>
      </trkpt>
      <trkpt lat="49.8523" lon="2.29322">
        <ele>84.9</ele>
        <time>2022-10-29T12:40:46Z</time>
      </trkpt>
      <trkpt lat="49.85229" lon="2.29322">
        <ele>84.9</ele>
        <time>2022-10-29T12:40:47Z</time>
      </trkpt>
      <trkpt lat="49.85228" lon="2.29323">
        <ele>84.9</ele>
        <time>2022-10-29T12:40:48Z</time>
      </trkpt>
      <trkpt lat="49.85228" lon="2.29322">
        <ele>84.9</ele>
        <time>2022-10-29T12:40:50Z</time>
      </trkpt>
      <trkpt lat="49.85228" lon="2.29322">
        <ele>84.9</ele>
        <time>2022-10-29T12:40:51Z</time>
      </trkpt>
      <trkpt lat="49.85227" lon="2.29321">
        <ele>84.9</ele>
        <time>2022-10-29T12:40:52Z</time>
      </trkpt>
      <trkpt lat="49.85226" lon="2.29321">
        <ele>84.9</ele>
        <time>2022-10-29T12:40:54Z</time>
      </trkpt>
      <trkpt lat="49.85225" lon="2.29321">
        <ele>84.9</ele>
        <time>2022-10-29T12:40:55Z</time>
      </trkpt>
      <trkpt lat="49.85224" lon="2.29321">
        <ele>84.9</ele>
        <time>2022-10-29T12:40:56Z</time>
      </trkpt>
      <trkpt lat="49.85224" lon="2.29321">
        <ele>84.9</ele>
        <time>2022-10-29T12:40:57Z</time>
      </trkpt>
      <trkpt lat="49.85223" lon="2.29321">
        <ele>84.9</ele>
        <time>2022-10-29T12:40:59Z</time>
      </trkpt>
      <trkpt lat="49.85222" lon="2.29321">
        <ele>84.9</ele>
        <time>2022-10-29T12:41:00Z</time>
      </trkpt>
      <trkpt lat="49.85221" lon="2.29321">
        <ele>84.9</ele>
        <time>2022-10-29T12:41:01Z</time>
      </trkpt>
      <trkpt lat="49.8522" lon="2.2932">
        <ele>84.9</ele>
        <time>2022-10-29T12:41:03Z</time>
      </trkpt>
      <trkpt lat="49.85219" lon="2.2932">
        <ele>84.9</ele>
        <time>2022-10-29T12:41:04Z</time>
      </trkpt>
      <trkpt lat="49.85219" lon="2.29319">
        <ele>84.9</ele>
        <time>2022-10-29T12:41:05Z</time>
      </trkpt>
      <trkpt lat="49.85218" lon="2.29319">
        <ele>85</ele>
        <time>2022-10-29T12:41:06Z</time>
      </trkpt>
      <trkpt lat="49.85217" lon="2.29318">
        <ele>85</ele>
        <time>2022-10-29T12:41:08Z</time>
      </trkpt>
      <trkpt lat="49.85216" lon="2.29317">
        <ele>85</ele>
        <time>2022-10-29T12:41:09Z</time>
      </trkpt>
      <trkpt lat="49.85215" lon="2.29316">
        <ele>85</ele>
        <time>2022-10-29T12:41:11Z</time>
      </trkpt>
      <trkpt lat="49.85214" lon="2.29315">
        <ele>85</ele>
        <time>2022-10-29T12:41:12Z</time>
      </trkpt>
      <trkpt lat="49.85213" lon="2.29314">
        <ele>85</ele>
        <time>2022-10-29T12:41:13Z</time>
      </trkpt>
      <trkpt lat="49.85212" lon="2.29312">
        <ele>85</ele>
        <time>2022-10-29T12:41:14Z</time>
      </trkpt>
      <trkpt lat="49.85211" lon="2.29311">
        <ele>85</ele>
        <time>2022-10-29T12:41:16Z</time>
      </trkpt>
      <trkpt lat="49.8521" lon="2.29309">
        <ele>85</ele>
        <time>2022-10-29T12:41:17Z</time>
      </trkpt>
      <trkpt lat="49.8521" lon="2.29308">
        <ele>85</ele>
        <time>2022-10-29T12:41:18Z</time>
      </trkpt>
      <trkpt lat="49.85209" lon="2.29307">
        <ele>85</ele>
        <time>2022-10-29T12:41:20Z</time>
      </trkpt>
      <trkpt lat="49.85208" lon="2.29305">
        <ele>85.1</ele>
        <time>2022-10-29T12:41:21Z</time>
      </trkpt>
      <trkpt lat="49.85208" lon="2.29304">
        <ele>85.1</ele>
        <time>2022-10-29T12:41:22Z</time>
      </trkpt>
      <trkpt lat="49.85207" lon="2.29303">
        <ele>85.1</ele>
        <time>2022-10-29T12:41:24Z</time>
      </trkpt>
      <trkpt lat="49.85207" lon="2.29302">
        <ele>85.1</ele>
        <time>2022-10-29T12:41:25Z</time>
      </trkpt>
      <trkpt lat="49.85206" lon="2.29302">
        <ele>85.1</ele>
        <time>2022-10-29T12:41:26Z</time>
      </trkpt>
      <trkpt lat="49.85206" lon="2.29301">
        <ele>85.1</ele>
        <time>2022-10-29T12:41:28Z</time>
      </trkpt>
      <trkpt lat="49.85205" lon="2.293">
        <ele>85.1</ele>
        <time>2022-10-29T12:41:30Z</time>
      </trkpt>
      <trkpt lat="49.85205" lon="2.293">
        <ele>85.1</ele>
        <time>2022-10-29T12:41:31Z</time>
      </trkpt>
      <trkpt lat="49.85204" lon="2.293">
        <ele>85.1</ele>
        <time>2022-10-29T12:41:32Z</time>
      </trkpt>
      <trkpt lat="49.85204" lon="2.293">
        <ele>85.1</ele>
        <time>2022-10-29T12:41:33Z</time>
      </trkpt>
      <trkpt lat="49.85204" lon="2.293">
        <ele>85.1</ele>
        <time>2022-10-29T12:41:35Z</time>
      </trkpt>
      <trkpt lat="49.85204" lon="2.293">
        <ele>85.1</ele>
        <time>2022-10-29T12:41:36Z</time>
      </trkpt>
      <trkpt lat="49.85204" lon="2.29299">
        <ele>85.1</ele>
        <time>2022-10-29T12:41:38Z</time>
      </trkpt>
      <trkpt lat="49.85204" lon="2.29299">
        <ele>85.1</ele>
        <time>2022-10-29T12:41:39Z</time>
      </trkpt>
      <trkpt lat="49.85204" lon="2.29299">
        <ele>85.1</ele>
        <time>2022-10-29T12:41:40Z</time>
      </trkpt>
      <trkpt lat="49.85204" lon="2.29298">
        <ele>85.1</ele>
        <time>2022-10-29T12:41:41Z</time>
      </trkpt>
      <trkpt lat="49.85203" lon="2.29298">
        <ele>85.1</ele>
        <time>2022-10-29T12:41:42Z</time>
      </trkpt>
      <trkpt lat="49.85203" lon="2.29297">
        <ele>85.1</ele>
        <time>2022-10-29T12:41:44Z</time>
      </trkpt>
      <trkpt lat="49.85203" lon="2.29296">
        <ele>85.1</ele>
        <time>2022-10-29T12:41:46Z</time>
      </trkpt>
      <trkpt lat="49.85202" lon="2.29296">
        <ele>85.1</ele>
        <time>2022-10-29T12:41:47Z</time>
      </trkpt>
      <trkpt lat="49.85202" lon="2.29296">
        <ele>85.1</ele>
        <time>2022-10-29T12:41:48Z</time>
      </trkpt>
      <trkpt lat="49.85202" lon="2.29295">
        <ele>85.1</ele>
        <time>2022-10-29T12:41:49Z</time>
      </trkpt>
      <trkpt lat="49.85201" lon="2.29295">
        <ele>85.2</ele>
        <time>2022-10-29T12:41:51Z</time>
      </trkpt>
      <trkpt lat="49.85201" lon="2.29295">
        <ele>85.2</ele>
        <time>2022-10-29T12:41:52Z</time>
      </trkpt>
      <trkpt lat="49.85201" lon="2.29295">
        <ele>85.2</ele>
        <time>2022-10-29T12:41:53Z</time>
      </trkpt>
      <trkpt lat="49.85201" lon="2.29295">
        <ele>85.2</ele>
        <time>2022-10-29T12:41:54Z</time>
      </trkpt>
      <trkpt lat="49.852" lon="2.29295">
        <ele>85.2</ele>
        <time>2022-10-29T12:41:55Z</time>
      </trkpt>
      <trkpt lat="49.852" lon="2.29295">
        <ele>85.2</ele>
        <time>2022-10-29T12:41:56Z</time>
      </trkpt>
      <trkpt lat="49.852" lon="2.29296">
        <ele>85.2</ele>
        <time>2022-10-29T12:41:57Z</time>
      </trkpt>
      <trkpt lat="49.852" lon="2.29296">
        <ele>85.2</ele>
        <time>2022-10-29T12:41:58Z</time>
      </trkpt>
      <trkpt lat="49.852" lon="2.29296">
        <ele>85.2</ele>
        <time>2022-10-29T12:41:59Z</time>
      </trkpt>
      <trkpt lat="49.85199" lon="2.29297">
        <ele>85.2</ele>
        <time>2022-10-29T12:42:00Z</time>
      </trkpt>
      <trkpt lat="49.85199" lon="2.29297">
        <ele>85.2</ele>
        <time>2022-10-29T12:42:01Z</time>
      </trkpt>
      <trkpt lat="49.85198" lon="2.29298">
        <ele>85.2</ele>
        <time>2022-10-29T12:42:03Z</time>
      </trkpt>
      <trkpt lat="49.85197" lon="2.29299">
        <ele>85.2</ele>
        <time>2022-10-29T12:42:05Z</time>
      </trkpt>
      <trkpt lat="49.85196" lon="2.29299">
        <ele>85.2</ele>
        <time>2022-10-29T12:42:06Z</time>
      </trkpt>
      <trkpt lat="49.85196" lon="2.29301">
        <ele>85.2</ele>
        <time>2022-10-29T12:42:07Z</time>
      </trkpt>
      <trkpt lat="49.85195" lon="2.29302">
        <ele>85.3</ele>
        <time>2022-10-29T12:42:09Z</time>
      </trkpt>
      <trkpt lat="49.85194" lon="2.29303">
        <ele>85.3</ele>
        <time>2022-10-29T12:42:10Z</time>
      </trkpt>
      <trkpt lat="49.85194" lon="2.29304">
        <ele>85.3</ele>
        <time>2022-10-29T12:42:11Z</time>
      </trkpt>
      <trkpt lat="49.85194" lon="2.29305">
        <ele>85.3</ele>
        <time>2022-10-29T12:42:12Z</time>
      </trkpt>
      <trkpt lat="49.85194" lon="2.29306">
        <ele>85.3</ele>
        <time>2022-10-29T12:42:14Z</time>
      </trkpt>
      <trkpt lat="49.85194" lon="2.29308">
        <ele>85.3</ele>
        <time>2022-10-29T12:42:15Z</time>
      </trkpt>
      <trkpt lat="49.85194" lon="2.2931">
        <ele>85.3</ele>
        <time>2022-10-29T12:42:16Z</time>
      </trkpt>
      <trkpt lat="49.85194" lon="2.29313">
        <ele>85.4</ele>
        <time>2022-10-29T12:42:17Z</time>
      </trkpt>
      <trkpt lat="49.85194" lon="2.29315">
        <ele>85.4</ele>
        <time>2022-10-29T12:42:19Z</time>
      </trkpt>
      <trkpt lat="49.85194" lon="2.29316">
        <ele>85.4</ele>
        <time>2022-10-29T12:42:20Z</time>
      </trkpt>
      <trkpt lat="49.85193" lon="2.29317">
        <ele>85.4</ele>
        <time>2022-10-29T12:42:21Z</time>
      </trkpt>
      <trkpt lat="49.85192" lon="2.29318">
        <ele>85.4</ele>
        <time>2022-10-29T12:42:23Z</time>
      </trkpt>
      <trkpt lat="49.85191" lon="2.29318">
        <ele>85.4</ele>
        <time>2022-10-29T12:42:24Z</time>
      </trkpt>
      <trkpt lat="49.85191" lon="2.29319">
        <ele>85.4</ele>
        <time>2022-10-29T12:42:25Z</time>
      </trkpt>
      <trkpt lat="49.85189" lon="2.29319">
        <ele>85.4</ele>
        <time>2022-10-29T12:42:26Z</time>
      </trkpt>
      <trkpt lat="49.85188" lon="2.29319">
        <ele>85.5</ele>
        <time>2022-10-29T12:42:28Z</time>
      </trkpt>
      <trkpt lat="49.85186" lon="2.29318">
        <ele>85.5</ele>
        <time>2022-10-29T12:42:30Z</time>
      </trkpt>
      <trkpt lat="49.85185" lon="2.29317">
        <ele>85.5</ele>
        <time>2022-10-29T12:42:31Z</time>
      </trkpt>
      <trkpt lat="49.85185" lon="2.29316">
        <ele>85.5</ele>
        <time>2022-10-29T12:42:32Z</time>
      </trkpt>
      <trkpt lat="49.85184" lon="2.29314">
        <ele>85.5</ele>
        <time>2022-10-29T12:42:34Z</time>
      </trkpt>
      <trkpt lat="49.85184" lon="2.29313">
        <ele>85.5</ele>
        <time>2022-10-29T12:42:35Z</time>
      </trkpt>
      <trkpt lat="49.85183" lon="2.29312">
        <ele>85.5</ele>
        <time>2022-10-29T12:42:37Z</time>
      </trkpt>
      <trkpt lat="49.85183" lon="2.2931">
        <ele>85.6</ele>
        <time>2022-10-29T12:42:38Z</time>
      </trkpt>
      <trkpt lat="49.85183" lon="2.29309">
        <ele>85.6</ele>
        <time>2022-10-29T12:42:40Z</time>
      </trkpt>
      <trkpt lat="49.85183" lon="2.29307">
        <ele>85.6</ele>
        <time>2022-10-29T12:42:41Z</time>
      </trkpt>
      <trkpt lat="49.85183" lon="2.29305">
        <ele>85.6</ele>
        <time>2022-10-29T12:42:43Z</time>
      </trkpt>
      <trkpt lat="49.85183" lon="2.29303">
        <ele>85.6</ele>
        <time>2022-10-29T12:42:45Z</time>
      </trkpt>
      <trkpt lat="49.85184" lon="2.29301">
        <ele>85.6</ele>
        <time>2022-10-29T12:42:46Z</time>
      </trkpt>
      <trkpt lat="49.85184" lon="2.293">
        <ele>85.6</ele>
        <time>2022-10-29T12:42:47Z</time>
      </trkpt>
      <trkpt lat="49.85184" lon="2.29298">
        <ele>85.7</ele>
        <time>2022-10-29T12:42:49Z</time>
      </trkpt>
      <trkpt lat="49.85184" lon="2.29297">
        <ele>85.7</ele>
        <time>2022-10-29T12:42:50Z</time>
      </trkpt>
      <trkpt lat="49.85184" lon="2.29296">
        <ele>85.7</ele>
        <time>2022-10-29T12:42:51Z</time>
      </trkpt>
      <trkpt lat="49.85184" lon="2.29295">
        <ele>85.7</ele>
        <time>2022-10-29T12:42:52Z</time>
      </trkpt>
      <trkpt lat="49.85185" lon="2.29294">
        <ele>85.7</ele>
        <time>2022-10-29T12:42:53Z</time>
      </trkpt>
      <trkpt lat="49.85185" lon="2.29292">
        <ele>85.7</ele>
        <time>2022-10-29T12:42:55Z</time>
      </trkpt>
      <trkpt lat="49.85186" lon="2.29292">
        <ele>85.7</ele>
        <time>2022-10-29T12:42:57Z</time>
      </trkpt>
      <trkpt lat="49.85186" lon="2.29291">
        <ele>85.7</ele>
        <time>2022-10-29T12:42:58Z</time>
      </trkpt>
      <trkpt lat="49.85186" lon="2.2929">
        <ele>85.7</ele>
        <time>2022-10-29T12:42:59Z</time>
      </trkpt>
      <trkpt lat="49.85186" lon="2.2929">
        <ele>85.7</ele>
        <time>2022-10-29T12:43:01Z</time>
      </trkpt>
      <trkpt lat="49.85186" lon="2.29289">
        <ele>85.7</ele>
        <time>2022-10-29T12:43:02Z</time>
      </trkpt>
      <trkpt lat="49.85186" lon="2.29289">
        <ele>85.7</ele>
        <time>2022-10-29T12:43:04Z</time>
      </trkpt>
      <trkpt lat="49.85185" lon="2.29289">
        <ele>85.7</ele>
        <time>2022-10-29T12:43:05Z</time>
      </trkpt>
      <trkpt lat="49.85185" lon="2.29288">
        <ele>85.7</ele>
        <time>2022-10-29T12:43:07Z</time>
      </trkpt>
      <trkpt lat="49.85185" lon="2.29288">
        <ele>85.7</ele>
        <time>2022-10-29T12:43:08Z</time>
      </trkpt>
      <trkpt lat="49.85184" lon="2.29288">
        <ele>85.7</ele>
        <time>2022-10-29T12:43:09Z</time>
      </trkpt>
      <trkpt lat="49.85184" lon="2.29288">
        <ele>85.7</ele>
        <time>2022-10-29T12:43:10Z</time>
      </trkpt>
      <trkpt lat="49.85184" lon="2.29286">
        <ele>85.7</ele>
        <time>2022-10-29T12:43:12Z</time>
      </trkpt>
      <trkpt lat="49.85183" lon="2.29286">
        <ele>85.9</ele>
        <time>2022-10-29T12:43:13Z</time>
      </trkpt>
      <trkpt lat="49.85183" lon="2.29285">
        <ele>85.9</ele>
        <time>2022-10-29T12:43:14Z</time>
      </trkpt>
      <trkpt lat="49.85182" lon="2.29284">
        <ele>85.9</ele>
        <time>2022-10-29T12:43:15Z</time>
      </trkpt>
      <trkpt lat="49.85182" lon="2.29282">
        <ele>85.9</ele>
        <time>2022-10-29T12:43:16Z</time>
      </trkpt>
      <trkpt lat="49.85181" lon="2.29281">
        <ele>85.9</ele>
        <time>2022-10-29T12:43:18Z</time>
      </trkpt>
      <trkpt lat="49.85181" lon="2.2928">
        <ele>85.9</ele>
        <time>2022-10-29T12:43:19Z</time>
      </trkpt>
      <trkpt lat="49.8518" lon="2.29278">
        <ele>86</ele>
        <time>2022-10-29T12:43:20Z</time>
      </trkpt>
      <trkpt lat="49.8518" lon="2.29276">
        <ele>86</ele>
        <time>2022-10-29T12:43:22Z</time>
      </trkpt>
      <trkpt lat="49.85179" lon="2.29274">
        <ele>86</ele>
        <time>2022-10-29T12:43:23Z</time>
      </trkpt>
      <trkpt lat="49.85178" lon="2.29272">
        <ele>86.1</ele>
        <time>2022-10-29T12:43:24Z</time>
      </trkpt>
      <trkpt lat="49.85177" lon="2.29269">
        <ele>86.1</ele>
        <time>2022-10-29T12:43:26Z</time>
      </trkpt>
      <trkpt lat="49.85177" lon="2.29268">
        <ele>86.1</ele>
        <time>2022-10-29T12:43:27Z</time>
      </trkpt>
      <trkpt lat="49.85177" lon="2.29267">
        <ele>86.2</ele>
        <time>2022-10-29T12:43:28Z</time>
      </trkpt>
      <trkpt lat="49.85176" lon="2.29265">
        <ele>86.2</ele>
        <time>2022-10-29T12:43:30Z</time>
      </trkpt>
      <trkpt lat="49.85175" lon="2.29263">
        <ele>86.2</ele>
        <time>2022-10-29T12:43:31Z</time>
      </trkpt>
      <trkpt lat="49.85174" lon="2.2926">
        <ele>86.3</ele>
        <time>2022-10-29T12:43:32Z</time>
      </trkpt>
      <trkpt lat="49.85173" lon="2.29259">
        <ele>86.3</ele>
        <time>2022-10-29T12:43:34Z</time>
      </trkpt>
      <trkpt lat="49.85173" lon="2.29258">
        <ele>86.4</ele>
        <time>2022-10-29T12:43:35Z</time>
      </trkpt>
      <trkpt lat="49.85172" lon="2.29256">
        <ele>86.5</ele>
        <time>2022-10-29T12:43:36Z</time>
      </trkpt>
      <trkpt lat="49.85172" lon="2.29255">
        <ele>86.5</ele>
        <time>2022-10-29T12:43:38Z</time>
      </trkpt>
      <trkpt lat="49.85171" lon="2.29254">
        <ele>86.5</ele>
        <time>2022-10-29T12:43:39Z</time>
      </trkpt>
      <trkpt lat="49.85171" lon="2.29251">
        <ele>86.6</ele>
        <time>2022-10-29T12:43:40Z</time>
      </trkpt>
      <trkpt lat="49.8517" lon="2.2925">
        <ele>86.6</ele>
        <time>2022-10-29T12:43:42Z</time>
      </trkpt>
      <trkpt lat="49.8517" lon="2.29249">
        <ele>86.7</ele>
        <time>2022-10-29T12:43:43Z</time>
      </trkpt>
      <trkpt lat="49.85169" lon="2.29247">
        <ele>86.7</ele>
        <time>2022-10-29T12:43:45Z</time>
      </trkpt>
      <trkpt lat="49.85169" lon="2.29246">
        <ele>86.7</ele>
        <time>2022-10-29T12:43:46Z</time>
      </trkpt>
      <trkpt lat="49.85169" lon="2.29245">
        <ele>86.7</ele>
        <time>2022-10-29T12:43:47Z</time>
      </trkpt>
      <trkpt lat="49.85168" lon="2.29244">
        <ele>86.9</ele>
        <time>2022-10-29T12:43:48Z</time>
      </trkpt>
      <trkpt lat="49.85168" lon="2.29242">
        <ele>87</ele>
        <time>2022-10-29T12:43:49Z</time>
      </trkpt>
      <trkpt lat="49.85168" lon="2.29241">
        <ele>87</ele>
        <time>2022-10-29T12:43:51Z</time>
      </trkpt>
      <trkpt lat="49.85167" lon="2.29241">
        <ele>87</ele>
        <time>2022-10-29T12:43:52Z</time>
      </trkpt>
      <trkpt lat="49.85167" lon="2.29239">
        <ele>87</ele>
        <time>2022-10-29T12:43:53Z</time>
      </trkpt>
      <trkpt lat="49.85167" lon="2.29238">
        <ele>87.1</ele>
        <time>2022-10-29T12:43:54Z</time>
      </trkpt>
      <trkpt lat="49.85166" lon="2.29237">
        <ele>87.1</ele>
        <time>2022-10-29T12:43:55Z</time>
      </trkpt>
      <trkpt lat="49.85166" lon="2.29236">
        <ele>87.2</ele>
        <time>2022-10-29T12:43:56Z</time>
      </trkpt>
      <trkpt lat="49.85166" lon="2.29235">
        <ele>87.2</ele>
        <time>2022-10-29T12:43:58Z</time>
      </trkpt>
      <trkpt lat="49.85166" lon="2.29234">
        <ele>87.2</ele>
        <time>2022-10-29T12:43:59Z</time>
      </trkpt>
      <trkpt lat="49.85166" lon="2.29232">
        <ele>87.3</ele>
        <time>2022-10-29T12:44:00Z</time>
      </trkpt>
      <trkpt lat="49.85166" lon="2.2923">
        <ele>87.3</ele>
        <time>2022-10-29T12:44:01Z</time>
      </trkpt>
      <trkpt lat="49.85166" lon="2.29229">
        <ele>87.3</ele>
        <time>2022-10-29T12:44:02Z</time>
      </trkpt>
      <trkpt lat="49.85166" lon="2.29227">
        <ele>87.4</ele>
        <time>2022-10-29T12:44:03Z</time>
      </trkpt>
      <trkpt lat="49.85166" lon="2.29226">
        <ele>87.5</ele>
        <time>2022-10-29T12:44:05Z</time>
      </trkpt>
      <trkpt lat="49.85166" lon="2.29225">
        <ele>87.5</ele>
        <time>2022-10-29T12:44:06Z</time>
      </trkpt>
      <trkpt lat="49.85166" lon="2.29223">
        <ele>87.6</ele>
        <time>2022-10-29T12:44:08Z</time>
      </trkpt>
      <trkpt lat="49.85166" lon="2.29222">
        <ele>87.6</ele>
        <time>2022-10-29T12:44:09Z</time>
      </trkpt>
      <trkpt lat="49.85166" lon="2.29221">
        <ele>87.7</ele>
        <time>2022-10-29T12:44:10Z</time>
      </trkpt>
      <trkpt lat="49.85166" lon="2.29218">
        <ele>87.7</ele>
        <time>2022-10-29T12:44:11Z</time>
      </trkpt>
      <trkpt lat="49.85166" lon="2.29216">
        <ele>87.8</ele>
        <time>2022-10-29T12:44:13Z</time>
      </trkpt>
      <trkpt lat="49.85166" lon="2.29215">
        <ele>87.8</ele>
        <time>2022-10-29T12:44:14Z</time>
      </trkpt>
      <trkpt lat="49.85165" lon="2.29213">
        <ele>88</ele>
        <time>2022-10-29T12:44:15Z</time>
      </trkpt>
      <trkpt lat="49.85164" lon="2.29212">
        <ele>88</ele>
        <time>2022-10-29T12:44:16Z</time>
      </trkpt>
      <trkpt lat="49.85163" lon="2.2921">
        <ele>88.1</ele>
        <time>2022-10-29T12:44:18Z</time>
      </trkpt>
      <trkpt lat="49.85163" lon="2.29209">
        <ele>88.1</ele>
        <time>2022-10-29T12:44:19Z</time>
      </trkpt>
      <trkpt lat="49.85162" lon="2.29207">
        <ele>88.3</ele>
        <time>2022-10-29T12:44:20Z</time>
      </trkpt>
      <trkpt lat="49.85162" lon="2.29205">
        <ele>88.4</ele>
        <time>2022-10-29T12:44:21Z</time>
      </trkpt>
      <trkpt lat="49.85162" lon="2.29202">
        <ele>88.5</ele>
        <time>2022-10-29T12:44:23Z</time>
      </trkpt>
      <trkpt lat="49.85162" lon="2.29201">
        <ele>88.6</ele>
        <time>2022-10-29T12:44:24Z</time>
      </trkpt>
      <trkpt lat="49.85161" lon="2.292">
        <ele>88.6</ele>
        <time>2022-10-29T12:44:25Z</time>
      </trkpt>
      <trkpt lat="49.85161" lon="2.29198">
        <ele>88.6</ele>
        <time>2022-10-29T12:44:27Z</time>
      </trkpt>
      <trkpt lat="49.85161" lon="2.29197">
        <ele>88.7</ele>
        <time>2022-10-29T12:44:28Z</time>
      </trkpt>
      <trkpt lat="49.85161" lon="2.29195">
        <ele>88.7</ele>
        <time>2022-10-29T12:44:29Z</time>
      </trkpt>
      <trkpt lat="49.85161" lon="2.29194">
        <ele>88.7</ele>
        <time>2022-10-29T12:44:30Z</time>
      </trkpt>
      <trkpt lat="49.85161" lon="2.29193">
        <ele>88.8</ele>
        <time>2022-10-29T12:44:32Z</time>
      </trkpt>
      <trkpt lat="49.85161" lon="2.29192">
        <ele>88.9</ele>
        <time>2022-10-29T12:44:33Z</time>
      </trkpt>
      <trkpt lat="49.85162" lon="2.29191">
        <ele>88.9</ele>
        <time>2022-10-29T12:44:34Z</time>
      </trkpt>
      <trkpt lat="49.85162" lon="2.29189">
        <ele>89</ele>
        <time>2022-10-29T12:44:35Z</time>
      </trkpt>
      <trkpt lat="49.85162" lon="2.29188">
        <ele>89.1</ele>
        <time>2022-10-29T12:44:36Z</time>
      </trkpt>
      <trkpt lat="49.85162" lon="2.29187">
        <ele>89.1</ele>
        <time>2022-10-29T12:44:38Z</time>
      </trkpt>
      <trkpt lat="49.85162" lon="2.29186">
        <ele>89.2</ele>
        <time>2022-10-29T12:44:39Z</time>
      </trkpt>
      <trkpt lat="49.85162" lon="2.29185">
        <ele>89.2</ele>
        <time>2022-10-29T12:44:40Z</time>
      </trkpt>
      <trkpt lat="49.85162" lon="2.29184">
        <ele>89.3</ele>
        <time>2022-10-29T12:44:42Z</time>
      </trkpt>
      <trkpt lat="49.85162" lon="2.29183">
        <ele>89.3</ele>
        <time>2022-10-29T12:44:43Z</time>
      </trkpt>
      <trkpt lat="49.85162" lon="2.29182">
        <ele>89.3</ele>
        <time>2022-10-29T12:44:44Z</time>
      </trkpt>
      <trkpt lat="49.85162" lon="2.29181">
        <ele>89.4</ele>
        <time>2022-10-29T12:44:45Z</time>
      </trkpt>
      <trkpt lat="49.85162" lon="2.2918">
        <ele>89.5</ele>
        <time>2022-10-29T12:44:46Z</time>
      </trkpt>
      <trkpt lat="49.85162" lon="2.29178">
        <ele>89.5</ele>
        <time>2022-10-29T12:44:48Z</time>
      </trkpt>
      <trkpt lat="49.85162" lon="2.29178">
        <ele>89.6</ele>
        <time>2022-10-29T12:44:49Z</time>
      </trkpt>
      <trkpt lat="49.85162" lon="2.29177">
        <ele>89.6</ele>
        <time>2022-10-29T12:44:50Z</time>
      </trkpt>
      <trkpt lat="49.85161" lon="2.29176">
        <ele>89.6</ele>
        <time>2022-10-29T12:44:51Z</time>
      </trkpt>
      <trkpt lat="49.85161" lon="2.29175">
        <ele>89.7</ele>
        <time>2022-10-29T12:44:52Z</time>
      </trkpt>
      <trkpt lat="49.85161" lon="2.29174">
        <ele>89.7</ele>
        <time>2022-10-29T12:44:54Z</time>
      </trkpt>
      <trkpt lat="49.85161" lon="2.29173">
        <ele>89.8</ele>
        <time>2022-10-29T12:44:55Z</time>
      </trkpt>
      <trkpt lat="49.85161" lon="2.29172">
        <ele>89.8</ele>
        <time>2022-10-29T12:44:57Z</time>
      </trkpt>
      <trkpt lat="49.85161" lon="2.29171">
        <ele>89.8</ele>
        <time>2022-10-29T12:44:58Z</time>
      </trkpt>
      <trkpt lat="49.8516" lon="2.2917">
        <ele>89.9</ele>
        <time>2022-10-29T12:44:59Z</time>
      </trkpt>
      <trkpt lat="49.8516" lon="2.29168">
        <ele>90</ele>
        <time>2022-10-29T12:45:01Z</time>
      </trkpt>
      <trkpt lat="49.8516" lon="2.29167">
        <ele>90.2</ele>
        <time>2022-10-29T12:45:02Z</time>
      </trkpt>
      <trkpt lat="49.85159" lon="2.29165">
        <ele>90.3</ele>
        <time>2022-10-29T12:45:03Z</time>
      </trkpt>
      <trkpt lat="49.85159" lon="2.29164">
        <ele>90.3</ele>
        <time>2022-10-29T12:45:04Z</time>
      </trkpt>
      <trkpt lat="49.85159" lon="2.29162">
        <ele>90.4</ele>
        <time>2022-10-29T12:45:05Z</time>
      </trkpt>
      <trkpt lat="49.85158" lon="2.2916">
        <ele>90.4</ele>
        <time>2022-10-29T12:45:07Z</time>
      </trkpt>
      <trkpt lat="49.85158" lon="2.29159">
        <ele>90.4</ele>
        <time>2022-10-29T12:45:08Z</time>
      </trkpt>
      <trkpt lat="49.85158" lon="2.29157">
        <ele>90.5</ele>
        <time>2022-10-29T12:45:09Z</time>
      </trkpt>
      <trkpt lat="49.85157" lon="2.29155">
        <ele>90.5</ele>
        <time>2022-10-29T12:45:10Z</time>
      </trkpt>
      <trkpt lat="49.85157" lon="2.29152">
        <ele>90.8</ele>
        <time>2022-10-29T12:45:12Z</time>
      </trkpt>
      <trkpt lat="49.85156" lon="2.29151">
        <ele>90.8</ele>
        <time>2022-10-29T12:45:13Z</time>
      </trkpt>
      <trkpt lat="49.85156" lon="2.29149">
        <ele>90.8</ele>
        <time>2022-10-29T12:45:14Z</time>
      </trkpt>
      <trkpt lat="49.85155" lon="2.29147">
        <ele>90.8</ele>
        <time>2022-10-29T12:45:16Z</time>
      </trkpt>
      <trkpt lat="49.85155" lon="2.29145">
        <ele>90.8</ele>
        <time>2022-10-29T12:45:17Z</time>
      </trkpt>
      <trkpt lat="49.85155" lon="2.29144">
        <ele>90.8</ele>
        <time>2022-10-29T12:45:18Z</time>
      </trkpt>
      <trkpt lat="49.85155" lon="2.29142">
        <ele>90.8</ele>
        <time>2022-10-29T12:45:19Z</time>
      </trkpt>
      <trkpt lat="49.85154" lon="2.2914">
        <ele>90.8</ele>
        <time>2022-10-29T12:45:21Z</time>
      </trkpt>
      <trkpt lat="49.85154" lon="2.29139">
        <ele>91</ele>
        <time>2022-10-29T12:45:22Z</time>
      </trkpt>
      <trkpt lat="49.85154" lon="2.29138">
        <ele>91</ele>
        <time>2022-10-29T12:45:23Z</time>
      </trkpt>
      <trkpt lat="49.85154" lon="2.29137">
        <ele>91</ele>
        <time>2022-10-29T12:45:24Z</time>
      </trkpt>
      <trkpt lat="49.85154" lon="2.29134">
        <ele>91</ele>
        <time>2022-10-29T12:45:25Z</time>
      </trkpt>
      <trkpt lat="49.85153" lon="2.29132">
        <ele>91</ele>
        <time>2022-10-29T12:45:26Z</time>
      </trkpt>
      <trkpt lat="49.85153" lon="2.29131">
        <ele>91</ele>
        <time>2022-10-29T12:45:27Z</time>
      </trkpt>
      <trkpt lat="49.85153" lon="2.2913">
        <ele>91</ele>
        <time>2022-10-29T12:45:29Z</time>
      </trkpt>
      <trkpt lat="49.85153" lon="2.29128">
        <ele>91</ele>
        <time>2022-10-29T12:45:30Z</time>
      </trkpt>
      <trkpt lat="49.85153" lon="2.29126">
        <ele>91</ele>
        <time>2022-10-29T12:45:31Z</time>
      </trkpt>
      <trkpt lat="49.85153" lon="2.29125">
        <ele>90.9</ele>
        <time>2022-10-29T12:45:32Z</time>
      </trkpt>
      <trkpt lat="49.85153" lon="2.29124">
        <ele>90.9</ele>
        <time>2022-10-29T12:45:34Z</time>
      </trkpt>
      <trkpt lat="49.85152" lon="2.29123">
        <ele>90.9</ele>
        <time>2022-10-29T12:45:35Z</time>
      </trkpt>
      <trkpt lat="49.85152" lon="2.29122">
        <ele>90.9</ele>
        <time>2022-10-29T12:45:36Z</time>
      </trkpt>
      <trkpt lat="49.85152" lon="2.29122">
        <ele>90.9</ele>
        <time>2022-10-29T12:45:37Z</time>
      </trkpt>
      <trkpt lat="49.85152" lon="2.29121">
        <ele>90.9</ele>
        <time>2022-10-29T12:45:38Z</time>
      </trkpt>
      <trkpt lat="49.85152" lon="2.29119">
        <ele>90.9</ele>
        <time>2022-10-29T12:45:39Z</time>
      </trkpt>
      <trkpt lat="49.85152" lon="2.29118">
        <ele>90.9</ele>
        <time>2022-10-29T12:45:41Z</time>
      </trkpt>
      <trkpt lat="49.85152" lon="2.29117">
        <ele>90.9</ele>
        <time>2022-10-29T12:45:42Z</time>
      </trkpt>
      <trkpt lat="49.85152" lon="2.29116">
        <ele>90.9</ele>
        <time>2022-10-29T12:45:43Z</time>
      </trkpt>
      <trkpt lat="49.85152" lon="2.29114">
        <ele>90.9</ele>
        <time>2022-10-29T12:45:44Z</time>
      </trkpt>
      <trkpt lat="49.85152" lon="2.29112">
        <ele>90.9</ele>
        <time>2022-10-29T12:45:45Z</time>
      </trkpt>
      <trkpt lat="49.85151" lon="2.29109">
        <ele>91.1</ele>
        <time>2022-10-29T12:45:47Z</time>
      </trkpt>
      <trkpt lat="49.85151" lon="2.29108">
        <ele>91.1</ele>
        <time>2022-10-29T12:45:48Z</time>
      </trkpt>
      <trkpt lat="49.8515" lon="2.29107">
        <ele>91.1</ele>
        <time>2022-10-29T12:45:49Z</time>
      </trkpt>
      <trkpt lat="49.8515" lon="2.29104">
        <ele>91.1</ele>
        <time>2022-10-29T12:45:51Z</time>
      </trkpt>
      <trkpt lat="49.85149" lon="2.29102">
        <ele>91</ele>
        <time>2022-10-29T12:45:52Z</time>
      </trkpt>
      <trkpt lat="49.85149" lon="2.29101">
        <ele>91.2</ele>
        <time>2022-10-29T12:45:53Z</time>
      </trkpt>
      <trkpt lat="49.85148" lon="2.29098">
        <ele>91.2</ele>
        <time>2022-10-29T12:45:55Z</time>
      </trkpt>
      <trkpt lat="49.85148" lon="2.29096">
        <ele>91.2</ele>
        <time>2022-10-29T12:45:56Z</time>
      </trkpt>
      <trkpt lat="49.85147" lon="2.29093">
        <ele>91.2</ele>
        <time>2022-10-29T12:45:58Z</time>
      </trkpt>
      <trkpt lat="49.85147" lon="2.2909">
        <ele>91.2</ele>
        <time>2022-10-29T12:46:00Z</time>
      </trkpt>
      <trkpt lat="49.85146" lon="2.29088">
        <ele>91.2</ele>
        <time>2022-10-29T12:46:01Z</time>
      </trkpt>
      <trkpt lat="49.85146" lon="2.29088">
        <ele>91.2</ele>
        <time>2022-10-29T12:46:02Z</time>
      </trkpt>
      <trkpt lat="49.85146" lon="2.29087">
        <ele>91.2</ele>
        <time>2022-10-29T12:46:03Z</time>
      </trkpt>
      <trkpt lat="49.85146" lon="2.29087">
        <ele>91.2</ele>
        <time>2022-10-29T12:46:04Z</time>
      </trkpt>
      <trkpt lat="49.85146" lon="2.29087">
        <ele>91.2</ele>
        <time>2022-10-29T12:46:05Z</time>
      </trkpt>
      <trkpt lat="49.85146" lon="2.29087">
        <ele>91.2</ele>
        <time>2022-10-29T12:46:06Z</time>
      </trkpt>
      <trkpt lat="49.85146" lon="2.29087">
        <ele>91.2</ele>
        <time>2022-10-29T12:46:08Z</time>
      </trkpt>
      <trkpt lat="49.85146" lon="2.29087">
        <ele>91.4</ele>
        <time>2022-10-29T12:46:09Z</time>
      </trkpt>
      <trkpt lat="49.85146" lon="2.29086">
        <ele>91.4</ele>
        <time>2022-10-29T12:46:10Z</time>
      </trkpt>
      <trkpt lat="49.85145" lon="2.29085">
        <ele>91.3</ele>
        <time>2022-10-29T12:46:11Z</time>
      </trkpt>
      <trkpt lat="49.85146" lon="2.29085">
        <ele>91.3</ele>
        <time>2022-10-29T12:46:12Z</time>
      </trkpt>
      <trkpt lat="49.85146" lon="2.29084">
        <ele>91.3</ele>
        <time>2022-10-29T12:46:13Z</time>
      </trkpt>
      <trkpt lat="49.85146" lon="2.29083">
        <ele>91.3</ele>
        <time>2022-10-29T12:46:14Z</time>
      </trkpt>
      <trkpt lat="49.85145" lon="2.29081">
        <ele>91.3</ele>
        <time>2022-10-29T12:46:16Z</time>
      </trkpt>
      <trkpt lat="49.85145" lon="2.2908">
        <ele>91.3</ele>
        <time>2022-10-29T12:46:18Z</time>
      </trkpt>
      <trkpt lat="49.85144" lon="2.2908">
        <ele>91.3</ele>
        <time>2022-10-29T12:46:19Z</time>
      </trkpt>
      <trkpt lat="49.85142" lon="2.29081">
        <ele>91.5</ele>
        <time>2022-10-29T12:46:20Z</time>
      </trkpt>
      <trkpt lat="49.85142" lon="2.29082">
        <ele>91.5</ele>
        <time>2022-10-29T12:46:21Z</time>
      </trkpt>
      <trkpt lat="49.85141" lon="2.29083">
        <ele>91.5</ele>
        <time>2022-10-29T12:46:23Z</time>
      </trkpt>
      <trkpt lat="49.8514" lon="2.29085">
        <ele>91.7</ele>
        <time>2022-10-29T12:46:24Z</time>
      </trkpt>
      <trkpt lat="49.85139" lon="2.29087">
        <ele>91.8</ele>
        <time>2022-10-29T12:46:25Z</time>
      </trkpt>
      <trkpt lat="49.85139" lon="2.29089">
        <ele>91.8</ele>
        <time>2022-10-29T12:46:26Z</time>
      </trkpt>
      <trkpt lat="49.85139" lon="2.2909">
        <ele>91.8</ele>
        <time>2022-10-29T12:46:28Z</time>
      </trkpt>
      <trkpt lat="49.85139" lon="2.29092">
        <ele>91.8</ele>
        <time>2022-10-29T12:46:29Z</time>
      </trkpt>
      <trkpt lat="49.85139" lon="2.29094">
        <ele>91.8</ele>
        <time>2022-10-29T12:46:30Z</time>
      </trkpt>
      <trkpt lat="49.85139" lon="2.29095">
        <ele>91.8</ele>
        <time>2022-10-29T12:46:32Z</time>
      </trkpt>
      <trkpt lat="49.85139" lon="2.29097">
        <ele>91.8</ele>
        <time>2022-10-29T12:46:33Z</time>
      </trkpt>
      <trkpt lat="49.85138" lon="2.29099">
        <ele>91.8</ele>
        <time>2022-10-29T12:46:35Z</time>
      </trkpt>
      <trkpt lat="49.85138" lon="2.291">
        <ele>92.1</ele>
        <time>2022-10-29T12:46:37Z</time>
      </trkpt>
      <trkpt lat="49.85138" lon="2.291">
        <ele>91.8</ele>
        <time>2022-10-29T12:46:38Z</time>
      </trkpt>
      <trkpt lat="49.85138" lon="2.291">
        <ele>91.8</ele>
        <time>2022-10-29T12:46:39Z</time>
      </trkpt>
      <trkpt lat="49.85138" lon="2.29101">
        <ele>91.8</ele>
        <time>2022-10-29T12:46:41Z</time>
      </trkpt>
      <trkpt lat="49.85138" lon="2.29101">
        <ele>92.1</ele>
        <time>2022-10-29T12:46:42Z</time>
      </trkpt>
      <trkpt lat="49.85137" lon="2.29102">
        <ele>92.1</ele>
        <time>2022-10-29T12:46:43Z</time>
      </trkpt>
      <trkpt lat="49.85137" lon="2.29101">
        <ele>92.1</ele>
        <time>2022-10-29T12:46:44Z</time>
      </trkpt>
      <trkpt lat="49.85137" lon="2.29101">
        <ele>92.1</ele>
        <time>2022-10-29T12:46:45Z</time>
      </trkpt>
      <trkpt lat="49.85137" lon="2.29101">
        <ele>92.1</ele>
        <time>2022-10-29T12:46:46Z</time>
      </trkpt>
      <trkpt lat="49.85137" lon="2.291">
        <ele>92.1</ele>
        <time>2022-10-29T12:46:47Z</time>
      </trkpt>
      <trkpt lat="49.85137" lon="2.291">
        <ele>92.1</ele>
        <time>2022-10-29T12:46:48Z</time>
      </trkpt>
      <trkpt lat="49.85137" lon="2.291">
        <ele>92.1</ele>
        <time>2022-10-29T12:46:49Z</time>
      </trkpt>
      <trkpt lat="49.85137" lon="2.291">
        <ele>92.1</ele>
        <time>2022-10-29T12:46:50Z</time>
      </trkpt>
      <trkpt lat="49.85137" lon="2.291">
        <ele>92.1</ele>
        <time>2022-10-29T12:46:51Z</time>
      </trkpt>
      <trkpt lat="49.85137" lon="2.291">
        <ele>92.1</ele>
        <time>2022-10-29T12:46:52Z</time>
      </trkpt>
      <trkpt lat="49.85137" lon="2.29099">
        <ele>92.1</ele>
        <time>2022-10-29T12:46:53Z</time>
      </trkpt>
      <trkpt lat="49.85137" lon="2.29099">
        <ele>92</ele>
        <time>2022-10-29T12:46:54Z</time>
      </trkpt>
      <trkpt lat="49.85137" lon="2.29099">
        <ele>92</ele>
        <time>2022-10-29T12:46:55Z</time>
      </trkpt>
      <trkpt lat="49.85137" lon="2.29099">
        <ele>92.1</ele>
        <time>2022-10-29T12:46:56Z</time>
      </trkpt>
      <trkpt lat="49.85137" lon="2.29099">
        <ele>92</ele>
        <time>2022-10-29T12:46:57Z</time>
      </trkpt>
      <trkpt lat="49.85137" lon="2.29099">
        <ele>92</ele>
        <time>2022-10-29T12:46:58Z</time>
      </trkpt>
      <trkpt lat="49.85137" lon="2.29099">
        <ele>92</ele>
        <time>2022-10-29T12:46:59Z</time>
      </trkpt>
      <trkpt lat="49.85137" lon="2.29099">
        <ele>92</ele>
        <time>2022-10-29T12:47:00Z</time>
      </trkpt>
      <trkpt lat="49.85137" lon="2.29099">
        <ele>92</ele>
        <time>2022-10-29T12:47:01Z</time>
      </trkpt>
      <trkpt lat="49.85137" lon="2.29099">
        <ele>92</ele>
        <time>2022-10-29T12:47:02Z</time>
      </trkpt>
      <trkpt lat="49.85137" lon="2.29099">
        <ele>92</ele>
        <time>2022-10-29T12:47:03Z</time>
      </trkpt>
      <trkpt lat="49.85137" lon="2.29099">
        <ele>92.1</ele>
        <time>2022-10-29T12:47:04Z</time>
      </trkpt>
      <trkpt lat="49.85137" lon="2.291">
        <ele>92.1</ele>
        <time>2022-10-29T12:47:05Z</time>
      </trkpt>
      <trkpt lat="49.85137" lon="2.29101">
        <ele>92.1</ele>
        <time>2022-10-29T12:47:06Z</time>
      </trkpt>
      <trkpt lat="49.85137" lon="2.29103">
        <ele>92.1</ele>
        <time>2022-10-29T12:47:08Z</time>
      </trkpt>
      <trkpt lat="49.85137" lon="2.29104">
        <ele>92.1</ele>
        <time>2022-10-29T12:47:09Z</time>
      </trkpt>
      <trkpt lat="49.85137" lon="2.29107">
        <ele>92.1</ele>
        <time>2022-10-29T12:47:11Z</time>
      </trkpt>
      <trkpt lat="49.85137" lon="2.29108">
        <ele>92.1</ele>
        <time>2022-10-29T12:47:12Z</time>
      </trkpt>
      <trkpt lat="49.85138" lon="2.2911">
        <ele>92.1</ele>
        <time>2022-10-29T12:47:13Z</time>
      </trkpt>
      <trkpt lat="49.85138" lon="2.29111">
        <ele>91.9</ele>
        <time>2022-10-29T12:47:15Z</time>
      </trkpt>
      <trkpt lat="49.85138" lon="2.29112">
        <ele>92.1</ele>
        <time>2022-10-29T12:47:16Z</time>
      </trkpt>
      <trkpt lat="49.85137" lon="2.29113">
        <ele>92.1</ele>
        <time>2022-10-29T12:47:17Z</time>
      </trkpt>
      <trkpt lat="49.85137" lon="2.29115">
        <ele>92.1</ele>
        <time>2022-10-29T12:47:18Z</time>
      </trkpt>
      <trkpt lat="49.85136" lon="2.29116">
        <ele>92.1</ele>
        <time>2022-10-29T12:47:20Z</time>
      </trkpt>
      <trkpt lat="49.85136" lon="2.29117">
        <ele>92.1</ele>
        <time>2022-10-29T12:47:21Z</time>
      </trkpt>
      <trkpt lat="49.85135" lon="2.29118">
        <ele>92.1</ele>
        <time>2022-10-29T12:47:22Z</time>
      </trkpt>
      <trkpt lat="49.85134" lon="2.2912">
        <ele>92.3</ele>
        <time>2022-10-29T12:47:24Z</time>
      </trkpt>
      <trkpt lat="49.85134" lon="2.29122">
        <ele>92.4</ele>
        <time>2022-10-29T12:47:26Z</time>
      </trkpt>
      <trkpt lat="49.85133" lon="2.29122">
        <ele>92.4</ele>
        <time>2022-10-29T12:47:27Z</time>
      </trkpt>
      <trkpt lat="49.85133" lon="2.29124">
        <ele>92.4</ele>
        <time>2022-10-29T12:47:28Z</time>
      </trkpt>
      <trkpt lat="49.85133" lon="2.29125">
        <ele>92.4</ele>
        <time>2022-10-29T12:47:29Z</time>
      </trkpt>
      <trkpt lat="49.85132" lon="2.29126">
        <ele>92.4</ele>
        <time>2022-10-29T12:47:31Z</time>
      </trkpt>
      <trkpt lat="49.85132" lon="2.29127">
        <ele>92.6</ele>
        <time>2022-10-29T12:47:32Z</time>
      </trkpt>
      <trkpt lat="49.85132" lon="2.29128">
        <ele>92.6</ele>
        <time>2022-10-29T12:47:33Z</time>
      </trkpt>
      <trkpt lat="49.85131" lon="2.29131">
        <ele>92.6</ele>
        <time>2022-10-29T12:47:34Z</time>
      </trkpt>
      <trkpt lat="49.85131" lon="2.29133">
        <ele>92.6</ele>
        <time>2022-10-29T12:47:36Z</time>
      </trkpt>
      <trkpt lat="49.85131" lon="2.29134">
        <ele>92.6</ele>
        <time>2022-10-29T12:47:37Z</time>
      </trkpt>
      <trkpt lat="49.85131" lon="2.29136">
        <ele>92.6</ele>
        <time>2022-10-29T12:47:38Z</time>
      </trkpt>
      <trkpt lat="49.8513" lon="2.29137">
        <ele>92.6</ele>
        <time>2022-10-29T12:47:40Z</time>
      </trkpt>
      <trkpt lat="49.8513" lon="2.29139">
        <ele>92.6</ele>
        <time>2022-10-29T12:47:41Z</time>
      </trkpt>
      <trkpt lat="49.8513" lon="2.2914">
        <ele>92.6</ele>
        <time>2022-10-29T12:47:42Z</time>
      </trkpt>
      <trkpt lat="49.8513" lon="2.29142">
        <ele>92.6</ele>
        <time>2022-10-29T12:47:43Z</time>
      </trkpt>
      <trkpt lat="49.8513" lon="2.29143">
        <ele>92.6</ele>
        <time>2022-10-29T12:47:44Z</time>
      </trkpt>
      <trkpt lat="49.8513" lon="2.29146">
        <ele>92.6</ele>
        <time>2022-10-29T12:47:46Z</time>
      </trkpt>
      <trkpt lat="49.8513" lon="2.29146">
        <ele>92.6</ele>
        <time>2022-10-29T12:47:47Z</time>
      </trkpt>
      <trkpt lat="49.8513" lon="2.29148">
        <ele>92.6</ele>
        <time>2022-10-29T12:47:48Z</time>
      </trkpt>
      <trkpt lat="49.8513" lon="2.2915">
        <ele>92.6</ele>
        <time>2022-10-29T12:47:50Z</time>
      </trkpt>
      <trkpt lat="49.85129" lon="2.29152">
        <ele>92.8</ele>
        <time>2022-10-29T12:47:51Z</time>
      </trkpt>
      <trkpt lat="49.85129" lon="2.29153">
        <ele>92.8</ele>
        <time>2022-10-29T12:47:52Z</time>
      </trkpt>
      <trkpt lat="49.85129" lon="2.29155">
        <ele>92.8</ele>
        <time>2022-10-29T12:47:54Z</time>
      </trkpt>
      <trkpt lat="49.85129" lon="2.29157">
        <ele>92.8</ele>
        <time>2022-10-29T12:47:55Z</time>
      </trkpt>
      <trkpt lat="49.85129" lon="2.29158">
        <ele>92.8</ele>
        <time>2022-10-29T12:47:56Z</time>
      </trkpt>
      <trkpt lat="49.85129" lon="2.2916">
        <ele>92.7</ele>
        <time>2022-10-29T12:47:57Z</time>
      </trkpt>
      <trkpt lat="49.85129" lon="2.29161">
        <ele>92.7</ele>
        <time>2022-10-29T12:47:59Z</time>
      </trkpt>
      <trkpt lat="49.85129" lon="2.29162">
        <ele>92.7</ele>
        <time>2022-10-29T12:48:00Z</time>
      </trkpt>
      <trkpt lat="49.85129" lon="2.29163">
        <ele>92.7</ele>
        <time>2022-10-29T12:48:01Z</time>
      </trkpt>
      <trkpt lat="49.85129" lon="2.29164">
        <ele>92.7</ele>
        <time>2022-10-29T12:48:02Z</time>
      </trkpt>
      <trkpt lat="49.85129" lon="2.29166">
        <ele>92.7</ele>
        <time>2022-10-29T12:48:03Z</time>
      </trkpt>
      <trkpt lat="49.85129" lon="2.29167">
        <ele>92.7</ele>
        <time>2022-10-29T12:48:04Z</time>
      </trkpt>
      <trkpt lat="49.85129" lon="2.29169">
        <ele>92.5</ele>
        <time>2022-10-29T12:48:06Z</time>
      </trkpt>
      <trkpt lat="49.85129" lon="2.29169">
        <ele>92.5</ele>
        <time>2022-10-29T12:48:07Z</time>
      </trkpt>
      <trkpt lat="49.8513" lon="2.2917">
        <ele>92.5</ele>
        <time>2022-10-29T12:48:08Z</time>
      </trkpt>
      <trkpt lat="49.8513" lon="2.29171">
        <ele>92.5</ele>
        <time>2022-10-29T12:48:09Z</time>
      </trkpt>
      <trkpt lat="49.8513" lon="2.29173">
        <ele>92.5</ele>
        <time>2022-10-29T12:48:11Z</time>
      </trkpt>
      <trkpt lat="49.8513" lon="2.29174">
        <ele>92.5</ele>
        <time>2022-10-29T12:48:12Z</time>
      </trkpt>
      <trkpt lat="49.8513" lon="2.29174">
        <ele>92.5</ele>
        <time>2022-10-29T12:48:13Z</time>
      </trkpt>
      <trkpt lat="49.85131" lon="2.29175">
        <ele>92.5</ele>
        <time>2022-10-29T12:48:14Z</time>
      </trkpt>
      <trkpt lat="49.85131" lon="2.29176">
        <ele>92.5</ele>
        <time>2022-10-29T12:48:15Z</time>
      </trkpt>
      <trkpt lat="49.85131" lon="2.29177">
        <ele>92.5</ele>
        <time>2022-10-29T12:48:16Z</time>
      </trkpt>
      <trkpt lat="49.85132" lon="2.29179">
        <ele>92.5</ele>
        <time>2022-10-29T12:48:18Z</time>
      </trkpt>
      <trkpt lat="49.85132" lon="2.29181">
        <ele>92.5</ele>
        <time>2022-10-29T12:48:19Z</time>
      </trkpt>
      <trkpt lat="49.85132" lon="2.29182">
        <ele>92.2</ele>
        <time>2022-10-29T12:48:21Z</time>
      </trkpt>
      <trkpt lat="49.85133" lon="2.29184">
        <ele>92.2</ele>
        <time>2022-10-29T12:48:22Z</time>
      </trkpt>
      <trkpt lat="49.85133" lon="2.29185">
        <ele>92.2</ele>
        <time>2022-10-29T12:48:23Z</time>
      </trkpt>
      <trkpt lat="49.85133" lon="2.29186">
        <ele>92.2</ele>
        <time>2022-10-29T12:48:24Z</time>
      </trkpt>
      <trkpt lat="49.85133" lon="2.29188">
        <ele>92.2</ele>
        <time>2022-10-29T12:48:25Z</time>
      </trkpt>
      <trkpt lat="49.85133" lon="2.29189">
        <ele>92.1</ele>
        <time>2022-10-29T12:48:26Z</time>
      </trkpt>
      <trkpt lat="49.85134" lon="2.29192">
        <ele>92.1</ele>
        <time>2022-10-29T12:48:28Z</time>
      </trkpt>
      <trkpt lat="49.85134" lon="2.29194">
        <ele>92.1</ele>
        <time>2022-10-29T12:48:30Z</time>
      </trkpt>
      <trkpt lat="49.85134" lon="2.29195">
        <ele>92.1</ele>
        <time>2022-10-29T12:48:31Z</time>
      </trkpt>
      <trkpt lat="49.85134" lon="2.29196">
        <ele>92.1</ele>
        <time>2022-10-29T12:48:32Z</time>
      </trkpt>
      <trkpt lat="49.85134" lon="2.29198">
        <ele>92.1</ele>
        <time>2022-10-29T12:48:33Z</time>
      </trkpt>
      <trkpt lat="49.85135" lon="2.29199">
        <ele>92</ele>
        <time>2022-10-29T12:48:34Z</time>
      </trkpt>
      <trkpt lat="49.85135" lon="2.29202">
        <ele>92</ele>
        <time>2022-10-29T12:48:36Z</time>
      </trkpt>
      <trkpt lat="49.85135" lon="2.29203">
        <ele>91.8</ele>
        <time>2022-10-29T12:48:37Z</time>
      </trkpt>
      <trkpt lat="49.85136" lon="2.29205">
        <ele>91.8</ele>
        <time>2022-10-29T12:48:38Z</time>
      </trkpt>
      <trkpt lat="49.85136" lon="2.29206">
        <ele>91.8</ele>
        <time>2022-10-29T12:48:40Z</time>
      </trkpt>
      <trkpt lat="49.85136" lon="2.29209">
        <ele>91.7</ele>
        <time>2022-10-29T12:48:41Z</time>
      </trkpt>
      <trkpt lat="49.85136" lon="2.2921">
        <ele>91.7</ele>
        <time>2022-10-29T12:48:42Z</time>
      </trkpt>
      <trkpt lat="49.85137" lon="2.29211">
        <ele>91.7</ele>
        <time>2022-10-29T12:48:43Z</time>
      </trkpt>
      <trkpt lat="49.85137" lon="2.29212">
        <ele>91.7</ele>
        <time>2022-10-29T12:48:44Z</time>
      </trkpt>
      <trkpt lat="49.85137" lon="2.29213">
        <ele>91.7</ele>
        <time>2022-10-29T12:48:45Z</time>
      </trkpt>
      <trkpt lat="49.85137" lon="2.29216">
        <ele>91.6</ele>
        <time>2022-10-29T12:48:46Z</time>
      </trkpt>
      <trkpt lat="49.85138" lon="2.29217">
        <ele>91.6</ele>
        <time>2022-10-29T12:48:47Z</time>
      </trkpt>
      <trkpt lat="49.85138" lon="2.29218">
        <ele>91.4</ele>
        <time>2022-10-29T12:48:49Z</time>
      </trkpt>
      <trkpt lat="49.85138" lon="2.2922">
        <ele>91.3</ele>
        <time>2022-10-29T12:48:50Z</time>
      </trkpt>
      <trkpt lat="49.85139" lon="2.29223">
        <ele>91.3</ele>
        <time>2022-10-29T12:48:51Z</time>
      </trkpt>
      <trkpt lat="49.85139" lon="2.29224">
        <ele>91.2</ele>
        <time>2022-10-29T12:48:52Z</time>
      </trkpt>
      <trkpt lat="49.85139" lon="2.29225">
        <ele>91.2</ele>
        <time>2022-10-29T12:48:53Z</time>
      </trkpt>
      <trkpt lat="49.8514" lon="2.29226">
        <ele>91.2</ele>
        <time>2022-10-29T12:48:55Z</time>
      </trkpt>
      <trkpt lat="49.8514" lon="2.29228">
        <ele>91.2</ele>
        <time>2022-10-29T12:48:56Z</time>
      </trkpt>
      <trkpt lat="49.8514" lon="2.29228">
        <ele>91.2</ele>
        <time>2022-10-29T12:48:57Z</time>
      </trkpt>
      <trkpt lat="49.85141" lon="2.29229">
        <ele>90.9</ele>
        <time>2022-10-29T12:48:58Z</time>
      </trkpt>
      <trkpt lat="49.85141" lon="2.29231">
        <ele>90.9</ele>
        <time>2022-10-29T12:48:59Z</time>
      </trkpt>
      <trkpt lat="49.85141" lon="2.29233">
        <ele>90.9</ele>
        <time>2022-10-29T12:49:00Z</time>
      </trkpt>
      <trkpt lat="49.85142" lon="2.29234">
        <ele>90.9</ele>
        <time>2022-10-29T12:49:01Z</time>
      </trkpt>
      <trkpt lat="49.85142" lon="2.29236">
        <ele>90.9</ele>
        <time>2022-10-29T12:49:03Z</time>
      </trkpt>
      <trkpt lat="49.85142" lon="2.29237">
        <ele>90.9</ele>
        <time>2022-10-29T12:49:04Z</time>
      </trkpt>
      <trkpt lat="49.85142" lon="2.29238">
        <ele>90.8</ele>
        <time>2022-10-29T12:49:05Z</time>
      </trkpt>
      <trkpt lat="49.85141" lon="2.29239">
        <ele>90.8</ele>
        <time>2022-10-29T12:49:06Z</time>
      </trkpt>
      <trkpt lat="49.85141" lon="2.29239">
        <ele>90.8</ele>
        <time>2022-10-29T12:49:08Z</time>
      </trkpt>
      <trkpt lat="49.85141" lon="2.2924">
        <ele>90.8</ele>
        <time>2022-10-29T12:49:09Z</time>
      </trkpt>
      <trkpt lat="49.85141" lon="2.29241">
        <ele>90.8</ele>
        <time>2022-10-29T12:49:10Z</time>
      </trkpt>
      <trkpt lat="49.85141" lon="2.29242">
        <ele>90.8</ele>
        <time>2022-10-29T12:49:12Z</time>
      </trkpt>
      <trkpt lat="49.85141" lon="2.29243">
        <ele>90.8</ele>
        <time>2022-10-29T12:49:13Z</time>
      </trkpt>
      <trkpt lat="49.85141" lon="2.29244">
        <ele>90.8</ele>
        <time>2022-10-29T12:49:14Z</time>
      </trkpt>
      <trkpt lat="49.85141" lon="2.29246">
        <ele>90.7</ele>
        <time>2022-10-29T12:49:16Z</time>
      </trkpt>
      <trkpt lat="49.85141" lon="2.29247">
        <ele>90.7</ele>
        <time>2022-10-29T12:49:17Z</time>
      </trkpt>
      <trkpt lat="49.85141" lon="2.29248">
        <ele>90.7</ele>
        <time>2022-10-29T12:49:19Z</time>
      </trkpt>
      <trkpt lat="49.85141" lon="2.2925">
        <ele>90.7</ele>
        <time>2022-10-29T12:49:20Z</time>
      </trkpt>
      <trkpt lat="49.85141" lon="2.2925">
        <ele>90.7</ele>
        <time>2022-10-29T12:49:21Z</time>
      </trkpt>
      <trkpt lat="49.85141" lon="2.29251">
        <ele>90.7</ele>
        <time>2022-10-29T12:49:23Z</time>
      </trkpt>
      <trkpt lat="49.85141" lon="2.29252">
        <ele>90.7</ele>
        <time>2022-10-29T12:49:24Z</time>
      </trkpt>
      <trkpt lat="49.85141" lon="2.29253">
        <ele>90.7</ele>
        <time>2022-10-29T12:49:25Z</time>
      </trkpt>
      <trkpt lat="49.85142" lon="2.29254">
        <ele>90.7</ele>
        <time>2022-10-29T12:49:27Z</time>
      </trkpt>
      <trkpt lat="49.85142" lon="2.29255">
        <ele>90.7</ele>
        <time>2022-10-29T12:49:28Z</time>
      </trkpt>
      <trkpt lat="49.85142" lon="2.29256">
        <ele>90.7</ele>
        <time>2022-10-29T12:49:29Z</time>
      </trkpt>
      <trkpt lat="49.85143" lon="2.29257">
        <ele>90.7</ele>
        <time>2022-10-29T12:49:30Z</time>
      </trkpt>
      <trkpt lat="49.85143" lon="2.29259">
        <ele>90.4</ele>
        <time>2022-10-29T12:49:31Z</time>
      </trkpt>
      <trkpt lat="49.85144" lon="2.2926">
        <ele>90.4</ele>
        <time>2022-10-29T12:49:32Z</time>
      </trkpt>
      <trkpt lat="49.85144" lon="2.29262">
        <ele>90.4</ele>
        <time>2022-10-29T12:49:34Z</time>
      </trkpt>
      <trkpt lat="49.85144" lon="2.29263">
        <ele>90.5</ele>
        <time>2022-10-29T12:49:35Z</time>
      </trkpt>
      <trkpt lat="49.85145" lon="2.29265">
        <ele>90.5</ele>
        <time>2022-10-29T12:49:36Z</time>
      </trkpt>
      <trkpt lat="49.85145" lon="2.29267">
        <ele>90.5</ele>
        <time>2022-10-29T12:49:37Z</time>
      </trkpt>
      <trkpt lat="49.85146" lon="2.29269">
        <ele>90.5</ele>
        <time>2022-10-29T12:49:39Z</time>
      </trkpt>
      <trkpt lat="49.85146" lon="2.29271">
        <ele>90.2</ele>
        <time>2022-10-29T12:49:40Z</time>
      </trkpt>
      <trkpt lat="49.85147" lon="2.29274">
        <ele>90.3</ele>
        <time>2022-10-29T12:49:41Z</time>
      </trkpt>
      <trkpt lat="49.85147" lon="2.29275">
        <ele>90.3</ele>
        <time>2022-10-29T12:49:42Z</time>
      </trkpt>
      <trkpt lat="49.85148" lon="2.29276">
        <ele>90.3</ele>
        <time>2022-10-29T12:49:43Z</time>
      </trkpt>
      <trkpt lat="49.85148" lon="2.29277">
        <ele>90.3</ele>
        <time>2022-10-29T12:49:45Z</time>
      </trkpt>
      <trkpt lat="49.85149" lon="2.2928">
        <ele>90.3</ele>
        <time>2022-10-29T12:49:46Z</time>
      </trkpt>
      <trkpt lat="49.85149" lon="2.29281">
        <ele>90.1</ele>
        <time>2022-10-29T12:49:48Z</time>
      </trkpt>
      <trkpt lat="49.85149" lon="2.29283">
        <ele>90.1</ele>
        <time>2022-10-29T12:49:49Z</time>
      </trkpt>
      <trkpt lat="49.8515" lon="2.29285">
        <ele>90.1</ele>
        <time>2022-10-29T12:49:50Z</time>
      </trkpt>
      <trkpt lat="49.8515" lon="2.29286">
        <ele>90.1</ele>
        <time>2022-10-29T12:49:51Z</time>
      </trkpt>
      <trkpt lat="49.8515" lon="2.29288">
        <ele>90.1</ele>
        <time>2022-10-29T12:49:52Z</time>
      </trkpt>
      <trkpt lat="49.8515" lon="2.2929">
        <ele>90.2</ele>
        <time>2022-10-29T12:49:54Z</time>
      </trkpt>
      <trkpt lat="49.8515" lon="2.29291">
        <ele>90.2</ele>
        <time>2022-10-29T12:49:55Z</time>
      </trkpt>
      <trkpt lat="49.8515" lon="2.29293">
        <ele>90.3</ele>
        <time>2022-10-29T12:49:56Z</time>
      </trkpt>
      <trkpt lat="49.85151" lon="2.29295">
        <ele>90.3</ele>
        <time>2022-10-29T12:49:57Z</time>
      </trkpt>
      <trkpt lat="49.85151" lon="2.29296">
        <ele>90.3</ele>
        <time>2022-10-29T12:49:58Z</time>
      </trkpt>
      <trkpt lat="49.85151" lon="2.29297">
        <ele>90.4</ele>
        <time>2022-10-29T12:50:00Z</time>
      </trkpt>
      <trkpt lat="49.85151" lon="2.29299">
        <ele>90.4</ele>
        <time>2022-10-29T12:50:01Z</time>
      </trkpt>
      <trkpt lat="49.85151" lon="2.29301">
        <ele>90.4</ele>
        <time>2022-10-29T12:50:02Z</time>
      </trkpt>
      <trkpt lat="49.85151" lon="2.29303">
        <ele>90.4</ele>
        <time>2022-10-29T12:50:03Z</time>
      </trkpt>
      <trkpt lat="49.85151" lon="2.29304">
        <ele>90.4</ele>
        <time>2022-10-29T12:50:04Z</time>
      </trkpt>
      <trkpt lat="49.85151" lon="2.29306">
        <ele>90.5</ele>
        <time>2022-10-29T12:50:06Z</time>
      </trkpt>
      <trkpt lat="49.85151" lon="2.29307">
        <ele>90.5</ele>
        <time>2022-10-29T12:50:07Z</time>
      </trkpt>
      <trkpt lat="49.85152" lon="2.29308">
        <ele>90.5</ele>
        <time>2022-10-29T12:50:08Z</time>
      </trkpt>
      <trkpt lat="49.85152" lon="2.29309">
        <ele>90.2</ele>
        <time>2022-10-29T12:50:09Z</time>
      </trkpt>
      <trkpt lat="49.85152" lon="2.29311">
        <ele>90.3</ele>
        <time>2022-10-29T12:50:10Z</time>
      </trkpt>
      <trkpt lat="49.85153" lon="2.29312">
        <ele>90.3</ele>
        <time>2022-10-29T12:50:11Z</time>
      </trkpt>
      <trkpt lat="49.85153" lon="2.29313">
        <ele>90.3</ele>
        <time>2022-10-29T12:50:12Z</time>
      </trkpt>
      <trkpt lat="49.85153" lon="2.29314">
        <ele>90.3</ele>
        <time>2022-10-29T12:50:13Z</time>
      </trkpt>
      <trkpt lat="49.85155" lon="2.29317">
        <ele>90.1</ele>
        <time>2022-10-29T12:50:16Z</time>
      </trkpt>
      <trkpt lat="49.85155" lon="2.29317">
        <ele>90.1</ele>
        <time>2022-10-29T12:50:17Z</time>
      </trkpt>
      <trkpt lat="49.85156" lon="2.29317">
        <ele>90.1</ele>
        <time>2022-10-29T12:50:18Z</time>
      </trkpt>
      <trkpt lat="49.85156" lon="2.29317">
        <ele>90.1</ele>
        <time>2022-10-29T12:50:19Z</time>
      </trkpt>
      <trkpt lat="49.85156" lon="2.29317">
        <ele>90.1</ele>
        <time>2022-10-29T12:50:20Z</time>
      </trkpt>
      <trkpt lat="49.85156" lon="2.29317">
        <ele>90.1</ele>
        <time>2022-10-29T12:50:21Z</time>
      </trkpt>
      <trkpt lat="49.85156" lon="2.29317">
        <ele>90.1</ele>
        <time>2022-10-29T12:50:22Z</time>
      </trkpt>
      <trkpt lat="49.85156" lon="2.29317">
        <ele>90.1</ele>
        <time>2022-10-29T12:50:23Z</time>
      </trkpt>
      <trkpt lat="49.85156" lon="2.29317">
        <ele>90.1</ele>
        <time>2022-10-29T12:50:24Z</time>
      </trkpt>
      <trkpt lat="49.85156" lon="2.29316">
        <ele>90.1</ele>
        <time>2022-10-29T12:50:25Z</time>
      </trkpt>
      <trkpt lat="49.85157" lon="2.29316">
        <ele>90.1</ele>
        <time>2022-10-29T12:50:26Z</time>
      </trkpt>
      <trkpt lat="49.85157" lon="2.29316">
        <ele>90.1</ele>
        <time>2022-10-29T12:50:27Z</time>
      </trkpt>
      <trkpt lat="49.85157" lon="2.29316">
        <ele>90.1</ele>
        <time>2022-10-29T12:50:28Z</time>
      </trkpt>
      <trkpt lat="49.85157" lon="2.29316">
        <ele>90.1</ele>
        <time>2022-10-29T12:50:29Z</time>
      </trkpt>
      <trkpt lat="49.85157" lon="2.29316">
        <ele>90.1</ele>
        <time>2022-10-29T12:50:30Z</time>
      </trkpt>
      <trkpt lat="49.85157" lon="2.29316">
        <ele>90.1</ele>
        <time>2022-10-29T12:50:31Z</time>
      </trkpt>
      <trkpt lat="49.85157" lon="2.29316">
        <ele>90.1</ele>
        <time>2022-10-29T12:50:32Z</time>
      </trkpt>
      <trkpt lat="49.85157" lon="2.29317">
        <ele>90.1</ele>
        <time>2022-10-29T12:50:33Z</time>
      </trkpt>
      <trkpt lat="49.85157" lon="2.29316">
        <ele>90.1</ele>
        <time>2022-10-29T12:50:34Z</time>
      </trkpt>
      <trkpt lat="49.85156" lon="2.29316">
        <ele>90.1</ele>
        <time>2022-10-29T12:50:35Z</time>
      </trkpt>
      <trkpt lat="49.85156" lon="2.29316">
        <ele>90.1</ele>
        <time>2022-10-29T12:50:36Z</time>
      </trkpt>
      <trkpt lat="49.85156" lon="2.29316">
        <ele>90.1</ele>
        <time>2022-10-29T12:50:37Z</time>
      </trkpt>
      <trkpt lat="49.85156" lon="2.29316">
        <ele>90.1</ele>
        <time>2022-10-29T12:50:38Z</time>
      </trkpt>
      <trkpt lat="49.85156" lon="2.29316">
        <ele>90.1</ele>
        <time>2022-10-29T12:50:39Z</time>
      </trkpt>
      <trkpt lat="49.85156" lon="2.29316">
        <ele>90.1</ele>
        <time>2022-10-29T12:50:40Z</time>
      </trkpt>
      <trkpt lat="49.85156" lon="2.29316">
        <ele>90.1</ele>
        <time>2022-10-29T12:50:41Z</time>
      </trkpt>
      <trkpt lat="49.85156" lon="2.29316">
        <ele>90.1</ele>
        <time>2022-10-29T12:50:42Z</time>
      </trkpt>
      <trkpt lat="49.85156" lon="2.29316">
        <ele>90.1</ele>
        <time>2022-10-29T12:50:43Z</time>
      </trkpt>
      <trkpt lat="49.85155" lon="2.29315">
        <ele>90.1</ele>
        <time>2022-10-29T12:50:44Z</time>
      </trkpt>
      <trkpt lat="49.85155" lon="2.29314">
        <ele>90.1</ele>
        <time>2022-10-29T12:50:45Z</time>
      </trkpt>
      <trkpt lat="49.85155" lon="2.29314">
        <ele>90.1</ele>
        <time>2022-10-29T12:50:46Z</time>
      </trkpt>
      <trkpt lat="49.85156" lon="2.29314">
        <ele>90.1</ele>
        <time>2022-10-29T12:50:47Z</time>
      </trkpt>
      <trkpt lat="49.85156" lon="2.29314">
        <ele>90.1</ele>
        <time>2022-10-29T12:50:48Z</time>
      </trkpt>
      <trkpt lat="49.85156" lon="2.29315">
        <ele>90.1</ele>
        <time>2022-10-29T12:50:49Z</time>
      </trkpt>
      <trkpt lat="49.85157" lon="2.29317">
        <ele>90.1</ele>
        <time>2022-10-29T12:50:50Z</time>
      </trkpt>
      <trkpt lat="49.85157" lon="2.29317">
        <ele>89.8</ele>
        <time>2022-10-29T12:50:51Z</time>
      </trkpt>
      <trkpt lat="49.85158" lon="2.29318">
        <ele>89.8</ele>
        <time>2022-10-29T12:50:53Z</time>
      </trkpt>
      <trkpt lat="49.85158" lon="2.29319">
        <ele>89.8</ele>
        <time>2022-10-29T12:50:54Z</time>
      </trkpt>
      <trkpt lat="49.85158" lon="2.2932">
        <ele>89.8</ele>
        <time>2022-10-29T12:50:55Z</time>
      </trkpt>
      <trkpt lat="49.85157" lon="2.29322">
        <ele>89.8</ele>
        <time>2022-10-29T12:50:56Z</time>
      </trkpt>
      <trkpt lat="49.85157" lon="2.29323">
        <ele>90.1</ele>
        <time>2022-10-29T12:50:57Z</time>
      </trkpt>
      <trkpt lat="49.85157" lon="2.29323">
        <ele>90.1</ele>
        <time>2022-10-29T12:50:58Z</time>
      </trkpt>
      <trkpt lat="49.85156" lon="2.29325">
        <ele>90.1</ele>
        <time>2022-10-29T12:50:59Z</time>
      </trkpt>
      <trkpt lat="49.85156" lon="2.29326">
        <ele>90.1</ele>
        <time>2022-10-29T12:51:00Z</time>
      </trkpt>
      <trkpt lat="49.85155" lon="2.29326">
        <ele>90.1</ele>
        <time>2022-10-29T12:51:02Z</time>
      </trkpt>
      <trkpt lat="49.85154" lon="2.29327">
        <ele>90.4</ele>
        <time>2022-10-29T12:51:03Z</time>
      </trkpt>
      <trkpt lat="49.85152" lon="2.29327">
        <ele>90.4</ele>
        <time>2022-10-29T12:51:04Z</time>
      </trkpt>
      <trkpt lat="49.85152" lon="2.29327">
        <ele>90.7</ele>
        <time>2022-10-29T12:51:06Z</time>
      </trkpt>
      <trkpt lat="49.85151" lon="2.29327">
        <ele>90.7</ele>
        <time>2022-10-29T12:51:07Z</time>
      </trkpt>
      <trkpt lat="49.8515" lon="2.29326">
        <ele>90.7</ele>
        <time>2022-10-29T12:51:08Z</time>
      </trkpt>
      <trkpt lat="49.85149" lon="2.29326">
        <ele>91</ele>
        <time>2022-10-29T12:51:09Z</time>
      </trkpt>
      <trkpt lat="49.85148" lon="2.29327">
        <ele>91</ele>
        <time>2022-10-29T12:51:11Z</time>
      </trkpt>
      <trkpt lat="49.85148" lon="2.29329">
        <ele>91</ele>
        <time>2022-10-29T12:51:13Z</time>
      </trkpt>
      <trkpt lat="49.85148" lon="2.29329">
        <ele>91</ele>
        <time>2022-10-29T12:51:14Z</time>
      </trkpt>
      <trkpt lat="49.85148" lon="2.2933">
        <ele>91</ele>
        <time>2022-10-29T12:51:15Z</time>
      </trkpt>
      <trkpt lat="49.85148" lon="2.29331">
        <ele>91</ele>
        <time>2022-10-29T12:51:16Z</time>
      </trkpt>
      <trkpt lat="49.85149" lon="2.29331">
        <ele>91</ele>
        <time>2022-10-29T12:51:17Z</time>
      </trkpt>
      <trkpt lat="49.85149" lon="2.29331">
        <ele>91</ele>
        <time>2022-10-29T12:51:18Z</time>
      </trkpt>
      <trkpt lat="49.85149" lon="2.2933">
        <ele>90.7</ele>
        <time>2022-10-29T12:51:19Z</time>
      </trkpt>
      <trkpt lat="49.85149" lon="2.2933">
        <ele>90.7</ele>
        <time>2022-10-29T12:51:20Z</time>
      </trkpt>
      <trkpt lat="49.85149" lon="2.2933">
        <ele>90.7</ele>
        <time>2022-10-29T12:51:21Z</time>
      </trkpt>
      <trkpt lat="49.85149" lon="2.2933">
        <ele>90.7</ele>
        <time>2022-10-29T12:51:22Z</time>
      </trkpt>
      <trkpt lat="49.85149" lon="2.2933">
        <ele>90.7</ele>
        <time>2022-10-29T12:51:23Z</time>
      </trkpt>
      <trkpt lat="49.8515" lon="2.2933">
        <ele>90.7</ele>
        <time>2022-10-29T12:51:24Z</time>
      </trkpt>
      <trkpt lat="49.8515" lon="2.2933">
        <ele>90.7</ele>
        <time>2022-10-29T12:51:25Z</time>
      </trkpt>
      <trkpt lat="49.8515" lon="2.29331">
        <ele>90.7</ele>
        <time>2022-10-29T12:51:26Z</time>
      </trkpt>
      <trkpt lat="49.8515" lon="2.29331">
        <ele>90.7</ele>
        <time>2022-10-29T12:51:27Z</time>
      </trkpt>
      <trkpt lat="49.8515" lon="2.2933">
        <ele>90.7</ele>
        <time>2022-10-29T12:51:28Z</time>
      </trkpt>
      <trkpt lat="49.8515" lon="2.2933">
        <ele>90.7</ele>
        <time>2022-10-29T12:51:29Z</time>
      </trkpt>
      <trkpt lat="49.8515" lon="2.2933">
        <ele>90.7</ele>
        <time>2022-10-29T12:51:30Z</time>
      </trkpt>
      <trkpt lat="49.8515" lon="2.29331">
        <ele>90.7</ele>
        <time>2022-10-29T12:51:31Z</time>
      </trkpt>
      <trkpt lat="49.85151" lon="2.29333">
        <ele>90.6</ele>
        <time>2022-10-29T12:51:32Z</time>
      </trkpt>
      <trkpt lat="49.85151" lon="2.29334">
        <ele>90.6</ele>
        <time>2022-10-29T12:51:33Z</time>
      </trkpt>
      <trkpt lat="49.85151" lon="2.29335">
        <ele>90.6</ele>
        <time>2022-10-29T12:51:34Z</time>
      </trkpt>
      <trkpt lat="49.85151" lon="2.29336">
        <ele>90.6</ele>
        <time>2022-10-29T12:51:35Z</time>
      </trkpt>
      <trkpt lat="49.85151" lon="2.29336">
        <ele>90.6</ele>
        <time>2022-10-29T12:51:36Z</time>
      </trkpt>
      <trkpt lat="49.85152" lon="2.29337">
        <ele>90.6</ele>
        <time>2022-10-29T12:51:37Z</time>
      </trkpt>
      <trkpt lat="49.85151" lon="2.29337">
        <ele>90.6</ele>
        <time>2022-10-29T12:51:38Z</time>
      </trkpt>
      <trkpt lat="49.85151" lon="2.29337">
        <ele>90.6</ele>
        <time>2022-10-29T12:51:39Z</time>
      </trkpt>
      <trkpt lat="49.85151" lon="2.29337">
        <ele>90.6</ele>
        <time>2022-10-29T12:51:40Z</time>
      </trkpt>
      <trkpt lat="49.85151" lon="2.29337">
        <ele>90.6</ele>
        <time>2022-10-29T12:51:41Z</time>
      </trkpt>
      <trkpt lat="49.85151" lon="2.29338">
        <ele>90.6</ele>
        <time>2022-10-29T12:51:42Z</time>
      </trkpt>
      <trkpt lat="49.85151" lon="2.29338">
        <ele>90.6</ele>
        <time>2022-10-29T12:51:43Z</time>
      </trkpt>
      <trkpt lat="49.85151" lon="2.29339">
        <ele>90.6</ele>
        <time>2022-10-29T12:51:44Z</time>
      </trkpt>
      <trkpt lat="49.85151" lon="2.29339">
        <ele>90.6</ele>
        <time>2022-10-29T12:51:45Z</time>
      </trkpt>
      <trkpt lat="49.85151" lon="2.29339">
        <ele>90.6</ele>
        <time>2022-10-29T12:51:46Z</time>
      </trkpt>
      <trkpt lat="49.85151" lon="2.29339">
        <ele>90.6</ele>
        <time>2022-10-29T12:51:47Z</time>
      </trkpt>
      <trkpt lat="49.85152" lon="2.2934">
        <ele>90.6</ele>
        <time>2022-10-29T12:51:48Z</time>
      </trkpt>
      <trkpt lat="49.85152" lon="2.2934">
        <ele>90.6</ele>
        <time>2022-10-29T12:51:49Z</time>
      </trkpt>
      <trkpt lat="49.85152" lon="2.2934">
        <ele>90.3</ele>
        <time>2022-10-29T12:51:50Z</time>
      </trkpt>
      <trkpt lat="49.85152" lon="2.2934">
        <ele>90.3</ele>
        <time>2022-10-29T12:51:51Z</time>
      </trkpt>
      <trkpt lat="49.85152" lon="2.2934">
        <ele>90.3</ele>
        <time>2022-10-29T12:51:52Z</time>
      </trkpt>
      <trkpt lat="49.85152" lon="2.29339">
        <ele>90.3</ele>
        <time>2022-10-29T12:51:53Z</time>
      </trkpt>
      <trkpt lat="49.85152" lon="2.29339">
        <ele>90.3</ele>
        <time>2022-10-29T12:51:54Z</time>
      </trkpt>
      <trkpt lat="49.85152" lon="2.29339">
        <ele>90.3</ele>
        <time>2022-10-29T12:51:55Z</time>
      </trkpt>
      <trkpt lat="49.85152" lon="2.29339">
        <ele>90.3</ele>
        <time>2022-10-29T12:51:56Z</time>
      </trkpt>
      <trkpt lat="49.85152" lon="2.29339">
        <ele>90.3</ele>
        <time>2022-10-29T12:51:57Z</time>
      </trkpt>
      <trkpt lat="49.85152" lon="2.29339">
        <ele>90.3</ele>
        <time>2022-10-29T12:51:58Z</time>
      </trkpt>
      <trkpt lat="49.85152" lon="2.29339">
        <ele>90.3</ele>
        <time>2022-10-29T12:51:59Z</time>
      </trkpt>
      <trkpt lat="49.85152" lon="2.29339">
        <ele>90.3</ele>
        <time>2022-10-29T12:52:00Z</time>
      </trkpt>
      <trkpt lat="49.85152" lon="2.29339">
        <ele>90.3</ele>
        <time>2022-10-29T12:52:01Z</time>
      </trkpt>
      <trkpt lat="49.85152" lon="2.29339">
        <ele>90.3</ele>
        <time>2022-10-29T12:52:02Z</time>
      </trkpt>
      <trkpt lat="49.85152" lon="2.29339">
        <ele>90.3</ele>
        <time>2022-10-29T12:52:03Z</time>
      </trkpt>
      <trkpt lat="49.85152" lon="2.29339">
        <ele>90.3</ele>
        <time>2022-10-29T12:52:04Z</time>
      </trkpt>
      <trkpt lat="49.85152" lon="2.29339">
        <ele>90.3</ele>
        <time>2022-10-29T12:52:05Z</time>
      </trkpt>
      <trkpt lat="49.85152" lon="2.29339">
        <ele>90.3</ele>
        <time>2022-10-29T12:52:06Z</time>
      </trkpt>
      <trkpt lat="49.85152" lon="2.29339">
        <ele>90.3</ele>
        <time>2022-10-29T12:52:07Z</time>
      </trkpt>
      <trkpt lat="49.85152" lon="2.29339">
        <ele>90.3</ele>
        <time>2022-10-29T12:52:08Z</time>
      </trkpt>
      <trkpt lat="49.85152" lon="2.29339">
        <ele>90.3</ele>
        <time>2022-10-29T12:52:09Z</time>
      </trkpt>
      <trkpt lat="49.85152" lon="2.2934">
        <ele>90.3</ele>
        <time>2022-10-29T12:52:10Z</time>
      </trkpt>
      <trkpt lat="49.85152" lon="2.29341">
        <ele>90.3</ele>
        <time>2022-10-29T12:52:11Z</time>
      </trkpt>
      <trkpt lat="49.85152" lon="2.29341">
        <ele>90.3</ele>
        <time>2022-10-29T12:52:12Z</time>
      </trkpt>
      <trkpt lat="49.85152" lon="2.29341">
        <ele>90.3</ele>
        <time>2022-10-29T12:52:13Z</time>
      </trkpt>
      <trkpt lat="49.85152" lon="2.29342">
        <ele>90.3</ele>
        <time>2022-10-29T12:52:14Z</time>
      </trkpt>
      <trkpt lat="49.85152" lon="2.29342">
        <ele>90.3</ele>
        <time>2022-10-29T12:52:15Z</time>
      </trkpt>
      <trkpt lat="49.85152" lon="2.29342">
        <ele>90.3</ele>
        <time>2022-10-29T12:52:16Z</time>
      </trkpt>
      <trkpt lat="49.85152" lon="2.29342">
        <ele>90.3</ele>
        <time>2022-10-29T12:52:17Z</time>
      </trkpt>
      <trkpt lat="49.85152" lon="2.29342">
        <ele>90.3</ele>
        <time>2022-10-29T12:52:18Z</time>
      </trkpt>
      <trkpt lat="49.85153" lon="2.29342">
        <ele>90.3</ele>
        <time>2022-10-29T12:52:19Z</time>
      </trkpt>
      <trkpt lat="49.85153" lon="2.29342">
        <ele>90.3</ele>
        <time>2022-10-29T12:52:20Z</time>
      </trkpt>
      <trkpt lat="49.85153" lon="2.29342">
        <ele>90.3</ele>
        <time>2022-10-29T12:52:21Z</time>
      </trkpt>
      <trkpt lat="49.85153" lon="2.29342">
        <ele>90.3</ele>
        <time>2022-10-29T12:52:22Z</time>
      </trkpt>
      <trkpt lat="49.85153" lon="2.29342">
        <ele>90.3</ele>
        <time>2022-10-29T12:52:23Z</time>
      </trkpt>
      <trkpt lat="49.85153" lon="2.29342">
        <ele>90.3</ele>
        <time>2022-10-29T12:52:24Z</time>
      </trkpt>
      <trkpt lat="49.85153" lon="2.29342">
        <ele>90.3</ele>
        <time>2022-10-29T12:52:25Z</time>
      </trkpt>
      <trkpt lat="49.85153" lon="2.29342">
        <ele>90.3</ele>
        <time>2022-10-29T12:52:26Z</time>
      </trkpt>
      <trkpt lat="49.85153" lon="2.29342">
        <ele>90.3</ele>
        <time>2022-10-29T12:52:27Z</time>
      </trkpt>
      <trkpt lat="49.85153" lon="2.29342">
        <ele>90.3</ele>
        <time>2022-10-29T12:52:28Z</time>
      </trkpt>
      <trkpt lat="49.85153" lon="2.29343">
        <ele>90.3</ele>
        <time>2022-10-29T12:52:29Z</time>
      </trkpt>
      <trkpt lat="49.85153" lon="2.29342">
        <ele>90.3</ele>
        <time>2022-10-29T12:52:30Z</time>
      </trkpt>
      <trkpt lat="49.85153" lon="2.29342">
        <ele>90.3</ele>
        <time>2022-10-29T12:52:31Z</time>
      </trkpt>
      <trkpt lat="49.85153" lon="2.29342">
        <ele>90.3</ele>
        <time>2022-10-29T12:52:32Z</time>
      </trkpt>
      <trkpt lat="49.85153" lon="2.29342">
        <ele>90.3</ele>
        <time>2022-10-29T12:52:33Z</time>
      </trkpt>
      <trkpt lat="49.85153" lon="2.29342">
        <ele>90.3</ele>
        <time>2022-10-29T12:52:34Z</time>
      </trkpt>
      <trkpt lat="49.85153" lon="2.29342">
        <ele>90.3</ele>
        <time>2022-10-29T12:52:35Z</time>
      </trkpt>
      <trkpt lat="49.85153" lon="2.29342">
        <ele>90.3</ele>
        <time>2022-10-29T12:52:36Z</time>
      </trkpt>
      <trkpt lat="49.85153" lon="2.29343">
        <ele>90.3</ele>
        <time>2022-10-29T12:52:37Z</time>
      </trkpt>
      <trkpt lat="49.85153" lon="2.29343">
        <ele>90.3</ele>
        <time>2022-10-29T12:52:38Z</time>
      </trkpt>
      <trkpt lat="49.85153" lon="2.29344">
        <ele>90.2</ele>
        <time>2022-10-29T12:52:40Z</time>
      </trkpt>
      <trkpt lat="49.85154" lon="2.29345">
        <ele>90.2</ele>
        <time>2022-10-29T12:52:41Z</time>
      </trkpt>
      <trkpt lat="49.85154" lon="2.29345">
        <ele>90.2</ele>
        <time>2022-10-29T12:52:42Z</time>
      </trkpt>
      <trkpt lat="49.85154" lon="2.29346">
        <ele>90.2</ele>
        <time>2022-10-29T12:52:43Z</time>
      </trkpt>
      <trkpt lat="49.85154" lon="2.29346">
        <ele>90.2</ele>
        <time>2022-10-29T12:52:44Z</time>
      </trkpt>
      <trkpt lat="49.85153" lon="2.29346">
        <ele>90.2</ele>
        <time>2022-10-29T12:52:45Z</time>
      </trkpt>
      <trkpt lat="49.85153" lon="2.29346">
        <ele>90.2</ele>
        <time>2022-10-29T12:52:46Z</time>
      </trkpt>
      <trkpt lat="49.85153" lon="2.29346">
        <ele>90.2</ele>
        <time>2022-10-29T12:52:47Z</time>
      </trkpt>
      <trkpt lat="49.85153" lon="2.29346">
        <ele>90.2</ele>
        <time>2022-10-29T12:52:48Z</time>
      </trkpt>
      <trkpt lat="49.85153" lon="2.29346">
        <ele>90.2</ele>
        <time>2022-10-29T12:52:49Z</time>
      </trkpt>
      <trkpt lat="49.85153" lon="2.29346">
        <ele>90.2</ele>
        <time>2022-10-29T12:52:50Z</time>
      </trkpt>
      <trkpt lat="49.85153" lon="2.29346">
        <ele>90.2</ele>
        <time>2022-10-29T12:52:51Z</time>
      </trkpt>
      <trkpt lat="49.85152" lon="2.29346">
        <ele>90.2</ele>
        <time>2022-10-29T12:52:52Z</time>
      </trkpt>
      <trkpt lat="49.85152" lon="2.29346">
        <ele>90.2</ele>
        <time>2022-10-29T12:52:53Z</time>
      </trkpt>
      <trkpt lat="49.85152" lon="2.29346">
        <ele>90.2</ele>
        <time>2022-10-29T12:52:54Z</time>
      </trkpt>
      <trkpt lat="49.85152" lon="2.29346">
        <ele>90.2</ele>
        <time>2022-10-29T12:52:55Z</time>
      </trkpt>
      <trkpt lat="49.85152" lon="2.29346">
        <ele>90.2</ele>
        <time>2022-10-29T12:52:56Z</time>
      </trkpt>
      <trkpt lat="49.85152" lon="2.29346">
        <ele>90.2</ele>
        <time>2022-10-29T12:52:57Z</time>
      </trkpt>
      <trkpt lat="49.85152" lon="2.29345">
        <ele>90.2</ele>
        <time>2022-10-29T12:52:58Z</time>
      </trkpt>
      <trkpt lat="49.85152" lon="2.29345">
        <ele>90.2</ele>
        <time>2022-10-29T12:52:59Z</time>
      </trkpt>
      <trkpt lat="49.85152" lon="2.29344">
        <ele>90.2</ele>
        <time>2022-10-29T12:53:00Z</time>
      </trkpt>
      <trkpt lat="49.85152" lon="2.29344">
        <ele>90.2</ele>
        <time>2022-10-29T12:53:01Z</time>
      </trkpt>
      <trkpt lat="49.85152" lon="2.29344">
        <ele>90.2</ele>
        <time>2022-10-29T12:53:02Z</time>
      </trkpt>
      <trkpt lat="49.85152" lon="2.29344">
        <ele>90.2</ele>
        <time>2022-10-29T12:53:03Z</time>
      </trkpt>
      <trkpt lat="49.85152" lon="2.29344">
        <ele>90.2</ele>
        <time>2022-10-29T12:53:04Z</time>
      </trkpt>
      <trkpt lat="49.85152" lon="2.29344">
        <ele>90.2</ele>
        <time>2022-10-29T12:53:05Z</time>
      </trkpt>
      <trkpt lat="49.85152" lon="2.29344">
        <ele>90.2</ele>
        <time>2022-10-29T12:53:06Z</time>
      </trkpt>
      <trkpt lat="49.85152" lon="2.29344">
        <ele>90.2</ele>
        <time>2022-10-29T12:53:07Z</time>
      </trkpt>
      <trkpt lat="49.85152" lon="2.29344">
        <ele>90.2</ele>
        <time>2022-10-29T12:53:08Z</time>
      </trkpt>
      <trkpt lat="49.85152" lon="2.29344">
        <ele>90.2</ele>
        <time>2022-10-29T12:53:09Z</time>
      </trkpt>
      <trkpt lat="49.85152" lon="2.29344">
        <ele>90.2</ele>
        <time>2022-10-29T12:53:10Z</time>
      </trkpt>
      <trkpt lat="49.85152" lon="2.29344">
        <ele>90.2</ele>
        <time>2022-10-29T12:53:11Z</time>
      </trkpt>
      <trkpt lat="49.85152" lon="2.29344">
        <ele>90.2</ele>
        <time>2022-10-29T12:53:12Z</time>
      </trkpt>
      <trkpt lat="49.85152" lon="2.29344">
        <ele>90.2</ele>
        <time>2022-10-29T12:53:13Z</time>
      </trkpt>
      <trkpt lat="49.85152" lon="2.29344">
        <ele>90.2</ele>
        <time>2022-10-29T12:53:14Z</time>
      </trkpt>
      <trkpt lat="49.85152" lon="2.29344">
        <ele>90.2</ele>
        <time>2022-10-29T12:53:15Z</time>
      </trkpt>
      <trkpt lat="49.85152" lon="2.29344">
        <ele>90.2</ele>
        <time>2022-10-29T12:53:16Z</time>
      </trkpt>
      <trkpt lat="49.85152" lon="2.29344">
        <ele>90.2</ele>
        <time>2022-10-29T12:53:17Z</time>
      </trkpt>
      <trkpt lat="49.85152" lon="2.29344">
        <ele>90.2</ele>
        <time>2022-10-29T12:53:18Z</time>
      </trkpt>
      <trkpt lat="49.85152" lon="2.29344">
        <ele>90.2</ele>
        <time>2022-10-29T12:53:19Z</time>
      </trkpt>
      <trkpt lat="49.85152" lon="2.29344">
        <ele>90.2</ele>
        <time>2022-10-29T12:53:20Z</time>
      </trkpt>
      <trkpt lat="49.85152" lon="2.29344">
        <ele>90.2</ele>
        <time>2022-10-29T12:53:21Z</time>
      </trkpt>
      <trkpt lat="49.85152" lon="2.29344">
        <ele>90.2</ele>
        <time>2022-10-29T12:53:22Z</time>
      </trkpt>
      <trkpt lat="49.85152" lon="2.29344">
        <ele>90.2</ele>
        <time>2022-10-29T12:53:23Z</time>
      </trkpt>
      <trkpt lat="49.85152" lon="2.29344">
        <ele>90.2</ele>
        <time>2022-10-29T12:53:24Z</time>
      </trkpt>
      <trkpt lat="49.85152" lon="2.29344">
        <ele>90.2</ele>
        <time>2022-10-29T12:53:25Z</time>
      </trkpt>
      <trkpt lat="49.85152" lon="2.29344">
        <ele>90.2</ele>
        <time>2022-10-29T12:53:26Z</time>
      </trkpt>
      <trkpt lat="49.85152" lon="2.29344">
        <ele>90.2</ele>
        <time>2022-10-29T12:53:27Z</time>
      </trkpt>
      <trkpt lat="49.85152" lon="2.29344">
        <ele>90.2</ele>
        <time>2022-10-29T12:53:28Z</time>
      </trkpt>
      <trkpt lat="49.85152" lon="2.29344">
        <ele>90.2</ele>
        <time>2022-10-29T12:53:29Z</time>
      </trkpt>
      <trkpt lat="49.85152" lon="2.29344">
        <ele>90.2</ele>
        <time>2022-10-29T12:53:30Z</time>
      </trkpt>
      <trkpt lat="49.85152" lon="2.29344">
        <ele>90.2</ele>
        <time>2022-10-29T12:53:31Z</time>
      </trkpt>
      <trkpt lat="49.85152" lon="2.29344">
        <ele>90.2</ele>
        <time>2022-10-29T12:53:32Z</time>
      </trkpt>
      <trkpt lat="49.85152" lon="2.29344">
        <ele>90.2</ele>
        <time>2022-10-29T12:53:33Z</time>
      </trkpt>
      <trkpt lat="49.85152" lon="2.29344">
        <ele>90.2</ele>
        <time>2022-10-29T12:53:34Z</time>
      </trkpt>
      <trkpt lat="49.85152" lon="2.29344">
        <ele>90.2</ele>
        <time>2022-10-29T12:53:35Z</time>
      </trkpt>
      <trkpt lat="49.85152" lon="2.29344">
        <ele>90.3</ele>
        <time>2022-10-29T12:53:36Z</time>
      </trkpt>
      <trkpt lat="49.85152" lon="2.29344">
        <ele>90.3</ele>
        <time>2022-10-29T12:53:37Z</time>
      </trkpt>
      <trkpt lat="49.85152" lon="2.29343">
        <ele>90.3</ele>
        <time>2022-10-29T12:53:38Z</time>
      </trkpt>
      <trkpt lat="49.85151" lon="2.29343">
        <ele>90.6</ele>
        <time>2022-10-29T12:53:39Z</time>
      </trkpt>
      <trkpt lat="49.85151" lon="2.29344">
        <ele>90.6</ele>
        <time>2022-10-29T12:53:40Z</time>
      </trkpt>
      <trkpt lat="49.85151" lon="2.29345">
        <ele>90.5</ele>
        <time>2022-10-29T12:53:42Z</time>
      </trkpt>
      <trkpt lat="49.8515" lon="2.29345">
        <ele>90.5</ele>
        <time>2022-10-29T12:53:43Z</time>
      </trkpt>
      <trkpt lat="49.85149" lon="2.29345">
        <ele>90.5</ele>
        <time>2022-10-29T12:53:44Z</time>
      </trkpt>
      <trkpt lat="49.85148" lon="2.29344">
        <ele>90.8</ele>
        <time>2022-10-29T12:53:46Z</time>
      </trkpt>
      <trkpt lat="49.85148" lon="2.29342">
        <ele>90.9</ele>
        <time>2022-10-29T12:53:47Z</time>
      </trkpt>
      <trkpt lat="49.85147" lon="2.2934">
        <ele>90.9</ele>
        <time>2022-10-29T12:53:48Z</time>
      </trkpt>
      <trkpt lat="49.85148" lon="2.29339">
        <ele>90.9</ele>
        <time>2022-10-29T12:53:49Z</time>
      </trkpt>
      <trkpt lat="49.85149" lon="2.29338">
        <ele>90.6</ele>
        <time>2022-10-29T12:53:50Z</time>
      </trkpt>
      <trkpt lat="49.8515" lon="2.29338">
        <ele>90.6</ele>
        <time>2022-10-29T12:53:51Z</time>
      </trkpt>
      <trkpt lat="49.85151" lon="2.29338">
        <ele>90.6</ele>
        <time>2022-10-29T12:53:52Z</time>
      </trkpt>
      <trkpt lat="49.85152" lon="2.29339">
        <ele>90.6</ele>
        <time>2022-10-29T12:53:53Z</time>
      </trkpt>
      <trkpt lat="49.85151" lon="2.29339">
        <ele>90.6</ele>
        <time>2022-10-29T12:53:54Z</time>
      </trkpt>
      <trkpt lat="49.85151" lon="2.29339">
        <ele>90.6</ele>
        <time>2022-10-29T12:53:55Z</time>
      </trkpt>
      <trkpt lat="49.85151" lon="2.29339">
        <ele>90.6</ele>
        <time>2022-10-29T12:53:56Z</time>
      </trkpt>
      <trkpt lat="49.85151" lon="2.29339">
        <ele>90.6</ele>
        <time>2022-10-29T12:53:57Z</time>
      </trkpt>
      <trkpt lat="49.85151" lon="2.29339">
        <ele>90.6</ele>
        <time>2022-10-29T12:53:58Z</time>
      </trkpt>
      <trkpt lat="49.85151" lon="2.29339">
        <ele>90.6</ele>
        <time>2022-10-29T12:53:59Z</time>
      </trkpt>
      <trkpt lat="49.85151" lon="2.29339">
        <ele>90.6</ele>
        <time>2022-10-29T12:54:00Z</time>
      </trkpt>
      <trkpt lat="49.85151" lon="2.29339">
        <ele>90.6</ele>
        <time>2022-10-29T12:54:01Z</time>
      </trkpt>
      <trkpt lat="49.85152" lon="2.29339">
        <ele>90.6</ele>
        <time>2022-10-29T12:54:02Z</time>
      </trkpt>
      <trkpt lat="49.85152" lon="2.29339">
        <ele>90.3</ele>
        <time>2022-10-29T12:54:03Z</time>
      </trkpt>
      <trkpt lat="49.85151" lon="2.29339">
        <ele>90.6</ele>
        <time>2022-10-29T12:54:04Z</time>
      </trkpt>
      <trkpt lat="49.85151" lon="2.29339">
        <ele>90.6</ele>
        <time>2022-10-29T12:54:05Z</time>
      </trkpt>
      <trkpt lat="49.85151" lon="2.29339">
        <ele>90.6</ele>
        <time>2022-10-29T12:54:06Z</time>
      </trkpt>
      <trkpt lat="49.85151" lon="2.29339">
        <ele>90.6</ele>
        <time>2022-10-29T12:54:07Z</time>
      </trkpt>
      <trkpt lat="49.85151" lon="2.29339">
        <ele>90.6</ele>
        <time>2022-10-29T12:54:08Z</time>
      </trkpt>
      <trkpt lat="49.85151" lon="2.29339">
        <ele>90.6</ele>
        <time>2022-10-29T12:54:09Z</time>
      </trkpt>
      <trkpt lat="49.85151" lon="2.29339">
        <ele>90.6</ele>
        <time>2022-10-29T12:54:10Z</time>
      </trkpt>
      <trkpt lat="49.85151" lon="2.29339">
        <ele>90.6</ele>
        <time>2022-10-29T12:54:11Z</time>
      </trkpt>
      <trkpt lat="49.85151" lon="2.29339">
        <ele>90.6</ele>
        <time>2022-10-29T12:54:12Z</time>
      </trkpt>
      <trkpt lat="49.85151" lon="2.29339">
        <ele>90.6</ele>
        <time>2022-10-29T12:54:13Z</time>
      </trkpt>
      <trkpt lat="49.85151" lon="2.29339">
        <ele>90.6</ele>
        <time>2022-10-29T12:54:14Z</time>
      </trkpt>
      <trkpt lat="49.85151" lon="2.29339">
        <ele>90.6</ele>
        <time>2022-10-29T12:54:15Z</time>
      </trkpt>
      <trkpt lat="49.85151" lon="2.29339">
        <ele>90.6</ele>
        <time>2022-10-29T12:54:16Z</time>
      </trkpt>
      <trkpt lat="49.85151" lon="2.29339">
        <ele>90.6</ele>
        <time>2022-10-29T12:54:17Z</time>
      </trkpt>
      <trkpt lat="49.85151" lon="2.29339">
        <ele>90.6</ele>
        <time>2022-10-29T12:54:18Z</time>
      </trkpt>
      <trkpt lat="49.85151" lon="2.29339">
        <ele>90.6</ele>
        <time>2022-10-29T12:54:19Z</time>
      </trkpt>
      <trkpt lat="49.85151" lon="2.29339">
        <ele>90.6</ele>
        <time>2022-10-29T12:54:20Z</time>
      </trkpt>
      <trkpt lat="49.85151" lon="2.29339">
        <ele>90.6</ele>
        <time>2022-10-29T12:54:21Z</time>
      </trkpt>
      <trkpt lat="49.85151" lon="2.29339">
        <ele>90.6</ele>
        <time>2022-10-29T12:54:22Z</time>
      </trkpt>
      <trkpt lat="49.85151" lon="2.29339">
        <ele>90.6</ele>
        <time>2022-10-29T12:54:23Z</time>
      </trkpt>
      <trkpt lat="49.85151" lon="2.29339">
        <ele>90.6</ele>
        <time>2022-10-29T12:54:24Z</time>
      </trkpt>
      <trkpt lat="49.85151" lon="2.29339">
        <ele>90.6</ele>
        <time>2022-10-29T12:54:25Z</time>
      </trkpt>
      <trkpt lat="49.85151" lon="2.29339">
        <ele>90.6</ele>
        <time>2022-10-29T12:54:26Z</time>
      </trkpt>
      <trkpt lat="49.85151" lon="2.29339">
        <ele>90.6</ele>
        <time>2022-10-29T12:54:27Z</time>
      </trkpt>
      <trkpt lat="49.85151" lon="2.29339">
        <ele>90.6</ele>
        <time>2022-10-29T12:54:28Z</time>
      </trkpt>
      <trkpt lat="49.85151" lon="2.29339">
        <ele>90.6</ele>
        <time>2022-10-29T12:54:29Z</time>
      </trkpt>
      <trkpt lat="49.85151" lon="2.29339">
        <ele>90.6</ele>
        <time>2022-10-29T12:54:30Z</time>
      </trkpt>
      <trkpt lat="49.85151" lon="2.29339">
        <ele>90.6</ele>
        <time>2022-10-29T12:54:31Z</time>
      </trkpt>
      <trkpt lat="49.85151" lon="2.29339">
        <ele>90.6</ele>
        <time>2022-10-29T12:54:32Z</time>
      </trkpt>
      <trkpt lat="49.85151" lon="2.29339">
        <ele>90.6</ele>
        <time>2022-10-29T12:54:33Z</time>
      </trkpt>
      <trkpt lat="49.85151" lon="2.29339">
        <ele>90.6</ele>
        <time>2022-10-29T12:54:34Z</time>
      </trkpt>
      <trkpt lat="49.85151" lon="2.29339">
        <ele>90.6</ele>
        <time>2022-10-29T12:54:35Z</time>
      </trkpt>
      <trkpt lat="49.85151" lon="2.29339">
        <ele>90.6</ele>
        <time>2022-10-29T12:54:36Z</time>
      </trkpt>
      <trkpt lat="49.85151" lon="2.29339">
        <ele>90.6</ele>
        <time>2022-10-29T12:54:37Z</time>
      </trkpt>
      <trkpt lat="49.85151" lon="2.29339">
        <ele>90.6</ele>
        <time>2022-10-29T12:54:38Z</time>
      </trkpt>
      <trkpt lat="49.85151" lon="2.29339">
        <ele>90.6</ele>
        <time>2022-10-29T12:54:39Z</time>
      </trkpt>
      <trkpt lat="49.85151" lon="2.29339">
        <ele>90.6</ele>
        <time>2022-10-29T12:54:40Z</time>
      </trkpt>
      <trkpt lat="49.85151" lon="2.29339">
        <ele>90.6</ele>
        <time>2022-10-29T12:54:41Z</time>
      </trkpt>
      <trkpt lat="49.85151" lon="2.29339">
        <ele>90.6</ele>
        <time>2022-10-29T12:54:42Z</time>
      </trkpt>
      <trkpt lat="49.85151" lon="2.29339">
        <ele>90.6</ele>
        <time>2022-10-29T12:54:43Z</time>
      </trkpt>
      <trkpt lat="49.85151" lon="2.29339">
        <ele>90.6</ele>
        <time>2022-10-29T12:54:44Z</time>
      </trkpt>
      <trkpt lat="49.85151" lon="2.29339">
        <ele>90.6</ele>
        <time>2022-10-29T12:54:45Z</time>
      </trkpt>
      <trkpt lat="49.85151" lon="2.29339">
        <ele>90.6</ele>
        <time>2022-10-29T12:54:46Z</time>
      </trkpt>
      <trkpt lat="49.85151" lon="2.29339">
        <ele>90.6</ele>
        <time>2022-10-29T12:54:47Z</time>
      </trkpt>
      <trkpt lat="49.85151" lon="2.29339">
        <ele>90.6</ele>
        <time>2022-10-29T12:54:48Z</time>
      </trkpt>
      <trkpt lat="49.85151" lon="2.29339">
        <ele>90.6</ele>
        <time>2022-10-29T12:54:49Z</time>
      </trkpt>
      <trkpt lat="49.85151" lon="2.29339">
        <ele>90.6</ele>
        <time>2022-10-29T12:54:50Z</time>
      </trkpt>
      <trkpt lat="49.85151" lon="2.29339">
        <ele>90.6</ele>
        <time>2022-10-29T12:54:51Z</time>
      </trkpt>
      <trkpt lat="49.85151" lon="2.29339">
        <ele>90.6</ele>
        <time>2022-10-29T12:54:52Z</time>
      </trkpt>
      <trkpt lat="49.85151" lon="2.29339">
        <ele>90.6</ele>
        <time>2022-10-29T12:54:53Z</time>
      </trkpt>
      <trkpt lat="49.85151" lon="2.29339">
        <ele>90.6</ele>
        <time>2022-10-29T12:54:54Z</time>
      </trkpt>
      <trkpt lat="49.85151" lon="2.29339">
        <ele>90.6</ele>
        <time>2022-10-29T12:54:55Z</time>
      </trkpt>
      <trkpt lat="49.85151" lon="2.29339">
        <ele>90.6</ele>
        <time>2022-10-29T12:54:56Z</time>
      </trkpt>
      <trkpt lat="49.85151" lon="2.29339">
        <ele>90.6</ele>
        <time>2022-10-29T12:54:57Z</time>
      </trkpt>
      <trkpt lat="49.85151" lon="2.29339">
        <ele>90.6</ele>
        <time>2022-10-29T12:54:58Z</time>
      </trkpt>
      <trkpt lat="49.85151" lon="2.29339">
        <ele>90.6</ele>
        <time>2022-10-29T12:54:59Z</time>
      </trkpt>
      <trkpt lat="49.85151" lon="2.29339">
        <ele>90.6</ele>
        <time>2022-10-29T12:55:00Z</time>
      </trkpt>
      <trkpt lat="49.85151" lon="2.29339">
        <ele>90.6</ele>
        <time>2022-10-29T12:55:01Z</time>
      </trkpt>
      <trkpt lat="49.85151" lon="2.29339">
        <ele>90.6</ele>
        <time>2022-10-29T12:55:02Z</time>
      </trkpt>
      <trkpt lat="49.85151" lon="2.29339">
        <ele>90.6</ele>
        <time>2022-10-29T12:55:03Z</time>
      </trkpt>
      <trkpt lat="49.85151" lon="2.29339">
        <ele>90.6</ele>
        <time>2022-10-29T12:55:04Z</time>
      </trkpt>
      <trkpt lat="49.85151" lon="2.29339">
        <ele>90.6</ele>
        <time>2022-10-29T12:55:06Z</time>
      </trkpt>
      <trkpt lat="49.85151" lon="2.29339">
        <ele>90.6</ele>
        <time>2022-10-29T12:55:07Z</time>
      </trkpt>
      <trkpt lat="49.85151" lon="2.2934">
        <ele>90.6</ele>
        <time>2022-10-29T12:55:08Z</time>
      </trkpt>
      <trkpt lat="49.8515" lon="2.2934">
        <ele>90.6</ele>
        <time>2022-10-29T12:55:09Z</time>
      </trkpt>
      <trkpt lat="49.8515" lon="2.29339">
        <ele>90.6</ele>
        <time>2022-10-29T12:55:10Z</time>
      </trkpt>
      <trkpt lat="49.85149" lon="2.29339">
        <ele>90.6</ele>
        <time>2022-10-29T12:55:11Z</time>
      </trkpt>
      <trkpt lat="49.85148" lon="2.29337">
        <ele>90.9</ele>
        <time>2022-10-29T12:55:12Z</time>
      </trkpt>
      <trkpt lat="49.85148" lon="2.29336">
        <ele>90.9</ele>
        <time>2022-10-29T12:55:14Z</time>
      </trkpt>
      <trkpt lat="49.85147" lon="2.29335">
        <ele>90.9</ele>
        <time>2022-10-29T12:55:15Z</time>
      </trkpt>
      <trkpt lat="49.85146" lon="2.29335">
        <ele>90.9</ele>
        <time>2022-10-29T12:55:16Z</time>
      </trkpt>
      <trkpt lat="49.85146" lon="2.29335">
        <ele>90.9</ele>
        <time>2022-10-29T12:55:17Z</time>
      </trkpt>
      <trkpt lat="49.85146" lon="2.29335">
        <ele>90.9</ele>
        <time>2022-10-29T12:55:18Z</time>
      </trkpt>
      <trkpt lat="49.85147" lon="2.29335">
        <ele>90.9</ele>
        <time>2022-10-29T12:55:19Z</time>
      </trkpt>
      <trkpt lat="49.85147" lon="2.29335">
        <ele>90.9</ele>
        <time>2022-10-29T12:55:20Z</time>
      </trkpt>
      <trkpt lat="49.85147" lon="2.29336">
        <ele>90.9</ele>
        <time>2022-10-29T12:55:21Z</time>
      </trkpt>
      <trkpt lat="49.85147" lon="2.29336">
        <ele>90.9</ele>
        <time>2022-10-29T12:55:22Z</time>
      </trkpt>
      <trkpt lat="49.85147" lon="2.29336">
        <ele>90.9</ele>
        <time>2022-10-29T12:55:23Z</time>
      </trkpt>
      <trkpt lat="49.85147" lon="2.29336">
        <ele>90.9</ele>
        <time>2022-10-29T12:55:24Z</time>
      </trkpt>
      <trkpt lat="49.85147" lon="2.29336">
        <ele>90.9</ele>
        <time>2022-10-29T12:55:25Z</time>
      </trkpt>
      <trkpt lat="49.85147" lon="2.29336">
        <ele>90.9</ele>
        <time>2022-10-29T12:55:26Z</time>
      </trkpt>
      <trkpt lat="49.85147" lon="2.29336">
        <ele>90.9</ele>
        <time>2022-10-29T12:55:27Z</time>
      </trkpt>
      <trkpt lat="49.85147" lon="2.29336">
        <ele>90.9</ele>
        <time>2022-10-29T12:55:28Z</time>
      </trkpt>
      <trkpt lat="49.85147" lon="2.29336">
        <ele>90.9</ele>
        <time>2022-10-29T12:55:29Z</time>
      </trkpt>
      <trkpt lat="49.85147" lon="2.29336">
        <ele>90.9</ele>
        <time>2022-10-29T12:55:30Z</time>
      </trkpt>
      <trkpt lat="49.85147" lon="2.29337">
        <ele>90.9</ele>
        <time>2022-10-29T12:55:31Z</time>
      </trkpt>
      <trkpt lat="49.85147" lon="2.29337">
        <ele>90.9</ele>
        <time>2022-10-29T12:55:32Z</time>
      </trkpt>
      <trkpt lat="49.85147" lon="2.29337">
        <ele>90.9</ele>
        <time>2022-10-29T12:55:33Z</time>
      </trkpt>
      <trkpt lat="49.85147" lon="2.29337">
        <ele>90.9</ele>
        <time>2022-10-29T12:55:34Z</time>
      </trkpt>
      <trkpt lat="49.85147" lon="2.29337">
        <ele>90.9</ele>
        <time>2022-10-29T12:55:35Z</time>
      </trkpt>
      <trkpt lat="49.85147" lon="2.29337">
        <ele>90.9</ele>
        <time>2022-10-29T12:55:36Z</time>
      </trkpt>
      <trkpt lat="49.85147" lon="2.29337">
        <ele>90.9</ele>
        <time>2022-10-29T12:55:37Z</time>
      </trkpt>
      <trkpt lat="49.85147" lon="2.29337">
        <ele>90.9</ele>
        <time>2022-10-29T12:55:38Z</time>
      </trkpt>
      <trkpt lat="49.85148" lon="2.29337">
        <ele>90.9</ele>
        <time>2022-10-29T12:55:39Z</time>
      </trkpt>
      <trkpt lat="49.85148" lon="2.29337">
        <ele>90.9</ele>
        <time>2022-10-29T12:55:40Z</time>
      </trkpt>
      <trkpt lat="49.85148" lon="2.29337">
        <ele>90.9</ele>
        <time>2022-10-29T12:55:41Z</time>
      </trkpt>
      <trkpt lat="49.85148" lon="2.29338">
        <ele>90.9</ele>
        <time>2022-10-29T12:55:42Z</time>
      </trkpt>
      <trkpt lat="49.85148" lon="2.29338">
        <ele>90.9</ele>
        <time>2022-10-29T12:55:43Z</time>
      </trkpt>
      <trkpt lat="49.85148" lon="2.29338">
        <ele>90.9</ele>
        <time>2022-10-29T12:55:44Z</time>
      </trkpt>
      <trkpt lat="49.85148" lon="2.29338">
        <ele>90.9</ele>
        <time>2022-10-29T12:55:45Z</time>
      </trkpt>
      <trkpt lat="49.85148" lon="2.29338">
        <ele>90.9</ele>
        <time>2022-10-29T12:55:46Z</time>
      </trkpt>
      <trkpt lat="49.85148" lon="2.29338">
        <ele>90.9</ele>
        <time>2022-10-29T12:55:47Z</time>
      </trkpt>
      <trkpt lat="49.85148" lon="2.29338">
        <ele>90.9</ele>
        <time>2022-10-29T12:55:48Z</time>
      </trkpt>
      <trkpt lat="49.85148" lon="2.29338">
        <ele>90.9</ele>
        <time>2022-10-29T12:55:49Z</time>
      </trkpt>
      <trkpt lat="49.85148" lon="2.29338">
        <ele>90.9</ele>
        <time>2022-10-29T12:55:50Z</time>
      </trkpt>
      <trkpt lat="49.85148" lon="2.29338">
        <ele>90.9</ele>
        <time>2022-10-29T12:55:51Z</time>
      </trkpt>
      <trkpt lat="49.85148" lon="2.29339">
        <ele>90.9</ele>
        <time>2022-10-29T12:55:52Z</time>
      </trkpt>
      <trkpt lat="49.85148" lon="2.29339">
        <ele>90.9</ele>
        <time>2022-10-29T12:55:53Z</time>
      </trkpt>
      <trkpt lat="49.85148" lon="2.29339">
        <ele>90.9</ele>
        <time>2022-10-29T12:55:54Z</time>
      </trkpt>
      <trkpt lat="49.85148" lon="2.29339">
        <ele>90.9</ele>
        <time>2022-10-29T12:55:55Z</time>
      </trkpt>
      <trkpt lat="49.85148" lon="2.29339">
        <ele>90.9</ele>
        <time>2022-10-29T12:55:56Z</time>
      </trkpt>
      <trkpt lat="49.85148" lon="2.29339">
        <ele>90.9</ele>
        <time>2022-10-29T12:55:57Z</time>
      </trkpt>
      <trkpt lat="49.85148" lon="2.29339">
        <ele>90.9</ele>
        <time>2022-10-29T12:55:58Z</time>
      </trkpt>
      <trkpt lat="49.85149" lon="2.29339">
        <ele>90.9</ele>
        <time>2022-10-29T12:55:59Z</time>
      </trkpt>
      <trkpt lat="49.85149" lon="2.29339">
        <ele>90.9</ele>
        <time>2022-10-29T12:56:00Z</time>
      </trkpt>
      <trkpt lat="49.85149" lon="2.29339">
        <ele>90.9</ele>
        <time>2022-10-29T12:56:01Z</time>
      </trkpt>
      <trkpt lat="49.85149" lon="2.2934">
        <ele>90.9</ele>
        <time>2022-10-29T12:56:02Z</time>
      </trkpt>
      <trkpt lat="49.85149" lon="2.2934">
        <ele>90.9</ele>
        <time>2022-10-29T12:56:03Z</time>
      </trkpt>
      <trkpt lat="49.85149" lon="2.2934">
        <ele>90.9</ele>
        <time>2022-10-29T12:56:04Z</time>
      </trkpt>
      <trkpt lat="49.85149" lon="2.2934">
        <ele>90.6</ele>
        <time>2022-10-29T12:56:05Z</time>
      </trkpt>
      <trkpt lat="49.85149" lon="2.2934">
        <ele>90.6</ele>
        <time>2022-10-29T12:56:06Z</time>
      </trkpt>
      <trkpt lat="49.85149" lon="2.29341">
        <ele>90.6</ele>
        <time>2022-10-29T12:56:07Z</time>
      </trkpt>
      <trkpt lat="49.85149" lon="2.29341">
        <ele>90.6</ele>
        <time>2022-10-29T12:56:08Z</time>
      </trkpt>
      <trkpt lat="49.85149" lon="2.2934">
        <ele>90.6</ele>
        <time>2022-10-29T12:56:09Z</time>
      </trkpt>
      <trkpt lat="49.85149" lon="2.29339">
        <ele>90.6</ele>
        <time>2022-10-29T12:56:10Z</time>
      </trkpt>
      <trkpt lat="49.85149" lon="2.29339">
        <ele>90.6</ele>
        <time>2022-10-29T12:56:11Z</time>
      </trkpt>
      <trkpt lat="49.85149" lon="2.29338">
        <ele>90.9</ele>
        <time>2022-10-29T12:56:13Z</time>
      </trkpt>
      <trkpt lat="49.85149" lon="2.29337">
        <ele>90.9</ele>
        <time>2022-10-29T12:56:14Z</time>
      </trkpt>
      <trkpt lat="49.85149" lon="2.29336">
        <ele>90.9</ele>
        <time>2022-10-29T12:56:15Z</time>
      </trkpt>
      <trkpt lat="49.85148" lon="2.29335">
        <ele>90.9</ele>
        <time>2022-10-29T12:56:16Z</time>
      </trkpt>
      <trkpt lat="49.85148" lon="2.29332">
        <ele>90.9</ele>
        <time>2022-10-29T12:56:17Z</time>
      </trkpt>
      <trkpt lat="49.85148" lon="2.29332">
        <ele>90.9</ele>
        <time>2022-10-29T12:56:19Z</time>
      </trkpt>
      <trkpt lat="49.85148" lon="2.29332">
        <ele>90.9</ele>
        <time>2022-10-29T12:56:21Z</time>
      </trkpt>
      <trkpt lat="49.85148" lon="2.29332">
        <ele>90.9</ele>
        <time>2022-10-29T12:56:22Z</time>
      </trkpt>
      <trkpt lat="49.85148" lon="2.29331">
        <ele>90.9</ele>
        <time>2022-10-29T12:56:24Z</time>
      </trkpt>
      <trkpt lat="49.85148" lon="2.29331">
        <ele>91</ele>
        <time>2022-10-29T12:56:25Z</time>
      </trkpt>
      <trkpt lat="49.85147" lon="2.29331">
        <ele>91</ele>
        <time>2022-10-29T12:56:26Z</time>
      </trkpt>
      <trkpt lat="49.85147" lon="2.29331">
        <ele>91</ele>
        <time>2022-10-29T12:56:27Z</time>
      </trkpt>
      <trkpt lat="49.85147" lon="2.2933">
        <ele>91</ele>
        <time>2022-10-29T12:56:28Z</time>
      </trkpt>
      <trkpt lat="49.85147" lon="2.2933">
        <ele>91</ele>
        <time>2022-10-29T12:56:29Z</time>
      </trkpt>
      <trkpt lat="49.85147" lon="2.2933">
        <ele>91</ele>
        <time>2022-10-29T12:56:30Z</time>
      </trkpt>
      <trkpt lat="49.85147" lon="2.29329">
        <ele>91</ele>
        <time>2022-10-29T12:56:32Z</time>
      </trkpt>
      <trkpt lat="49.85147" lon="2.29329">
        <ele>91</ele>
        <time>2022-10-29T12:56:33Z</time>
      </trkpt>
      <trkpt lat="49.85147" lon="2.29329">
        <ele>91</ele>
        <time>2022-10-29T12:56:34Z</time>
      </trkpt>
      <trkpt lat="49.85147" lon="2.29329">
        <ele>91</ele>
        <time>2022-10-29T12:56:35Z</time>
      </trkpt>
      <trkpt lat="49.85147" lon="2.29328">
        <ele>91</ele>
        <time>2022-10-29T12:56:36Z</time>
      </trkpt>
      <trkpt lat="49.85147" lon="2.29328">
        <ele>91</ele>
        <time>2022-10-29T12:56:37Z</time>
      </trkpt>
      <trkpt lat="49.85147" lon="2.29328">
        <ele>91</ele>
        <time>2022-10-29T12:56:38Z</time>
      </trkpt>
      <trkpt lat="49.85147" lon="2.29328">
        <ele>91</ele>
        <time>2022-10-29T12:56:39Z</time>
      </trkpt>
      <trkpt lat="49.85147" lon="2.29327">
        <ele>91</ele>
        <time>2022-10-29T12:56:41Z</time>
      </trkpt>
      <trkpt lat="49.85147" lon="2.29327">
        <ele>91</ele>
        <time>2022-10-29T12:56:42Z</time>
      </trkpt>
      <trkpt lat="49.85147" lon="2.29327">
        <ele>91</ele>
        <time>2022-10-29T12:56:43Z</time>
      </trkpt>
      <trkpt lat="49.85147" lon="2.29327">
        <ele>91</ele>
        <time>2022-10-29T12:56:44Z</time>
      </trkpt>
      <trkpt lat="49.85147" lon="2.29326">
        <ele>91</ele>
        <time>2022-10-29T12:56:45Z</time>
      </trkpt>
      <trkpt lat="49.85146" lon="2.29325">
        <ele>91</ele>
        <time>2022-10-29T12:56:46Z</time>
      </trkpt>
      <trkpt lat="49.85146" lon="2.29324">
        <ele>91</ele>
        <time>2022-10-29T12:56:47Z</time>
      </trkpt>
      <trkpt lat="49.85146" lon="2.29322">
        <ele>91.2</ele>
        <time>2022-10-29T12:56:49Z</time>
      </trkpt>
      <trkpt lat="49.85146" lon="2.29321">
        <ele>91.2</ele>
        <time>2022-10-29T12:56:50Z</time>
      </trkpt>
      <trkpt lat="49.85146" lon="2.29319">
        <ele>91.2</ele>
        <time>2022-10-29T12:56:51Z</time>
      </trkpt>
      <trkpt lat="49.85146" lon="2.29317">
        <ele>91.2</ele>
        <time>2022-10-29T12:56:52Z</time>
      </trkpt>
      <trkpt lat="49.85146" lon="2.29315">
        <ele>91.2</ele>
        <time>2022-10-29T12:56:53Z</time>
      </trkpt>
      <trkpt lat="49.85146" lon="2.29313">
        <ele>91.1</ele>
        <time>2022-10-29T12:56:54Z</time>
      </trkpt>
      <trkpt lat="49.85146" lon="2.2931">
        <ele>91.1</ele>
        <time>2022-10-29T12:56:56Z</time>
      </trkpt>
      <trkpt lat="49.85145" lon="2.29308">
        <ele>91.1</ele>
        <time>2022-10-29T12:56:57Z</time>
      </trkpt>
      <trkpt lat="49.85145" lon="2.29306">
        <ele>91.1</ele>
        <time>2022-10-29T12:56:58Z</time>
      </trkpt>
      <trkpt lat="49.85145" lon="2.29304">
        <ele>91</ele>
        <time>2022-10-29T12:56:59Z</time>
      </trkpt>
      <trkpt lat="49.85145" lon="2.29301">
        <ele>91</ele>
        <time>2022-10-29T12:57:00Z</time>
      </trkpt>
      <trkpt lat="49.85145" lon="2.29299">
        <ele>90.9</ele>
        <time>2022-10-29T12:57:01Z</time>
      </trkpt>
      <trkpt lat="49.85145" lon="2.29297">
        <ele>90.9</ele>
        <time>2022-10-29T12:57:02Z</time>
      </trkpt>
      <trkpt lat="49.85145" lon="2.29295">
        <ele>90.8</ele>
        <time>2022-10-29T12:57:03Z</time>
      </trkpt>
      <trkpt lat="49.85144" lon="2.29292">
        <ele>90.7</ele>
        <time>2022-10-29T12:57:04Z</time>
      </trkpt>
      <trkpt lat="49.85144" lon="2.29289">
        <ele>90.7</ele>
        <time>2022-10-29T12:57:05Z</time>
      </trkpt>
      <trkpt lat="49.85144" lon="2.29287">
        <ele>90.7</ele>
        <time>2022-10-29T12:57:06Z</time>
      </trkpt>
      <trkpt lat="49.85143" lon="2.29285">
        <ele>90.7</ele>
        <time>2022-10-29T12:57:08Z</time>
      </trkpt>
      <trkpt lat="49.85143" lon="2.29283">
        <ele>90.8</ele>
        <time>2022-10-29T12:57:09Z</time>
      </trkpt>
      <trkpt lat="49.85143" lon="2.29281">
        <ele>90.8</ele>
        <time>2022-10-29T12:57:10Z</time>
      </trkpt>
      <trkpt lat="49.85142" lon="2.29276">
        <ele>90.8</ele>
        <time>2022-10-29T12:57:11Z</time>
      </trkpt>
      <trkpt lat="49.85141" lon="2.29274">
        <ele>90.8</ele>
        <time>2022-10-29T12:57:13Z</time>
      </trkpt>
      <trkpt lat="49.85141" lon="2.29272">
        <ele>90.8</ele>
        <time>2022-10-29T12:57:14Z</time>
      </trkpt>
      <trkpt lat="49.85141" lon="2.2927">
        <ele>90.7</ele>
        <time>2022-10-29T12:57:16Z</time>
      </trkpt>
      <trkpt lat="49.8514" lon="2.29268">
        <ele>91</ele>
        <time>2022-10-29T12:57:17Z</time>
      </trkpt>
      <trkpt lat="49.8514" lon="2.29266">
        <ele>90.9</ele>
        <time>2022-10-29T12:57:18Z</time>
      </trkpt>
      <trkpt lat="49.85139" lon="2.29263">
        <ele>90.9</ele>
        <time>2022-10-29T12:57:19Z</time>
      </trkpt>
      <trkpt lat="49.85139" lon="2.29262">
        <ele>90.9</ele>
        <time>2022-10-29T12:57:21Z</time>
      </trkpt>
      <trkpt lat="49.85138" lon="2.29261">
        <ele>90.9</ele>
        <time>2022-10-29T12:57:22Z</time>
      </trkpt>
      <trkpt lat="49.85138" lon="2.29259">
        <ele>90.9</ele>
        <time>2022-10-29T12:57:23Z</time>
      </trkpt>
      <trkpt lat="49.85137" lon="2.29257">
        <ele>91.2</ele>
        <time>2022-10-29T12:57:24Z</time>
      </trkpt>
      <trkpt lat="49.85137" lon="2.29256">
        <ele>91.2</ele>
        <time>2022-10-29T12:57:26Z</time>
      </trkpt>
      <trkpt lat="49.85137" lon="2.29254">
        <ele>91.2</ele>
        <time>2022-10-29T12:57:27Z</time>
      </trkpt>
      <trkpt lat="49.85136" lon="2.29253">
        <ele>91.2</ele>
        <time>2022-10-29T12:57:28Z</time>
      </trkpt>
      <trkpt lat="49.85136" lon="2.29251">
        <ele>91.2</ele>
        <time>2022-10-29T12:57:29Z</time>
      </trkpt>
      <trkpt lat="49.85136" lon="2.2925">
        <ele>91.2</ele>
        <time>2022-10-29T12:57:30Z</time>
      </trkpt>
      <trkpt lat="49.85135" lon="2.29249">
        <ele>91.2</ele>
        <time>2022-10-29T12:57:31Z</time>
      </trkpt>
      <trkpt lat="49.85135" lon="2.29247">
        <ele>91.2</ele>
        <time>2022-10-29T12:57:32Z</time>
      </trkpt>
      <trkpt lat="49.85135" lon="2.29246">
        <ele>91.4</ele>
        <time>2022-10-29T12:57:34Z</time>
      </trkpt>
      <trkpt lat="49.85135" lon="2.29245">
        <ele>91.5</ele>
        <time>2022-10-29T12:57:35Z</time>
      </trkpt>
      <trkpt lat="49.85134" lon="2.29244">
        <ele>91.5</ele>
        <time>2022-10-29T12:57:36Z</time>
      </trkpt>
      <trkpt lat="49.85134" lon="2.29242">
        <ele>91.5</ele>
        <time>2022-10-29T12:57:37Z</time>
      </trkpt>
      <trkpt lat="49.85134" lon="2.2924">
        <ele>91.5</ele>
        <time>2022-10-29T12:57:38Z</time>
      </trkpt>
      <trkpt lat="49.85134" lon="2.29239">
        <ele>91.5</ele>
        <time>2022-10-29T12:57:39Z</time>
      </trkpt>
      <trkpt lat="49.85133" lon="2.29237">
        <ele>91.5</ele>
        <time>2022-10-29T12:57:41Z</time>
      </trkpt>
      <trkpt lat="49.85133" lon="2.29236">
        <ele>91.6</ele>
        <time>2022-10-29T12:57:42Z</time>
      </trkpt>
      <trkpt lat="49.85133" lon="2.29234">
        <ele>91.6</ele>
        <time>2022-10-29T12:57:43Z</time>
      </trkpt>
      <trkpt lat="49.85132" lon="2.29233">
        <ele>91.6</ele>
        <time>2022-10-29T12:57:44Z</time>
      </trkpt>
      <trkpt lat="49.85132" lon="2.29229">
        <ele>91.8</ele>
        <time>2022-10-29T12:57:46Z</time>
      </trkpt>
      <trkpt lat="49.85132" lon="2.29228">
        <ele>91.8</ele>
        <time>2022-10-29T12:57:47Z</time>
      </trkpt>
      <trkpt lat="49.85132" lon="2.29227">
        <ele>91.9</ele>
        <time>2022-10-29T12:57:48Z</time>
      </trkpt>
      <trkpt lat="49.85132" lon="2.29225">
        <ele>91.9</ele>
        <time>2022-10-29T12:57:49Z</time>
      </trkpt>
      <trkpt lat="49.85132" lon="2.29224">
        <ele>91.9</ele>
        <time>2022-10-29T12:57:51Z</time>
      </trkpt>
      <trkpt lat="49.85132" lon="2.29222">
        <ele>91.9</ele>
        <time>2022-10-29T12:57:52Z</time>
      </trkpt>
      <trkpt lat="49.85132" lon="2.29221">
        <ele>91.9</ele>
        <time>2022-10-29T12:57:53Z</time>
      </trkpt>
      <trkpt lat="49.85132" lon="2.29219">
        <ele>92</ele>
        <time>2022-10-29T12:57:54Z</time>
      </trkpt>
      <trkpt lat="49.85132" lon="2.29218">
        <ele>92</ele>
        <time>2022-10-29T12:57:55Z</time>
      </trkpt>
      <trkpt lat="49.85132" lon="2.29216">
        <ele>92</ele>
        <time>2022-10-29T12:57:57Z</time>
      </trkpt>
      <trkpt lat="49.85132" lon="2.29215">
        <ele>92.1</ele>
        <time>2022-10-29T12:57:58Z</time>
      </trkpt>
      <trkpt lat="49.85131" lon="2.29213">
        <ele>92.1</ele>
        <time>2022-10-29T12:57:59Z</time>
      </trkpt>
      <trkpt lat="49.85131" lon="2.2921">
        <ele>92.1</ele>
        <time>2022-10-29T12:58:00Z</time>
      </trkpt>
      <trkpt lat="49.85131" lon="2.29209">
        <ele>92.1</ele>
        <time>2022-10-29T12:58:02Z</time>
      </trkpt>
      <trkpt lat="49.8513" lon="2.29207">
        <ele>92.1</ele>
        <time>2022-10-29T12:58:03Z</time>
      </trkpt>
      <trkpt lat="49.8513" lon="2.29206">
        <ele>92.2</ele>
        <time>2022-10-29T12:58:05Z</time>
      </trkpt>
      <trkpt lat="49.8513" lon="2.29205">
        <ele>92.2</ele>
        <time>2022-10-29T12:58:06Z</time>
      </trkpt>
      <trkpt lat="49.8513" lon="2.29204">
        <ele>92.2</ele>
        <time>2022-10-29T12:58:07Z</time>
      </trkpt>
      <trkpt lat="49.8513" lon="2.29202">
        <ele>92.2</ele>
        <time>2022-10-29T12:58:08Z</time>
      </trkpt>
      <trkpt lat="49.8513" lon="2.29201">
        <ele>92.2</ele>
        <time>2022-10-29T12:58:09Z</time>
      </trkpt>
      <trkpt lat="49.8513" lon="2.292">
        <ele>92.2</ele>
        <time>2022-10-29T12:58:10Z</time>
      </trkpt>
      <trkpt lat="49.8513" lon="2.29198">
        <ele>92.3</ele>
        <time>2022-10-29T12:58:11Z</time>
      </trkpt>
      <trkpt lat="49.8513" lon="2.29196">
        <ele>92.3</ele>
        <time>2022-10-29T12:58:12Z</time>
      </trkpt>
      <trkpt lat="49.85129" lon="2.29195">
        <ele>92.5</ele>
        <time>2022-10-29T12:58:14Z</time>
      </trkpt>
      <trkpt lat="49.85129" lon="2.29193">
        <ele>92.5</ele>
        <time>2022-10-29T12:58:15Z</time>
      </trkpt>
      <trkpt lat="49.85129" lon="2.29191">
        <ele>92.5</ele>
        <time>2022-10-29T12:58:16Z</time>
      </trkpt>
      <trkpt lat="49.85129" lon="2.2919">
        <ele>92.5</ele>
        <time>2022-10-29T12:58:18Z</time>
      </trkpt>
      <trkpt lat="49.85128" lon="2.29188">
        <ele>92.6</ele>
        <time>2022-10-29T12:58:19Z</time>
      </trkpt>
      <trkpt lat="49.85128" lon="2.29187">
        <ele>92.6</ele>
        <time>2022-10-29T12:58:20Z</time>
      </trkpt>
      <trkpt lat="49.85128" lon="2.29186">
        <ele>92.6</ele>
        <time>2022-10-29T12:58:21Z</time>
      </trkpt>
      <trkpt lat="49.85127" lon="2.29184">
        <ele>92.6</ele>
        <time>2022-10-29T12:58:22Z</time>
      </trkpt>
      <trkpt lat="49.85127" lon="2.29181">
        <ele>92.7</ele>
        <time>2022-10-29T12:58:23Z</time>
      </trkpt>
      <trkpt lat="49.85127" lon="2.29179">
        <ele>92.7</ele>
        <time>2022-10-29T12:58:24Z</time>
      </trkpt>
      <trkpt lat="49.85127" lon="2.29177">
        <ele>92.7</ele>
        <time>2022-10-29T12:58:26Z</time>
      </trkpt>
      <trkpt lat="49.85127" lon="2.29176">
        <ele>92.7</ele>
        <time>2022-10-29T12:58:27Z</time>
      </trkpt>
      <trkpt lat="49.85127" lon="2.29174">
        <ele>92.7</ele>
        <time>2022-10-29T12:58:28Z</time>
      </trkpt>
      <trkpt lat="49.85127" lon="2.29173">
        <ele>92.9</ele>
        <time>2022-10-29T12:58:30Z</time>
      </trkpt>
      <trkpt lat="49.85127" lon="2.29171">
        <ele>92.9</ele>
        <time>2022-10-29T12:58:31Z</time>
      </trkpt>
      <trkpt lat="49.85127" lon="2.29169">
        <ele>92.9</ele>
        <time>2022-10-29T12:58:32Z</time>
      </trkpt>
      <trkpt lat="49.85127" lon="2.29168">
        <ele>92.9</ele>
        <time>2022-10-29T12:58:33Z</time>
      </trkpt>
      <trkpt lat="49.85126" lon="2.29166">
        <ele>92.9</ele>
        <time>2022-10-29T12:58:35Z</time>
      </trkpt>
      <trkpt lat="49.85126" lon="2.29165">
        <ele>92.9</ele>
        <time>2022-10-29T12:58:36Z</time>
      </trkpt>
      <trkpt lat="49.85126" lon="2.29163">
        <ele>92.9</ele>
        <time>2022-10-29T12:58:37Z</time>
      </trkpt>
      <trkpt lat="49.85126" lon="2.29161">
        <ele>92.9</ele>
        <time>2022-10-29T12:58:38Z</time>
      </trkpt>
      <trkpt lat="49.85126" lon="2.2916">
        <ele>92.9</ele>
        <time>2022-10-29T12:58:40Z</time>
      </trkpt>
      <trkpt lat="49.85126" lon="2.29158">
        <ele>93</ele>
        <time>2022-10-29T12:58:41Z</time>
      </trkpt>
      <trkpt lat="49.85126" lon="2.29157">
        <ele>93</ele>
        <time>2022-10-29T12:58:42Z</time>
      </trkpt>
      <trkpt lat="49.85126" lon="2.29155">
        <ele>93</ele>
        <time>2022-10-29T12:58:43Z</time>
      </trkpt>
      <trkpt lat="49.85126" lon="2.29154">
        <ele>93</ele>
        <time>2022-10-29T12:58:45Z</time>
      </trkpt>
      <trkpt lat="49.85126" lon="2.29152">
        <ele>93</ele>
        <time>2022-10-29T12:58:46Z</time>
      </trkpt>
      <trkpt lat="49.85126" lon="2.2915">
        <ele>93</ele>
        <time>2022-10-29T12:58:47Z</time>
      </trkpt>
      <trkpt lat="49.85127" lon="2.29148">
        <ele>93</ele>
        <time>2022-10-29T12:58:49Z</time>
      </trkpt>
      <trkpt lat="49.85126" lon="2.29147">
        <ele>93</ele>
        <time>2022-10-29T12:58:50Z</time>
      </trkpt>
      <trkpt lat="49.85126" lon="2.29145">
        <ele>93</ele>
        <time>2022-10-29T12:58:51Z</time>
      </trkpt>
      <trkpt lat="49.85126" lon="2.29143">
        <ele>93</ele>
        <time>2022-10-29T12:58:53Z</time>
      </trkpt>
      <trkpt lat="49.85126" lon="2.29143">
        <ele>93</ele>
        <time>2022-10-29T12:58:54Z</time>
      </trkpt>
      <trkpt lat="49.85126" lon="2.2914">
        <ele>93</ele>
        <time>2022-10-29T12:58:55Z</time>
      </trkpt>
      <trkpt lat="49.85126" lon="2.29139">
        <ele>93</ele>
        <time>2022-10-29T12:58:56Z</time>
      </trkpt>
      <trkpt lat="49.85126" lon="2.29137">
        <ele>93</ele>
        <time>2022-10-29T12:58:58Z</time>
      </trkpt>
      <trkpt lat="49.85126" lon="2.29136">
        <ele>93</ele>
        <time>2022-10-29T12:58:59Z</time>
      </trkpt>
      <trkpt lat="49.85125" lon="2.29135">
        <ele>93</ele>
        <time>2022-10-29T12:59:00Z</time>
      </trkpt>
      <trkpt lat="49.85125" lon="2.29134">
        <ele>93</ele>
        <time>2022-10-29T12:59:01Z</time>
      </trkpt>
      <trkpt lat="49.85125" lon="2.29133">
        <ele>93</ele>
        <time>2022-10-29T12:59:02Z</time>
      </trkpt>
      <trkpt lat="49.85125" lon="2.29133">
        <ele>93</ele>
        <time>2022-10-29T12:59:03Z</time>
      </trkpt>
      <trkpt lat="49.85125" lon="2.29133">
        <ele>93</ele>
        <time>2022-10-29T12:59:04Z</time>
      </trkpt>
      <trkpt lat="49.85125" lon="2.29133">
        <ele>93</ele>
        <time>2022-10-29T12:59:05Z</time>
      </trkpt>
      <trkpt lat="49.85125" lon="2.29133">
        <ele>93</ele>
        <time>2022-10-29T12:59:06Z</time>
      </trkpt>
      <trkpt lat="49.85125" lon="2.29133">
        <ele>93</ele>
        <time>2022-10-29T12:59:07Z</time>
      </trkpt>
      <trkpt lat="49.85125" lon="2.29132">
        <ele>93</ele>
        <time>2022-10-29T12:59:08Z</time>
      </trkpt>
      <trkpt lat="49.85125" lon="2.29132">
        <ele>93</ele>
        <time>2022-10-29T12:59:09Z</time>
      </trkpt>
      <trkpt lat="49.85125" lon="2.29132">
        <ele>93</ele>
        <time>2022-10-29T12:59:10Z</time>
      </trkpt>
      <trkpt lat="49.85125" lon="2.29132">
        <ele>93</ele>
        <time>2022-10-29T12:59:11Z</time>
      </trkpt>
      <trkpt lat="49.85125" lon="2.29132">
        <ele>93</ele>
        <time>2022-10-29T12:59:12Z</time>
      </trkpt>
      <trkpt lat="49.85125" lon="2.29132">
        <ele>93</ele>
        <time>2022-10-29T12:59:13Z</time>
      </trkpt>
      <trkpt lat="49.85125" lon="2.29132">
        <ele>93</ele>
        <time>2022-10-29T12:59:14Z</time>
      </trkpt>
      <trkpt lat="49.85125" lon="2.29132">
        <ele>93</ele>
        <time>2022-10-29T12:59:15Z</time>
      </trkpt>
      <trkpt lat="49.85125" lon="2.29132">
        <ele>93</ele>
        <time>2022-10-29T12:59:16Z</time>
      </trkpt>
      <trkpt lat="49.85125" lon="2.29132">
        <ele>93</ele>
        <time>2022-10-29T12:59:17Z</time>
      </trkpt>
      <trkpt lat="49.85125" lon="2.29132">
        <ele>93</ele>
        <time>2022-10-29T12:59:18Z</time>
      </trkpt>
      <trkpt lat="49.85125" lon="2.29132">
        <ele>93</ele>
        <time>2022-10-29T12:59:19Z</time>
      </trkpt>
      <trkpt lat="49.85125" lon="2.29132">
        <ele>93</ele>
        <time>2022-10-29T12:59:20Z</time>
      </trkpt>
      <trkpt lat="49.85125" lon="2.29132">
        <ele>93</ele>
        <time>2022-10-29T12:59:21Z</time>
      </trkpt>
      <trkpt lat="49.85125" lon="2.29132">
        <ele>93</ele>
        <time>2022-10-29T12:59:22Z</time>
      </trkpt>
      <trkpt lat="49.85125" lon="2.29132">
        <ele>93</ele>
        <time>2022-10-29T12:59:23Z</time>
      </trkpt>
      <trkpt lat="49.85125" lon="2.29132">
        <ele>93</ele>
        <time>2022-10-29T12:59:24Z</time>
      </trkpt>
      <trkpt lat="49.85125" lon="2.29132">
        <ele>93</ele>
        <time>2022-10-29T12:59:25Z</time>
      </trkpt>
      <trkpt lat="49.85125" lon="2.29132">
        <ele>93</ele>
        <time>2022-10-29T12:59:26Z</time>
      </trkpt>
      <trkpt lat="49.85125" lon="2.29132">
        <ele>93</ele>
        <time>2022-10-29T12:59:27Z</time>
      </trkpt>
      <trkpt lat="49.85125" lon="2.29131">
        <ele>93</ele>
        <time>2022-10-29T12:59:28Z</time>
      </trkpt>
      <trkpt lat="49.85125" lon="2.29131">
        <ele>93</ele>
        <time>2022-10-29T12:59:29Z</time>
      </trkpt>
      <trkpt lat="49.85125" lon="2.29131">
        <ele>93</ele>
        <time>2022-10-29T12:59:30Z</time>
      </trkpt>
      <trkpt lat="49.85125" lon="2.29131">
        <ele>93</ele>
        <time>2022-10-29T12:59:31Z</time>
      </trkpt>
      <trkpt lat="49.85125" lon="2.29131">
        <ele>93</ele>
        <time>2022-10-29T12:59:32Z</time>
      </trkpt>
      <trkpt lat="49.85125" lon="2.29131">
        <ele>93</ele>
        <time>2022-10-29T12:59:33Z</time>
      </trkpt>
      <trkpt lat="49.85125" lon="2.29131">
        <ele>93</ele>
        <time>2022-10-29T12:59:34Z</time>
      </trkpt>
      <trkpt lat="49.85125" lon="2.29131">
        <ele>93</ele>
        <time>2022-10-29T12:59:35Z</time>
      </trkpt>
      <trkpt lat="49.85125" lon="2.29131">
        <ele>93</ele>
        <time>2022-10-29T12:59:36Z</time>
      </trkpt>
      <trkpt lat="49.85125" lon="2.29131">
        <ele>93</ele>
        <time>2022-10-29T12:59:37Z</time>
      </trkpt>
      <trkpt lat="49.85125" lon="2.29131">
        <ele>93</ele>
        <time>2022-10-29T12:59:38Z</time>
      </trkpt>
      <trkpt lat="49.85125" lon="2.29131">
        <ele>93</ele>
        <time>2022-10-29T12:59:39Z</time>
      </trkpt>
      <trkpt lat="49.85125" lon="2.29131">
        <ele>93</ele>
        <time>2022-10-29T12:59:40Z</time>
      </trkpt>
      <trkpt lat="49.85125" lon="2.29131">
        <ele>93</ele>
        <time>2022-10-29T12:59:41Z</time>
      </trkpt>
      <trkpt lat="49.85125" lon="2.29131">
        <ele>93</ele>
        <time>2022-10-29T12:59:42Z</time>
      </trkpt>
      <trkpt lat="49.85125" lon="2.29131">
        <ele>93</ele>
        <time>2022-10-29T12:59:43Z</time>
      </trkpt>
      <trkpt lat="49.85125" lon="2.29131">
        <ele>93</ele>
        <time>2022-10-29T12:59:44Z</time>
      </trkpt>
      <trkpt lat="49.85125" lon="2.29131">
        <ele>93</ele>
        <time>2022-10-29T12:59:45Z</time>
      </trkpt>
      <trkpt lat="49.85125" lon="2.29131">
        <ele>93</ele>
        <time>2022-10-29T12:59:46Z</time>
      </trkpt>
      <trkpt lat="49.85125" lon="2.29131">
        <ele>93</ele>
        <time>2022-10-29T12:59:47Z</time>
      </trkpt>
      <trkpt lat="49.85125" lon="2.2913">
        <ele>93</ele>
        <time>2022-10-29T12:59:48Z</time>
      </trkpt>
      <trkpt lat="49.85125" lon="2.2913">
        <ele>93</ele>
        <time>2022-10-29T12:59:49Z</time>
      </trkpt>
      <trkpt lat="49.85125" lon="2.2913">
        <ele>93</ele>
        <time>2022-10-29T12:59:50Z</time>
      </trkpt>
      <trkpt lat="49.85125" lon="2.2913">
        <ele>93</ele>
        <time>2022-10-29T12:59:51Z</time>
      </trkpt>
      <trkpt lat="49.85125" lon="2.2913">
        <ele>93</ele>
        <time>2022-10-29T12:59:52Z</time>
      </trkpt>
      <trkpt lat="49.85125" lon="2.2913">
        <ele>93</ele>
        <time>2022-10-29T12:59:53Z</time>
      </trkpt>
      <trkpt lat="49.85125" lon="2.2913">
        <ele>93</ele>
        <time>2022-10-29T12:59:54Z</time>
      </trkpt>
      <trkpt lat="49.85125" lon="2.2913">
        <ele>93</ele>
        <time>2022-10-29T12:59:55Z</time>
      </trkpt>
      <trkpt lat="49.85125" lon="2.2913">
        <ele>93</ele>
        <time>2022-10-29T12:59:56Z</time>
      </trkpt>
      <trkpt lat="49.85125" lon="2.2913">
        <ele>93</ele>
        <time>2022-10-29T12:59:57Z</time>
      </trkpt>
      <trkpt lat="49.85125" lon="2.2913">
        <ele>93</ele>
        <time>2022-10-29T12:59:58Z</time>
      </trkpt>
      <trkpt lat="49.85125" lon="2.2913">
        <ele>93</ele>
        <time>2022-10-29T12:59:59Z</time>
      </trkpt>
      <trkpt lat="49.85125" lon="2.2913">
        <ele>93</ele>
        <time>2022-10-29T13:00:00Z</time>
      </trkpt>
      <trkpt lat="49.85125" lon="2.2913">
        <ele>93</ele>
        <time>2022-10-29T13:00:01Z</time>
      </trkpt>
      <trkpt lat="49.85125" lon="2.2913">
        <ele>93</ele>
        <time>2022-10-29T13:00:02Z</time>
      </trkpt>
      <trkpt lat="49.85125" lon="2.2913">
        <ele>93</ele>
        <time>2022-10-29T13:00:03Z</time>
      </trkpt>
      <trkpt lat="49.85125" lon="2.2913">
        <ele>93</ele>
        <time>2022-10-29T13:00:04Z</time>
      </trkpt>
      <trkpt lat="49.85125" lon="2.2913">
        <ele>93</ele>
        <time>2022-10-29T13:00:05Z</time>
      </trkpt>
      <trkpt lat="49.85125" lon="2.2913">
        <ele>93</ele>
        <time>2022-10-29T13:00:06Z</time>
      </trkpt>
      <trkpt lat="49.85125" lon="2.2913">
        <ele>93</ele>
        <time>2022-10-29T13:00:07Z</time>
      </trkpt>
      <trkpt lat="49.85125" lon="2.29129">
        <ele>93</ele>
        <time>2022-10-29T13:00:08Z</time>
      </trkpt>
      <trkpt lat="49.85125" lon="2.29129">
        <ele>93</ele>
        <time>2022-10-29T13:00:09Z</time>
      </trkpt>
      <trkpt lat="49.85125" lon="2.29129">
        <ele>93</ele>
        <time>2022-10-29T13:00:10Z</time>
      </trkpt>
      <trkpt lat="49.85125" lon="2.29129">
        <ele>93</ele>
        <time>2022-10-29T13:00:11Z</time>
      </trkpt>
      <trkpt lat="49.85125" lon="2.29129">
        <ele>93</ele>
        <time>2022-10-29T13:00:12Z</time>
      </trkpt>
      <trkpt lat="49.85125" lon="2.29129">
        <ele>93</ele>
        <time>2022-10-29T13:00:13Z</time>
      </trkpt>
      <trkpt lat="49.85125" lon="2.29129">
        <ele>93</ele>
        <time>2022-10-29T13:00:14Z</time>
      </trkpt>
      <trkpt lat="49.85125" lon="2.29129">
        <ele>93</ele>
        <time>2022-10-29T13:00:15Z</time>
      </trkpt>
      <trkpt lat="49.85125" lon="2.29129">
        <ele>93</ele>
        <time>2022-10-29T13:00:16Z</time>
      </trkpt>
      <trkpt lat="49.85125" lon="2.29129">
        <ele>93</ele>
        <time>2022-10-29T13:00:17Z</time>
      </trkpt>
      <trkpt lat="49.85125" lon="2.29129">
        <ele>93</ele>
        <time>2022-10-29T13:00:18Z</time>
      </trkpt>
      <trkpt lat="49.85125" lon="2.29129">
        <ele>93</ele>
        <time>2022-10-29T13:00:19Z</time>
      </trkpt>
      <trkpt lat="49.85125" lon="2.29129">
        <ele>93</ele>
        <time>2022-10-29T13:00:20Z</time>
      </trkpt>
      <trkpt lat="49.85125" lon="2.29129">
        <ele>93</ele>
        <time>2022-10-29T13:00:21Z</time>
      </trkpt>
      <trkpt lat="49.85125" lon="2.29129">
        <ele>93</ele>
        <time>2022-10-29T13:00:22Z</time>
      </trkpt>
      <trkpt lat="49.85125" lon="2.29129">
        <ele>93</ele>
        <time>2022-10-29T13:00:23Z</time>
      </trkpt>
      <trkpt lat="49.85125" lon="2.29129">
        <ele>93</ele>
        <time>2022-10-29T13:00:24Z</time>
      </trkpt>
      <trkpt lat="49.85125" lon="2.29129">
        <ele>93</ele>
        <time>2022-10-29T13:00:25Z</time>
      </trkpt>
      <trkpt lat="49.85125" lon="2.29129">
        <ele>93</ele>
        <time>2022-10-29T13:00:26Z</time>
      </trkpt>
      <trkpt lat="49.85125" lon="2.29129">
        <ele>93</ele>
        <time>2022-10-29T13:00:27Z</time>
      </trkpt>
      <trkpt lat="49.85125" lon="2.29128">
        <ele>93</ele>
        <time>2022-10-29T13:00:28Z</time>
      </trkpt>
      <trkpt lat="49.85124" lon="2.29128">
        <ele>93</ele>
        <time>2022-10-29T13:00:29Z</time>
      </trkpt>
      <trkpt lat="49.85124" lon="2.29128">
        <ele>93</ele>
        <time>2022-10-29T13:00:30Z</time>
      </trkpt>
      <trkpt lat="49.85124" lon="2.29128">
        <ele>93</ele>
        <time>2022-10-29T13:00:31Z</time>
      </trkpt>
      <trkpt lat="49.85124" lon="2.29128">
        <ele>93</ele>
        <time>2022-10-29T13:00:32Z</time>
      </trkpt>
      <trkpt lat="49.85124" lon="2.29128">
        <ele>93</ele>
        <time>2022-10-29T13:00:33Z</time>
      </trkpt>
      <trkpt lat="49.85124" lon="2.29128">
        <ele>93</ele>
        <time>2022-10-29T13:00:34Z</time>
      </trkpt>
      <trkpt lat="49.85124" lon="2.29128">
        <ele>93</ele>
        <time>2022-10-29T13:00:35Z</time>
      </trkpt>
      <trkpt lat="49.85124" lon="2.29128">
        <ele>93</ele>
        <time>2022-10-29T13:00:36Z</time>
      </trkpt>
      <trkpt lat="49.85124" lon="2.29128">
        <ele>93</ele>
        <time>2022-10-29T13:00:37Z</time>
      </trkpt>
      <trkpt lat="49.85124" lon="2.29128">
        <ele>93</ele>
        <time>2022-10-29T13:00:38Z</time>
      </trkpt>
      <trkpt lat="49.85124" lon="2.29128">
        <ele>93</ele>
        <time>2022-10-29T13:00:39Z</time>
      </trkpt>
      <trkpt lat="49.85124" lon="2.29128">
        <ele>93</ele>
        <time>2022-10-29T13:00:40Z</time>
      </trkpt>
      <trkpt lat="49.85124" lon="2.29128">
        <ele>93</ele>
        <time>2022-10-29T13:00:41Z</time>
      </trkpt>
      <trkpt lat="49.85124" lon="2.29128">
        <ele>93</ele>
        <time>2022-10-29T13:00:42Z</time>
      </trkpt>
      <trkpt lat="49.85124" lon="2.29128">
        <ele>93</ele>
        <time>2022-10-29T13:00:43Z</time>
      </trkpt>
      <trkpt lat="49.85124" lon="2.29128">
        <ele>93</ele>
        <time>2022-10-29T13:00:44Z</time>
      </trkpt>
      <trkpt lat="49.85124" lon="2.29128">
        <ele>93</ele>
        <time>2022-10-29T13:00:45Z</time>
      </trkpt>
      <trkpt lat="49.85124" lon="2.29128">
        <ele>93</ele>
        <time>2022-10-29T13:00:46Z</time>
      </trkpt>
      <trkpt lat="49.85124" lon="2.29128">
        <ele>93</ele>
        <time>2022-10-29T13:00:47Z</time>
      </trkpt>
      <trkpt lat="49.85124" lon="2.29127">
        <ele>93</ele>
        <time>2022-10-29T13:00:48Z</time>
      </trkpt>
      <trkpt lat="49.85124" lon="2.29127">
        <ele>93</ele>
        <time>2022-10-29T13:00:49Z</time>
      </trkpt>
      <trkpt lat="49.85124" lon="2.29127">
        <ele>93</ele>
        <time>2022-10-29T13:00:50Z</time>
      </trkpt>
      <trkpt lat="49.85124" lon="2.29127">
        <ele>93</ele>
        <time>2022-10-29T13:00:51Z</time>
      </trkpt>
      <trkpt lat="49.85124" lon="2.29127">
        <ele>93</ele>
        <time>2022-10-29T13:00:52Z</time>
      </trkpt>
      <trkpt lat="49.85124" lon="2.29127">
        <ele>93</ele>
        <time>2022-10-29T13:00:53Z</time>
      </trkpt>
      <trkpt lat="49.85124" lon="2.29127">
        <ele>93</ele>
        <time>2022-10-29T13:00:54Z</time>
      </trkpt>
      <trkpt lat="49.85124" lon="2.29127">
        <ele>93</ele>
        <time>2022-10-29T13:00:55Z</time>
      </trkpt>
      <trkpt lat="49.85124" lon="2.29127">
        <ele>93</ele>
        <time>2022-10-29T13:00:56Z</time>
      </trkpt>
      <trkpt lat="49.85124" lon="2.29127">
        <ele>93</ele>
        <time>2022-10-29T13:00:57Z</time>
      </trkpt>
      <trkpt lat="49.85124" lon="2.29127">
        <ele>93</ele>
        <time>2022-10-29T13:00:58Z</time>
      </trkpt>
      <trkpt lat="49.85124" lon="2.29127">
        <ele>93</ele>
        <time>2022-10-29T13:00:59Z</time>
      </trkpt>
      <trkpt lat="49.85124" lon="2.29127">
        <ele>93</ele>
        <time>2022-10-29T13:01:00Z</time>
      </trkpt>
      <trkpt lat="49.85124" lon="2.29127">
        <ele>93</ele>
        <time>2022-10-29T13:01:01Z</time>
      </trkpt>
      <trkpt lat="49.85124" lon="2.29127">
        <ele>93</ele>
        <time>2022-10-29T13:01:02Z</time>
      </trkpt>
      <trkpt lat="49.85124" lon="2.29127">
        <ele>93</ele>
        <time>2022-10-29T13:01:03Z</time>
      </trkpt>
      <trkpt lat="49.85124" lon="2.29127">
        <ele>93</ele>
        <time>2022-10-29T13:01:04Z</time>
      </trkpt>
      <trkpt lat="49.85124" lon="2.29127">
        <ele>93</ele>
        <time>2022-10-29T13:01:05Z</time>
      </trkpt>
      <trkpt lat="49.85124" lon="2.29127">
        <ele>93</ele>
        <time>2022-10-29T13:01:06Z</time>
      </trkpt>
      <trkpt lat="49.85124" lon="2.29127">
        <ele>93</ele>
        <time>2022-10-29T13:01:07Z</time>
      </trkpt>
      <trkpt lat="49.85124" lon="2.29126">
        <ele>93</ele>
        <time>2022-10-29T13:01:08Z</time>
      </trkpt>
      <trkpt lat="49.85124" lon="2.29126">
        <ele>93</ele>
        <time>2022-10-29T13:01:09Z</time>
      </trkpt>
      <trkpt lat="49.85124" lon="2.29126">
        <ele>93</ele>
        <time>2022-10-29T13:01:10Z</time>
      </trkpt>
      <trkpt lat="49.85124" lon="2.29126">
        <ele>93</ele>
        <time>2022-10-29T13:01:11Z</time>
      </trkpt>
      <trkpt lat="49.85124" lon="2.29126">
        <ele>93</ele>
        <time>2022-10-29T13:01:12Z</time>
      </trkpt>
      <trkpt lat="49.85124" lon="2.29126">
        <ele>93</ele>
        <time>2022-10-29T13:01:13Z</time>
      </trkpt>
      <trkpt lat="49.85124" lon="2.29126">
        <ele>93</ele>
        <time>2022-10-29T13:01:14Z</time>
      </trkpt>
      <trkpt lat="49.85124" lon="2.29126">
        <ele>93</ele>
        <time>2022-10-29T13:01:15Z</time>
      </trkpt>
      <trkpt lat="49.85124" lon="2.29126">
        <ele>93</ele>
        <time>2022-10-29T13:01:16Z</time>
      </trkpt>
      <trkpt lat="49.85124" lon="2.29126">
        <ele>93</ele>
        <time>2022-10-29T13:01:17Z</time>
      </trkpt>
      <trkpt lat="49.85124" lon="2.29126">
        <ele>93</ele>
        <time>2022-10-29T13:01:18Z</time>
      </trkpt>
      <trkpt lat="49.85124" lon="2.29126">
        <ele>93</ele>
        <time>2022-10-29T13:01:19Z</time>
      </trkpt>
      <trkpt lat="49.85124" lon="2.29126">
        <ele>93</ele>
        <time>2022-10-29T13:01:20Z</time>
      </trkpt>
      <trkpt lat="49.85124" lon="2.29126">
        <ele>93</ele>
        <time>2022-10-29T13:01:21Z</time>
      </trkpt>
      <trkpt lat="49.85124" lon="2.29126">
        <ele>93</ele>
        <time>2022-10-29T13:01:22Z</time>
      </trkpt>
      <trkpt lat="49.85124" lon="2.29126">
        <ele>93</ele>
        <time>2022-10-29T13:01:23Z</time>
      </trkpt>
      <trkpt lat="49.85124" lon="2.29126">
        <ele>93</ele>
        <time>2022-10-29T13:01:24Z</time>
      </trkpt>
      <trkpt lat="49.85124" lon="2.29126">
        <ele>93</ele>
        <time>2022-10-29T13:01:25Z</time>
      </trkpt>
      <trkpt lat="49.85124" lon="2.29126">
        <ele>93</ele>
        <time>2022-10-29T13:01:26Z</time>
      </trkpt>
      <trkpt lat="49.85124" lon="2.29126">
        <ele>93</ele>
        <time>2022-10-29T13:01:27Z</time>
      </trkpt>
      <trkpt lat="49.85124" lon="2.29125">
        <ele>93</ele>
        <time>2022-10-29T13:01:28Z</time>
      </trkpt>
      <trkpt lat="49.85124" lon="2.29125">
        <ele>93</ele>
        <time>2022-10-29T13:01:29Z</time>
      </trkpt>
      <trkpt lat="49.85124" lon="2.29125">
        <ele>93</ele>
        <time>2022-10-29T13:01:30Z</time>
      </trkpt>
      <trkpt lat="49.85124" lon="2.29125">
        <ele>93</ele>
        <time>2022-10-29T13:01:31Z</time>
      </trkpt>
      <trkpt lat="49.85124" lon="2.29125">
        <ele>93</ele>
        <time>2022-10-29T13:01:32Z</time>
      </trkpt>
      <trkpt lat="49.85124" lon="2.29125">
        <ele>93</ele>
        <time>2022-10-29T13:01:33Z</time>
      </trkpt>
      <trkpt lat="49.85124" lon="2.29125">
        <ele>93</ele>
        <time>2022-10-29T13:01:34Z</time>
      </trkpt>
      <trkpt lat="49.85124" lon="2.29125">
        <ele>93</ele>
        <time>2022-10-29T13:01:35Z</time>
      </trkpt>
      <trkpt lat="49.85124" lon="2.29125">
        <ele>93</ele>
        <time>2022-10-29T13:01:36Z</time>
      </trkpt>
      <trkpt lat="49.85124" lon="2.29125">
        <ele>93</ele>
        <time>2022-10-29T13:01:37Z</time>
      </trkpt>
      <trkpt lat="49.85124" lon="2.29125">
        <ele>93</ele>
        <time>2022-10-29T13:01:38Z</time>
      </trkpt>
      <trkpt lat="49.85124" lon="2.29125">
        <ele>93</ele>
        <time>2022-10-29T13:01:39Z</time>
      </trkpt>
      <trkpt lat="49.85124" lon="2.29125">
        <ele>93</ele>
        <time>2022-10-29T13:01:40Z</time>
      </trkpt>
      <trkpt lat="49.85124" lon="2.29125">
        <ele>93</ele>
        <time>2022-10-29T13:01:41Z</time>
      </trkpt>
      <trkpt lat="49.85124" lon="2.29125">
        <ele>93</ele>
        <time>2022-10-29T13:01:42Z</time>
      </trkpt>
      <trkpt lat="49.85124" lon="2.29125">
        <ele>93</ele>
        <time>2022-10-29T13:01:43Z</time>
      </trkpt>
      <trkpt lat="49.85124" lon="2.29125">
        <ele>93</ele>
        <time>2022-10-29T13:01:44Z</time>
      </trkpt>
      <trkpt lat="49.85124" lon="2.29125">
        <ele>93</ele>
        <time>2022-10-29T13:01:45Z</time>
      </trkpt>
      <trkpt lat="49.85124" lon="2.29125">
        <ele>93</ele>
        <time>2022-10-29T13:01:46Z</time>
      </trkpt>
      <trkpt lat="49.85124" lon="2.29125">
        <ele>93</ele>
        <time>2022-10-29T13:01:47Z</time>
      </trkpt>
      <trkpt lat="49.85124" lon="2.29124">
        <ele>93</ele>
        <time>2022-10-29T13:01:48Z</time>
      </trkpt>
      <trkpt lat="49.85124" lon="2.29124">
        <ele>93</ele>
        <time>2022-10-29T13:01:49Z</time>
      </trkpt>
      <trkpt lat="49.85124" lon="2.29124">
        <ele>93</ele>
        <time>2022-10-29T13:01:50Z</time>
      </trkpt>
      <trkpt lat="49.85124" lon="2.29124">
        <ele>93</ele>
        <time>2022-10-29T13:01:51Z</time>
      </trkpt>
      <trkpt lat="49.85124" lon="2.29124">
        <ele>93</ele>
        <time>2022-10-29T13:01:52Z</time>
      </trkpt>
      <trkpt lat="49.85124" lon="2.29124">
        <ele>93</ele>
        <time>2022-10-29T13:01:53Z</time>
      </trkpt>
      <trkpt lat="49.85124" lon="2.29124">
        <ele>93</ele>
        <time>2022-10-29T13:01:54Z</time>
      </trkpt>
      <trkpt lat="49.85124" lon="2.29124">
        <ele>93</ele>
        <time>2022-10-29T13:01:55Z</time>
      </trkpt>
      <trkpt lat="49.85124" lon="2.29124">
        <ele>93</ele>
        <time>2022-10-29T13:01:56Z</time>
      </trkpt>
      <trkpt lat="49.85124" lon="2.29124">
        <ele>93</ele>
        <time>2022-10-29T13:01:57Z</time>
      </trkpt>
      <trkpt lat="49.85124" lon="2.29124">
        <ele>93</ele>
        <time>2022-10-29T13:01:58Z</time>
      </trkpt>
      <trkpt lat="49.85124" lon="2.29124">
        <ele>93</ele>
        <time>2022-10-29T13:01:59Z</time>
      </trkpt>
      <trkpt lat="49.85124" lon="2.29124">
        <ele>93</ele>
        <time>2022-10-29T13:02:00Z</time>
      </trkpt>
      <trkpt lat="49.85124" lon="2.29124">
        <ele>93</ele>
        <time>2022-10-29T13:02:01Z</time>
      </trkpt>
      <trkpt lat="49.85124" lon="2.29124">
        <ele>93</ele>
        <time>2022-10-29T13:02:02Z</time>
      </trkpt>
      <trkpt lat="49.85124" lon="2.29124">
        <ele>93</ele>
        <time>2022-10-29T13:02:03Z</time>
      </trkpt>
      <trkpt lat="49.85124" lon="2.29124">
        <ele>93</ele>
        <time>2022-10-29T13:02:04Z</time>
      </trkpt>
      <trkpt lat="49.85124" lon="2.29124">
        <ele>93</ele>
        <time>2022-10-29T13:02:05Z</time>
      </trkpt>
      <trkpt lat="49.85124" lon="2.29124">
        <ele>93</ele>
        <time>2022-10-29T13:02:06Z</time>
      </trkpt>
      <trkpt lat="49.85124" lon="2.29124">
        <ele>93</ele>
        <time>2022-10-29T13:02:07Z</time>
      </trkpt>
      <trkpt lat="49.85124" lon="2.29124">
        <ele>93</ele>
        <time>2022-10-29T13:02:08Z</time>
      </trkpt>
      <trkpt lat="49.85124" lon="2.29123">
        <ele>93</ele>
        <time>2022-10-29T13:02:09Z</time>
      </trkpt>
      <trkpt lat="49.85124" lon="2.29123">
        <ele>93</ele>
        <time>2022-10-29T13:02:10Z</time>
      </trkpt>
      <trkpt lat="49.85124" lon="2.29123">
        <ele>93</ele>
        <time>2022-10-29T13:02:11Z</time>
      </trkpt>
      <trkpt lat="49.85124" lon="2.29123">
        <ele>93</ele>
        <time>2022-10-29T13:02:12Z</time>
      </trkpt>
      <trkpt lat="49.85124" lon="2.29123">
        <ele>93</ele>
        <time>2022-10-29T13:02:13Z</time>
      </trkpt>
      <trkpt lat="49.85124" lon="2.29123">
        <ele>93</ele>
        <time>2022-10-29T13:02:14Z</time>
      </trkpt>
      <trkpt lat="49.85124" lon="2.29123">
        <ele>93</ele>
        <time>2022-10-29T13:02:15Z</time>
      </trkpt>
      <trkpt lat="49.85124" lon="2.29123">
        <ele>93</ele>
        <time>2022-10-29T13:02:16Z</time>
      </trkpt>
      <trkpt lat="49.85124" lon="2.29123">
        <ele>93</ele>
        <time>2022-10-29T13:02:17Z</time>
      </trkpt>
      <trkpt lat="49.85124" lon="2.29123">
        <ele>93</ele>
        <time>2022-10-29T13:02:18Z</time>
      </trkpt>
      <trkpt lat="49.85124" lon="2.29123">
        <ele>93</ele>
        <time>2022-10-29T13:02:19Z</time>
      </trkpt>
      <trkpt lat="49.85124" lon="2.29123">
        <ele>93</ele>
        <time>2022-10-29T13:02:20Z</time>
      </trkpt>
      <trkpt lat="49.85124" lon="2.29123">
        <ele>93</ele>
        <time>2022-10-29T13:02:21Z</time>
      </trkpt>
      <trkpt lat="49.85124" lon="2.29123">
        <ele>93</ele>
        <time>2022-10-29T13:02:22Z</time>
      </trkpt>
      <trkpt lat="49.85124" lon="2.29123">
        <ele>93</ele>
        <time>2022-10-29T13:02:23Z</time>
      </trkpt>
      <trkpt lat="49.85124" lon="2.29123">
        <ele>93</ele>
        <time>2022-10-29T13:02:24Z</time>
      </trkpt>
      <trkpt lat="49.85124" lon="2.29123">
        <ele>93</ele>
        <time>2022-10-29T13:02:25Z</time>
      </trkpt>
      <trkpt lat="49.85124" lon="2.29123">
        <ele>93</ele>
        <time>2022-10-29T13:02:26Z</time>
      </trkpt>
      <trkpt lat="49.85124" lon="2.29123">
        <ele>93</ele>
        <time>2022-10-29T13:02:27Z</time>
      </trkpt>
      <trkpt lat="49.85124" lon="2.29123">
        <ele>93</ele>
        <time>2022-10-29T13:02:28Z</time>
      </trkpt>
      <trkpt lat="49.85124" lon="2.29122">
        <ele>93</ele>
        <time>2022-10-29T13:02:29Z</time>
      </trkpt>
      <trkpt lat="49.85124" lon="2.29122">
        <ele>93</ele>
        <time>2022-10-29T13:02:30Z</time>
      </trkpt>
      <trkpt lat="49.85124" lon="2.29122">
        <ele>93</ele>
        <time>2022-10-29T13:02:31Z</time>
      </trkpt>
      <trkpt lat="49.85124" lon="2.29122">
        <ele>93</ele>
        <time>2022-10-29T13:02:32Z</time>
      </trkpt>
      <trkpt lat="49.85124" lon="2.29122">
        <ele>93</ele>
        <time>2022-10-29T13:02:33Z</time>
      </trkpt>
      <trkpt lat="49.85124" lon="2.29122">
        <ele>93</ele>
        <time>2022-10-29T13:02:34Z</time>
      </trkpt>
      <trkpt lat="49.85124" lon="2.29122">
        <ele>93</ele>
        <time>2022-10-29T13:02:35Z</time>
      </trkpt>
      <trkpt lat="49.85124" lon="2.29122">
        <ele>93</ele>
        <time>2022-10-29T13:02:36Z</time>
      </trkpt>
      <trkpt lat="49.85124" lon="2.29122">
        <ele>93</ele>
        <time>2022-10-29T13:02:37Z</time>
      </trkpt>
      <trkpt lat="49.85124" lon="2.29122">
        <ele>93</ele>
        <time>2022-10-29T13:02:38Z</time>
      </trkpt>
      <trkpt lat="49.85124" lon="2.29122">
        <ele>93</ele>
        <time>2022-10-29T13:02:39Z</time>
      </trkpt>
      <trkpt lat="49.85124" lon="2.29122">
        <ele>93</ele>
        <time>2022-10-29T13:02:40Z</time>
      </trkpt>
      <trkpt lat="49.85124" lon="2.29122">
        <ele>93</ele>
        <time>2022-10-29T13:02:41Z</time>
      </trkpt>
      <trkpt lat="49.85124" lon="2.29122">
        <ele>93</ele>
        <time>2022-10-29T13:02:42Z</time>
      </trkpt>
      <trkpt lat="49.85124" lon="2.29122">
        <ele>93</ele>
        <time>2022-10-29T13:02:43Z</time>
      </trkpt>
      <trkpt lat="49.85124" lon="2.29122">
        <ele>93</ele>
        <time>2022-10-29T13:02:44Z</time>
      </trkpt>
      <trkpt lat="49.85124" lon="2.29122">
        <ele>93</ele>
        <time>2022-10-29T13:02:45Z</time>
      </trkpt>
      <trkpt lat="49.85124" lon="2.29122">
        <ele>93</ele>
        <time>2022-10-29T13:02:46Z</time>
      </trkpt>
      <trkpt lat="49.85124" lon="2.29122">
        <ele>93</ele>
        <time>2022-10-29T13:02:47Z</time>
      </trkpt>
      <trkpt lat="49.85124" lon="2.29122">
        <ele>93</ele>
        <time>2022-10-29T13:02:48Z</time>
      </trkpt>
      <trkpt lat="49.85124" lon="2.29121">
        <ele>93</ele>
        <time>2022-10-29T13:02:49Z</time>
      </trkpt>
      <trkpt lat="49.85124" lon="2.29121">
        <ele>93</ele>
        <time>2022-10-29T13:02:50Z</time>
      </trkpt>
      <trkpt lat="49.85124" lon="2.29121">
        <ele>93</ele>
        <time>2022-10-29T13:02:51Z</time>
      </trkpt>
      <trkpt lat="49.85124" lon="2.29121">
        <ele>93</ele>
        <time>2022-10-29T13:02:52Z</time>
      </trkpt>
      <trkpt lat="49.85124" lon="2.29121">
        <ele>93</ele>
        <time>2022-10-29T13:02:53Z</time>
      </trkpt>
      <trkpt lat="49.85124" lon="2.29121">
        <ele>93</ele>
        <time>2022-10-29T13:02:54Z</time>
      </trkpt>
      <trkpt lat="49.85124" lon="2.29121">
        <ele>93</ele>
        <time>2022-10-29T13:02:55Z</time>
      </trkpt>
      <trkpt lat="49.85124" lon="2.29121">
        <ele>93</ele>
        <time>2022-10-29T13:02:56Z</time>
      </trkpt>
      <trkpt lat="49.85124" lon="2.29121">
        <ele>93</ele>
        <time>2022-10-29T13:02:57Z</time>
      </trkpt>
      <trkpt lat="49.85124" lon="2.29121">
        <ele>93</ele>
        <time>2022-10-29T13:02:58Z</time>
      </trkpt>
      <trkpt lat="49.85124" lon="2.29121">
        <ele>93</ele>
        <time>2022-10-29T13:02:59Z</time>
      </trkpt>
      <trkpt lat="49.85124" lon="2.29121">
        <ele>93</ele>
        <time>2022-10-29T13:03:00Z</time>
      </trkpt>
      <trkpt lat="49.85124" lon="2.29121">
        <ele>93</ele>
        <time>2022-10-29T13:03:01Z</time>
      </trkpt>
      <trkpt lat="49.85124" lon="2.29121">
        <ele>93</ele>
        <time>2022-10-29T13:03:02Z</time>
      </trkpt>
      <trkpt lat="49.85124" lon="2.29121">
        <ele>93</ele>
        <time>2022-10-29T13:03:03Z</time>
      </trkpt>
      <trkpt lat="49.85124" lon="2.29121">
        <ele>93</ele>
        <time>2022-10-29T13:03:04Z</time>
      </trkpt>
      <trkpt lat="49.85124" lon="2.29121">
        <ele>93</ele>
        <time>2022-10-29T13:03:05Z</time>
      </trkpt>
      <trkpt lat="49.85124" lon="2.29121">
        <ele>93</ele>
        <time>2022-10-29T13:03:06Z</time>
      </trkpt>
      <trkpt lat="49.85124" lon="2.29121">
        <ele>93</ele>
        <time>2022-10-29T13:03:07Z</time>
      </trkpt>
      <trkpt lat="49.85124" lon="2.29121">
        <ele>93</ele>
        <time>2022-10-29T13:03:08Z</time>
      </trkpt>
      <trkpt lat="49.85124" lon="2.2912">
        <ele>93</ele>
        <time>2022-10-29T13:03:09Z</time>
      </trkpt>
      <trkpt lat="49.85124" lon="2.2912">
        <ele>93</ele>
        <time>2022-10-29T13:03:10Z</time>
      </trkpt>
      <trkpt lat="49.85124" lon="2.2912">
        <ele>93.2</ele>
        <time>2022-10-29T13:03:11Z</time>
      </trkpt>
      <trkpt lat="49.85124" lon="2.2912">
        <ele>93.2</ele>
        <time>2022-10-29T13:03:12Z</time>
      </trkpt>
      <trkpt lat="49.85124" lon="2.2912">
        <ele>93.2</ele>
        <time>2022-10-29T13:03:13Z</time>
      </trkpt>
      <trkpt lat="49.85124" lon="2.2912">
        <ele>93.2</ele>
        <time>2022-10-29T13:03:14Z</time>
      </trkpt>
      <trkpt lat="49.85124" lon="2.2912">
        <ele>93.2</ele>
        <time>2022-10-29T13:03:15Z</time>
      </trkpt>
      <trkpt lat="49.85124" lon="2.2912">
        <ele>93.2</ele>
        <time>2022-10-29T13:03:16Z</time>
      </trkpt>
      <trkpt lat="49.85124" lon="2.2912">
        <ele>93.2</ele>
        <time>2022-10-29T13:03:17Z</time>
      </trkpt>
      <trkpt lat="49.85124" lon="2.2912">
        <ele>93.2</ele>
        <time>2022-10-29T13:03:18Z</time>
      </trkpt>
      <trkpt lat="49.85124" lon="2.2912">
        <ele>93.2</ele>
        <time>2022-10-29T13:03:20Z</time>
      </trkpt>
      <trkpt lat="49.85124" lon="2.2912">
        <ele>93.2</ele>
        <time>2022-10-29T13:03:21Z</time>
      </trkpt>
      <trkpt lat="49.85124" lon="2.2912">
        <ele>93.2</ele>
        <time>2022-10-29T13:03:23Z</time>
      </trkpt>
      <trkpt lat="49.85124" lon="2.2912">
        <ele>93.2</ele>
        <time>2022-10-29T13:03:24Z</time>
      </trkpt>
      <trkpt lat="49.85124" lon="2.2912">
        <ele>93.2</ele>
        <time>2022-10-29T13:03:25Z</time>
      </trkpt>
      <trkpt lat="49.85124" lon="2.2912">
        <ele>93.2</ele>
        <time>2022-10-29T13:03:26Z</time>
      </trkpt>
      <trkpt lat="49.85124" lon="2.2912">
        <ele>93.2</ele>
        <time>2022-10-29T13:03:28Z</time>
      </trkpt>
      <trkpt lat="49.85124" lon="2.2912">
        <ele>93.2</ele>
        <time>2022-10-29T13:03:29Z</time>
      </trkpt>
      <trkpt lat="49.85124" lon="2.2912">
        <ele>93.1</ele>
        <time>2022-10-29T13:03:30Z</time>
      </trkpt>
      <trkpt lat="49.85124" lon="2.2912">
        <ele>93.1</ele>
        <time>2022-10-29T13:03:32Z</time>
      </trkpt>
      <trkpt lat="49.85124" lon="2.29119">
        <ele>93.1</ele>
        <time>2022-10-29T13:03:33Z</time>
      </trkpt>
      <trkpt lat="49.85124" lon="2.29119">
        <ele>93.1</ele>
        <time>2022-10-29T13:03:34Z</time>
      </trkpt>
      <trkpt lat="49.85124" lon="2.29119">
        <ele>93.1</ele>
        <time>2022-10-29T13:03:36Z</time>
      </trkpt>
      <trkpt lat="49.85124" lon="2.29119">
        <ele>93.1</ele>
        <time>2022-10-29T13:03:37Z</time>
      </trkpt>
      <trkpt lat="49.85124" lon="2.29117">
        <ele>93.1</ele>
        <time>2022-10-29T13:03:39Z</time>
      </trkpt>
      <trkpt lat="49.85124" lon="2.29115">
        <ele>93.1</ele>
        <time>2022-10-29T13:03:40Z</time>
      </trkpt>
      <trkpt lat="49.85124" lon="2.29114">
        <ele>93.1</ele>
        <time>2022-10-29T13:03:41Z</time>
      </trkpt>
      <trkpt lat="49.85124" lon="2.29113">
        <ele>93.1</ele>
        <time>2022-10-29T13:03:43Z</time>
      </trkpt>
      <trkpt lat="49.85124" lon="2.29112">
        <ele>93.1</ele>
        <time>2022-10-29T13:03:44Z</time>
      </trkpt>
      <trkpt lat="49.85123" lon="2.29111">
        <ele>93.1</ele>
        <time>2022-10-29T13:03:45Z</time>
      </trkpt>
      <trkpt lat="49.85123" lon="2.29111">
        <ele>93.1</ele>
        <time>2022-10-29T13:03:46Z</time>
      </trkpt>
      <trkpt lat="49.85123" lon="2.29109">
        <ele>93.1</ele>
        <time>2022-10-29T13:03:48Z</time>
      </trkpt>
      <trkpt lat="49.85123" lon="2.29108">
        <ele>93.1</ele>
        <time>2022-10-29T13:03:49Z</time>
      </trkpt>
      <trkpt lat="49.85123" lon="2.29105">
        <ele>93.1</ele>
        <time>2022-10-29T13:03:50Z</time>
      </trkpt>
      <trkpt lat="49.85123" lon="2.29103">
        <ele>93.1</ele>
        <time>2022-10-29T13:03:52Z</time>
      </trkpt>
      <trkpt lat="49.85123" lon="2.29101">
        <ele>93</ele>
        <time>2022-10-29T13:03:54Z</time>
      </trkpt>
      <trkpt lat="49.85123" lon="2.29099">
        <ele>93</ele>
        <time>2022-10-29T13:03:55Z</time>
      </trkpt>
      <trkpt lat="49.85123" lon="2.29098">
        <ele>93</ele>
        <time>2022-10-29T13:03:56Z</time>
      </trkpt>
      <trkpt lat="49.85122" lon="2.29097">
        <ele>93</ele>
        <time>2022-10-29T13:03:57Z</time>
      </trkpt>
      <trkpt lat="49.85122" lon="2.29095">
        <ele>92.9</ele>
        <time>2022-10-29T13:03:58Z</time>
      </trkpt>
      <trkpt lat="49.85122" lon="2.29091">
        <ele>92.9</ele>
        <time>2022-10-29T13:03:59Z</time>
      </trkpt>
      <trkpt lat="49.85122" lon="2.2909">
        <ele>92.9</ele>
        <time>2022-10-29T13:04:01Z</time>
      </trkpt>
      <trkpt lat="49.85122" lon="2.29089">
        <ele>92.9</ele>
        <time>2022-10-29T13:04:02Z</time>
      </trkpt>
      <trkpt lat="49.85122" lon="2.29087">
        <ele>92.9</ele>
        <time>2022-10-29T13:04:03Z</time>
      </trkpt>
      <trkpt lat="49.85121" lon="2.29085">
        <ele>92.9</ele>
        <time>2022-10-29T13:04:05Z</time>
      </trkpt>
      <trkpt lat="49.85121" lon="2.29083">
        <ele>93.1</ele>
        <time>2022-10-29T13:04:06Z</time>
      </trkpt>
      <trkpt lat="49.85121" lon="2.29081">
        <ele>93.1</ele>
        <time>2022-10-29T13:04:07Z</time>
      </trkpt>
      <trkpt lat="49.85121" lon="2.29079">
        <ele>93.1</ele>
        <time>2022-10-29T13:04:09Z</time>
      </trkpt>
      <trkpt lat="49.85121" lon="2.29077">
        <ele>93.1</ele>
        <time>2022-10-29T13:04:10Z</time>
      </trkpt>
      <trkpt lat="49.85121" lon="2.29075">
        <ele>93.1</ele>
        <time>2022-10-29T13:04:12Z</time>
      </trkpt>
      <trkpt lat="49.85121" lon="2.29074">
        <ele>93.1</ele>
        <time>2022-10-29T13:04:13Z</time>
      </trkpt>
      <trkpt lat="49.85121" lon="2.29072">
        <ele>92.9</ele>
        <time>2022-10-29T13:04:14Z</time>
      </trkpt>
      <trkpt lat="49.85121" lon="2.29071">
        <ele>92.9</ele>
        <time>2022-10-29T13:04:15Z</time>
      </trkpt>
      <trkpt lat="49.85121" lon="2.2907">
        <ele>92.9</ele>
        <time>2022-10-29T13:04:17Z</time>
      </trkpt>
      <trkpt lat="49.85121" lon="2.29068">
        <ele>92.6</ele>
        <time>2022-10-29T13:04:18Z</time>
      </trkpt>
      <trkpt lat="49.85121" lon="2.29067">
        <ele>92.6</ele>
        <time>2022-10-29T13:04:20Z</time>
      </trkpt>
      <trkpt lat="49.85121" lon="2.29066">
        <ele>92.6</ele>
        <time>2022-10-29T13:04:21Z</time>
      </trkpt>
      <trkpt lat="49.85122" lon="2.29065">
        <ele>92.6</ele>
        <time>2022-10-29T13:04:22Z</time>
      </trkpt>
      <trkpt lat="49.85122" lon="2.29064">
        <ele>92.6</ele>
        <time>2022-10-29T13:04:24Z</time>
      </trkpt>
      <trkpt lat="49.85122" lon="2.29063">
        <ele>92.6</ele>
        <time>2022-10-29T13:04:25Z</time>
      </trkpt>
      <trkpt lat="49.85122" lon="2.29062">
        <ele>92.6</ele>
        <time>2022-10-29T13:04:26Z</time>
      </trkpt>
      <trkpt lat="49.85122" lon="2.29061">
        <ele>92.6</ele>
        <time>2022-10-29T13:04:27Z</time>
      </trkpt>
      <trkpt lat="49.85122" lon="2.2906">
        <ele>92.5</ele>
        <time>2022-10-29T13:04:28Z</time>
      </trkpt>
      <trkpt lat="49.85122" lon="2.29058">
        <ele>92.5</ele>
        <time>2022-10-29T13:04:29Z</time>
      </trkpt>
      <trkpt lat="49.85122" lon="2.29057">
        <ele>92.5</ele>
        <time>2022-10-29T13:04:31Z</time>
      </trkpt>
      <trkpt lat="49.85122" lon="2.29056">
        <ele>92.5</ele>
        <time>2022-10-29T13:04:32Z</time>
      </trkpt>
      <trkpt lat="49.85122" lon="2.29055">
        <ele>92.5</ele>
        <time>2022-10-29T13:04:33Z</time>
      </trkpt>
      <trkpt lat="49.85122" lon="2.29055">
        <ele>92.5</ele>
        <time>2022-10-29T13:04:34Z</time>
      </trkpt>
      <trkpt lat="49.85121" lon="2.29053">
        <ele>92.4</ele>
        <time>2022-10-29T13:04:35Z</time>
      </trkpt>
      <trkpt lat="49.85121" lon="2.29052">
        <ele>92.6</ele>
        <time>2022-10-29T13:04:37Z</time>
      </trkpt>
      <trkpt lat="49.85121" lon="2.29051">
        <ele>92.6</ele>
        <time>2022-10-29T13:04:38Z</time>
      </trkpt>
      <trkpt lat="49.8512" lon="2.29048">
        <ele>92.6</ele>
        <time>2022-10-29T13:04:39Z</time>
      </trkpt>
      <trkpt lat="49.85119" lon="2.29048">
        <ele>92.5</ele>
        <time>2022-10-29T13:04:41Z</time>
      </trkpt>
      <trkpt lat="49.85119" lon="2.29046">
        <ele>92.5</ele>
        <time>2022-10-29T13:04:42Z</time>
      </trkpt>
      <trkpt lat="49.85119" lon="2.29044">
        <ele>92.5</ele>
        <time>2022-10-29T13:04:43Z</time>
      </trkpt>
      <trkpt lat="49.85118" lon="2.29042">
        <ele>92.7</ele>
        <time>2022-10-29T13:04:45Z</time>
      </trkpt>
      <trkpt lat="49.85118" lon="2.29042">
        <ele>92.7</ele>
        <time>2022-10-29T13:04:46Z</time>
      </trkpt>
      <trkpt lat="49.85118" lon="2.2904">
        <ele>92.7</ele>
        <time>2022-10-29T13:04:47Z</time>
      </trkpt>
      <trkpt lat="49.85117" lon="2.29039">
        <ele>92.7</ele>
        <time>2022-10-29T13:04:48Z</time>
      </trkpt>
      <trkpt lat="49.85117" lon="2.29038">
        <ele>92.7</ele>
        <time>2022-10-29T13:04:49Z</time>
      </trkpt>
      <trkpt lat="49.85116" lon="2.29036">
        <ele>92.7</ele>
        <time>2022-10-29T13:04:50Z</time>
      </trkpt>
      <trkpt lat="49.85116" lon="2.29035">
        <ele>92.6</ele>
        <time>2022-10-29T13:04:52Z</time>
      </trkpt>
      <trkpt lat="49.85116" lon="2.29034">
        <ele>92.6</ele>
        <time>2022-10-29T13:04:53Z</time>
      </trkpt>
      <trkpt lat="49.85115" lon="2.29032">
        <ele>92.9</ele>
        <time>2022-10-29T13:04:55Z</time>
      </trkpt>
      <trkpt lat="49.85115" lon="2.2903">
        <ele>92.9</ele>
        <time>2022-10-29T13:04:56Z</time>
      </trkpt>
      <trkpt lat="49.85115" lon="2.29029">
        <ele>92.8</ele>
        <time>2022-10-29T13:04:57Z</time>
      </trkpt>
      <trkpt lat="49.85114" lon="2.29029">
        <ele>92.8</ele>
        <time>2022-10-29T13:04:59Z</time>
      </trkpt>
      <trkpt lat="49.85113" lon="2.29029">
        <ele>92.8</ele>
        <time>2022-10-29T13:05:00Z</time>
      </trkpt>
      <trkpt lat="49.85113" lon="2.29029">
        <ele>92.8</ele>
        <time>2022-10-29T13:05:01Z</time>
      </trkpt>
      <trkpt lat="49.85112" lon="2.29029">
        <ele>93</ele>
        <time>2022-10-29T13:05:02Z</time>
      </trkpt>
      <trkpt lat="49.85112" lon="2.29028">
        <ele>93</ele>
        <time>2022-10-29T13:05:03Z</time>
      </trkpt>
      <trkpt lat="49.85111" lon="2.29026">
        <ele>93</ele>
        <time>2022-10-29T13:05:05Z</time>
      </trkpt>
      <trkpt lat="49.85111" lon="2.29024">
        <ele>93</ele>
        <time>2022-10-29T13:05:06Z</time>
      </trkpt>
      <trkpt lat="49.85111" lon="2.29023">
        <ele>93</ele>
        <time>2022-10-29T13:05:07Z</time>
      </trkpt>
      <trkpt lat="49.85112" lon="2.29021">
        <ele>92.9</ele>
        <time>2022-10-29T13:05:08Z</time>
      </trkpt>
      <trkpt lat="49.85112" lon="2.29019">
        <ele>92.9</ele>
        <time>2022-10-29T13:05:10Z</time>
      </trkpt>
      <trkpt lat="49.85112" lon="2.29017">
        <ele>92.9</ele>
        <time>2022-10-29T13:05:11Z</time>
      </trkpt>
      <trkpt lat="49.85113" lon="2.29017">
        <ele>92.9</ele>
        <time>2022-10-29T13:05:12Z</time>
      </trkpt>
      <trkpt lat="49.85113" lon="2.29016">
        <ele>92.6</ele>
        <time>2022-10-29T13:05:13Z</time>
      </trkpt>
      <trkpt lat="49.85113" lon="2.29016">
        <ele>92.6</ele>
        <time>2022-10-29T13:05:14Z</time>
      </trkpt>
      <trkpt lat="49.85113" lon="2.29015">
        <ele>92.6</ele>
        <time>2022-10-29T13:05:15Z</time>
      </trkpt>
      <trkpt lat="49.85113" lon="2.29015">
        <ele>92.5</ele>
        <time>2022-10-29T13:05:16Z</time>
      </trkpt>
      <trkpt lat="49.85113" lon="2.29014">
        <ele>92.5</ele>
        <time>2022-10-29T13:05:17Z</time>
      </trkpt>
      <trkpt lat="49.85113" lon="2.29013">
        <ele>92.5</ele>
        <time>2022-10-29T13:05:18Z</time>
      </trkpt>
      <trkpt lat="49.85113" lon="2.29012">
        <ele>92.5</ele>
        <time>2022-10-29T13:05:20Z</time>
      </trkpt>
      <trkpt lat="49.85114" lon="2.29011">
        <ele>92.5</ele>
        <time>2022-10-29T13:05:21Z</time>
      </trkpt>
      <trkpt lat="49.85114" lon="2.2901">
        <ele>92.5</ele>
        <time>2022-10-29T13:05:22Z</time>
      </trkpt>
      <trkpt lat="49.85114" lon="2.29008">
        <ele>92.5</ele>
        <time>2022-10-29T13:05:23Z</time>
      </trkpt>
      <trkpt lat="49.85113" lon="2.29006">
        <ele>92.5</ele>
        <time>2022-10-29T13:05:24Z</time>
      </trkpt>
      <trkpt lat="49.85113" lon="2.29005">
        <ele>92.5</ele>
        <time>2022-10-29T13:05:26Z</time>
      </trkpt>
      <trkpt lat="49.85113" lon="2.29004">
        <ele>92.4</ele>
        <time>2022-10-29T13:05:27Z</time>
      </trkpt>
      <trkpt lat="49.85112" lon="2.29002">
        <ele>92.7</ele>
        <time>2022-10-29T13:05:28Z</time>
      </trkpt>
      <trkpt lat="49.85112" lon="2.29">
        <ele>92.6</ele>
        <time>2022-10-29T13:05:29Z</time>
      </trkpt>
      <trkpt lat="49.85111" lon="2.28998">
        <ele>92.6</ele>
        <time>2022-10-29T13:05:31Z</time>
      </trkpt>
      <trkpt lat="49.85111" lon="2.28997">
        <ele>92.6</ele>
        <time>2022-10-29T13:05:32Z</time>
      </trkpt>
      <trkpt lat="49.85111" lon="2.28996">
        <ele>92.6</ele>
        <time>2022-10-29T13:05:33Z</time>
      </trkpt>
      <trkpt lat="49.85111" lon="2.28994">
        <ele>92.6</ele>
        <time>2022-10-29T13:05:34Z</time>
      </trkpt>
      <trkpt lat="49.85111" lon="2.28992">
        <ele>92.6</ele>
        <time>2022-10-29T13:05:36Z</time>
      </trkpt>
      <trkpt lat="49.8511" lon="2.28991">
        <ele>92.6</ele>
        <time>2022-10-29T13:05:37Z</time>
      </trkpt>
      <trkpt lat="49.8511" lon="2.2899">
        <ele>92.6</ele>
        <time>2022-10-29T13:05:38Z</time>
      </trkpt>
      <trkpt lat="49.8511" lon="2.28989">
        <ele>92.8</ele>
        <time>2022-10-29T13:05:39Z</time>
      </trkpt>
      <trkpt lat="49.8511" lon="2.28988">
        <ele>92.8</ele>
        <time>2022-10-29T13:05:40Z</time>
      </trkpt>
      <trkpt lat="49.8511" lon="2.28986">
        <ele>92.8</ele>
        <time>2022-10-29T13:05:42Z</time>
      </trkpt>
      <trkpt lat="49.8511" lon="2.28985">
        <ele>92.8</ele>
        <time>2022-10-29T13:05:43Z</time>
      </trkpt>
      <trkpt lat="49.85109" lon="2.28984">
        <ele>92.8</ele>
        <time>2022-10-29T13:05:44Z</time>
      </trkpt>
      <trkpt lat="49.85109" lon="2.28983">
        <ele>92.8</ele>
        <time>2022-10-29T13:05:45Z</time>
      </trkpt>
      <trkpt lat="49.85109" lon="2.28981">
        <ele>92.8</ele>
        <time>2022-10-29T13:05:46Z</time>
      </trkpt>
      <trkpt lat="49.85109" lon="2.28979">
        <ele>92.8</ele>
        <time>2022-10-29T13:05:47Z</time>
      </trkpt>
      <trkpt lat="49.85109" lon="2.28978">
        <ele>92.8</ele>
        <time>2022-10-29T13:05:49Z</time>
      </trkpt>
      <trkpt lat="49.85109" lon="2.28977">
        <ele>92.8</ele>
        <time>2022-10-29T13:05:50Z</time>
      </trkpt>
      <trkpt lat="49.85108" lon="2.28975">
        <ele>92.7</ele>
        <time>2022-10-29T13:05:51Z</time>
      </trkpt>
      <trkpt lat="49.85108" lon="2.28973">
        <ele>92.7</ele>
        <time>2022-10-29T13:05:52Z</time>
      </trkpt>
      <trkpt lat="49.85108" lon="2.28972">
        <ele>92.7</ele>
        <time>2022-10-29T13:05:54Z</time>
      </trkpt>
      <trkpt lat="49.85108" lon="2.28969">
        <ele>92.7</ele>
        <time>2022-10-29T13:05:55Z</time>
      </trkpt>
      <trkpt lat="49.85108" lon="2.28968">
        <ele>92.7</ele>
        <time>2022-10-29T13:05:56Z</time>
      </trkpt>
      <trkpt lat="49.85107" lon="2.28966">
        <ele>92.7</ele>
        <time>2022-10-29T13:05:58Z</time>
      </trkpt>
      <trkpt lat="49.85107" lon="2.28963">
        <ele>93</ele>
        <time>2022-10-29T13:05:59Z</time>
      </trkpt>
      <trkpt lat="49.85107" lon="2.28961">
        <ele>92.9</ele>
        <time>2022-10-29T13:06:01Z</time>
      </trkpt>
      <trkpt lat="49.85107" lon="2.2896">
        <ele>92.9</ele>
        <time>2022-10-29T13:06:02Z</time>
      </trkpt>
      <trkpt lat="49.85107" lon="2.28959">
        <ele>92.9</ele>
        <time>2022-10-29T13:06:03Z</time>
      </trkpt>
      <trkpt lat="49.85107" lon="2.28956">
        <ele>92.9</ele>
        <time>2022-10-29T13:06:05Z</time>
      </trkpt>
      <trkpt lat="49.85107" lon="2.28955">
        <ele>92.9</ele>
        <time>2022-10-29T13:06:06Z</time>
      </trkpt>
      <trkpt lat="49.85107" lon="2.28954">
        <ele>92.9</ele>
        <time>2022-10-29T13:06:07Z</time>
      </trkpt>
      <trkpt lat="49.85107" lon="2.28952">
        <ele>92.9</ele>
        <time>2022-10-29T13:06:08Z</time>
      </trkpt>
      <trkpt lat="49.85106" lon="2.2895">
        <ele>92.9</ele>
        <time>2022-10-29T13:06:09Z</time>
      </trkpt>
      <trkpt lat="49.85106" lon="2.28949">
        <ele>92.9</ele>
        <time>2022-10-29T13:06:10Z</time>
      </trkpt>
      <trkpt lat="49.85106" lon="2.28947">
        <ele>92.9</ele>
        <time>2022-10-29T13:06:12Z</time>
      </trkpt>
      <trkpt lat="49.85106" lon="2.28945">
        <ele>92.9</ele>
        <time>2022-10-29T13:06:13Z</time>
      </trkpt>
      <trkpt lat="49.85106" lon="2.28943">
        <ele>92.9</ele>
        <time>2022-10-29T13:06:15Z</time>
      </trkpt>
      <trkpt lat="49.85106" lon="2.28942">
        <ele>92.9</ele>
        <time>2022-10-29T13:06:16Z</time>
      </trkpt>
      <trkpt lat="49.85105" lon="2.2894">
        <ele>92.9</ele>
        <time>2022-10-29T13:06:17Z</time>
      </trkpt>
      <trkpt lat="49.85105" lon="2.28939">
        <ele>92.9</ele>
        <time>2022-10-29T13:06:19Z</time>
      </trkpt>
      <trkpt lat="49.85105" lon="2.28937">
        <ele>92.9</ele>
        <time>2022-10-29T13:06:20Z</time>
      </trkpt>
      <trkpt lat="49.85105" lon="2.28935">
        <ele>92.9</ele>
        <time>2022-10-29T13:06:21Z</time>
      </trkpt>
      <trkpt lat="49.85105" lon="2.28933">
        <ele>92.9</ele>
        <time>2022-10-29T13:06:22Z</time>
      </trkpt>
      <trkpt lat="49.85105" lon="2.28932">
        <ele>92.9</ele>
        <time>2022-10-29T13:06:24Z</time>
      </trkpt>
      <trkpt lat="49.85105" lon="2.2893">
        <ele>92.9</ele>
        <time>2022-10-29T13:06:25Z</time>
      </trkpt>
      <trkpt lat="49.85105" lon="2.28929">
        <ele>92.9</ele>
        <time>2022-10-29T13:06:26Z</time>
      </trkpt>
      <trkpt lat="49.85104" lon="2.28927">
        <ele>93.2</ele>
        <time>2022-10-29T13:06:27Z</time>
      </trkpt>
      <trkpt lat="49.85104" lon="2.28926">
        <ele>93.2</ele>
        <time>2022-10-29T13:06:28Z</time>
      </trkpt>
      <trkpt lat="49.85104" lon="2.28923">
        <ele>93.2</ele>
        <time>2022-10-29T13:06:29Z</time>
      </trkpt>
      <trkpt lat="49.85104" lon="2.28922">
        <ele>93.2</ele>
        <time>2022-10-29T13:06:31Z</time>
      </trkpt>
      <trkpt lat="49.85104" lon="2.28921">
        <ele>93.2</ele>
        <time>2022-10-29T13:06:32Z</time>
      </trkpt>
      <trkpt lat="49.85104" lon="2.2892">
        <ele>93.2</ele>
        <time>2022-10-29T13:06:33Z</time>
      </trkpt>
      <trkpt lat="49.85103" lon="2.28917">
        <ele>93.2</ele>
        <time>2022-10-29T13:06:35Z</time>
      </trkpt>
      <trkpt lat="49.85103" lon="2.28916">
        <ele>93.2</ele>
        <time>2022-10-29T13:06:36Z</time>
      </trkpt>
      <trkpt lat="49.85103" lon="2.28914">
        <ele>93.2</ele>
        <time>2022-10-29T13:06:37Z</time>
      </trkpt>
      <trkpt lat="49.85103" lon="2.28912">
        <ele>93.2</ele>
        <time>2022-10-29T13:06:38Z</time>
      </trkpt>
      <trkpt lat="49.85103" lon="2.28911">
        <ele>93.2</ele>
        <time>2022-10-29T13:06:40Z</time>
      </trkpt>
      <trkpt lat="49.85103" lon="2.2891">
        <ele>93.3</ele>
        <time>2022-10-29T13:06:41Z</time>
      </trkpt>
      <trkpt lat="49.85103" lon="2.28908">
        <ele>93.3</ele>
        <time>2022-10-29T13:06:42Z</time>
      </trkpt>
      <trkpt lat="49.85103" lon="2.28907">
        <ele>93.3</ele>
        <time>2022-10-29T13:06:43Z</time>
      </trkpt>
      <trkpt lat="49.85104" lon="2.28905">
        <ele>93.3</ele>
        <time>2022-10-29T13:06:44Z</time>
      </trkpt>
      <trkpt lat="49.85103" lon="2.28904">
        <ele>93.3</ele>
        <time>2022-10-29T13:06:46Z</time>
      </trkpt>
      <trkpt lat="49.85103" lon="2.28903">
        <ele>93.3</ele>
        <time>2022-10-29T13:06:47Z</time>
      </trkpt>
      <trkpt lat="49.85103" lon="2.28902">
        <ele>93.3</ele>
        <time>2022-10-29T13:06:48Z</time>
      </trkpt>
      <trkpt lat="49.85103" lon="2.289">
        <ele>93.3</ele>
        <time>2022-10-29T13:06:49Z</time>
      </trkpt>
      <trkpt lat="49.85103" lon="2.28898">
        <ele>93.3</ele>
        <time>2022-10-29T13:06:50Z</time>
      </trkpt>
      <trkpt lat="49.85103" lon="2.28897">
        <ele>93.3</ele>
        <time>2022-10-29T13:06:52Z</time>
      </trkpt>
      <trkpt lat="49.85103" lon="2.28896">
        <ele>93.3</ele>
        <time>2022-10-29T13:06:53Z</time>
      </trkpt>
      <trkpt lat="49.85104" lon="2.28895">
        <ele>93.3</ele>
        <time>2022-10-29T13:06:54Z</time>
      </trkpt>
      <trkpt lat="49.85104" lon="2.28895">
        <ele>93.3</ele>
        <time>2022-10-29T13:06:55Z</time>
      </trkpt>
      <trkpt lat="49.85104" lon="2.28893">
        <ele>93.3</ele>
        <time>2022-10-29T13:06:56Z</time>
      </trkpt>
      <trkpt lat="49.85104" lon="2.28892">
        <ele>93.4</ele>
        <time>2022-10-29T13:06:58Z</time>
      </trkpt>
      <trkpt lat="49.85104" lon="2.2889">
        <ele>93.4</ele>
        <time>2022-10-29T13:07:00Z</time>
      </trkpt>
      <trkpt lat="49.85104" lon="2.28889">
        <ele>93.4</ele>
        <time>2022-10-29T13:07:01Z</time>
      </trkpt>
      <trkpt lat="49.85104" lon="2.28887">
        <ele>93.4</ele>
        <time>2022-10-29T13:07:02Z</time>
      </trkpt>
      <trkpt lat="49.85104" lon="2.28885">
        <ele>93.4</ele>
        <time>2022-10-29T13:07:04Z</time>
      </trkpt>
      <trkpt lat="49.85104" lon="2.28884">
        <ele>93.4</ele>
        <time>2022-10-29T13:07:05Z</time>
      </trkpt>
      <trkpt lat="49.85104" lon="2.28882">
        <ele>93.4</ele>
        <time>2022-10-29T13:07:06Z</time>
      </trkpt>
      <trkpt lat="49.85104" lon="2.28881">
        <ele>93.4</ele>
        <time>2022-10-29T13:07:08Z</time>
      </trkpt>
      <trkpt lat="49.85104" lon="2.28879">
        <ele>93.4</ele>
        <time>2022-10-29T13:07:09Z</time>
      </trkpt>
      <trkpt lat="49.85104" lon="2.28878">
        <ele>93.4</ele>
        <time>2022-10-29T13:07:10Z</time>
      </trkpt>
      <trkpt lat="49.85103" lon="2.28876">
        <ele>93.4</ele>
        <time>2022-10-29T13:07:12Z</time>
      </trkpt>
      <trkpt lat="49.85103" lon="2.28875">
        <ele>93.5</ele>
        <time>2022-10-29T13:07:13Z</time>
      </trkpt>
      <trkpt lat="49.85104" lon="2.28873">
        <ele>93.5</ele>
        <time>2022-10-29T13:07:15Z</time>
      </trkpt>
      <trkpt lat="49.85104" lon="2.28872">
        <ele>93.5</ele>
        <time>2022-10-29T13:07:16Z</time>
      </trkpt>
      <trkpt lat="49.85104" lon="2.28869">
        <ele>93.5</ele>
        <time>2022-10-29T13:07:17Z</time>
      </trkpt>
      <trkpt lat="49.85104" lon="2.28868">
        <ele>93.5</ele>
        <time>2022-10-29T13:07:19Z</time>
      </trkpt>
      <trkpt lat="49.85104" lon="2.28866">
        <ele>93.5</ele>
        <time>2022-10-29T13:07:20Z</time>
      </trkpt>
      <trkpt lat="49.85104" lon="2.28865">
        <ele>93.5</ele>
        <time>2022-10-29T13:07:22Z</time>
      </trkpt>
      <trkpt lat="49.85103" lon="2.28865">
        <ele>93.5</ele>
        <time>2022-10-29T13:07:23Z</time>
      </trkpt>
      <trkpt lat="49.85103" lon="2.28865">
        <ele>93.5</ele>
        <time>2022-10-29T13:07:24Z</time>
      </trkpt>
      <trkpt lat="49.85102" lon="2.28865">
        <ele>93.5</ele>
        <time>2022-10-29T13:07:26Z</time>
      </trkpt>
      <trkpt lat="49.85102" lon="2.28865">
        <ele>93.5</ele>
        <time>2022-10-29T13:07:27Z</time>
      </trkpt>
      <trkpt lat="49.85102" lon="2.28866">
        <ele>93.5</ele>
        <time>2022-10-29T13:07:28Z</time>
      </trkpt>
      <trkpt lat="49.85102" lon="2.28866">
        <ele>93.5</ele>
        <time>2022-10-29T13:07:29Z</time>
      </trkpt>
      <trkpt lat="49.85102" lon="2.28866">
        <ele>93.5</ele>
        <time>2022-10-29T13:07:30Z</time>
      </trkpt>
      <trkpt lat="49.85102" lon="2.28866">
        <ele>93.5</ele>
        <time>2022-10-29T13:07:31Z</time>
      </trkpt>
      <trkpt lat="49.85102" lon="2.28865">
        <ele>93.5</ele>
        <time>2022-10-29T13:07:32Z</time>
      </trkpt>
      <trkpt lat="49.85102" lon="2.28863">
        <ele>93.5</ele>
        <time>2022-10-29T13:07:34Z</time>
      </trkpt>
      <trkpt lat="49.85102" lon="2.28862">
        <ele>93.6</ele>
        <time>2022-10-29T13:07:35Z</time>
      </trkpt>
      <trkpt lat="49.85102" lon="2.2886">
        <ele>93.6</ele>
        <time>2022-10-29T13:07:36Z</time>
      </trkpt>
      <trkpt lat="49.85103" lon="2.28858">
        <ele>93.6</ele>
        <time>2022-10-29T13:07:38Z</time>
      </trkpt>
      <trkpt lat="49.85103" lon="2.28856">
        <ele>93.6</ele>
        <time>2022-10-29T13:07:39Z</time>
      </trkpt>
      <trkpt lat="49.85103" lon="2.28855">
        <ele>93.6</ele>
        <time>2022-10-29T13:07:41Z</time>
      </trkpt>
      <trkpt lat="49.85103" lon="2.28854">
        <ele>93.6</ele>
        <time>2022-10-29T13:07:42Z</time>
      </trkpt>
      <trkpt lat="49.85103" lon="2.28853">
        <ele>93.5</ele>
        <time>2022-10-29T13:07:43Z</time>
      </trkpt>
      <trkpt lat="49.85103" lon="2.28851">
        <ele>93.4</ele>
        <time>2022-10-29T13:07:44Z</time>
      </trkpt>
      <trkpt lat="49.85103" lon="2.2885">
        <ele>93.4</ele>
        <time>2022-10-29T13:07:45Z</time>
      </trkpt>
      <trkpt lat="49.85102" lon="2.28849">
        <ele>93.3</ele>
        <time>2022-10-29T13:07:46Z</time>
      </trkpt>
      <trkpt lat="49.85102" lon="2.28849">
        <ele>93.3</ele>
        <time>2022-10-29T13:07:47Z</time>
      </trkpt>
      <trkpt lat="49.85102" lon="2.28849">
        <ele>93.3</ele>
        <time>2022-10-29T13:07:48Z</time>
      </trkpt>
      <trkpt lat="49.85102" lon="2.28849">
        <ele>93.3</ele>
        <time>2022-10-29T13:07:49Z</time>
      </trkpt>
      <trkpt lat="49.85102" lon="2.28849">
        <ele>93.3</ele>
        <time>2022-10-29T13:07:50Z</time>
      </trkpt>
      <trkpt lat="49.85101" lon="2.2885">
        <ele>93.2</ele>
        <time>2022-10-29T13:07:51Z</time>
      </trkpt>
      <trkpt lat="49.85101" lon="2.2885">
        <ele>93.2</ele>
        <time>2022-10-29T13:07:52Z</time>
      </trkpt>
      <trkpt lat="49.85101" lon="2.2885">
        <ele>93.2</ele>
        <time>2022-10-29T13:07:53Z</time>
      </trkpt>
      <trkpt lat="49.85101" lon="2.2885">
        <ele>93.2</ele>
        <time>2022-10-29T13:07:54Z</time>
      </trkpt>
      <trkpt lat="49.85101" lon="2.2885">
        <ele>93.2</ele>
        <time>2022-10-29T13:07:55Z</time>
      </trkpt>
      <trkpt lat="49.85101" lon="2.2885">
        <ele>93.2</ele>
        <time>2022-10-29T13:07:56Z</time>
      </trkpt>
      <trkpt lat="49.85101" lon="2.2885">
        <ele>93.2</ele>
        <time>2022-10-29T13:07:57Z</time>
      </trkpt>
      <trkpt lat="49.85101" lon="2.2885">
        <ele>93.2</ele>
        <time>2022-10-29T13:07:58Z</time>
      </trkpt>
      <trkpt lat="49.85101" lon="2.2885">
        <ele>93.2</ele>
        <time>2022-10-29T13:07:59Z</time>
      </trkpt>
      <trkpt lat="49.85101" lon="2.2885">
        <ele>93.2</ele>
        <time>2022-10-29T13:08:00Z</time>
      </trkpt>
      <trkpt lat="49.85101" lon="2.28851">
        <ele>93.1</ele>
        <time>2022-10-29T13:08:01Z</time>
      </trkpt>
      <trkpt lat="49.85102" lon="2.28851">
        <ele>93.1</ele>
        <time>2022-10-29T13:08:02Z</time>
      </trkpt>
      <trkpt lat="49.85102" lon="2.28851">
        <ele>93.1</ele>
        <time>2022-10-29T13:08:03Z</time>
      </trkpt>
      <trkpt lat="49.85102" lon="2.28851">
        <ele>93.1</ele>
        <time>2022-10-29T13:08:04Z</time>
      </trkpt>
      <trkpt lat="49.85102" lon="2.28851">
        <ele>93.1</ele>
        <time>2022-10-29T13:08:05Z</time>
      </trkpt>
      <trkpt lat="49.85102" lon="2.28851">
        <ele>93.1</ele>
        <time>2022-10-29T13:08:06Z</time>
      </trkpt>
      <trkpt lat="49.85102" lon="2.28851">
        <ele>93.1</ele>
        <time>2022-10-29T13:08:07Z</time>
      </trkpt>
      <trkpt lat="49.85102" lon="2.28851">
        <ele>93.1</ele>
        <time>2022-10-29T13:08:08Z</time>
      </trkpt>
      <trkpt lat="49.85102" lon="2.28851">
        <ele>93.1</ele>
        <time>2022-10-29T13:08:09Z</time>
      </trkpt>
      <trkpt lat="49.85102" lon="2.28851">
        <ele>93.1</ele>
        <time>2022-10-29T13:08:10Z</time>
      </trkpt>
      <trkpt lat="49.85102" lon="2.28851">
        <ele>93.1</ele>
        <time>2022-10-29T13:08:11Z</time>
      </trkpt>
      <trkpt lat="49.85102" lon="2.28851">
        <ele>93.1</ele>
        <time>2022-10-29T13:08:12Z</time>
      </trkpt>
      <trkpt lat="49.85102" lon="2.28851">
        <ele>93.1</ele>
        <time>2022-10-29T13:08:13Z</time>
      </trkpt>
      <trkpt lat="49.85102" lon="2.28851">
        <ele>93.1</ele>
        <time>2022-10-29T13:08:14Z</time>
      </trkpt>
      <trkpt lat="49.85102" lon="2.28851">
        <ele>93.1</ele>
        <time>2022-10-29T13:08:15Z</time>
      </trkpt>
      <trkpt lat="49.85102" lon="2.28851">
        <ele>93.1</ele>
        <time>2022-10-29T13:08:16Z</time>
      </trkpt>
      <trkpt lat="49.85102" lon="2.28851">
        <ele>93.1</ele>
        <time>2022-10-29T13:08:17Z</time>
      </trkpt>
      <trkpt lat="49.85102" lon="2.28851">
        <ele>93.1</ele>
        <time>2022-10-29T13:08:18Z</time>
      </trkpt>
      <trkpt lat="49.85102" lon="2.28851">
        <ele>93.1</ele>
        <time>2022-10-29T13:08:19Z</time>
      </trkpt>
      <trkpt lat="49.85102" lon="2.28851">
        <ele>93.1</ele>
        <time>2022-10-29T13:08:20Z</time>
      </trkpt>
      <trkpt lat="49.85102" lon="2.28851">
        <ele>93.1</ele>
        <time>2022-10-29T13:08:21Z</time>
      </trkpt>
      <trkpt lat="49.85102" lon="2.28851">
        <ele>93.1</ele>
        <time>2022-10-29T13:08:22Z</time>
      </trkpt>
      <trkpt lat="49.85102" lon="2.28851">
        <ele>93.1</ele>
        <time>2022-10-29T13:08:23Z</time>
      </trkpt>
      <trkpt lat="49.85102" lon="2.28851">
        <ele>93.1</ele>
        <time>2022-10-29T13:08:24Z</time>
      </trkpt>
      <trkpt lat="49.85102" lon="2.28851">
        <ele>93.1</ele>
        <time>2022-10-29T13:08:25Z</time>
      </trkpt>
      <trkpt lat="49.85102" lon="2.28851">
        <ele>93.1</ele>
        <time>2022-10-29T13:08:26Z</time>
      </trkpt>
      <trkpt lat="49.85102" lon="2.28851">
        <ele>93.1</ele>
        <time>2022-10-29T13:08:27Z</time>
      </trkpt>
      <trkpt lat="49.85102" lon="2.28851">
        <ele>93.1</ele>
        <time>2022-10-29T13:08:28Z</time>
      </trkpt>
      <trkpt lat="49.85102" lon="2.28851">
        <ele>93.1</ele>
        <time>2022-10-29T13:08:29Z</time>
      </trkpt>
      <trkpt lat="49.85102" lon="2.28851">
        <ele>93.1</ele>
        <time>2022-10-29T13:08:30Z</time>
      </trkpt>
      <trkpt lat="49.85102" lon="2.28851">
        <ele>93.1</ele>
        <time>2022-10-29T13:08:31Z</time>
      </trkpt>
      <trkpt lat="49.85102" lon="2.28851">
        <ele>93.1</ele>
        <time>2022-10-29T13:08:32Z</time>
      </trkpt>
      <trkpt lat="49.85102" lon="2.28851">
        <ele>93.1</ele>
        <time>2022-10-29T13:08:33Z</time>
      </trkpt>
      <trkpt lat="49.85102" lon="2.28851">
        <ele>93.1</ele>
        <time>2022-10-29T13:08:34Z</time>
      </trkpt>
      <trkpt lat="49.85102" lon="2.28851">
        <ele>93.1</ele>
        <time>2022-10-29T13:08:35Z</time>
      </trkpt>
      <trkpt lat="49.85102" lon="2.28851">
        <ele>93.1</ele>
        <time>2022-10-29T13:08:36Z</time>
      </trkpt>
      <trkpt lat="49.85102" lon="2.28851">
        <ele>93.1</ele>
        <time>2022-10-29T13:08:37Z</time>
      </trkpt>
      <trkpt lat="49.85102" lon="2.28851">
        <ele>93.1</ele>
        <time>2022-10-29T13:08:38Z</time>
      </trkpt>
      <trkpt lat="49.85102" lon="2.28851">
        <ele>93.1</ele>
        <time>2022-10-29T13:08:39Z</time>
      </trkpt>
      <trkpt lat="49.85102" lon="2.28851">
        <ele>93.1</ele>
        <time>2022-10-29T13:08:40Z</time>
      </trkpt>
      <trkpt lat="49.85102" lon="2.28851">
        <ele>93.1</ele>
        <time>2022-10-29T13:08:41Z</time>
      </trkpt>
      <trkpt lat="49.85102" lon="2.28851">
        <ele>93.1</ele>
        <time>2022-10-29T13:08:42Z</time>
      </trkpt>
      <trkpt lat="49.85102" lon="2.28851">
        <ele>93.1</ele>
        <time>2022-10-29T13:08:43Z</time>
      </trkpt>
      <trkpt lat="49.85102" lon="2.28851">
        <ele>93.1</ele>
        <time>2022-10-29T13:08:44Z</time>
      </trkpt>
      <trkpt lat="49.85102" lon="2.28851">
        <ele>93.1</ele>
        <time>2022-10-29T13:08:45Z</time>
      </trkpt>
      <trkpt lat="49.85102" lon="2.28851">
        <ele>93.1</ele>
        <time>2022-10-29T13:08:46Z</time>
      </trkpt>
      <trkpt lat="49.85102" lon="2.28851">
        <ele>93.1</ele>
        <time>2022-10-29T13:08:47Z</time>
      </trkpt>
      <trkpt lat="49.85102" lon="2.28851">
        <ele>93.1</ele>
        <time>2022-10-29T13:08:48Z</time>
      </trkpt>
      <trkpt lat="49.85102" lon="2.28851">
        <ele>93.1</ele>
        <time>2022-10-29T13:08:49Z</time>
      </trkpt>
      <trkpt lat="49.85102" lon="2.28851">
        <ele>93.1</ele>
        <time>2022-10-29T13:08:50Z</time>
      </trkpt>
      <trkpt lat="49.85102" lon="2.28851">
        <ele>93.1</ele>
        <time>2022-10-29T13:08:51Z</time>
      </trkpt>
      <trkpt lat="49.85103" lon="2.28855">
        <ele>92.9</ele>
        <time>2022-10-29T13:08:52Z</time>
      </trkpt>
      <trkpt lat="49.85104" lon="2.28856">
        <ele>92.8</ele>
        <time>2022-10-29T13:08:53Z</time>
      </trkpt>
      <trkpt lat="49.85104" lon="2.28856">
        <ele>92.7</ele>
        <time>2022-10-29T13:08:54Z</time>
      </trkpt>
      <trkpt lat="49.85105" lon="2.28855">
        <ele>92.7</ele>
        <time>2022-10-29T13:08:55Z</time>
      </trkpt>
      <trkpt lat="49.85105" lon="2.28855">
        <ele>92.7</ele>
        <time>2022-10-29T13:08:56Z</time>
      </trkpt>
      <trkpt lat="49.85106" lon="2.28855">
        <ele>92.6</ele>
        <time>2022-10-29T13:08:57Z</time>
      </trkpt>
      <trkpt lat="49.85106" lon="2.28856">
        <ele>92.6</ele>
        <time>2022-10-29T13:08:58Z</time>
      </trkpt>
      <trkpt lat="49.85107" lon="2.28856">
        <ele>92.6</ele>
        <time>2022-10-29T13:08:59Z</time>
      </trkpt>
      <trkpt lat="49.85108" lon="2.28857">
        <ele>92.4</ele>
        <time>2022-10-29T13:09:00Z</time>
      </trkpt>
      <trkpt lat="49.8511" lon="2.28857">
        <ele>92.3</ele>
        <time>2022-10-29T13:09:02Z</time>
      </trkpt>
      <trkpt lat="49.8511" lon="2.28855">
        <ele>92.3</ele>
        <time>2022-10-29T13:09:03Z</time>
      </trkpt>
      <trkpt lat="49.8511" lon="2.28855">
        <ele>92.2</ele>
        <time>2022-10-29T13:09:04Z</time>
      </trkpt>
      <trkpt lat="49.85111" lon="2.28854">
        <ele>92.2</ele>
        <time>2022-10-29T13:09:05Z</time>
      </trkpt>
      <trkpt lat="49.85111" lon="2.28854">
        <ele>92.2</ele>
        <time>2022-10-29T13:09:06Z</time>
      </trkpt>
      <trkpt lat="49.85111" lon="2.28853">
        <ele>92.1</ele>
        <time>2022-10-29T13:09:07Z</time>
      </trkpt>
      <trkpt lat="49.85111" lon="2.28853">
        <ele>92.1</ele>
        <time>2022-10-29T13:09:08Z</time>
      </trkpt>
      <trkpt lat="49.85111" lon="2.28853">
        <ele>92.1</ele>
        <time>2022-10-29T13:09:09Z</time>
      </trkpt>
      <trkpt lat="49.85112" lon="2.28854">
        <ele>92</ele>
        <time>2022-10-29T13:09:10Z</time>
      </trkpt>
      <trkpt lat="49.85112" lon="2.28854">
        <ele>92</ele>
        <time>2022-10-29T13:09:11Z</time>
      </trkpt>
      <trkpt lat="49.85113" lon="2.28855">
        <ele>92</ele>
        <time>2022-10-29T13:09:13Z</time>
      </trkpt>
      <trkpt lat="49.85113" lon="2.28855">
        <ele>91.9</ele>
        <time>2022-10-29T13:09:14Z</time>
      </trkpt>
      <trkpt lat="49.85114" lon="2.28855">
        <ele>91.9</ele>
        <time>2022-10-29T13:09:15Z</time>
      </trkpt>
      <trkpt lat="49.85115" lon="2.28855">
        <ele>91.8</ele>
        <time>2022-10-29T13:09:16Z</time>
      </trkpt>
      <trkpt lat="49.85115" lon="2.28856">
        <ele>91.8</ele>
        <time>2022-10-29T13:09:17Z</time>
      </trkpt>
      <trkpt lat="49.85116" lon="2.28856">
        <ele>91.8</ele>
        <time>2022-10-29T13:09:18Z</time>
      </trkpt>
      <trkpt lat="49.85116" lon="2.28856">
        <ele>91.7</ele>
        <time>2022-10-29T13:09:19Z</time>
      </trkpt>
      <trkpt lat="49.85117" lon="2.28856">
        <ele>91.7</ele>
        <time>2022-10-29T13:09:20Z</time>
      </trkpt>
      <trkpt lat="49.85119" lon="2.28856">
        <ele>91.6</ele>
        <time>2022-10-29T13:09:21Z</time>
      </trkpt>
      <trkpt lat="49.8512" lon="2.28856">
        <ele>91.5</ele>
        <time>2022-10-29T13:09:22Z</time>
      </trkpt>
      <trkpt lat="49.85121" lon="2.28856">
        <ele>91.4</ele>
        <time>2022-10-29T13:09:23Z</time>
      </trkpt>
      <trkpt lat="49.85122" lon="2.28856">
        <ele>91.4</ele>
        <time>2022-10-29T13:09:24Z</time>
      </trkpt>
      <trkpt lat="49.85123" lon="2.28856">
        <ele>91.3</ele>
        <time>2022-10-29T13:09:25Z</time>
      </trkpt>
      <trkpt lat="49.85125" lon="2.28856">
        <ele>91.2</ele>
        <time>2022-10-29T13:09:27Z</time>
      </trkpt>
      <trkpt lat="49.85127" lon="2.28856">
        <ele>91</ele>
        <time>2022-10-29T13:09:28Z</time>
      </trkpt>
      <trkpt lat="49.85128" lon="2.28856">
        <ele>91</ele>
        <time>2022-10-29T13:09:29Z</time>
      </trkpt>
      <trkpt lat="49.85129" lon="2.28856">
        <ele>90.9</ele>
        <time>2022-10-29T13:09:30Z</time>
      </trkpt>
      <trkpt lat="49.8513" lon="2.28856">
        <ele>90.8</ele>
        <time>2022-10-29T13:09:31Z</time>
      </trkpt>
      <trkpt lat="49.85131" lon="2.28856">
        <ele>90.8</ele>
        <time>2022-10-29T13:09:32Z</time>
      </trkpt>
      <trkpt lat="49.85132" lon="2.28856">
        <ele>90.7</ele>
        <time>2022-10-29T13:09:33Z</time>
      </trkpt>
      <trkpt lat="49.85133" lon="2.28856">
        <ele>90.7</ele>
        <time>2022-10-29T13:09:34Z</time>
      </trkpt>
      <trkpt lat="49.85134" lon="2.28856">
        <ele>90.6</ele>
        <time>2022-10-29T13:09:36Z</time>
      </trkpt>
      <trkpt lat="49.85135" lon="2.28856">
        <ele>90.6</ele>
        <time>2022-10-29T13:09:37Z</time>
      </trkpt>
      <trkpt lat="49.85136" lon="2.28856">
        <ele>90.5</ele>
        <time>2022-10-29T13:09:38Z</time>
      </trkpt>
      <trkpt lat="49.85137" lon="2.28856">
        <ele>90.5</ele>
        <time>2022-10-29T13:09:39Z</time>
      </trkpt>
      <trkpt lat="49.85138" lon="2.28855">
        <ele>90.4</ele>
        <time>2022-10-29T13:09:40Z</time>
      </trkpt>
      <trkpt lat="49.85139" lon="2.28855">
        <ele>90.3</ele>
        <time>2022-10-29T13:09:42Z</time>
      </trkpt>
      <trkpt lat="49.8514" lon="2.28855">
        <ele>90.3</ele>
        <time>2022-10-29T13:09:43Z</time>
      </trkpt>
      <trkpt lat="49.85141" lon="2.28854">
        <ele>90.3</ele>
        <time>2022-10-29T13:09:44Z</time>
      </trkpt>
      <trkpt lat="49.85142" lon="2.28854">
        <ele>90.2</ele>
        <time>2022-10-29T13:09:45Z</time>
      </trkpt>
      <trkpt lat="49.85144" lon="2.28854">
        <ele>90.2</ele>
        <time>2022-10-29T13:09:46Z</time>
      </trkpt>
      <trkpt lat="49.85144" lon="2.28853">
        <ele>90.1</ele>
        <time>2022-10-29T13:09:48Z</time>
      </trkpt>
      <trkpt lat="49.85145" lon="2.28853">
        <ele>90.1</ele>
        <time>2022-10-29T13:09:49Z</time>
      </trkpt>
      <trkpt lat="49.85146" lon="2.28853">
        <ele>90.1</ele>
        <time>2022-10-29T13:09:50Z</time>
      </trkpt>
      <trkpt lat="49.85147" lon="2.28853">
        <ele>90</ele>
        <time>2022-10-29T13:09:51Z</time>
      </trkpt>
      <trkpt lat="49.85148" lon="2.28853">
        <ele>90</ele>
        <time>2022-10-29T13:09:52Z</time>
      </trkpt>
      <trkpt lat="49.85149" lon="2.28852">
        <ele>89.9</ele>
        <time>2022-10-29T13:09:53Z</time>
      </trkpt>
      <trkpt lat="49.8515" lon="2.28852">
        <ele>89.9</ele>
        <time>2022-10-29T13:09:54Z</time>
      </trkpt>
      <trkpt lat="49.85151" lon="2.28852">
        <ele>89.9</ele>
        <time>2022-10-29T13:09:56Z</time>
      </trkpt>
      <trkpt lat="49.85153" lon="2.28852">
        <ele>89.8</ele>
        <time>2022-10-29T13:09:57Z</time>
      </trkpt>
      <trkpt lat="49.85154" lon="2.28852">
        <ele>89.8</ele>
        <time>2022-10-29T13:09:58Z</time>
      </trkpt>
      <trkpt lat="49.85155" lon="2.28852">
        <ele>89.7</ele>
        <time>2022-10-29T13:09:59Z</time>
      </trkpt>
      <trkpt lat="49.85156" lon="2.28852">
        <ele>89.7</ele>
        <time>2022-10-29T13:10:01Z</time>
      </trkpt>
      <trkpt lat="49.85158" lon="2.28853">
        <ele>89.6</ele>
        <time>2022-10-29T13:10:02Z</time>
      </trkpt>
      <trkpt lat="49.8516" lon="2.28853">
        <ele>89.6</ele>
        <time>2022-10-29T13:10:03Z</time>
      </trkpt>
      <trkpt lat="49.85161" lon="2.28853">
        <ele>89.6</ele>
        <time>2022-10-29T13:10:04Z</time>
      </trkpt>
      <trkpt lat="49.85162" lon="2.28854">
        <ele>89.6</ele>
        <time>2022-10-29T13:10:05Z</time>
      </trkpt>
      <trkpt lat="49.85164" lon="2.28854">
        <ele>89.5</ele>
        <time>2022-10-29T13:10:06Z</time>
      </trkpt>
      <trkpt lat="49.85164" lon="2.28854">
        <ele>89.5</ele>
        <time>2022-10-29T13:10:08Z</time>
      </trkpt>
      <trkpt lat="49.85165" lon="2.28854">
        <ele>89.5</ele>
        <time>2022-10-29T13:10:09Z</time>
      </trkpt>
      <trkpt lat="49.85166" lon="2.28854">
        <ele>89.5</ele>
        <time>2022-10-29T13:10:10Z</time>
      </trkpt>
      <trkpt lat="49.85168" lon="2.28854">
        <ele>89.4</ele>
        <time>2022-10-29T13:10:11Z</time>
      </trkpt>
      <trkpt lat="49.85169" lon="2.28853">
        <ele>89.4</ele>
        <time>2022-10-29T13:10:12Z</time>
      </trkpt>
      <trkpt lat="49.8517" lon="2.28852">
        <ele>89.4</ele>
        <time>2022-10-29T13:10:13Z</time>
      </trkpt>
      <trkpt lat="49.8517" lon="2.28852">
        <ele>89.4</ele>
        <time>2022-10-29T13:10:15Z</time>
      </trkpt>
      <trkpt lat="49.85171" lon="2.28851">
        <ele>89.4</ele>
        <time>2022-10-29T13:10:16Z</time>
      </trkpt>
      <trkpt lat="49.85172" lon="2.2885">
        <ele>89.4</ele>
        <time>2022-10-29T13:10:17Z</time>
      </trkpt>
      <trkpt lat="49.85173" lon="2.2885">
        <ele>89.4</ele>
        <time>2022-10-29T13:10:18Z</time>
      </trkpt>
      <trkpt lat="49.85174" lon="2.28849">
        <ele>89.4</ele>
        <time>2022-10-29T13:10:19Z</time>
      </trkpt>
      <trkpt lat="49.85175" lon="2.28849">
        <ele>89.4</ele>
        <time>2022-10-29T13:10:21Z</time>
      </trkpt>
      <trkpt lat="49.85176" lon="2.28848">
        <ele>89.4</ele>
        <time>2022-10-29T13:10:22Z</time>
      </trkpt>
      <trkpt lat="49.85177" lon="2.28848">
        <ele>89.4</ele>
        <time>2022-10-29T13:10:23Z</time>
      </trkpt>
      <trkpt lat="49.85179" lon="2.28848">
        <ele>89.4</ele>
        <time>2022-10-29T13:10:24Z</time>
      </trkpt>
      <trkpt lat="49.8518" lon="2.28847">
        <ele>89.4</ele>
        <time>2022-10-29T13:10:25Z</time>
      </trkpt>
      <trkpt lat="49.85181" lon="2.28847">
        <ele>89.4</ele>
        <time>2022-10-29T13:10:26Z</time>
      </trkpt>
      <trkpt lat="49.85182" lon="2.28847">
        <ele>89.4</ele>
        <time>2022-10-29T13:10:28Z</time>
      </trkpt>
      <trkpt lat="49.85182" lon="2.28848">
        <ele>89.4</ele>
        <time>2022-10-29T13:10:29Z</time>
      </trkpt>
      <trkpt lat="49.85183" lon="2.28848">
        <ele>89.4</ele>
        <time>2022-10-29T13:10:30Z</time>
      </trkpt>
      <trkpt lat="49.85185" lon="2.28849">
        <ele>89.4</ele>
        <time>2022-10-29T13:10:31Z</time>
      </trkpt>
      <trkpt lat="49.85185" lon="2.28849">
        <ele>89.4</ele>
        <time>2022-10-29T13:10:32Z</time>
      </trkpt>
      <trkpt lat="49.85186" lon="2.28849">
        <ele>89.4</ele>
        <time>2022-10-29T13:10:34Z</time>
      </trkpt>
      <trkpt lat="49.85187" lon="2.28849">
        <ele>89.4</ele>
        <time>2022-10-29T13:10:35Z</time>
      </trkpt>
      <trkpt lat="49.85188" lon="2.28849">
        <ele>89.4</ele>
        <time>2022-10-29T13:10:36Z</time>
      </trkpt>
      <trkpt lat="49.85189" lon="2.28849">
        <ele>89.4</ele>
        <time>2022-10-29T13:10:37Z</time>
      </trkpt>
      <trkpt lat="49.8519" lon="2.28849">
        <ele>89.4</ele>
        <time>2022-10-29T13:10:38Z</time>
      </trkpt>
      <trkpt lat="49.85191" lon="2.28849">
        <ele>89.4</ele>
        <time>2022-10-29T13:10:40Z</time>
      </trkpt>
      <trkpt lat="49.85193" lon="2.28849">
        <ele>89.4</ele>
        <time>2022-10-29T13:10:41Z</time>
      </trkpt>
      <trkpt lat="49.85193" lon="2.28848">
        <ele>89.4</ele>
        <time>2022-10-29T13:10:43Z</time>
      </trkpt>
      <trkpt lat="49.85194" lon="2.28848">
        <ele>89.4</ele>
        <time>2022-10-29T13:10:44Z</time>
      </trkpt>
      <trkpt lat="49.85195" lon="2.28848">
        <ele>89.5</ele>
        <time>2022-10-29T13:10:45Z</time>
      </trkpt>
      <trkpt lat="49.85196" lon="2.28847">
        <ele>89.5</ele>
        <time>2022-10-29T13:10:46Z</time>
      </trkpt>
      <trkpt lat="49.85197" lon="2.28847">
        <ele>89.5</ele>
        <time>2022-10-29T13:10:47Z</time>
      </trkpt>
      <trkpt lat="49.85198" lon="2.28847">
        <ele>89.5</ele>
        <time>2022-10-29T13:10:49Z</time>
      </trkpt>
      <trkpt lat="49.85199" lon="2.28847">
        <ele>89.5</ele>
        <time>2022-10-29T13:10:50Z</time>
      </trkpt>
      <trkpt lat="49.852" lon="2.28847">
        <ele>89.5</ele>
        <time>2022-10-29T13:10:52Z</time>
      </trkpt>
      <trkpt lat="49.852" lon="2.28846">
        <ele>89.5</ele>
        <time>2022-10-29T13:10:53Z</time>
      </trkpt>
      <trkpt lat="49.85201" lon="2.28846">
        <ele>89.5</ele>
        <time>2022-10-29T13:10:54Z</time>
      </trkpt>
      <trkpt lat="49.85202" lon="2.28845">
        <ele>89.6</ele>
        <time>2022-10-29T13:10:55Z</time>
      </trkpt>
      <trkpt lat="49.85203" lon="2.28842">
        <ele>89.6</ele>
        <time>2022-10-29T13:10:57Z</time>
      </trkpt>
      <trkpt lat="49.85203" lon="2.28841">
        <ele>89.6</ele>
        <time>2022-10-29T13:10:58Z</time>
      </trkpt>
      <trkpt lat="49.85204" lon="2.2884">
        <ele>89.6</ele>
        <time>2022-10-29T13:10:59Z</time>
      </trkpt>
      <trkpt lat="49.85205" lon="2.28838">
        <ele>89.8</ele>
        <time>2022-10-29T13:11:01Z</time>
      </trkpt>
      <trkpt lat="49.85205" lon="2.28836">
        <ele>89.9</ele>
        <time>2022-10-29T13:11:02Z</time>
      </trkpt>
      <trkpt lat="49.85205" lon="2.28835">
        <ele>90</ele>
        <time>2022-10-29T13:11:03Z</time>
      </trkpt>
      <trkpt lat="49.85206" lon="2.28833">
        <ele>90</ele>
        <time>2022-10-29T13:11:05Z</time>
      </trkpt>
      <trkpt lat="49.85205" lon="2.28831">
        <ele>90.1</ele>
        <time>2022-10-29T13:11:06Z</time>
      </trkpt>
      <trkpt lat="49.85206" lon="2.28828">
        <ele>90.2</ele>
        <time>2022-10-29T13:11:07Z</time>
      </trkpt>
      <trkpt lat="49.85206" lon="2.28826">
        <ele>90.3</ele>
        <time>2022-10-29T13:11:08Z</time>
      </trkpt>
      <trkpt lat="49.85206" lon="2.28823">
        <ele>90.4</ele>
        <time>2022-10-29T13:11:10Z</time>
      </trkpt>
      <trkpt lat="49.85206" lon="2.28822">
        <ele>90.4</ele>
        <time>2022-10-29T13:11:11Z</time>
      </trkpt>
      <trkpt lat="49.85206" lon="2.28821">
        <ele>90.5</ele>
        <time>2022-10-29T13:11:12Z</time>
      </trkpt>
      <trkpt lat="49.85206" lon="2.28818">
        <ele>90.6</ele>
        <time>2022-10-29T13:11:14Z</time>
      </trkpt>
      <trkpt lat="49.85206" lon="2.28816">
        <ele>90.7</ele>
        <time>2022-10-29T13:11:15Z</time>
      </trkpt>
      <trkpt lat="49.85206" lon="2.28815">
        <ele>90.7</ele>
        <time>2022-10-29T13:11:16Z</time>
      </trkpt>
      <trkpt lat="49.85206" lon="2.28813">
        <ele>90.8</ele>
        <time>2022-10-29T13:11:17Z</time>
      </trkpt>
      <trkpt lat="49.85207" lon="2.28811">
        <ele>90.9</ele>
        <time>2022-10-29T13:11:19Z</time>
      </trkpt>
      <trkpt lat="49.85207" lon="2.2881">
        <ele>90.9</ele>
        <time>2022-10-29T13:11:20Z</time>
      </trkpt>
      <trkpt lat="49.85207" lon="2.28808">
        <ele>91</ele>
        <time>2022-10-29T13:11:21Z</time>
      </trkpt>
      <trkpt lat="49.85206" lon="2.28806">
        <ele>91.1</ele>
        <time>2022-10-29T13:11:22Z</time>
      </trkpt>
      <trkpt lat="49.85206" lon="2.28805">
        <ele>91.1</ele>
        <time>2022-10-29T13:11:24Z</time>
      </trkpt>
      <trkpt lat="49.85206" lon="2.28802">
        <ele>91.2</ele>
        <time>2022-10-29T13:11:25Z</time>
      </trkpt>
      <trkpt lat="49.85206" lon="2.288">
        <ele>91.3</ele>
        <time>2022-10-29T13:11:27Z</time>
      </trkpt>
      <trkpt lat="49.85206" lon="2.28799">
        <ele>91.4</ele>
        <time>2022-10-29T13:11:28Z</time>
      </trkpt>
      <trkpt lat="49.85205" lon="2.28797">
        <ele>91.4</ele>
        <time>2022-10-29T13:11:30Z</time>
      </trkpt>
      <trkpt lat="49.85205" lon="2.28796">
        <ele>91.5</ele>
        <time>2022-10-29T13:11:31Z</time>
      </trkpt>
      <trkpt lat="49.85205" lon="2.28794">
        <ele>91.6</ele>
        <time>2022-10-29T13:11:32Z</time>
      </trkpt>
      <trkpt lat="49.85205" lon="2.28792">
        <ele>91.7</ele>
        <time>2022-10-29T13:11:34Z</time>
      </trkpt>
      <trkpt lat="49.85205" lon="2.28791">
        <ele>91.7</ele>
        <time>2022-10-29T13:11:36Z</time>
      </trkpt>
      <trkpt lat="49.85205" lon="2.28789">
        <ele>91.8</ele>
        <time>2022-10-29T13:11:37Z</time>
      </trkpt>
      <trkpt lat="49.85205" lon="2.28788">
        <ele>91.8</ele>
        <time>2022-10-29T13:11:38Z</time>
      </trkpt>
      <trkpt lat="49.85205" lon="2.28788">
        <ele>91.9</ele>
        <time>2022-10-29T13:11:39Z</time>
      </trkpt>
      <trkpt lat="49.85205" lon="2.28786">
        <ele>91.9</ele>
        <time>2022-10-29T13:11:40Z</time>
      </trkpt>
      <trkpt lat="49.85205" lon="2.28785">
        <ele>92</ele>
        <time>2022-10-29T13:11:41Z</time>
      </trkpt>
      <trkpt lat="49.85205" lon="2.28784">
        <ele>92</ele>
        <time>2022-10-29T13:11:42Z</time>
      </trkpt>
      <trkpt lat="49.85205" lon="2.28782">
        <ele>92.1</ele>
        <time>2022-10-29T13:11:43Z</time>
      </trkpt>
      <trkpt lat="49.85205" lon="2.28781">
        <ele>92.2</ele>
        <time>2022-10-29T13:11:44Z</time>
      </trkpt>
      <trkpt lat="49.85205" lon="2.2878">
        <ele>92.2</ele>
        <time>2022-10-29T13:11:46Z</time>
      </trkpt>
      <trkpt lat="49.85205" lon="2.28778">
        <ele>92.3</ele>
        <time>2022-10-29T13:11:47Z</time>
      </trkpt>
      <trkpt lat="49.85205" lon="2.28778">
        <ele>92.3</ele>
        <time>2022-10-29T13:11:48Z</time>
      </trkpt>
      <trkpt lat="49.85205" lon="2.28776">
        <ele>92.4</ele>
        <time>2022-10-29T13:11:49Z</time>
      </trkpt>
      <trkpt lat="49.85205" lon="2.28775">
        <ele>92.4</ele>
        <time>2022-10-29T13:11:50Z</time>
      </trkpt>
      <trkpt lat="49.85205" lon="2.28772">
        <ele>92.5</ele>
        <time>2022-10-29T13:11:52Z</time>
      </trkpt>
      <trkpt lat="49.85205" lon="2.28771">
        <ele>92.6</ele>
        <time>2022-10-29T13:11:53Z</time>
      </trkpt>
      <trkpt lat="49.85205" lon="2.2877">
        <ele>92.7</ele>
        <time>2022-10-29T13:11:55Z</time>
      </trkpt>
      <trkpt lat="49.85205" lon="2.28768">
        <ele>92.7</ele>
        <time>2022-10-29T13:11:56Z</time>
      </trkpt>
      <trkpt lat="49.85205" lon="2.28766">
        <ele>92.8</ele>
        <time>2022-10-29T13:11:57Z</time>
      </trkpt>
      <trkpt lat="49.85205" lon="2.28764">
        <ele>92.9</ele>
        <time>2022-10-29T13:11:59Z</time>
      </trkpt>
      <trkpt lat="49.85205" lon="2.28763">
        <ele>93</ele>
        <time>2022-10-29T13:12:00Z</time>
      </trkpt>
      <trkpt lat="49.85205" lon="2.28761">
        <ele>93</ele>
        <time>2022-10-29T13:12:01Z</time>
      </trkpt>
      <trkpt lat="49.85205" lon="2.2876">
        <ele>93.1</ele>
        <time>2022-10-29T13:12:02Z</time>
      </trkpt>
      <trkpt lat="49.85206" lon="2.2876">
        <ele>93.1</ele>
        <time>2022-10-29T13:12:04Z</time>
      </trkpt>
      <trkpt lat="49.85206" lon="2.28759">
        <ele>93.1</ele>
        <time>2022-10-29T13:12:05Z</time>
      </trkpt>
      <trkpt lat="49.85206" lon="2.28758">
        <ele>93.2</ele>
        <time>2022-10-29T13:12:06Z</time>
      </trkpt>
      <trkpt lat="49.85206" lon="2.28756">
        <ele>93.3</ele>
        <time>2022-10-29T13:12:07Z</time>
      </trkpt>
      <trkpt lat="49.85206" lon="2.28755">
        <ele>93.3</ele>
        <time>2022-10-29T13:12:09Z</time>
      </trkpt>
      <trkpt lat="49.85206" lon="2.28753">
        <ele>93.4</ele>
        <time>2022-10-29T13:12:10Z</time>
      </trkpt>
      <trkpt lat="49.85205" lon="2.28752">
        <ele>93.5</ele>
        <time>2022-10-29T13:12:11Z</time>
      </trkpt>
      <trkpt lat="49.85205" lon="2.2875">
        <ele>93.6</ele>
        <time>2022-10-29T13:12:13Z</time>
      </trkpt>
      <trkpt lat="49.85205" lon="2.28749">
        <ele>93.6</ele>
        <time>2022-10-29T13:12:14Z</time>
      </trkpt>
      <trkpt lat="49.85205" lon="2.28748">
        <ele>93.6</ele>
        <time>2022-10-29T13:12:15Z</time>
      </trkpt>
      <trkpt lat="49.85204" lon="2.28746">
        <ele>93.7</ele>
        <time>2022-10-29T13:12:16Z</time>
      </trkpt>
      <trkpt lat="49.85204" lon="2.28745">
        <ele>93.8</ele>
        <time>2022-10-29T13:12:17Z</time>
      </trkpt>
      <trkpt lat="49.85204" lon="2.28744">
        <ele>93.8</ele>
        <time>2022-10-29T13:12:19Z</time>
      </trkpt>
      <trkpt lat="49.85204" lon="2.28742">
        <ele>93.9</ele>
        <time>2022-10-29T13:12:20Z</time>
      </trkpt>
      <trkpt lat="49.85205" lon="2.28741">
        <ele>94</ele>
        <time>2022-10-29T13:12:22Z</time>
      </trkpt>
      <trkpt lat="49.85206" lon="2.2874">
        <ele>94.1</ele>
        <time>2022-10-29T13:12:24Z</time>
      </trkpt>
      <trkpt lat="49.85206" lon="2.2874">
        <ele>94.1</ele>
        <time>2022-10-29T13:12:25Z</time>
      </trkpt>
      <trkpt lat="49.85206" lon="2.28739">
        <ele>94.1</ele>
        <time>2022-10-29T13:12:26Z</time>
      </trkpt>
      <trkpt lat="49.85206" lon="2.28739">
        <ele>94.1</ele>
        <time>2022-10-29T13:12:27Z</time>
      </trkpt>
      <trkpt lat="49.85206" lon="2.28739">
        <ele>94.1</ele>
        <time>2022-10-29T13:12:28Z</time>
      </trkpt>
      <trkpt lat="49.85206" lon="2.2874">
        <ele>94.1</ele>
        <time>2022-10-29T13:12:29Z</time>
      </trkpt>
      <trkpt lat="49.85206" lon="2.2874">
        <ele>94.1</ele>
        <time>2022-10-29T13:12:30Z</time>
      </trkpt>
      <trkpt lat="49.85206" lon="2.2874">
        <ele>94.1</ele>
        <time>2022-10-29T13:12:31Z</time>
      </trkpt>
      <trkpt lat="49.85206" lon="2.2874">
        <ele>94.1</ele>
        <time>2022-10-29T13:12:32Z</time>
      </trkpt>
      <trkpt lat="49.85206" lon="2.2874">
        <ele>94.1</ele>
        <time>2022-10-29T13:12:33Z</time>
      </trkpt>
      <trkpt lat="49.85206" lon="2.2874">
        <ele>94.1</ele>
        <time>2022-10-29T13:12:34Z</time>
      </trkpt>
      <trkpt lat="49.85206" lon="2.2874">
        <ele>94.1</ele>
        <time>2022-10-29T13:12:35Z</time>
      </trkpt>
      <trkpt lat="49.85206" lon="2.2874">
        <ele>94.1</ele>
        <time>2022-10-29T13:12:36Z</time>
      </trkpt>
      <trkpt lat="49.85206" lon="2.2874">
        <ele>94.1</ele>
        <time>2022-10-29T13:12:37Z</time>
      </trkpt>
      <trkpt lat="49.85206" lon="2.2874">
        <ele>94.2</ele>
        <time>2022-10-29T13:12:38Z</time>
      </trkpt>
      <trkpt lat="49.85206" lon="2.2874">
        <ele>94.2</ele>
        <time>2022-10-29T13:12:39Z</time>
      </trkpt>
      <trkpt lat="49.85206" lon="2.2874">
        <ele>94.2</ele>
        <time>2022-10-29T13:12:40Z</time>
      </trkpt>
      <trkpt lat="49.85206" lon="2.2874">
        <ele>94.2</ele>
        <time>2022-10-29T13:12:41Z</time>
      </trkpt>
      <trkpt lat="49.85206" lon="2.2874">
        <ele>94.2</ele>
        <time>2022-10-29T13:12:42Z</time>
      </trkpt>
      <trkpt lat="49.85206" lon="2.28741">
        <ele>94.2</ele>
        <time>2022-10-29T13:12:43Z</time>
      </trkpt>
      <trkpt lat="49.85206" lon="2.28741">
        <ele>94.2</ele>
        <time>2022-10-29T13:12:44Z</time>
      </trkpt>
      <trkpt lat="49.85206" lon="2.28741">
        <ele>94.2</ele>
        <time>2022-10-29T13:12:45Z</time>
      </trkpt>
      <trkpt lat="49.85206" lon="2.28741">
        <ele>94.2</ele>
        <time>2022-10-29T13:12:46Z</time>
      </trkpt>
      <trkpt lat="49.85206" lon="2.28741">
        <ele>94.2</ele>
        <time>2022-10-29T13:12:47Z</time>
      </trkpt>
      <trkpt lat="49.85206" lon="2.28741">
        <ele>94.2</ele>
        <time>2022-10-29T13:12:48Z</time>
      </trkpt>
      <trkpt lat="49.85206" lon="2.28741">
        <ele>94.2</ele>
        <time>2022-10-29T13:12:49Z</time>
      </trkpt>
      <trkpt lat="49.85206" lon="2.28741">
        <ele>94.2</ele>
        <time>2022-10-29T13:12:50Z</time>
      </trkpt>
      <trkpt lat="49.85206" lon="2.28741">
        <ele>94.2</ele>
        <time>2022-10-29T13:12:51Z</time>
      </trkpt>
      <trkpt lat="49.85206" lon="2.28741">
        <ele>94.2</ele>
        <time>2022-10-29T13:12:52Z</time>
      </trkpt>
      <trkpt lat="49.85206" lon="2.28741">
        <ele>94.2</ele>
        <time>2022-10-29T13:12:53Z</time>
      </trkpt>
      <trkpt lat="49.85206" lon="2.28741">
        <ele>94.2</ele>
        <time>2022-10-29T13:12:54Z</time>
      </trkpt>
      <trkpt lat="49.85206" lon="2.28741">
        <ele>94.2</ele>
        <time>2022-10-29T13:12:55Z</time>
      </trkpt>
      <trkpt lat="49.85206" lon="2.28741">
        <ele>94.2</ele>
        <time>2022-10-29T13:12:56Z</time>
      </trkpt>
      <trkpt lat="49.85206" lon="2.28741">
        <ele>94.2</ele>
        <time>2022-10-29T13:12:57Z</time>
      </trkpt>
      <trkpt lat="49.85206" lon="2.28741">
        <ele>94.2</ele>
        <time>2022-10-29T13:12:58Z</time>
      </trkpt>
      <trkpt lat="49.85206" lon="2.28741">
        <ele>94.2</ele>
        <time>2022-10-29T13:12:59Z</time>
      </trkpt>
      <trkpt lat="49.85206" lon="2.28741">
        <ele>94.2</ele>
        <time>2022-10-29T13:13:00Z</time>
      </trkpt>
      <trkpt lat="49.85206" lon="2.28741">
        <ele>94.2</ele>
        <time>2022-10-29T13:13:01Z</time>
      </trkpt>
      <trkpt lat="49.85206" lon="2.28741">
        <ele>94.2</ele>
        <time>2022-10-29T13:13:02Z</time>
      </trkpt>
      <trkpt lat="49.85206" lon="2.28741">
        <ele>94.2</ele>
        <time>2022-10-29T13:13:03Z</time>
      </trkpt>
      <trkpt lat="49.85206" lon="2.28741">
        <ele>94.2</ele>
        <time>2022-10-29T13:13:04Z</time>
      </trkpt>
      <trkpt lat="49.85206" lon="2.28741">
        <ele>94.2</ele>
        <time>2022-10-29T13:13:05Z</time>
      </trkpt>
      <trkpt lat="49.85206" lon="2.28741">
        <ele>94.2</ele>
        <time>2022-10-29T13:13:06Z</time>
      </trkpt>
      <trkpt lat="49.85206" lon="2.28741">
        <ele>94.2</ele>
        <time>2022-10-29T13:13:07Z</time>
      </trkpt>
      <trkpt lat="49.85206" lon="2.28741">
        <ele>94.2</ele>
        <time>2022-10-29T13:13:08Z</time>
      </trkpt>
      <trkpt lat="49.85205" lon="2.28742">
        <ele>94.3</ele>
        <time>2022-10-29T13:13:09Z</time>
      </trkpt>
      <trkpt lat="49.85205" lon="2.28743">
        <ele>94.4</ele>
        <time>2022-10-29T13:13:10Z</time>
      </trkpt>
      <trkpt lat="49.85205" lon="2.28743">
        <ele>94.4</ele>
        <time>2022-10-29T13:13:11Z</time>
      </trkpt>
      <trkpt lat="49.85204" lon="2.28742">
        <ele>94.4</ele>
        <time>2022-10-29T13:13:12Z</time>
      </trkpt>
      <trkpt lat="49.85205" lon="2.2874">
        <ele>94.5</ele>
        <time>2022-10-29T13:13:13Z</time>
      </trkpt>
      <trkpt lat="49.85205" lon="2.2874">
        <ele>94.5</ele>
        <time>2022-10-29T13:13:14Z</time>
      </trkpt>
      <trkpt lat="49.85205" lon="2.28738">
        <ele>94.6</ele>
        <time>2022-10-29T13:13:15Z</time>
      </trkpt>
      <trkpt lat="49.85205" lon="2.28736">
        <ele>94.7</ele>
        <time>2022-10-29T13:13:17Z</time>
      </trkpt>
      <trkpt lat="49.85206" lon="2.28733">
        <ele>94.8</ele>
        <time>2022-10-29T13:13:18Z</time>
      </trkpt>
      <trkpt lat="49.85206" lon="2.28731">
        <ele>94.9</ele>
        <time>2022-10-29T13:13:19Z</time>
      </trkpt>
      <trkpt lat="49.85206" lon="2.28729">
        <ele>95</ele>
        <time>2022-10-29T13:13:20Z</time>
      </trkpt>
      <trkpt lat="49.85207" lon="2.28727">
        <ele>95.1</ele>
        <time>2022-10-29T13:13:21Z</time>
      </trkpt>
      <trkpt lat="49.85207" lon="2.28723">
        <ele>95.3</ele>
        <time>2022-10-29T13:13:23Z</time>
      </trkpt>
      <trkpt lat="49.85207" lon="2.28722">
        <ele>95.3</ele>
        <time>2022-10-29T13:13:24Z</time>
      </trkpt>
      <trkpt lat="49.85207" lon="2.28721">
        <ele>95.4</ele>
        <time>2022-10-29T13:13:25Z</time>
      </trkpt>
      <trkpt lat="49.85207" lon="2.28719">
        <ele>95.4</ele>
        <time>2022-10-29T13:13:27Z</time>
      </trkpt>
      <trkpt lat="49.85208" lon="2.28717">
        <ele>95.5</ele>
        <time>2022-10-29T13:13:28Z</time>
      </trkpt>
      <trkpt lat="49.85208" lon="2.28715">
        <ele>95.6</ele>
        <time>2022-10-29T13:13:30Z</time>
      </trkpt>
      <trkpt lat="49.85208" lon="2.28714">
        <ele>95.7</ele>
        <time>2022-10-29T13:13:31Z</time>
      </trkpt>
      <trkpt lat="49.85208" lon="2.28712">
        <ele>95.7</ele>
        <time>2022-10-29T13:13:32Z</time>
      </trkpt>
      <trkpt lat="49.85208" lon="2.28711">
        <ele>95.8</ele>
        <time>2022-10-29T13:13:33Z</time>
      </trkpt>
      <trkpt lat="49.85209" lon="2.2871">
        <ele>95.8</ele>
        <time>2022-10-29T13:13:34Z</time>
      </trkpt>
      <trkpt lat="49.85209" lon="2.28708">
        <ele>95.9</ele>
        <time>2022-10-29T13:13:35Z</time>
      </trkpt>
      <trkpt lat="49.85209" lon="2.28707">
        <ele>95.9</ele>
        <time>2022-10-29T13:13:37Z</time>
      </trkpt>
      <trkpt lat="49.85209" lon="2.28706">
        <ele>96</ele>
        <time>2022-10-29T13:13:38Z</time>
      </trkpt>
      <trkpt lat="49.85209" lon="2.28705">
        <ele>96</ele>
        <time>2022-10-29T13:13:39Z</time>
      </trkpt>
      <trkpt lat="49.8521" lon="2.28704">
        <ele>96.1</ele>
        <time>2022-10-29T13:13:40Z</time>
      </trkpt>
      <trkpt lat="49.8521" lon="2.28702">
        <ele>96.1</ele>
        <time>2022-10-29T13:13:41Z</time>
      </trkpt>
      <trkpt lat="49.8521" lon="2.28701">
        <ele>96.2</ele>
        <time>2022-10-29T13:13:42Z</time>
      </trkpt>
      <trkpt lat="49.8521" lon="2.287">
        <ele>96.2</ele>
        <time>2022-10-29T13:13:44Z</time>
      </trkpt>
      <trkpt lat="49.8521" lon="2.28698">
        <ele>96.3</ele>
        <time>2022-10-29T13:13:45Z</time>
      </trkpt>
      <trkpt lat="49.8521" lon="2.28697">
        <ele>96.4</ele>
        <time>2022-10-29T13:13:46Z</time>
      </trkpt>
      <trkpt lat="49.8521" lon="2.28696">
        <ele>96.4</ele>
        <time>2022-10-29T13:13:47Z</time>
      </trkpt>
      <trkpt lat="49.85211" lon="2.28694">
        <ele>96.5</ele>
        <time>2022-10-29T13:13:48Z</time>
      </trkpt>
      <trkpt lat="49.85211" lon="2.28693">
        <ele>96.5</ele>
        <time>2022-10-29T13:13:49Z</time>
      </trkpt>
      <trkpt lat="49.85211" lon="2.28691">
        <ele>96.6</ele>
        <time>2022-10-29T13:13:50Z</time>
      </trkpt>
      <trkpt lat="49.85211" lon="2.2869">
        <ele>96.7</ele>
        <time>2022-10-29T13:13:51Z</time>
      </trkpt>
      <trkpt lat="49.85211" lon="2.28687">
        <ele>96.8</ele>
        <time>2022-10-29T13:13:53Z</time>
      </trkpt>
      <trkpt lat="49.85212" lon="2.28684">
        <ele>96.9</ele>
        <time>2022-10-29T13:13:54Z</time>
      </trkpt>
      <trkpt lat="49.85212" lon="2.28682">
        <ele>96.9</ele>
        <time>2022-10-29T13:13:56Z</time>
      </trkpt>
      <trkpt lat="49.85212" lon="2.28681">
        <ele>97</ele>
        <time>2022-10-29T13:13:57Z</time>
      </trkpt>
      <trkpt lat="49.85212" lon="2.28679">
        <ele>97.1</ele>
        <time>2022-10-29T13:13:58Z</time>
      </trkpt>
      <trkpt lat="49.85213" lon="2.28677">
        <ele>97.1</ele>
        <time>2022-10-29T13:13:59Z</time>
      </trkpt>
      <trkpt lat="49.85213" lon="2.28676">
        <ele>97.2</ele>
        <time>2022-10-29T13:14:01Z</time>
      </trkpt>
      <trkpt lat="49.85214" lon="2.28672">
        <ele>97.3</ele>
        <time>2022-10-29T13:14:02Z</time>
      </trkpt>
      <trkpt lat="49.85214" lon="2.28671">
        <ele>97.4</ele>
        <time>2022-10-29T13:14:04Z</time>
      </trkpt>
      <trkpt lat="49.85215" lon="2.28669">
        <ele>97.5</ele>
        <time>2022-10-29T13:14:05Z</time>
      </trkpt>
      <trkpt lat="49.85215" lon="2.28668">
        <ele>97.5</ele>
        <time>2022-10-29T13:14:06Z</time>
      </trkpt>
      <trkpt lat="49.85216" lon="2.28666">
        <ele>97.6</ele>
        <time>2022-10-29T13:14:08Z</time>
      </trkpt>
      <trkpt lat="49.85216" lon="2.28664">
        <ele>97.7</ele>
        <time>2022-10-29T13:14:09Z</time>
      </trkpt>
      <trkpt lat="49.85216" lon="2.28663">
        <ele>97.7</ele>
        <time>2022-10-29T13:14:10Z</time>
      </trkpt>
      <trkpt lat="49.85217" lon="2.28661">
        <ele>97.8</ele>
        <time>2022-10-29T13:14:11Z</time>
      </trkpt>
      <trkpt lat="49.85217" lon="2.28659">
        <ele>97.9</ele>
        <time>2022-10-29T13:14:13Z</time>
      </trkpt>
      <trkpt lat="49.85218" lon="2.28657">
        <ele>97.9</ele>
        <time>2022-10-29T13:14:15Z</time>
      </trkpt>
      <trkpt lat="49.85218" lon="2.28656">
        <ele>98</ele>
        <time>2022-10-29T13:14:16Z</time>
      </trkpt>
      <trkpt lat="49.85218" lon="2.28654">
        <ele>98.1</ele>
        <time>2022-10-29T13:14:17Z</time>
      </trkpt>
      <trkpt lat="49.85219" lon="2.28653">
        <ele>98.1</ele>
        <time>2022-10-29T13:14:18Z</time>
      </trkpt>
      <trkpt lat="49.85219" lon="2.28651">
        <ele>98.2</ele>
        <time>2022-10-29T13:14:20Z</time>
      </trkpt>
      <trkpt lat="49.85219" lon="2.2865">
        <ele>98.2</ele>
        <time>2022-10-29T13:14:21Z</time>
      </trkpt>
      <trkpt lat="49.8522" lon="2.28649">
        <ele>98.3</ele>
        <time>2022-10-29T13:14:22Z</time>
      </trkpt>
      <trkpt lat="49.8522" lon="2.28647">
        <ele>98.4</ele>
        <time>2022-10-29T13:14:23Z</time>
      </trkpt>
      <trkpt lat="49.85221" lon="2.28645">
        <ele>98.4</ele>
        <time>2022-10-29T13:14:25Z</time>
      </trkpt>
      <trkpt lat="49.85222" lon="2.28644">
        <ele>98.5</ele>
        <time>2022-10-29T13:14:26Z</time>
      </trkpt>
      <trkpt lat="49.85222" lon="2.28642">
        <ele>98.5</ele>
        <time>2022-10-29T13:14:27Z</time>
      </trkpt>
      <trkpt lat="49.85223" lon="2.2864">
        <ele>98.6</ele>
        <time>2022-10-29T13:14:28Z</time>
      </trkpt>
      <trkpt lat="49.85223" lon="2.28639">
        <ele>98.7</ele>
        <time>2022-10-29T13:14:29Z</time>
      </trkpt>
      <trkpt lat="49.85224" lon="2.28638">
        <ele>98.7</ele>
        <time>2022-10-29T13:14:31Z</time>
      </trkpt>
      <trkpt lat="49.85224" lon="2.28636">
        <ele>98.8</ele>
        <time>2022-10-29T13:14:32Z</time>
      </trkpt>
      <trkpt lat="49.85225" lon="2.28634">
        <ele>98.9</ele>
        <time>2022-10-29T13:14:33Z</time>
      </trkpt>
      <trkpt lat="49.85225" lon="2.28633">
        <ele>98.9</ele>
        <time>2022-10-29T13:14:35Z</time>
      </trkpt>
      <trkpt lat="49.85226" lon="2.28632">
        <ele>99</ele>
        <time>2022-10-29T13:14:36Z</time>
      </trkpt>
      <trkpt lat="49.85226" lon="2.2863">
        <ele>99.1</ele>
        <time>2022-10-29T13:14:37Z</time>
      </trkpt>
      <trkpt lat="49.85226" lon="2.28628">
        <ele>99.1</ele>
        <time>2022-10-29T13:14:38Z</time>
      </trkpt>
      <trkpt lat="49.85227" lon="2.28627">
        <ele>99.2</ele>
        <time>2022-10-29T13:14:40Z</time>
      </trkpt>
      <trkpt lat="49.85227" lon="2.28625">
        <ele>99.2</ele>
        <time>2022-10-29T13:14:41Z</time>
      </trkpt>
      <trkpt lat="49.85227" lon="2.28624">
        <ele>99.3</ele>
        <time>2022-10-29T13:14:42Z</time>
      </trkpt>
      <trkpt lat="49.85227" lon="2.2862">
        <ele>99.4</ele>
        <time>2022-10-29T13:14:43Z</time>
      </trkpt>
      <trkpt lat="49.85227" lon="2.28619">
        <ele>99.5</ele>
        <time>2022-10-29T13:14:44Z</time>
      </trkpt>
      <trkpt lat="49.85227" lon="2.28617">
        <ele>99.5</ele>
        <time>2022-10-29T13:14:46Z</time>
      </trkpt>
      <trkpt lat="49.85227" lon="2.28616">
        <ele>99.6</ele>
        <time>2022-10-29T13:14:47Z</time>
      </trkpt>
      <trkpt lat="49.85226" lon="2.28614">
        <ele>99.6</ele>
        <time>2022-10-29T13:14:48Z</time>
      </trkpt>
      <trkpt lat="49.85226" lon="2.28613">
        <ele>99.7</ele>
        <time>2022-10-29T13:14:49Z</time>
      </trkpt>
      <trkpt lat="49.85227" lon="2.2861">
        <ele>99.8</ele>
        <time>2022-10-29T13:14:50Z</time>
      </trkpt>
      <trkpt lat="49.85227" lon="2.28608">
        <ele>99.8</ele>
        <time>2022-10-29T13:14:52Z</time>
      </trkpt>
      <trkpt lat="49.85227" lon="2.28607">
        <ele>99.9</ele>
        <time>2022-10-29T13:14:53Z</time>
      </trkpt>
      <trkpt lat="49.85227" lon="2.28606">
        <ele>99.9</ele>
        <time>2022-10-29T13:14:54Z</time>
      </trkpt>
      <trkpt lat="49.85227" lon="2.28604">
        <ele>100</ele>
        <time>2022-10-29T13:14:55Z</time>
      </trkpt>
      <trkpt lat="49.85227" lon="2.28603">
        <ele>100</ele>
        <time>2022-10-29T13:14:57Z</time>
      </trkpt>
      <trkpt lat="49.85228" lon="2.28601">
        <ele>100.1</ele>
        <time>2022-10-29T13:14:58Z</time>
      </trkpt>
      <trkpt lat="49.85228" lon="2.28599">
        <ele>100.2</ele>
        <time>2022-10-29T13:14:59Z</time>
      </trkpt>
      <trkpt lat="49.85228" lon="2.28598">
        <ele>100.2</ele>
        <time>2022-10-29T13:15:00Z</time>
      </trkpt>
      <trkpt lat="49.85228" lon="2.28596">
        <ele>100.3</ele>
        <time>2022-10-29T13:15:02Z</time>
      </trkpt>
      <trkpt lat="49.85228" lon="2.28594">
        <ele>100.3</ele>
        <time>2022-10-29T13:15:03Z</time>
      </trkpt>
      <trkpt lat="49.85228" lon="2.28592">
        <ele>100.4</ele>
        <time>2022-10-29T13:15:04Z</time>
      </trkpt>
      <trkpt lat="49.85229" lon="2.28591">
        <ele>100.4</ele>
        <time>2022-10-29T13:15:05Z</time>
      </trkpt>
      <trkpt lat="49.85229" lon="2.28589">
        <ele>100.5</ele>
        <time>2022-10-29T13:15:07Z</time>
      </trkpt>
      <trkpt lat="49.85229" lon="2.28588">
        <ele>100.5</ele>
        <time>2022-10-29T13:15:08Z</time>
      </trkpt>
      <trkpt lat="49.8523" lon="2.28586">
        <ele>100.6</ele>
        <time>2022-10-29T13:15:09Z</time>
      </trkpt>
      <trkpt lat="49.8523" lon="2.28585">
        <ele>100.6</ele>
        <time>2022-10-29T13:15:10Z</time>
      </trkpt>
      <trkpt lat="49.8523" lon="2.28583">
        <ele>100.7</ele>
        <time>2022-10-29T13:15:11Z</time>
      </trkpt>
      <trkpt lat="49.8523" lon="2.2858">
        <ele>100.8</ele>
        <time>2022-10-29T13:15:12Z</time>
      </trkpt>
      <trkpt lat="49.85231" lon="2.28578">
        <ele>100.9</ele>
        <time>2022-10-29T13:15:13Z</time>
      </trkpt>
      <trkpt lat="49.85231" lon="2.28576">
        <ele>100.9</ele>
        <time>2022-10-29T13:15:15Z</time>
      </trkpt>
      <trkpt lat="49.85231" lon="2.28575">
        <ele>101</ele>
        <time>2022-10-29T13:15:16Z</time>
      </trkpt>
      <trkpt lat="49.85231" lon="2.28573">
        <ele>101</ele>
        <time>2022-10-29T13:15:17Z</time>
      </trkpt>
      <trkpt lat="49.85231" lon="2.28572">
        <ele>101.1</ele>
        <time>2022-10-29T13:15:18Z</time>
      </trkpt>
      <trkpt lat="49.85231" lon="2.2857">
        <ele>101.1</ele>
        <time>2022-10-29T13:15:19Z</time>
      </trkpt>
      <trkpt lat="49.85232" lon="2.28569">
        <ele>101.1</ele>
        <time>2022-10-29T13:15:21Z</time>
      </trkpt>
      <trkpt lat="49.85232" lon="2.28567">
        <ele>101.2</ele>
        <time>2022-10-29T13:15:22Z</time>
      </trkpt>
      <trkpt lat="49.85232" lon="2.28564">
        <ele>101.3</ele>
        <time>2022-10-29T13:15:23Z</time>
      </trkpt>
      <trkpt lat="49.85233" lon="2.28563">
        <ele>101.3</ele>
        <time>2022-10-29T13:15:24Z</time>
      </trkpt>
      <trkpt lat="49.85233" lon="2.28562">
        <ele>101.3</ele>
        <time>2022-10-29T13:15:25Z</time>
      </trkpt>
      <trkpt lat="49.85233" lon="2.2856">
        <ele>101.4</ele>
        <time>2022-10-29T13:15:27Z</time>
      </trkpt>
      <trkpt lat="49.85233" lon="2.28559">
        <ele>101.4</ele>
        <time>2022-10-29T13:15:28Z</time>
      </trkpt>
      <trkpt lat="49.85233" lon="2.28557">
        <ele>101.5</ele>
        <time>2022-10-29T13:15:29Z</time>
      </trkpt>
      <trkpt lat="49.85234" lon="2.28556">
        <ele>101.5</ele>
        <time>2022-10-29T13:15:30Z</time>
      </trkpt>
      <trkpt lat="49.85234" lon="2.28554">
        <ele>101.6</ele>
        <time>2022-10-29T13:15:31Z</time>
      </trkpt>
      <trkpt lat="49.85234" lon="2.28552">
        <ele>101.6</ele>
        <time>2022-10-29T13:15:32Z</time>
      </trkpt>
      <trkpt lat="49.85234" lon="2.28551">
        <ele>101.6</ele>
        <time>2022-10-29T13:15:33Z</time>
      </trkpt>
      <trkpt lat="49.85235" lon="2.28549">
        <ele>101.7</ele>
        <time>2022-10-29T13:15:34Z</time>
      </trkpt>
      <trkpt lat="49.85235" lon="2.28547">
        <ele>101.7</ele>
        <time>2022-10-29T13:15:35Z</time>
      </trkpt>
      <trkpt lat="49.85236" lon="2.28546">
        <ele>101.8</ele>
        <time>2022-10-29T13:15:36Z</time>
      </trkpt>
      <trkpt lat="49.85236" lon="2.28545">
        <ele>101.8</ele>
        <time>2022-10-29T13:15:38Z</time>
      </trkpt>
      <trkpt lat="49.85236" lon="2.28543">
        <ele>101.9</ele>
        <time>2022-10-29T13:15:39Z</time>
      </trkpt>
      <trkpt lat="49.85237" lon="2.28541">
        <ele>101.9</ele>
        <time>2022-10-29T13:15:40Z</time>
      </trkpt>
      <trkpt lat="49.85237" lon="2.2854">
        <ele>101.9</ele>
        <time>2022-10-29T13:15:41Z</time>
      </trkpt>
      <trkpt lat="49.85238" lon="2.28538">
        <ele>102</ele>
        <time>2022-10-29T13:15:42Z</time>
      </trkpt>
      <trkpt lat="49.85238" lon="2.28537">
        <ele>102</ele>
        <time>2022-10-29T13:15:44Z</time>
      </trkpt>
      <trkpt lat="49.85238" lon="2.28536">
        <ele>102.1</ele>
        <time>2022-10-29T13:15:45Z</time>
      </trkpt>
      <trkpt lat="49.85239" lon="2.28534">
        <ele>102.1</ele>
        <time>2022-10-29T13:15:46Z</time>
      </trkpt>
      <trkpt lat="49.85239" lon="2.28532">
        <ele>102.2</ele>
        <time>2022-10-29T13:15:47Z</time>
      </trkpt>
      <trkpt lat="49.8524" lon="2.2853">
        <ele>102.2</ele>
        <time>2022-10-29T13:15:48Z</time>
      </trkpt>
      <trkpt lat="49.8524" lon="2.28528">
        <ele>102.3</ele>
        <time>2022-10-29T13:15:50Z</time>
      </trkpt>
      <trkpt lat="49.85241" lon="2.28525">
        <ele>102.3</ele>
        <time>2022-10-29T13:15:51Z</time>
      </trkpt>
      <trkpt lat="49.85241" lon="2.28524">
        <ele>102.4</ele>
        <time>2022-10-29T13:15:52Z</time>
      </trkpt>
      <trkpt lat="49.85241" lon="2.28523">
        <ele>102.4</ele>
        <time>2022-10-29T13:15:53Z</time>
      </trkpt>
      <trkpt lat="49.85241" lon="2.28521">
        <ele>102.5</ele>
        <time>2022-10-29T13:15:54Z</time>
      </trkpt>
      <trkpt lat="49.85241" lon="2.2852">
        <ele>102.5</ele>
        <time>2022-10-29T13:15:56Z</time>
      </trkpt>
      <trkpt lat="49.85242" lon="2.28518">
        <ele>102.5</ele>
        <time>2022-10-29T13:15:57Z</time>
      </trkpt>
      <trkpt lat="49.85242" lon="2.28517">
        <ele>102.6</ele>
        <time>2022-10-29T13:15:58Z</time>
      </trkpt>
      <trkpt lat="49.85242" lon="2.28515">
        <ele>102.6</ele>
        <time>2022-10-29T13:15:59Z</time>
      </trkpt>
      <trkpt lat="49.85242" lon="2.28513">
        <ele>102.7</ele>
        <time>2022-10-29T13:16:00Z</time>
      </trkpt>
      <trkpt lat="49.85242" lon="2.28511">
        <ele>102.7</ele>
        <time>2022-10-29T13:16:01Z</time>
      </trkpt>
      <trkpt lat="49.85243" lon="2.2851">
        <ele>102.8</ele>
        <time>2022-10-29T13:16:02Z</time>
      </trkpt>
      <trkpt lat="49.85243" lon="2.28508">
        <ele>102.8</ele>
        <time>2022-10-29T13:16:04Z</time>
      </trkpt>
      <trkpt lat="49.85243" lon="2.28506">
        <ele>102.8</ele>
        <time>2022-10-29T13:16:05Z</time>
      </trkpt>
      <trkpt lat="49.85243" lon="2.28505">
        <ele>102.9</ele>
        <time>2022-10-29T13:16:06Z</time>
      </trkpt>
      <trkpt lat="49.85244" lon="2.28503">
        <ele>102.9</ele>
        <time>2022-10-29T13:16:07Z</time>
      </trkpt>
      <trkpt lat="49.85244" lon="2.28501">
        <ele>103</ele>
        <time>2022-10-29T13:16:09Z</time>
      </trkpt>
      <trkpt lat="49.85244" lon="2.28499">
        <ele>103</ele>
        <time>2022-10-29T13:16:10Z</time>
      </trkpt>
      <trkpt lat="49.85244" lon="2.28498">
        <ele>103.1</ele>
        <time>2022-10-29T13:16:11Z</time>
      </trkpt>
      <trkpt lat="49.85244" lon="2.28496">
        <ele>103.1</ele>
        <time>2022-10-29T13:16:12Z</time>
      </trkpt>
      <trkpt lat="49.85245" lon="2.28494">
        <ele>103.2</ele>
        <time>2022-10-29T13:16:13Z</time>
      </trkpt>
      <trkpt lat="49.85245" lon="2.28492">
        <ele>103.2</ele>
        <time>2022-10-29T13:16:14Z</time>
      </trkpt>
      <trkpt lat="49.85245" lon="2.28491">
        <ele>103.2</ele>
        <time>2022-10-29T13:16:16Z</time>
      </trkpt>
      <trkpt lat="49.85245" lon="2.2849">
        <ele>103.3</ele>
        <time>2022-10-29T13:16:17Z</time>
      </trkpt>
      <trkpt lat="49.85246" lon="2.28488">
        <ele>103.3</ele>
        <time>2022-10-29T13:16:18Z</time>
      </trkpt>
      <trkpt lat="49.85246" lon="2.28487">
        <ele>103.3</ele>
        <time>2022-10-29T13:16:19Z</time>
      </trkpt>
      <trkpt lat="49.85246" lon="2.28486">
        <ele>103.4</ele>
        <time>2022-10-29T13:16:20Z</time>
      </trkpt>
      <trkpt lat="49.85247" lon="2.28484">
        <ele>103.4</ele>
        <time>2022-10-29T13:16:22Z</time>
      </trkpt>
      <trkpt lat="49.85247" lon="2.28483">
        <ele>103.4</ele>
        <time>2022-10-29T13:16:23Z</time>
      </trkpt>
      <trkpt lat="49.85247" lon="2.28481">
        <ele>103.5</ele>
        <time>2022-10-29T13:16:24Z</time>
      </trkpt>
      <trkpt lat="49.85248" lon="2.28479">
        <ele>103.5</ele>
        <time>2022-10-29T13:16:25Z</time>
      </trkpt>
      <trkpt lat="49.85248" lon="2.28477">
        <ele>103.6</ele>
        <time>2022-10-29T13:16:26Z</time>
      </trkpt>
      <trkpt lat="49.85248" lon="2.28476">
        <ele>103.6</ele>
        <time>2022-10-29T13:16:27Z</time>
      </trkpt>
      <trkpt lat="49.85248" lon="2.28474">
        <ele>103.7</ele>
        <time>2022-10-29T13:16:29Z</time>
      </trkpt>
      <trkpt lat="49.85249" lon="2.28471">
        <ele>103.8</ele>
        <time>2022-10-29T13:16:30Z</time>
      </trkpt>
      <trkpt lat="49.85249" lon="2.28469">
        <ele>103.8</ele>
        <time>2022-10-29T13:16:31Z</time>
      </trkpt>
      <trkpt lat="49.85249" lon="2.28468">
        <ele>103.8</ele>
        <time>2022-10-29T13:16:32Z</time>
      </trkpt>
      <trkpt lat="49.8525" lon="2.28466">
        <ele>103.9</ele>
        <time>2022-10-29T13:16:33Z</time>
      </trkpt>
      <trkpt lat="49.8525" lon="2.28464">
        <ele>103.9</ele>
        <time>2022-10-29T13:16:35Z</time>
      </trkpt>
      <trkpt lat="49.8525" lon="2.28463">
        <ele>103.9</ele>
        <time>2022-10-29T13:16:36Z</time>
      </trkpt>
      <trkpt lat="49.8525" lon="2.28462">
        <ele>104</ele>
        <time>2022-10-29T13:16:37Z</time>
      </trkpt>
      <trkpt lat="49.85251" lon="2.2846">
        <ele>104</ele>
        <time>2022-10-29T13:16:38Z</time>
      </trkpt>
      <trkpt lat="49.85251" lon="2.28458">
        <ele>104.1</ele>
        <time>2022-10-29T13:16:39Z</time>
      </trkpt>
      <trkpt lat="49.85251" lon="2.28456">
        <ele>104.1</ele>
        <time>2022-10-29T13:16:40Z</time>
      </trkpt>
      <trkpt lat="49.85252" lon="2.28455">
        <ele>104.2</ele>
        <time>2022-10-29T13:16:41Z</time>
      </trkpt>
      <trkpt lat="49.85252" lon="2.28453">
        <ele>104.2</ele>
        <time>2022-10-29T13:16:43Z</time>
      </trkpt>
      <trkpt lat="49.85253" lon="2.28451">
        <ele>104.2</ele>
        <time>2022-10-29T13:16:44Z</time>
      </trkpt>
      <trkpt lat="49.85253" lon="2.2845">
        <ele>104.3</ele>
        <time>2022-10-29T13:16:45Z</time>
      </trkpt>
      <trkpt lat="49.85253" lon="2.28449">
        <ele>104.3</ele>
        <time>2022-10-29T13:16:46Z</time>
      </trkpt>
      <trkpt lat="49.85253" lon="2.28447">
        <ele>104.3</ele>
        <time>2022-10-29T13:16:47Z</time>
      </trkpt>
      <trkpt lat="49.85254" lon="2.28444">
        <ele>104.4</ele>
        <time>2022-10-29T13:16:48Z</time>
      </trkpt>
      <trkpt lat="49.85254" lon="2.28443">
        <ele>104.5</ele>
        <time>2022-10-29T13:16:50Z</time>
      </trkpt>
      <trkpt lat="49.85254" lon="2.28441">
        <ele>104.5</ele>
        <time>2022-10-29T13:16:51Z</time>
      </trkpt>
      <trkpt lat="49.85254" lon="2.2844">
        <ele>104.6</ele>
        <time>2022-10-29T13:16:52Z</time>
      </trkpt>
      <trkpt lat="49.85255" lon="2.28436">
        <ele>104.7</ele>
        <time>2022-10-29T13:16:54Z</time>
      </trkpt>
      <trkpt lat="49.85255" lon="2.28435">
        <ele>104.7</ele>
        <time>2022-10-29T13:16:55Z</time>
      </trkpt>
      <trkpt lat="49.85255" lon="2.28434">
        <ele>104.7</ele>
        <time>2022-10-29T13:16:56Z</time>
      </trkpt>
      <trkpt lat="49.85255" lon="2.28432">
        <ele>104.8</ele>
        <time>2022-10-29T13:16:57Z</time>
      </trkpt>
      <trkpt lat="49.85255" lon="2.28431">
        <ele>104.8</ele>
        <time>2022-10-29T13:16:58Z</time>
      </trkpt>
      <trkpt lat="49.85256" lon="2.28429">
        <ele>104.9</ele>
        <time>2022-10-29T13:16:59Z</time>
      </trkpt>
      <trkpt lat="49.85256" lon="2.28428">
        <ele>104.9</ele>
        <time>2022-10-29T13:17:00Z</time>
      </trkpt>
      <trkpt lat="49.85256" lon="2.28426">
        <ele>104.9</ele>
        <time>2022-10-29T13:17:01Z</time>
      </trkpt>
      <trkpt lat="49.85256" lon="2.28424">
        <ele>105</ele>
        <time>2022-10-29T13:17:02Z</time>
      </trkpt>
      <trkpt lat="49.85257" lon="2.28421">
        <ele>105.1</ele>
        <time>2022-10-29T13:17:03Z</time>
      </trkpt>
      <trkpt lat="49.85257" lon="2.2842">
        <ele>105.1</ele>
        <time>2022-10-29T13:17:05Z</time>
      </trkpt>
      <trkpt lat="49.85257" lon="2.28419">
        <ele>105.1</ele>
        <time>2022-10-29T13:17:06Z</time>
      </trkpt>
      <trkpt lat="49.85258" lon="2.28417">
        <ele>105.1</ele>
        <time>2022-10-29T13:17:07Z</time>
      </trkpt>
      <trkpt lat="49.85258" lon="2.28415">
        <ele>105.1</ele>
        <time>2022-10-29T13:17:08Z</time>
      </trkpt>
      <trkpt lat="49.85258" lon="2.28415">
        <ele>105.1</ele>
        <time>2022-10-29T13:17:10Z</time>
      </trkpt>
      <trkpt lat="49.85258" lon="2.28413">
        <ele>105.1</ele>
        <time>2022-10-29T13:17:11Z</time>
      </trkpt>
      <trkpt lat="49.85258" lon="2.28412">
        <ele>105.1</ele>
        <time>2022-10-29T13:17:12Z</time>
      </trkpt>
      <trkpt lat="49.85258" lon="2.28411">
        <ele>105.1</ele>
        <time>2022-10-29T13:17:13Z</time>
      </trkpt>
      <trkpt lat="49.85257" lon="2.28409">
        <ele>105.1</ele>
        <time>2022-10-29T13:17:14Z</time>
      </trkpt>
      <trkpt lat="49.85257" lon="2.28408">
        <ele>105.1</ele>
        <time>2022-10-29T13:17:15Z</time>
      </trkpt>
      <trkpt lat="49.85257" lon="2.28406">
        <ele>105.1</ele>
        <time>2022-10-29T13:17:17Z</time>
      </trkpt>
      <trkpt lat="49.85256" lon="2.28405">
        <ele>105.2</ele>
        <time>2022-10-29T13:17:18Z</time>
      </trkpt>
      <trkpt lat="49.85256" lon="2.28404">
        <ele>105.2</ele>
        <time>2022-10-29T13:17:19Z</time>
      </trkpt>
      <trkpt lat="49.85256" lon="2.28403">
        <ele>105.2</ele>
        <time>2022-10-29T13:17:20Z</time>
      </trkpt>
      <trkpt lat="49.85255" lon="2.28402">
        <ele>105.3</ele>
        <time>2022-10-29T13:17:21Z</time>
      </trkpt>
      <trkpt lat="49.85255" lon="2.28402">
        <ele>105.3</ele>
        <time>2022-10-29T13:17:22Z</time>
      </trkpt>
      <trkpt lat="49.85254" lon="2.28401">
        <ele>105.3</ele>
        <time>2022-10-29T13:17:23Z</time>
      </trkpt>
      <trkpt lat="49.85254" lon="2.28401">
        <ele>105.4</ele>
        <time>2022-10-29T13:17:25Z</time>
      </trkpt>
      <trkpt lat="49.85253" lon="2.28402">
        <ele>105.4</ele>
        <time>2022-10-29T13:17:26Z</time>
      </trkpt>
      <trkpt lat="49.85253" lon="2.28402">
        <ele>105.4</ele>
        <time>2022-10-29T13:17:27Z</time>
      </trkpt>
      <trkpt lat="49.85253" lon="2.28402">
        <ele>105.4</ele>
        <time>2022-10-29T13:17:28Z</time>
      </trkpt>
      <trkpt lat="49.85253" lon="2.28402">
        <ele>105.4</ele>
        <time>2022-10-29T13:17:30Z</time>
      </trkpt>
      <trkpt lat="49.85253" lon="2.28403">
        <ele>105.4</ele>
        <time>2022-10-29T13:17:31Z</time>
      </trkpt>
      <trkpt lat="49.85253" lon="2.28403">
        <ele>105.4</ele>
        <time>2022-10-29T13:17:32Z</time>
      </trkpt>
      <trkpt lat="49.85253" lon="2.28403">
        <ele>105.4</ele>
        <time>2022-10-29T13:17:33Z</time>
      </trkpt>
      <trkpt lat="49.85253" lon="2.28403">
        <ele>105.4</ele>
        <time>2022-10-29T13:17:34Z</time>
      </trkpt>
      <trkpt lat="49.85253" lon="2.28403">
        <ele>105.4</ele>
        <time>2022-10-29T13:17:35Z</time>
      </trkpt>
      <trkpt lat="49.85253" lon="2.28403">
        <ele>105.4</ele>
        <time>2022-10-29T13:17:36Z</time>
      </trkpt>
      <trkpt lat="49.85253" lon="2.28403">
        <ele>105.4</ele>
        <time>2022-10-29T13:17:37Z</time>
      </trkpt>
      <trkpt lat="49.85253" lon="2.28403">
        <ele>105.4</ele>
        <time>2022-10-29T13:17:38Z</time>
      </trkpt>
      <trkpt lat="49.85253" lon="2.28403">
        <ele>105.5</ele>
        <time>2022-10-29T13:17:39Z</time>
      </trkpt>
      <trkpt lat="49.85254" lon="2.28403">
        <ele>105.5</ele>
        <time>2022-10-29T13:17:40Z</time>
      </trkpt>
      <trkpt lat="49.85254" lon="2.28403">
        <ele>105.5</ele>
        <time>2022-10-29T13:17:41Z</time>
      </trkpt>
      <trkpt lat="49.85254" lon="2.28403">
        <ele>105.5</ele>
        <time>2022-10-29T13:17:42Z</time>
      </trkpt>
      <trkpt lat="49.85254" lon="2.28403">
        <ele>105.5</ele>
        <time>2022-10-29T13:17:43Z</time>
      </trkpt>
      <trkpt lat="49.85254" lon="2.28403">
        <ele>105.5</ele>
        <time>2022-10-29T13:17:44Z</time>
      </trkpt>
      <trkpt lat="49.85254" lon="2.28403">
        <ele>105.5</ele>
        <time>2022-10-29T13:17:45Z</time>
      </trkpt>
      <trkpt lat="49.85254" lon="2.28403">
        <ele>105.5</ele>
        <time>2022-10-29T13:17:46Z</time>
      </trkpt>
      <trkpt lat="49.85254" lon="2.28403">
        <ele>105.5</ele>
        <time>2022-10-29T13:17:47Z</time>
      </trkpt>
      <trkpt lat="49.85254" lon="2.28403">
        <ele>105.5</ele>
        <time>2022-10-29T13:17:48Z</time>
      </trkpt>
      <trkpt lat="49.85254" lon="2.28403">
        <ele>105.5</ele>
        <time>2022-10-29T13:17:49Z</time>
      </trkpt>
      <trkpt lat="49.85253" lon="2.28402">
        <ele>105.5</ele>
        <time>2022-10-29T13:17:50Z</time>
      </trkpt>
      <trkpt lat="49.85254" lon="2.28402">
        <ele>105.5</ele>
        <time>2022-10-29T13:17:51Z</time>
      </trkpt>
      <trkpt lat="49.85254" lon="2.28402">
        <ele>105.5</ele>
        <time>2022-10-29T13:17:52Z</time>
      </trkpt>
      <trkpt lat="49.85254" lon="2.28401">
        <ele>105.6</ele>
        <time>2022-10-29T13:17:53Z</time>
      </trkpt>
      <trkpt lat="49.85254" lon="2.28399">
        <ele>105.6</ele>
        <time>2022-10-29T13:17:54Z</time>
      </trkpt>
      <trkpt lat="49.85255" lon="2.28399">
        <ele>105.6</ele>
        <time>2022-10-29T13:17:55Z</time>
      </trkpt>
      <trkpt lat="49.85255" lon="2.28397">
        <ele>105.7</ele>
        <time>2022-10-29T13:17:56Z</time>
      </trkpt>
      <trkpt lat="49.85256" lon="2.28396">
        <ele>105.7</ele>
        <time>2022-10-29T13:17:57Z</time>
      </trkpt>
      <trkpt lat="49.85256" lon="2.28394">
        <ele>105.8</ele>
        <time>2022-10-29T13:17:58Z</time>
      </trkpt>
      <trkpt lat="49.85256" lon="2.2839">
        <ele>105.9</ele>
        <time>2022-10-29T13:18:00Z</time>
      </trkpt>
      <trkpt lat="49.85256" lon="2.28389">
        <ele>105.9</ele>
        <time>2022-10-29T13:18:01Z</time>
      </trkpt>
      <trkpt lat="49.85257" lon="2.28388">
        <ele>106</ele>
        <time>2022-10-29T13:18:02Z</time>
      </trkpt>
      <trkpt lat="49.85257" lon="2.28386">
        <ele>106</ele>
        <time>2022-10-29T13:18:03Z</time>
      </trkpt>
      <trkpt lat="49.85258" lon="2.28384">
        <ele>106.1</ele>
        <time>2022-10-29T13:18:04Z</time>
      </trkpt>
      <trkpt lat="49.85258" lon="2.28383">
        <ele>106.2</ele>
        <time>2022-10-29T13:18:06Z</time>
      </trkpt>
      <trkpt lat="49.85258" lon="2.28381">
        <ele>106.2</ele>
        <time>2022-10-29T13:18:07Z</time>
      </trkpt>
      <trkpt lat="49.85259" lon="2.2838">
        <ele>106.2</ele>
        <time>2022-10-29T13:18:08Z</time>
      </trkpt>
      <trkpt lat="49.85259" lon="2.28379">
        <ele>106.3</ele>
        <time>2022-10-29T13:18:09Z</time>
      </trkpt>
      <trkpt lat="49.8526" lon="2.28376">
        <ele>106.4</ele>
        <time>2022-10-29T13:18:10Z</time>
      </trkpt>
      <trkpt lat="49.8526" lon="2.28374">
        <ele>106.4</ele>
        <time>2022-10-29T13:18:11Z</time>
      </trkpt>
      <trkpt lat="49.8526" lon="2.28373">
        <ele>106.5</ele>
        <time>2022-10-29T13:18:12Z</time>
      </trkpt>
      <trkpt lat="49.85261" lon="2.28371">
        <ele>106.5</ele>
        <time>2022-10-29T13:18:13Z</time>
      </trkpt>
      <trkpt lat="49.85261" lon="2.28369">
        <ele>106.6</ele>
        <time>2022-10-29T13:18:14Z</time>
      </trkpt>
      <trkpt lat="49.85261" lon="2.28368">
        <ele>106.6</ele>
        <time>2022-10-29T13:18:15Z</time>
      </trkpt>
      <trkpt lat="49.85262" lon="2.28366">
        <ele>106.7</ele>
        <time>2022-10-29T13:18:17Z</time>
      </trkpt>
      <trkpt lat="49.85262" lon="2.28364">
        <ele>106.7</ele>
        <time>2022-10-29T13:18:18Z</time>
      </trkpt>
      <trkpt lat="49.85263" lon="2.28362">
        <ele>106.8</ele>
        <time>2022-10-29T13:18:19Z</time>
      </trkpt>
      <trkpt lat="49.85263" lon="2.2836">
        <ele>106.9</ele>
        <time>2022-10-29T13:18:20Z</time>
      </trkpt>
      <trkpt lat="49.85263" lon="2.28358">
        <ele>107</ele>
        <time>2022-10-29T13:18:21Z</time>
      </trkpt>
      <trkpt lat="49.85263" lon="2.28357">
        <ele>107</ele>
        <time>2022-10-29T13:18:23Z</time>
      </trkpt>
      <trkpt lat="49.85264" lon="2.28356">
        <ele>107</ele>
        <time>2022-10-29T13:18:24Z</time>
      </trkpt>
      <trkpt lat="49.85264" lon="2.28355">
        <ele>107.1</ele>
        <time>2022-10-29T13:18:25Z</time>
      </trkpt>
      <trkpt lat="49.85264" lon="2.28353">
        <ele>107.1</ele>
        <time>2022-10-29T13:18:26Z</time>
      </trkpt>
      <trkpt lat="49.85264" lon="2.28351">
        <ele>107.2</ele>
        <time>2022-10-29T13:18:27Z</time>
      </trkpt>
      <trkpt lat="49.85264" lon="2.2835">
        <ele>107.2</ele>
        <time>2022-10-29T13:18:29Z</time>
      </trkpt>
      <trkpt lat="49.85265" lon="2.28348">
        <ele>107.3</ele>
        <time>2022-10-29T13:18:30Z</time>
      </trkpt>
      <trkpt lat="49.85265" lon="2.28347">
        <ele>107.3</ele>
        <time>2022-10-29T13:18:31Z</time>
      </trkpt>
      <trkpt lat="49.85265" lon="2.28346">
        <ele>107.3</ele>
        <time>2022-10-29T13:18:32Z</time>
      </trkpt>
      <trkpt lat="49.85266" lon="2.28345">
        <ele>107.4</ele>
        <time>2022-10-29T13:18:33Z</time>
      </trkpt>
      <trkpt lat="49.85266" lon="2.28343">
        <ele>107.4</ele>
        <time>2022-10-29T13:18:34Z</time>
      </trkpt>
      <trkpt lat="49.85266" lon="2.28341">
        <ele>107.5</ele>
        <time>2022-10-29T13:18:35Z</time>
      </trkpt>
      <trkpt lat="49.85267" lon="2.2834">
        <ele>107.5</ele>
        <time>2022-10-29T13:18:36Z</time>
      </trkpt>
      <trkpt lat="49.85267" lon="2.28338">
        <ele>107.6</ele>
        <time>2022-10-29T13:18:37Z</time>
      </trkpt>
      <trkpt lat="49.85268" lon="2.28336">
        <ele>107.6</ele>
        <time>2022-10-29T13:18:38Z</time>
      </trkpt>
      <trkpt lat="49.85269" lon="2.28332">
        <ele>107.8</ele>
        <time>2022-10-29T13:18:39Z</time>
      </trkpt>
      <trkpt lat="49.85269" lon="2.2833">
        <ele>107.8</ele>
        <time>2022-10-29T13:18:41Z</time>
      </trkpt>
      <trkpt lat="49.85269" lon="2.28329">
        <ele>107.9</ele>
        <time>2022-10-29T13:18:42Z</time>
      </trkpt>
      <trkpt lat="49.8527" lon="2.28327">
        <ele>107.9</ele>
        <time>2022-10-29T13:18:43Z</time>
      </trkpt>
      <trkpt lat="49.8527" lon="2.28326">
        <ele>108</ele>
        <time>2022-10-29T13:18:44Z</time>
      </trkpt>
      <trkpt lat="49.85271" lon="2.28325">
        <ele>108</ele>
        <time>2022-10-29T13:18:45Z</time>
      </trkpt>
      <trkpt lat="49.85271" lon="2.28323">
        <ele>108</ele>
        <time>2022-10-29T13:18:47Z</time>
      </trkpt>
      <trkpt lat="49.85272" lon="2.28321">
        <ele>108.1</ele>
        <time>2022-10-29T13:18:48Z</time>
      </trkpt>
      <trkpt lat="49.85272" lon="2.28318">
        <ele>108.2</ele>
        <time>2022-10-29T13:18:49Z</time>
      </trkpt>
      <trkpt lat="49.85273" lon="2.28317">
        <ele>108.2</ele>
        <time>2022-10-29T13:18:50Z</time>
      </trkpt>
      <trkpt lat="49.85273" lon="2.28316">
        <ele>108.2</ele>
        <time>2022-10-29T13:18:51Z</time>
      </trkpt>
      <trkpt lat="49.85274" lon="2.28313">
        <ele>108.3</ele>
        <time>2022-10-29T13:18:52Z</time>
      </trkpt>
      <trkpt lat="49.85274" lon="2.28312">
        <ele>108.4</ele>
        <time>2022-10-29T13:18:54Z</time>
      </trkpt>
      <trkpt lat="49.85274" lon="2.28311">
        <ele>108.4</ele>
        <time>2022-10-29T13:18:55Z</time>
      </trkpt>
      <trkpt lat="49.85274" lon="2.28309">
        <ele>108.4</ele>
        <time>2022-10-29T13:18:56Z</time>
      </trkpt>
      <trkpt lat="49.85275" lon="2.28308">
        <ele>108.5</ele>
        <time>2022-10-29T13:18:57Z</time>
      </trkpt>
      <trkpt lat="49.85275" lon="2.28306">
        <ele>108.5</ele>
        <time>2022-10-29T13:18:59Z</time>
      </trkpt>
      <trkpt lat="49.85275" lon="2.28305">
        <ele>108.6</ele>
        <time>2022-10-29T13:19:00Z</time>
      </trkpt>
      <trkpt lat="49.85275" lon="2.28303">
        <ele>108.6</ele>
        <time>2022-10-29T13:19:01Z</time>
      </trkpt>
      <trkpt lat="49.85276" lon="2.28302">
        <ele>108.7</ele>
        <time>2022-10-29T13:19:02Z</time>
      </trkpt>
      <trkpt lat="49.85276" lon="2.283">
        <ele>108.7</ele>
        <time>2022-10-29T13:19:04Z</time>
      </trkpt>
      <trkpt lat="49.85276" lon="2.28298">
        <ele>108.8</ele>
        <time>2022-10-29T13:19:05Z</time>
      </trkpt>
      <trkpt lat="49.85276" lon="2.28297">
        <ele>108.8</ele>
        <time>2022-10-29T13:19:06Z</time>
      </trkpt>
      <trkpt lat="49.85276" lon="2.28295">
        <ele>108.8</ele>
        <time>2022-10-29T13:19:07Z</time>
      </trkpt>
      <trkpt lat="49.85276" lon="2.28293">
        <ele>108.9</ele>
        <time>2022-10-29T13:19:08Z</time>
      </trkpt>
      <trkpt lat="49.85276" lon="2.28291">
        <ele>108.9</ele>
        <time>2022-10-29T13:19:10Z</time>
      </trkpt>
      <trkpt lat="49.85276" lon="2.28289">
        <ele>109</ele>
        <time>2022-10-29T13:19:11Z</time>
      </trkpt>
      <trkpt lat="49.85276" lon="2.28288">
        <ele>109</ele>
        <time>2022-10-29T13:19:12Z</time>
      </trkpt>
      <trkpt lat="49.85277" lon="2.28286">
        <ele>109.1</ele>
        <time>2022-10-29T13:19:13Z</time>
      </trkpt>
      <trkpt lat="49.85277" lon="2.28283">
        <ele>109.1</ele>
        <time>2022-10-29T13:19:14Z</time>
      </trkpt>
      <trkpt lat="49.85277" lon="2.28282">
        <ele>109.1</ele>
        <time>2022-10-29T13:19:16Z</time>
      </trkpt>
      <trkpt lat="49.85277" lon="2.28281">
        <ele>109.2</ele>
        <time>2022-10-29T13:19:17Z</time>
      </trkpt>
      <trkpt lat="49.85278" lon="2.28279">
        <ele>109.2</ele>
        <time>2022-10-29T13:19:18Z</time>
      </trkpt>
      <trkpt lat="49.85278" lon="2.28276">
        <ele>109.3</ele>
        <time>2022-10-29T13:19:20Z</time>
      </trkpt>
      <trkpt lat="49.85278" lon="2.28275">
        <ele>109.3</ele>
        <time>2022-10-29T13:19:21Z</time>
      </trkpt>
      <trkpt lat="49.85278" lon="2.28273">
        <ele>109.3</ele>
        <time>2022-10-29T13:19:22Z</time>
      </trkpt>
      <trkpt lat="49.85278" lon="2.28271">
        <ele>109.4</ele>
        <time>2022-10-29T13:19:24Z</time>
      </trkpt>
      <trkpt lat="49.85278" lon="2.28269">
        <ele>109.4</ele>
        <time>2022-10-29T13:19:25Z</time>
      </trkpt>
      <trkpt lat="49.85279" lon="2.28268">
        <ele>109.4</ele>
        <time>2022-10-29T13:19:26Z</time>
      </trkpt>
      <trkpt lat="49.85279" lon="2.28267">
        <ele>109.5</ele>
        <time>2022-10-29T13:19:27Z</time>
      </trkpt>
      <trkpt lat="49.8528" lon="2.28265">
        <ele>109.5</ele>
        <time>2022-10-29T13:19:28Z</time>
      </trkpt>
      <trkpt lat="49.85281" lon="2.28264">
        <ele>109.5</ele>
        <time>2022-10-29T13:19:30Z</time>
      </trkpt>
      <trkpt lat="49.85281" lon="2.28262">
        <ele>109.5</ele>
        <time>2022-10-29T13:19:31Z</time>
      </trkpt>
      <trkpt lat="49.85282" lon="2.2826">
        <ele>109.6</ele>
        <time>2022-10-29T13:19:32Z</time>
      </trkpt>
      <trkpt lat="49.85283" lon="2.28258">
        <ele>109.6</ele>
        <time>2022-10-29T13:19:33Z</time>
      </trkpt>
      <trkpt lat="49.85283" lon="2.28257">
        <ele>109.6</ele>
        <time>2022-10-29T13:19:34Z</time>
      </trkpt>
      <trkpt lat="49.85284" lon="2.28256">
        <ele>109.7</ele>
        <time>2022-10-29T13:19:36Z</time>
      </trkpt>
      <trkpt lat="49.85284" lon="2.28255">
        <ele>109.7</ele>
        <time>2022-10-29T13:19:37Z</time>
      </trkpt>
      <trkpt lat="49.85284" lon="2.28253">
        <ele>109.7</ele>
        <time>2022-10-29T13:19:38Z</time>
      </trkpt>
      <trkpt lat="49.85285" lon="2.2825">
        <ele>109.7</ele>
        <time>2022-10-29T13:19:40Z</time>
      </trkpt>
      <trkpt lat="49.85286" lon="2.28249">
        <ele>109.7</ele>
        <time>2022-10-29T13:19:41Z</time>
      </trkpt>
      <trkpt lat="49.85286" lon="2.28247">
        <ele>109.8</ele>
        <time>2022-10-29T13:19:42Z</time>
      </trkpt>
      <trkpt lat="49.85286" lon="2.28246">
        <ele>109.8</ele>
        <time>2022-10-29T13:19:43Z</time>
      </trkpt>
      <trkpt lat="49.85287" lon="2.28244">
        <ele>109.8</ele>
        <time>2022-10-29T13:19:45Z</time>
      </trkpt>
      <trkpt lat="49.85287" lon="2.28243">
        <ele>109.8</ele>
        <time>2022-10-29T13:19:46Z</time>
      </trkpt>
      <trkpt lat="49.85287" lon="2.28241">
        <ele>109.8</ele>
        <time>2022-10-29T13:19:47Z</time>
      </trkpt>
      <trkpt lat="49.85288" lon="2.28239">
        <ele>109.9</ele>
        <time>2022-10-29T13:19:48Z</time>
      </trkpt>
      <trkpt lat="49.85288" lon="2.28236">
        <ele>109.9</ele>
        <time>2022-10-29T13:19:50Z</time>
      </trkpt>
      <trkpt lat="49.85288" lon="2.28235">
        <ele>109.9</ele>
        <time>2022-10-29T13:19:51Z</time>
      </trkpt>
      <trkpt lat="49.85289" lon="2.28233">
        <ele>109.9</ele>
        <time>2022-10-29T13:19:52Z</time>
      </trkpt>
      <trkpt lat="49.85289" lon="2.28231">
        <ele>109.9</ele>
        <time>2022-10-29T13:19:53Z</time>
      </trkpt>
      <trkpt lat="49.8529" lon="2.28229">
        <ele>109.9</ele>
        <time>2022-10-29T13:19:55Z</time>
      </trkpt>
      <trkpt lat="49.8529" lon="2.28228">
        <ele>109.9</ele>
        <time>2022-10-29T13:19:56Z</time>
      </trkpt>
      <trkpt lat="49.8529" lon="2.28227">
        <ele>109.9</ele>
        <time>2022-10-29T13:19:57Z</time>
      </trkpt>
      <trkpt lat="49.85291" lon="2.28225">
        <ele>110</ele>
        <time>2022-10-29T13:19:58Z</time>
      </trkpt>
      <trkpt lat="49.85291" lon="2.28222">
        <ele>110</ele>
        <time>2022-10-29T13:20:00Z</time>
      </trkpt>
      <trkpt lat="49.85292" lon="2.28221">
        <ele>110</ele>
        <time>2022-10-29T13:20:01Z</time>
      </trkpt>
      <trkpt lat="49.85292" lon="2.28218">
        <ele>110</ele>
        <time>2022-10-29T13:20:02Z</time>
      </trkpt>
      <trkpt lat="49.85292" lon="2.28216">
        <ele>110</ele>
        <time>2022-10-29T13:20:03Z</time>
      </trkpt>
      <trkpt lat="49.85292" lon="2.28215">
        <ele>110</ele>
        <time>2022-10-29T13:20:04Z</time>
      </trkpt>
      <trkpt lat="49.85293" lon="2.28213">
        <ele>110</ele>
        <time>2022-10-29T13:20:06Z</time>
      </trkpt>
      <trkpt lat="49.85293" lon="2.28212">
        <ele>110</ele>
        <time>2022-10-29T13:20:07Z</time>
      </trkpt>
      <trkpt lat="49.85293" lon="2.2821">
        <ele>110.1</ele>
        <time>2022-10-29T13:20:08Z</time>
      </trkpt>
      <trkpt lat="49.85293" lon="2.28208">
        <ele>110.1</ele>
        <time>2022-10-29T13:20:09Z</time>
      </trkpt>
      <trkpt lat="49.85293" lon="2.28206">
        <ele>110.1</ele>
        <time>2022-10-29T13:20:10Z</time>
      </trkpt>
      <trkpt lat="49.85293" lon="2.28204">
        <ele>110.1</ele>
        <time>2022-10-29T13:20:11Z</time>
      </trkpt>
      <trkpt lat="49.85294" lon="2.28202">
        <ele>110.1</ele>
        <time>2022-10-29T13:20:13Z</time>
      </trkpt>
      <trkpt lat="49.85294" lon="2.28201">
        <ele>110.1</ele>
        <time>2022-10-29T13:20:14Z</time>
      </trkpt>
      <trkpt lat="49.85294" lon="2.28197">
        <ele>110.1</ele>
        <time>2022-10-29T13:20:15Z</time>
      </trkpt>
      <trkpt lat="49.85294" lon="2.28196">
        <ele>110.1</ele>
        <time>2022-10-29T13:20:16Z</time>
      </trkpt>
      <trkpt lat="49.85295" lon="2.28195">
        <ele>110.1</ele>
        <time>2022-10-29T13:20:17Z</time>
      </trkpt>
      <trkpt lat="49.85295" lon="2.28193">
        <ele>110.2</ele>
        <time>2022-10-29T13:20:18Z</time>
      </trkpt>
      <trkpt lat="49.85295" lon="2.28191">
        <ele>110.2</ele>
        <time>2022-10-29T13:20:19Z</time>
      </trkpt>
      <trkpt lat="49.85296" lon="2.28189">
        <ele>110.2</ele>
        <time>2022-10-29T13:20:21Z</time>
      </trkpt>
      <trkpt lat="49.85296" lon="2.28188">
        <ele>110.2</ele>
        <time>2022-10-29T13:20:22Z</time>
      </trkpt>
      <trkpt lat="49.85296" lon="2.28186">
        <ele>110.2</ele>
        <time>2022-10-29T13:20:23Z</time>
      </trkpt>
      <trkpt lat="49.85296" lon="2.28185">
        <ele>110.2</ele>
        <time>2022-10-29T13:20:24Z</time>
      </trkpt>
      <trkpt lat="49.85297" lon="2.28183">
        <ele>110.2</ele>
        <time>2022-10-29T13:20:25Z</time>
      </trkpt>
      <trkpt lat="49.85297" lon="2.28181">
        <ele>110.3</ele>
        <time>2022-10-29T13:20:26Z</time>
      </trkpt>
      <trkpt lat="49.85298" lon="2.2818">
        <ele>110.3</ele>
        <time>2022-10-29T13:20:27Z</time>
      </trkpt>
      <trkpt lat="49.85298" lon="2.28178">
        <ele>110.3</ele>
        <time>2022-10-29T13:20:29Z</time>
      </trkpt>
      <trkpt lat="49.85298" lon="2.28176">
        <ele>110.3</ele>
        <time>2022-10-29T13:20:30Z</time>
      </trkpt>
      <trkpt lat="49.85298" lon="2.28175">
        <ele>110.3</ele>
        <time>2022-10-29T13:20:31Z</time>
      </trkpt>
      <trkpt lat="49.85298" lon="2.28173">
        <ele>110.3</ele>
        <time>2022-10-29T13:20:32Z</time>
      </trkpt>
      <trkpt lat="49.85298" lon="2.28171">
        <ele>110.3</ele>
        <time>2022-10-29T13:20:33Z</time>
      </trkpt>
      <trkpt lat="49.85299" lon="2.28169">
        <ele>110.4</ele>
        <time>2022-10-29T13:20:34Z</time>
      </trkpt>
      <trkpt lat="49.85299" lon="2.28167">
        <ele>110.4</ele>
        <time>2022-10-29T13:20:35Z</time>
      </trkpt>
      <trkpt lat="49.853" lon="2.28165">
        <ele>110.4</ele>
        <time>2022-10-29T13:20:37Z</time>
      </trkpt>
      <trkpt lat="49.853" lon="2.28164">
        <ele>110.4</ele>
        <time>2022-10-29T13:20:38Z</time>
      </trkpt>
      <trkpt lat="49.853" lon="2.28163">
        <ele>110.4</ele>
        <time>2022-10-29T13:20:39Z</time>
      </trkpt>
      <trkpt lat="49.85301" lon="2.2816">
        <ele>110.4</ele>
        <time>2022-10-29T13:20:40Z</time>
      </trkpt>
      <trkpt lat="49.85301" lon="2.28159">
        <ele>110.4</ele>
        <time>2022-10-29T13:20:41Z</time>
      </trkpt>
      <trkpt lat="49.85301" lon="2.28157">
        <ele>110.4</ele>
        <time>2022-10-29T13:20:42Z</time>
      </trkpt>
      <trkpt lat="49.85302" lon="2.28156">
        <ele>110.4</ele>
        <time>2022-10-29T13:20:43Z</time>
      </trkpt>
      <trkpt lat="49.85302" lon="2.28154">
        <ele>110.5</ele>
        <time>2022-10-29T13:20:45Z</time>
      </trkpt>
      <trkpt lat="49.85303" lon="2.28152">
        <ele>110.5</ele>
        <time>2022-10-29T13:20:46Z</time>
      </trkpt>
      <trkpt lat="49.85303" lon="2.28151">
        <ele>110.5</ele>
        <time>2022-10-29T13:20:47Z</time>
      </trkpt>
      <trkpt lat="49.85303" lon="2.28149">
        <ele>110.5</ele>
        <time>2022-10-29T13:20:48Z</time>
      </trkpt>
      <trkpt lat="49.85304" lon="2.28147">
        <ele>110.5</ele>
        <time>2022-10-29T13:20:49Z</time>
      </trkpt>
      <trkpt lat="49.85304" lon="2.28145">
        <ele>110.5</ele>
        <time>2022-10-29T13:20:50Z</time>
      </trkpt>
      <trkpt lat="49.85304" lon="2.28143">
        <ele>110.5</ele>
        <time>2022-10-29T13:20:52Z</time>
      </trkpt>
      <trkpt lat="49.85304" lon="2.28141">
        <ele>110.5</ele>
        <time>2022-10-29T13:20:53Z</time>
      </trkpt>
      <trkpt lat="49.85304" lon="2.2814">
        <ele>110.5</ele>
        <time>2022-10-29T13:20:54Z</time>
      </trkpt>
      <trkpt lat="49.85305" lon="2.28138">
        <ele>110.5</ele>
        <time>2022-10-29T13:20:55Z</time>
      </trkpt>
      <trkpt lat="49.85306" lon="2.28136">
        <ele>110.5</ele>
        <time>2022-10-29T13:20:56Z</time>
      </trkpt>
      <trkpt lat="49.85306" lon="2.28135">
        <ele>110.5</ele>
        <time>2022-10-29T13:20:57Z</time>
      </trkpt>
      <trkpt lat="49.85306" lon="2.28133">
        <ele>110.6</ele>
        <time>2022-10-29T13:20:58Z</time>
      </trkpt>
      <trkpt lat="49.85307" lon="2.28131">
        <ele>110.6</ele>
        <time>2022-10-29T13:21:00Z</time>
      </trkpt>
      <trkpt lat="49.85307" lon="2.2813">
        <ele>110.6</ele>
        <time>2022-10-29T13:21:01Z</time>
      </trkpt>
      <trkpt lat="49.85308" lon="2.28128">
        <ele>110.6</ele>
        <time>2022-10-29T13:21:02Z</time>
      </trkpt>
      <trkpt lat="49.85308" lon="2.28127">
        <ele>110.6</ele>
        <time>2022-10-29T13:21:03Z</time>
      </trkpt>
      <trkpt lat="49.85309" lon="2.28125">
        <ele>110.6</ele>
        <time>2022-10-29T13:21:04Z</time>
      </trkpt>
      <trkpt lat="49.85309" lon="2.28122">
        <ele>110.6</ele>
        <time>2022-10-29T13:21:05Z</time>
      </trkpt>
      <trkpt lat="49.85309" lon="2.28119">
        <ele>110.6</ele>
        <time>2022-10-29T13:21:06Z</time>
      </trkpt>
      <trkpt lat="49.85309" lon="2.28118">
        <ele>110.6</ele>
        <time>2022-10-29T13:21:07Z</time>
      </trkpt>
      <trkpt lat="49.85309" lon="2.28116">
        <ele>110.6</ele>
        <time>2022-10-29T13:21:09Z</time>
      </trkpt>
      <trkpt lat="49.85309" lon="2.28114">
        <ele>110.6</ele>
        <time>2022-10-29T13:21:10Z</time>
      </trkpt>
      <trkpt lat="49.8531" lon="2.28113">
        <ele>110.6</ele>
        <time>2022-10-29T13:21:11Z</time>
      </trkpt>
      <trkpt lat="49.8531" lon="2.28111">
        <ele>110.6</ele>
        <time>2022-10-29T13:21:12Z</time>
      </trkpt>
      <trkpt lat="49.8531" lon="2.28108">
        <ele>110.7</ele>
        <time>2022-10-29T13:21:13Z</time>
      </trkpt>
      <trkpt lat="49.8531" lon="2.28106">
        <ele>110.7</ele>
        <time>2022-10-29T13:21:14Z</time>
      </trkpt>
      <trkpt lat="49.8531" lon="2.28104">
        <ele>110.7</ele>
        <time>2022-10-29T13:21:15Z</time>
      </trkpt>
      <trkpt lat="49.85311" lon="2.28103">
        <ele>110.7</ele>
        <time>2022-10-29T13:21:17Z</time>
      </trkpt>
      <trkpt lat="49.85311" lon="2.28102">
        <ele>110.7</ele>
        <time>2022-10-29T13:21:18Z</time>
      </trkpt>
      <trkpt lat="49.85311" lon="2.281">
        <ele>110.7</ele>
        <time>2022-10-29T13:21:19Z</time>
      </trkpt>
      <trkpt lat="49.85311" lon="2.28098">
        <ele>110.7</ele>
        <time>2022-10-29T13:21:20Z</time>
      </trkpt>
      <trkpt lat="49.85312" lon="2.28096">
        <ele>110.7</ele>
        <time>2022-10-29T13:21:21Z</time>
      </trkpt>
      <trkpt lat="49.85312" lon="2.28095">
        <ele>110.7</ele>
        <time>2022-10-29T13:21:22Z</time>
      </trkpt>
      <trkpt lat="49.85313" lon="2.28092">
        <ele>110.7</ele>
        <time>2022-10-29T13:21:23Z</time>
      </trkpt>
      <trkpt lat="49.85314" lon="2.28091">
        <ele>110.7</ele>
        <time>2022-10-29T13:21:25Z</time>
      </trkpt>
      <trkpt lat="49.85314" lon="2.2809">
        <ele>110.7</ele>
        <time>2022-10-29T13:21:26Z</time>
      </trkpt>
      <trkpt lat="49.85314" lon="2.28089">
        <ele>110.7</ele>
        <time>2022-10-29T13:21:27Z</time>
      </trkpt>
      <trkpt lat="49.85315" lon="2.28087">
        <ele>110.7</ele>
        <time>2022-10-29T13:21:28Z</time>
      </trkpt>
      <trkpt lat="49.85315" lon="2.28085">
        <ele>110.7</ele>
        <time>2022-10-29T13:21:29Z</time>
      </trkpt>
      <trkpt lat="49.85316" lon="2.28084">
        <ele>110.7</ele>
        <time>2022-10-29T13:21:30Z</time>
      </trkpt>
      <trkpt lat="49.85316" lon="2.28082">
        <ele>110.7</ele>
        <time>2022-10-29T13:21:31Z</time>
      </trkpt>
      <trkpt lat="49.85316" lon="2.2808">
        <ele>110.7</ele>
        <time>2022-10-29T13:21:32Z</time>
      </trkpt>
      <trkpt lat="49.85317" lon="2.28079">
        <ele>110.7</ele>
        <time>2022-10-29T13:21:34Z</time>
      </trkpt>
      <trkpt lat="49.85317" lon="2.28078">
        <ele>110.7</ele>
        <time>2022-10-29T13:21:35Z</time>
      </trkpt>
      <trkpt lat="49.85318" lon="2.28076">
        <ele>110.7</ele>
        <time>2022-10-29T13:21:36Z</time>
      </trkpt>
      <trkpt lat="49.85318" lon="2.28074">
        <ele>110.7</ele>
        <time>2022-10-29T13:21:37Z</time>
      </trkpt>
      <trkpt lat="49.85319" lon="2.28073">
        <ele>110.7</ele>
        <time>2022-10-29T13:21:38Z</time>
      </trkpt>
      <trkpt lat="49.85319" lon="2.28071">
        <ele>110.7</ele>
        <time>2022-10-29T13:21:39Z</time>
      </trkpt>
      <trkpt lat="49.85319" lon="2.28069">
        <ele>110.7</ele>
        <time>2022-10-29T13:21:40Z</time>
      </trkpt>
      <trkpt lat="49.8532" lon="2.28067">
        <ele>110.7</ele>
        <time>2022-10-29T13:21:41Z</time>
      </trkpt>
      <trkpt lat="49.8532" lon="2.28065">
        <ele>110.7</ele>
        <time>2022-10-29T13:21:43Z</time>
      </trkpt>
      <trkpt lat="49.8532" lon="2.28064">
        <ele>110.7</ele>
        <time>2022-10-29T13:21:44Z</time>
      </trkpt>
      <trkpt lat="49.85321" lon="2.28062">
        <ele>110.7</ele>
        <time>2022-10-29T13:21:45Z</time>
      </trkpt>
      <trkpt lat="49.85321" lon="2.28061">
        <ele>110.7</ele>
        <time>2022-10-29T13:21:46Z</time>
      </trkpt>
      <trkpt lat="49.85322" lon="2.28059">
        <ele>110.7</ele>
        <time>2022-10-29T13:21:47Z</time>
      </trkpt>
      <trkpt lat="49.85322" lon="2.28057">
        <ele>110.7</ele>
        <time>2022-10-29T13:21:48Z</time>
      </trkpt>
      <trkpt lat="49.85322" lon="2.28056">
        <ele>110.8</ele>
        <time>2022-10-29T13:21:49Z</time>
      </trkpt>
      <trkpt lat="49.85322" lon="2.28054">
        <ele>110.8</ele>
        <time>2022-10-29T13:21:51Z</time>
      </trkpt>
      <trkpt lat="49.85322" lon="2.28052">
        <ele>110.8</ele>
        <time>2022-10-29T13:21:52Z</time>
      </trkpt>
      <trkpt lat="49.85322" lon="2.28051">
        <ele>110.8</ele>
        <time>2022-10-29T13:21:53Z</time>
      </trkpt>
      <trkpt lat="49.85323" lon="2.28047">
        <ele>110.8</ele>
        <time>2022-10-29T13:21:54Z</time>
      </trkpt>
      <trkpt lat="49.85323" lon="2.28046">
        <ele>110.8</ele>
        <time>2022-10-29T13:21:55Z</time>
      </trkpt>
      <trkpt lat="49.85323" lon="2.28045">
        <ele>110.8</ele>
        <time>2022-10-29T13:21:56Z</time>
      </trkpt>
      <trkpt lat="49.85323" lon="2.28043">
        <ele>110.8</ele>
        <time>2022-10-29T13:21:58Z</time>
      </trkpt>
      <trkpt lat="49.85323" lon="2.28042">
        <ele>110.8</ele>
        <time>2022-10-29T13:21:59Z</time>
      </trkpt>
      <trkpt lat="49.85323" lon="2.2804">
        <ele>110.8</ele>
        <time>2022-10-29T13:22:00Z</time>
      </trkpt>
      <trkpt lat="49.85323" lon="2.28038">
        <ele>110.8</ele>
        <time>2022-10-29T13:22:01Z</time>
      </trkpt>
      <trkpt lat="49.85324" lon="2.28036">
        <ele>110.8</ele>
        <time>2022-10-29T13:22:02Z</time>
      </trkpt>
      <trkpt lat="49.85324" lon="2.28034">
        <ele>110.8</ele>
        <time>2022-10-29T13:22:04Z</time>
      </trkpt>
      <trkpt lat="49.85324" lon="2.28031">
        <ele>110.8</ele>
        <time>2022-10-29T13:22:05Z</time>
      </trkpt>
      <trkpt lat="49.85324" lon="2.2803">
        <ele>110.8</ele>
        <time>2022-10-29T13:22:06Z</time>
      </trkpt>
      <trkpt lat="49.85324" lon="2.28029">
        <ele>110.8</ele>
        <time>2022-10-29T13:22:07Z</time>
      </trkpt>
      <trkpt lat="49.85325" lon="2.28027">
        <ele>110.8</ele>
        <time>2022-10-29T13:22:08Z</time>
      </trkpt>
      <trkpt lat="49.85325" lon="2.28026">
        <ele>110.8</ele>
        <time>2022-10-29T13:22:10Z</time>
      </trkpt>
      <trkpt lat="49.85326" lon="2.28024">
        <ele>110.8</ele>
        <time>2022-10-29T13:22:11Z</time>
      </trkpt>
      <trkpt lat="49.85326" lon="2.28022">
        <ele>110.8</ele>
        <time>2022-10-29T13:22:12Z</time>
      </trkpt>
      <trkpt lat="49.85326" lon="2.2802">
        <ele>110.8</ele>
        <time>2022-10-29T13:22:13Z</time>
      </trkpt>
      <trkpt lat="49.85327" lon="2.28019">
        <ele>110.8</ele>
        <time>2022-10-29T13:22:14Z</time>
      </trkpt>
      <trkpt lat="49.85327" lon="2.28016">
        <ele>110.8</ele>
        <time>2022-10-29T13:22:15Z</time>
      </trkpt>
      <trkpt lat="49.85328" lon="2.28014">
        <ele>110.8</ele>
        <time>2022-10-29T13:22:16Z</time>
      </trkpt>
      <trkpt lat="49.85328" lon="2.28013">
        <ele>110.8</ele>
        <time>2022-10-29T13:22:18Z</time>
      </trkpt>
      <trkpt lat="49.85328" lon="2.28011">
        <ele>110.8</ele>
        <time>2022-10-29T13:22:19Z</time>
      </trkpt>
      <trkpt lat="49.85329" lon="2.2801">
        <ele>110.8</ele>
        <time>2022-10-29T13:22:20Z</time>
      </trkpt>
      <trkpt lat="49.85329" lon="2.28008">
        <ele>110.8</ele>
        <time>2022-10-29T13:22:21Z</time>
      </trkpt>
      <trkpt lat="49.85329" lon="2.28007">
        <ele>110.8</ele>
        <time>2022-10-29T13:22:22Z</time>
      </trkpt>
      <trkpt lat="49.85329" lon="2.28005">
        <ele>110.8</ele>
        <time>2022-10-29T13:22:24Z</time>
      </trkpt>
      <trkpt lat="49.85329" lon="2.28003">
        <ele>110.8</ele>
        <time>2022-10-29T13:22:25Z</time>
      </trkpt>
      <trkpt lat="49.85329" lon="2.28">
        <ele>110.8</ele>
        <time>2022-10-29T13:22:26Z</time>
      </trkpt>
      <trkpt lat="49.85329" lon="2.27999">
        <ele>110.8</ele>
        <time>2022-10-29T13:22:27Z</time>
      </trkpt>
      <trkpt lat="49.85329" lon="2.27997">
        <ele>110.8</ele>
        <time>2022-10-29T13:22:28Z</time>
      </trkpt>
      <trkpt lat="49.85329" lon="2.27995">
        <ele>110.8</ele>
        <time>2022-10-29T13:22:29Z</time>
      </trkpt>
      <trkpt lat="49.85329" lon="2.27994">
        <ele>110.8</ele>
        <time>2022-10-29T13:22:30Z</time>
      </trkpt>
      <trkpt lat="49.8533" lon="2.2799">
        <ele>110.8</ele>
        <time>2022-10-29T13:22:32Z</time>
      </trkpt>
      <trkpt lat="49.8533" lon="2.27989">
        <ele>110.8</ele>
        <time>2022-10-29T13:22:33Z</time>
      </trkpt>
      <trkpt lat="49.8533" lon="2.27988">
        <ele>110.8</ele>
        <time>2022-10-29T13:22:34Z</time>
      </trkpt>
      <trkpt lat="49.85331" lon="2.27986">
        <ele>110.8</ele>
        <time>2022-10-29T13:22:35Z</time>
      </trkpt>
      <trkpt lat="49.85331" lon="2.27984">
        <ele>110.8</ele>
        <time>2022-10-29T13:22:36Z</time>
      </trkpt>
      <trkpt lat="49.85332" lon="2.27983">
        <ele>110.8</ele>
        <time>2022-10-29T13:22:37Z</time>
      </trkpt>
      <trkpt lat="49.85332" lon="2.2798">
        <ele>110.8</ele>
        <time>2022-10-29T13:22:39Z</time>
      </trkpt>
      <trkpt lat="49.85333" lon="2.27978">
        <ele>110.8</ele>
        <time>2022-10-29T13:22:40Z</time>
      </trkpt>
      <trkpt lat="49.85333" lon="2.27977">
        <ele>110.8</ele>
        <time>2022-10-29T13:22:41Z</time>
      </trkpt>
      <trkpt lat="49.85333" lon="2.27976">
        <ele>110.8</ele>
        <time>2022-10-29T13:22:42Z</time>
      </trkpt>
      <trkpt lat="49.85334" lon="2.27975">
        <ele>110.8</ele>
        <time>2022-10-29T13:22:43Z</time>
      </trkpt>
      <trkpt lat="49.85334" lon="2.27973">
        <ele>110.8</ele>
        <time>2022-10-29T13:22:44Z</time>
      </trkpt>
      <trkpt lat="49.85334" lon="2.27972">
        <ele>110.8</ele>
        <time>2022-10-29T13:22:46Z</time>
      </trkpt>
      <trkpt lat="49.85334" lon="2.27969">
        <ele>110.8</ele>
        <time>2022-10-29T13:22:47Z</time>
      </trkpt>
      <trkpt lat="49.85335" lon="2.27968">
        <ele>110.8</ele>
        <time>2022-10-29T13:22:48Z</time>
      </trkpt>
      <trkpt lat="49.85335" lon="2.27966">
        <ele>110.8</ele>
        <time>2022-10-29T13:22:49Z</time>
      </trkpt>
      <trkpt lat="49.85336" lon="2.27965">
        <ele>110.8</ele>
        <time>2022-10-29T13:22:50Z</time>
      </trkpt>
      <trkpt lat="49.85336" lon="2.27963">
        <ele>110.8</ele>
        <time>2022-10-29T13:22:51Z</time>
      </trkpt>
      <trkpt lat="49.85337" lon="2.27962">
        <ele>110.8</ele>
        <time>2022-10-29T13:22:52Z</time>
      </trkpt>
      <trkpt lat="49.85337" lon="2.27959">
        <ele>110.8</ele>
        <time>2022-10-29T13:22:54Z</time>
      </trkpt>
      <trkpt lat="49.85337" lon="2.27957">
        <ele>110.8</ele>
        <time>2022-10-29T13:22:55Z</time>
      </trkpt>
      <trkpt lat="49.85337" lon="2.27956">
        <ele>110.8</ele>
        <time>2022-10-29T13:22:56Z</time>
      </trkpt>
      <trkpt lat="49.85338" lon="2.27955">
        <ele>110.8</ele>
        <time>2022-10-29T13:22:57Z</time>
      </trkpt>
      <trkpt lat="49.85338" lon="2.27953">
        <ele>110.8</ele>
        <time>2022-10-29T13:22:58Z</time>
      </trkpt>
      <trkpt lat="49.85338" lon="2.27952">
        <ele>110.8</ele>
        <time>2022-10-29T13:22:59Z</time>
      </trkpt>
      <trkpt lat="49.85339" lon="2.2795">
        <ele>110.8</ele>
        <time>2022-10-29T13:23:01Z</time>
      </trkpt>
      <trkpt lat="49.85339" lon="2.27947">
        <ele>110.8</ele>
        <time>2022-10-29T13:23:03Z</time>
      </trkpt>
      <trkpt lat="49.85338" lon="2.27947">
        <ele>110.8</ele>
        <time>2022-10-29T13:23:04Z</time>
      </trkpt>
      <trkpt lat="49.85337" lon="2.27948">
        <ele>110.8</ele>
        <time>2022-10-29T13:23:05Z</time>
      </trkpt>
      <trkpt lat="49.85336" lon="2.27948">
        <ele>110.8</ele>
        <time>2022-10-29T13:23:06Z</time>
      </trkpt>
      <trkpt lat="49.85336" lon="2.27948">
        <ele>110.8</ele>
        <time>2022-10-29T13:23:07Z</time>
      </trkpt>
      <trkpt lat="49.85335" lon="2.27947">
        <ele>110.7</ele>
        <time>2022-10-29T13:23:08Z</time>
      </trkpt>
      <trkpt lat="49.85335" lon="2.27946">
        <ele>110.7</ele>
        <time>2022-10-29T13:23:09Z</time>
      </trkpt>
      <trkpt lat="49.85336" lon="2.27945">
        <ele>110.7</ele>
        <time>2022-10-29T13:23:10Z</time>
      </trkpt>
      <trkpt lat="49.85336" lon="2.27943">
        <ele>110.7</ele>
        <time>2022-10-29T13:23:11Z</time>
      </trkpt>
      <trkpt lat="49.85337" lon="2.27942">
        <ele>110.7</ele>
        <time>2022-10-29T13:23:12Z</time>
      </trkpt>
      <trkpt lat="49.85338" lon="2.2794">
        <ele>110.7</ele>
        <time>2022-10-29T13:23:14Z</time>
      </trkpt>
      <trkpt lat="49.85339" lon="2.27939">
        <ele>110.7</ele>
        <time>2022-10-29T13:23:15Z</time>
      </trkpt>
      <trkpt lat="49.8534" lon="2.27936">
        <ele>110.7</ele>
        <time>2022-10-29T13:23:17Z</time>
      </trkpt>
      <trkpt lat="49.8534" lon="2.27934">
        <ele>110.7</ele>
        <time>2022-10-29T13:23:18Z</time>
      </trkpt>
      <trkpt lat="49.85341" lon="2.27932">
        <ele>110.7</ele>
        <time>2022-10-29T13:23:19Z</time>
      </trkpt>
      <trkpt lat="49.85342" lon="2.2793">
        <ele>110.7</ele>
        <time>2022-10-29T13:23:20Z</time>
      </trkpt>
      <trkpt lat="49.85342" lon="2.27928">
        <ele>110.7</ele>
        <time>2022-10-29T13:23:21Z</time>
      </trkpt>
      <trkpt lat="49.85343" lon="2.27926">
        <ele>110.7</ele>
        <time>2022-10-29T13:23:22Z</time>
      </trkpt>
      <trkpt lat="49.85343" lon="2.27925">
        <ele>110.7</ele>
        <time>2022-10-29T13:23:24Z</time>
      </trkpt>
      <trkpt lat="49.85344" lon="2.27922">
        <ele>110.7</ele>
        <time>2022-10-29T13:23:25Z</time>
      </trkpt>
      <trkpt lat="49.85344" lon="2.2792">
        <ele>110.7</ele>
        <time>2022-10-29T13:23:26Z</time>
      </trkpt>
      <trkpt lat="49.85345" lon="2.27919">
        <ele>110.7</ele>
        <time>2022-10-29T13:23:27Z</time>
      </trkpt>
      <trkpt lat="49.85345" lon="2.27917">
        <ele>110.7</ele>
        <time>2022-10-29T13:23:28Z</time>
      </trkpt>
      <trkpt lat="49.85345" lon="2.27916">
        <ele>110.7</ele>
        <time>2022-10-29T13:23:29Z</time>
      </trkpt>
      <trkpt lat="49.85346" lon="2.27914">
        <ele>110.7</ele>
        <time>2022-10-29T13:23:30Z</time>
      </trkpt>
      <trkpt lat="49.85347" lon="2.27912">
        <ele>110.7</ele>
        <time>2022-10-29T13:23:32Z</time>
      </trkpt>
      <trkpt lat="49.85347" lon="2.27911">
        <ele>110.7</ele>
        <time>2022-10-29T13:23:33Z</time>
      </trkpt>
      <trkpt lat="49.85347" lon="2.27909">
        <ele>110.7</ele>
        <time>2022-10-29T13:23:34Z</time>
      </trkpt>
      <trkpt lat="49.85348" lon="2.27908">
        <ele>110.7</ele>
        <time>2022-10-29T13:23:35Z</time>
      </trkpt>
      <trkpt lat="49.85348" lon="2.27906">
        <ele>110.7</ele>
        <time>2022-10-29T13:23:36Z</time>
      </trkpt>
      <trkpt lat="49.85348" lon="2.27904">
        <ele>110.6</ele>
        <time>2022-10-29T13:23:37Z</time>
      </trkpt>
      <trkpt lat="49.85348" lon="2.27903">
        <ele>110.6</ele>
        <time>2022-10-29T13:23:38Z</time>
      </trkpt>
      <trkpt lat="49.85349" lon="2.27901">
        <ele>110.6</ele>
        <time>2022-10-29T13:23:40Z</time>
      </trkpt>
      <trkpt lat="49.85349" lon="2.27899">
        <ele>110.6</ele>
        <time>2022-10-29T13:23:41Z</time>
      </trkpt>
      <trkpt lat="49.85349" lon="2.27897">
        <ele>110.6</ele>
        <time>2022-10-29T13:23:42Z</time>
      </trkpt>
      <trkpt lat="49.8535" lon="2.27895">
        <ele>110.6</ele>
        <time>2022-10-29T13:23:43Z</time>
      </trkpt>
      <trkpt lat="49.8535" lon="2.27894">
        <ele>110.6</ele>
        <time>2022-10-29T13:23:44Z</time>
      </trkpt>
      <trkpt lat="49.8535" lon="2.27892">
        <ele>110.6</ele>
        <time>2022-10-29T13:23:45Z</time>
      </trkpt>
      <trkpt lat="49.85351" lon="2.2789">
        <ele>110.6</ele>
        <time>2022-10-29T13:23:47Z</time>
      </trkpt>
      <trkpt lat="49.85351" lon="2.27889">
        <ele>110.6</ele>
        <time>2022-10-29T13:23:48Z</time>
      </trkpt>
      <trkpt lat="49.85351" lon="2.27887">
        <ele>110.6</ele>
        <time>2022-10-29T13:23:49Z</time>
      </trkpt>
      <trkpt lat="49.85351" lon="2.27885">
        <ele>110.6</ele>
        <time>2022-10-29T13:23:50Z</time>
      </trkpt>
      <trkpt lat="49.85351" lon="2.27884">
        <ele>110.6</ele>
        <time>2022-10-29T13:23:51Z</time>
      </trkpt>
      <trkpt lat="49.85352" lon="2.27882">
        <ele>110.6</ele>
        <time>2022-10-29T13:23:52Z</time>
      </trkpt>
      <trkpt lat="49.85352" lon="2.27881">
        <ele>110.6</ele>
        <time>2022-10-29T13:23:53Z</time>
      </trkpt>
      <trkpt lat="49.85353" lon="2.27878">
        <ele>110.6</ele>
        <time>2022-10-29T13:23:55Z</time>
      </trkpt>
      <trkpt lat="49.85353" lon="2.27876">
        <ele>110.6</ele>
        <time>2022-10-29T13:23:56Z</time>
      </trkpt>
      <trkpt lat="49.85353" lon="2.27875">
        <ele>110.6</ele>
        <time>2022-10-29T13:23:57Z</time>
      </trkpt>
      <trkpt lat="49.85354" lon="2.27873">
        <ele>110.6</ele>
        <time>2022-10-29T13:23:58Z</time>
      </trkpt>
      <trkpt lat="49.85354" lon="2.27872">
        <ele>110.6</ele>
        <time>2022-10-29T13:23:59Z</time>
      </trkpt>
      <trkpt lat="49.85354" lon="2.2787">
        <ele>110.6</ele>
        <time>2022-10-29T13:24:00Z</time>
      </trkpt>
      <trkpt lat="49.85354" lon="2.27867">
        <ele>110.5</ele>
        <time>2022-10-29T13:24:02Z</time>
      </trkpt>
      <trkpt lat="49.85355" lon="2.27866">
        <ele>110.5</ele>
        <time>2022-10-29T13:24:03Z</time>
      </trkpt>
      <trkpt lat="49.85355" lon="2.27864">
        <ele>110.5</ele>
        <time>2022-10-29T13:24:04Z</time>
      </trkpt>
      <trkpt lat="49.85355" lon="2.27862">
        <ele>110.5</ele>
        <time>2022-10-29T13:24:06Z</time>
      </trkpt>
      <trkpt lat="49.85355" lon="2.2786">
        <ele>110.5</ele>
        <time>2022-10-29T13:24:07Z</time>
      </trkpt>
      <trkpt lat="49.85354" lon="2.27859">
        <ele>110.5</ele>
        <time>2022-10-29T13:24:08Z</time>
      </trkpt>
      <trkpt lat="49.85355" lon="2.27857">
        <ele>110.5</ele>
        <time>2022-10-29T13:24:09Z</time>
      </trkpt>
      <trkpt lat="49.85355" lon="2.27855">
        <ele>110.5</ele>
        <time>2022-10-29T13:24:10Z</time>
      </trkpt>
      <trkpt lat="49.85355" lon="2.27854">
        <ele>110.5</ele>
        <time>2022-10-29T13:24:11Z</time>
      </trkpt>
      <trkpt lat="49.85356" lon="2.27852">
        <ele>110.5</ele>
        <time>2022-10-29T13:24:12Z</time>
      </trkpt>
      <trkpt lat="49.85356" lon="2.2785">
        <ele>110.5</ele>
        <time>2022-10-29T13:24:14Z</time>
      </trkpt>
      <trkpt lat="49.85357" lon="2.27849">
        <ele>110.5</ele>
        <time>2022-10-29T13:24:15Z</time>
      </trkpt>
      <trkpt lat="49.85357" lon="2.27847">
        <ele>110.5</ele>
        <time>2022-10-29T13:24:16Z</time>
      </trkpt>
      <trkpt lat="49.85356" lon="2.27845">
        <ele>110.4</ele>
        <time>2022-10-29T13:24:17Z</time>
      </trkpt>
      <trkpt lat="49.85356" lon="2.27844">
        <ele>110.4</ele>
        <time>2022-10-29T13:24:18Z</time>
      </trkpt>
      <trkpt lat="49.85356" lon="2.27842">
        <ele>110.4</ele>
        <time>2022-10-29T13:24:19Z</time>
      </trkpt>
      <trkpt lat="49.85355" lon="2.27841">
        <ele>110.4</ele>
        <time>2022-10-29T13:24:21Z</time>
      </trkpt>
      <trkpt lat="49.85354" lon="2.27839">
        <ele>110.4</ele>
        <time>2022-10-29T13:24:22Z</time>
      </trkpt>
      <trkpt lat="49.85354" lon="2.27838">
        <ele>110.4</ele>
        <time>2022-10-29T13:24:23Z</time>
      </trkpt>
      <trkpt lat="49.85353" lon="2.27837">
        <ele>110.4</ele>
        <time>2022-10-29T13:24:24Z</time>
      </trkpt>
      <trkpt lat="49.85352" lon="2.27836">
        <ele>110.4</ele>
        <time>2022-10-29T13:24:25Z</time>
      </trkpt>
      <trkpt lat="49.85352" lon="2.27835">
        <ele>110.4</ele>
        <time>2022-10-29T13:24:26Z</time>
      </trkpt>
      <trkpt lat="49.85351" lon="2.27834">
        <ele>110.4</ele>
        <time>2022-10-29T13:24:27Z</time>
      </trkpt>
      <trkpt lat="49.8535" lon="2.27835">
        <ele>110.4</ele>
        <time>2022-10-29T13:24:28Z</time>
      </trkpt>
      <trkpt lat="49.85349" lon="2.27835">
        <ele>110.4</ele>
        <time>2022-10-29T13:24:30Z</time>
      </trkpt>
      <trkpt lat="49.85348" lon="2.27836">
        <ele>110.4</ele>
        <time>2022-10-29T13:24:31Z</time>
      </trkpt>
      <trkpt lat="49.85346" lon="2.27838">
        <ele>110.4</ele>
        <time>2022-10-29T13:24:33Z</time>
      </trkpt>
      <trkpt lat="49.85346" lon="2.27838">
        <ele>110.4</ele>
        <time>2022-10-29T13:24:34Z</time>
      </trkpt>
      <trkpt lat="49.85346" lon="2.27838">
        <ele>110.4</ele>
        <time>2022-10-29T13:24:35Z</time>
      </trkpt>
      <trkpt lat="49.85346" lon="2.27838">
        <ele>110.4</ele>
        <time>2022-10-29T13:24:36Z</time>
      </trkpt>
      <trkpt lat="49.85346" lon="2.27838">
        <ele>110.4</ele>
        <time>2022-10-29T13:24:38Z</time>
      </trkpt>
      <trkpt lat="49.85346" lon="2.27838">
        <ele>110.4</ele>
        <time>2022-10-29T13:24:39Z</time>
      </trkpt>
      <trkpt lat="49.85346" lon="2.27839">
        <ele>110.4</ele>
        <time>2022-10-29T13:24:40Z</time>
      </trkpt>
      <trkpt lat="49.85346" lon="2.27839">
        <ele>110.3</ele>
        <time>2022-10-29T13:24:41Z</time>
      </trkpt>
      <trkpt lat="49.85346" lon="2.27839">
        <ele>110.3</ele>
        <time>2022-10-29T13:24:43Z</time>
      </trkpt>
      <trkpt lat="49.85346" lon="2.27839">
        <ele>110.3</ele>
        <time>2022-10-29T13:24:44Z</time>
      </trkpt>
      <trkpt lat="49.85346" lon="2.27839">
        <ele>110.3</ele>
        <time>2022-10-29T13:24:45Z</time>
      </trkpt>
      <trkpt lat="49.85346" lon="2.27839">
        <ele>110.3</ele>
        <time>2022-10-29T13:24:46Z</time>
      </trkpt>
      <trkpt lat="49.85346" lon="2.27839">
        <ele>110.3</ele>
        <time>2022-10-29T13:24:48Z</time>
      </trkpt>
      <trkpt lat="49.85346" lon="2.27839">
        <ele>110.3</ele>
        <time>2022-10-29T13:24:49Z</time>
      </trkpt>
      <trkpt lat="49.85346" lon="2.27839">
        <ele>110.3</ele>
        <time>2022-10-29T13:24:50Z</time>
      </trkpt>
      <trkpt lat="49.85346" lon="2.27839">
        <ele>110.3</ele>
        <time>2022-10-29T13:24:52Z</time>
      </trkpt>
      <trkpt lat="49.85348" lon="2.2784">
        <ele>110.3</ele>
        <time>2022-10-29T13:24:53Z</time>
      </trkpt>
      <trkpt lat="49.85349" lon="2.2784">
        <ele>110.3</ele>
        <time>2022-10-29T13:24:54Z</time>
      </trkpt>
      <trkpt lat="49.85349" lon="2.2784">
        <ele>110.3</ele>
        <time>2022-10-29T13:24:55Z</time>
      </trkpt>
      <trkpt lat="49.85349" lon="2.2784">
        <ele>110.3</ele>
        <time>2022-10-29T13:24:56Z</time>
      </trkpt>
      <trkpt lat="49.85349" lon="2.2784">
        <ele>110.3</ele>
        <time>2022-10-29T13:24:57Z</time>
      </trkpt>
      <trkpt lat="49.85349" lon="2.2784">
        <ele>110.3</ele>
        <time>2022-10-29T13:24:58Z</time>
      </trkpt>
      <trkpt lat="49.85349" lon="2.2784">
        <ele>110.3</ele>
        <time>2022-10-29T13:24:59Z</time>
      </trkpt>
      <trkpt lat="49.85349" lon="2.2784">
        <ele>110.3</ele>
        <time>2022-10-29T13:25:00Z</time>
      </trkpt>
      <trkpt lat="49.85349" lon="2.27841">
        <ele>110.3</ele>
        <time>2022-10-29T13:25:01Z</time>
      </trkpt>
      <trkpt lat="49.85349" lon="2.27841">
        <ele>110.3</ele>
        <time>2022-10-29T13:25:02Z</time>
      </trkpt>
      <trkpt lat="49.85349" lon="2.27841">
        <ele>110.3</ele>
        <time>2022-10-29T13:25:03Z</time>
      </trkpt>
      <trkpt lat="49.85349" lon="2.27841">
        <ele>110.3</ele>
        <time>2022-10-29T13:25:04Z</time>
      </trkpt>
      <trkpt lat="49.85349" lon="2.27841">
        <ele>110.3</ele>
        <time>2022-10-29T13:25:05Z</time>
      </trkpt>
      <trkpt lat="49.85349" lon="2.27842">
        <ele>110.3</ele>
        <time>2022-10-29T13:25:07Z</time>
      </trkpt>
      <trkpt lat="49.85349" lon="2.27842">
        <ele>110.3</ele>
        <time>2022-10-29T13:25:08Z</time>
      </trkpt>
      <trkpt lat="49.85349" lon="2.27842">
        <ele>110.3</ele>
        <time>2022-10-29T13:25:09Z</time>
      </trkpt>
      <trkpt lat="49.85349" lon="2.27842">
        <ele>110.3</ele>
        <time>2022-10-29T13:25:10Z</time>
      </trkpt>
      <trkpt lat="49.85349" lon="2.27842">
        <ele>110.3</ele>
        <time>2022-10-29T13:25:11Z</time>
      </trkpt>
      <trkpt lat="49.85349" lon="2.27842">
        <ele>110.3</ele>
        <time>2022-10-29T13:25:12Z</time>
      </trkpt>
      <trkpt lat="49.85349" lon="2.27842">
        <ele>110.3</ele>
        <time>2022-10-29T13:25:13Z</time>
      </trkpt>
      <trkpt lat="49.85349" lon="2.27842">
        <ele>110.3</ele>
        <time>2022-10-29T13:25:14Z</time>
      </trkpt>
      <trkpt lat="49.85349" lon="2.27842">
        <ele>110.3</ele>
        <time>2022-10-29T13:25:15Z</time>
      </trkpt>
      <trkpt lat="49.85349" lon="2.27842">
        <ele>110.3</ele>
        <time>2022-10-29T13:25:16Z</time>
      </trkpt>
      <trkpt lat="49.85349" lon="2.27842">
        <ele>110.3</ele>
        <time>2022-10-29T13:25:17Z</time>
      </trkpt>
      <trkpt lat="49.85349" lon="2.27842">
        <ele>110.3</ele>
        <time>2022-10-29T13:25:19Z</time>
      </trkpt>
      <trkpt lat="49.85349" lon="2.27842">
        <ele>110.3</ele>
        <time>2022-10-29T13:25:20Z</time>
      </trkpt>
      <trkpt lat="49.85349" lon="2.27842">
        <ele>110.3</ele>
        <time>2022-10-29T13:25:21Z</time>
      </trkpt>
      <trkpt lat="49.85349" lon="2.27842">
        <ele>110.3</ele>
        <time>2022-10-29T13:25:22Z</time>
      </trkpt>
      <trkpt lat="49.85349" lon="2.27842">
        <ele>110.3</ele>
        <time>2022-10-29T13:25:24Z</time>
      </trkpt>
      <trkpt lat="49.85349" lon="2.27842">
        <ele>110.3</ele>
        <time>2022-10-29T13:25:25Z</time>
      </trkpt>
      <trkpt lat="49.85349" lon="2.27842">
        <ele>110.3</ele>
        <time>2022-10-29T13:25:26Z</time>
      </trkpt>
      <trkpt lat="49.85349" lon="2.27842">
        <ele>110.3</ele>
        <time>2022-10-29T13:25:27Z</time>
      </trkpt>
      <trkpt lat="49.85349" lon="2.27842">
        <ele>110.3</ele>
        <time>2022-10-29T13:25:28Z</time>
      </trkpt>
      <trkpt lat="49.85349" lon="2.27842">
        <ele>110.3</ele>
        <time>2022-10-29T13:25:29Z</time>
      </trkpt>
      <trkpt lat="49.85349" lon="2.27842">
        <ele>110.3</ele>
        <time>2022-10-29T13:25:30Z</time>
      </trkpt>
      <trkpt lat="49.85349" lon="2.27842">
        <ele>110.3</ele>
        <time>2022-10-29T13:25:31Z</time>
      </trkpt>
      <trkpt lat="49.85349" lon="2.27842">
        <ele>110.3</ele>
        <time>2022-10-29T13:25:32Z</time>
      </trkpt>
      <trkpt lat="49.85349" lon="2.27842">
        <ele>110.3</ele>
        <time>2022-10-29T13:25:33Z</time>
      </trkpt>
      <trkpt lat="49.85349" lon="2.27842">
        <ele>110.3</ele>
        <time>2022-10-29T13:25:34Z</time>
      </trkpt>
      <trkpt lat="49.85349" lon="2.27842">
        <ele>110.3</ele>
        <time>2022-10-29T13:25:35Z</time>
      </trkpt>
      <trkpt lat="49.85349" lon="2.27842">
        <ele>110.3</ele>
        <time>2022-10-29T13:25:36Z</time>
      </trkpt>
      <trkpt lat="49.85349" lon="2.27841">
        <ele>110.3</ele>
        <time>2022-10-29T13:25:37Z</time>
      </trkpt>
      <trkpt lat="49.8535" lon="2.2784">
        <ele>110.3</ele>
        <time>2022-10-29T13:25:38Z</time>
      </trkpt>
      <trkpt lat="49.8535" lon="2.27839">
        <ele>110.3</ele>
        <time>2022-10-29T13:25:39Z</time>
      </trkpt>
      <trkpt lat="49.8535" lon="2.27837">
        <ele>110.3</ele>
        <time>2022-10-29T13:25:40Z</time>
      </trkpt>
      <trkpt lat="49.85351" lon="2.27835">
        <ele>110.3</ele>
        <time>2022-10-29T13:25:42Z</time>
      </trkpt>
      <trkpt lat="49.85351" lon="2.27833">
        <ele>110.3</ele>
        <time>2022-10-29T13:25:43Z</time>
      </trkpt>
      <trkpt lat="49.85351" lon="2.27831">
        <ele>110.3</ele>
        <time>2022-10-29T13:25:44Z</time>
      </trkpt>
      <trkpt lat="49.85351" lon="2.27829">
        <ele>110.3</ele>
        <time>2022-10-29T13:25:46Z</time>
      </trkpt>
      <trkpt lat="49.85351" lon="2.27828">
        <ele>110.3</ele>
        <time>2022-10-29T13:25:47Z</time>
      </trkpt>
      <trkpt lat="49.85351" lon="2.27826">
        <ele>110.3</ele>
        <time>2022-10-29T13:25:48Z</time>
      </trkpt>
      <trkpt lat="49.85351" lon="2.27825">
        <ele>110.3</ele>
        <time>2022-10-29T13:25:49Z</time>
      </trkpt>
      <trkpt lat="49.85351" lon="2.27825">
        <ele>110.3</ele>
        <time>2022-10-29T13:25:50Z</time>
      </trkpt>
      <trkpt lat="49.8535" lon="2.27825">
        <ele>110.3</ele>
        <time>2022-10-29T13:25:51Z</time>
      </trkpt>
      <trkpt lat="49.8535" lon="2.27825">
        <ele>110.3</ele>
        <time>2022-10-29T13:25:52Z</time>
      </trkpt>
      <trkpt lat="49.8535" lon="2.27825">
        <ele>110.3</ele>
        <time>2022-10-29T13:25:53Z</time>
      </trkpt>
      <trkpt lat="49.8535" lon="2.27826">
        <ele>110.3</ele>
        <time>2022-10-29T13:25:54Z</time>
      </trkpt>
      <trkpt lat="49.8535" lon="2.27826">
        <ele>110.3</ele>
        <time>2022-10-29T13:25:55Z</time>
      </trkpt>
      <trkpt lat="49.8535" lon="2.27827">
        <ele>110.3</ele>
        <time>2022-10-29T13:25:56Z</time>
      </trkpt>
      <trkpt lat="49.8535" lon="2.27827">
        <ele>110.3</ele>
        <time>2022-10-29T13:25:57Z</time>
      </trkpt>
      <trkpt lat="49.8535" lon="2.27827">
        <ele>110.3</ele>
        <time>2022-10-29T13:25:58Z</time>
      </trkpt>
      <trkpt lat="49.8535" lon="2.27827">
        <ele>110.3</ele>
        <time>2022-10-29T13:25:59Z</time>
      </trkpt>
      <trkpt lat="49.8535" lon="2.27827">
        <ele>110.3</ele>
        <time>2022-10-29T13:26:00Z</time>
      </trkpt>
      <trkpt lat="49.8535" lon="2.27828">
        <ele>110.3</ele>
        <time>2022-10-29T13:26:01Z</time>
      </trkpt>
      <trkpt lat="49.8535" lon="2.27828">
        <ele>110.3</ele>
        <time>2022-10-29T13:26:02Z</time>
      </trkpt>
      <trkpt lat="49.8535" lon="2.27828">
        <ele>110.3</ele>
        <time>2022-10-29T13:26:03Z</time>
      </trkpt>
      <trkpt lat="49.8535" lon="2.27828">
        <ele>110.3</ele>
        <time>2022-10-29T13:26:04Z</time>
      </trkpt>
      <trkpt lat="49.8535" lon="2.27829">
        <ele>110.3</ele>
        <time>2022-10-29T13:26:05Z</time>
      </trkpt>
      <trkpt lat="49.8535" lon="2.27829">
        <ele>110.3</ele>
        <time>2022-10-29T13:26:06Z</time>
      </trkpt>
      <trkpt lat="49.8535" lon="2.27829">
        <ele>110.3</ele>
        <time>2022-10-29T13:26:07Z</time>
      </trkpt>
      <trkpt lat="49.8535" lon="2.27829">
        <ele>110.3</ele>
        <time>2022-10-29T13:26:08Z</time>
      </trkpt>
      <trkpt lat="49.8535" lon="2.27829">
        <ele>110.3</ele>
        <time>2022-10-29T13:26:09Z</time>
      </trkpt>
      <trkpt lat="49.8535" lon="2.27829">
        <ele>110.3</ele>
        <time>2022-10-29T13:26:10Z</time>
      </trkpt>
      <trkpt lat="49.8535" lon="2.27829">
        <ele>110.3</ele>
        <time>2022-10-29T13:26:11Z</time>
      </trkpt>
      <trkpt lat="49.8535" lon="2.27829">
        <ele>110.3</ele>
        <time>2022-10-29T13:26:12Z</time>
      </trkpt>
      <trkpt lat="49.8535" lon="2.27829">
        <ele>110.3</ele>
        <time>2022-10-29T13:26:13Z</time>
      </trkpt>
      <trkpt lat="49.8535" lon="2.27829">
        <ele>110.3</ele>
        <time>2022-10-29T13:26:14Z</time>
      </trkpt>
      <trkpt lat="49.8535" lon="2.27829">
        <ele>110.3</ele>
        <time>2022-10-29T13:26:15Z</time>
      </trkpt>
      <trkpt lat="49.8535" lon="2.27829">
        <ele>110.3</ele>
        <time>2022-10-29T13:26:16Z</time>
      </trkpt>
      <trkpt lat="49.8535" lon="2.27829">
        <ele>110.3</ele>
        <time>2022-10-29T13:26:17Z</time>
      </trkpt>
      <trkpt lat="49.8535" lon="2.27828">
        <ele>110.3</ele>
        <time>2022-10-29T13:26:18Z</time>
      </trkpt>
      <trkpt lat="49.8535" lon="2.27827">
        <ele>110.3</ele>
        <time>2022-10-29T13:26:19Z</time>
      </trkpt>
      <trkpt lat="49.8535" lon="2.27827">
        <ele>110.3</ele>
        <time>2022-10-29T13:26:20Z</time>
      </trkpt>
      <trkpt lat="49.8535" lon="2.27826">
        <ele>110.3</ele>
        <time>2022-10-29T13:26:21Z</time>
      </trkpt>
      <trkpt lat="49.8535" lon="2.27826">
        <ele>110.3</ele>
        <time>2022-10-29T13:26:22Z</time>
      </trkpt>
      <trkpt lat="49.8535" lon="2.27826">
        <ele>110.3</ele>
        <time>2022-10-29T13:26:23Z</time>
      </trkpt>
      <trkpt lat="49.8535" lon="2.27826">
        <ele>110.3</ele>
        <time>2022-10-29T13:26:24Z</time>
      </trkpt>
      <trkpt lat="49.8535" lon="2.27826">
        <ele>110.3</ele>
        <time>2022-10-29T13:26:25Z</time>
      </trkpt>
      <trkpt lat="49.8535" lon="2.27826">
        <ele>110.3</ele>
        <time>2022-10-29T13:26:26Z</time>
      </trkpt>
      <trkpt lat="49.8535" lon="2.27827">
        <ele>110.3</ele>
        <time>2022-10-29T13:26:27Z</time>
      </trkpt>
      <trkpt lat="49.8535" lon="2.27827">
        <ele>110.3</ele>
        <time>2022-10-29T13:26:28Z</time>
      </trkpt>
      <trkpt lat="49.8535" lon="2.27827">
        <ele>110.3</ele>
        <time>2022-10-29T13:26:29Z</time>
      </trkpt>
      <trkpt lat="49.8535" lon="2.27827">
        <ele>110.3</ele>
        <time>2022-10-29T13:26:30Z</time>
      </trkpt>
      <trkpt lat="49.8535" lon="2.27827">
        <ele>110.3</ele>
        <time>2022-10-29T13:26:31Z</time>
      </trkpt>
      <trkpt lat="49.8535" lon="2.27827">
        <ele>110.3</ele>
        <time>2022-10-29T13:26:32Z</time>
      </trkpt>
      <trkpt lat="49.8535" lon="2.27827">
        <ele>110.3</ele>
        <time>2022-10-29T13:26:33Z</time>
      </trkpt>
      <trkpt lat="49.8535" lon="2.27827">
        <ele>110.3</ele>
        <time>2022-10-29T13:26:34Z</time>
      </trkpt>
      <trkpt lat="49.8535" lon="2.27827">
        <ele>110.3</ele>
        <time>2022-10-29T13:26:35Z</time>
      </trkpt>
      <trkpt lat="49.8535" lon="2.27827">
        <ele>110.3</ele>
        <time>2022-10-29T13:26:36Z</time>
      </trkpt>
      <trkpt lat="49.8535" lon="2.27827">
        <ele>110.3</ele>
        <time>2022-10-29T13:26:37Z</time>
      </trkpt>
      <trkpt lat="49.8535" lon="2.27827">
        <ele>110.3</ele>
        <time>2022-10-29T13:26:38Z</time>
      </trkpt>
      <trkpt lat="49.8535" lon="2.27827">
        <ele>110.3</ele>
        <time>2022-10-29T13:26:39Z</time>
      </trkpt>
      <trkpt lat="49.8535" lon="2.27827">
        <ele>110.3</ele>
        <time>2022-10-29T13:26:40Z</time>
      </trkpt>
      <trkpt lat="49.8535" lon="2.27827">
        <ele>110.3</ele>
        <time>2022-10-29T13:26:41Z</time>
      </trkpt>
      <trkpt lat="49.8535" lon="2.27827">
        <ele>110.3</ele>
        <time>2022-10-29T13:26:42Z</time>
      </trkpt>
      <trkpt lat="49.8535" lon="2.27827">
        <ele>110.3</ele>
        <time>2022-10-29T13:26:43Z</time>
      </trkpt>
      <trkpt lat="49.8535" lon="2.27827">
        <ele>110.3</ele>
        <time>2022-10-29T13:26:44Z</time>
      </trkpt>
      <trkpt lat="49.8535" lon="2.27827">
        <ele>110.3</ele>
        <time>2022-10-29T13:26:45Z</time>
      </trkpt>
      <trkpt lat="49.8535" lon="2.27827">
        <ele>110.3</ele>
        <time>2022-10-29T13:26:46Z</time>
      </trkpt>
      <trkpt lat="49.8535" lon="2.27827">
        <ele>110.3</ele>
        <time>2022-10-29T13:26:47Z</time>
      </trkpt>
      <trkpt lat="49.8535" lon="2.27827">
        <ele>110.3</ele>
        <time>2022-10-29T13:26:48Z</time>
      </trkpt>
      <trkpt lat="49.8535" lon="2.27827">
        <ele>110.3</ele>
        <time>2022-10-29T13:26:49Z</time>
      </trkpt>
      <trkpt lat="49.8535" lon="2.27827">
        <ele>110.3</ele>
        <time>2022-10-29T13:26:50Z</time>
      </trkpt>
      <trkpt lat="49.8535" lon="2.27827">
        <ele>110.3</ele>
        <time>2022-10-29T13:26:51Z</time>
      </trkpt>
      <trkpt lat="49.8535" lon="2.27827">
        <ele>110.3</ele>
        <time>2022-10-29T13:26:52Z</time>
      </trkpt>
      <trkpt lat="49.8535" lon="2.27827">
        <ele>110.3</ele>
        <time>2022-10-29T13:26:53Z</time>
      </trkpt>
      <trkpt lat="49.8535" lon="2.27827">
        <ele>110.3</ele>
        <time>2022-10-29T13:26:54Z</time>
      </trkpt>
      <trkpt lat="49.8535" lon="2.27827">
        <ele>110.3</ele>
        <time>2022-10-29T13:26:55Z</time>
      </trkpt>
      <trkpt lat="49.8535" lon="2.27827">
        <ele>110.3</ele>
        <time>2022-10-29T13:26:56Z</time>
      </trkpt>
      <trkpt lat="49.8535" lon="2.27827">
        <ele>110.3</ele>
        <time>2022-10-29T13:26:57Z</time>
      </trkpt>
      <trkpt lat="49.8535" lon="2.27827">
        <ele>110.3</ele>
        <time>2022-10-29T13:26:58Z</time>
      </trkpt>
      <trkpt lat="49.8535" lon="2.27827">
        <ele>110.3</ele>
        <time>2022-10-29T13:26:59Z</time>
      </trkpt>
      <trkpt lat="49.8535" lon="2.27827">
        <ele>110.3</ele>
        <time>2022-10-29T13:27:00Z</time>
      </trkpt>
      <trkpt lat="49.8535" lon="2.27827">
        <ele>110.3</ele>
        <time>2022-10-29T13:27:01Z</time>
      </trkpt>
      <trkpt lat="49.8535" lon="2.27827">
        <ele>110.3</ele>
        <time>2022-10-29T13:27:02Z</time>
      </trkpt>
      <trkpt lat="49.8535" lon="2.27827">
        <ele>110.3</ele>
        <time>2022-10-29T13:27:03Z</time>
      </trkpt>
      <trkpt lat="49.8535" lon="2.27827">
        <ele>110.3</ele>
        <time>2022-10-29T13:27:04Z</time>
      </trkpt>
      <trkpt lat="49.8535" lon="2.27827">
        <ele>110.3</ele>
        <time>2022-10-29T13:27:05Z</time>
      </trkpt>
      <trkpt lat="49.8535" lon="2.27827">
        <ele>110.3</ele>
        <time>2022-10-29T13:27:06Z</time>
      </trkpt>
      <trkpt lat="49.8535" lon="2.27827">
        <ele>110.3</ele>
        <time>2022-10-29T13:27:07Z</time>
      </trkpt>
      <trkpt lat="49.8535" lon="2.27827">
        <ele>110.3</ele>
        <time>2022-10-29T13:27:08Z</time>
      </trkpt>
      <trkpt lat="49.8535" lon="2.27827">
        <ele>110.3</ele>
        <time>2022-10-29T13:27:09Z</time>
      </trkpt>
      <trkpt lat="49.8535" lon="2.27827">
        <ele>110.3</ele>
        <time>2022-10-29T13:27:10Z</time>
      </trkpt>
      <trkpt lat="49.8535" lon="2.27827">
        <ele>110.3</ele>
        <time>2022-10-29T13:27:11Z</time>
      </trkpt>
      <trkpt lat="49.8535" lon="2.27827">
        <ele>110.3</ele>
        <time>2022-10-29T13:27:12Z</time>
      </trkpt>
      <trkpt lat="49.8535" lon="2.27827">
        <ele>110.3</ele>
        <time>2022-10-29T13:27:13Z</time>
      </trkpt>
      <trkpt lat="49.8535" lon="2.27827">
        <ele>110.3</ele>
        <time>2022-10-29T13:27:14Z</time>
      </trkpt>
      <trkpt lat="49.8535" lon="2.27827">
        <ele>110.3</ele>
        <time>2022-10-29T13:27:15Z</time>
      </trkpt>
      <trkpt lat="49.8535" lon="2.27827">
        <ele>110.3</ele>
        <time>2022-10-29T13:27:16Z</time>
      </trkpt>
      <trkpt lat="49.8535" lon="2.27827">
        <ele>110.3</ele>
        <time>2022-10-29T13:27:17Z</time>
      </trkpt>
      <trkpt lat="49.8535" lon="2.27827">
        <ele>110.3</ele>
        <time>2022-10-29T13:27:18Z</time>
      </trkpt>
      <trkpt lat="49.8535" lon="2.27827">
        <ele>110.3</ele>
        <time>2022-10-29T13:27:19Z</time>
      </trkpt>
      <trkpt lat="49.8535" lon="2.27827">
        <ele>110.3</ele>
        <time>2022-10-29T13:27:20Z</time>
      </trkpt>
      <trkpt lat="49.8535" lon="2.27827">
        <ele>110.3</ele>
        <time>2022-10-29T13:27:21Z</time>
      </trkpt>
      <trkpt lat="49.85349" lon="2.27827">
        <ele>110.3</ele>
        <time>2022-10-29T13:27:22Z</time>
      </trkpt>
      <trkpt lat="49.85348" lon="2.27827">
        <ele>110.3</ele>
        <time>2022-10-29T13:27:23Z</time>
      </trkpt>
      <trkpt lat="49.85346" lon="2.27828">
        <ele>110.3</ele>
        <time>2022-10-29T13:27:24Z</time>
      </trkpt>
      <trkpt lat="49.85345" lon="2.2783">
        <ele>110.3</ele>
        <time>2022-10-29T13:27:25Z</time>
      </trkpt>
      <trkpt lat="49.85344" lon="2.27831">
        <ele>110.3</ele>
        <time>2022-10-29T13:27:26Z</time>
      </trkpt>
      <trkpt lat="49.85343" lon="2.27832">
        <ele>110.3</ele>
        <time>2022-10-29T13:27:27Z</time>
      </trkpt>
      <trkpt lat="49.85342" lon="2.27833">
        <ele>110.3</ele>
        <time>2022-10-29T13:27:28Z</time>
      </trkpt>
      <trkpt lat="49.85342" lon="2.27833">
        <ele>110.3</ele>
        <time>2022-10-29T13:27:29Z</time>
      </trkpt>
      <trkpt lat="49.85341" lon="2.27833">
        <ele>110.3</ele>
        <time>2022-10-29T13:27:30Z</time>
      </trkpt>
      <trkpt lat="49.85341" lon="2.27833">
        <ele>110.3</ele>
        <time>2022-10-29T13:27:31Z</time>
      </trkpt>
      <trkpt lat="49.85341" lon="2.27833">
        <ele>110.3</ele>
        <time>2022-10-29T13:27:32Z</time>
      </trkpt>
      <trkpt lat="49.85341" lon="2.27833">
        <ele>110.3</ele>
        <time>2022-10-29T13:27:33Z</time>
      </trkpt>
      <trkpt lat="49.85341" lon="2.27833">
        <ele>110.3</ele>
        <time>2022-10-29T13:27:34Z</time>
      </trkpt>
      <trkpt lat="49.85341" lon="2.27833">
        <ele>110.3</ele>
        <time>2022-10-29T13:27:35Z</time>
      </trkpt>
      <trkpt lat="49.85341" lon="2.27832">
        <ele>110.3</ele>
        <time>2022-10-29T13:27:36Z</time>
      </trkpt>
      <trkpt lat="49.85341" lon="2.27832">
        <ele>110.3</ele>
        <time>2022-10-29T13:27:37Z</time>
      </trkpt>
      <trkpt lat="49.85341" lon="2.27832">
        <ele>110.3</ele>
        <time>2022-10-29T13:27:38Z</time>
      </trkpt>
      <trkpt lat="49.85341" lon="2.27832">
        <ele>110.3</ele>
        <time>2022-10-29T13:27:39Z</time>
      </trkpt>
      <trkpt lat="49.85341" lon="2.27832">
        <ele>110.3</ele>
        <time>2022-10-29T13:27:40Z</time>
      </trkpt>
      <trkpt lat="49.8534" lon="2.27833">
        <ele>110.3</ele>
        <time>2022-10-29T13:27:41Z</time>
      </trkpt>
      <trkpt lat="49.8534" lon="2.27833">
        <ele>110.3</ele>
        <time>2022-10-29T13:27:42Z</time>
      </trkpt>
      <trkpt lat="49.85339" lon="2.27833">
        <ele>110.3</ele>
        <time>2022-10-29T13:27:43Z</time>
      </trkpt>
      <trkpt lat="49.85339" lon="2.27832">
        <ele>110.3</ele>
        <time>2022-10-29T13:27:44Z</time>
      </trkpt>
      <trkpt lat="49.85339" lon="2.27832">
        <ele>110.3</ele>
        <time>2022-10-29T13:27:45Z</time>
      </trkpt>
      <trkpt lat="49.85339" lon="2.27832">
        <ele>110.3</ele>
        <time>2022-10-29T13:27:46Z</time>
      </trkpt>
      <trkpt lat="49.85339" lon="2.27831">
        <ele>110.3</ele>
        <time>2022-10-29T13:27:47Z</time>
      </trkpt>
      <trkpt lat="49.85339" lon="2.27831">
        <ele>110.3</ele>
        <time>2022-10-29T13:27:48Z</time>
      </trkpt>
      <trkpt lat="49.85339" lon="2.27831">
        <ele>110.3</ele>
        <time>2022-10-29T13:27:49Z</time>
      </trkpt>
      <trkpt lat="49.85339" lon="2.27831">
        <ele>110.3</ele>
        <time>2022-10-29T13:27:50Z</time>
      </trkpt>
      <trkpt lat="49.85339" lon="2.27832">
        <ele>110.3</ele>
        <time>2022-10-29T13:27:51Z</time>
      </trkpt>
      <trkpt lat="49.85338" lon="2.27832">
        <ele>110.3</ele>
        <time>2022-10-29T13:27:52Z</time>
      </trkpt>
      <trkpt lat="49.85338" lon="2.27832">
        <ele>110.3</ele>
        <time>2022-10-29T13:27:53Z</time>
      </trkpt>
      <trkpt lat="49.85338" lon="2.27833">
        <ele>110.3</ele>
        <time>2022-10-29T13:27:54Z</time>
      </trkpt>
      <trkpt lat="49.85338" lon="2.27833">
        <ele>110.3</ele>
        <time>2022-10-29T13:27:55Z</time>
      </trkpt>
      <trkpt lat="49.85338" lon="2.27832">
        <ele>110.3</ele>
        <time>2022-10-29T13:27:56Z</time>
      </trkpt>
      <trkpt lat="49.85338" lon="2.27832">
        <ele>110.3</ele>
        <time>2022-10-29T13:27:57Z</time>
      </trkpt>
      <trkpt lat="49.85338" lon="2.27832">
        <ele>110.2</ele>
        <time>2022-10-29T13:27:58Z</time>
      </trkpt>
      <trkpt lat="49.85338" lon="2.27832">
        <ele>110.2</ele>
        <time>2022-10-29T13:27:59Z</time>
      </trkpt>
      <trkpt lat="49.85338" lon="2.27832">
        <ele>110.2</ele>
        <time>2022-10-29T13:28:00Z</time>
      </trkpt>
      <trkpt lat="49.85338" lon="2.27832">
        <ele>110.2</ele>
        <time>2022-10-29T13:28:01Z</time>
      </trkpt>
      <trkpt lat="49.85338" lon="2.27832">
        <ele>110.2</ele>
        <time>2022-10-29T13:28:02Z</time>
      </trkpt>
      <trkpt lat="49.85338" lon="2.27832">
        <ele>110.2</ele>
        <time>2022-10-29T13:28:03Z</time>
      </trkpt>
      <trkpt lat="49.85338" lon="2.27832">
        <ele>110.2</ele>
        <time>2022-10-29T13:28:04Z</time>
      </trkpt>
      <trkpt lat="49.85338" lon="2.27832">
        <ele>110.2</ele>
        <time>2022-10-29T13:28:05Z</time>
      </trkpt>
      <trkpt lat="49.85338" lon="2.27832">
        <ele>110.2</ele>
        <time>2022-10-29T13:28:06Z</time>
      </trkpt>
      <trkpt lat="49.85338" lon="2.27832">
        <ele>110.2</ele>
        <time>2022-10-29T13:28:07Z</time>
      </trkpt>
      <trkpt lat="49.85338" lon="2.27832">
        <ele>110.2</ele>
        <time>2022-10-29T13:28:08Z</time>
      </trkpt>
      <trkpt lat="49.85338" lon="2.27832">
        <ele>110.2</ele>
        <time>2022-10-29T13:28:09Z</time>
      </trkpt>
      <trkpt lat="49.85338" lon="2.27832">
        <ele>110.2</ele>
        <time>2022-10-29T13:28:10Z</time>
      </trkpt>
      <trkpt lat="49.85338" lon="2.27832">
        <ele>110.2</ele>
        <time>2022-10-29T13:28:11Z</time>
      </trkpt>
      <trkpt lat="49.85338" lon="2.27832">
        <ele>110.2</ele>
        <time>2022-10-29T13:28:12Z</time>
      </trkpt>
      <trkpt lat="49.85338" lon="2.27832">
        <ele>110.2</ele>
        <time>2022-10-29T13:28:13Z</time>
      </trkpt>
      <trkpt lat="49.85338" lon="2.27832">
        <ele>110.2</ele>
        <time>2022-10-29T13:28:14Z</time>
      </trkpt>
      <trkpt lat="49.85338" lon="2.27832">
        <ele>110.2</ele>
        <time>2022-10-29T13:28:15Z</time>
      </trkpt>
      <trkpt lat="49.85338" lon="2.27832">
        <ele>110.2</ele>
        <time>2022-10-29T13:28:16Z</time>
      </trkpt>
      <trkpt lat="49.85338" lon="2.27832">
        <ele>110.2</ele>
        <time>2022-10-29T13:28:17Z</time>
      </trkpt>
      <trkpt lat="49.85337" lon="2.27832">
        <ele>110.2</ele>
        <time>2022-10-29T13:28:18Z</time>
      </trkpt>
      <trkpt lat="49.85336" lon="2.27832">
        <ele>110.2</ele>
        <time>2022-10-29T13:28:19Z</time>
      </trkpt>
      <trkpt lat="49.85336" lon="2.27832">
        <ele>110.2</ele>
        <time>2022-10-29T13:28:20Z</time>
      </trkpt>
      <trkpt lat="49.85336" lon="2.27833">
        <ele>110.2</ele>
        <time>2022-10-29T13:28:21Z</time>
      </trkpt>
      <trkpt lat="49.85336" lon="2.27833">
        <ele>110.2</ele>
        <time>2022-10-29T13:28:22Z</time>
      </trkpt>
      <trkpt lat="49.85335" lon="2.27833">
        <ele>110.2</ele>
        <time>2022-10-29T13:28:23Z</time>
      </trkpt>
      <trkpt lat="49.85335" lon="2.27833">
        <ele>110.2</ele>
        <time>2022-10-29T13:28:24Z</time>
      </trkpt>
      <trkpt lat="49.85335" lon="2.27833">
        <ele>110.2</ele>
        <time>2022-10-29T13:28:25Z</time>
      </trkpt>
      <trkpt lat="49.85335" lon="2.27834">
        <ele>110.2</ele>
        <time>2022-10-29T13:28:26Z</time>
      </trkpt>
      <trkpt lat="49.85334" lon="2.27834">
        <ele>110.2</ele>
        <time>2022-10-29T13:28:27Z</time>
      </trkpt>
      <trkpt lat="49.85332" lon="2.27834">
        <ele>110.2</ele>
        <time>2022-10-29T13:28:28Z</time>
      </trkpt>
      <trkpt lat="49.85331" lon="2.27835">
        <ele>110.2</ele>
        <time>2022-10-29T13:28:29Z</time>
      </trkpt>
      <trkpt lat="49.85331" lon="2.27835">
        <ele>110.2</ele>
        <time>2022-10-29T13:28:30Z</time>
      </trkpt>
      <trkpt lat="49.85331" lon="2.27835">
        <ele>110.2</ele>
        <time>2022-10-29T13:28:31Z</time>
      </trkpt>
      <trkpt lat="49.85331" lon="2.27835">
        <ele>110.2</ele>
        <time>2022-10-29T13:28:32Z</time>
      </trkpt>
      <trkpt lat="49.85331" lon="2.27835">
        <ele>110.2</ele>
        <time>2022-10-29T13:28:33Z</time>
      </trkpt>
      <trkpt lat="49.85331" lon="2.27835">
        <ele>110.2</ele>
        <time>2022-10-29T13:28:34Z</time>
      </trkpt>
      <trkpt lat="49.8533" lon="2.27835">
        <ele>110.2</ele>
        <time>2022-10-29T13:28:35Z</time>
      </trkpt>
      <trkpt lat="49.8533" lon="2.27835">
        <ele>110.2</ele>
        <time>2022-10-29T13:28:36Z</time>
      </trkpt>
      <trkpt lat="49.8533" lon="2.27835">
        <ele>110.2</ele>
        <time>2022-10-29T13:28:37Z</time>
      </trkpt>
      <trkpt lat="49.8533" lon="2.27835">
        <ele>110.2</ele>
        <time>2022-10-29T13:28:38Z</time>
      </trkpt>
      <trkpt lat="49.8533" lon="2.27835">
        <ele>110.2</ele>
        <time>2022-10-29T13:28:39Z</time>
      </trkpt>
      <trkpt lat="49.8533" lon="2.27835">
        <ele>110.2</ele>
        <time>2022-10-29T13:28:40Z</time>
      </trkpt>
      <trkpt lat="49.8533" lon="2.27835">
        <ele>110.2</ele>
        <time>2022-10-29T13:28:41Z</time>
      </trkpt>
      <trkpt lat="49.8533" lon="2.27835">
        <ele>110.2</ele>
        <time>2022-10-29T13:28:42Z</time>
      </trkpt>
      <trkpt lat="49.8533" lon="2.27835">
        <ele>110.2</ele>
        <time>2022-10-29T13:28:43Z</time>
      </trkpt>
      <trkpt lat="49.8533" lon="2.27835">
        <ele>110.2</ele>
        <time>2022-10-29T13:28:44Z</time>
      </trkpt>
      <trkpt lat="49.8533" lon="2.27835">
        <ele>110.2</ele>
        <time>2022-10-29T13:28:45Z</time>
      </trkpt>
      <trkpt lat="49.8533" lon="2.27835">
        <ele>110.2</ele>
        <time>2022-10-29T13:28:46Z</time>
      </trkpt>
      <trkpt lat="49.8533" lon="2.27835">
        <ele>110.2</ele>
        <time>2022-10-29T13:28:47Z</time>
      </trkpt>
      <trkpt lat="49.8533" lon="2.27835">
        <ele>110.2</ele>
        <time>2022-10-29T13:28:48Z</time>
      </trkpt>
      <trkpt lat="49.8533" lon="2.27835">
        <ele>110.2</ele>
        <time>2022-10-29T13:28:49Z</time>
      </trkpt>
      <trkpt lat="49.8533" lon="2.27835">
        <ele>110.2</ele>
        <time>2022-10-29T13:28:50Z</time>
      </trkpt>
      <trkpt lat="49.8533" lon="2.27835">
        <ele>110.2</ele>
        <time>2022-10-29T13:28:51Z</time>
      </trkpt>
      <trkpt lat="49.8533" lon="2.27835">
        <ele>110.2</ele>
        <time>2022-10-29T13:28:52Z</time>
      </trkpt>
      <trkpt lat="49.8533" lon="2.27835">
        <ele>110.2</ele>
        <time>2022-10-29T13:28:53Z</time>
      </trkpt>
      <trkpt lat="49.8533" lon="2.27835">
        <ele>110.2</ele>
        <time>2022-10-29T13:28:54Z</time>
      </trkpt>
      <trkpt lat="49.8533" lon="2.27835">
        <ele>110.2</ele>
        <time>2022-10-29T13:28:55Z</time>
      </trkpt>
      <trkpt lat="49.8533" lon="2.27835">
        <ele>110.2</ele>
        <time>2022-10-29T13:28:56Z</time>
      </trkpt>
      <trkpt lat="49.8533" lon="2.27835">
        <ele>110.2</ele>
        <time>2022-10-29T13:28:57Z</time>
      </trkpt>
      <trkpt lat="49.8533" lon="2.27835">
        <ele>110.2</ele>
        <time>2022-10-29T13:28:58Z</time>
      </trkpt>
      <trkpt lat="49.8533" lon="2.27835">
        <ele>110.2</ele>
        <time>2022-10-29T13:28:59Z</time>
      </trkpt>
      <trkpt lat="49.8533" lon="2.27835">
        <ele>110.2</ele>
        <time>2022-10-29T13:29:00Z</time>
      </trkpt>
      <trkpt lat="49.8533" lon="2.27835">
        <ele>110.2</ele>
        <time>2022-10-29T13:29:01Z</time>
      </trkpt>
      <trkpt lat="49.8533" lon="2.27835">
        <ele>110.2</ele>
        <time>2022-10-29T13:29:02Z</time>
      </trkpt>
      <trkpt lat="49.8533" lon="2.27835">
        <ele>110.2</ele>
        <time>2022-10-29T13:29:03Z</time>
      </trkpt>
      <trkpt lat="49.8533" lon="2.27835">
        <ele>110.2</ele>
        <time>2022-10-29T13:29:04Z</time>
      </trkpt>
      <trkpt lat="49.8533" lon="2.27835">
        <ele>110.2</ele>
        <time>2022-10-29T13:29:05Z</time>
      </trkpt>
      <trkpt lat="49.8533" lon="2.27835">
        <ele>110.2</ele>
        <time>2022-10-29T13:29:06Z</time>
      </trkpt>
      <trkpt lat="49.8533" lon="2.27835">
        <ele>110.2</ele>
        <time>2022-10-29T13:29:07Z</time>
      </trkpt>
      <trkpt lat="49.8533" lon="2.27835">
        <ele>110.2</ele>
        <time>2022-10-29T13:29:08Z</time>
      </trkpt>
      <trkpt lat="49.8533" lon="2.27835">
        <ele>110.2</ele>
        <time>2022-10-29T13:29:09Z</time>
      </trkpt>
      <trkpt lat="49.8533" lon="2.27835">
        <ele>110.2</ele>
        <time>2022-10-29T13:29:10Z</time>
      </trkpt>
      <trkpt lat="49.8533" lon="2.27835">
        <ele>110.2</ele>
        <time>2022-10-29T13:29:11Z</time>
      </trkpt>
      <trkpt lat="49.8533" lon="2.27835">
        <ele>110.2</ele>
        <time>2022-10-29T13:29:12Z</time>
      </trkpt>
      <trkpt lat="49.8533" lon="2.27835">
        <ele>110.2</ele>
        <time>2022-10-29T13:29:13Z</time>
      </trkpt>
      <trkpt lat="49.8533" lon="2.27835">
        <ele>110.2</ele>
        <time>2022-10-29T13:29:14Z</time>
      </trkpt>
      <trkpt lat="49.8533" lon="2.27835">
        <ele>110.2</ele>
        <time>2022-10-29T13:29:15Z</time>
      </trkpt>
      <trkpt lat="49.8533" lon="2.27835">
        <ele>110.2</ele>
        <time>2022-10-29T13:29:16Z</time>
      </trkpt>
      <trkpt lat="49.8533" lon="2.27835">
        <ele>110.2</ele>
        <time>2022-10-29T13:29:17Z</time>
      </trkpt>
      <trkpt lat="49.8533" lon="2.27835">
        <ele>110.2</ele>
        <time>2022-10-29T13:29:18Z</time>
      </trkpt>
      <trkpt lat="49.8533" lon="2.27835">
        <ele>110.2</ele>
        <time>2022-10-29T13:29:19Z</time>
      </trkpt>
      <trkpt lat="49.8533" lon="2.27835">
        <ele>110.2</ele>
        <time>2022-10-29T13:29:20Z</time>
      </trkpt>
      <trkpt lat="49.8533" lon="2.27835">
        <ele>110.2</ele>
        <time>2022-10-29T13:29:21Z</time>
      </trkpt>
      <trkpt lat="49.8533" lon="2.27835">
        <ele>110.2</ele>
        <time>2022-10-29T13:29:22Z</time>
      </trkpt>
      <trkpt lat="49.8533" lon="2.27835">
        <ele>110.2</ele>
        <time>2022-10-29T13:29:23Z</time>
      </trkpt>
      <trkpt lat="49.8533" lon="2.27835">
        <ele>110.2</ele>
        <time>2022-10-29T13:29:24Z</time>
      </trkpt>
      <trkpt lat="49.8533" lon="2.27835">
        <ele>110.2</ele>
        <time>2022-10-29T13:29:25Z</time>
      </trkpt>
      <trkpt lat="49.8533" lon="2.27835">
        <ele>110.2</ele>
        <time>2022-10-29T13:29:26Z</time>
      </trkpt>
      <trkpt lat="49.8533" lon="2.27835">
        <ele>110.2</ele>
        <time>2022-10-29T13:29:27Z</time>
      </trkpt>
      <trkpt lat="49.8533" lon="2.27835">
        <ele>110.2</ele>
        <time>2022-10-29T13:29:28Z</time>
      </trkpt>
      <trkpt lat="49.8533" lon="2.27835">
        <ele>110.2</ele>
        <time>2022-10-29T13:29:29Z</time>
      </trkpt>
      <trkpt lat="49.8533" lon="2.27835">
        <ele>110.2</ele>
        <time>2022-10-29T13:29:30Z</time>
      </trkpt>
      <trkpt lat="49.8533" lon="2.27835">
        <ele>110.2</ele>
        <time>2022-10-29T13:29:31Z</time>
      </trkpt>
      <trkpt lat="49.8533" lon="2.27835">
        <ele>110.2</ele>
        <time>2022-10-29T13:29:32Z</time>
      </trkpt>
      <trkpt lat="49.8533" lon="2.27835">
        <ele>110.2</ele>
        <time>2022-10-29T13:29:33Z</time>
      </trkpt>
      <trkpt lat="49.8533" lon="2.27835">
        <ele>110.2</ele>
        <time>2022-10-29T13:29:34Z</time>
      </trkpt>
      <trkpt lat="49.8533" lon="2.27835">
        <ele>110.2</ele>
        <time>2022-10-29T13:29:35Z</time>
      </trkpt>
      <trkpt lat="49.8533" lon="2.27835">
        <ele>110.2</ele>
        <time>2022-10-29T13:29:36Z</time>
      </trkpt>
      <trkpt lat="49.8533" lon="2.27835">
        <ele>110.2</ele>
        <time>2022-10-29T13:29:37Z</time>
      </trkpt>
      <trkpt lat="49.8533" lon="2.27835">
        <ele>110.2</ele>
        <time>2022-10-29T13:29:38Z</time>
      </trkpt>
      <trkpt lat="49.8533" lon="2.27835">
        <ele>110.2</ele>
        <time>2022-10-29T13:29:39Z</time>
      </trkpt>
      <trkpt lat="49.8533" lon="2.27835">
        <ele>110.2</ele>
        <time>2022-10-29T13:29:40Z</time>
      </trkpt>
      <trkpt lat="49.8533" lon="2.27835">
        <ele>110.2</ele>
        <time>2022-10-29T13:29:41Z</time>
      </trkpt>
      <trkpt lat="49.8533" lon="2.27835">
        <ele>110.2</ele>
        <time>2022-10-29T13:29:42Z</time>
      </trkpt>
      <trkpt lat="49.8533" lon="2.27835">
        <ele>110.2</ele>
        <time>2022-10-29T13:29:43Z</time>
      </trkpt>
      <trkpt lat="49.8533" lon="2.27835">
        <ele>110.2</ele>
        <time>2022-10-29T13:29:44Z</time>
      </trkpt>
      <trkpt lat="49.8533" lon="2.27835">
        <ele>110.2</ele>
        <time>2022-10-29T13:29:45Z</time>
      </trkpt>
      <trkpt lat="49.8533" lon="2.27835">
        <ele>110.2</ele>
        <time>2022-10-29T13:29:46Z</time>
      </trkpt>
      <trkpt lat="49.8533" lon="2.27835">
        <ele>110.2</ele>
        <time>2022-10-29T13:29:47Z</time>
      </trkpt>
      <trkpt lat="49.8533" lon="2.27835">
        <ele>110.2</ele>
        <time>2022-10-29T13:29:48Z</time>
      </trkpt>
      <trkpt lat="49.8533" lon="2.27835">
        <ele>110.2</ele>
        <time>2022-10-29T13:29:49Z</time>
      </trkpt>
      <trkpt lat="49.8533" lon="2.27835">
        <ele>110.2</ele>
        <time>2022-10-29T13:29:50Z</time>
      </trkpt>
      <trkpt lat="49.8533" lon="2.27835">
        <ele>110.2</ele>
        <time>2022-10-29T13:29:51Z</time>
      </trkpt>
      <trkpt lat="49.8533" lon="2.27835">
        <ele>110.2</ele>
        <time>2022-10-29T13:29:52Z</time>
      </trkpt>
      <trkpt lat="49.8533" lon="2.27835">
        <ele>110.2</ele>
        <time>2022-10-29T13:29:53Z</time>
      </trkpt>
      <trkpt lat="49.8533" lon="2.27835">
        <ele>110.2</ele>
        <time>2022-10-29T13:29:54Z</time>
      </trkpt>
      <trkpt lat="49.8533" lon="2.27835">
        <ele>110.2</ele>
        <time>2022-10-29T13:29:55Z</time>
      </trkpt>
      <trkpt lat="49.8533" lon="2.27835">
        <ele>110.2</ele>
        <time>2022-10-29T13:29:56Z</time>
      </trkpt>
      <trkpt lat="49.8533" lon="2.27835">
        <ele>110.2</ele>
        <time>2022-10-29T13:29:57Z</time>
      </trkpt>
      <trkpt lat="49.8533" lon="2.27835">
        <ele>110.2</ele>
        <time>2022-10-29T13:29:58Z</time>
      </trkpt>
      <trkpt lat="49.8533" lon="2.27835">
        <ele>110.2</ele>
        <time>2022-10-29T13:29:59Z</time>
      </trkpt>
      <trkpt lat="49.8533" lon="2.27835">
        <ele>110.2</ele>
        <time>2022-10-29T13:30:00Z</time>
      </trkpt>
      <trkpt lat="49.8533" lon="2.27835">
        <ele>110.2</ele>
        <time>2022-10-29T13:30:01Z</time>
      </trkpt>
      <trkpt lat="49.8533" lon="2.27835">
        <ele>110.2</ele>
        <time>2022-10-29T13:30:02Z</time>
      </trkpt>
      <trkpt lat="49.8533" lon="2.27835">
        <ele>110.2</ele>
        <time>2022-10-29T13:30:03Z</time>
      </trkpt>
      <trkpt lat="49.8533" lon="2.27835">
        <ele>110.2</ele>
        <time>2022-10-29T13:30:04Z</time>
      </trkpt>
      <trkpt lat="49.8533" lon="2.27835">
        <ele>110.2</ele>
        <time>2022-10-29T13:30:05Z</time>
      </trkpt>
      <trkpt lat="49.8533" lon="2.27835">
        <ele>110.2</ele>
        <time>2022-10-29T13:30:06Z</time>
      </trkpt>
      <trkpt lat="49.8533" lon="2.27835">
        <ele>110.2</ele>
        <time>2022-10-29T13:30:07Z</time>
      </trkpt>
      <trkpt lat="49.8533" lon="2.27835">
        <ele>110.2</ele>
        <time>2022-10-29T13:30:08Z</time>
      </trkpt>
      <trkpt lat="49.8533" lon="2.27835">
        <ele>110.2</ele>
        <time>2022-10-29T13:30:09Z</time>
      </trkpt>
      <trkpt lat="49.8533" lon="2.27835">
        <ele>110.2</ele>
        <time>2022-10-29T13:30:10Z</time>
      </trkpt>
      <trkpt lat="49.8533" lon="2.27835">
        <ele>110.2</ele>
        <time>2022-10-29T13:30:11Z</time>
      </trkpt>
      <trkpt lat="49.8533" lon="2.27835">
        <ele>110.2</ele>
        <time>2022-10-29T13:30:12Z</time>
      </trkpt>
      <trkpt lat="49.8533" lon="2.27835">
        <ele>110.2</ele>
        <time>2022-10-29T13:30:13Z</time>
      </trkpt>
      <trkpt lat="49.8533" lon="2.27835">
        <ele>110.2</ele>
        <time>2022-10-29T13:30:14Z</time>
      </trkpt>
      <trkpt lat="49.8533" lon="2.27835">
        <ele>110.2</ele>
        <time>2022-10-29T13:30:15Z</time>
      </trkpt>
      <trkpt lat="49.8533" lon="2.27835">
        <ele>110.2</ele>
        <time>2022-10-29T13:30:16Z</time>
      </trkpt>
      <trkpt lat="49.8533" lon="2.27835">
        <ele>110.2</ele>
        <time>2022-10-29T13:30:17Z</time>
      </trkpt>
      <trkpt lat="49.8533" lon="2.27835">
        <ele>110.2</ele>
        <time>2022-10-29T13:30:18Z</time>
      </trkpt>
      <trkpt lat="49.8533" lon="2.27835">
        <ele>110.2</ele>
        <time>2022-10-29T13:30:19Z</time>
      </trkpt>
      <trkpt lat="49.8533" lon="2.27835">
        <ele>110.2</ele>
        <time>2022-10-29T13:30:20Z</time>
      </trkpt>
      <trkpt lat="49.8533" lon="2.27835">
        <ele>110.2</ele>
        <time>2022-10-29T13:30:21Z</time>
      </trkpt>
      <trkpt lat="49.8533" lon="2.27835">
        <ele>110.2</ele>
        <time>2022-10-29T13:30:22Z</time>
      </trkpt>
      <trkpt lat="49.8533" lon="2.27835">
        <ele>110.2</ele>
        <time>2022-10-29T13:30:23Z</time>
      </trkpt>
      <trkpt lat="49.8533" lon="2.27835">
        <ele>110.2</ele>
        <time>2022-10-29T13:30:24Z</time>
      </trkpt>
      <trkpt lat="49.8533" lon="2.27835">
        <ele>110.2</ele>
        <time>2022-10-29T13:30:25Z</time>
      </trkpt>
      <trkpt lat="49.8533" lon="2.27835">
        <ele>110.2</ele>
        <time>2022-10-29T13:30:26Z</time>
      </trkpt>
      <trkpt lat="49.8533" lon="2.27835">
        <ele>110.2</ele>
        <time>2022-10-29T13:30:27Z</time>
      </trkpt>
      <trkpt lat="49.8533" lon="2.27835">
        <ele>110.2</ele>
        <time>2022-10-29T13:30:28Z</time>
      </trkpt>
      <trkpt lat="49.8533" lon="2.27835">
        <ele>110.2</ele>
        <time>2022-10-29T13:30:29Z</time>
      </trkpt>
      <trkpt lat="49.8533" lon="2.27835">
        <ele>110.2</ele>
        <time>2022-10-29T13:30:30Z</time>
      </trkpt>
      <trkpt lat="49.8533" lon="2.27835">
        <ele>110.2</ele>
        <time>2022-10-29T13:30:31Z</time>
      </trkpt>
      <trkpt lat="49.8533" lon="2.27835">
        <ele>110.2</ele>
        <time>2022-10-29T13:30:32Z</time>
      </trkpt>
      <trkpt lat="49.8533" lon="2.27835">
        <ele>110.2</ele>
        <time>2022-10-29T13:30:33Z</time>
      </trkpt>
      <trkpt lat="49.8533" lon="2.27835">
        <ele>110.2</ele>
        <time>2022-10-29T13:30:34Z</time>
      </trkpt>
      <trkpt lat="49.8533" lon="2.27835">
        <ele>110.2</ele>
        <time>2022-10-29T13:30:35Z</time>
      </trkpt>
      <trkpt lat="49.8533" lon="2.27835">
        <ele>110.2</ele>
        <time>2022-10-29T13:30:36Z</time>
      </trkpt>
      <trkpt lat="49.8533" lon="2.27835">
        <ele>110.2</ele>
        <time>2022-10-29T13:30:37Z</time>
      </trkpt>
      <trkpt lat="49.8533" lon="2.27835">
        <ele>110.2</ele>
        <time>2022-10-29T13:30:38Z</time>
      </trkpt>
      <trkpt lat="49.8533" lon="2.27835">
        <ele>110.2</ele>
        <time>2022-10-29T13:30:39Z</time>
      </trkpt>
      <trkpt lat="49.8533" lon="2.27835">
        <ele>110.2</ele>
        <time>2022-10-29T13:30:40Z</time>
      </trkpt>
      <trkpt lat="49.8533" lon="2.27835">
        <ele>110.2</ele>
        <time>2022-10-29T13:30:41Z</time>
      </trkpt>
      <trkpt lat="49.8533" lon="2.27835">
        <ele>110.2</ele>
        <time>2022-10-29T13:30:42Z</time>
      </trkpt>
      <trkpt lat="49.8533" lon="2.27835">
        <ele>110.2</ele>
        <time>2022-10-29T13:30:43Z</time>
      </trkpt>
      <trkpt lat="49.8533" lon="2.27835">
        <ele>110.2</ele>
        <time>2022-10-29T13:30:44Z</time>
      </trkpt>
      <trkpt lat="49.8533" lon="2.27835">
        <ele>110.2</ele>
        <time>2022-10-29T13:30:45Z</time>
      </trkpt>
      <trkpt lat="49.8533" lon="2.27835">
        <ele>110.2</ele>
        <time>2022-10-29T13:30:46Z</time>
      </trkpt>
      <trkpt lat="49.8533" lon="2.27835">
        <ele>110.2</ele>
        <time>2022-10-29T13:30:47Z</time>
      </trkpt>
      <trkpt lat="49.8533" lon="2.27835">
        <ele>110.2</ele>
        <time>2022-10-29T13:30:48Z</time>
      </trkpt>
      <trkpt lat="49.8533" lon="2.27835">
        <ele>110.2</ele>
        <time>2022-10-29T13:30:49Z</time>
      </trkpt>
      <trkpt lat="49.8533" lon="2.27835">
        <ele>110.2</ele>
        <time>2022-10-29T13:30:50Z</time>
      </trkpt>
      <trkpt lat="49.8533" lon="2.27835">
        <ele>110.2</ele>
        <time>2022-10-29T13:30:51Z</time>
      </trkpt>
      <trkpt lat="49.8533" lon="2.27835">
        <ele>110.2</ele>
        <time>2022-10-29T13:30:52Z</time>
      </trkpt>
      <trkpt lat="49.8533" lon="2.27835">
        <ele>110.2</ele>
        <time>2022-10-29T13:30:53Z</time>
      </trkpt>
      <trkpt lat="49.8533" lon="2.27835">
        <ele>110.2</ele>
        <time>2022-10-29T13:30:54Z</time>
      </trkpt>
      <trkpt lat="49.8533" lon="2.27835">
        <ele>110.2</ele>
        <time>2022-10-29T13:30:55Z</time>
      </trkpt>
      <trkpt lat="49.8533" lon="2.27835">
        <ele>110.2</ele>
        <time>2022-10-29T13:30:56Z</time>
      </trkpt>
      <trkpt lat="49.8533" lon="2.27835">
        <ele>110.2</ele>
        <time>2022-10-29T13:30:57Z</time>
      </trkpt>
      <trkpt lat="49.8533" lon="2.27835">
        <ele>110.2</ele>
        <time>2022-10-29T13:30:58Z</time>
      </trkpt>
      <trkpt lat="49.8533" lon="2.27835">
        <ele>110.2</ele>
        <time>2022-10-29T13:30:59Z</time>
      </trkpt>
      <trkpt lat="49.8533" lon="2.27835">
        <ele>110.2</ele>
        <time>2022-10-29T13:31:00Z</time>
      </trkpt>
      <trkpt lat="49.8533" lon="2.27835">
        <ele>110.2</ele>
        <time>2022-10-29T13:31:01Z</time>
      </trkpt>
      <trkpt lat="49.8533" lon="2.27835">
        <ele>110.2</ele>
        <time>2022-10-29T13:31:02Z</time>
      </trkpt>
      <trkpt lat="49.8533" lon="2.27835">
        <ele>110.2</ele>
        <time>2022-10-29T13:31:03Z</time>
      </trkpt>
      <trkpt lat="49.8533" lon="2.27835">
        <ele>110.2</ele>
        <time>2022-10-29T13:31:04Z</time>
      </trkpt>
      <trkpt lat="49.8533" lon="2.27835">
        <ele>110.2</ele>
        <time>2022-10-29T13:31:05Z</time>
      </trkpt>
      <trkpt lat="49.8533" lon="2.27835">
        <ele>110.2</ele>
        <time>2022-10-29T13:31:06Z</time>
      </trkpt>
      <trkpt lat="49.8533" lon="2.27835">
        <ele>110.2</ele>
        <time>2022-10-29T13:31:07Z</time>
      </trkpt>
      <trkpt lat="49.8533" lon="2.27835">
        <ele>110.2</ele>
        <time>2022-10-29T13:31:08Z</time>
      </trkpt>
      <trkpt lat="49.8533" lon="2.27835">
        <ele>110.2</ele>
        <time>2022-10-29T13:31:09Z</time>
      </trkpt>
      <trkpt lat="49.8533" lon="2.27835">
        <ele>110.2</ele>
        <time>2022-10-29T13:31:10Z</time>
      </trkpt>
      <trkpt lat="49.8533" lon="2.27835">
        <ele>110.2</ele>
        <time>2022-10-29T13:31:11Z</time>
      </trkpt>
      <trkpt lat="49.8533" lon="2.27835">
        <ele>110.2</ele>
        <time>2022-10-29T13:31:12Z</time>
      </trkpt>
      <trkpt lat="49.8533" lon="2.27835">
        <ele>110.2</ele>
        <time>2022-10-29T13:31:13Z</time>
      </trkpt>
      <trkpt lat="49.8533" lon="2.27835">
        <ele>110.2</ele>
        <time>2022-10-29T13:31:14Z</time>
      </trkpt>
      <trkpt lat="49.8533" lon="2.27835">
        <ele>110.2</ele>
        <time>2022-10-29T13:31:15Z</time>
      </trkpt>
      <trkpt lat="49.8533" lon="2.27835">
        <ele>110.2</ele>
        <time>2022-10-29T13:31:16Z</time>
      </trkpt>
      <trkpt lat="49.8533" lon="2.27835">
        <ele>110.2</ele>
        <time>2022-10-29T13:31:17Z</time>
      </trkpt>
      <trkpt lat="49.8533" lon="2.27835">
        <ele>110.2</ele>
        <time>2022-10-29T13:31:18Z</time>
      </trkpt>
      <trkpt lat="49.8533" lon="2.27835">
        <ele>110.2</ele>
        <time>2022-10-29T13:31:19Z</time>
      </trkpt>
      <trkpt lat="49.8533" lon="2.27835">
        <ele>110.2</ele>
        <time>2022-10-29T13:31:20Z</time>
      </trkpt>
      <trkpt lat="49.8533" lon="2.27835">
        <ele>110.2</ele>
        <time>2022-10-29T13:31:21Z</time>
      </trkpt>
      <trkpt lat="49.8533" lon="2.27835">
        <ele>110.2</ele>
        <time>2022-10-29T13:31:22Z</time>
      </trkpt>
      <trkpt lat="49.8533" lon="2.27835">
        <ele>110.2</ele>
        <time>2022-10-29T13:31:23Z</time>
      </trkpt>
      <trkpt lat="49.8533" lon="2.27835">
        <ele>110.2</ele>
        <time>2022-10-29T13:31:24Z</time>
      </trkpt>
      <trkpt lat="49.8533" lon="2.27835">
        <ele>110.2</ele>
        <time>2022-10-29T13:31:25Z</time>
      </trkpt>
      <trkpt lat="49.8533" lon="2.27835">
        <ele>110.2</ele>
        <time>2022-10-29T13:31:26Z</time>
      </trkpt>
      <trkpt lat="49.8533" lon="2.27835">
        <ele>110.2</ele>
        <time>2022-10-29T13:31:27Z</time>
      </trkpt>
      <trkpt lat="49.8533" lon="2.27835">
        <ele>110.2</ele>
        <time>2022-10-29T13:31:28Z</time>
      </trkpt>
      <trkpt lat="49.8533" lon="2.27835">
        <ele>110.2</ele>
        <time>2022-10-29T13:31:29Z</time>
      </trkpt>
      <trkpt lat="49.8533" lon="2.27835">
        <ele>110.2</ele>
        <time>2022-10-29T13:31:30Z</time>
      </trkpt>
      <trkpt lat="49.8533" lon="2.27835">
        <ele>110.2</ele>
        <time>2022-10-29T13:31:31Z</time>
      </trkpt>
      <trkpt lat="49.8533" lon="2.27835">
        <ele>110.2</ele>
        <time>2022-10-29T13:31:32Z</time>
      </trkpt>
      <trkpt lat="49.8533" lon="2.27835">
        <ele>110.2</ele>
        <time>2022-10-29T13:31:33Z</time>
      </trkpt>
      <trkpt lat="49.8533" lon="2.27835">
        <ele>110.2</ele>
        <time>2022-10-29T13:31:34Z</time>
      </trkpt>
      <trkpt lat="49.8533" lon="2.27835">
        <ele>110.2</ele>
        <time>2022-10-29T13:31:35Z</time>
      </trkpt>
      <trkpt lat="49.8533" lon="2.27835">
        <ele>110.2</ele>
        <time>2022-10-29T13:31:36Z</time>
      </trkpt>
      <trkpt lat="49.8533" lon="2.27835">
        <ele>110.2</ele>
        <time>2022-10-29T13:31:37Z</time>
      </trkpt>
      <trkpt lat="49.8533" lon="2.27835">
        <ele>110.2</ele>
        <time>2022-10-29T13:31:38Z</time>
      </trkpt>
      <trkpt lat="49.8533" lon="2.27835">
        <ele>110.2</ele>
        <time>2022-10-29T13:31:39Z</time>
      </trkpt>
      <trkpt lat="49.8533" lon="2.27835">
        <ele>110.2</ele>
        <time>2022-10-29T13:31:40Z</time>
      </trkpt>
      <trkpt lat="49.8533" lon="2.27835">
        <ele>110.2</ele>
        <time>2022-10-29T13:31:41Z</time>
      </trkpt>
      <trkpt lat="49.8533" lon="2.27835">
        <ele>110.2</ele>
        <time>2022-10-29T13:31:42Z</time>
      </trkpt>
      <trkpt lat="49.8533" lon="2.27835">
        <ele>110.2</ele>
        <time>2022-10-29T13:31:43Z</time>
      </trkpt>
      <trkpt lat="49.8533" lon="2.27835">
        <ele>110.2</ele>
        <time>2022-10-29T13:31:44Z</time>
      </trkpt>
      <trkpt lat="49.8533" lon="2.27835">
        <ele>110.2</ele>
        <time>2022-10-29T13:31:45Z</time>
      </trkpt>
      <trkpt lat="49.8533" lon="2.27835">
        <ele>110.2</ele>
        <time>2022-10-29T13:31:46Z</time>
      </trkpt>
      <trkpt lat="49.8533" lon="2.27835">
        <ele>110.2</ele>
        <time>2022-10-29T13:31:47Z</time>
      </trkpt>
      <trkpt lat="49.8533" lon="2.27835">
        <ele>110.2</ele>
        <time>2022-10-29T13:31:48Z</time>
      </trkpt>
      <trkpt lat="49.8533" lon="2.27835">
        <ele>110.2</ele>
        <time>2022-10-29T13:31:49Z</time>
      </trkpt>
      <trkpt lat="49.8533" lon="2.27835">
        <ele>110.2</ele>
        <time>2022-10-29T13:31:50Z</time>
      </trkpt>
      <trkpt lat="49.8533" lon="2.27835">
        <ele>110.2</ele>
        <time>2022-10-29T13:31:51Z</time>
      </trkpt>
      <trkpt lat="49.8533" lon="2.27835">
        <ele>110.2</ele>
        <time>2022-10-29T13:31:52Z</time>
      </trkpt>
      <trkpt lat="49.8533" lon="2.27835">
        <ele>110.2</ele>
        <time>2022-10-29T13:31:53Z</time>
      </trkpt>
      <trkpt lat="49.8533" lon="2.27835">
        <ele>110.2</ele>
        <time>2022-10-29T13:31:54Z</time>
      </trkpt>
      <trkpt lat="49.8533" lon="2.27835">
        <ele>110.2</ele>
        <time>2022-10-29T13:31:55Z</time>
      </trkpt>
      <trkpt lat="49.8533" lon="2.27835">
        <ele>110.2</ele>
        <time>2022-10-29T13:31:56Z</time>
      </trkpt>
      <trkpt lat="49.8533" lon="2.27835">
        <ele>110.2</ele>
        <time>2022-10-29T13:31:57Z</time>
      </trkpt>
      <trkpt lat="49.8533" lon="2.27835">
        <ele>110.2</ele>
        <time>2022-10-29T13:31:58Z</time>
      </trkpt>
      <trkpt lat="49.8533" lon="2.27835">
        <ele>110.2</ele>
        <time>2022-10-29T13:31:59Z</time>
      </trkpt>
      <trkpt lat="49.8533" lon="2.27835">
        <ele>110.2</ele>
        <time>2022-10-29T13:32:00Z</time>
      </trkpt>
      <trkpt lat="49.8533" lon="2.27835">
        <ele>110.2</ele>
        <time>2022-10-29T13:32:01Z</time>
      </trkpt>
      <trkpt lat="49.8533" lon="2.27835">
        <ele>110.2</ele>
        <time>2022-10-29T13:32:02Z</time>
      </trkpt>
      <trkpt lat="49.8533" lon="2.27835">
        <ele>110.2</ele>
        <time>2022-10-29T13:32:03Z</time>
      </trkpt>
      <trkpt lat="49.8533" lon="2.27835">
        <ele>110.2</ele>
        <time>2022-10-29T13:32:04Z</time>
      </trkpt>
      <trkpt lat="49.8533" lon="2.27835">
        <ele>110.2</ele>
        <time>2022-10-29T13:32:05Z</time>
      </trkpt>
      <trkpt lat="49.8533" lon="2.27835">
        <ele>110.2</ele>
        <time>2022-10-29T13:32:06Z</time>
      </trkpt>
      <trkpt lat="49.8533" lon="2.27835">
        <ele>110.2</ele>
        <time>2022-10-29T13:32:07Z</time>
      </trkpt>
      <trkpt lat="49.8533" lon="2.27835">
        <ele>110.2</ele>
        <time>2022-10-29T13:32:08Z</time>
      </trkpt>
      <trkpt lat="49.8533" lon="2.27835">
        <ele>110.2</ele>
        <time>2022-10-29T13:32:09Z</time>
      </trkpt>
      <trkpt lat="49.8533" lon="2.27835">
        <ele>110.2</ele>
        <time>2022-10-29T13:32:10Z</time>
      </trkpt>
      <trkpt lat="49.8533" lon="2.27835">
        <ele>110.2</ele>
        <time>2022-10-29T13:32:11Z</time>
      </trkpt>
      <trkpt lat="49.8533" lon="2.27835">
        <ele>110.2</ele>
        <time>2022-10-29T13:32:12Z</time>
      </trkpt>
      <trkpt lat="49.8533" lon="2.27835">
        <ele>110.2</ele>
        <time>2022-10-29T13:32:13Z</time>
      </trkpt>
      <trkpt lat="49.8533" lon="2.27835">
        <ele>110.2</ele>
        <time>2022-10-29T13:32:14Z</time>
      </trkpt>
      <trkpt lat="49.8533" lon="2.27835">
        <ele>110.2</ele>
        <time>2022-10-29T13:32:15Z</time>
      </trkpt>
      <trkpt lat="49.8533" lon="2.27835">
        <ele>110.2</ele>
        <time>2022-10-29T13:32:16Z</time>
      </trkpt>
      <trkpt lat="49.8533" lon="2.27835">
        <ele>110.2</ele>
        <time>2022-10-29T13:32:17Z</time>
      </trkpt>
      <trkpt lat="49.8533" lon="2.27835">
        <ele>110.2</ele>
        <time>2022-10-29T13:32:18Z</time>
      </trkpt>
      <trkpt lat="49.8533" lon="2.27835">
        <ele>110.2</ele>
        <time>2022-10-29T13:32:19Z</time>
      </trkpt>
      <trkpt lat="49.8533" lon="2.27835">
        <ele>110.2</ele>
        <time>2022-10-29T13:32:20Z</time>
      </trkpt>
      <trkpt lat="49.8533" lon="2.27835">
        <ele>110.2</ele>
        <time>2022-10-29T13:32:21Z</time>
      </trkpt>
      <trkpt lat="49.8533" lon="2.27835">
        <ele>110.2</ele>
        <time>2022-10-29T13:32:22Z</time>
      </trkpt>
      <trkpt lat="49.8533" lon="2.27835">
        <ele>110.2</ele>
        <time>2022-10-29T13:32:23Z</time>
      </trkpt>
      <trkpt lat="49.8533" lon="2.27835">
        <ele>110.2</ele>
        <time>2022-10-29T13:32:24Z</time>
      </trkpt>
      <trkpt lat="49.8533" lon="2.27835">
        <ele>110.2</ele>
        <time>2022-10-29T13:32:25Z</time>
      </trkpt>
      <trkpt lat="49.8533" lon="2.27835">
        <ele>110.2</ele>
        <time>2022-10-29T13:32:26Z</time>
      </trkpt>
      <trkpt lat="49.8533" lon="2.27835">
        <ele>110.2</ele>
        <time>2022-10-29T13:32:27Z</time>
      </trkpt>
      <trkpt lat="49.8533" lon="2.27835">
        <ele>110.2</ele>
        <time>2022-10-29T13:32:28Z</time>
      </trkpt>
      <trkpt lat="49.8533" lon="2.27835">
        <ele>110.2</ele>
        <time>2022-10-29T13:32:29Z</time>
      </trkpt>
      <trkpt lat="49.8533" lon="2.27835">
        <ele>110.2</ele>
        <time>2022-10-29T13:32:30Z</time>
      </trkpt>
      <trkpt lat="49.8533" lon="2.27835">
        <ele>110.2</ele>
        <time>2022-10-29T13:32:31Z</time>
      </trkpt>
      <trkpt lat="49.8533" lon="2.27835">
        <ele>110.2</ele>
        <time>2022-10-29T13:32:32Z</time>
      </trkpt>
      <trkpt lat="49.8533" lon="2.27835">
        <ele>110.2</ele>
        <time>2022-10-29T13:32:33Z</time>
      </trkpt>
      <trkpt lat="49.8533" lon="2.27835">
        <ele>110.2</ele>
        <time>2022-10-29T13:32:34Z</time>
      </trkpt>
      <trkpt lat="49.8533" lon="2.27835">
        <ele>110.2</ele>
        <time>2022-10-29T13:32:35Z</time>
      </trkpt>
      <trkpt lat="49.8533" lon="2.27835">
        <ele>110.2</ele>
        <time>2022-10-29T13:32:36Z</time>
      </trkpt>
      <trkpt lat="49.8533" lon="2.27835">
        <ele>110.2</ele>
        <time>2022-10-29T13:32:37Z</time>
      </trkpt>
      <trkpt lat="49.8533" lon="2.27835">
        <ele>110.2</ele>
        <time>2022-10-29T13:32:38Z</time>
      </trkpt>
      <trkpt lat="49.8533" lon="2.27835">
        <ele>110.2</ele>
        <time>2022-10-29T13:32:39Z</time>
      </trkpt>
      <trkpt lat="49.8533" lon="2.27835">
        <ele>110.2</ele>
        <time>2022-10-29T13:32:40Z</time>
      </trkpt>
      <trkpt lat="49.8533" lon="2.27835">
        <ele>110.2</ele>
        <time>2022-10-29T13:32:41Z</time>
      </trkpt>
      <trkpt lat="49.8533" lon="2.27835">
        <ele>110.2</ele>
        <time>2022-10-29T13:32:42Z</time>
      </trkpt>
      <trkpt lat="49.8533" lon="2.27835">
        <ele>110.2</ele>
        <time>2022-10-29T13:32:43Z</time>
      </trkpt>
      <trkpt lat="49.8533" lon="2.27835">
        <ele>110.2</ele>
        <time>2022-10-29T13:32:44Z</time>
      </trkpt>
      <trkpt lat="49.8533" lon="2.27835">
        <ele>110.2</ele>
        <time>2022-10-29T13:32:45Z</time>
      </trkpt>
      <trkpt lat="49.8533" lon="2.27835">
        <ele>110.2</ele>
        <time>2022-10-29T13:32:46Z</time>
      </trkpt>
      <trkpt lat="49.8533" lon="2.27835">
        <ele>110.2</ele>
        <time>2022-10-29T13:32:47Z</time>
      </trkpt>
      <trkpt lat="49.8533" lon="2.27835">
        <ele>110.2</ele>
        <time>2022-10-29T13:32:48Z</time>
      </trkpt>
      <trkpt lat="49.8533" lon="2.27835">
        <ele>110.2</ele>
        <time>2022-10-29T13:32:49Z</time>
      </trkpt>
      <trkpt lat="49.8533" lon="2.27835">
        <ele>110.2</ele>
        <time>2022-10-29T13:32:50Z</time>
      </trkpt>
      <trkpt lat="49.8533" lon="2.27835">
        <ele>110.2</ele>
        <time>2022-10-29T13:32:51Z</time>
      </trkpt>
      <trkpt lat="49.8533" lon="2.27835">
        <ele>110.2</ele>
        <time>2022-10-29T13:32:52Z</time>
      </trkpt>
      <trkpt lat="49.8533" lon="2.27835">
        <ele>110.2</ele>
        <time>2022-10-29T13:32:53Z</time>
      </trkpt>
      <trkpt lat="49.8533" lon="2.27835">
        <ele>110.2</ele>
        <time>2022-10-29T13:32:54Z</time>
      </trkpt>
      <trkpt lat="49.8533" lon="2.27835">
        <ele>110.2</ele>
        <time>2022-10-29T13:32:55Z</time>
      </trkpt>
      <trkpt lat="49.8533" lon="2.27835">
        <ele>110.2</ele>
        <time>2022-10-29T13:32:56Z</time>
      </trkpt>
      <trkpt lat="49.8533" lon="2.27835">
        <ele>110.2</ele>
        <time>2022-10-29T13:32:57Z</time>
      </trkpt>
      <trkpt lat="49.8533" lon="2.27835">
        <ele>110.2</ele>
        <time>2022-10-29T13:32:58Z</time>
      </trkpt>
      <trkpt lat="49.8533" lon="2.27835">
        <ele>110.2</ele>
        <time>2022-10-29T13:32:59Z</time>
      </trkpt>
      <trkpt lat="49.8533" lon="2.27835">
        <ele>110.2</ele>
        <time>2022-10-29T13:33:00Z</time>
      </trkpt>
      <trkpt lat="49.8533" lon="2.27835">
        <ele>110.2</ele>
        <time>2022-10-29T13:33:01Z</time>
      </trkpt>
      <trkpt lat="49.8533" lon="2.27835">
        <ele>110.2</ele>
        <time>2022-10-29T13:33:02Z</time>
      </trkpt>
      <trkpt lat="49.8533" lon="2.27835">
        <ele>110.2</ele>
        <time>2022-10-29T13:33:03Z</time>
      </trkpt>
      <trkpt lat="49.8533" lon="2.27835">
        <ele>110.2</ele>
        <time>2022-10-29T13:33:04Z</time>
      </trkpt>
      <trkpt lat="49.8533" lon="2.27835">
        <ele>110.2</ele>
        <time>2022-10-29T13:33:05Z</time>
      </trkpt>
      <trkpt lat="49.8533" lon="2.27835">
        <ele>110.2</ele>
        <time>2022-10-29T13:33:06Z</time>
      </trkpt>
      <trkpt lat="49.8533" lon="2.27835">
        <ele>110.2</ele>
        <time>2022-10-29T13:33:07Z</time>
      </trkpt>
      <trkpt lat="49.8533" lon="2.27835">
        <ele>110.2</ele>
        <time>2022-10-29T13:33:08Z</time>
      </trkpt>
      <trkpt lat="49.8533" lon="2.27835">
        <ele>110.2</ele>
        <time>2022-10-29T13:33:09Z</time>
      </trkpt>
      <trkpt lat="49.8533" lon="2.27835">
        <ele>110.2</ele>
        <time>2022-10-29T13:33:10Z</time>
      </trkpt>
      <trkpt lat="49.8533" lon="2.27835">
        <ele>110.2</ele>
        <time>2022-10-29T13:33:11Z</time>
      </trkpt>
      <trkpt lat="49.8533" lon="2.27835">
        <ele>110.2</ele>
        <time>2022-10-29T13:33:12Z</time>
      </trkpt>
      <trkpt lat="49.8533" lon="2.27835">
        <ele>110.2</ele>
        <time>2022-10-29T13:33:13Z</time>
      </trkpt>
      <trkpt lat="49.8533" lon="2.27835">
        <ele>110.2</ele>
        <time>2022-10-29T13:33:14Z</time>
      </trkpt>
      <trkpt lat="49.8533" lon="2.27835">
        <ele>110.2</ele>
        <time>2022-10-29T13:33:15Z</time>
      </trkpt>
      <trkpt lat="49.8533" lon="2.27835">
        <ele>110.2</ele>
        <time>2022-10-29T13:33:16Z</time>
      </trkpt>
      <trkpt lat="49.8533" lon="2.27835">
        <ele>110.2</ele>
        <time>2022-10-29T13:33:17Z</time>
      </trkpt>
      <trkpt lat="49.8533" lon="2.27835">
        <ele>110.2</ele>
        <time>2022-10-29T13:33:18Z</time>
      </trkpt>
      <trkpt lat="49.8533" lon="2.27835">
        <ele>110.2</ele>
        <time>2022-10-29T13:33:19Z</time>
      </trkpt>
      <trkpt lat="49.8533" lon="2.27835">
        <ele>110.2</ele>
        <time>2022-10-29T13:33:20Z</time>
      </trkpt>
      <trkpt lat="49.8533" lon="2.27835">
        <ele>110.2</ele>
        <time>2022-10-29T13:33:21Z</time>
      </trkpt>
      <trkpt lat="49.8533" lon="2.27835">
        <ele>110.2</ele>
        <time>2022-10-29T13:33:22Z</time>
      </trkpt>
      <trkpt lat="49.8533" lon="2.27835">
        <ele>110.2</ele>
        <time>2022-10-29T13:33:23Z</time>
      </trkpt>
      <trkpt lat="49.8533" lon="2.27835">
        <ele>110.2</ele>
        <time>2022-10-29T13:33:24Z</time>
      </trkpt>
      <trkpt lat="49.8533" lon="2.27835">
        <ele>110.2</ele>
        <time>2022-10-29T13:33:25Z</time>
      </trkpt>
      <trkpt lat="49.8533" lon="2.27835">
        <ele>110.2</ele>
        <time>2022-10-29T13:33:26Z</time>
      </trkpt>
      <trkpt lat="49.8533" lon="2.27835">
        <ele>110.2</ele>
        <time>2022-10-29T13:33:27Z</time>
      </trkpt>
      <trkpt lat="49.8533" lon="2.27835">
        <ele>110.2</ele>
        <time>2022-10-29T13:33:28Z</time>
      </trkpt>
      <trkpt lat="49.8533" lon="2.27835">
        <ele>110.2</ele>
        <time>2022-10-29T13:33:29Z</time>
      </trkpt>
      <trkpt lat="49.8533" lon="2.27835">
        <ele>110.2</ele>
        <time>2022-10-29T13:33:30Z</time>
      </trkpt>
      <trkpt lat="49.8533" lon="2.27835">
        <ele>110.2</ele>
        <time>2022-10-29T13:33:31Z</time>
      </trkpt>
      <trkpt lat="49.8533" lon="2.27835">
        <ele>110.2</ele>
        <time>2022-10-29T13:33:32Z</time>
      </trkpt>
      <trkpt lat="49.8533" lon="2.27835">
        <ele>110.2</ele>
        <time>2022-10-29T13:33:33Z</time>
      </trkpt>
      <trkpt lat="49.8533" lon="2.27835">
        <ele>110.2</ele>
        <time>2022-10-29T13:33:34Z</time>
      </trkpt>
      <trkpt lat="49.8533" lon="2.27835">
        <ele>110.2</ele>
        <time>2022-10-29T13:33:35Z</time>
      </trkpt>
      <trkpt lat="49.8533" lon="2.27835">
        <ele>110.2</ele>
        <time>2022-10-29T13:33:36Z</time>
      </trkpt>
      <trkpt lat="49.8533" lon="2.27835">
        <ele>110.2</ele>
        <time>2022-10-29T13:33:37Z</time>
      </trkpt>
      <trkpt lat="49.8533" lon="2.27835">
        <ele>110.2</ele>
        <time>2022-10-29T13:33:38Z</time>
      </trkpt>
      <trkpt lat="49.8533" lon="2.27835">
        <ele>110.2</ele>
        <time>2022-10-29T13:33:39Z</time>
      </trkpt>
      <trkpt lat="49.8533" lon="2.27835">
        <ele>110.2</ele>
        <time>2022-10-29T13:33:40Z</time>
      </trkpt>
      <trkpt lat="49.8533" lon="2.27835">
        <ele>110.2</ele>
        <time>2022-10-29T13:33:41Z</time>
      </trkpt>
      <trkpt lat="49.8533" lon="2.27835">
        <ele>110.2</ele>
        <time>2022-10-29T13:33:42Z</time>
      </trkpt>
      <trkpt lat="49.8533" lon="2.27835">
        <ele>110.2</ele>
        <time>2022-10-29T13:33:43Z</time>
      </trkpt>
      <trkpt lat="49.8533" lon="2.27835">
        <ele>110.2</ele>
        <time>2022-10-29T13:33:44Z</time>
      </trkpt>
      <trkpt lat="49.8533" lon="2.27835">
        <ele>110.2</ele>
        <time>2022-10-29T13:33:45Z</time>
      </trkpt>
      <trkpt lat="49.8533" lon="2.27835">
        <ele>110.2</ele>
        <time>2022-10-29T13:33:46Z</time>
      </trkpt>
      <trkpt lat="49.8533" lon="2.27835">
        <ele>110.2</ele>
        <time>2022-10-29T13:33:47Z</time>
      </trkpt>
      <trkpt lat="49.8533" lon="2.27835">
        <ele>110.2</ele>
        <time>2022-10-29T13:33:48Z</time>
      </trkpt>
      <trkpt lat="49.8533" lon="2.27835">
        <ele>110.2</ele>
        <time>2022-10-29T13:33:49Z</time>
      </trkpt>
      <trkpt lat="49.8533" lon="2.27835">
        <ele>110.2</ele>
        <time>2022-10-29T13:33:50Z</time>
      </trkpt>
      <trkpt lat="49.8533" lon="2.27835">
        <ele>110.2</ele>
        <time>2022-10-29T13:33:51Z</time>
      </trkpt>
      <trkpt lat="49.8533" lon="2.27835">
        <ele>110.2</ele>
        <time>2022-10-29T13:33:52Z</time>
      </trkpt>
      <trkpt lat="49.8533" lon="2.27835">
        <ele>110.2</ele>
        <time>2022-10-29T13:33:53Z</time>
      </trkpt>
      <trkpt lat="49.8533" lon="2.27835">
        <ele>110.2</ele>
        <time>2022-10-29T13:33:54Z</time>
      </trkpt>
      <trkpt lat="49.8533" lon="2.27835">
        <ele>110.2</ele>
        <time>2022-10-29T13:33:55Z</time>
      </trkpt>
      <trkpt lat="49.8533" lon="2.27835">
        <ele>110.2</ele>
        <time>2022-10-29T13:33:56Z</time>
      </trkpt>
      <trkpt lat="49.8533" lon="2.27835">
        <ele>110.2</ele>
        <time>2022-10-29T13:33:57Z</time>
      </trkpt>
      <trkpt lat="49.8533" lon="2.27835">
        <ele>110.2</ele>
        <time>2022-10-29T13:33:58Z</time>
      </trkpt>
      <trkpt lat="49.8533" lon="2.27835">
        <ele>110.2</ele>
        <time>2022-10-29T13:33:59Z</time>
      </trkpt>
      <trkpt lat="49.8533" lon="2.27835">
        <ele>110.2</ele>
        <time>2022-10-29T13:34:00Z</time>
      </trkpt>
      <trkpt lat="49.8533" lon="2.27835">
        <ele>110.2</ele>
        <time>2022-10-29T13:34:01Z</time>
      </trkpt>
      <trkpt lat="49.8533" lon="2.27835">
        <ele>110.2</ele>
        <time>2022-10-29T13:34:02Z</time>
      </trkpt>
      <trkpt lat="49.8533" lon="2.27835">
        <ele>110.2</ele>
        <time>2022-10-29T13:34:03Z</time>
      </trkpt>
      <trkpt lat="49.8533" lon="2.27835">
        <ele>110.2</ele>
        <time>2022-10-29T13:34:04Z</time>
      </trkpt>
      <trkpt lat="49.8533" lon="2.27835">
        <ele>110.2</ele>
        <time>2022-10-29T13:34:05Z</time>
      </trkpt>
      <trkpt lat="49.8533" lon="2.27835">
        <ele>110.2</ele>
        <time>2022-10-29T13:34:06Z</time>
      </trkpt>
      <trkpt lat="49.8533" lon="2.27835">
        <ele>110.2</ele>
        <time>2022-10-29T13:34:07Z</time>
      </trkpt>
      <trkpt lat="49.8533" lon="2.27835">
        <ele>110.2</ele>
        <time>2022-10-29T13:34:08Z</time>
      </trkpt>
      <trkpt lat="49.8533" lon="2.27835">
        <ele>110.2</ele>
        <time>2022-10-29T13:34:09Z</time>
      </trkpt>
      <trkpt lat="49.8533" lon="2.27835">
        <ele>110.2</ele>
        <time>2022-10-29T13:34:10Z</time>
      </trkpt>
      <trkpt lat="49.8533" lon="2.27835">
        <ele>110.2</ele>
        <time>2022-10-29T13:34:11Z</time>
      </trkpt>
      <trkpt lat="49.8533" lon="2.27835">
        <ele>110.2</ele>
        <time>2022-10-29T13:34:12Z</time>
      </trkpt>
      <trkpt lat="49.8533" lon="2.27835">
        <ele>110.2</ele>
        <time>2022-10-29T13:34:13Z</time>
      </trkpt>
      <trkpt lat="49.8533" lon="2.27835">
        <ele>110.2</ele>
        <time>2022-10-29T13:34:14Z</time>
      </trkpt>
      <trkpt lat="49.8533" lon="2.27835">
        <ele>110.2</ele>
        <time>2022-10-29T13:34:15Z</time>
      </trkpt>
      <trkpt lat="49.8533" lon="2.27835">
        <ele>110.2</ele>
        <time>2022-10-29T13:34:16Z</time>
      </trkpt>
      <trkpt lat="49.8533" lon="2.27835">
        <ele>110.2</ele>
        <time>2022-10-29T13:34:17Z</time>
      </trkpt>
      <trkpt lat="49.8533" lon="2.27835">
        <ele>110.2</ele>
        <time>2022-10-29T13:34:18Z</time>
      </trkpt>
      <trkpt lat="49.8533" lon="2.27835">
        <ele>110.2</ele>
        <time>2022-10-29T13:34:19Z</time>
      </trkpt>
      <trkpt lat="49.8533" lon="2.27835">
        <ele>110.2</ele>
        <time>2022-10-29T13:34:20Z</time>
      </trkpt>
      <trkpt lat="49.8533" lon="2.27835">
        <ele>110.2</ele>
        <time>2022-10-29T13:34:21Z</time>
      </trkpt>
      <trkpt lat="49.8533" lon="2.27835">
        <ele>110.2</ele>
        <time>2022-10-29T13:34:22Z</time>
      </trkpt>
      <trkpt lat="49.8533" lon="2.27835">
        <ele>110.2</ele>
        <time>2022-10-29T13:34:23Z</time>
      </trkpt>
      <trkpt lat="49.8533" lon="2.27835">
        <ele>110.2</ele>
        <time>2022-10-29T13:34:24Z</time>
      </trkpt>
      <trkpt lat="49.8533" lon="2.27835">
        <ele>110.2</ele>
        <time>2022-10-29T13:34:25Z</time>
      </trkpt>
      <trkpt lat="49.8533" lon="2.27835">
        <ele>110.2</ele>
        <time>2022-10-29T13:34:26Z</time>
      </trkpt>
      <trkpt lat="49.8533" lon="2.27835">
        <ele>110.2</ele>
        <time>2022-10-29T13:34:27Z</time>
      </trkpt>
      <trkpt lat="49.8533" lon="2.27835">
        <ele>110.2</ele>
        <time>2022-10-29T13:34:28Z</time>
      </trkpt>
      <trkpt lat="49.8533" lon="2.27835">
        <ele>110.2</ele>
        <time>2022-10-29T13:34:29Z</time>
      </trkpt>
      <trkpt lat="49.8533" lon="2.27835">
        <ele>110.2</ele>
        <time>2022-10-29T13:34:30Z</time>
      </trkpt>
      <trkpt lat="49.8533" lon="2.27835">
        <ele>110.2</ele>
        <time>2022-10-29T13:34:31Z</time>
      </trkpt>
      <trkpt lat="49.8533" lon="2.27835">
        <ele>110.2</ele>
        <time>2022-10-29T13:34:32Z</time>
      </trkpt>
      <trkpt lat="49.8533" lon="2.27835">
        <ele>110.2</ele>
        <time>2022-10-29T13:34:33Z</time>
      </trkpt>
      <trkpt lat="49.8533" lon="2.27835">
        <ele>110.2</ele>
        <time>2022-10-29T13:34:34Z</time>
      </trkpt>
      <trkpt lat="49.8533" lon="2.27835">
        <ele>110.2</ele>
        <time>2022-10-29T13:34:35Z</time>
      </trkpt>
      <trkpt lat="49.8533" lon="2.27835">
        <ele>110.2</ele>
        <time>2022-10-29T13:34:36Z</time>
      </trkpt>
      <trkpt lat="49.8533" lon="2.27835">
        <ele>110.2</ele>
        <time>2022-10-29T13:34:37Z</time>
      </trkpt>
      <trkpt lat="49.8533" lon="2.27835">
        <ele>110.2</ele>
        <time>2022-10-29T13:34:38Z</time>
      </trkpt>
      <trkpt lat="49.8533" lon="2.27835">
        <ele>110.2</ele>
        <time>2022-10-29T13:34:39Z</time>
      </trkpt>
      <trkpt lat="49.8533" lon="2.27835">
        <ele>110.2</ele>
        <time>2022-10-29T13:34:40Z</time>
      </trkpt>
      <trkpt lat="49.8533" lon="2.27835">
        <ele>110.2</ele>
        <time>2022-10-29T13:34:41Z</time>
      </trkpt>
      <trkpt lat="49.8533" lon="2.27835">
        <ele>110.2</ele>
        <time>2022-10-29T13:34:42Z</time>
      </trkpt>
      <trkpt lat="49.8533" lon="2.27835">
        <ele>110.2</ele>
        <time>2022-10-29T13:34:43Z</time>
      </trkpt>
      <trkpt lat="49.8533" lon="2.27835">
        <ele>110.2</ele>
        <time>2022-10-29T13:34:44Z</time>
      </trkpt>
      <trkpt lat="49.8533" lon="2.27835">
        <ele>110.2</ele>
        <time>2022-10-29T13:34:45Z</time>
      </trkpt>
      <trkpt lat="49.8533" lon="2.27835">
        <ele>110.2</ele>
        <time>2022-10-29T13:34:46Z</time>
      </trkpt>
      <trkpt lat="49.8533" lon="2.27835">
        <ele>110.2</ele>
        <time>2022-10-29T13:34:47Z</time>
      </trkpt>
      <trkpt lat="49.8533" lon="2.27835">
        <ele>110.2</ele>
        <time>2022-10-29T13:34:48Z</time>
      </trkpt>
      <trkpt lat="49.8533" lon="2.27835">
        <ele>110.2</ele>
        <time>2022-10-29T13:34:49Z</time>
      </trkpt>
      <trkpt lat="49.8533" lon="2.27835">
        <ele>110.2</ele>
        <time>2022-10-29T13:34:50Z</time>
      </trkpt>
      <trkpt lat="49.8533" lon="2.27835">
        <ele>110.2</ele>
        <time>2022-10-29T13:34:51Z</time>
      </trkpt>
      <trkpt lat="49.8533" lon="2.27835">
        <ele>110.2</ele>
        <time>2022-10-29T13:34:52Z</time>
      </trkpt>
      <trkpt lat="49.8533" lon="2.27835">
        <ele>110.2</ele>
        <time>2022-10-29T13:34:53Z</time>
      </trkpt>
      <trkpt lat="49.8533" lon="2.27835">
        <ele>110.2</ele>
        <time>2022-10-29T13:34:54Z</time>
      </trkpt>
      <trkpt lat="49.8533" lon="2.27835">
        <ele>110.2</ele>
        <time>2022-10-29T13:34:55Z</time>
      </trkpt>
      <trkpt lat="49.8533" lon="2.27835">
        <ele>110.2</ele>
        <time>2022-10-29T13:34:56Z</time>
      </trkpt>
      <trkpt lat="49.8533" lon="2.27835">
        <ele>110.2</ele>
        <time>2022-10-29T13:34:57Z</time>
      </trkpt>
      <trkpt lat="49.8533" lon="2.27835">
        <ele>110.2</ele>
        <time>2022-10-29T13:34:58Z</time>
      </trkpt>
      <trkpt lat="49.8533" lon="2.27835">
        <ele>110.2</ele>
        <time>2022-10-29T13:34:59Z</time>
      </trkpt>
      <trkpt lat="49.8533" lon="2.27835">
        <ele>110.2</ele>
        <time>2022-10-29T13:35:00Z</time>
      </trkpt>
      <trkpt lat="49.8533" lon="2.27835">
        <ele>110.2</ele>
        <time>2022-10-29T13:35:01Z</time>
      </trkpt>
      <trkpt lat="49.8533" lon="2.27835">
        <ele>110.2</ele>
        <time>2022-10-29T13:35:02Z</time>
      </trkpt>
      <trkpt lat="49.8533" lon="2.27835">
        <ele>110.2</ele>
        <time>2022-10-29T13:35:03Z</time>
      </trkpt>
      <trkpt lat="49.8533" lon="2.27835">
        <ele>110.2</ele>
        <time>2022-10-29T13:35:04Z</time>
      </trkpt>
      <trkpt lat="49.8533" lon="2.27835">
        <ele>110.2</ele>
        <time>2022-10-29T13:35:05Z</time>
      </trkpt>
      <trkpt lat="49.8533" lon="2.27835">
        <ele>110.2</ele>
        <time>2022-10-29T13:35:06Z</time>
      </trkpt>
      <trkpt lat="49.8533" lon="2.27835">
        <ele>110.2</ele>
        <time>2022-10-29T13:35:07Z</time>
      </trkpt>
      <trkpt lat="49.8533" lon="2.27835">
        <ele>110.2</ele>
        <time>2022-10-29T13:35:08Z</time>
      </trkpt>
      <trkpt lat="49.8533" lon="2.27835">
        <ele>110.2</ele>
        <time>2022-10-29T13:35:09Z</time>
      </trkpt>
      <trkpt lat="49.8533" lon="2.27835">
        <ele>110.2</ele>
        <time>2022-10-29T13:35:10Z</time>
      </trkpt>
      <trkpt lat="49.8533" lon="2.27835">
        <ele>110.2</ele>
        <time>2022-10-29T13:35:11Z</time>
      </trkpt>
      <trkpt lat="49.8533" lon="2.27835">
        <ele>110.2</ele>
        <time>2022-10-29T13:35:12Z</time>
      </trkpt>
      <trkpt lat="49.8533" lon="2.27835">
        <ele>110.2</ele>
        <time>2022-10-29T13:35:13Z</time>
      </trkpt>
      <trkpt lat="49.8533" lon="2.27835">
        <ele>110.2</ele>
        <time>2022-10-29T13:35:14Z</time>
      </trkpt>
      <trkpt lat="49.8533" lon="2.27835">
        <ele>110.2</ele>
        <time>2022-10-29T13:35:15Z</time>
      </trkpt>
      <trkpt lat="49.8533" lon="2.27835">
        <ele>110.2</ele>
        <time>2022-10-29T13:35:16Z</time>
      </trkpt>
      <trkpt lat="49.8533" lon="2.27835">
        <ele>110.2</ele>
        <time>2022-10-29T13:35:17Z</time>
      </trkpt>
      <trkpt lat="49.8533" lon="2.27835">
        <ele>110.2</ele>
        <time>2022-10-29T13:35:18Z</time>
      </trkpt>
      <trkpt lat="49.8533" lon="2.27835">
        <ele>110.2</ele>
        <time>2022-10-29T13:35:19Z</time>
      </trkpt>
      <trkpt lat="49.8533" lon="2.27835">
        <ele>110.2</ele>
        <time>2022-10-29T13:35:20Z</time>
      </trkpt>
      <trkpt lat="49.8533" lon="2.27835">
        <ele>110.2</ele>
        <time>2022-10-29T13:35:21Z</time>
      </trkpt>
      <trkpt lat="49.8533" lon="2.27835">
        <ele>110.2</ele>
        <time>2022-10-29T13:35:22Z</time>
      </trkpt>
      <trkpt lat="49.8533" lon="2.27835">
        <ele>110.2</ele>
        <time>2022-10-29T13:35:23Z</time>
      </trkpt>
      <trkpt lat="49.8533" lon="2.27835">
        <ele>110.2</ele>
        <time>2022-10-29T13:35:24Z</time>
      </trkpt>
      <trkpt lat="49.8533" lon="2.27835">
        <ele>110.2</ele>
        <time>2022-10-29T13:35:25Z</time>
      </trkpt>
      <trkpt lat="49.8533" lon="2.27835">
        <ele>110.2</ele>
        <time>2022-10-29T13:35:26Z</time>
      </trkpt>
      <trkpt lat="49.8533" lon="2.27835">
        <ele>110.2</ele>
        <time>2022-10-29T13:35:27Z</time>
      </trkpt>
      <trkpt lat="49.8533" lon="2.27835">
        <ele>110.2</ele>
        <time>2022-10-29T13:35:28Z</time>
      </trkpt>
      <trkpt lat="49.8533" lon="2.27835">
        <ele>110.2</ele>
        <time>2022-10-29T13:35:29Z</time>
      </trkpt>
      <trkpt lat="49.8533" lon="2.27835">
        <ele>110.2</ele>
        <time>2022-10-29T13:35:30Z</time>
      </trkpt>
      <trkpt lat="49.8533" lon="2.27835">
        <ele>110.2</ele>
        <time>2022-10-29T13:35:31Z</time>
      </trkpt>
      <trkpt lat="49.8533" lon="2.27835">
        <ele>110.2</ele>
        <time>2022-10-29T13:35:32Z</time>
      </trkpt>
      <trkpt lat="49.8533" lon="2.27835">
        <ele>110.2</ele>
        <time>2022-10-29T13:35:33Z</time>
      </trkpt>
      <trkpt lat="49.8533" lon="2.27835">
        <ele>110.2</ele>
        <time>2022-10-29T13:35:34Z</time>
      </trkpt>
      <trkpt lat="49.8533" lon="2.27835">
        <ele>110.2</ele>
        <time>2022-10-29T13:35:35Z</time>
      </trkpt>
      <trkpt lat="49.8533" lon="2.27835">
        <ele>110.2</ele>
        <time>2022-10-29T13:35:36Z</time>
      </trkpt>
      <trkpt lat="49.8533" lon="2.27835">
        <ele>110.2</ele>
        <time>2022-10-29T13:35:37Z</time>
      </trkpt>
      <trkpt lat="49.8533" lon="2.27835">
        <ele>110.2</ele>
        <time>2022-10-29T13:35:38Z</time>
      </trkpt>
      <trkpt lat="49.8533" lon="2.27835">
        <ele>110.2</ele>
        <time>2022-10-29T13:35:39Z</time>
      </trkpt>
      <trkpt lat="49.8533" lon="2.27835">
        <ele>110.2</ele>
        <time>2022-10-29T13:35:40Z</time>
      </trkpt>
      <trkpt lat="49.8533" lon="2.27835">
        <ele>110.2</ele>
        <time>2022-10-29T13:35:41Z</time>
      </trkpt>
      <trkpt lat="49.8533" lon="2.27835">
        <ele>110.2</ele>
        <time>2022-10-29T13:35:42Z</time>
      </trkpt>
      <trkpt lat="49.8533" lon="2.27835">
        <ele>110.2</ele>
        <time>2022-10-29T13:35:43Z</time>
      </trkpt>
      <trkpt lat="49.8533" lon="2.27835">
        <ele>110.2</ele>
        <time>2022-10-29T13:35:44Z</time>
      </trkpt>
      <trkpt lat="49.8533" lon="2.27835">
        <ele>110.2</ele>
        <time>2022-10-29T13:35:45Z</time>
      </trkpt>
      <trkpt lat="49.8533" lon="2.27835">
        <ele>110.2</ele>
        <time>2022-10-29T13:35:46Z</time>
      </trkpt>
      <trkpt lat="49.8533" lon="2.27835">
        <ele>110.2</ele>
        <time>2022-10-29T13:35:47Z</time>
      </trkpt>
      <trkpt lat="49.8533" lon="2.27835">
        <ele>110.2</ele>
        <time>2022-10-29T13:35:48Z</time>
      </trkpt>
      <trkpt lat="49.8533" lon="2.27835">
        <ele>110.2</ele>
        <time>2022-10-29T13:35:49Z</time>
      </trkpt>
      <trkpt lat="49.8533" lon="2.27835">
        <ele>110.2</ele>
        <time>2022-10-29T13:35:50Z</time>
      </trkpt>
      <trkpt lat="49.8533" lon="2.27835">
        <ele>110.2</ele>
        <time>2022-10-29T13:35:51Z</time>
      </trkpt>
      <trkpt lat="49.8533" lon="2.27835">
        <ele>110.2</ele>
        <time>2022-10-29T13:35:52Z</time>
      </trkpt>
      <trkpt lat="49.8533" lon="2.27835">
        <ele>110.2</ele>
        <time>2022-10-29T13:35:53Z</time>
      </trkpt>
      <trkpt lat="49.8533" lon="2.27835">
        <ele>110.2</ele>
        <time>2022-10-29T13:35:54Z</time>
      </trkpt>
      <trkpt lat="49.8533" lon="2.27835">
        <ele>110.2</ele>
        <time>2022-10-29T13:35:55Z</time>
      </trkpt>
      <trkpt lat="49.8533" lon="2.27835">
        <ele>110.2</ele>
        <time>2022-10-29T13:35:56Z</time>
      </trkpt>
      <trkpt lat="49.8533" lon="2.27835">
        <ele>110.2</ele>
        <time>2022-10-29T13:35:57Z</time>
      </trkpt>
      <trkpt lat="49.8533" lon="2.27835">
        <ele>110.2</ele>
        <time>2022-10-29T13:35:58Z</time>
      </trkpt>
      <trkpt lat="49.8533" lon="2.27835">
        <ele>110.2</ele>
        <time>2022-10-29T13:35:59Z</time>
      </trkpt>
      <trkpt lat="49.8533" lon="2.27835">
        <ele>110.2</ele>
        <time>2022-10-29T13:36:00Z</time>
      </trkpt>
      <trkpt lat="49.8533" lon="2.27835">
        <ele>110.2</ele>
        <time>2022-10-29T13:36:01Z</time>
      </trkpt>
      <trkpt lat="49.8533" lon="2.27835">
        <ele>110.2</ele>
        <time>2022-10-29T13:36:02Z</time>
      </trkpt>
      <trkpt lat="49.8533" lon="2.27835">
        <ele>110.2</ele>
        <time>2022-10-29T13:36:03Z</time>
      </trkpt>
      <trkpt lat="49.8533" lon="2.27835">
        <ele>110.2</ele>
        <time>2022-10-29T13:36:04Z</time>
      </trkpt>
      <trkpt lat="49.8533" lon="2.27835">
        <ele>110.2</ele>
        <time>2022-10-29T13:36:05Z</time>
      </trkpt>
      <trkpt lat="49.8533" lon="2.27835">
        <ele>110.2</ele>
        <time>2022-10-29T13:36:06Z</time>
      </trkpt>
      <trkpt lat="49.8533" lon="2.27835">
        <ele>110.2</ele>
        <time>2022-10-29T13:36:07Z</time>
      </trkpt>
      <trkpt lat="49.8533" lon="2.27835">
        <ele>110.2</ele>
        <time>2022-10-29T13:36:08Z</time>
      </trkpt>
      <trkpt lat="49.8533" lon="2.27835">
        <ele>110.2</ele>
        <time>2022-10-29T13:36:09Z</time>
      </trkpt>
      <trkpt lat="49.8533" lon="2.27835">
        <ele>110.2</ele>
        <time>2022-10-29T13:36:10Z</time>
      </trkpt>
      <trkpt lat="49.8533" lon="2.27835">
        <ele>110.2</ele>
        <time>2022-10-29T13:36:11Z</time>
      </trkpt>
      <trkpt lat="49.8533" lon="2.27835">
        <ele>110.2</ele>
        <time>2022-10-29T13:36:12Z</time>
      </trkpt>
      <trkpt lat="49.8533" lon="2.27835">
        <ele>110.2</ele>
        <time>2022-10-29T13:36:13Z</time>
      </trkpt>
      <trkpt lat="49.8533" lon="2.27835">
        <ele>110.2</ele>
        <time>2022-10-29T13:36:14Z</time>
      </trkpt>
      <trkpt lat="49.8533" lon="2.27835">
        <ele>110.2</ele>
        <time>2022-10-29T13:36:15Z</time>
      </trkpt>
      <trkpt lat="49.8533" lon="2.27835">
        <ele>110.2</ele>
        <time>2022-10-29T13:36:16Z</time>
      </trkpt>
      <trkpt lat="49.8533" lon="2.27835">
        <ele>110.2</ele>
        <time>2022-10-29T13:36:17Z</time>
      </trkpt>
      <trkpt lat="49.8533" lon="2.27835">
        <ele>110.2</ele>
        <time>2022-10-29T13:36:18Z</time>
      </trkpt>
      <trkpt lat="49.8533" lon="2.27835">
        <ele>110.2</ele>
        <time>2022-10-29T13:36:19Z</time>
      </trkpt>
      <trkpt lat="49.8533" lon="2.27835">
        <ele>110.2</ele>
        <time>2022-10-29T13:36:20Z</time>
      </trkpt>
      <trkpt lat="49.8533" lon="2.27835">
        <ele>110.2</ele>
        <time>2022-10-29T13:36:21Z</time>
      </trkpt>
      <trkpt lat="49.8533" lon="2.27835">
        <ele>110.2</ele>
        <time>2022-10-29T13:36:22Z</time>
      </trkpt>
      <trkpt lat="49.8533" lon="2.27835">
        <ele>110.2</ele>
        <time>2022-10-29T13:36:23Z</time>
      </trkpt>
      <trkpt lat="49.8533" lon="2.27835">
        <ele>110.2</ele>
        <time>2022-10-29T13:36:24Z</time>
      </trkpt>
      <trkpt lat="49.8533" lon="2.27835">
        <ele>110.2</ele>
        <time>2022-10-29T13:36:25Z</time>
      </trkpt>
      <trkpt lat="49.8533" lon="2.27835">
        <ele>110.2</ele>
        <time>2022-10-29T13:36:26Z</time>
      </trkpt>
      <trkpt lat="49.8533" lon="2.27835">
        <ele>110.2</ele>
        <time>2022-10-29T13:36:27Z</time>
      </trkpt>
      <trkpt lat="49.8533" lon="2.27835">
        <ele>110.2</ele>
        <time>2022-10-29T13:36:28Z</time>
      </trkpt>
      <trkpt lat="49.8533" lon="2.27835">
        <ele>110.2</ele>
        <time>2022-10-29T13:36:29Z</time>
      </trkpt>
      <trkpt lat="49.8533" lon="2.27835">
        <ele>110.2</ele>
        <time>2022-10-29T13:36:30Z</time>
      </trkpt>
      <trkpt lat="49.8533" lon="2.27835">
        <ele>110.2</ele>
        <time>2022-10-29T13:36:31Z</time>
      </trkpt>
      <trkpt lat="49.8533" lon="2.27835">
        <ele>110.2</ele>
        <time>2022-10-29T13:36:32Z</time>
      </trkpt>
      <trkpt lat="49.8533" lon="2.27835">
        <ele>110.2</ele>
        <time>2022-10-29T13:36:33Z</time>
      </trkpt>
      <trkpt lat="49.8533" lon="2.27835">
        <ele>110.2</ele>
        <time>2022-10-29T13:36:34Z</time>
      </trkpt>
      <trkpt lat="49.8533" lon="2.27835">
        <ele>110.2</ele>
        <time>2022-10-29T13:36:35Z</time>
      </trkpt>
      <trkpt lat="49.8533" lon="2.27835">
        <ele>110.2</ele>
        <time>2022-10-29T13:36:36Z</time>
      </trkpt>
      <trkpt lat="49.8533" lon="2.27835">
        <ele>110.2</ele>
        <time>2022-10-29T13:36:37Z</time>
      </trkpt>
      <trkpt lat="49.8533" lon="2.27835">
        <ele>110.2</ele>
        <time>2022-10-29T13:36:38Z</time>
      </trkpt>
      <trkpt lat="49.8533" lon="2.27835">
        <ele>110.2</ele>
        <time>2022-10-29T13:36:39Z</time>
      </trkpt>
      <trkpt lat="49.8533" lon="2.27835">
        <ele>110.2</ele>
        <time>2022-10-29T13:36:40Z</time>
      </trkpt>
      <trkpt lat="49.8533" lon="2.27835">
        <ele>110.2</ele>
        <time>2022-10-29T13:36:41Z</time>
      </trkpt>
      <trkpt lat="49.8533" lon="2.27835">
        <ele>110.2</ele>
        <time>2022-10-29T13:36:42Z</time>
      </trkpt>
      <trkpt lat="49.8533" lon="2.27835">
        <ele>110.2</ele>
        <time>2022-10-29T13:36:43Z</time>
      </trkpt>
      <trkpt lat="49.8533" lon="2.27835">
        <ele>110.2</ele>
        <time>2022-10-29T13:36:44Z</time>
      </trkpt>
      <trkpt lat="49.8533" lon="2.27835">
        <ele>110.2</ele>
        <time>2022-10-29T13:36:45Z</time>
      </trkpt>
      <trkpt lat="49.8533" lon="2.27835">
        <ele>110.2</ele>
        <time>2022-10-29T13:36:46Z</time>
      </trkpt>
      <trkpt lat="49.8533" lon="2.27835">
        <ele>110.2</ele>
        <time>2022-10-29T13:36:47Z</time>
      </trkpt>
      <trkpt lat="49.8533" lon="2.27835">
        <ele>110.2</ele>
        <time>2022-10-29T13:36:48Z</time>
      </trkpt>
      <trkpt lat="49.8533" lon="2.27835">
        <ele>110.2</ele>
        <time>2022-10-29T13:36:49Z</time>
      </trkpt>
      <trkpt lat="49.8533" lon="2.27835">
        <ele>110.2</ele>
        <time>2022-10-29T13:36:50Z</time>
      </trkpt>
      <trkpt lat="49.8533" lon="2.27835">
        <ele>110.2</ele>
        <time>2022-10-29T13:36:51Z</time>
      </trkpt>
      <trkpt lat="49.8533" lon="2.27835">
        <ele>110.2</ele>
        <time>2022-10-29T13:36:52Z</time>
      </trkpt>
      <trkpt lat="49.8533" lon="2.27835">
        <ele>110.2</ele>
        <time>2022-10-29T13:36:53Z</time>
      </trkpt>
      <trkpt lat="49.8533" lon="2.27835">
        <ele>110.2</ele>
        <time>2022-10-29T13:36:54Z</time>
      </trkpt>
      <trkpt lat="49.8533" lon="2.27835">
        <ele>110.2</ele>
        <time>2022-10-29T13:36:55Z</time>
      </trkpt>
      <trkpt lat="49.8533" lon="2.27835">
        <ele>110.2</ele>
        <time>2022-10-29T13:36:56Z</time>
      </trkpt>
      <trkpt lat="49.8533" lon="2.27835">
        <ele>110.2</ele>
        <time>2022-10-29T13:36:57Z</time>
      </trkpt>
      <trkpt lat="49.8533" lon="2.27835">
        <ele>110.2</ele>
        <time>2022-10-29T13:36:58Z</time>
      </trkpt>
      <trkpt lat="49.8533" lon="2.27835">
        <ele>110.2</ele>
        <time>2022-10-29T13:36:59Z</time>
      </trkpt>
      <trkpt lat="49.8533" lon="2.27835">
        <ele>110.2</ele>
        <time>2022-10-29T13:37:00Z</time>
      </trkpt>
      <trkpt lat="49.8533" lon="2.27835">
        <ele>110.2</ele>
        <time>2022-10-29T13:37:01Z</time>
      </trkpt>
      <trkpt lat="49.8533" lon="2.27835">
        <ele>110.2</ele>
        <time>2022-10-29T13:37:02Z</time>
      </trkpt>
      <trkpt lat="49.8533" lon="2.27835">
        <ele>110.2</ele>
        <time>2022-10-29T13:37:03Z</time>
      </trkpt>
      <trkpt lat="49.8533" lon="2.27835">
        <ele>110.2</ele>
        <time>2022-10-29T13:37:04Z</time>
      </trkpt>
      <trkpt lat="49.8533" lon="2.27835">
        <ele>110.2</ele>
        <time>2022-10-29T13:37:05Z</time>
      </trkpt>
      <trkpt lat="49.8533" lon="2.27835">
        <ele>110.2</ele>
        <time>2022-10-29T13:37:06Z</time>
      </trkpt>
      <trkpt lat="49.8533" lon="2.27835">
        <ele>110.2</ele>
        <time>2022-10-29T13:37:07Z</time>
      </trkpt>
      <trkpt lat="49.8533" lon="2.27835">
        <ele>110.2</ele>
        <time>2022-10-29T13:37:08Z</time>
      </trkpt>
      <trkpt lat="49.8533" lon="2.27835">
        <ele>110.2</ele>
        <time>2022-10-29T13:37:09Z</time>
      </trkpt>
      <trkpt lat="49.8533" lon="2.27835">
        <ele>110.2</ele>
        <time>2022-10-29T13:37:10Z</time>
      </trkpt>
      <trkpt lat="49.8533" lon="2.27835">
        <ele>110.2</ele>
        <time>2022-10-29T13:37:11Z</time>
      </trkpt>
      <trkpt lat="49.8533" lon="2.27835">
        <ele>110.2</ele>
        <time>2022-10-29T13:37:12Z</time>
      </trkpt>
      <trkpt lat="49.8533" lon="2.27835">
        <ele>110.2</ele>
        <time>2022-10-29T13:37:13Z</time>
      </trkpt>
      <trkpt lat="49.8533" lon="2.27835">
        <ele>110.2</ele>
        <time>2022-10-29T13:37:14Z</time>
      </trkpt>
      <trkpt lat="49.8533" lon="2.27835">
        <ele>110.2</ele>
        <time>2022-10-29T13:37:15Z</time>
      </trkpt>
      <trkpt lat="49.8533" lon="2.27835">
        <ele>110.2</ele>
        <time>2022-10-29T13:37:16Z</time>
      </trkpt>
      <trkpt lat="49.8533" lon="2.27835">
        <ele>110.2</ele>
        <time>2022-10-29T13:37:17Z</time>
      </trkpt>
      <trkpt lat="49.8533" lon="2.27835">
        <ele>110.2</ele>
        <time>2022-10-29T13:37:18Z</time>
      </trkpt>
      <trkpt lat="49.8533" lon="2.27835">
        <ele>110.2</ele>
        <time>2022-10-29T13:37:19Z</time>
      </trkpt>
      <trkpt lat="49.8533" lon="2.27835">
        <ele>110.2</ele>
        <time>2022-10-29T13:37:20Z</time>
      </trkpt>
      <trkpt lat="49.8533" lon="2.27835">
        <ele>110.2</ele>
        <time>2022-10-29T13:37:21Z</time>
      </trkpt>
      <trkpt lat="49.8533" lon="2.27835">
        <ele>110.2</ele>
        <time>2022-10-29T13:37:22Z</time>
      </trkpt>
      <trkpt lat="49.8533" lon="2.27835">
        <ele>110.2</ele>
        <time>2022-10-29T13:37:23Z</time>
      </trkpt>
      <trkpt lat="49.8533" lon="2.27835">
        <ele>110.2</ele>
        <time>2022-10-29T13:37:24Z</time>
      </trkpt>
      <trkpt lat="49.8533" lon="2.27835">
        <ele>110.2</ele>
        <time>2022-10-29T13:37:25Z</time>
      </trkpt>
      <trkpt lat="49.8533" lon="2.27835">
        <ele>110.2</ele>
        <time>2022-10-29T13:37:26Z</time>
      </trkpt>
      <trkpt lat="49.8533" lon="2.27835">
        <ele>110.2</ele>
        <time>2022-10-29T13:37:27Z</time>
      </trkpt>
      <trkpt lat="49.8533" lon="2.27835">
        <ele>110.2</ele>
        <time>2022-10-29T13:37:28Z</time>
      </trkpt>
      <trkpt lat="49.8533" lon="2.27835">
        <ele>110.2</ele>
        <time>2022-10-29T13:37:29Z</time>
      </trkpt>
      <trkpt lat="49.8533" lon="2.27835">
        <ele>110.2</ele>
        <time>2022-10-29T13:37:30Z</time>
      </trkpt>
      <trkpt lat="49.8533" lon="2.27835">
        <ele>110.2</ele>
        <time>2022-10-29T13:37:31Z</time>
      </trkpt>
      <trkpt lat="49.8533" lon="2.27835">
        <ele>110.2</ele>
        <time>2022-10-29T13:37:32Z</time>
      </trkpt>
      <trkpt lat="49.8533" lon="2.27835">
        <ele>110.2</ele>
        <time>2022-10-29T13:37:33Z</time>
      </trkpt>
      <trkpt lat="49.8533" lon="2.27835">
        <ele>110.2</ele>
        <time>2022-10-29T13:37:34Z</time>
      </trkpt>
      <trkpt lat="49.8533" lon="2.27835">
        <ele>110.2</ele>
        <time>2022-10-29T13:37:35Z</time>
      </trkpt>
      <trkpt lat="49.8533" lon="2.27835">
        <ele>110.2</ele>
        <time>2022-10-29T13:37:36Z</time>
      </trkpt>
      <trkpt lat="49.8533" lon="2.27835">
        <ele>110.2</ele>
        <time>2022-10-29T13:37:37Z</time>
      </trkpt>
      <trkpt lat="49.8533" lon="2.27835">
        <ele>110.2</ele>
        <time>2022-10-29T13:37:38Z</time>
      </trkpt>
      <trkpt lat="49.8533" lon="2.27835">
        <ele>110.2</ele>
        <time>2022-10-29T13:37:39Z</time>
      </trkpt>
      <trkpt lat="49.8533" lon="2.27835">
        <ele>110.2</ele>
        <time>2022-10-29T13:37:40Z</time>
      </trkpt>
      <trkpt lat="49.8533" lon="2.27835">
        <ele>110.2</ele>
        <time>2022-10-29T13:37:41Z</time>
      </trkpt>
      <trkpt lat="49.8533" lon="2.27835">
        <ele>110.2</ele>
        <time>2022-10-29T13:37:42Z</time>
      </trkpt>
      <trkpt lat="49.8533" lon="2.27835">
        <ele>110.2</ele>
        <time>2022-10-29T13:37:43Z</time>
      </trkpt>
      <trkpt lat="49.8533" lon="2.27835">
        <ele>110.2</ele>
        <time>2022-10-29T13:37:44Z</time>
      </trkpt>
      <trkpt lat="49.8533" lon="2.27835">
        <ele>110.2</ele>
        <time>2022-10-29T13:37:45Z</time>
      </trkpt>
      <trkpt lat="49.8533" lon="2.27835">
        <ele>110.2</ele>
        <time>2022-10-29T13:37:46Z</time>
      </trkpt>
      <trkpt lat="49.8533" lon="2.27835">
        <ele>110.2</ele>
        <time>2022-10-29T13:37:47Z</time>
      </trkpt>
      <trkpt lat="49.8533" lon="2.27835">
        <ele>110.2</ele>
        <time>2022-10-29T13:37:48Z</time>
      </trkpt>
      <trkpt lat="49.8533" lon="2.27835">
        <ele>110.2</ele>
        <time>2022-10-29T13:37:49Z</time>
      </trkpt>
      <trkpt lat="49.8533" lon="2.27835">
        <ele>110.2</ele>
        <time>2022-10-29T13:37:50Z</time>
      </trkpt>
      <trkpt lat="49.8533" lon="2.27835">
        <ele>110.2</ele>
        <time>2022-10-29T13:37:51Z</time>
      </trkpt>
      <trkpt lat="49.8533" lon="2.27835">
        <ele>110.2</ele>
        <time>2022-10-29T13:37:52Z</time>
      </trkpt>
      <trkpt lat="49.8533" lon="2.27835">
        <ele>110.2</ele>
        <time>2022-10-29T13:37:53Z</time>
      </trkpt>
      <trkpt lat="49.8533" lon="2.27835">
        <ele>110.2</ele>
        <time>2022-10-29T13:37:54Z</time>
      </trkpt>
      <trkpt lat="49.8533" lon="2.27835">
        <ele>110.2</ele>
        <time>2022-10-29T13:37:55Z</time>
      </trkpt>
      <trkpt lat="49.8533" lon="2.27835">
        <ele>110.2</ele>
        <time>2022-10-29T13:37:56Z</time>
      </trkpt>
      <trkpt lat="49.8533" lon="2.27835">
        <ele>110.2</ele>
        <time>2022-10-29T13:37:57Z</time>
      </trkpt>
      <trkpt lat="49.8533" lon="2.27835">
        <ele>110.2</ele>
        <time>2022-10-29T13:37:58Z</time>
      </trkpt>
      <trkpt lat="49.8533" lon="2.27835">
        <ele>110.2</ele>
        <time>2022-10-29T13:37:59Z</time>
      </trkpt>
      <trkpt lat="49.8533" lon="2.27835">
        <ele>110.2</ele>
        <time>2022-10-29T13:38:00Z</time>
      </trkpt>
      <trkpt lat="49.8533" lon="2.27835">
        <ele>110.2</ele>
        <time>2022-10-29T13:38:01Z</time>
      </trkpt>
      <trkpt lat="49.8533" lon="2.27835">
        <ele>110.2</ele>
        <time>2022-10-29T13:38:02Z</time>
      </trkpt>
      <trkpt lat="49.8533" lon="2.27835">
        <ele>110.2</ele>
        <time>2022-10-29T13:38:03Z</time>
      </trkpt>
      <trkpt lat="49.8533" lon="2.27835">
        <ele>110.2</ele>
        <time>2022-10-29T13:38:04Z</time>
      </trkpt>
      <trkpt lat="49.8533" lon="2.27835">
        <ele>110.2</ele>
        <time>2022-10-29T13:38:05Z</time>
      </trkpt>
      <trkpt lat="49.8533" lon="2.27835">
        <ele>110.2</ele>
        <time>2022-10-29T13:38:06Z</time>
      </trkpt>
      <trkpt lat="49.8533" lon="2.27835">
        <ele>110.2</ele>
        <time>2022-10-29T13:38:07Z</time>
      </trkpt>
      <trkpt lat="49.8533" lon="2.27835">
        <ele>110.2</ele>
        <time>2022-10-29T13:38:08Z</time>
      </trkpt>
      <trkpt lat="49.8533" lon="2.27835">
        <ele>110.2</ele>
        <time>2022-10-29T13:38:09Z</time>
      </trkpt>
      <trkpt lat="49.8533" lon="2.27835">
        <ele>110.2</ele>
        <time>2022-10-29T13:38:10Z</time>
      </trkpt>
      <trkpt lat="49.8533" lon="2.27835">
        <ele>110.2</ele>
        <time>2022-10-29T13:38:11Z</time>
      </trkpt>
      <trkpt lat="49.8533" lon="2.27835">
        <ele>110.2</ele>
        <time>2022-10-29T13:38:12Z</time>
      </trkpt>
      <trkpt lat="49.8533" lon="2.27835">
        <ele>110.2</ele>
        <time>2022-10-29T13:38:13Z</time>
      </trkpt>
      <trkpt lat="49.8533" lon="2.27835">
        <ele>110.2</ele>
        <time>2022-10-29T13:38:14Z</time>
      </trkpt>
      <trkpt lat="49.8533" lon="2.27835">
        <ele>110.2</ele>
        <time>2022-10-29T13:38:15Z</time>
      </trkpt>
      <trkpt lat="49.8533" lon="2.27835">
        <ele>110.2</ele>
        <time>2022-10-29T13:38:16Z</time>
      </trkpt>
      <trkpt lat="49.8533" lon="2.27835">
        <ele>110.2</ele>
        <time>2022-10-29T13:38:17Z</time>
      </trkpt>
      <trkpt lat="49.8533" lon="2.27835">
        <ele>110.2</ele>
        <time>2022-10-29T13:38:18Z</time>
      </trkpt>
      <trkpt lat="49.8533" lon="2.27835">
        <ele>110.2</ele>
        <time>2022-10-29T13:38:19Z</time>
      </trkpt>
      <trkpt lat="49.8533" lon="2.27835">
        <ele>110.2</ele>
        <time>2022-10-29T13:38:20Z</time>
      </trkpt>
      <trkpt lat="49.8533" lon="2.27835">
        <ele>110.2</ele>
        <time>2022-10-29T13:38:21Z</time>
      </trkpt>
      <trkpt lat="49.8533" lon="2.27835">
        <ele>110.2</ele>
        <time>2022-10-29T13:38:22Z</time>
      </trkpt>
      <trkpt lat="49.8533" lon="2.27835">
        <ele>110.2</ele>
        <time>2022-10-29T13:38:23Z</time>
      </trkpt>
      <trkpt lat="49.8533" lon="2.27835">
        <ele>110.2</ele>
        <time>2022-10-29T13:38:24Z</time>
      </trkpt>
      <trkpt lat="49.8533" lon="2.27835">
        <ele>110.2</ele>
        <time>2022-10-29T13:38:25Z</time>
      </trkpt>
      <trkpt lat="49.8533" lon="2.27835">
        <ele>110.2</ele>
        <time>2022-10-29T13:38:26Z</time>
      </trkpt>
      <trkpt lat="49.8533" lon="2.27835">
        <ele>110.2</ele>
        <time>2022-10-29T13:38:27Z</time>
      </trkpt>
      <trkpt lat="49.8533" lon="2.27835">
        <ele>110.2</ele>
        <time>2022-10-29T13:38:28Z</time>
      </trkpt>
      <trkpt lat="49.8533" lon="2.27835">
        <ele>110.2</ele>
        <time>2022-10-29T13:38:29Z</time>
      </trkpt>
      <trkpt lat="49.8533" lon="2.27835">
        <ele>110.2</ele>
        <time>2022-10-29T13:38:30Z</time>
      </trkpt>
      <trkpt lat="49.8533" lon="2.27835">
        <ele>110.2</ele>
        <time>2022-10-29T13:38:31Z</time>
      </trkpt>
      <trkpt lat="49.8533" lon="2.27835">
        <ele>110.2</ele>
        <time>2022-10-29T13:38:32Z</time>
      </trkpt>
      <trkpt lat="49.8533" lon="2.27835">
        <ele>110.2</ele>
        <time>2022-10-29T13:38:33Z</time>
      </trkpt>
      <trkpt lat="49.8533" lon="2.27835">
        <ele>110.2</ele>
        <time>2022-10-29T13:38:34Z</time>
      </trkpt>
      <trkpt lat="49.8533" lon="2.27835">
        <ele>110.2</ele>
        <time>2022-10-29T13:38:35Z</time>
      </trkpt>
      <trkpt lat="49.8533" lon="2.27835">
        <ele>110.2</ele>
        <time>2022-10-29T13:38:36Z</time>
      </trkpt>
      <trkpt lat="49.8533" lon="2.27835">
        <ele>110.2</ele>
        <time>2022-10-29T13:38:37Z</time>
      </trkpt>
      <trkpt lat="49.8533" lon="2.27835">
        <ele>110.2</ele>
        <time>2022-10-29T13:38:38Z</time>
      </trkpt>
      <trkpt lat="49.8533" lon="2.27835">
        <ele>110.2</ele>
        <time>2022-10-29T13:38:39Z</time>
      </trkpt>
      <trkpt lat="49.8533" lon="2.27835">
        <ele>110.2</ele>
        <time>2022-10-29T13:38:40Z</time>
      </trkpt>
      <trkpt lat="49.8533" lon="2.27835">
        <ele>110.2</ele>
        <time>2022-10-29T13:38:41Z</time>
      </trkpt>
      <trkpt lat="49.8533" lon="2.27835">
        <ele>110.2</ele>
        <time>2022-10-29T13:38:42Z</time>
      </trkpt>
      <trkpt lat="49.8533" lon="2.27835">
        <ele>110.2</ele>
        <time>2022-10-29T13:38:43Z</time>
      </trkpt>
      <trkpt lat="49.8533" lon="2.27835">
        <ele>110.2</ele>
        <time>2022-10-29T13:38:44Z</time>
      </trkpt>
      <trkpt lat="49.85331" lon="2.27835">
        <ele>110.2</ele>
        <time>2022-10-29T13:38:45Z</time>
      </trkpt>
      <trkpt lat="49.85331" lon="2.27835">
        <ele>110.2</ele>
        <time>2022-10-29T13:38:46Z</time>
      </trkpt>
      <trkpt lat="49.85331" lon="2.27835">
        <ele>110.2</ele>
        <time>2022-10-29T13:38:47Z</time>
      </trkpt>
      <trkpt lat="49.85331" lon="2.27834">
        <ele>110.2</ele>
        <time>2022-10-29T13:38:48Z</time>
      </trkpt>
      <trkpt lat="49.85331" lon="2.27834">
        <ele>110.2</ele>
        <time>2022-10-29T13:38:49Z</time>
      </trkpt>
      <trkpt lat="49.85331" lon="2.27834">
        <ele>110.2</ele>
        <time>2022-10-29T13:38:50Z</time>
      </trkpt>
      <trkpt lat="49.85331" lon="2.27834">
        <ele>110.2</ele>
        <time>2022-10-29T13:38:51Z</time>
      </trkpt>
      <trkpt lat="49.85331" lon="2.27834">
        <ele>110.2</ele>
        <time>2022-10-29T13:38:52Z</time>
      </trkpt>
      <trkpt lat="49.85331" lon="2.27834">
        <ele>110.2</ele>
        <time>2022-10-29T13:38:53Z</time>
      </trkpt>
      <trkpt lat="49.85331" lon="2.27834">
        <ele>110.2</ele>
        <time>2022-10-29T13:38:54Z</time>
      </trkpt>
      <trkpt lat="49.85331" lon="2.27834">
        <ele>110.2</ele>
        <time>2022-10-29T13:38:55Z</time>
      </trkpt>
      <trkpt lat="49.85331" lon="2.27834">
        <ele>110.2</ele>
        <time>2022-10-29T13:38:56Z</time>
      </trkpt>
      <trkpt lat="49.85331" lon="2.27834">
        <ele>110.2</ele>
        <time>2022-10-29T13:38:57Z</time>
      </trkpt>
      <trkpt lat="49.85331" lon="2.27834">
        <ele>110.2</ele>
        <time>2022-10-29T13:38:58Z</time>
      </trkpt>
      <trkpt lat="49.85331" lon="2.27834">
        <ele>110.2</ele>
        <time>2022-10-29T13:38:59Z</time>
      </trkpt>
      <trkpt lat="49.85331" lon="2.27834">
        <ele>110.2</ele>
        <time>2022-10-29T13:39:00Z</time>
      </trkpt>
      <trkpt lat="49.85331" lon="2.27834">
        <ele>110.2</ele>
        <time>2022-10-29T13:39:01Z</time>
      </trkpt>
      <trkpt lat="49.85331" lon="2.27834">
        <ele>110.2</ele>
        <time>2022-10-29T13:39:02Z</time>
      </trkpt>
      <trkpt lat="49.85331" lon="2.27834">
        <ele>110.2</ele>
        <time>2022-10-29T13:39:03Z</time>
      </trkpt>
      <trkpt lat="49.85331" lon="2.27834">
        <ele>110.2</ele>
        <time>2022-10-29T13:39:04Z</time>
      </trkpt>
      <trkpt lat="49.85331" lon="2.27834">
        <ele>110.2</ele>
        <time>2022-10-29T13:39:05Z</time>
      </trkpt>
      <trkpt lat="49.85331" lon="2.27834">
        <ele>110.2</ele>
        <time>2022-10-29T13:39:06Z</time>
      </trkpt>
      <trkpt lat="49.85331" lon="2.27834">
        <ele>110.2</ele>
        <time>2022-10-29T13:39:07Z</time>
      </trkpt>
      <trkpt lat="49.85331" lon="2.27834">
        <ele>110.2</ele>
        <time>2022-10-29T13:39:08Z</time>
      </trkpt>
      <trkpt lat="49.85331" lon="2.27834">
        <ele>110.2</ele>
        <time>2022-10-29T13:39:09Z</time>
      </trkpt>
      <trkpt lat="49.85331" lon="2.27834">
        <ele>110.2</ele>
        <time>2022-10-29T13:39:10Z</time>
      </trkpt>
      <trkpt lat="49.85331" lon="2.27834">
        <ele>110.2</ele>
        <time>2022-10-29T13:39:11Z</time>
      </trkpt>
      <trkpt lat="49.85331" lon="2.27834">
        <ele>110.2</ele>
        <time>2022-10-29T13:39:12Z</time>
      </trkpt>
      <trkpt lat="49.85331" lon="2.27834">
        <ele>110.2</ele>
        <time>2022-10-29T13:39:13Z</time>
      </trkpt>
      <trkpt lat="49.85331" lon="2.27834">
        <ele>110.2</ele>
        <time>2022-10-29T13:39:14Z</time>
      </trkpt>
      <trkpt lat="49.85331" lon="2.27834">
        <ele>110.2</ele>
        <time>2022-10-29T13:39:15Z</time>
      </trkpt>
      <trkpt lat="49.85331" lon="2.27834">
        <ele>110.2</ele>
        <time>2022-10-29T13:39:16Z</time>
      </trkpt>
      <trkpt lat="49.85331" lon="2.27834">
        <ele>110.2</ele>
        <time>2022-10-29T13:39:17Z</time>
      </trkpt>
      <trkpt lat="49.85331" lon="2.27834">
        <ele>110.2</ele>
        <time>2022-10-29T13:39:18Z</time>
      </trkpt>
      <trkpt lat="49.85331" lon="2.27834">
        <ele>110.2</ele>
        <time>2022-10-29T13:39:19Z</time>
      </trkpt>
      <trkpt lat="49.85331" lon="2.27834">
        <ele>110.2</ele>
        <time>2022-10-29T13:39:20Z</time>
      </trkpt>
      <trkpt lat="49.85331" lon="2.27834">
        <ele>110.2</ele>
        <time>2022-10-29T13:39:21Z</time>
      </trkpt>
      <trkpt lat="49.85331" lon="2.27833">
        <ele>110.2</ele>
        <time>2022-10-29T13:39:22Z</time>
      </trkpt>
      <trkpt lat="49.85331" lon="2.27834">
        <ele>110.2</ele>
        <time>2022-10-29T13:39:23Z</time>
      </trkpt>
      <trkpt lat="49.85331" lon="2.27834">
        <ele>110.2</ele>
        <time>2022-10-29T13:39:24Z</time>
      </trkpt>
      <trkpt lat="49.85331" lon="2.27834">
        <ele>110.2</ele>
        <time>2022-10-29T13:39:25Z</time>
      </trkpt>
      <trkpt lat="49.85331" lon="2.27834">
        <ele>110.2</ele>
        <time>2022-10-29T13:39:26Z</time>
      </trkpt>
      <trkpt lat="49.85331" lon="2.27834">
        <ele>110.2</ele>
        <time>2022-10-29T13:39:27Z</time>
      </trkpt>
      <trkpt lat="49.85331" lon="2.27834">
        <ele>110.2</ele>
        <time>2022-10-29T13:39:28Z</time>
      </trkpt>
      <trkpt lat="49.85331" lon="2.27834">
        <ele>110.2</ele>
        <time>2022-10-29T13:39:29Z</time>
      </trkpt>
      <trkpt lat="49.85331" lon="2.27834">
        <ele>110.2</ele>
        <time>2022-10-29T13:39:30Z</time>
      </trkpt>
      <trkpt lat="49.85331" lon="2.27834">
        <ele>110.2</ele>
        <time>2022-10-29T13:39:31Z</time>
      </trkpt>
      <trkpt lat="49.85331" lon="2.27834">
        <ele>110.2</ele>
        <time>2022-10-29T13:39:32Z</time>
      </trkpt>
      <trkpt lat="49.85331" lon="2.27834">
        <ele>110.2</ele>
        <time>2022-10-29T13:39:33Z</time>
      </trkpt>
      <trkpt lat="49.85331" lon="2.27834">
        <ele>110.2</ele>
        <time>2022-10-29T13:39:34Z</time>
      </trkpt>
      <trkpt lat="49.85331" lon="2.27834">
        <ele>110.2</ele>
        <time>2022-10-29T13:39:35Z</time>
      </trkpt>
      <trkpt lat="49.85331" lon="2.27834">
        <ele>110.2</ele>
        <time>2022-10-29T13:39:36Z</time>
      </trkpt>
      <trkpt lat="49.85331" lon="2.27834">
        <ele>110.2</ele>
        <time>2022-10-29T13:39:37Z</time>
      </trkpt>
      <trkpt lat="49.85331" lon="2.27834">
        <ele>110.2</ele>
        <time>2022-10-29T13:39:38Z</time>
      </trkpt>
      <trkpt lat="49.85331" lon="2.27834">
        <ele>110.2</ele>
        <time>2022-10-29T13:39:39Z</time>
      </trkpt>
      <trkpt lat="49.85331" lon="2.27834">
        <ele>110.2</ele>
        <time>2022-10-29T13:39:40Z</time>
      </trkpt>
      <trkpt lat="49.85331" lon="2.27834">
        <ele>110.2</ele>
        <time>2022-10-29T13:39:41Z</time>
      </trkpt>
      <trkpt lat="49.85331" lon="2.27834">
        <ele>110.2</ele>
        <time>2022-10-29T13:39:42Z</time>
      </trkpt>
      <trkpt lat="49.85331" lon="2.27834">
        <ele>110.2</ele>
        <time>2022-10-29T13:39:43Z</time>
      </trkpt>
      <trkpt lat="49.85331" lon="2.27834">
        <ele>110.2</ele>
        <time>2022-10-29T13:39:44Z</time>
      </trkpt>
      <trkpt lat="49.85331" lon="2.27834">
        <ele>110.2</ele>
        <time>2022-10-29T13:39:45Z</time>
      </trkpt>
      <trkpt lat="49.85331" lon="2.27834">
        <ele>110.2</ele>
        <time>2022-10-29T13:39:46Z</time>
      </trkpt>
      <trkpt lat="49.85331" lon="2.27834">
        <ele>110.2</ele>
        <time>2022-10-29T13:39:47Z</time>
      </trkpt>
      <trkpt lat="49.85331" lon="2.27834">
        <ele>110.2</ele>
        <time>2022-10-29T13:39:48Z</time>
      </trkpt>
      <trkpt lat="49.85331" lon="2.27834">
        <ele>110.2</ele>
        <time>2022-10-29T13:39:49Z</time>
      </trkpt>
      <trkpt lat="49.85331" lon="2.27834">
        <ele>110.2</ele>
        <time>2022-10-29T13:39:50Z</time>
      </trkpt>
      <trkpt lat="49.85331" lon="2.27834">
        <ele>110.2</ele>
        <time>2022-10-29T13:39:51Z</time>
      </trkpt>
      <trkpt lat="49.85331" lon="2.27834">
        <ele>110.2</ele>
        <time>2022-10-29T13:39:52Z</time>
      </trkpt>
      <trkpt lat="49.85331" lon="2.27834">
        <ele>110.2</ele>
        <time>2022-10-29T13:39:53Z</time>
      </trkpt>
      <trkpt lat="49.85331" lon="2.27834">
        <ele>110.2</ele>
        <time>2022-10-29T13:39:54Z</time>
      </trkpt>
      <trkpt lat="49.85331" lon="2.27834">
        <ele>110.2</ele>
        <time>2022-10-29T13:39:55Z</time>
      </trkpt>
      <trkpt lat="49.85331" lon="2.27834">
        <ele>110.2</ele>
        <time>2022-10-29T13:39:56Z</time>
      </trkpt>
      <trkpt lat="49.85331" lon="2.27834">
        <ele>110.2</ele>
        <time>2022-10-29T13:39:57Z</time>
      </trkpt>
      <trkpt lat="49.85331" lon="2.27834">
        <ele>110.2</ele>
        <time>2022-10-29T13:39:58Z</time>
      </trkpt>
      <trkpt lat="49.85331" lon="2.27834">
        <ele>110.2</ele>
        <time>2022-10-29T13:39:59Z</time>
      </trkpt>
      <trkpt lat="49.85331" lon="2.27834">
        <ele>110.2</ele>
        <time>2022-10-29T13:40:00Z</time>
      </trkpt>
      <trkpt lat="49.85331" lon="2.27834">
        <ele>110.2</ele>
        <time>2022-10-29T13:40:01Z</time>
      </trkpt>
      <trkpt lat="49.85331" lon="2.27834">
        <ele>110.2</ele>
        <time>2022-10-29T13:40:02Z</time>
      </trkpt>
      <trkpt lat="49.85331" lon="2.27834">
        <ele>110.2</ele>
        <time>2022-10-29T13:40:03Z</time>
      </trkpt>
      <trkpt lat="49.85331" lon="2.27834">
        <ele>110.2</ele>
        <time>2022-10-29T13:40:04Z</time>
      </trkpt>
      <trkpt lat="49.85331" lon="2.27834">
        <ele>110.2</ele>
        <time>2022-10-29T13:40:05Z</time>
      </trkpt>
      <trkpt lat="49.85331" lon="2.27834">
        <ele>110.2</ele>
        <time>2022-10-29T13:40:06Z</time>
      </trkpt>
      <trkpt lat="49.85331" lon="2.27834">
        <ele>110.2</ele>
        <time>2022-10-29T13:40:07Z</time>
      </trkpt>
      <trkpt lat="49.85331" lon="2.27834">
        <ele>110.2</ele>
        <time>2022-10-29T13:40:08Z</time>
      </trkpt>
      <trkpt lat="49.85331" lon="2.27834">
        <ele>110.2</ele>
        <time>2022-10-29T13:40:09Z</time>
      </trkpt>
      <trkpt lat="49.85331" lon="2.27834">
        <ele>110.2</ele>
        <time>2022-10-29T13:40:10Z</time>
      </trkpt>
      <trkpt lat="49.85331" lon="2.27834">
        <ele>110.2</ele>
        <time>2022-10-29T13:40:11Z</time>
      </trkpt>
      <trkpt lat="49.85331" lon="2.27834">
        <ele>110.2</ele>
        <time>2022-10-29T13:40:12Z</time>
      </trkpt>
      <trkpt lat="49.85331" lon="2.27834">
        <ele>110.2</ele>
        <time>2022-10-29T13:40:13Z</time>
      </trkpt>
      <trkpt lat="49.85331" lon="2.27834">
        <ele>110.2</ele>
        <time>2022-10-29T13:40:14Z</time>
      </trkpt>
      <trkpt lat="49.85331" lon="2.27834">
        <ele>110.2</ele>
        <time>2022-10-29T13:40:15Z</time>
      </trkpt>
      <trkpt lat="49.85331" lon="2.27834">
        <ele>110.2</ele>
        <time>2022-10-29T13:40:16Z</time>
      </trkpt>
      <trkpt lat="49.85331" lon="2.27834">
        <ele>110.2</ele>
        <time>2022-10-29T13:40:17Z</time>
      </trkpt>
      <trkpt lat="49.85331" lon="2.27834">
        <ele>110.2</ele>
        <time>2022-10-29T13:40:18Z</time>
      </trkpt>
      <trkpt lat="49.85331" lon="2.27834">
        <ele>110.2</ele>
        <time>2022-10-29T13:40:19Z</time>
      </trkpt>
      <trkpt lat="49.85331" lon="2.27834">
        <ele>110.2</ele>
        <time>2022-10-29T13:40:20Z</time>
      </trkpt>
      <trkpt lat="49.85331" lon="2.27834">
        <ele>110.2</ele>
        <time>2022-10-29T13:40:21Z</time>
      </trkpt>
      <trkpt lat="49.85331" lon="2.27834">
        <ele>110.2</ele>
        <time>2022-10-29T13:40:22Z</time>
      </trkpt>
      <trkpt lat="49.85331" lon="2.27834">
        <ele>110.2</ele>
        <time>2022-10-29T13:40:23Z</time>
      </trkpt>
      <trkpt lat="49.85331" lon="2.27834">
        <ele>110.2</ele>
        <time>2022-10-29T13:40:24Z</time>
      </trkpt>
      <trkpt lat="49.85331" lon="2.27834">
        <ele>110.2</ele>
        <time>2022-10-29T13:40:25Z</time>
      </trkpt>
      <trkpt lat="49.85331" lon="2.27834">
        <ele>110.2</ele>
        <time>2022-10-29T13:40:26Z</time>
      </trkpt>
      <trkpt lat="49.85331" lon="2.27834">
        <ele>110.2</ele>
        <time>2022-10-29T13:40:27Z</time>
      </trkpt>
      <trkpt lat="49.85331" lon="2.27834">
        <ele>110.2</ele>
        <time>2022-10-29T13:40:28Z</time>
      </trkpt>
      <trkpt lat="49.85331" lon="2.27834">
        <ele>110.2</ele>
        <time>2022-10-29T13:40:29Z</time>
      </trkpt>
      <trkpt lat="49.85331" lon="2.27834">
        <ele>110.2</ele>
        <time>2022-10-29T13:40:30Z</time>
      </trkpt>
      <trkpt lat="49.85331" lon="2.27834">
        <ele>110.2</ele>
        <time>2022-10-29T13:40:31Z</time>
      </trkpt>
      <trkpt lat="49.85331" lon="2.27834">
        <ele>110.2</ele>
        <time>2022-10-29T13:40:32Z</time>
      </trkpt>
      <trkpt lat="49.85331" lon="2.27834">
        <ele>110.2</ele>
        <time>2022-10-29T13:40:33Z</time>
      </trkpt>
      <trkpt lat="49.85331" lon="2.27834">
        <ele>110.2</ele>
        <time>2022-10-29T13:40:34Z</time>
      </trkpt>
      <trkpt lat="49.85331" lon="2.27834">
        <ele>110.2</ele>
        <time>2022-10-29T13:40:35Z</time>
      </trkpt>
      <trkpt lat="49.85331" lon="2.27834">
        <ele>110.2</ele>
        <time>2022-10-29T13:40:36Z</time>
      </trkpt>
      <trkpt lat="49.85331" lon="2.27834">
        <ele>110.2</ele>
        <time>2022-10-29T13:40:37Z</time>
      </trkpt>
      <trkpt lat="49.85331" lon="2.27834">
        <ele>110.2</ele>
        <time>2022-10-29T13:40:38Z</time>
      </trkpt>
      <trkpt lat="49.85331" lon="2.27834">
        <ele>110.2</ele>
        <time>2022-10-29T13:40:39Z</time>
      </trkpt>
      <trkpt lat="49.85331" lon="2.27834">
        <ele>110.2</ele>
        <time>2022-10-29T13:40:40Z</time>
      </trkpt>
      <trkpt lat="49.85331" lon="2.27834">
        <ele>110.2</ele>
        <time>2022-10-29T13:40:41Z</time>
      </trkpt>
      <trkpt lat="49.85331" lon="2.27834">
        <ele>110.2</ele>
        <time>2022-10-29T13:40:42Z</time>
      </trkpt>
      <trkpt lat="49.85331" lon="2.27834">
        <ele>110.2</ele>
        <time>2022-10-29T13:40:43Z</time>
      </trkpt>
      <trkpt lat="49.85331" lon="2.27834">
        <ele>110.2</ele>
        <time>2022-10-29T13:40:44Z</time>
      </trkpt>
      <trkpt lat="49.85331" lon="2.27834">
        <ele>110.2</ele>
        <time>2022-10-29T13:40:45Z</time>
      </trkpt>
      <trkpt lat="49.85331" lon="2.27834">
        <ele>110.2</ele>
        <time>2022-10-29T13:40:46Z</time>
      </trkpt>
      <trkpt lat="49.85331" lon="2.27833">
        <ele>110.2</ele>
        <time>2022-10-29T13:40:47Z</time>
      </trkpt>
      <trkpt lat="49.85331" lon="2.27833">
        <ele>110.2</ele>
        <time>2022-10-29T13:40:48Z</time>
      </trkpt>
      <trkpt lat="49.85331" lon="2.27832">
        <ele>110.2</ele>
        <time>2022-10-29T13:40:49Z</time>
      </trkpt>
      <trkpt lat="49.85331" lon="2.27831">
        <ele>110.2</ele>
        <time>2022-10-29T13:40:50Z</time>
      </trkpt>
      <trkpt lat="49.85331" lon="2.27831">
        <ele>110.2</ele>
        <time>2022-10-29T13:40:51Z</time>
      </trkpt>
      <trkpt lat="49.8533" lon="2.27831">
        <ele>110.2</ele>
        <time>2022-10-29T13:40:52Z</time>
      </trkpt>
      <trkpt lat="49.8533" lon="2.27831">
        <ele>110.2</ele>
        <time>2022-10-29T13:40:53Z</time>
      </trkpt>
      <trkpt lat="49.8533" lon="2.2783">
        <ele>110.2</ele>
        <time>2022-10-29T13:40:54Z</time>
      </trkpt>
      <trkpt lat="49.8533" lon="2.27829">
        <ele>110.2</ele>
        <time>2022-10-29T13:40:55Z</time>
      </trkpt>
      <trkpt lat="49.85328" lon="2.27827">
        <ele>110.2</ele>
        <time>2022-10-29T13:40:57Z</time>
      </trkpt>
      <trkpt lat="49.85327" lon="2.27826">
        <ele>110.2</ele>
        <time>2022-10-29T13:40:58Z</time>
      </trkpt>
      <trkpt lat="49.85326" lon="2.27826">
        <ele>110.2</ele>
        <time>2022-10-29T13:41:00Z</time>
      </trkpt>
      <trkpt lat="49.85325" lon="2.27826">
        <ele>110.2</ele>
        <time>2022-10-29T13:41:01Z</time>
      </trkpt>
      <trkpt lat="49.85325" lon="2.27826">
        <ele>110.2</ele>
        <time>2022-10-29T13:41:02Z</time>
      </trkpt>
      <trkpt lat="49.85323" lon="2.27826">
        <ele>110.2</ele>
        <time>2022-10-29T13:41:03Z</time>
      </trkpt>
      <trkpt lat="49.85323" lon="2.27825">
        <ele>110.2</ele>
        <time>2022-10-29T13:41:04Z</time>
      </trkpt>
      <trkpt lat="49.85322" lon="2.27826">
        <ele>110.2</ele>
        <time>2022-10-29T13:41:05Z</time>
      </trkpt>
      <trkpt lat="49.85321" lon="2.27825">
        <ele>110.2</ele>
        <time>2022-10-29T13:41:06Z</time>
      </trkpt>
      <trkpt lat="49.8532" lon="2.27824">
        <ele>110.2</ele>
        <time>2022-10-29T13:41:08Z</time>
      </trkpt>
      <trkpt lat="49.85319" lon="2.27823">
        <ele>110.2</ele>
        <time>2022-10-29T13:41:09Z</time>
      </trkpt>
      <trkpt lat="49.85319" lon="2.27823">
        <ele>110.2</ele>
        <time>2022-10-29T13:41:10Z</time>
      </trkpt>
      <trkpt lat="49.85319" lon="2.27823">
        <ele>110.2</ele>
        <time>2022-10-29T13:41:11Z</time>
      </trkpt>
      <trkpt lat="49.85319" lon="2.27824">
        <ele>110.2</ele>
        <time>2022-10-29T13:41:12Z</time>
      </trkpt>
      <trkpt lat="49.85319" lon="2.27824">
        <ele>110.2</ele>
        <time>2022-10-29T13:41:13Z</time>
      </trkpt>
      <trkpt lat="49.85319" lon="2.27824">
        <ele>110.2</ele>
        <time>2022-10-29T13:41:14Z</time>
      </trkpt>
      <trkpt lat="49.85319" lon="2.27824">
        <ele>110.2</ele>
        <time>2022-10-29T13:41:15Z</time>
      </trkpt>
      <trkpt lat="49.85319" lon="2.27824">
        <ele>110.2</ele>
        <time>2022-10-29T13:41:16Z</time>
      </trkpt>
      <trkpt lat="49.85319" lon="2.27824">
        <ele>110.2</ele>
        <time>2022-10-29T13:41:17Z</time>
      </trkpt>
      <trkpt lat="49.85319" lon="2.27824">
        <ele>110.2</ele>
        <time>2022-10-29T13:41:18Z</time>
      </trkpt>
      <trkpt lat="49.85319" lon="2.27825">
        <ele>110.2</ele>
        <time>2022-10-29T13:41:19Z</time>
      </trkpt>
      <trkpt lat="49.85319" lon="2.27825">
        <ele>110.2</ele>
        <time>2022-10-29T13:41:20Z</time>
      </trkpt>
      <trkpt lat="49.85319" lon="2.27825">
        <ele>110.2</ele>
        <time>2022-10-29T13:41:21Z</time>
      </trkpt>
      <trkpt lat="49.85319" lon="2.27825">
        <ele>110.2</ele>
        <time>2022-10-29T13:41:22Z</time>
      </trkpt>
      <trkpt lat="49.85319" lon="2.27825">
        <ele>110.2</ele>
        <time>2022-10-29T13:41:24Z</time>
      </trkpt>
      <trkpt lat="49.85319" lon="2.27825">
        <ele>110.2</ele>
        <time>2022-10-29T13:41:25Z</time>
      </trkpt>
      <trkpt lat="49.85319" lon="2.27825">
        <ele>110.2</ele>
        <time>2022-10-29T13:41:26Z</time>
      </trkpt>
      <trkpt lat="49.85319" lon="2.27826">
        <ele>110.2</ele>
        <time>2022-10-29T13:41:27Z</time>
      </trkpt>
      <trkpt lat="49.85319" lon="2.27826">
        <ele>110.2</ele>
        <time>2022-10-29T13:41:28Z</time>
      </trkpt>
      <trkpt lat="49.85319" lon="2.27826">
        <ele>110.2</ele>
        <time>2022-10-29T13:41:29Z</time>
      </trkpt>
      <trkpt lat="49.85319" lon="2.27826">
        <ele>110.2</ele>
        <time>2022-10-29T13:41:30Z</time>
      </trkpt>
      <trkpt lat="49.85319" lon="2.27826">
        <ele>110.2</ele>
        <time>2022-10-29T13:41:31Z</time>
      </trkpt>
      <trkpt lat="49.85319" lon="2.27826">
        <ele>110.2</ele>
        <time>2022-10-29T13:41:32Z</time>
      </trkpt>
      <trkpt lat="49.85319" lon="2.27827">
        <ele>110.2</ele>
        <time>2022-10-29T13:41:33Z</time>
      </trkpt>
      <trkpt lat="49.85319" lon="2.27827">
        <ele>110.2</ele>
        <time>2022-10-29T13:41:34Z</time>
      </trkpt>
      <trkpt lat="49.85319" lon="2.27827">
        <ele>110.2</ele>
        <time>2022-10-29T13:41:35Z</time>
      </trkpt>
      <trkpt lat="49.85319" lon="2.27827">
        <ele>110.2</ele>
        <time>2022-10-29T13:41:36Z</time>
      </trkpt>
      <trkpt lat="49.85319" lon="2.27827">
        <ele>110.2</ele>
        <time>2022-10-29T13:41:37Z</time>
      </trkpt>
      <trkpt lat="49.85319" lon="2.27827">
        <ele>110.2</ele>
        <time>2022-10-29T13:41:38Z</time>
      </trkpt>
      <trkpt lat="49.85319" lon="2.27827">
        <ele>110.2</ele>
        <time>2022-10-29T13:41:39Z</time>
      </trkpt>
      <trkpt lat="49.85319" lon="2.27828">
        <ele>110.2</ele>
        <time>2022-10-29T13:41:40Z</time>
      </trkpt>
      <trkpt lat="49.85319" lon="2.27828">
        <ele>110.2</ele>
        <time>2022-10-29T13:41:41Z</time>
      </trkpt>
      <trkpt lat="49.85319" lon="2.27828">
        <ele>110.2</ele>
        <time>2022-10-29T13:41:42Z</time>
      </trkpt>
      <trkpt lat="49.85319" lon="2.27828">
        <ele>110.2</ele>
        <time>2022-10-29T13:41:43Z</time>
      </trkpt>
      <trkpt lat="49.85319" lon="2.27828">
        <ele>110.2</ele>
        <time>2022-10-29T13:41:44Z</time>
      </trkpt>
      <trkpt lat="49.85319" lon="2.27828">
        <ele>110.2</ele>
        <time>2022-10-29T13:41:45Z</time>
      </trkpt>
      <trkpt lat="49.85319" lon="2.27828">
        <ele>110.2</ele>
        <time>2022-10-29T13:41:46Z</time>
      </trkpt>
      <trkpt lat="49.8532" lon="2.27829">
        <ele>110.2</ele>
        <time>2022-10-29T13:41:47Z</time>
      </trkpt>
      <trkpt lat="49.8532" lon="2.27829">
        <ele>110.2</ele>
        <time>2022-10-29T13:41:48Z</time>
      </trkpt>
      <trkpt lat="49.85321" lon="2.27829">
        <ele>110.2</ele>
        <time>2022-10-29T13:41:49Z</time>
      </trkpt>
      <trkpt lat="49.85322" lon="2.27828">
        <ele>110.2</ele>
        <time>2022-10-29T13:41:50Z</time>
      </trkpt>
      <trkpt lat="49.85323" lon="2.27828">
        <ele>110.2</ele>
        <time>2022-10-29T13:41:52Z</time>
      </trkpt>
      <trkpt lat="49.85325" lon="2.27828">
        <ele>110.2</ele>
        <time>2022-10-29T13:41:53Z</time>
      </trkpt>
      <trkpt lat="49.85325" lon="2.27828">
        <ele>110.1</ele>
        <time>2022-10-29T13:41:54Z</time>
      </trkpt>
      <trkpt lat="49.85325" lon="2.2783">
        <ele>110.1</ele>
        <time>2022-10-29T13:41:55Z</time>
      </trkpt>
      <trkpt lat="49.85325" lon="2.27831">
        <ele>110.1</ele>
        <time>2022-10-29T13:41:56Z</time>
      </trkpt>
      <trkpt lat="49.85325" lon="2.27831">
        <ele>110.1</ele>
        <time>2022-10-29T13:41:57Z</time>
      </trkpt>
      <trkpt lat="49.85324" lon="2.27831">
        <ele>110.1</ele>
        <time>2022-10-29T13:41:59Z</time>
      </trkpt>
      <trkpt lat="49.85324" lon="2.27831">
        <ele>110.1</ele>
        <time>2022-10-29T13:42:00Z</time>
      </trkpt>
      <trkpt lat="49.85324" lon="2.27831">
        <ele>110.1</ele>
        <time>2022-10-29T13:42:01Z</time>
      </trkpt>
      <trkpt lat="49.85323" lon="2.2783">
        <ele>110.1</ele>
        <time>2022-10-29T13:42:02Z</time>
      </trkpt>
      <trkpt lat="49.85324" lon="2.27831">
        <ele>110.1</ele>
        <time>2022-10-29T13:42:03Z</time>
      </trkpt>
      <trkpt lat="49.85324" lon="2.27831">
        <ele>110.1</ele>
        <time>2022-10-29T13:42:04Z</time>
      </trkpt>
      <trkpt lat="49.85324" lon="2.27832">
        <ele>110.1</ele>
        <time>2022-10-29T13:42:05Z</time>
      </trkpt>
      <trkpt lat="49.85324" lon="2.27833">
        <ele>110.1</ele>
        <time>2022-10-29T13:42:06Z</time>
      </trkpt>
      <trkpt lat="49.85324" lon="2.27834">
        <ele>110.1</ele>
        <time>2022-10-29T13:42:07Z</time>
      </trkpt>
      <trkpt lat="49.85324" lon="2.27835">
        <ele>110.1</ele>
        <time>2022-10-29T13:42:08Z</time>
      </trkpt>
      <trkpt lat="49.85323" lon="2.27836">
        <ele>110.1</ele>
        <time>2022-10-29T13:42:09Z</time>
      </trkpt>
      <trkpt lat="49.85322" lon="2.27836">
        <ele>110.1</ele>
        <time>2022-10-29T13:42:11Z</time>
      </trkpt>
      <trkpt lat="49.85322" lon="2.27836">
        <ele>110.1</ele>
        <time>2022-10-29T13:42:12Z</time>
      </trkpt>
      <trkpt lat="49.85322" lon="2.27835">
        <ele>110.1</ele>
        <time>2022-10-29T13:42:14Z</time>
      </trkpt>
      <trkpt lat="49.85322" lon="2.27835">
        <ele>110.1</ele>
        <time>2022-10-29T13:42:15Z</time>
      </trkpt>
      <trkpt lat="49.85322" lon="2.27834">
        <ele>110.1</ele>
        <time>2022-10-29T13:42:16Z</time>
      </trkpt>
      <trkpt lat="49.85322" lon="2.27834">
        <ele>110.1</ele>
        <time>2022-10-29T13:42:17Z</time>
      </trkpt>
      <trkpt lat="49.85322" lon="2.27834">
        <ele>110.1</ele>
        <time>2022-10-29T13:42:18Z</time>
      </trkpt>
      <trkpt lat="49.85322" lon="2.27833">
        <ele>110.1</ele>
        <time>2022-10-29T13:42:19Z</time>
      </trkpt>
      <trkpt lat="49.85322" lon="2.27833">
        <ele>110.1</ele>
        <time>2022-10-29T13:42:20Z</time>
      </trkpt>
      <trkpt lat="49.85322" lon="2.27833">
        <ele>110.1</ele>
        <time>2022-10-29T13:42:21Z</time>
      </trkpt>
      <trkpt lat="49.85322" lon="2.27833">
        <ele>110.1</ele>
        <time>2022-10-29T13:42:22Z</time>
      </trkpt>
      <trkpt lat="49.85322" lon="2.27833">
        <ele>110.1</ele>
        <time>2022-10-29T13:42:23Z</time>
      </trkpt>
      <trkpt lat="49.85322" lon="2.27833">
        <ele>110.1</ele>
        <time>2022-10-29T13:42:24Z</time>
      </trkpt>
      <trkpt lat="49.85322" lon="2.27833">
        <ele>110.1</ele>
        <time>2022-10-29T13:42:25Z</time>
      </trkpt>
      <trkpt lat="49.85322" lon="2.27833">
        <ele>110.1</ele>
        <time>2022-10-29T13:42:26Z</time>
      </trkpt>
      <trkpt lat="49.85322" lon="2.27833">
        <ele>110.1</ele>
        <time>2022-10-29T13:42:27Z</time>
      </trkpt>
      <trkpt lat="49.85322" lon="2.27833">
        <ele>110.1</ele>
        <time>2022-10-29T13:42:28Z</time>
      </trkpt>
      <trkpt lat="49.85322" lon="2.27833">
        <ele>110.1</ele>
        <time>2022-10-29T13:42:29Z</time>
      </trkpt>
      <trkpt lat="49.85323" lon="2.27832">
        <ele>110.1</ele>
        <time>2022-10-29T13:42:30Z</time>
      </trkpt>
      <trkpt lat="49.85323" lon="2.27832">
        <ele>110.1</ele>
        <time>2022-10-29T13:42:31Z</time>
      </trkpt>
      <trkpt lat="49.85323" lon="2.27832">
        <ele>110.1</ele>
        <time>2022-10-29T13:42:32Z</time>
      </trkpt>
      <trkpt lat="49.85323" lon="2.27832">
        <ele>110.1</ele>
        <time>2022-10-29T13:42:33Z</time>
      </trkpt>
      <trkpt lat="49.85323" lon="2.27832">
        <ele>110.1</ele>
        <time>2022-10-29T13:42:34Z</time>
      </trkpt>
      <trkpt lat="49.85324" lon="2.27832">
        <ele>110.1</ele>
        <time>2022-10-29T13:42:35Z</time>
      </trkpt>
      <trkpt lat="49.85324" lon="2.27832">
        <ele>110.1</ele>
        <time>2022-10-29T13:42:36Z</time>
      </trkpt>
      <trkpt lat="49.85324" lon="2.27832">
        <ele>110.1</ele>
        <time>2022-10-29T13:42:37Z</time>
      </trkpt>
      <trkpt lat="49.85324" lon="2.27832">
        <ele>110.1</ele>
        <time>2022-10-29T13:42:38Z</time>
      </trkpt>
      <trkpt lat="49.85324" lon="2.27832">
        <ele>110.1</ele>
        <time>2022-10-29T13:42:39Z</time>
      </trkpt>
      <trkpt lat="49.85324" lon="2.27833">
        <ele>110.1</ele>
        <time>2022-10-29T13:42:40Z</time>
      </trkpt>
      <trkpt lat="49.85324" lon="2.27833">
        <ele>110.1</ele>
        <time>2022-10-29T13:42:41Z</time>
      </trkpt>
      <trkpt lat="49.85324" lon="2.27833">
        <ele>110.1</ele>
        <time>2022-10-29T13:42:42Z</time>
      </trkpt>
      <trkpt lat="49.85324" lon="2.27833">
        <ele>110.1</ele>
        <time>2022-10-29T13:42:43Z</time>
      </trkpt>
      <trkpt lat="49.85324" lon="2.27833">
        <ele>110.1</ele>
        <time>2022-10-29T13:42:44Z</time>
      </trkpt>
      <trkpt lat="49.85324" lon="2.27833">
        <ele>110.1</ele>
        <time>2022-10-29T13:42:45Z</time>
      </trkpt>
      <trkpt lat="49.85324" lon="2.27833">
        <ele>110.1</ele>
        <time>2022-10-29T13:42:46Z</time>
      </trkpt>
      <trkpt lat="49.85324" lon="2.27833">
        <ele>110.1</ele>
        <time>2022-10-29T13:42:47Z</time>
      </trkpt>
      <trkpt lat="49.85324" lon="2.27833">
        <ele>110.1</ele>
        <time>2022-10-29T13:42:48Z</time>
      </trkpt>
      <trkpt lat="49.85324" lon="2.27833">
        <ele>110.1</ele>
        <time>2022-10-29T13:42:49Z</time>
      </trkpt>
      <trkpt lat="49.85324" lon="2.27833">
        <ele>110.1</ele>
        <time>2022-10-29T13:42:50Z</time>
      </trkpt>
      <trkpt lat="49.85324" lon="2.27833">
        <ele>110.1</ele>
        <time>2022-10-29T13:42:51Z</time>
      </trkpt>
      <trkpt lat="49.85324" lon="2.27833">
        <ele>110.1</ele>
        <time>2022-10-29T13:42:52Z</time>
      </trkpt>
      <trkpt lat="49.85324" lon="2.27833">
        <ele>110.1</ele>
        <time>2022-10-29T13:42:53Z</time>
      </trkpt>
      <trkpt lat="49.85324" lon="2.27833">
        <ele>110.1</ele>
        <time>2022-10-29T13:42:54Z</time>
      </trkpt>
      <trkpt lat="49.85324" lon="2.27833">
        <ele>110.1</ele>
        <time>2022-10-29T13:42:55Z</time>
      </trkpt>
      <trkpt lat="49.85324" lon="2.27833">
        <ele>110.1</ele>
        <time>2022-10-29T13:42:56Z</time>
      </trkpt>
      <trkpt lat="49.85324" lon="2.27833">
        <ele>110.1</ele>
        <time>2022-10-29T13:42:57Z</time>
      </trkpt>
      <trkpt lat="49.85324" lon="2.27833">
        <ele>110.1</ele>
        <time>2022-10-29T13:42:58Z</time>
      </trkpt>
      <trkpt lat="49.85324" lon="2.27833">
        <ele>110.1</ele>
        <time>2022-10-29T13:42:59Z</time>
      </trkpt>
      <trkpt lat="49.85324" lon="2.27833">
        <ele>110.1</ele>
        <time>2022-10-29T13:43:00Z</time>
      </trkpt>
      <trkpt lat="49.85324" lon="2.27833">
        <ele>110.1</ele>
        <time>2022-10-29T13:43:01Z</time>
      </trkpt>
      <trkpt lat="49.85324" lon="2.27833">
        <ele>110.1</ele>
        <time>2022-10-29T13:43:02Z</time>
      </trkpt>
      <trkpt lat="49.85324" lon="2.27833">
        <ele>110.1</ele>
        <time>2022-10-29T13:43:03Z</time>
      </trkpt>
      <trkpt lat="49.85324" lon="2.27833">
        <ele>110.1</ele>
        <time>2022-10-29T13:43:04Z</time>
      </trkpt>
      <trkpt lat="49.85324" lon="2.27833">
        <ele>110.1</ele>
        <time>2022-10-29T13:43:05Z</time>
      </trkpt>
      <trkpt lat="49.85324" lon="2.27833">
        <ele>110.1</ele>
        <time>2022-10-29T13:43:06Z</time>
      </trkpt>
      <trkpt lat="49.85324" lon="2.27833">
        <ele>110.1</ele>
        <time>2022-10-29T13:43:07Z</time>
      </trkpt>
      <trkpt lat="49.85324" lon="2.27833">
        <ele>110.1</ele>
        <time>2022-10-29T13:43:08Z</time>
      </trkpt>
      <trkpt lat="49.85324" lon="2.27833">
        <ele>110.1</ele>
        <time>2022-10-29T13:43:09Z</time>
      </trkpt>
      <trkpt lat="49.85324" lon="2.27833">
        <ele>110.1</ele>
        <time>2022-10-29T13:43:10Z</time>
      </trkpt>
      <trkpt lat="49.85324" lon="2.27833">
        <ele>110.1</ele>
        <time>2022-10-29T13:43:11Z</time>
      </trkpt>
      <trkpt lat="49.85324" lon="2.27833">
        <ele>110.1</ele>
        <time>2022-10-29T13:43:12Z</time>
      </trkpt>
      <trkpt lat="49.85324" lon="2.27833">
        <ele>110.1</ele>
        <time>2022-10-29T13:43:13Z</time>
      </trkpt>
      <trkpt lat="49.85324" lon="2.27833">
        <ele>110.1</ele>
        <time>2022-10-29T13:43:14Z</time>
      </trkpt>
      <trkpt lat="49.85324" lon="2.27833">
        <ele>110.1</ele>
        <time>2022-10-29T13:43:15Z</time>
      </trkpt>
      <trkpt lat="49.85324" lon="2.27833">
        <ele>110.1</ele>
        <time>2022-10-29T13:43:16Z</time>
      </trkpt>
      <trkpt lat="49.85324" lon="2.27833">
        <ele>110.1</ele>
        <time>2022-10-29T13:43:17Z</time>
      </trkpt>
      <trkpt lat="49.85324" lon="2.27833">
        <ele>110.1</ele>
        <time>2022-10-29T13:43:18Z</time>
      </trkpt>
      <trkpt lat="49.85324" lon="2.27833">
        <ele>110.1</ele>
        <time>2022-10-29T13:43:19Z</time>
      </trkpt>
      <trkpt lat="49.85324" lon="2.27833">
        <ele>110.1</ele>
        <time>2022-10-29T13:43:20Z</time>
      </trkpt>
      <trkpt lat="49.85324" lon="2.27833">
        <ele>110.1</ele>
        <time>2022-10-29T13:43:21Z</time>
      </trkpt>
      <trkpt lat="49.85324" lon="2.27833">
        <ele>110.1</ele>
        <time>2022-10-29T13:43:22Z</time>
      </trkpt>
      <trkpt lat="49.85324" lon="2.27833">
        <ele>110.1</ele>
        <time>2022-10-29T13:43:23Z</time>
      </trkpt>
      <trkpt lat="49.85324" lon="2.27833">
        <ele>110.1</ele>
        <time>2022-10-29T13:43:24Z</time>
      </trkpt>
      <trkpt lat="49.85324" lon="2.27833">
        <ele>110.1</ele>
        <time>2022-10-29T13:43:25Z</time>
      </trkpt>
      <trkpt lat="49.85324" lon="2.27833">
        <ele>110.1</ele>
        <time>2022-10-29T13:43:26Z</time>
      </trkpt>
      <trkpt lat="49.85324" lon="2.27833">
        <ele>110.1</ele>
        <time>2022-10-29T13:43:27Z</time>
      </trkpt>
      <trkpt lat="49.85324" lon="2.27833">
        <ele>110.1</ele>
        <time>2022-10-29T13:43:28Z</time>
      </trkpt>
      <trkpt lat="49.85324" lon="2.27832">
        <ele>110.1</ele>
        <time>2022-10-29T13:43:29Z</time>
      </trkpt>
      <trkpt lat="49.85324" lon="2.27832">
        <ele>110.1</ele>
        <time>2022-10-29T13:43:30Z</time>
      </trkpt>
      <trkpt lat="49.85324" lon="2.27832">
        <ele>110.1</ele>
        <time>2022-10-29T13:43:31Z</time>
      </trkpt>
      <trkpt lat="49.85324" lon="2.27833">
        <ele>110.1</ele>
        <time>2022-10-29T13:43:32Z</time>
      </trkpt>
      <trkpt lat="49.85324" lon="2.27833">
        <ele>110.1</ele>
        <time>2022-10-29T13:43:33Z</time>
      </trkpt>
      <trkpt lat="49.85324" lon="2.27833">
        <ele>110.1</ele>
        <time>2022-10-29T13:43:34Z</time>
      </trkpt>
      <trkpt lat="49.85324" lon="2.27832">
        <ele>110.1</ele>
        <time>2022-10-29T13:43:35Z</time>
      </trkpt>
      <trkpt lat="49.85324" lon="2.27832">
        <ele>110.1</ele>
        <time>2022-10-29T13:43:36Z</time>
      </trkpt>
      <trkpt lat="49.85324" lon="2.27832">
        <ele>110.1</ele>
        <time>2022-10-29T13:43:37Z</time>
      </trkpt>
      <trkpt lat="49.85325" lon="2.27832">
        <ele>110.1</ele>
        <time>2022-10-29T13:43:38Z</time>
      </trkpt>
      <trkpt lat="49.85326" lon="2.27832">
        <ele>110.1</ele>
        <time>2022-10-29T13:43:39Z</time>
      </trkpt>
      <trkpt lat="49.85326" lon="2.27832">
        <ele>110.1</ele>
        <time>2022-10-29T13:43:40Z</time>
      </trkpt>
      <trkpt lat="49.85326" lon="2.27832">
        <ele>110.1</ele>
        <time>2022-10-29T13:43:41Z</time>
      </trkpt>
      <trkpt lat="49.85327" lon="2.27832">
        <ele>110.1</ele>
        <time>2022-10-29T13:43:42Z</time>
      </trkpt>
      <trkpt lat="49.85327" lon="2.27831">
        <ele>110.1</ele>
        <time>2022-10-29T13:43:43Z</time>
      </trkpt>
      <trkpt lat="49.85327" lon="2.27831">
        <ele>110.1</ele>
        <time>2022-10-29T13:43:44Z</time>
      </trkpt>
      <trkpt lat="49.85328" lon="2.27831">
        <ele>110.1</ele>
        <time>2022-10-29T13:43:45Z</time>
      </trkpt>
      <trkpt lat="49.85328" lon="2.27831">
        <ele>110.1</ele>
        <time>2022-10-29T13:43:46Z</time>
      </trkpt>
      <trkpt lat="49.85329" lon="2.27831">
        <ele>110.1</ele>
        <time>2022-10-29T13:43:47Z</time>
      </trkpt>
      <trkpt lat="49.85329" lon="2.27831">
        <ele>110</ele>
        <time>2022-10-29T13:43:48Z</time>
      </trkpt>
      <trkpt lat="49.8533" lon="2.27831">
        <ele>110</ele>
        <time>2022-10-29T13:43:49Z</time>
      </trkpt>
      <trkpt lat="49.8533" lon="2.27831">
        <ele>110</ele>
        <time>2022-10-29T13:43:50Z</time>
      </trkpt>
      <trkpt lat="49.85331" lon="2.27831">
        <ele>110</ele>
        <time>2022-10-29T13:43:51Z</time>
      </trkpt>
      <trkpt lat="49.85331" lon="2.27831">
        <ele>110</ele>
        <time>2022-10-29T13:43:52Z</time>
      </trkpt>
      <trkpt lat="49.85331" lon="2.27831">
        <ele>110</ele>
        <time>2022-10-29T13:43:53Z</time>
      </trkpt>
      <trkpt lat="49.85332" lon="2.27831">
        <ele>110</ele>
        <time>2022-10-29T13:43:54Z</time>
      </trkpt>
      <trkpt lat="49.85333" lon="2.27831">
        <ele>110</ele>
        <time>2022-10-29T13:43:55Z</time>
      </trkpt>
      <trkpt lat="49.85333" lon="2.27831">
        <ele>110</ele>
        <time>2022-10-29T13:43:56Z</time>
      </trkpt>
      <trkpt lat="49.85334" lon="2.27832">
        <ele>110</ele>
        <time>2022-10-29T13:43:57Z</time>
      </trkpt>
      <trkpt lat="49.85335" lon="2.27832">
        <ele>110</ele>
        <time>2022-10-29T13:43:58Z</time>
      </trkpt>
      <trkpt lat="49.85336" lon="2.27831">
        <ele>110</ele>
        <time>2022-10-29T13:43:59Z</time>
      </trkpt>
      <trkpt lat="49.85337" lon="2.27831">
        <ele>110</ele>
        <time>2022-10-29T13:44:00Z</time>
      </trkpt>
      <trkpt lat="49.85338" lon="2.27832">
        <ele>110</ele>
        <time>2022-10-29T13:44:01Z</time>
      </trkpt>
      <trkpt lat="49.8534" lon="2.27832">
        <ele>110</ele>
        <time>2022-10-29T13:44:02Z</time>
      </trkpt>
      <trkpt lat="49.8534" lon="2.27832">
        <ele>110</ele>
        <time>2022-10-29T13:44:03Z</time>
      </trkpt>
      <trkpt lat="49.85341" lon="2.27832">
        <ele>110</ele>
        <time>2022-10-29T13:44:04Z</time>
      </trkpt>
      <trkpt lat="49.85342" lon="2.27832">
        <ele>110</ele>
        <time>2022-10-29T13:44:05Z</time>
      </trkpt>
      <trkpt lat="49.85343" lon="2.27832">
        <ele>110</ele>
        <time>2022-10-29T13:44:06Z</time>
      </trkpt>
      <trkpt lat="49.85344" lon="2.27832">
        <ele>109.9</ele>
        <time>2022-10-29T13:44:07Z</time>
      </trkpt>
      <trkpt lat="49.85345" lon="2.27832">
        <ele>109.9</ele>
        <time>2022-10-29T13:44:08Z</time>
      </trkpt>
      <trkpt lat="49.85346" lon="2.27831">
        <ele>109.9</ele>
        <time>2022-10-29T13:44:09Z</time>
      </trkpt>
      <trkpt lat="49.85347" lon="2.27831">
        <ele>109.9</ele>
        <time>2022-10-29T13:44:10Z</time>
      </trkpt>
      <trkpt lat="49.85348" lon="2.2783">
        <ele>109.9</ele>
        <time>2022-10-29T13:44:11Z</time>
      </trkpt>
      <trkpt lat="49.85348" lon="2.27829">
        <ele>109.9</ele>
        <time>2022-10-29T13:44:12Z</time>
      </trkpt>
      <trkpt lat="49.85348" lon="2.27829">
        <ele>109.9</ele>
        <time>2022-10-29T13:44:13Z</time>
      </trkpt>
      <trkpt lat="49.85348" lon="2.27829">
        <ele>109.9</ele>
        <time>2022-10-29T13:44:14Z</time>
      </trkpt>
      <trkpt lat="49.85348" lon="2.27829">
        <ele>109.9</ele>
        <time>2022-10-29T13:44:15Z</time>
      </trkpt>
      <trkpt lat="49.85349" lon="2.27829">
        <ele>109.9</ele>
        <time>2022-10-29T13:44:16Z</time>
      </trkpt>
      <trkpt lat="49.85349" lon="2.27829">
        <ele>109.9</ele>
        <time>2022-10-29T13:44:17Z</time>
      </trkpt>
      <trkpt lat="49.8535" lon="2.27829">
        <ele>109.9</ele>
        <time>2022-10-29T13:44:18Z</time>
      </trkpt>
      <trkpt lat="49.85351" lon="2.27829">
        <ele>109.9</ele>
        <time>2022-10-29T13:44:19Z</time>
      </trkpt>
      <trkpt lat="49.85351" lon="2.27829">
        <ele>109.9</ele>
        <time>2022-10-29T13:44:20Z</time>
      </trkpt>
      <trkpt lat="49.85352" lon="2.27828">
        <ele>109.9</ele>
        <time>2022-10-29T13:44:21Z</time>
      </trkpt>
      <trkpt lat="49.85353" lon="2.27827">
        <ele>109.9</ele>
        <time>2022-10-29T13:44:22Z</time>
      </trkpt>
      <trkpt lat="49.85355" lon="2.27825">
        <ele>109.8</ele>
        <time>2022-10-29T13:44:24Z</time>
      </trkpt>
      <trkpt lat="49.85356" lon="2.27824">
        <ele>109.8</ele>
        <time>2022-10-29T13:44:25Z</time>
      </trkpt>
      <trkpt lat="49.85357" lon="2.27822">
        <ele>109.8</ele>
        <time>2022-10-29T13:44:27Z</time>
      </trkpt>
      <trkpt lat="49.85358" lon="2.27821">
        <ele>109.8</ele>
        <time>2022-10-29T13:44:28Z</time>
      </trkpt>
      <trkpt lat="49.85359" lon="2.2782">
        <ele>109.8</ele>
        <time>2022-10-29T13:44:29Z</time>
      </trkpt>
      <trkpt lat="49.8536" lon="2.27817">
        <ele>109.8</ele>
        <time>2022-10-29T13:44:30Z</time>
      </trkpt>
      <trkpt lat="49.85361" lon="2.27816">
        <ele>109.8</ele>
        <time>2022-10-29T13:44:32Z</time>
      </trkpt>
      <trkpt lat="49.85361" lon="2.27814">
        <ele>109.8</ele>
        <time>2022-10-29T13:44:33Z</time>
      </trkpt>
      <trkpt lat="49.85362" lon="2.27813">
        <ele>109.8</ele>
        <time>2022-10-29T13:44:35Z</time>
      </trkpt>
      <trkpt lat="49.85363" lon="2.27812">
        <ele>109.7</ele>
        <time>2022-10-29T13:44:36Z</time>
      </trkpt>
      <trkpt lat="49.85363" lon="2.27811">
        <ele>109.7</ele>
        <time>2022-10-29T13:44:37Z</time>
      </trkpt>
      <trkpt lat="49.85364" lon="2.27809">
        <ele>109.7</ele>
        <time>2022-10-29T13:44:38Z</time>
      </trkpt>
      <trkpt lat="49.85365" lon="2.27808">
        <ele>109.7</ele>
        <time>2022-10-29T13:44:39Z</time>
      </trkpt>
      <trkpt lat="49.85365" lon="2.27807">
        <ele>109.7</ele>
        <time>2022-10-29T13:44:40Z</time>
      </trkpt>
      <trkpt lat="49.85366" lon="2.27805">
        <ele>109.7</ele>
        <time>2022-10-29T13:44:42Z</time>
      </trkpt>
      <trkpt lat="49.85366" lon="2.27804">
        <ele>109.7</ele>
        <time>2022-10-29T13:44:43Z</time>
      </trkpt>
      <trkpt lat="49.85366" lon="2.27801">
        <ele>109.7</ele>
        <time>2022-10-29T13:44:44Z</time>
      </trkpt>
      <trkpt lat="49.85367" lon="2.27799">
        <ele>109.7</ele>
        <time>2022-10-29T13:44:45Z</time>
      </trkpt>
      <trkpt lat="49.85367" lon="2.27797">
        <ele>109.7</ele>
        <time>2022-10-29T13:44:46Z</time>
      </trkpt>
      <trkpt lat="49.85367" lon="2.27795">
        <ele>109.7</ele>
        <time>2022-10-29T13:44:47Z</time>
      </trkpt>
      <trkpt lat="49.85368" lon="2.27794">
        <ele>109.6</ele>
        <time>2022-10-29T13:44:49Z</time>
      </trkpt>
      <trkpt lat="49.85368" lon="2.27792">
        <ele>109.6</ele>
        <time>2022-10-29T13:44:50Z</time>
      </trkpt>
      <trkpt lat="49.85368" lon="2.27791">
        <ele>109.6</ele>
        <time>2022-10-29T13:44:51Z</time>
      </trkpt>
      <trkpt lat="49.85369" lon="2.27789">
        <ele>109.6</ele>
        <time>2022-10-29T13:44:52Z</time>
      </trkpt>
      <trkpt lat="49.85369" lon="2.27787">
        <ele>109.6</ele>
        <time>2022-10-29T13:44:53Z</time>
      </trkpt>
      <trkpt lat="49.85369" lon="2.27784">
        <ele>109.6</ele>
        <time>2022-10-29T13:44:54Z</time>
      </trkpt>
      <trkpt lat="49.8537" lon="2.27783">
        <ele>109.6</ele>
        <time>2022-10-29T13:44:55Z</time>
      </trkpt>
      <trkpt lat="49.8537" lon="2.27781">
        <ele>109.6</ele>
        <time>2022-10-29T13:44:57Z</time>
      </trkpt>
      <trkpt lat="49.8537" lon="2.2778">
        <ele>109.6</ele>
        <time>2022-10-29T13:44:58Z</time>
      </trkpt>
      <trkpt lat="49.85371" lon="2.27778">
        <ele>109.6</ele>
        <time>2022-10-29T13:44:59Z</time>
      </trkpt>
      <trkpt lat="49.85371" lon="2.27776">
        <ele>109.6</ele>
        <time>2022-10-29T13:45:00Z</time>
      </trkpt>
      <trkpt lat="49.85371" lon="2.27774">
        <ele>109.6</ele>
        <time>2022-10-29T13:45:01Z</time>
      </trkpt>
      <trkpt lat="49.85371" lon="2.27773">
        <ele>109.5</ele>
        <time>2022-10-29T13:45:02Z</time>
      </trkpt>
      <trkpt lat="49.85372" lon="2.27771">
        <ele>109.5</ele>
        <time>2022-10-29T13:45:03Z</time>
      </trkpt>
      <trkpt lat="49.85372" lon="2.27769">
        <ele>109.5</ele>
        <time>2022-10-29T13:45:04Z</time>
      </trkpt>
      <trkpt lat="49.85372" lon="2.27767">
        <ele>109.5</ele>
        <time>2022-10-29T13:45:05Z</time>
      </trkpt>
      <trkpt lat="49.85373" lon="2.27765">
        <ele>109.5</ele>
        <time>2022-10-29T13:45:07Z</time>
      </trkpt>
      <trkpt lat="49.85373" lon="2.27764">
        <ele>109.5</ele>
        <time>2022-10-29T13:45:08Z</time>
      </trkpt>
      <trkpt lat="49.85373" lon="2.27761">
        <ele>109.5</ele>
        <time>2022-10-29T13:45:09Z</time>
      </trkpt>
      <trkpt lat="49.85374" lon="2.2776">
        <ele>109.5</ele>
        <time>2022-10-29T13:45:10Z</time>
      </trkpt>
      <trkpt lat="49.85374" lon="2.27758">
        <ele>109.5</ele>
        <time>2022-10-29T13:45:11Z</time>
      </trkpt>
      <trkpt lat="49.85375" lon="2.27756">
        <ele>109.5</ele>
        <time>2022-10-29T13:45:12Z</time>
      </trkpt>
      <trkpt lat="49.85375" lon="2.27755">
        <ele>109.5</ele>
        <time>2022-10-29T13:45:14Z</time>
      </trkpt>
      <trkpt lat="49.85375" lon="2.27753">
        <ele>109.4</ele>
        <time>2022-10-29T13:45:15Z</time>
      </trkpt>
      <trkpt lat="49.85376" lon="2.27751">
        <ele>109.4</ele>
        <time>2022-10-29T13:45:16Z</time>
      </trkpt>
      <trkpt lat="49.85376" lon="2.27748">
        <ele>109.4</ele>
        <time>2022-10-29T13:45:17Z</time>
      </trkpt>
      <trkpt lat="49.85377" lon="2.27747">
        <ele>109.4</ele>
        <time>2022-10-29T13:45:18Z</time>
      </trkpt>
      <trkpt lat="49.85377" lon="2.27745">
        <ele>109.4</ele>
        <time>2022-10-29T13:45:19Z</time>
      </trkpt>
      <trkpt lat="49.85377" lon="2.27744">
        <ele>109.4</ele>
        <time>2022-10-29T13:45:21Z</time>
      </trkpt>
      <trkpt lat="49.85378" lon="2.27742">
        <ele>109.4</ele>
        <time>2022-10-29T13:45:22Z</time>
      </trkpt>
      <trkpt lat="49.85378" lon="2.27741">
        <ele>109.4</ele>
        <time>2022-10-29T13:45:23Z</time>
      </trkpt>
      <trkpt lat="49.85379" lon="2.27738">
        <ele>109.4</ele>
        <time>2022-10-29T13:45:24Z</time>
      </trkpt>
      <trkpt lat="49.8538" lon="2.27737">
        <ele>109.4</ele>
        <time>2022-10-29T13:45:25Z</time>
      </trkpt>
      <trkpt lat="49.8538" lon="2.27736">
        <ele>109.4</ele>
        <time>2022-10-29T13:45:26Z</time>
      </trkpt>
      <trkpt lat="49.8538" lon="2.27733">
        <ele>109.3</ele>
        <time>2022-10-29T13:45:27Z</time>
      </trkpt>
      <trkpt lat="49.8538" lon="2.27732">
        <ele>109.3</ele>
        <time>2022-10-29T13:45:29Z</time>
      </trkpt>
      <trkpt lat="49.85381" lon="2.2773">
        <ele>109.3</ele>
        <time>2022-10-29T13:45:30Z</time>
      </trkpt>
      <trkpt lat="49.85381" lon="2.27729">
        <ele>109.3</ele>
        <time>2022-10-29T13:45:31Z</time>
      </trkpt>
      <trkpt lat="49.85381" lon="2.27727">
        <ele>109.3</ele>
        <time>2022-10-29T13:45:32Z</time>
      </trkpt>
      <trkpt lat="49.85382" lon="2.27726">
        <ele>109.3</ele>
        <time>2022-10-29T13:45:33Z</time>
      </trkpt>
      <trkpt lat="49.85382" lon="2.27723">
        <ele>109.3</ele>
        <time>2022-10-29T13:45:34Z</time>
      </trkpt>
      <trkpt lat="49.85382" lon="2.27721">
        <ele>109.3</ele>
        <time>2022-10-29T13:45:35Z</time>
      </trkpt>
      <trkpt lat="49.85383" lon="2.2772">
        <ele>109.3</ele>
        <time>2022-10-29T13:45:37Z</time>
      </trkpt>
      <trkpt lat="49.85383" lon="2.27718">
        <ele>109.3</ele>
        <time>2022-10-29T13:45:38Z</time>
      </trkpt>
      <trkpt lat="49.85383" lon="2.27715">
        <ele>109.3</ele>
        <time>2022-10-29T13:45:40Z</time>
      </trkpt>
      <trkpt lat="49.85383" lon="2.27714">
        <ele>109.3</ele>
        <time>2022-10-29T13:45:41Z</time>
      </trkpt>
      <trkpt lat="49.85383" lon="2.27712">
        <ele>109.3</ele>
        <time>2022-10-29T13:45:42Z</time>
      </trkpt>
      <trkpt lat="49.85383" lon="2.27711">
        <ele>109.2</ele>
        <time>2022-10-29T13:45:43Z</time>
      </trkpt>
      <trkpt lat="49.85384" lon="2.27709">
        <ele>109.2</ele>
        <time>2022-10-29T13:45:44Z</time>
      </trkpt>
      <trkpt lat="49.85384" lon="2.27708">
        <ele>109.2</ele>
        <time>2022-10-29T13:45:45Z</time>
      </trkpt>
      <trkpt lat="49.85385" lon="2.27707">
        <ele>109.2</ele>
        <time>2022-10-29T13:45:46Z</time>
      </trkpt>
      <trkpt lat="49.85385" lon="2.27705">
        <ele>109.2</ele>
        <time>2022-10-29T13:45:48Z</time>
      </trkpt>
      <trkpt lat="49.85386" lon="2.27704">
        <ele>109.2</ele>
        <time>2022-10-29T13:45:49Z</time>
      </trkpt>
      <trkpt lat="49.85386" lon="2.27702">
        <ele>109.2</ele>
        <time>2022-10-29T13:45:50Z</time>
      </trkpt>
      <trkpt lat="49.85386" lon="2.277">
        <ele>109.2</ele>
        <time>2022-10-29T13:45:51Z</time>
      </trkpt>
      <trkpt lat="49.85386" lon="2.27698">
        <ele>109.2</ele>
        <time>2022-10-29T13:45:52Z</time>
      </trkpt>
      <trkpt lat="49.85386" lon="2.27697">
        <ele>109.2</ele>
        <time>2022-10-29T13:45:53Z</time>
      </trkpt>
      <trkpt lat="49.85387" lon="2.27695">
        <ele>109.2</ele>
        <time>2022-10-29T13:45:55Z</time>
      </trkpt>
      <trkpt lat="49.85387" lon="2.27694">
        <ele>109.2</ele>
        <time>2022-10-29T13:45:56Z</time>
      </trkpt>
      <trkpt lat="49.85387" lon="2.27692">
        <ele>109.2</ele>
        <time>2022-10-29T13:45:57Z</time>
      </trkpt>
      <trkpt lat="49.85388" lon="2.27691">
        <ele>109.2</ele>
        <time>2022-10-29T13:45:58Z</time>
      </trkpt>
      <trkpt lat="49.85388" lon="2.27689">
        <ele>109.1</ele>
        <time>2022-10-29T13:45:59Z</time>
      </trkpt>
      <trkpt lat="49.85389" lon="2.27688">
        <ele>109.1</ele>
        <time>2022-10-29T13:46:00Z</time>
      </trkpt>
      <trkpt lat="49.85389" lon="2.27685">
        <ele>109.1</ele>
        <time>2022-10-29T13:46:01Z</time>
      </trkpt>
      <trkpt lat="49.8539" lon="2.27683">
        <ele>109.1</ele>
        <time>2022-10-29T13:46:02Z</time>
      </trkpt>
      <trkpt lat="49.8539" lon="2.27682">
        <ele>109.1</ele>
        <time>2022-10-29T13:46:04Z</time>
      </trkpt>
      <trkpt lat="49.8539" lon="2.27681">
        <ele>109.1</ele>
        <time>2022-10-29T13:46:05Z</time>
      </trkpt>
      <trkpt lat="49.85391" lon="2.27679">
        <ele>109.1</ele>
        <time>2022-10-29T13:46:06Z</time>
      </trkpt>
      <trkpt lat="49.85391" lon="2.27678">
        <ele>109.1</ele>
        <time>2022-10-29T13:46:07Z</time>
      </trkpt>
      <trkpt lat="49.85391" lon="2.27676">
        <ele>109.1</ele>
        <time>2022-10-29T13:46:08Z</time>
      </trkpt>
      <trkpt lat="49.85391" lon="2.27674">
        <ele>109.1</ele>
        <time>2022-10-29T13:46:09Z</time>
      </trkpt>
      <trkpt lat="49.85391" lon="2.27673">
        <ele>109.1</ele>
        <time>2022-10-29T13:46:11Z</time>
      </trkpt>
      <trkpt lat="49.85391" lon="2.27672">
        <ele>109.1</ele>
        <time>2022-10-29T13:46:12Z</time>
      </trkpt>
      <trkpt lat="49.85391" lon="2.2767">
        <ele>109.1</ele>
        <time>2022-10-29T13:46:13Z</time>
      </trkpt>
      <trkpt lat="49.85391" lon="2.27668">
        <ele>109.1</ele>
        <time>2022-10-29T13:46:14Z</time>
      </trkpt>
      <trkpt lat="49.85391" lon="2.27667">
        <ele>109</ele>
        <time>2022-10-29T13:46:15Z</time>
      </trkpt>
      <trkpt lat="49.85392" lon="2.27665">
        <ele>109</ele>
        <time>2022-10-29T13:46:17Z</time>
      </trkpt>
      <trkpt lat="49.85392" lon="2.27664">
        <ele>109</ele>
        <time>2022-10-29T13:46:18Z</time>
      </trkpt>
      <trkpt lat="49.85393" lon="2.27661">
        <ele>109</ele>
        <time>2022-10-29T13:46:20Z</time>
      </trkpt>
      <trkpt lat="49.85393" lon="2.2766">
        <ele>109</ele>
        <time>2022-10-29T13:46:21Z</time>
      </trkpt>
      <trkpt lat="49.85393" lon="2.27659">
        <ele>109</ele>
        <time>2022-10-29T13:46:22Z</time>
      </trkpt>
      <trkpt lat="49.85393" lon="2.27658">
        <ele>109</ele>
        <time>2022-10-29T13:46:23Z</time>
      </trkpt>
      <trkpt lat="49.85394" lon="2.27656">
        <ele>109</ele>
        <time>2022-10-29T13:46:24Z</time>
      </trkpt>
      <trkpt lat="49.85394" lon="2.27655">
        <ele>109</ele>
        <time>2022-10-29T13:46:25Z</time>
      </trkpt>
      <trkpt lat="49.85394" lon="2.27654">
        <ele>109</ele>
        <time>2022-10-29T13:46:27Z</time>
      </trkpt>
      <trkpt lat="49.85395" lon="2.27653">
        <ele>109</ele>
        <time>2022-10-29T13:46:28Z</time>
      </trkpt>
      <trkpt lat="49.85395" lon="2.27651">
        <ele>109</ele>
        <time>2022-10-29T13:46:29Z</time>
      </trkpt>
      <trkpt lat="49.85395" lon="2.2765">
        <ele>109</ele>
        <time>2022-10-29T13:46:30Z</time>
      </trkpt>
      <trkpt lat="49.85395" lon="2.27649">
        <ele>109</ele>
        <time>2022-10-29T13:46:32Z</time>
      </trkpt>
      <trkpt lat="49.85395" lon="2.27647">
        <ele>109</ele>
        <time>2022-10-29T13:46:33Z</time>
      </trkpt>
      <trkpt lat="49.85395" lon="2.27644">
        <ele>109</ele>
        <time>2022-10-29T13:46:34Z</time>
      </trkpt>
      <trkpt lat="49.85395" lon="2.27644">
        <ele>108.9</ele>
        <time>2022-10-29T13:46:36Z</time>
      </trkpt>
      <trkpt lat="49.85395" lon="2.27642">
        <ele>108.9</ele>
        <time>2022-10-29T13:46:37Z</time>
      </trkpt>
      <trkpt lat="49.85395" lon="2.27642">
        <ele>108.9</ele>
        <time>2022-10-29T13:46:38Z</time>
      </trkpt>
      <trkpt lat="49.85396" lon="2.2764">
        <ele>108.9</ele>
        <time>2022-10-29T13:46:39Z</time>
      </trkpt>
      <trkpt lat="49.85396" lon="2.27639">
        <ele>108.9</ele>
        <time>2022-10-29T13:46:40Z</time>
      </trkpt>
      <trkpt lat="49.85396" lon="2.27638">
        <ele>108.9</ele>
        <time>2022-10-29T13:46:41Z</time>
      </trkpt>
      <trkpt lat="49.85396" lon="2.27637">
        <ele>108.9</ele>
        <time>2022-10-29T13:46:42Z</time>
      </trkpt>
      <trkpt lat="49.85397" lon="2.27636">
        <ele>108.9</ele>
        <time>2022-10-29T13:46:43Z</time>
      </trkpt>
      <trkpt lat="49.85397" lon="2.27635">
        <ele>108.9</ele>
        <time>2022-10-29T13:46:44Z</time>
      </trkpt>
      <trkpt lat="49.85398" lon="2.27633">
        <ele>108.9</ele>
        <time>2022-10-29T13:46:45Z</time>
      </trkpt>
      <trkpt lat="49.85399" lon="2.2763">
        <ele>108.9</ele>
        <time>2022-10-29T13:46:46Z</time>
      </trkpt>
      <trkpt lat="49.85399" lon="2.27629">
        <ele>108.9</ele>
        <time>2022-10-29T13:46:47Z</time>
      </trkpt>
      <trkpt lat="49.854" lon="2.27627">
        <ele>108.9</ele>
        <time>2022-10-29T13:46:49Z</time>
      </trkpt>
      <trkpt lat="49.854" lon="2.27626">
        <ele>108.9</ele>
        <time>2022-10-29T13:46:50Z</time>
      </trkpt>
      <trkpt lat="49.85401" lon="2.27624">
        <ele>108.9</ele>
        <time>2022-10-29T13:46:51Z</time>
      </trkpt>
      <trkpt lat="49.85401" lon="2.27623">
        <ele>108.9</ele>
        <time>2022-10-29T13:46:52Z</time>
      </trkpt>
      <trkpt lat="49.85402" lon="2.27621">
        <ele>108.9</ele>
        <time>2022-10-29T13:46:53Z</time>
      </trkpt>
      <trkpt lat="49.85402" lon="2.2762">
        <ele>108.9</ele>
        <time>2022-10-29T13:46:54Z</time>
      </trkpt>
      <trkpt lat="49.85402" lon="2.27618">
        <ele>108.9</ele>
        <time>2022-10-29T13:46:55Z</time>
      </trkpt>
      <trkpt lat="49.85402" lon="2.27617">
        <ele>108.9</ele>
        <time>2022-10-29T13:46:56Z</time>
      </trkpt>
      <trkpt lat="49.85402" lon="2.27615">
        <ele>108.9</ele>
        <time>2022-10-29T13:46:57Z</time>
      </trkpt>
      <trkpt lat="49.85403" lon="2.27613">
        <ele>108.9</ele>
        <time>2022-10-29T13:46:58Z</time>
      </trkpt>
      <trkpt lat="49.85403" lon="2.2761">
        <ele>108.9</ele>
        <time>2022-10-29T13:47:00Z</time>
      </trkpt>
      <trkpt lat="49.85403" lon="2.27609">
        <ele>108.9</ele>
        <time>2022-10-29T13:47:01Z</time>
      </trkpt>
      <trkpt lat="49.85403" lon="2.27608">
        <ele>108.9</ele>
        <time>2022-10-29T13:47:02Z</time>
      </trkpt>
      <trkpt lat="49.85403" lon="2.27605">
        <ele>108.9</ele>
        <time>2022-10-29T13:47:03Z</time>
      </trkpt>
      <trkpt lat="49.85403" lon="2.27603">
        <ele>108.9</ele>
        <time>2022-10-29T13:47:04Z</time>
      </trkpt>
      <trkpt lat="49.85403" lon="2.27602">
        <ele>108.9</ele>
        <time>2022-10-29T13:47:05Z</time>
      </trkpt>
      <trkpt lat="49.85403" lon="2.276">
        <ele>108.9</ele>
        <time>2022-10-29T13:47:06Z</time>
      </trkpt>
      <trkpt lat="49.85403" lon="2.27599">
        <ele>108.9</ele>
        <time>2022-10-29T13:47:07Z</time>
      </trkpt>
      <trkpt lat="49.85403" lon="2.27597">
        <ele>108.9</ele>
        <time>2022-10-29T13:47:09Z</time>
      </trkpt>
      <trkpt lat="49.85403" lon="2.27595">
        <ele>108.9</ele>
        <time>2022-10-29T13:47:10Z</time>
      </trkpt>
      <trkpt lat="49.85403" lon="2.27594">
        <ele>108.9</ele>
        <time>2022-10-29T13:47:11Z</time>
      </trkpt>
      <trkpt lat="49.85403" lon="2.27592">
        <ele>108.9</ele>
        <time>2022-10-29T13:47:12Z</time>
      </trkpt>
      <trkpt lat="49.85404" lon="2.27591">
        <ele>108.9</ele>
        <time>2022-10-29T13:47:13Z</time>
      </trkpt>
      <trkpt lat="49.85405" lon="2.27589">
        <ele>108.9</ele>
        <time>2022-10-29T13:47:14Z</time>
      </trkpt>
      <trkpt lat="49.85405" lon="2.27589">
        <ele>108.9</ele>
        <time>2022-10-29T13:47:15Z</time>
      </trkpt>
      <trkpt lat="49.85406" lon="2.27586">
        <ele>108.9</ele>
        <time>2022-10-29T13:47:16Z</time>
      </trkpt>
      <trkpt lat="49.85406" lon="2.27584">
        <ele>108.9</ele>
        <time>2022-10-29T13:47:17Z</time>
      </trkpt>
      <trkpt lat="49.85407" lon="2.27583">
        <ele>108.9</ele>
        <time>2022-10-29T13:47:19Z</time>
      </trkpt>
      <trkpt lat="49.85407" lon="2.27581">
        <ele>108.9</ele>
        <time>2022-10-29T13:47:20Z</time>
      </trkpt>
      <trkpt lat="49.85408" lon="2.2758">
        <ele>108.9</ele>
        <time>2022-10-29T13:47:21Z</time>
      </trkpt>
      <trkpt lat="49.85408" lon="2.27579">
        <ele>108.9</ele>
        <time>2022-10-29T13:47:22Z</time>
      </trkpt>
      <trkpt lat="49.85409" lon="2.27575">
        <ele>108.9</ele>
        <time>2022-10-29T13:47:23Z</time>
      </trkpt>
      <trkpt lat="49.85409" lon="2.27574">
        <ele>108.9</ele>
        <time>2022-10-29T13:47:24Z</time>
      </trkpt>
      <trkpt lat="49.85409" lon="2.27573">
        <ele>108.9</ele>
        <time>2022-10-29T13:47:25Z</time>
      </trkpt>
      <trkpt lat="49.8541" lon="2.27571">
        <ele>108.9</ele>
        <time>2022-10-29T13:47:26Z</time>
      </trkpt>
      <trkpt lat="49.8541" lon="2.27569">
        <ele>108.9</ele>
        <time>2022-10-29T13:47:27Z</time>
      </trkpt>
      <trkpt lat="49.8541" lon="2.27567">
        <ele>108.9</ele>
        <time>2022-10-29T13:47:29Z</time>
      </trkpt>
      <trkpt lat="49.85411" lon="2.27563">
        <ele>108.8</ele>
        <time>2022-10-29T13:47:30Z</time>
      </trkpt>
      <trkpt lat="49.85411" lon="2.27562">
        <ele>108.8</ele>
        <time>2022-10-29T13:47:31Z</time>
      </trkpt>
      <trkpt lat="49.85411" lon="2.27561">
        <ele>108.8</ele>
        <time>2022-10-29T13:47:32Z</time>
      </trkpt>
      <trkpt lat="49.85412" lon="2.27558">
        <ele>108.8</ele>
        <time>2022-10-29T13:47:33Z</time>
      </trkpt>
      <trkpt lat="49.85412" lon="2.27557">
        <ele>108.8</ele>
        <time>2022-10-29T13:47:34Z</time>
      </trkpt>
      <trkpt lat="49.85412" lon="2.27556">
        <ele>108.8</ele>
        <time>2022-10-29T13:47:35Z</time>
      </trkpt>
      <trkpt lat="49.85412" lon="2.27555">
        <ele>108.8</ele>
        <time>2022-10-29T13:47:36Z</time>
      </trkpt>
      <trkpt lat="49.85413" lon="2.27553">
        <ele>108.8</ele>
        <time>2022-10-29T13:47:37Z</time>
      </trkpt>
      <trkpt lat="49.85413" lon="2.27551">
        <ele>108.8</ele>
        <time>2022-10-29T13:47:38Z</time>
      </trkpt>
      <trkpt lat="49.85413" lon="2.27547">
        <ele>108.8</ele>
        <time>2022-10-29T13:47:40Z</time>
      </trkpt>
      <trkpt lat="49.85414" lon="2.27546">
        <ele>108.8</ele>
        <time>2022-10-29T13:47:41Z</time>
      </trkpt>
      <trkpt lat="49.85414" lon="2.27545">
        <ele>108.8</ele>
        <time>2022-10-29T13:47:42Z</time>
      </trkpt>
      <trkpt lat="49.85415" lon="2.27542">
        <ele>108.8</ele>
        <time>2022-10-29T13:47:43Z</time>
      </trkpt>
      <trkpt lat="49.85415" lon="2.2754">
        <ele>108.8</ele>
        <time>2022-10-29T13:47:44Z</time>
      </trkpt>
      <trkpt lat="49.85415" lon="2.27539">
        <ele>108.8</ele>
        <time>2022-10-29T13:47:45Z</time>
      </trkpt>
      <trkpt lat="49.85415" lon="2.27538">
        <ele>108.8</ele>
        <time>2022-10-29T13:47:46Z</time>
      </trkpt>
      <trkpt lat="49.85415" lon="2.27536">
        <ele>108.8</ele>
        <time>2022-10-29T13:47:47Z</time>
      </trkpt>
      <trkpt lat="49.85415" lon="2.27534">
        <ele>108.8</ele>
        <time>2022-10-29T13:47:49Z</time>
      </trkpt>
      <trkpt lat="49.85416" lon="2.27532">
        <ele>108.7</ele>
        <time>2022-10-29T13:47:50Z</time>
      </trkpt>
      <trkpt lat="49.85416" lon="2.27531">
        <ele>108.7</ele>
        <time>2022-10-29T13:47:51Z</time>
      </trkpt>
      <trkpt lat="49.85416" lon="2.27529">
        <ele>108.7</ele>
        <time>2022-10-29T13:47:52Z</time>
      </trkpt>
      <trkpt lat="49.85417" lon="2.27526">
        <ele>108.7</ele>
        <time>2022-10-29T13:47:53Z</time>
      </trkpt>
      <trkpt lat="49.85417" lon="2.27525">
        <ele>108.7</ele>
        <time>2022-10-29T13:47:54Z</time>
      </trkpt>
      <trkpt lat="49.85418" lon="2.27523">
        <ele>108.7</ele>
        <time>2022-10-29T13:47:55Z</time>
      </trkpt>
      <trkpt lat="49.85418" lon="2.27522">
        <ele>108.7</ele>
        <time>2022-10-29T13:47:56Z</time>
      </trkpt>
      <trkpt lat="49.85418" lon="2.2752">
        <ele>108.7</ele>
        <time>2022-10-29T13:47:57Z</time>
      </trkpt>
      <trkpt lat="49.85419" lon="2.27519">
        <ele>108.7</ele>
        <time>2022-10-29T13:47:59Z</time>
      </trkpt>
      <trkpt lat="49.85419" lon="2.27517">
        <ele>108.7</ele>
        <time>2022-10-29T13:48:00Z</time>
      </trkpt>
      <trkpt lat="49.85419" lon="2.27515">
        <ele>108.7</ele>
        <time>2022-10-29T13:48:01Z</time>
      </trkpt>
      <trkpt lat="49.8542" lon="2.27513">
        <ele>108.7</ele>
        <time>2022-10-29T13:48:02Z</time>
      </trkpt>
      <trkpt lat="49.8542" lon="2.27512">
        <ele>108.7</ele>
        <time>2022-10-29T13:48:03Z</time>
      </trkpt>
      <trkpt lat="49.8542" lon="2.2751">
        <ele>108.7</ele>
        <time>2022-10-29T13:48:04Z</time>
      </trkpt>
      <trkpt lat="49.85421" lon="2.27508">
        <ele>108.7</ele>
        <time>2022-10-29T13:48:05Z</time>
      </trkpt>
      <trkpt lat="49.85421" lon="2.27507">
        <ele>108.7</ele>
        <time>2022-10-29T13:48:06Z</time>
      </trkpt>
      <trkpt lat="49.85421" lon="2.27505">
        <ele>108.7</ele>
        <time>2022-10-29T13:48:08Z</time>
      </trkpt>
      <trkpt lat="49.85422" lon="2.27503">
        <ele>108.7</ele>
        <time>2022-10-29T13:48:09Z</time>
      </trkpt>
      <trkpt lat="49.85422" lon="2.27501">
        <ele>108.8</ele>
        <time>2022-10-29T13:48:10Z</time>
      </trkpt>
      <trkpt lat="49.85422" lon="2.275">
        <ele>108.8</ele>
        <time>2022-10-29T13:48:11Z</time>
      </trkpt>
      <trkpt lat="49.85422" lon="2.27498">
        <ele>108.8</ele>
        <time>2022-10-29T13:48:12Z</time>
      </trkpt>
      <trkpt lat="49.85422" lon="2.27497">
        <ele>108.8</ele>
        <time>2022-10-29T13:48:13Z</time>
      </trkpt>
      <trkpt lat="49.85423" lon="2.27496">
        <ele>108.8</ele>
        <time>2022-10-29T13:48:14Z</time>
      </trkpt>
      <trkpt lat="49.85423" lon="2.27494">
        <ele>108.8</ele>
        <time>2022-10-29T13:48:15Z</time>
      </trkpt>
      <trkpt lat="49.85423" lon="2.27493">
        <ele>108.8</ele>
        <time>2022-10-29T13:48:17Z</time>
      </trkpt>
      <trkpt lat="49.85423" lon="2.27491">
        <ele>108.8</ele>
        <time>2022-10-29T13:48:18Z</time>
      </trkpt>
      <trkpt lat="49.85423" lon="2.27489">
        <ele>108.8</ele>
        <time>2022-10-29T13:48:19Z</time>
      </trkpt>
      <trkpt lat="49.85423" lon="2.27487">
        <ele>108.8</ele>
        <time>2022-10-29T13:48:20Z</time>
      </trkpt>
      <trkpt lat="49.85423" lon="2.27486">
        <ele>108.8</ele>
        <time>2022-10-29T13:48:21Z</time>
      </trkpt>
      <trkpt lat="49.85423" lon="2.27484">
        <ele>108.8</ele>
        <time>2022-10-29T13:48:22Z</time>
      </trkpt>
      <trkpt lat="49.85424" lon="2.27482">
        <ele>108.8</ele>
        <time>2022-10-29T13:48:23Z</time>
      </trkpt>
      <trkpt lat="49.85424" lon="2.2748">
        <ele>108.8</ele>
        <time>2022-10-29T13:48:25Z</time>
      </trkpt>
      <trkpt lat="49.85425" lon="2.27479">
        <ele>108.8</ele>
        <time>2022-10-29T13:48:26Z</time>
      </trkpt>
      <trkpt lat="49.85425" lon="2.27477">
        <ele>108.8</ele>
        <time>2022-10-29T13:48:27Z</time>
      </trkpt>
      <trkpt lat="49.85426" lon="2.27475">
        <ele>108.7</ele>
        <time>2022-10-29T13:48:28Z</time>
      </trkpt>
      <trkpt lat="49.85426" lon="2.27474">
        <ele>108.7</ele>
        <time>2022-10-29T13:48:29Z</time>
      </trkpt>
      <trkpt lat="49.85426" lon="2.27472">
        <ele>108.7</ele>
        <time>2022-10-29T13:48:30Z</time>
      </trkpt>
      <trkpt lat="49.85427" lon="2.27471">
        <ele>108.7</ele>
        <time>2022-10-29T13:48:31Z</time>
      </trkpt>
      <trkpt lat="49.85427" lon="2.27467">
        <ele>108.7</ele>
        <time>2022-10-29T13:48:33Z</time>
      </trkpt>
      <trkpt lat="49.85428" lon="2.27466">
        <ele>108.7</ele>
        <time>2022-10-29T13:48:34Z</time>
      </trkpt>
      <trkpt lat="49.85428" lon="2.27465">
        <ele>108.7</ele>
        <time>2022-10-29T13:48:35Z</time>
      </trkpt>
      <trkpt lat="49.85428" lon="2.27463">
        <ele>108.7</ele>
        <time>2022-10-29T13:48:36Z</time>
      </trkpt>
      <trkpt lat="49.85428" lon="2.27462">
        <ele>108.7</ele>
        <time>2022-10-29T13:48:37Z</time>
      </trkpt>
      <trkpt lat="49.85428" lon="2.2746">
        <ele>108.7</ele>
        <time>2022-10-29T13:48:38Z</time>
      </trkpt>
      <trkpt lat="49.85428" lon="2.27457">
        <ele>108.7</ele>
        <time>2022-10-29T13:48:39Z</time>
      </trkpt>
      <trkpt lat="49.85428" lon="2.27455">
        <ele>108.7</ele>
        <time>2022-10-29T13:48:40Z</time>
      </trkpt>
      <trkpt lat="49.85428" lon="2.27453">
        <ele>108.7</ele>
        <time>2022-10-29T13:48:42Z</time>
      </trkpt>
      <trkpt lat="49.85428" lon="2.27452">
        <ele>108.7</ele>
        <time>2022-10-29T13:48:43Z</time>
      </trkpt>
      <trkpt lat="49.85429" lon="2.2745">
        <ele>108.7</ele>
        <time>2022-10-29T13:48:44Z</time>
      </trkpt>
      <trkpt lat="49.85429" lon="2.27448">
        <ele>108.7</ele>
        <time>2022-10-29T13:48:45Z</time>
      </trkpt>
      <trkpt lat="49.85429" lon="2.27447">
        <ele>108.7</ele>
        <time>2022-10-29T13:48:46Z</time>
      </trkpt>
      <trkpt lat="49.8543" lon="2.27446">
        <ele>108.7</ele>
        <time>2022-10-29T13:48:47Z</time>
      </trkpt>
      <trkpt lat="49.8543" lon="2.27444">
        <ele>108.7</ele>
        <time>2022-10-29T13:48:48Z</time>
      </trkpt>
      <trkpt lat="49.85431" lon="2.27442">
        <ele>108.7</ele>
        <time>2022-10-29T13:48:50Z</time>
      </trkpt>
      <trkpt lat="49.85431" lon="2.27441">
        <ele>108.7</ele>
        <time>2022-10-29T13:48:51Z</time>
      </trkpt>
      <trkpt lat="49.85431" lon="2.27439">
        <ele>108.7</ele>
        <time>2022-10-29T13:48:52Z</time>
      </trkpt>
      <trkpt lat="49.85431" lon="2.27436">
        <ele>108.6</ele>
        <time>2022-10-29T13:48:53Z</time>
      </trkpt>
      <trkpt lat="49.85431" lon="2.27435">
        <ele>108.6</ele>
        <time>2022-10-29T13:48:54Z</time>
      </trkpt>
      <trkpt lat="49.85431" lon="2.27434">
        <ele>108.6</ele>
        <time>2022-10-29T13:48:55Z</time>
      </trkpt>
      <trkpt lat="49.85431" lon="2.27432">
        <ele>108.6</ele>
        <time>2022-10-29T13:48:56Z</time>
      </trkpt>
      <trkpt lat="49.85431" lon="2.2743">
        <ele>108.6</ele>
        <time>2022-10-29T13:48:58Z</time>
      </trkpt>
      <trkpt lat="49.85431" lon="2.27429">
        <ele>108.6</ele>
        <time>2022-10-29T13:48:59Z</time>
      </trkpt>
      <trkpt lat="49.85431" lon="2.27425">
        <ele>108.6</ele>
        <time>2022-10-29T13:49:00Z</time>
      </trkpt>
      <trkpt lat="49.85431" lon="2.27424">
        <ele>108.6</ele>
        <time>2022-10-29T13:49:01Z</time>
      </trkpt>
      <trkpt lat="49.85431" lon="2.27423">
        <ele>108.6</ele>
        <time>2022-10-29T13:49:02Z</time>
      </trkpt>
      <trkpt lat="49.85431" lon="2.27421">
        <ele>108.6</ele>
        <time>2022-10-29T13:49:03Z</time>
      </trkpt>
      <trkpt lat="49.85431" lon="2.2742">
        <ele>108.6</ele>
        <time>2022-10-29T13:49:04Z</time>
      </trkpt>
      <trkpt lat="49.85432" lon="2.27418">
        <ele>108.6</ele>
        <time>2022-10-29T13:49:06Z</time>
      </trkpt>
      <trkpt lat="49.85432" lon="2.27416">
        <ele>108.6</ele>
        <time>2022-10-29T13:49:07Z</time>
      </trkpt>
      <trkpt lat="49.85433" lon="2.27415">
        <ele>108.6</ele>
        <time>2022-10-29T13:49:08Z</time>
      </trkpt>
      <trkpt lat="49.85433" lon="2.27413">
        <ele>108.6</ele>
        <time>2022-10-29T13:49:09Z</time>
      </trkpt>
      <trkpt lat="49.85434" lon="2.2741">
        <ele>108.6</ele>
        <time>2022-10-29T13:49:10Z</time>
      </trkpt>
      <trkpt lat="49.85434" lon="2.27409">
        <ele>108.6</ele>
        <time>2022-10-29T13:49:11Z</time>
      </trkpt>
      <trkpt lat="49.85434" lon="2.27408">
        <ele>108.6</ele>
        <time>2022-10-29T13:49:13Z</time>
      </trkpt>
      <trkpt lat="49.85434" lon="2.27407">
        <ele>108.6</ele>
        <time>2022-10-29T13:49:14Z</time>
      </trkpt>
      <trkpt lat="49.85435" lon="2.27405">
        <ele>108.6</ele>
        <time>2022-10-29T13:49:15Z</time>
      </trkpt>
      <trkpt lat="49.85436" lon="2.27404">
        <ele>108.6</ele>
        <time>2022-10-29T13:49:16Z</time>
      </trkpt>
      <trkpt lat="49.85436" lon="2.27403">
        <ele>108.6</ele>
        <time>2022-10-29T13:49:17Z</time>
      </trkpt>
      <trkpt lat="49.85437" lon="2.27401">
        <ele>108.6</ele>
        <time>2022-10-29T13:49:19Z</time>
      </trkpt>
      <trkpt lat="49.85437" lon="2.274">
        <ele>108.6</ele>
        <time>2022-10-29T13:49:20Z</time>
      </trkpt>
      <trkpt lat="49.85438" lon="2.27399">
        <ele>108.6</ele>
        <time>2022-10-29T13:49:21Z</time>
      </trkpt>
      <trkpt lat="49.85438" lon="2.27397">
        <ele>108.6</ele>
        <time>2022-10-29T13:49:22Z</time>
      </trkpt>
      <trkpt lat="49.85439" lon="2.27396">
        <ele>108.6</ele>
        <time>2022-10-29T13:49:23Z</time>
      </trkpt>
      <trkpt lat="49.85439" lon="2.27394">
        <ele>108.6</ele>
        <time>2022-10-29T13:49:24Z</time>
      </trkpt>
      <trkpt lat="49.8544" lon="2.27392">
        <ele>108.6</ele>
        <time>2022-10-29T13:49:26Z</time>
      </trkpt>
      <trkpt lat="49.8544" lon="2.27391">
        <ele>108.6</ele>
        <time>2022-10-29T13:49:27Z</time>
      </trkpt>
      <trkpt lat="49.85441" lon="2.27389">
        <ele>108.6</ele>
        <time>2022-10-29T13:49:28Z</time>
      </trkpt>
      <trkpt lat="49.85441" lon="2.27388">
        <ele>108.6</ele>
        <time>2022-10-29T13:49:29Z</time>
      </trkpt>
      <trkpt lat="49.85442" lon="2.27385">
        <ele>108.6</ele>
        <time>2022-10-29T13:49:30Z</time>
      </trkpt>
      <trkpt lat="49.85443" lon="2.27384">
        <ele>108.6</ele>
        <time>2022-10-29T13:49:31Z</time>
      </trkpt>
      <trkpt lat="49.85443" lon="2.27383">
        <ele>108.6</ele>
        <time>2022-10-29T13:49:32Z</time>
      </trkpt>
      <trkpt lat="49.85443" lon="2.27381">
        <ele>108.6</ele>
        <time>2022-10-29T13:49:34Z</time>
      </trkpt>
      <trkpt lat="49.85444" lon="2.27378">
        <ele>108.7</ele>
        <time>2022-10-29T13:49:35Z</time>
      </trkpt>
      <trkpt lat="49.85444" lon="2.27376">
        <ele>108.7</ele>
        <time>2022-10-29T13:49:36Z</time>
      </trkpt>
      <trkpt lat="49.85445" lon="2.27375">
        <ele>108.7</ele>
        <time>2022-10-29T13:49:37Z</time>
      </trkpt>
      <trkpt lat="49.85445" lon="2.27373">
        <ele>108.7</ele>
        <time>2022-10-29T13:49:38Z</time>
      </trkpt>
      <trkpt lat="49.85445" lon="2.27371">
        <ele>108.7</ele>
        <time>2022-10-29T13:49:39Z</time>
      </trkpt>
      <trkpt lat="49.85446" lon="2.27368">
        <ele>108.7</ele>
        <time>2022-10-29T13:49:40Z</time>
      </trkpt>
      <trkpt lat="49.85446" lon="2.27367">
        <ele>108.7</ele>
        <time>2022-10-29T13:49:42Z</time>
      </trkpt>
      <trkpt lat="49.85446" lon="2.27366">
        <ele>108.7</ele>
        <time>2022-10-29T13:49:43Z</time>
      </trkpt>
      <trkpt lat="49.85447" lon="2.27364">
        <ele>108.7</ele>
        <time>2022-10-29T13:49:44Z</time>
      </trkpt>
      <trkpt lat="49.85447" lon="2.27361">
        <ele>108.7</ele>
        <time>2022-10-29T13:49:45Z</time>
      </trkpt>
      <trkpt lat="49.85448" lon="2.27359">
        <ele>108.7</ele>
        <time>2022-10-29T13:49:46Z</time>
      </trkpt>
      <trkpt lat="49.85448" lon="2.27357">
        <ele>108.7</ele>
        <time>2022-10-29T13:49:47Z</time>
      </trkpt>
      <trkpt lat="49.85448" lon="2.27356">
        <ele>108.7</ele>
        <time>2022-10-29T13:49:49Z</time>
      </trkpt>
      <trkpt lat="49.85449" lon="2.27355">
        <ele>108.7</ele>
        <time>2022-10-29T13:49:50Z</time>
      </trkpt>
      <trkpt lat="49.85449" lon="2.27353">
        <ele>108.7</ele>
        <time>2022-10-29T13:49:51Z</time>
      </trkpt>
      <trkpt lat="49.8545" lon="2.27352">
        <ele>108.7</ele>
        <time>2022-10-29T13:49:52Z</time>
      </trkpt>
      <trkpt lat="49.8545" lon="2.2735">
        <ele>108.7</ele>
        <time>2022-10-29T13:49:53Z</time>
      </trkpt>
      <trkpt lat="49.8545" lon="2.27349">
        <ele>108.7</ele>
        <time>2022-10-29T13:49:55Z</time>
      </trkpt>
      <trkpt lat="49.85451" lon="2.27347">
        <ele>108.7</ele>
        <time>2022-10-29T13:49:56Z</time>
      </trkpt>
      <trkpt lat="49.85452" lon="2.27345">
        <ele>108.7</ele>
        <time>2022-10-29T13:49:57Z</time>
      </trkpt>
      <trkpt lat="49.85452" lon="2.27344">
        <ele>108.7</ele>
        <time>2022-10-29T13:49:58Z</time>
      </trkpt>
      <trkpt lat="49.85452" lon="2.27343">
        <ele>108.7</ele>
        <time>2022-10-29T13:50:00Z</time>
      </trkpt>
      <trkpt lat="49.85453" lon="2.27341">
        <ele>108.7</ele>
        <time>2022-10-29T13:50:01Z</time>
      </trkpt>
      <trkpt lat="49.85453" lon="2.2734">
        <ele>108.7</ele>
        <time>2022-10-29T13:50:02Z</time>
      </trkpt>
      <trkpt lat="49.85453" lon="2.27339">
        <ele>108.7</ele>
        <time>2022-10-29T13:50:03Z</time>
      </trkpt>
      <trkpt lat="49.85454" lon="2.27338">
        <ele>108.7</ele>
        <time>2022-10-29T13:50:04Z</time>
      </trkpt>
      <trkpt lat="49.85454" lon="2.27336">
        <ele>108.7</ele>
        <time>2022-10-29T13:50:05Z</time>
      </trkpt>
      <trkpt lat="49.85455" lon="2.27336">
        <ele>108.7</ele>
        <time>2022-10-29T13:50:06Z</time>
      </trkpt>
      <trkpt lat="49.85455" lon="2.27335">
        <ele>108.7</ele>
        <time>2022-10-29T13:50:08Z</time>
      </trkpt>
      <trkpt lat="49.85457" lon="2.27333">
        <ele>108.7</ele>
        <time>2022-10-29T13:50:09Z</time>
      </trkpt>
      <trkpt lat="49.85457" lon="2.27332">
        <ele>108.8</ele>
        <time>2022-10-29T13:50:11Z</time>
      </trkpt>
      <trkpt lat="49.85458" lon="2.27332">
        <ele>108.8</ele>
        <time>2022-10-29T13:50:12Z</time>
      </trkpt>
      <trkpt lat="49.85459" lon="2.27331">
        <ele>108.8</ele>
        <time>2022-10-29T13:50:13Z</time>
      </trkpt>
      <trkpt lat="49.85459" lon="2.2733">
        <ele>108.9</ele>
        <time>2022-10-29T13:50:14Z</time>
      </trkpt>
      <trkpt lat="49.85461" lon="2.2733">
        <ele>108.9</ele>
        <time>2022-10-29T13:50:15Z</time>
      </trkpt>
      <trkpt lat="49.85462" lon="2.27331">
        <ele>108.9</ele>
        <time>2022-10-29T13:50:16Z</time>
      </trkpt>
      <trkpt lat="49.85463" lon="2.27331">
        <ele>108.9</ele>
        <time>2022-10-29T13:50:18Z</time>
      </trkpt>
      <trkpt lat="49.85464" lon="2.27333">
        <ele>108.9</ele>
        <time>2022-10-29T13:50:19Z</time>
      </trkpt>
      <trkpt lat="49.85465" lon="2.27334">
        <ele>108.9</ele>
        <time>2022-10-29T13:50:21Z</time>
      </trkpt>
      <trkpt lat="49.85465" lon="2.27335">
        <ele>108.9</ele>
        <time>2022-10-29T13:50:22Z</time>
      </trkpt>
      <trkpt lat="49.85466" lon="2.27336">
        <ele>108.9</ele>
        <time>2022-10-29T13:50:23Z</time>
      </trkpt>
      <trkpt lat="49.85467" lon="2.27337">
        <ele>108.9</ele>
        <time>2022-10-29T13:50:24Z</time>
      </trkpt>
      <trkpt lat="49.85468" lon="2.27338">
        <ele>108.9</ele>
        <time>2022-10-29T13:50:25Z</time>
      </trkpt>
      <trkpt lat="49.85469" lon="2.27338">
        <ele>108.9</ele>
        <time>2022-10-29T13:50:26Z</time>
      </trkpt>
      <trkpt lat="49.8547" lon="2.27339">
        <ele>109</ele>
        <time>2022-10-29T13:50:28Z</time>
      </trkpt>
      <trkpt lat="49.85471" lon="2.27339">
        <ele>109</ele>
        <time>2022-10-29T13:50:29Z</time>
      </trkpt>
      <trkpt lat="49.85471" lon="2.27339">
        <ele>109</ele>
        <time>2022-10-29T13:50:30Z</time>
      </trkpt>
      <trkpt lat="49.85472" lon="2.2734">
        <ele>109</ele>
        <time>2022-10-29T13:50:31Z</time>
      </trkpt>
      <trkpt lat="49.85473" lon="2.2734">
        <ele>109</ele>
        <time>2022-10-29T13:50:32Z</time>
      </trkpt>
      <trkpt lat="49.85474" lon="2.2734">
        <ele>109</ele>
        <time>2022-10-29T13:50:34Z</time>
      </trkpt>
      <trkpt lat="49.85475" lon="2.2734">
        <ele>109</ele>
        <time>2022-10-29T13:50:35Z</time>
      </trkpt>
      <trkpt lat="49.85476" lon="2.2734">
        <ele>109</ele>
        <time>2022-10-29T13:50:36Z</time>
      </trkpt>
      <trkpt lat="49.85476" lon="2.2734">
        <ele>109</ele>
        <time>2022-10-29T13:50:37Z</time>
      </trkpt>
      <trkpt lat="49.85477" lon="2.2734">
        <ele>109</ele>
        <time>2022-10-29T13:50:38Z</time>
      </trkpt>
      <trkpt lat="49.85477" lon="2.2734">
        <ele>109</ele>
        <time>2022-10-29T13:50:39Z</time>
      </trkpt>
      <trkpt lat="49.85478" lon="2.2734">
        <ele>109</ele>
        <time>2022-10-29T13:50:40Z</time>
      </trkpt>
      <trkpt lat="49.85479" lon="2.2734">
        <ele>109</ele>
        <time>2022-10-29T13:50:41Z</time>
      </trkpt>
      <trkpt lat="49.8548" lon="2.27341">
        <ele>109.1</ele>
        <time>2022-10-29T13:50:42Z</time>
      </trkpt>
      <trkpt lat="49.85481" lon="2.27341">
        <ele>109.1</ele>
        <time>2022-10-29T13:50:43Z</time>
      </trkpt>
      <trkpt lat="49.85482" lon="2.27341">
        <ele>109.1</ele>
        <time>2022-10-29T13:50:44Z</time>
      </trkpt>
      <trkpt lat="49.85483" lon="2.27342">
        <ele>109.1</ele>
        <time>2022-10-29T13:50:45Z</time>
      </trkpt>
      <trkpt lat="49.85484" lon="2.27343">
        <ele>109.1</ele>
        <time>2022-10-29T13:50:46Z</time>
      </trkpt>
      <trkpt lat="49.85486" lon="2.27344">
        <ele>109.1</ele>
        <time>2022-10-29T13:50:47Z</time>
      </trkpt>
      <trkpt lat="49.85487" lon="2.27345">
        <ele>109.1</ele>
        <time>2022-10-29T13:50:48Z</time>
      </trkpt>
      <trkpt lat="49.85488" lon="2.27345">
        <ele>109.1</ele>
        <time>2022-10-29T13:50:50Z</time>
      </trkpt>
      <trkpt lat="49.85489" lon="2.27346">
        <ele>109.2</ele>
        <time>2022-10-29T13:50:51Z</time>
      </trkpt>
      <trkpt lat="49.8549" lon="2.27346">
        <ele>109.2</ele>
        <time>2022-10-29T13:50:52Z</time>
      </trkpt>
      <trkpt lat="49.85491" lon="2.27347">
        <ele>109.2</ele>
        <time>2022-10-29T13:50:53Z</time>
      </trkpt>
      <trkpt lat="49.85492" lon="2.27347">
        <ele>109.2</ele>
        <time>2022-10-29T13:50:54Z</time>
      </trkpt>
      <trkpt lat="49.85493" lon="2.27347">
        <ele>109.2</ele>
        <time>2022-10-29T13:50:55Z</time>
      </trkpt>
      <trkpt lat="49.85494" lon="2.27348">
        <ele>109.2</ele>
        <time>2022-10-29T13:50:57Z</time>
      </trkpt>
      <trkpt lat="49.85495" lon="2.27349">
        <ele>109.2</ele>
        <time>2022-10-29T13:50:58Z</time>
      </trkpt>
      <trkpt lat="49.85496" lon="2.27349">
        <ele>109.2</ele>
        <time>2022-10-29T13:50:59Z</time>
      </trkpt>
      <trkpt lat="49.85497" lon="2.2735">
        <ele>109.2</ele>
        <time>2022-10-29T13:51:00Z</time>
      </trkpt>
      <trkpt lat="49.85498" lon="2.27351">
        <ele>109.2</ele>
        <time>2022-10-29T13:51:01Z</time>
      </trkpt>
      <trkpt lat="49.855" lon="2.27351">
        <ele>109.3</ele>
        <time>2022-10-29T13:51:02Z</time>
      </trkpt>
      <trkpt lat="49.855" lon="2.27352">
        <ele>109.3</ele>
        <time>2022-10-29T13:51:04Z</time>
      </trkpt>
      <trkpt lat="49.85502" lon="2.27353">
        <ele>109.3</ele>
        <time>2022-10-29T13:51:05Z</time>
      </trkpt>
      <trkpt lat="49.85503" lon="2.27353">
        <ele>109.3</ele>
        <time>2022-10-29T13:51:06Z</time>
      </trkpt>
      <trkpt lat="49.85504" lon="2.27353">
        <ele>109.3</ele>
        <time>2022-10-29T13:51:07Z</time>
      </trkpt>
      <trkpt lat="49.85506" lon="2.27354">
        <ele>109.3</ele>
        <time>2022-10-29T13:51:09Z</time>
      </trkpt>
      <trkpt lat="49.85507" lon="2.27355">
        <ele>109.3</ele>
        <time>2022-10-29T13:51:10Z</time>
      </trkpt>
      <trkpt lat="49.85508" lon="2.27355">
        <ele>109.3</ele>
        <time>2022-10-29T13:51:11Z</time>
      </trkpt>
      <trkpt lat="49.8551" lon="2.27356">
        <ele>109.4</ele>
        <time>2022-10-29T13:51:12Z</time>
      </trkpt>
      <trkpt lat="49.85511" lon="2.27356">
        <ele>109.4</ele>
        <time>2022-10-29T13:51:13Z</time>
      </trkpt>
      <trkpt lat="49.85513" lon="2.27357">
        <ele>109.4</ele>
        <time>2022-10-29T13:51:14Z</time>
      </trkpt>
      <trkpt lat="49.85513" lon="2.27357">
        <ele>109.4</ele>
        <time>2022-10-29T13:51:16Z</time>
      </trkpt>
      <trkpt lat="49.85514" lon="2.27357">
        <ele>109.4</ele>
        <time>2022-10-29T13:51:17Z</time>
      </trkpt>
      <trkpt lat="49.85515" lon="2.27358">
        <ele>109.4</ele>
        <time>2022-10-29T13:51:18Z</time>
      </trkpt>
      <trkpt lat="49.85516" lon="2.27359">
        <ele>109.4</ele>
        <time>2022-10-29T13:51:19Z</time>
      </trkpt>
      <trkpt lat="49.85517" lon="2.27359">
        <ele>109.4</ele>
        <time>2022-10-29T13:51:20Z</time>
      </trkpt>
      <trkpt lat="49.85518" lon="2.27359">
        <ele>109.5</ele>
        <time>2022-10-29T13:51:22Z</time>
      </trkpt>
      <trkpt lat="49.85519" lon="2.27359">
        <ele>109.5</ele>
        <time>2022-10-29T13:51:23Z</time>
      </trkpt>
      <trkpt lat="49.8552" lon="2.2736">
        <ele>109.5</ele>
        <time>2022-10-29T13:51:24Z</time>
      </trkpt>
      <trkpt lat="49.85522" lon="2.27361">
        <ele>109.5</ele>
        <time>2022-10-29T13:51:25Z</time>
      </trkpt>
      <trkpt lat="49.85523" lon="2.27361">
        <ele>109.5</ele>
        <time>2022-10-29T13:51:26Z</time>
      </trkpt>
      <trkpt lat="49.85524" lon="2.27362">
        <ele>109.5</ele>
        <time>2022-10-29T13:51:28Z</time>
      </trkpt>
      <trkpt lat="49.85525" lon="2.27362">
        <ele>109.5</ele>
        <time>2022-10-29T13:51:29Z</time>
      </trkpt>
      <trkpt lat="49.85526" lon="2.27363">
        <ele>109.5</ele>
        <time>2022-10-29T13:51:30Z</time>
      </trkpt>
      <trkpt lat="49.85527" lon="2.27363">
        <ele>109.5</ele>
        <time>2022-10-29T13:51:31Z</time>
      </trkpt>
      <trkpt lat="49.85528" lon="2.27364">
        <ele>109.5</ele>
        <time>2022-10-29T13:51:32Z</time>
      </trkpt>
      <trkpt lat="49.85529" lon="2.27364">
        <ele>109.6</ele>
        <time>2022-10-29T13:51:34Z</time>
      </trkpt>
      <trkpt lat="49.8553" lon="2.27365">
        <ele>109.6</ele>
        <time>2022-10-29T13:51:35Z</time>
      </trkpt>
      <trkpt lat="49.85531" lon="2.27366">
        <ele>109.6</ele>
        <time>2022-10-29T13:51:36Z</time>
      </trkpt>
      <trkpt lat="49.85533" lon="2.27367">
        <ele>109.6</ele>
        <time>2022-10-29T13:51:37Z</time>
      </trkpt>
      <trkpt lat="49.85533" lon="2.27367">
        <ele>109.6</ele>
        <time>2022-10-29T13:51:38Z</time>
      </trkpt>
      <trkpt lat="49.85534" lon="2.27368">
        <ele>109.6</ele>
        <time>2022-10-29T13:51:39Z</time>
      </trkpt>
      <trkpt lat="49.85535" lon="2.27368">
        <ele>109.6</ele>
        <time>2022-10-29T13:51:40Z</time>
      </trkpt>
      <trkpt lat="49.85536" lon="2.27369">
        <ele>109.6</ele>
        <time>2022-10-29T13:51:42Z</time>
      </trkpt>
      <trkpt lat="49.85537" lon="2.2737">
        <ele>109.6</ele>
        <time>2022-10-29T13:51:43Z</time>
      </trkpt>
      <trkpt lat="49.85539" lon="2.2737">
        <ele>109.6</ele>
        <time>2022-10-29T13:51:44Z</time>
      </trkpt>
      <trkpt lat="49.8554" lon="2.27371">
        <ele>109.7</ele>
        <time>2022-10-29T13:51:45Z</time>
      </trkpt>
      <trkpt lat="49.85541" lon="2.27371">
        <ele>109.7</ele>
        <time>2022-10-29T13:51:46Z</time>
      </trkpt>
      <trkpt lat="49.85542" lon="2.27371">
        <ele>109.7</ele>
        <time>2022-10-29T13:51:47Z</time>
      </trkpt>
      <trkpt lat="49.85543" lon="2.27371">
        <ele>109.7</ele>
        <time>2022-10-29T13:51:48Z</time>
      </trkpt>
      <trkpt lat="49.85544" lon="2.27372">
        <ele>109.7</ele>
        <time>2022-10-29T13:51:49Z</time>
      </trkpt>
      <trkpt lat="49.85545" lon="2.27372">
        <ele>109.7</ele>
        <time>2022-10-29T13:51:51Z</time>
      </trkpt>
      <trkpt lat="49.85546" lon="2.27372">
        <ele>109.7</ele>
        <time>2022-10-29T13:51:52Z</time>
      </trkpt>
      <trkpt lat="49.85548" lon="2.27373">
        <ele>109.7</ele>
        <time>2022-10-29T13:51:53Z</time>
      </trkpt>
      <trkpt lat="49.85549" lon="2.27373">
        <ele>109.7</ele>
        <time>2022-10-29T13:51:54Z</time>
      </trkpt>
      <trkpt lat="49.85551" lon="2.27374">
        <ele>109.7</ele>
        <time>2022-10-29T13:51:55Z</time>
      </trkpt>
      <trkpt lat="49.85552" lon="2.27375">
        <ele>109.7</ele>
        <time>2022-10-29T13:51:56Z</time>
      </trkpt>
      <trkpt lat="49.85553" lon="2.27375">
        <ele>109.7</ele>
        <time>2022-10-29T13:51:58Z</time>
      </trkpt>
      <trkpt lat="49.85554" lon="2.27376">
        <ele>109.7</ele>
        <time>2022-10-29T13:51:59Z</time>
      </trkpt>
      <trkpt lat="49.85555" lon="2.27376">
        <ele>109.8</ele>
        <time>2022-10-29T13:52:00Z</time>
      </trkpt>
      <trkpt lat="49.85556" lon="2.27377">
        <ele>109.8</ele>
        <time>2022-10-29T13:52:01Z</time>
      </trkpt>
      <trkpt lat="49.85557" lon="2.27377">
        <ele>109.8</ele>
        <time>2022-10-29T13:52:02Z</time>
      </trkpt>
      <trkpt lat="49.85558" lon="2.27378">
        <ele>109.8</ele>
        <time>2022-10-29T13:52:03Z</time>
      </trkpt>
      <trkpt lat="49.85559" lon="2.27378">
        <ele>109.8</ele>
        <time>2022-10-29T13:52:05Z</time>
      </trkpt>
      <trkpt lat="49.8556" lon="2.27379">
        <ele>109.8</ele>
        <time>2022-10-29T13:52:06Z</time>
      </trkpt>
      <trkpt lat="49.85561" lon="2.27379">
        <ele>109.8</ele>
        <time>2022-10-29T13:52:07Z</time>
      </trkpt>
      <trkpt lat="49.85562" lon="2.2738">
        <ele>109.8</ele>
        <time>2022-10-29T13:52:08Z</time>
      </trkpt>
      <trkpt lat="49.85563" lon="2.2738">
        <ele>109.8</ele>
        <time>2022-10-29T13:52:09Z</time>
      </trkpt>
      <trkpt lat="49.85564" lon="2.2738">
        <ele>109.8</ele>
        <time>2022-10-29T13:52:11Z</time>
      </trkpt>
      <trkpt lat="49.85565" lon="2.27381">
        <ele>109.8</ele>
        <time>2022-10-29T13:52:12Z</time>
      </trkpt>
      <trkpt lat="49.85567" lon="2.27382">
        <ele>109.8</ele>
        <time>2022-10-29T13:52:13Z</time>
      </trkpt>
      <trkpt lat="49.85568" lon="2.27382">
        <ele>109.9</ele>
        <time>2022-10-29T13:52:14Z</time>
      </trkpt>
      <trkpt lat="49.85569" lon="2.27383">
        <ele>109.9</ele>
        <time>2022-10-29T13:52:15Z</time>
      </trkpt>
      <trkpt lat="49.8557" lon="2.27383">
        <ele>109.9</ele>
        <time>2022-10-29T13:52:16Z</time>
      </trkpt>
      <trkpt lat="49.85571" lon="2.27384">
        <ele>109.9</ele>
        <time>2022-10-29T13:52:18Z</time>
      </trkpt>
      <trkpt lat="49.85572" lon="2.27384">
        <ele>109.9</ele>
        <time>2022-10-29T13:52:19Z</time>
      </trkpt>
      <trkpt lat="49.85573" lon="2.27384">
        <ele>109.9</ele>
        <time>2022-10-29T13:52:20Z</time>
      </trkpt>
      <trkpt lat="49.85575" lon="2.27385">
        <ele>109.9</ele>
        <time>2022-10-29T13:52:21Z</time>
      </trkpt>
      <trkpt lat="49.85576" lon="2.27386">
        <ele>109.9</ele>
        <time>2022-10-29T13:52:22Z</time>
      </trkpt>
      <trkpt lat="49.85577" lon="2.27386">
        <ele>109.9</ele>
        <time>2022-10-29T13:52:23Z</time>
      </trkpt>
      <trkpt lat="49.85577" lon="2.27387">
        <ele>110</ele>
        <time>2022-10-29T13:52:25Z</time>
      </trkpt>
      <trkpt lat="49.85578" lon="2.27387">
        <ele>110</ele>
        <time>2022-10-29T13:52:26Z</time>
      </trkpt>
      <trkpt lat="49.85579" lon="2.27388">
        <ele>110</ele>
        <time>2022-10-29T13:52:27Z</time>
      </trkpt>
      <trkpt lat="49.8558" lon="2.27389">
        <ele>110</ele>
        <time>2022-10-29T13:52:28Z</time>
      </trkpt>
      <trkpt lat="49.85581" lon="2.27389">
        <ele>110</ele>
        <time>2022-10-29T13:52:29Z</time>
      </trkpt>
      <trkpt lat="49.85582" lon="2.2739">
        <ele>110</ele>
        <time>2022-10-29T13:52:30Z</time>
      </trkpt>
      <trkpt lat="49.85583" lon="2.27391">
        <ele>110</ele>
        <time>2022-10-29T13:52:32Z</time>
      </trkpt>
      <trkpt lat="49.85585" lon="2.27391">
        <ele>110</ele>
        <time>2022-10-29T13:52:33Z</time>
      </trkpt>
      <trkpt lat="49.85587" lon="2.27392">
        <ele>110.1</ele>
        <time>2022-10-29T13:52:34Z</time>
      </trkpt>
      <trkpt lat="49.85587" lon="2.27392">
        <ele>110.1</ele>
        <time>2022-10-29T13:52:35Z</time>
      </trkpt>
      <trkpt lat="49.85588" lon="2.27392">
        <ele>110.1</ele>
        <time>2022-10-29T13:52:36Z</time>
      </trkpt>
      <trkpt lat="49.8559" lon="2.27393">
        <ele>110.1</ele>
        <time>2022-10-29T13:52:37Z</time>
      </trkpt>
      <trkpt lat="49.85591" lon="2.27393">
        <ele>110.1</ele>
        <time>2022-10-29T13:52:38Z</time>
      </trkpt>
      <trkpt lat="49.85592" lon="2.27394">
        <ele>110.1</ele>
        <time>2022-10-29T13:52:40Z</time>
      </trkpt>
      <trkpt lat="49.85593" lon="2.27394">
        <ele>110.1</ele>
        <time>2022-10-29T13:52:41Z</time>
      </trkpt>
      <trkpt lat="49.85594" lon="2.27395">
        <ele>110.1</ele>
        <time>2022-10-29T13:52:42Z</time>
      </trkpt>
      <trkpt lat="49.85595" lon="2.27395">
        <ele>110.1</ele>
        <time>2022-10-29T13:52:43Z</time>
      </trkpt>
      <trkpt lat="49.85596" lon="2.27396">
        <ele>110.1</ele>
        <time>2022-10-29T13:52:44Z</time>
      </trkpt>
      <trkpt lat="49.85597" lon="2.27396">
        <ele>110.1</ele>
        <time>2022-10-29T13:52:45Z</time>
      </trkpt>
      <trkpt lat="49.85598" lon="2.27396">
        <ele>110.1</ele>
        <time>2022-10-29T13:52:46Z</time>
      </trkpt>
      <trkpt lat="49.856" lon="2.27397">
        <ele>110.1</ele>
        <time>2022-10-29T13:52:48Z</time>
      </trkpt>
      <trkpt lat="49.85601" lon="2.27398">
        <ele>110.2</ele>
        <time>2022-10-29T13:52:49Z</time>
      </trkpt>
      <trkpt lat="49.85602" lon="2.27398">
        <ele>110.2</ele>
        <time>2022-10-29T13:52:50Z</time>
      </trkpt>
      <trkpt lat="49.85604" lon="2.27399">
        <ele>110.2</ele>
        <time>2022-10-29T13:52:51Z</time>
      </trkpt>
      <trkpt lat="49.85605" lon="2.27399">
        <ele>110.2</ele>
        <time>2022-10-29T13:52:52Z</time>
      </trkpt>
      <trkpt lat="49.85606" lon="2.274">
        <ele>110.2</ele>
        <time>2022-10-29T13:52:53Z</time>
      </trkpt>
      <trkpt lat="49.85608" lon="2.27401">
        <ele>110.2</ele>
        <time>2022-10-29T13:52:55Z</time>
      </trkpt>
      <trkpt lat="49.85609" lon="2.27401">
        <ele>110.2</ele>
        <time>2022-10-29T13:52:56Z</time>
      </trkpt>
      <trkpt lat="49.85609" lon="2.27402">
        <ele>110.2</ele>
        <time>2022-10-29T13:52:57Z</time>
      </trkpt>
      <trkpt lat="49.85611" lon="2.27402">
        <ele>110.2</ele>
        <time>2022-10-29T13:52:58Z</time>
      </trkpt>
      <trkpt lat="49.85612" lon="2.27403">
        <ele>110.2</ele>
        <time>2022-10-29T13:52:59Z</time>
      </trkpt>
      <trkpt lat="49.85613" lon="2.27403">
        <ele>110.3</ele>
        <time>2022-10-29T13:53:00Z</time>
      </trkpt>
      <trkpt lat="49.85615" lon="2.27404">
        <ele>110.3</ele>
        <time>2022-10-29T13:53:01Z</time>
      </trkpt>
      <trkpt lat="49.85616" lon="2.27404">
        <ele>110.3</ele>
        <time>2022-10-29T13:53:03Z</time>
      </trkpt>
      <trkpt lat="49.85616" lon="2.27404">
        <ele>110.3</ele>
        <time>2022-10-29T13:53:04Z</time>
      </trkpt>
      <trkpt lat="49.85618" lon="2.27404">
        <ele>110.3</ele>
        <time>2022-10-29T13:53:05Z</time>
      </trkpt>
      <trkpt lat="49.85619" lon="2.27405">
        <ele>110.3</ele>
        <time>2022-10-29T13:53:06Z</time>
      </trkpt>
      <trkpt lat="49.85621" lon="2.27405">
        <ele>110.3</ele>
        <time>2022-10-29T13:53:07Z</time>
      </trkpt>
      <trkpt lat="49.85622" lon="2.27405">
        <ele>110.3</ele>
        <time>2022-10-29T13:53:08Z</time>
      </trkpt>
      <trkpt lat="49.85623" lon="2.27405">
        <ele>110.3</ele>
        <time>2022-10-29T13:53:09Z</time>
      </trkpt>
      <trkpt lat="49.85625" lon="2.27406">
        <ele>110.4</ele>
        <time>2022-10-29T13:53:10Z</time>
      </trkpt>
      <trkpt lat="49.85626" lon="2.27406">
        <ele>110.4</ele>
        <time>2022-10-29T13:53:12Z</time>
      </trkpt>
      <trkpt lat="49.85627" lon="2.27406">
        <ele>110.4</ele>
        <time>2022-10-29T13:53:13Z</time>
      </trkpt>
      <trkpt lat="49.85628" lon="2.27407">
        <ele>110.4</ele>
        <time>2022-10-29T13:53:14Z</time>
      </trkpt>
      <trkpt lat="49.85629" lon="2.27408">
        <ele>110.4</ele>
        <time>2022-10-29T13:53:15Z</time>
      </trkpt>
      <trkpt lat="49.85631" lon="2.27409">
        <ele>110.4</ele>
        <time>2022-10-29T13:53:16Z</time>
      </trkpt>
      <trkpt lat="49.85632" lon="2.27409">
        <ele>110.4</ele>
        <time>2022-10-29T13:53:17Z</time>
      </trkpt>
      <trkpt lat="49.85633" lon="2.2741">
        <ele>110.4</ele>
        <time>2022-10-29T13:53:19Z</time>
      </trkpt>
      <trkpt lat="49.85635" lon="2.27411">
        <ele>110.4</ele>
        <time>2022-10-29T13:53:20Z</time>
      </trkpt>
      <trkpt lat="49.85636" lon="2.27411">
        <ele>110.5</ele>
        <time>2022-10-29T13:53:21Z</time>
      </trkpt>
      <trkpt lat="49.85636" lon="2.27411">
        <ele>110.5</ele>
        <time>2022-10-29T13:53:22Z</time>
      </trkpt>
      <trkpt lat="49.85637" lon="2.27412">
        <ele>110.5</ele>
        <time>2022-10-29T13:53:23Z</time>
      </trkpt>
      <trkpt lat="49.85639" lon="2.27412">
        <ele>110.5</ele>
        <time>2022-10-29T13:53:25Z</time>
      </trkpt>
      <trkpt lat="49.85639" lon="2.27413">
        <ele>110.5</ele>
        <time>2022-10-29T13:53:26Z</time>
      </trkpt>
      <trkpt lat="49.8564" lon="2.27413">
        <ele>110.5</ele>
        <time>2022-10-29T13:53:27Z</time>
      </trkpt>
      <trkpt lat="49.85642" lon="2.27413">
        <ele>110.5</ele>
        <time>2022-10-29T13:53:28Z</time>
      </trkpt>
      <trkpt lat="49.85643" lon="2.27413">
        <ele>110.5</ele>
        <time>2022-10-29T13:53:29Z</time>
      </trkpt>
      <trkpt lat="49.85644" lon="2.27413">
        <ele>110.5</ele>
        <time>2022-10-29T13:53:30Z</time>
      </trkpt>
      <trkpt lat="49.85645" lon="2.27413">
        <ele>110.5</ele>
        <time>2022-10-29T13:53:31Z</time>
      </trkpt>
      <trkpt lat="49.85646" lon="2.27413">
        <ele>110.5</ele>
        <time>2022-10-29T13:53:33Z</time>
      </trkpt>
      <trkpt lat="49.85647" lon="2.27413">
        <ele>110.6</ele>
        <time>2022-10-29T13:53:34Z</time>
      </trkpt>
      <trkpt lat="49.85648" lon="2.27414">
        <ele>110.6</ele>
        <time>2022-10-29T13:53:35Z</time>
      </trkpt>
      <trkpt lat="49.85649" lon="2.27414">
        <ele>110.6</ele>
        <time>2022-10-29T13:53:36Z</time>
      </trkpt>
      <trkpt lat="49.8565" lon="2.27414">
        <ele>110.6</ele>
        <time>2022-10-29T13:53:37Z</time>
      </trkpt>
      <trkpt lat="49.85651" lon="2.27415">
        <ele>110.6</ele>
        <time>2022-10-29T13:53:38Z</time>
      </trkpt>
      <trkpt lat="49.85653" lon="2.27415">
        <ele>110.6</ele>
        <time>2022-10-29T13:53:40Z</time>
      </trkpt>
      <trkpt lat="49.85654" lon="2.27415">
        <ele>110.6</ele>
        <time>2022-10-29T13:53:41Z</time>
      </trkpt>
      <trkpt lat="49.85655" lon="2.27416">
        <ele>110.6</ele>
        <time>2022-10-29T13:53:42Z</time>
      </trkpt>
      <trkpt lat="49.85656" lon="2.27417">
        <ele>110.6</ele>
        <time>2022-10-29T13:53:43Z</time>
      </trkpt>
      <trkpt lat="49.85657" lon="2.27418">
        <ele>110.6</ele>
        <time>2022-10-29T13:53:44Z</time>
      </trkpt>
      <trkpt lat="49.85658" lon="2.27418">
        <ele>110.7</ele>
        <time>2022-10-29T13:53:45Z</time>
      </trkpt>
      <trkpt lat="49.85659" lon="2.27419">
        <ele>110.7</ele>
        <time>2022-10-29T13:53:47Z</time>
      </trkpt>
      <trkpt lat="49.85661" lon="2.27421">
        <ele>110.7</ele>
        <time>2022-10-29T13:53:48Z</time>
      </trkpt>
      <trkpt lat="49.85662" lon="2.27421">
        <ele>110.7</ele>
        <time>2022-10-29T13:53:49Z</time>
      </trkpt>
      <trkpt lat="49.85663" lon="2.27422">
        <ele>110.7</ele>
        <time>2022-10-29T13:53:50Z</time>
      </trkpt>
      <trkpt lat="49.85665" lon="2.27423">
        <ele>110.7</ele>
        <time>2022-10-29T13:53:51Z</time>
      </trkpt>
      <trkpt lat="49.85666" lon="2.27423">
        <ele>110.7</ele>
        <time>2022-10-29T13:53:52Z</time>
      </trkpt>
      <trkpt lat="49.85667" lon="2.27423">
        <ele>110.7</ele>
        <time>2022-10-29T13:53:54Z</time>
      </trkpt>
      <trkpt lat="49.85668" lon="2.27424">
        <ele>110.7</ele>
        <time>2022-10-29T13:53:55Z</time>
      </trkpt>
      <trkpt lat="49.85669" lon="2.27424">
        <ele>110.8</ele>
        <time>2022-10-29T13:53:56Z</time>
      </trkpt>
      <trkpt lat="49.8567" lon="2.27425">
        <ele>110.8</ele>
        <time>2022-10-29T13:53:57Z</time>
      </trkpt>
      <trkpt lat="49.8567" lon="2.27425">
        <ele>110.8</ele>
        <time>2022-10-29T13:53:58Z</time>
      </trkpt>
      <trkpt lat="49.85671" lon="2.27426">
        <ele>110.8</ele>
        <time>2022-10-29T13:53:59Z</time>
      </trkpt>
      <trkpt lat="49.85673" lon="2.27426">
        <ele>110.8</ele>
        <time>2022-10-29T13:54:01Z</time>
      </trkpt>
      <trkpt lat="49.85674" lon="2.27427">
        <ele>110.8</ele>
        <time>2022-10-29T13:54:02Z</time>
      </trkpt>
      <trkpt lat="49.85675" lon="2.27427">
        <ele>110.8</ele>
        <time>2022-10-29T13:54:03Z</time>
      </trkpt>
      <trkpt lat="49.85676" lon="2.27428">
        <ele>110.8</ele>
        <time>2022-10-29T13:54:04Z</time>
      </trkpt>
      <trkpt lat="49.85677" lon="2.27429">
        <ele>110.8</ele>
        <time>2022-10-29T13:54:05Z</time>
      </trkpt>
      <trkpt lat="49.85678" lon="2.27429">
        <ele>110.8</ele>
        <time>2022-10-29T13:54:06Z</time>
      </trkpt>
      <trkpt lat="49.85679" lon="2.2743">
        <ele>110.8</ele>
        <time>2022-10-29T13:54:07Z</time>
      </trkpt>
      <trkpt lat="49.85681" lon="2.27431">
        <ele>110.8</ele>
        <time>2022-10-29T13:54:09Z</time>
      </trkpt>
      <trkpt lat="49.85682" lon="2.27431">
        <ele>110.9</ele>
        <time>2022-10-29T13:54:10Z</time>
      </trkpt>
      <trkpt lat="49.85683" lon="2.27431">
        <ele>110.9</ele>
        <time>2022-10-29T13:54:11Z</time>
      </trkpt>
      <trkpt lat="49.85684" lon="2.27432">
        <ele>110.9</ele>
        <time>2022-10-29T13:54:12Z</time>
      </trkpt>
      <trkpt lat="49.85685" lon="2.27432">
        <ele>110.9</ele>
        <time>2022-10-29T13:54:13Z</time>
      </trkpt>
      <trkpt lat="49.85686" lon="2.27432">
        <ele>110.9</ele>
        <time>2022-10-29T13:54:14Z</time>
      </trkpt>
      <trkpt lat="49.85687" lon="2.27433">
        <ele>110.9</ele>
        <time>2022-10-29T13:54:15Z</time>
      </trkpt>
      <trkpt lat="49.85689" lon="2.27433">
        <ele>110.9</ele>
        <time>2022-10-29T13:54:17Z</time>
      </trkpt>
      <trkpt lat="49.8569" lon="2.27434">
        <ele>110.9</ele>
        <time>2022-10-29T13:54:18Z</time>
      </trkpt>
      <trkpt lat="49.85692" lon="2.27434">
        <ele>110.9</ele>
        <time>2022-10-29T13:54:19Z</time>
      </trkpt>
      <trkpt lat="49.85692" lon="2.27435">
        <ele>110.9</ele>
        <time>2022-10-29T13:54:20Z</time>
      </trkpt>
      <trkpt lat="49.85693" lon="2.27435">
        <ele>110.9</ele>
        <time>2022-10-29T13:54:21Z</time>
      </trkpt>
      <trkpt lat="49.85696" lon="2.27436">
        <ele>110.9</ele>
        <time>2022-10-29T13:54:22Z</time>
      </trkpt>
      <trkpt lat="49.85697" lon="2.27436">
        <ele>110.9</ele>
        <time>2022-10-29T13:54:23Z</time>
      </trkpt>
      <trkpt lat="49.85697" lon="2.27437">
        <ele>111</ele>
        <time>2022-10-29T13:54:25Z</time>
      </trkpt>
      <trkpt lat="49.85698" lon="2.27437">
        <ele>111</ele>
        <time>2022-10-29T13:54:26Z</time>
      </trkpt>
      <trkpt lat="49.85699" lon="2.27437">
        <ele>111</ele>
        <time>2022-10-29T13:54:27Z</time>
      </trkpt>
      <trkpt lat="49.857" lon="2.27438">
        <ele>111</ele>
        <time>2022-10-29T13:54:28Z</time>
      </trkpt>
      <trkpt lat="49.85701" lon="2.27438">
        <ele>111</ele>
        <time>2022-10-29T13:54:29Z</time>
      </trkpt>
      <trkpt lat="49.85702" lon="2.27439">
        <ele>111</ele>
        <time>2022-10-29T13:54:30Z</time>
      </trkpt>
      <trkpt lat="49.85703" lon="2.27439">
        <ele>111</ele>
        <time>2022-10-29T13:54:32Z</time>
      </trkpt>
      <trkpt lat="49.85704" lon="2.2744">
        <ele>111</ele>
        <time>2022-10-29T13:54:33Z</time>
      </trkpt>
      <trkpt lat="49.85705" lon="2.27441">
        <ele>111</ele>
        <time>2022-10-29T13:54:34Z</time>
      </trkpt>
      <trkpt lat="49.85706" lon="2.27442">
        <ele>111.1</ele>
        <time>2022-10-29T13:54:35Z</time>
      </trkpt>
      <trkpt lat="49.85707" lon="2.27442">
        <ele>111.1</ele>
        <time>2022-10-29T13:54:36Z</time>
      </trkpt>
      <trkpt lat="49.85708" lon="2.27443">
        <ele>111.1</ele>
        <time>2022-10-29T13:54:38Z</time>
      </trkpt>
      <trkpt lat="49.85709" lon="2.27444">
        <ele>111.1</ele>
        <time>2022-10-29T13:54:39Z</time>
      </trkpt>
      <trkpt lat="49.8571" lon="2.27444">
        <ele>111.1</ele>
        <time>2022-10-29T13:54:40Z</time>
      </trkpt>
      <trkpt lat="49.85711" lon="2.27445">
        <ele>111.1</ele>
        <time>2022-10-29T13:54:41Z</time>
      </trkpt>
      <trkpt lat="49.85712" lon="2.27445">
        <ele>111.1</ele>
        <time>2022-10-29T13:54:42Z</time>
      </trkpt>
      <trkpt lat="49.85713" lon="2.27445">
        <ele>111.1</ele>
        <time>2022-10-29T13:54:44Z</time>
      </trkpt>
      <trkpt lat="49.85714" lon="2.27446">
        <ele>111.2</ele>
        <time>2022-10-29T13:54:45Z</time>
      </trkpt>
      <trkpt lat="49.85715" lon="2.27446">
        <ele>111.2</ele>
        <time>2022-10-29T13:54:46Z</time>
      </trkpt>
      <trkpt lat="49.85716" lon="2.27447">
        <ele>111.2</ele>
        <time>2022-10-29T13:54:47Z</time>
      </trkpt>
      <trkpt lat="49.85718" lon="2.27447">
        <ele>111.2</ele>
        <time>2022-10-29T13:54:48Z</time>
      </trkpt>
      <trkpt lat="49.85719" lon="2.27448">
        <ele>111.2</ele>
        <time>2022-10-29T13:54:50Z</time>
      </trkpt>
      <trkpt lat="49.8572" lon="2.27448">
        <ele>111.2</ele>
        <time>2022-10-29T13:54:51Z</time>
      </trkpt>
      <trkpt lat="49.8572" lon="2.27448">
        <ele>111.2</ele>
        <time>2022-10-29T13:54:52Z</time>
      </trkpt>
      <trkpt lat="49.85722" lon="2.27449">
        <ele>111.2</ele>
        <time>2022-10-29T13:54:53Z</time>
      </trkpt>
      <trkpt lat="49.85723" lon="2.27449">
        <ele>111.3</ele>
        <time>2022-10-29T13:54:54Z</time>
      </trkpt>
      <trkpt lat="49.85724" lon="2.27449">
        <ele>111.3</ele>
        <time>2022-10-29T13:54:55Z</time>
      </trkpt>
      <trkpt lat="49.85725" lon="2.2745">
        <ele>111.3</ele>
        <time>2022-10-29T13:54:57Z</time>
      </trkpt>
      <trkpt lat="49.85726" lon="2.2745">
        <ele>111.3</ele>
        <time>2022-10-29T13:54:58Z</time>
      </trkpt>
      <trkpt lat="49.85726" lon="2.27451">
        <ele>111.3</ele>
        <time>2022-10-29T13:54:59Z</time>
      </trkpt>
      <trkpt lat="49.85727" lon="2.27452">
        <ele>111.3</ele>
        <time>2022-10-29T13:55:00Z</time>
      </trkpt>
      <trkpt lat="49.85728" lon="2.27452">
        <ele>111.3</ele>
        <time>2022-10-29T13:55:01Z</time>
      </trkpt>
      <trkpt lat="49.85729" lon="2.27453">
        <ele>111.3</ele>
        <time>2022-10-29T13:55:02Z</time>
      </trkpt>
      <trkpt lat="49.8573" lon="2.27453">
        <ele>111.3</ele>
        <time>2022-10-29T13:55:03Z</time>
      </trkpt>
      <trkpt lat="49.85731" lon="2.27454">
        <ele>111.3</ele>
        <time>2022-10-29T13:55:05Z</time>
      </trkpt>
      <trkpt lat="49.85732" lon="2.27454">
        <ele>111.4</ele>
        <time>2022-10-29T13:55:06Z</time>
      </trkpt>
      <trkpt lat="49.85733" lon="2.27454">
        <ele>111.4</ele>
        <time>2022-10-29T13:55:07Z</time>
      </trkpt>
      <trkpt lat="49.85734" lon="2.27455">
        <ele>111.4</ele>
        <time>2022-10-29T13:55:08Z</time>
      </trkpt>
      <trkpt lat="49.85736" lon="2.27455">
        <ele>111.4</ele>
        <time>2022-10-29T13:55:09Z</time>
      </trkpt>
      <trkpt lat="49.85738" lon="2.27456">
        <ele>111.4</ele>
        <time>2022-10-29T13:55:10Z</time>
      </trkpt>
      <trkpt lat="49.85739" lon="2.27456">
        <ele>111.4</ele>
        <time>2022-10-29T13:55:11Z</time>
      </trkpt>
      <trkpt lat="49.8574" lon="2.27457">
        <ele>111.4</ele>
        <time>2022-10-29T13:55:13Z</time>
      </trkpt>
      <trkpt lat="49.85741" lon="2.27457">
        <ele>111.5</ele>
        <time>2022-10-29T13:55:14Z</time>
      </trkpt>
      <trkpt lat="49.85742" lon="2.27457">
        <ele>111.5</ele>
        <time>2022-10-29T13:55:15Z</time>
      </trkpt>
      <trkpt lat="49.85743" lon="2.27458">
        <ele>111.5</ele>
        <time>2022-10-29T13:55:16Z</time>
      </trkpt>
      <trkpt lat="49.85744" lon="2.27458">
        <ele>111.5</ele>
        <time>2022-10-29T13:55:17Z</time>
      </trkpt>
      <trkpt lat="49.85745" lon="2.27459">
        <ele>111.5</ele>
        <time>2022-10-29T13:55:18Z</time>
      </trkpt>
      <trkpt lat="49.85747" lon="2.2746">
        <ele>111.5</ele>
        <time>2022-10-29T13:55:20Z</time>
      </trkpt>
      <trkpt lat="49.85749" lon="2.2746">
        <ele>111.5</ele>
        <time>2022-10-29T13:55:21Z</time>
      </trkpt>
      <trkpt lat="49.8575" lon="2.2746">
        <ele>111.5</ele>
        <time>2022-10-29T13:55:22Z</time>
      </trkpt>
      <trkpt lat="49.85751" lon="2.2746">
        <ele>111.5</ele>
        <time>2022-10-29T13:55:23Z</time>
      </trkpt>
      <trkpt lat="49.85753" lon="2.27461">
        <ele>111.6</ele>
        <time>2022-10-29T13:55:24Z</time>
      </trkpt>
      <trkpt lat="49.85754" lon="2.27461">
        <ele>111.6</ele>
        <time>2022-10-29T13:55:25Z</time>
      </trkpt>
      <trkpt lat="49.85755" lon="2.27461">
        <ele>111.6</ele>
        <time>2022-10-29T13:55:27Z</time>
      </trkpt>
      <trkpt lat="49.85756" lon="2.27462">
        <ele>111.6</ele>
        <time>2022-10-29T13:55:28Z</time>
      </trkpt>
      <trkpt lat="49.85757" lon="2.27462">
        <ele>111.6</ele>
        <time>2022-10-29T13:55:29Z</time>
      </trkpt>
      <trkpt lat="49.85757" lon="2.27462">
        <ele>111.6</ele>
        <time>2022-10-29T13:55:30Z</time>
      </trkpt>
      <trkpt lat="49.8576" lon="2.27463">
        <ele>111.6</ele>
        <time>2022-10-29T13:55:31Z</time>
      </trkpt>
      <trkpt lat="49.8576" lon="2.27464">
        <ele>111.6</ele>
        <time>2022-10-29T13:55:32Z</time>
      </trkpt>
      <trkpt lat="49.85761" lon="2.27464">
        <ele>111.6</ele>
        <time>2022-10-29T13:55:34Z</time>
      </trkpt>
      <trkpt lat="49.85762" lon="2.27465">
        <ele>111.6</ele>
        <time>2022-10-29T13:55:35Z</time>
      </trkpt>
      <trkpt lat="49.85763" lon="2.27465">
        <ele>111.6</ele>
        <time>2022-10-29T13:55:36Z</time>
      </trkpt>
      <trkpt lat="49.85764" lon="2.27466">
        <ele>111.7</ele>
        <time>2022-10-29T13:55:37Z</time>
      </trkpt>
      <trkpt lat="49.85765" lon="2.27466">
        <ele>111.7</ele>
        <time>2022-10-29T13:55:38Z</time>
      </trkpt>
      <trkpt lat="49.85766" lon="2.27465">
        <ele>111.7</ele>
        <time>2022-10-29T13:55:39Z</time>
      </trkpt>
      <trkpt lat="49.85767" lon="2.27465">
        <ele>111.7</ele>
        <time>2022-10-29T13:55:40Z</time>
      </trkpt>
      <trkpt lat="49.85768" lon="2.27465">
        <ele>111.7</ele>
        <time>2022-10-29T13:55:42Z</time>
      </trkpt>
      <trkpt lat="49.85769" lon="2.27465">
        <ele>111.7</ele>
        <time>2022-10-29T13:55:43Z</time>
      </trkpt>
      <trkpt lat="49.8577" lon="2.27464">
        <ele>111.7</ele>
        <time>2022-10-29T13:55:44Z</time>
      </trkpt>
      <trkpt lat="49.85772" lon="2.27464">
        <ele>111.7</ele>
        <time>2022-10-29T13:55:45Z</time>
      </trkpt>
      <trkpt lat="49.85773" lon="2.27464">
        <ele>111.7</ele>
        <time>2022-10-29T13:55:46Z</time>
      </trkpt>
      <trkpt lat="49.85774" lon="2.27464">
        <ele>111.7</ele>
        <time>2022-10-29T13:55:47Z</time>
      </trkpt>
      <trkpt lat="49.85775" lon="2.27464">
        <ele>111.7</ele>
        <time>2022-10-29T13:55:49Z</time>
      </trkpt>
      <trkpt lat="49.85776" lon="2.27465">
        <ele>111.8</ele>
        <time>2022-10-29T13:55:50Z</time>
      </trkpt>
      <trkpt lat="49.85777" lon="2.27465">
        <ele>111.8</ele>
        <time>2022-10-29T13:55:51Z</time>
      </trkpt>
      <trkpt lat="49.85778" lon="2.27466">
        <ele>111.8</ele>
        <time>2022-10-29T13:55:52Z</time>
      </trkpt>
      <trkpt lat="49.85779" lon="2.27467">
        <ele>111.8</ele>
        <time>2022-10-29T13:55:53Z</time>
      </trkpt>
      <trkpt lat="49.8578" lon="2.27467">
        <ele>111.8</ele>
        <time>2022-10-29T13:55:54Z</time>
      </trkpt>
      <trkpt lat="49.85781" lon="2.27468">
        <ele>111.8</ele>
        <time>2022-10-29T13:55:56Z</time>
      </trkpt>
      <trkpt lat="49.85782" lon="2.27468">
        <ele>111.8</ele>
        <time>2022-10-29T13:55:57Z</time>
      </trkpt>
      <trkpt lat="49.85783" lon="2.27469">
        <ele>111.8</ele>
        <time>2022-10-29T13:55:58Z</time>
      </trkpt>
      <trkpt lat="49.85784" lon="2.2747">
        <ele>111.8</ele>
        <time>2022-10-29T13:55:59Z</time>
      </trkpt>
      <trkpt lat="49.85785" lon="2.2747">
        <ele>111.9</ele>
        <time>2022-10-29T13:56:00Z</time>
      </trkpt>
      <trkpt lat="49.85786" lon="2.27471">
        <ele>111.9</ele>
        <time>2022-10-29T13:56:01Z</time>
      </trkpt>
      <trkpt lat="49.85788" lon="2.27472">
        <ele>111.9</ele>
        <time>2022-10-29T13:56:03Z</time>
      </trkpt>
      <trkpt lat="49.85789" lon="2.27472">
        <ele>111.9</ele>
        <time>2022-10-29T13:56:04Z</time>
      </trkpt>
      <trkpt lat="49.8579" lon="2.27472">
        <ele>111.9</ele>
        <time>2022-10-29T13:56:05Z</time>
      </trkpt>
      <trkpt lat="49.85792" lon="2.27473">
        <ele>111.9</ele>
        <time>2022-10-29T13:56:06Z</time>
      </trkpt>
      <trkpt lat="49.85793" lon="2.27473">
        <ele>111.9</ele>
        <time>2022-10-29T13:56:07Z</time>
      </trkpt>
      <trkpt lat="49.85793" lon="2.27473">
        <ele>111.9</ele>
        <time>2022-10-29T13:56:08Z</time>
      </trkpt>
      <trkpt lat="49.85794" lon="2.27474">
        <ele>111.9</ele>
        <time>2022-10-29T13:56:10Z</time>
      </trkpt>
      <trkpt lat="49.85795" lon="2.27474">
        <ele>111.9</ele>
        <time>2022-10-29T13:56:11Z</time>
      </trkpt>
      <trkpt lat="49.85797" lon="2.27474">
        <ele>111.9</ele>
        <time>2022-10-29T13:56:12Z</time>
      </trkpt>
      <trkpt lat="49.85798" lon="2.27475">
        <ele>111.9</ele>
        <time>2022-10-29T13:56:13Z</time>
      </trkpt>
      <trkpt lat="49.85799" lon="2.27475">
        <ele>111.9</ele>
        <time>2022-10-29T13:56:14Z</time>
      </trkpt>
      <trkpt lat="49.858" lon="2.27476">
        <ele>111.9</ele>
        <time>2022-10-29T13:56:15Z</time>
      </trkpt>
      <trkpt lat="49.85801" lon="2.27476">
        <ele>111.9</ele>
        <time>2022-10-29T13:56:17Z</time>
      </trkpt>
      <trkpt lat="49.85802" lon="2.27476">
        <ele>111.9</ele>
        <time>2022-10-29T13:56:18Z</time>
      </trkpt>
      <trkpt lat="49.85803" lon="2.27477">
        <ele>112</ele>
        <time>2022-10-29T13:56:19Z</time>
      </trkpt>
      <trkpt lat="49.85804" lon="2.27477">
        <ele>112</ele>
        <time>2022-10-29T13:56:20Z</time>
      </trkpt>
      <trkpt lat="49.85805" lon="2.27477">
        <ele>112</ele>
        <time>2022-10-29T13:56:21Z</time>
      </trkpt>
      <trkpt lat="49.85806" lon="2.27478">
        <ele>112</ele>
        <time>2022-10-29T13:56:23Z</time>
      </trkpt>
      <trkpt lat="49.85807" lon="2.27478">
        <ele>112</ele>
        <time>2022-10-29T13:56:24Z</time>
      </trkpt>
      <trkpt lat="49.85808" lon="2.27479">
        <ele>112</ele>
        <time>2022-10-29T13:56:25Z</time>
      </trkpt>
      <trkpt lat="49.85809" lon="2.2748">
        <ele>112</ele>
        <time>2022-10-29T13:56:26Z</time>
      </trkpt>
      <trkpt lat="49.8581" lon="2.2748">
        <ele>112</ele>
        <time>2022-10-29T13:56:27Z</time>
      </trkpt>
      <trkpt lat="49.85811" lon="2.27481">
        <ele>112</ele>
        <time>2022-10-29T13:56:28Z</time>
      </trkpt>
      <trkpt lat="49.85812" lon="2.27481">
        <ele>112</ele>
        <time>2022-10-29T13:56:30Z</time>
      </trkpt>
      <trkpt lat="49.85813" lon="2.27482">
        <ele>112</ele>
        <time>2022-10-29T13:56:31Z</time>
      </trkpt>
      <trkpt lat="49.85814" lon="2.27483">
        <ele>112</ele>
        <time>2022-10-29T13:56:32Z</time>
      </trkpt>
      <trkpt lat="49.85815" lon="2.27483">
        <ele>112</ele>
        <time>2022-10-29T13:56:33Z</time>
      </trkpt>
      <trkpt lat="49.85817" lon="2.27484">
        <ele>112</ele>
        <time>2022-10-29T13:56:34Z</time>
      </trkpt>
      <trkpt lat="49.85818" lon="2.27485">
        <ele>112</ele>
        <time>2022-10-29T13:56:35Z</time>
      </trkpt>
      <trkpt lat="49.85819" lon="2.27485">
        <ele>112</ele>
        <time>2022-10-29T13:56:37Z</time>
      </trkpt>
      <trkpt lat="49.8582" lon="2.27486">
        <ele>112</ele>
        <time>2022-10-29T13:56:38Z</time>
      </trkpt>
      <trkpt lat="49.85821" lon="2.27486">
        <ele>112</ele>
        <time>2022-10-29T13:56:39Z</time>
      </trkpt>
      <trkpt lat="49.85822" lon="2.27487">
        <ele>112</ele>
        <time>2022-10-29T13:56:40Z</time>
      </trkpt>
      <trkpt lat="49.85823" lon="2.27487">
        <ele>112</ele>
        <time>2022-10-29T13:56:41Z</time>
      </trkpt>
      <trkpt lat="49.85824" lon="2.27488">
        <ele>112</ele>
        <time>2022-10-29T13:56:42Z</time>
      </trkpt>
      <trkpt lat="49.85825" lon="2.27488">
        <ele>112</ele>
        <time>2022-10-29T13:56:43Z</time>
      </trkpt>
      <trkpt lat="49.85826" lon="2.27489">
        <ele>112</ele>
        <time>2022-10-29T13:56:45Z</time>
      </trkpt>
      <trkpt lat="49.85827" lon="2.27489">
        <ele>112</ele>
        <time>2022-10-29T13:56:46Z</time>
      </trkpt>
      <trkpt lat="49.85829" lon="2.27489">
        <ele>112</ele>
        <time>2022-10-29T13:56:47Z</time>
      </trkpt>
      <trkpt lat="49.8583" lon="2.2749">
        <ele>112.1</ele>
        <time>2022-10-29T13:56:49Z</time>
      </trkpt>
      <trkpt lat="49.8583" lon="2.27489">
        <ele>112.1</ele>
        <time>2022-10-29T13:56:50Z</time>
      </trkpt>
      <trkpt lat="49.85831" lon="2.27489">
        <ele>112.1</ele>
        <time>2022-10-29T13:56:51Z</time>
      </trkpt>
      <trkpt lat="49.85831" lon="2.27488">
        <ele>112.1</ele>
        <time>2022-10-29T13:56:52Z</time>
      </trkpt>
      <trkpt lat="49.85831" lon="2.27488">
        <ele>112.1</ele>
        <time>2022-10-29T13:56:54Z</time>
      </trkpt>
      <trkpt lat="49.85832" lon="2.27488">
        <ele>112.1</ele>
        <time>2022-10-29T13:56:55Z</time>
      </trkpt>
      <trkpt lat="49.85832" lon="2.27488">
        <ele>112.1</ele>
        <time>2022-10-29T13:56:56Z</time>
      </trkpt>
      <trkpt lat="49.85831" lon="2.27488">
        <ele>112.1</ele>
        <time>2022-10-29T13:56:57Z</time>
      </trkpt>
      <trkpt lat="49.85831" lon="2.27488">
        <ele>112.1</ele>
        <time>2022-10-29T13:56:58Z</time>
      </trkpt>
      <trkpt lat="49.85831" lon="2.27488">
        <ele>112.1</ele>
        <time>2022-10-29T13:56:59Z</time>
      </trkpt>
      <trkpt lat="49.85831" lon="2.27488">
        <ele>112.1</ele>
        <time>2022-10-29T13:57:00Z</time>
      </trkpt>
      <trkpt lat="49.85831" lon="2.27488">
        <ele>112.1</ele>
        <time>2022-10-29T13:57:01Z</time>
      </trkpt>
      <trkpt lat="49.85831" lon="2.27488">
        <ele>112.1</ele>
        <time>2022-10-29T13:57:02Z</time>
      </trkpt>
      <trkpt lat="49.85831" lon="2.27488">
        <ele>112.1</ele>
        <time>2022-10-29T13:57:03Z</time>
      </trkpt>
      <trkpt lat="49.85831" lon="2.27487">
        <ele>112.1</ele>
        <time>2022-10-29T13:57:04Z</time>
      </trkpt>
      <trkpt lat="49.85831" lon="2.27487">
        <ele>112.1</ele>
        <time>2022-10-29T13:57:05Z</time>
      </trkpt>
      <trkpt lat="49.85831" lon="2.27487">
        <ele>112.1</ele>
        <time>2022-10-29T13:57:06Z</time>
      </trkpt>
      <trkpt lat="49.85831" lon="2.27487">
        <ele>112.1</ele>
        <time>2022-10-29T13:57:07Z</time>
      </trkpt>
      <trkpt lat="49.8583" lon="2.27487">
        <ele>112.1</ele>
        <time>2022-10-29T13:57:08Z</time>
      </trkpt>
      <trkpt lat="49.8583" lon="2.27488">
        <ele>112.1</ele>
        <time>2022-10-29T13:57:09Z</time>
      </trkpt>
      <trkpt lat="49.8583" lon="2.27488">
        <ele>112.1</ele>
        <time>2022-10-29T13:57:10Z</time>
      </trkpt>
      <trkpt lat="49.8583" lon="2.27487">
        <ele>112.1</ele>
        <time>2022-10-29T13:57:11Z</time>
      </trkpt>
      <trkpt lat="49.8583" lon="2.27487">
        <ele>112.1</ele>
        <time>2022-10-29T13:57:13Z</time>
      </trkpt>
      <trkpt lat="49.85831" lon="2.27487">
        <ele>112.1</ele>
        <time>2022-10-29T13:57:14Z</time>
      </trkpt>
      <trkpt lat="49.85831" lon="2.27487">
        <ele>112.1</ele>
        <time>2022-10-29T13:57:15Z</time>
      </trkpt>
      <trkpt lat="49.85831" lon="2.27487">
        <ele>112.1</ele>
        <time>2022-10-29T13:57:16Z</time>
      </trkpt>
      <trkpt lat="49.85832" lon="2.27487">
        <ele>112.1</ele>
        <time>2022-10-29T13:57:17Z</time>
      </trkpt>
      <trkpt lat="49.85833" lon="2.27488">
        <ele>112.1</ele>
        <time>2022-10-29T13:57:18Z</time>
      </trkpt>
      <trkpt lat="49.85834" lon="2.27489">
        <ele>112.1</ele>
        <time>2022-10-29T13:57:20Z</time>
      </trkpt>
      <trkpt lat="49.85834" lon="2.27489">
        <ele>112.1</ele>
        <time>2022-10-29T13:57:21Z</time>
      </trkpt>
      <trkpt lat="49.85835" lon="2.2749">
        <ele>112.1</ele>
        <time>2022-10-29T13:57:22Z</time>
      </trkpt>
      <trkpt lat="49.85836" lon="2.2749">
        <ele>112.1</ele>
        <time>2022-10-29T13:57:23Z</time>
      </trkpt>
      <trkpt lat="49.85837" lon="2.27491">
        <ele>112.1</ele>
        <time>2022-10-29T13:57:25Z</time>
      </trkpt>
      <trkpt lat="49.85839" lon="2.27492">
        <ele>112.1</ele>
        <time>2022-10-29T13:57:26Z</time>
      </trkpt>
      <trkpt lat="49.8584" lon="2.27493">
        <ele>112.1</ele>
        <time>2022-10-29T13:57:27Z</time>
      </trkpt>
      <trkpt lat="49.8584" lon="2.27494">
        <ele>112.1</ele>
        <time>2022-10-29T13:57:28Z</time>
      </trkpt>
      <trkpt lat="49.85841" lon="2.27494">
        <ele>112.1</ele>
        <time>2022-10-29T13:57:30Z</time>
      </trkpt>
      <trkpt lat="49.85842" lon="2.27495">
        <ele>112.1</ele>
        <time>2022-10-29T13:57:31Z</time>
      </trkpt>
      <trkpt lat="49.85842" lon="2.27495">
        <ele>112.1</ele>
        <time>2022-10-29T13:57:32Z</time>
      </trkpt>
      <trkpt lat="49.85843" lon="2.27495">
        <ele>112.1</ele>
        <time>2022-10-29T13:57:33Z</time>
      </trkpt>
      <trkpt lat="49.85844" lon="2.27496">
        <ele>112.1</ele>
        <time>2022-10-29T13:57:34Z</time>
      </trkpt>
      <trkpt lat="49.85844" lon="2.27496">
        <ele>112.1</ele>
        <time>2022-10-29T13:57:35Z</time>
      </trkpt>
      <trkpt lat="49.85845" lon="2.27496">
        <ele>112.1</ele>
        <time>2022-10-29T13:57:36Z</time>
      </trkpt>
      <trkpt lat="49.85846" lon="2.27497">
        <ele>112.1</ele>
        <time>2022-10-29T13:57:37Z</time>
      </trkpt>
      <trkpt lat="49.85847" lon="2.27497">
        <ele>112.1</ele>
        <time>2022-10-29T13:57:38Z</time>
      </trkpt>
      <trkpt lat="49.85848" lon="2.27497">
        <ele>112.1</ele>
        <time>2022-10-29T13:57:40Z</time>
      </trkpt>
      <trkpt lat="49.85848" lon="2.27498">
        <ele>112.1</ele>
        <time>2022-10-29T13:57:41Z</time>
      </trkpt>
      <trkpt lat="49.85849" lon="2.27498">
        <ele>112.1</ele>
        <time>2022-10-29T13:57:42Z</time>
      </trkpt>
      <trkpt lat="49.8585" lon="2.27498">
        <ele>112.2</ele>
        <time>2022-10-29T13:57:43Z</time>
      </trkpt>
      <trkpt lat="49.85851" lon="2.27498">
        <ele>112.2</ele>
        <time>2022-10-29T13:57:44Z</time>
      </trkpt>
      <trkpt lat="49.85852" lon="2.27499">
        <ele>112.2</ele>
        <time>2022-10-29T13:57:45Z</time>
      </trkpt>
      <trkpt lat="49.85853" lon="2.27499">
        <ele>112.2</ele>
        <time>2022-10-29T13:57:46Z</time>
      </trkpt>
      <trkpt lat="49.85854" lon="2.27499">
        <ele>112.2</ele>
        <time>2022-10-29T13:57:48Z</time>
      </trkpt>
      <trkpt lat="49.85856" lon="2.27499">
        <ele>112.2</ele>
        <time>2022-10-29T13:57:49Z</time>
      </trkpt>
      <trkpt lat="49.85858" lon="2.275">
        <ele>112.2</ele>
        <time>2022-10-29T13:57:50Z</time>
      </trkpt>
      <trkpt lat="49.85858" lon="2.275">
        <ele>112.2</ele>
        <time>2022-10-29T13:57:51Z</time>
      </trkpt>
      <trkpt lat="49.85859" lon="2.275">
        <ele>112.2</ele>
        <time>2022-10-29T13:57:52Z</time>
      </trkpt>
      <trkpt lat="49.85861" lon="2.27501">
        <ele>112.2</ele>
        <time>2022-10-29T13:57:53Z</time>
      </trkpt>
      <trkpt lat="49.85862" lon="2.27501">
        <ele>112.2</ele>
        <time>2022-10-29T13:57:55Z</time>
      </trkpt>
      <trkpt lat="49.85863" lon="2.27501">
        <ele>112.2</ele>
        <time>2022-10-29T13:57:56Z</time>
      </trkpt>
      <trkpt lat="49.85864" lon="2.27502">
        <ele>112.2</ele>
        <time>2022-10-29T13:57:57Z</time>
      </trkpt>
      <trkpt lat="49.85866" lon="2.27503">
        <ele>112.2</ele>
        <time>2022-10-29T13:57:58Z</time>
      </trkpt>
      <trkpt lat="49.85867" lon="2.27505">
        <ele>112.2</ele>
        <time>2022-10-29T13:57:59Z</time>
      </trkpt>
      <trkpt lat="49.85867" lon="2.27506">
        <ele>112.2</ele>
        <time>2022-10-29T13:58:00Z</time>
      </trkpt>
      <trkpt lat="49.85868" lon="2.27507">
        <ele>112.2</ele>
        <time>2022-10-29T13:58:02Z</time>
      </trkpt>
      <trkpt lat="49.8587" lon="2.27508">
        <ele>112.3</ele>
        <time>2022-10-29T13:58:03Z</time>
      </trkpt>
      <trkpt lat="49.85871" lon="2.27509">
        <ele>112.3</ele>
        <time>2022-10-29T13:58:04Z</time>
      </trkpt>
      <trkpt lat="49.85873" lon="2.2751">
        <ele>112.3</ele>
        <time>2022-10-29T13:58:05Z</time>
      </trkpt>
      <trkpt lat="49.85874" lon="2.2751">
        <ele>112.3</ele>
        <time>2022-10-29T13:58:06Z</time>
      </trkpt>
      <trkpt lat="49.85875" lon="2.27511">
        <ele>112.3</ele>
        <time>2022-10-29T13:58:07Z</time>
      </trkpt>
      <trkpt lat="49.85876" lon="2.27511">
        <ele>112.3</ele>
        <time>2022-10-29T13:58:09Z</time>
      </trkpt>
      <trkpt lat="49.85877" lon="2.27512">
        <ele>112.3</ele>
        <time>2022-10-29T13:58:10Z</time>
      </trkpt>
      <trkpt lat="49.85879" lon="2.27513">
        <ele>112.3</ele>
        <time>2022-10-29T13:58:11Z</time>
      </trkpt>
      <trkpt lat="49.8588" lon="2.27513">
        <ele>112.3</ele>
        <time>2022-10-29T13:58:12Z</time>
      </trkpt>
      <trkpt lat="49.85881" lon="2.27513">
        <ele>112.3</ele>
        <time>2022-10-29T13:58:13Z</time>
      </trkpt>
      <trkpt lat="49.85882" lon="2.27514">
        <ele>112.3</ele>
        <time>2022-10-29T13:58:15Z</time>
      </trkpt>
      <trkpt lat="49.85883" lon="2.27514">
        <ele>112.3</ele>
        <time>2022-10-29T13:58:16Z</time>
      </trkpt>
      <trkpt lat="49.85884" lon="2.27515">
        <ele>112.3</ele>
        <time>2022-10-29T13:58:17Z</time>
      </trkpt>
      <trkpt lat="49.85885" lon="2.27515">
        <ele>112.3</ele>
        <time>2022-10-29T13:58:18Z</time>
      </trkpt>
      <trkpt lat="49.85886" lon="2.27516">
        <ele>112.3</ele>
        <time>2022-10-29T13:58:19Z</time>
      </trkpt>
      <trkpt lat="49.85887" lon="2.27517">
        <ele>112.3</ele>
        <time>2022-10-29T13:58:20Z</time>
      </trkpt>
      <trkpt lat="49.85888" lon="2.27517">
        <ele>112.3</ele>
        <time>2022-10-29T13:58:22Z</time>
      </trkpt>
      <trkpt lat="49.85889" lon="2.27518">
        <ele>112.3</ele>
        <time>2022-10-29T13:58:23Z</time>
      </trkpt>
      <trkpt lat="49.8589" lon="2.27518">
        <ele>112.4</ele>
        <time>2022-10-29T13:58:24Z</time>
      </trkpt>
      <trkpt lat="49.85891" lon="2.27518">
        <ele>112.4</ele>
        <time>2022-10-29T13:58:25Z</time>
      </trkpt>
      <trkpt lat="49.85892" lon="2.27519">
        <ele>112.4</ele>
        <time>2022-10-29T13:58:26Z</time>
      </trkpt>
      <trkpt lat="49.85893" lon="2.27519">
        <ele>112.4</ele>
        <time>2022-10-29T13:58:27Z</time>
      </trkpt>
      <trkpt lat="49.85894" lon="2.2752">
        <ele>112.4</ele>
        <time>2022-10-29T13:58:28Z</time>
      </trkpt>
      <trkpt lat="49.85895" lon="2.27521">
        <ele>112.4</ele>
        <time>2022-10-29T13:58:30Z</time>
      </trkpt>
      <trkpt lat="49.85896" lon="2.27521">
        <ele>112.4</ele>
        <time>2022-10-29T13:58:31Z</time>
      </trkpt>
      <trkpt lat="49.85898" lon="2.27522">
        <ele>112.4</ele>
        <time>2022-10-29T13:58:32Z</time>
      </trkpt>
      <trkpt lat="49.85899" lon="2.27523">
        <ele>112.4</ele>
        <time>2022-10-29T13:58:33Z</time>
      </trkpt>
      <trkpt lat="49.859" lon="2.27523">
        <ele>112.4</ele>
        <time>2022-10-29T13:58:34Z</time>
      </trkpt>
      <trkpt lat="49.85902" lon="2.27525">
        <ele>112.4</ele>
        <time>2022-10-29T13:58:35Z</time>
      </trkpt>
      <trkpt lat="49.85903" lon="2.27525">
        <ele>112.4</ele>
        <time>2022-10-29T13:58:36Z</time>
      </trkpt>
      <trkpt lat="49.85904" lon="2.27526">
        <ele>112.4</ele>
        <time>2022-10-29T13:58:38Z</time>
      </trkpt>
      <trkpt lat="49.85905" lon="2.27526">
        <ele>112.4</ele>
        <time>2022-10-29T13:58:39Z</time>
      </trkpt>
      <trkpt lat="49.85906" lon="2.27527">
        <ele>112.4</ele>
        <time>2022-10-29T13:58:40Z</time>
      </trkpt>
      <trkpt lat="49.85907" lon="2.27527">
        <ele>112.4</ele>
        <time>2022-10-29T13:58:41Z</time>
      </trkpt>
      <trkpt lat="49.85908" lon="2.27527">
        <ele>112.4</ele>
        <time>2022-10-29T13:58:42Z</time>
      </trkpt>
      <trkpt lat="49.85909" lon="2.27528">
        <ele>112.4</ele>
        <time>2022-10-29T13:58:43Z</time>
      </trkpt>
      <trkpt lat="49.8591" lon="2.27528">
        <ele>112.4</ele>
        <time>2022-10-29T13:58:45Z</time>
      </trkpt>
      <trkpt lat="49.85911" lon="2.27529">
        <ele>112.4</ele>
        <time>2022-10-29T13:58:46Z</time>
      </trkpt>
      <trkpt lat="49.85912" lon="2.27529">
        <ele>112.4</ele>
        <time>2022-10-29T13:58:47Z</time>
      </trkpt>
      <trkpt lat="49.85913" lon="2.2753">
        <ele>112.4</ele>
        <time>2022-10-29T13:58:48Z</time>
      </trkpt>
      <trkpt lat="49.85914" lon="2.2753">
        <ele>112.5</ele>
        <time>2022-10-29T13:58:49Z</time>
      </trkpt>
      <trkpt lat="49.85915" lon="2.2753">
        <ele>112.5</ele>
        <time>2022-10-29T13:58:50Z</time>
      </trkpt>
      <trkpt lat="49.85916" lon="2.2753">
        <ele>112.5</ele>
        <time>2022-10-29T13:58:52Z</time>
      </trkpt>
      <trkpt lat="49.85918" lon="2.27531">
        <ele>112.5</ele>
        <time>2022-10-29T13:58:53Z</time>
      </trkpt>
      <trkpt lat="49.85919" lon="2.27531">
        <ele>112.5</ele>
        <time>2022-10-29T13:58:54Z</time>
      </trkpt>
      <trkpt lat="49.8592" lon="2.27531">
        <ele>112.5</ele>
        <time>2022-10-29T13:58:55Z</time>
      </trkpt>
      <trkpt lat="49.85921" lon="2.27532">
        <ele>112.5</ele>
        <time>2022-10-29T13:58:56Z</time>
      </trkpt>
      <trkpt lat="49.85922" lon="2.27532">
        <ele>112.5</ele>
        <time>2022-10-29T13:58:57Z</time>
      </trkpt>
      <trkpt lat="49.85923" lon="2.27533">
        <ele>112.5</ele>
        <time>2022-10-29T13:58:58Z</time>
      </trkpt>
      <trkpt lat="49.85924" lon="2.27533">
        <ele>112.5</ele>
        <time>2022-10-29T13:59:00Z</time>
      </trkpt>
      <trkpt lat="49.85925" lon="2.27534">
        <ele>112.5</ele>
        <time>2022-10-29T13:59:01Z</time>
      </trkpt>
      <trkpt lat="49.85926" lon="2.27534">
        <ele>112.5</ele>
        <time>2022-10-29T13:59:02Z</time>
      </trkpt>
      <trkpt lat="49.85928" lon="2.27535">
        <ele>112.5</ele>
        <time>2022-10-29T13:59:03Z</time>
      </trkpt>
      <trkpt lat="49.85929" lon="2.27535">
        <ele>112.5</ele>
        <time>2022-10-29T13:59:04Z</time>
      </trkpt>
      <trkpt lat="49.8593" lon="2.27536">
        <ele>112.5</ele>
        <time>2022-10-29T13:59:05Z</time>
      </trkpt>
      <trkpt lat="49.85931" lon="2.27536">
        <ele>112.5</ele>
        <time>2022-10-29T13:59:06Z</time>
      </trkpt>
      <trkpt lat="49.85932" lon="2.27537">
        <ele>112.5</ele>
        <time>2022-10-29T13:59:08Z</time>
      </trkpt>
      <trkpt lat="49.85933" lon="2.27537">
        <ele>112.5</ele>
        <time>2022-10-29T13:59:09Z</time>
      </trkpt>
      <trkpt lat="49.85934" lon="2.27537">
        <ele>112.5</ele>
        <time>2022-10-29T13:59:10Z</time>
      </trkpt>
      <trkpt lat="49.85935" lon="2.27538">
        <ele>112.5</ele>
        <time>2022-10-29T13:59:11Z</time>
      </trkpt>
      <trkpt lat="49.85936" lon="2.27538">
        <ele>112.5</ele>
        <time>2022-10-29T13:59:12Z</time>
      </trkpt>
      <trkpt lat="49.85937" lon="2.27539">
        <ele>112.5</ele>
        <time>2022-10-29T13:59:13Z</time>
      </trkpt>
      <trkpt lat="49.85939" lon="2.2754">
        <ele>112.5</ele>
        <time>2022-10-29T13:59:14Z</time>
      </trkpt>
      <trkpt lat="49.8594" lon="2.2754">
        <ele>112.5</ele>
        <time>2022-10-29T13:59:16Z</time>
      </trkpt>
      <trkpt lat="49.85942" lon="2.27541">
        <ele>112.5</ele>
        <time>2022-10-29T13:59:17Z</time>
      </trkpt>
      <trkpt lat="49.85943" lon="2.27541">
        <ele>112.5</ele>
        <time>2022-10-29T13:59:18Z</time>
      </trkpt>
      <trkpt lat="49.85944" lon="2.27541">
        <ele>112.5</ele>
        <time>2022-10-29T13:59:19Z</time>
      </trkpt>
      <trkpt lat="49.85945" lon="2.27541">
        <ele>112.5</ele>
        <time>2022-10-29T13:59:20Z</time>
      </trkpt>
      <trkpt lat="49.85946" lon="2.27541">
        <ele>112.5</ele>
        <time>2022-10-29T13:59:21Z</time>
      </trkpt>
      <trkpt lat="49.85947" lon="2.27541">
        <ele>112.5</ele>
        <time>2022-10-29T13:59:22Z</time>
      </trkpt>
      <trkpt lat="49.85948" lon="2.27542">
        <ele>112.5</ele>
        <time>2022-10-29T13:59:23Z</time>
      </trkpt>
      <trkpt lat="49.85949" lon="2.27542">
        <ele>112.5</ele>
        <time>2022-10-29T13:59:25Z</time>
      </trkpt>
      <trkpt lat="49.85951" lon="2.27542">
        <ele>112.5</ele>
        <time>2022-10-29T13:59:26Z</time>
      </trkpt>
      <trkpt lat="49.85952" lon="2.27543">
        <ele>112.5</ele>
        <time>2022-10-29T13:59:27Z</time>
      </trkpt>
      <trkpt lat="49.85954" lon="2.27543">
        <ele>112.4</ele>
        <time>2022-10-29T13:59:29Z</time>
      </trkpt>
      <trkpt lat="49.85955" lon="2.27544">
        <ele>112.4</ele>
        <time>2022-10-29T13:59:30Z</time>
      </trkpt>
      <trkpt lat="49.85956" lon="2.27544">
        <ele>112.4</ele>
        <time>2022-10-29T13:59:31Z</time>
      </trkpt>
      <trkpt lat="49.85957" lon="2.27545">
        <ele>112.4</ele>
        <time>2022-10-29T13:59:32Z</time>
      </trkpt>
      <trkpt lat="49.85958" lon="2.27546">
        <ele>112.4</ele>
        <time>2022-10-29T13:59:33Z</time>
      </trkpt>
      <trkpt lat="49.85959" lon="2.27547">
        <ele>112.4</ele>
        <time>2022-10-29T13:59:34Z</time>
      </trkpt>
      <trkpt lat="49.8596" lon="2.27549">
        <ele>112.4</ele>
        <time>2022-10-29T13:59:36Z</time>
      </trkpt>
      <trkpt lat="49.85961" lon="2.2755">
        <ele>112.4</ele>
        <time>2022-10-29T13:59:37Z</time>
      </trkpt>
      <trkpt lat="49.85962" lon="2.27551">
        <ele>112.2</ele>
        <time>2022-10-29T13:59:38Z</time>
      </trkpt>
      <trkpt lat="49.85962" lon="2.27553">
        <ele>112.2</ele>
        <time>2022-10-29T13:59:39Z</time>
      </trkpt>
      <trkpt lat="49.85963" lon="2.27554">
        <ele>112.2</ele>
        <time>2022-10-29T13:59:40Z</time>
      </trkpt>
      <trkpt lat="49.85964" lon="2.27556">
        <ele>112.2</ele>
        <time>2022-10-29T13:59:41Z</time>
      </trkpt>
      <trkpt lat="49.85964" lon="2.27557">
        <ele>112.2</ele>
        <time>2022-10-29T13:59:42Z</time>
      </trkpt>
      <trkpt lat="49.85965" lon="2.27559">
        <ele>112.2</ele>
        <time>2022-10-29T13:59:44Z</time>
      </trkpt>
      <trkpt lat="49.85965" lon="2.2756">
        <ele>112.2</ele>
        <time>2022-10-29T13:59:45Z</time>
      </trkpt>
      <trkpt lat="49.85966" lon="2.27562">
        <ele>112.2</ele>
        <time>2022-10-29T13:59:46Z</time>
      </trkpt>
      <trkpt lat="49.85966" lon="2.27564">
        <ele>112.2</ele>
        <time>2022-10-29T13:59:47Z</time>
      </trkpt>
      <trkpt lat="49.85967" lon="2.27566">
        <ele>112.1</ele>
        <time>2022-10-29T13:59:48Z</time>
      </trkpt>
      <trkpt lat="49.85968" lon="2.2757">
        <ele>112.1</ele>
        <time>2022-10-29T13:59:49Z</time>
      </trkpt>
      <trkpt lat="49.85968" lon="2.27571">
        <ele>112.1</ele>
        <time>2022-10-29T13:59:50Z</time>
      </trkpt>
      <trkpt lat="49.85968" lon="2.27572">
        <ele>112.1</ele>
        <time>2022-10-29T13:59:51Z</time>
      </trkpt>
      <trkpt lat="49.85969" lon="2.27576">
        <ele>112.1</ele>
        <time>2022-10-29T13:59:53Z</time>
      </trkpt>
      <trkpt lat="49.85969" lon="2.27577">
        <ele>112.1</ele>
        <time>2022-10-29T13:59:54Z</time>
      </trkpt>
      <trkpt lat="49.85969" lon="2.27578">
        <ele>112.1</ele>
        <time>2022-10-29T13:59:55Z</time>
      </trkpt>
      <trkpt lat="49.8597" lon="2.2758">
        <ele>112.1</ele>
        <time>2022-10-29T13:59:56Z</time>
      </trkpt>
      <trkpt lat="49.8597" lon="2.27581">
        <ele>112</ele>
        <time>2022-10-29T13:59:57Z</time>
      </trkpt>
      <trkpt lat="49.85971" lon="2.27583">
        <ele>112</ele>
        <time>2022-10-29T13:59:58Z</time>
      </trkpt>
      <trkpt lat="49.85971" lon="2.27585">
        <ele>112</ele>
        <time>2022-10-29T13:59:59Z</time>
      </trkpt>
      <trkpt lat="49.85972" lon="2.27587">
        <ele>112</ele>
        <time>2022-10-29T14:00:01Z</time>
      </trkpt>
      <trkpt lat="49.85972" lon="2.27589">
        <ele>112</ele>
        <time>2022-10-29T14:00:02Z</time>
      </trkpt>
      <trkpt lat="49.85973" lon="2.2759">
        <ele>112</ele>
        <time>2022-10-29T14:00:03Z</time>
      </trkpt>
      <trkpt lat="49.85974" lon="2.27592">
        <ele>112</ele>
        <time>2022-10-29T14:00:04Z</time>
      </trkpt>
      <trkpt lat="49.85975" lon="2.27594">
        <ele>112</ele>
        <time>2022-10-29T14:00:05Z</time>
      </trkpt>
      <trkpt lat="49.85976" lon="2.27595">
        <ele>112</ele>
        <time>2022-10-29T14:00:06Z</time>
      </trkpt>
      <trkpt lat="49.85976" lon="2.27596">
        <ele>111.9</ele>
        <time>2022-10-29T14:00:07Z</time>
      </trkpt>
      <trkpt lat="49.85977" lon="2.27598">
        <ele>111.9</ele>
        <time>2022-10-29T14:00:08Z</time>
      </trkpt>
      <trkpt lat="49.85978" lon="2.27599">
        <ele>111.9</ele>
        <time>2022-10-29T14:00:10Z</time>
      </trkpt>
      <trkpt lat="49.85979" lon="2.276">
        <ele>111.9</ele>
        <time>2022-10-29T14:00:11Z</time>
      </trkpt>
      <trkpt lat="49.85979" lon="2.27601">
        <ele>111.9</ele>
        <time>2022-10-29T14:00:12Z</time>
      </trkpt>
      <trkpt lat="49.8598" lon="2.27602">
        <ele>111.9</ele>
        <time>2022-10-29T14:00:13Z</time>
      </trkpt>
      <trkpt lat="49.85981" lon="2.27603">
        <ele>111.9</ele>
        <time>2022-10-29T14:00:14Z</time>
      </trkpt>
      <trkpt lat="49.85982" lon="2.27604">
        <ele>111.9</ele>
        <time>2022-10-29T14:00:15Z</time>
      </trkpt>
      <trkpt lat="49.85983" lon="2.27605">
        <ele>111.9</ele>
        <time>2022-10-29T14:00:16Z</time>
      </trkpt>
      <trkpt lat="49.85984" lon="2.27607">
        <ele>111.9</ele>
        <time>2022-10-29T14:00:18Z</time>
      </trkpt>
      <trkpt lat="49.85985" lon="2.27608">
        <ele>111.9</ele>
        <time>2022-10-29T14:00:19Z</time>
      </trkpt>
      <trkpt lat="49.85985" lon="2.2761">
        <ele>111.9</ele>
        <time>2022-10-29T14:00:20Z</time>
      </trkpt>
      <trkpt lat="49.85985" lon="2.27611">
        <ele>111.9</ele>
        <time>2022-10-29T14:00:21Z</time>
      </trkpt>
      <trkpt lat="49.85984" lon="2.27614">
        <ele>111.9</ele>
        <time>2022-10-29T14:00:22Z</time>
      </trkpt>
      <trkpt lat="49.85984" lon="2.27616">
        <ele>111.9</ele>
        <time>2022-10-29T14:00:23Z</time>
      </trkpt>
      <trkpt lat="49.85984" lon="2.27617">
        <ele>111.8</ele>
        <time>2022-10-29T14:00:24Z</time>
      </trkpt>
      <trkpt lat="49.85983" lon="2.27619">
        <ele>111.8</ele>
        <time>2022-10-29T14:00:26Z</time>
      </trkpt>
      <trkpt lat="49.85983" lon="2.27621">
        <ele>111.8</ele>
        <time>2022-10-29T14:00:27Z</time>
      </trkpt>
      <trkpt lat="49.85983" lon="2.27622">
        <ele>111.8</ele>
        <time>2022-10-29T14:00:28Z</time>
      </trkpt>
      <trkpt lat="49.85984" lon="2.27624">
        <ele>111.8</ele>
        <time>2022-10-29T14:00:29Z</time>
      </trkpt>
      <trkpt lat="49.85984" lon="2.27626">
        <ele>111.8</ele>
        <time>2022-10-29T14:00:30Z</time>
      </trkpt>
      <trkpt lat="49.85985" lon="2.27627">
        <ele>111.8</ele>
        <time>2022-10-29T14:00:31Z</time>
      </trkpt>
      <trkpt lat="49.85985" lon="2.27629">
        <ele>111.8</ele>
        <time>2022-10-29T14:00:33Z</time>
      </trkpt>
      <trkpt lat="49.85986" lon="2.2763">
        <ele>111.8</ele>
        <time>2022-10-29T14:00:34Z</time>
      </trkpt>
      <trkpt lat="49.85986" lon="2.27632">
        <ele>111.8</ele>
        <time>2022-10-29T14:00:35Z</time>
      </trkpt>
      <trkpt lat="49.85987" lon="2.27633">
        <ele>111.8</ele>
        <time>2022-10-29T14:00:36Z</time>
      </trkpt>
      <trkpt lat="49.85987" lon="2.27635">
        <ele>111.8</ele>
        <time>2022-10-29T14:00:37Z</time>
      </trkpt>
      <trkpt lat="49.85988" lon="2.27636">
        <ele>111.8</ele>
        <time>2022-10-29T14:00:38Z</time>
      </trkpt>
      <trkpt lat="49.85988" lon="2.27637">
        <ele>111.8</ele>
        <time>2022-10-29T14:00:39Z</time>
      </trkpt>
      <trkpt lat="49.85989" lon="2.27639">
        <ele>111.7</ele>
        <time>2022-10-29T14:00:41Z</time>
      </trkpt>
      <trkpt lat="49.85989" lon="2.27641">
        <ele>111.7</ele>
        <time>2022-10-29T14:00:42Z</time>
      </trkpt>
      <trkpt lat="49.85989" lon="2.27642">
        <ele>111.7</ele>
        <time>2022-10-29T14:00:43Z</time>
      </trkpt>
      <trkpt lat="49.8599" lon="2.27644">
        <ele>111.7</ele>
        <time>2022-10-29T14:00:44Z</time>
      </trkpt>
      <trkpt lat="49.8599" lon="2.27645">
        <ele>111.7</ele>
        <time>2022-10-29T14:00:45Z</time>
      </trkpt>
      <trkpt lat="49.85991" lon="2.27647">
        <ele>111.7</ele>
        <time>2022-10-29T14:00:46Z</time>
      </trkpt>
      <trkpt lat="49.85991" lon="2.27648">
        <ele>111.6</ele>
        <time>2022-10-29T14:00:47Z</time>
      </trkpt>
      <trkpt lat="49.85992" lon="2.2765">
        <ele>111.6</ele>
        <time>2022-10-29T14:00:49Z</time>
      </trkpt>
      <trkpt lat="49.85994" lon="2.27652">
        <ele>111.6</ele>
        <time>2022-10-29T14:00:50Z</time>
      </trkpt>
      <trkpt lat="49.85994" lon="2.27653">
        <ele>111.6</ele>
        <time>2022-10-29T14:00:51Z</time>
      </trkpt>
      <trkpt lat="49.85995" lon="2.27654">
        <ele>111.6</ele>
        <time>2022-10-29T14:00:52Z</time>
      </trkpt>
      <trkpt lat="49.85996" lon="2.27657">
        <ele>111.6</ele>
        <time>2022-10-29T14:00:53Z</time>
      </trkpt>
      <trkpt lat="49.85997" lon="2.27657">
        <ele>111.6</ele>
        <time>2022-10-29T14:00:54Z</time>
      </trkpt>
      <trkpt lat="49.85998" lon="2.27658">
        <ele>111.6</ele>
        <time>2022-10-29T14:00:55Z</time>
      </trkpt>
      <trkpt lat="49.85998" lon="2.27659">
        <ele>111.6</ele>
        <time>2022-10-29T14:00:57Z</time>
      </trkpt>
      <trkpt lat="49.85999" lon="2.2766">
        <ele>111.6</ele>
        <time>2022-10-29T14:00:58Z</time>
      </trkpt>
      <trkpt lat="49.86" lon="2.27662">
        <ele>111.6</ele>
        <time>2022-10-29T14:00:59Z</time>
      </trkpt>
      <trkpt lat="49.86001" lon="2.27663">
        <ele>111.6</ele>
        <time>2022-10-29T14:01:00Z</time>
      </trkpt>
      <trkpt lat="49.86002" lon="2.27664">
        <ele>111.6</ele>
        <time>2022-10-29T14:01:01Z</time>
      </trkpt>
      <trkpt lat="49.86002" lon="2.27666">
        <ele>111.6</ele>
        <time>2022-10-29T14:01:03Z</time>
      </trkpt>
      <trkpt lat="49.86003" lon="2.27667">
        <ele>111.6</ele>
        <time>2022-10-29T14:01:04Z</time>
      </trkpt>
      <trkpt lat="49.86004" lon="2.27668">
        <ele>111.6</ele>
        <time>2022-10-29T14:01:05Z</time>
      </trkpt>
      <trkpt lat="49.86004" lon="2.27669">
        <ele>111.6</ele>
        <time>2022-10-29T14:01:06Z</time>
      </trkpt>
      <trkpt lat="49.86005" lon="2.27671">
        <ele>111.6</ele>
        <time>2022-10-29T14:01:07Z</time>
      </trkpt>
      <trkpt lat="49.86006" lon="2.27672">
        <ele>111.6</ele>
        <time>2022-10-29T14:01:08Z</time>
      </trkpt>
      <trkpt lat="49.86007" lon="2.27673">
        <ele>111.6</ele>
        <time>2022-10-29T14:01:10Z</time>
      </trkpt>
      <trkpt lat="49.86008" lon="2.27674">
        <ele>111.6</ele>
        <time>2022-10-29T14:01:11Z</time>
      </trkpt>
      <trkpt lat="49.86009" lon="2.27675">
        <ele>111.6</ele>
        <time>2022-10-29T14:01:12Z</time>
      </trkpt>
      <trkpt lat="49.8601" lon="2.27676">
        <ele>111.7</ele>
        <time>2022-10-29T14:01:13Z</time>
      </trkpt>
      <trkpt lat="49.8601" lon="2.27677">
        <ele>111.7</ele>
        <time>2022-10-29T14:01:14Z</time>
      </trkpt>
      <trkpt lat="49.86011" lon="2.27679">
        <ele>111.7</ele>
        <time>2022-10-29T14:01:15Z</time>
      </trkpt>
      <trkpt lat="49.86012" lon="2.2768">
        <ele>111.7</ele>
        <time>2022-10-29T14:01:17Z</time>
      </trkpt>
      <trkpt lat="49.86013" lon="2.27681">
        <ele>111.7</ele>
        <time>2022-10-29T14:01:18Z</time>
      </trkpt>
      <trkpt lat="49.86014" lon="2.27682">
        <ele>111.7</ele>
        <time>2022-10-29T14:01:19Z</time>
      </trkpt>
      <trkpt lat="49.86015" lon="2.27684">
        <ele>111.7</ele>
        <time>2022-10-29T14:01:20Z</time>
      </trkpt>
      <trkpt lat="49.86015" lon="2.27685">
        <ele>111.7</ele>
        <time>2022-10-29T14:01:21Z</time>
      </trkpt>
      <trkpt lat="49.86016" lon="2.27686">
        <ele>111.7</ele>
        <time>2022-10-29T14:01:23Z</time>
      </trkpt>
      <trkpt lat="49.86017" lon="2.27688">
        <ele>111.7</ele>
        <time>2022-10-29T14:01:24Z</time>
      </trkpt>
      <trkpt lat="49.86018" lon="2.27689">
        <ele>111.7</ele>
        <time>2022-10-29T14:01:25Z</time>
      </trkpt>
      <trkpt lat="49.86018" lon="2.27691">
        <ele>111.7</ele>
        <time>2022-10-29T14:01:26Z</time>
      </trkpt>
      <trkpt lat="49.86019" lon="2.27692">
        <ele>111.7</ele>
        <time>2022-10-29T14:01:27Z</time>
      </trkpt>
      <trkpt lat="49.8602" lon="2.27694">
        <ele>111.7</ele>
        <time>2022-10-29T14:01:29Z</time>
      </trkpt>
      <trkpt lat="49.8602" lon="2.27695">
        <ele>111.7</ele>
        <time>2022-10-29T14:01:30Z</time>
      </trkpt>
      <trkpt lat="49.86021" lon="2.27696">
        <ele>111.7</ele>
        <time>2022-10-29T14:01:31Z</time>
      </trkpt>
      <trkpt lat="49.86021" lon="2.27696">
        <ele>111.7</ele>
        <time>2022-10-29T14:01:32Z</time>
      </trkpt>
      <trkpt lat="49.86023" lon="2.27697">
        <ele>111.7</ele>
        <time>2022-10-29T14:01:34Z</time>
      </trkpt>
      <trkpt lat="49.86023" lon="2.27697">
        <ele>111.8</ele>
        <time>2022-10-29T14:01:35Z</time>
      </trkpt>
      <trkpt lat="49.86024" lon="2.27697">
        <ele>111.8</ele>
        <time>2022-10-29T14:01:36Z</time>
      </trkpt>
      <trkpt lat="49.86024" lon="2.27697">
        <ele>111.8</ele>
        <time>2022-10-29T14:01:37Z</time>
      </trkpt>
      <trkpt lat="49.86025" lon="2.27698">
        <ele>111.8</ele>
        <time>2022-10-29T14:01:38Z</time>
      </trkpt>
      <trkpt lat="49.86025" lon="2.27698">
        <ele>111.8</ele>
        <time>2022-10-29T14:01:39Z</time>
      </trkpt>
      <trkpt lat="49.86026" lon="2.27698">
        <ele>111.8</ele>
        <time>2022-10-29T14:01:41Z</time>
      </trkpt>
      <trkpt lat="49.86027" lon="2.27697">
        <ele>111.8</ele>
        <time>2022-10-29T14:01:42Z</time>
      </trkpt>
      <trkpt lat="49.86028" lon="2.27697">
        <ele>111.8</ele>
        <time>2022-10-29T14:01:43Z</time>
      </trkpt>
      <trkpt lat="49.86029" lon="2.27697">
        <ele>111.8</ele>
        <time>2022-10-29T14:01:44Z</time>
      </trkpt>
      <trkpt lat="49.86029" lon="2.27698">
        <ele>111.8</ele>
        <time>2022-10-29T14:01:46Z</time>
      </trkpt>
      <trkpt lat="49.8603" lon="2.27698">
        <ele>111.8</ele>
        <time>2022-10-29T14:01:47Z</time>
      </trkpt>
      <trkpt lat="49.86031" lon="2.27699">
        <ele>111.8</ele>
        <time>2022-10-29T14:01:48Z</time>
      </trkpt>
      <trkpt lat="49.86031" lon="2.27699">
        <ele>111.8</ele>
        <time>2022-10-29T14:01:49Z</time>
      </trkpt>
      <trkpt lat="49.86031" lon="2.277">
        <ele>111.8</ele>
        <time>2022-10-29T14:01:50Z</time>
      </trkpt>
      <trkpt lat="49.86031" lon="2.27701">
        <ele>111.8</ele>
        <time>2022-10-29T14:01:51Z</time>
      </trkpt>
      <trkpt lat="49.8603" lon="2.27703">
        <ele>111.8</ele>
        <time>2022-10-29T14:01:52Z</time>
      </trkpt>
      <trkpt lat="49.8603" lon="2.27705">
        <ele>111.8</ele>
        <time>2022-10-29T14:01:53Z</time>
      </trkpt>
      <trkpt lat="49.8603" lon="2.27707">
        <ele>111.8</ele>
        <time>2022-10-29T14:01:54Z</time>
      </trkpt>
      <trkpt lat="49.86029" lon="2.2771">
        <ele>111.8</ele>
        <time>2022-10-29T14:01:56Z</time>
      </trkpt>
      <trkpt lat="49.86029" lon="2.27712">
        <ele>111.8</ele>
        <time>2022-10-29T14:01:57Z</time>
      </trkpt>
      <trkpt lat="49.86028" lon="2.27715">
        <ele>111.9</ele>
        <time>2022-10-29T14:01:58Z</time>
      </trkpt>
      <trkpt lat="49.86028" lon="2.27716">
        <ele>111.9</ele>
        <time>2022-10-29T14:01:59Z</time>
      </trkpt>
      <trkpt lat="49.86028" lon="2.27717">
        <ele>111.9</ele>
        <time>2022-10-29T14:02:00Z</time>
      </trkpt>
      <trkpt lat="49.86028" lon="2.27721">
        <ele>111.9</ele>
        <time>2022-10-29T14:02:01Z</time>
      </trkpt>
      <trkpt lat="49.86027" lon="2.27722">
        <ele>111.9</ele>
        <time>2022-10-29T14:02:03Z</time>
      </trkpt>
      <trkpt lat="49.86027" lon="2.27724">
        <ele>111.9</ele>
        <time>2022-10-29T14:02:04Z</time>
      </trkpt>
      <trkpt lat="49.86026" lon="2.27725">
        <ele>111.9</ele>
        <time>2022-10-29T14:02:05Z</time>
      </trkpt>
      <trkpt lat="49.86026" lon="2.27727">
        <ele>111.9</ele>
        <time>2022-10-29T14:02:06Z</time>
      </trkpt>
      <trkpt lat="49.86025" lon="2.27729">
        <ele>111.9</ele>
        <time>2022-10-29T14:02:08Z</time>
      </trkpt>
      <trkpt lat="49.86025" lon="2.27732">
        <ele>112</ele>
        <time>2022-10-29T14:02:09Z</time>
      </trkpt>
      <trkpt lat="49.86024" lon="2.27734">
        <ele>112</ele>
        <time>2022-10-29T14:02:11Z</time>
      </trkpt>
      <trkpt lat="49.86024" lon="2.27735">
        <ele>112</ele>
        <time>2022-10-29T14:02:12Z</time>
      </trkpt>
      <trkpt lat="49.86023" lon="2.27737">
        <ele>112</ele>
        <time>2022-10-29T14:02:13Z</time>
      </trkpt>
      <trkpt lat="49.86023" lon="2.27738">
        <ele>112</ele>
        <time>2022-10-29T14:02:14Z</time>
      </trkpt>
      <trkpt lat="49.86023" lon="2.2774">
        <ele>112</ele>
        <time>2022-10-29T14:02:15Z</time>
      </trkpt>
      <trkpt lat="49.86022" lon="2.27743">
        <ele>112</ele>
        <time>2022-10-29T14:02:16Z</time>
      </trkpt>
      <trkpt lat="49.86022" lon="2.27744">
        <ele>112.1</ele>
        <time>2022-10-29T14:02:17Z</time>
      </trkpt>
      <trkpt lat="49.86022" lon="2.27746">
        <ele>112.1</ele>
        <time>2022-10-29T14:02:18Z</time>
      </trkpt>
      <trkpt lat="49.86022" lon="2.27748">
        <ele>112.1</ele>
        <time>2022-10-29T14:02:20Z</time>
      </trkpt>
      <trkpt lat="49.86022" lon="2.2775">
        <ele>112.1</ele>
        <time>2022-10-29T14:02:21Z</time>
      </trkpt>
      <trkpt lat="49.86022" lon="2.27751">
        <ele>112.1</ele>
        <time>2022-10-29T14:02:22Z</time>
      </trkpt>
      <trkpt lat="49.86023" lon="2.27752">
        <ele>112.1</ele>
        <time>2022-10-29T14:02:23Z</time>
      </trkpt>
      <trkpt lat="49.86025" lon="2.27755">
        <ele>112.1</ele>
        <time>2022-10-29T14:02:24Z</time>
      </trkpt>
      <trkpt lat="49.86025" lon="2.27755">
        <ele>112.1</ele>
        <time>2022-10-29T14:02:26Z</time>
      </trkpt>
      <trkpt lat="49.86026" lon="2.27756">
        <ele>112.1</ele>
        <time>2022-10-29T14:02:27Z</time>
      </trkpt>
      <trkpt lat="49.86027" lon="2.27758">
        <ele>112.1</ele>
        <time>2022-10-29T14:02:28Z</time>
      </trkpt>
      <trkpt lat="49.86028" lon="2.27759">
        <ele>112.1</ele>
        <time>2022-10-29T14:02:29Z</time>
      </trkpt>
      <trkpt lat="49.86029" lon="2.2776">
        <ele>112.1</ele>
        <time>2022-10-29T14:02:30Z</time>
      </trkpt>
      <trkpt lat="49.8603" lon="2.27763">
        <ele>112.1</ele>
        <time>2022-10-29T14:02:32Z</time>
      </trkpt>
      <trkpt lat="49.8603" lon="2.27764">
        <ele>112.1</ele>
        <time>2022-10-29T14:02:33Z</time>
      </trkpt>
      <trkpt lat="49.86031" lon="2.27765">
        <ele>112.1</ele>
        <time>2022-10-29T14:02:34Z</time>
      </trkpt>
      <trkpt lat="49.86032" lon="2.27768">
        <ele>112.1</ele>
        <time>2022-10-29T14:02:35Z</time>
      </trkpt>
      <trkpt lat="49.86033" lon="2.27768">
        <ele>112.1</ele>
        <time>2022-10-29T14:02:37Z</time>
      </trkpt>
      <trkpt lat="49.86034" lon="2.27769">
        <ele>112.1</ele>
        <time>2022-10-29T14:02:38Z</time>
      </trkpt>
      <trkpt lat="49.86034" lon="2.27771">
        <ele>112.1</ele>
        <time>2022-10-29T14:02:39Z</time>
      </trkpt>
      <trkpt lat="49.86035" lon="2.27772">
        <ele>112.1</ele>
        <time>2022-10-29T14:02:40Z</time>
      </trkpt>
      <trkpt lat="49.86036" lon="2.27773">
        <ele>112.1</ele>
        <time>2022-10-29T14:02:42Z</time>
      </trkpt>
      <trkpt lat="49.86037" lon="2.27774">
        <ele>112.1</ele>
        <time>2022-10-29T14:02:43Z</time>
      </trkpt>
      <trkpt lat="49.86038" lon="2.27775">
        <ele>112.1</ele>
        <time>2022-10-29T14:02:44Z</time>
      </trkpt>
      <trkpt lat="49.86038" lon="2.27776">
        <ele>112.1</ele>
        <time>2022-10-29T14:02:45Z</time>
      </trkpt>
      <trkpt lat="49.86039" lon="2.27779">
        <ele>112.1</ele>
        <time>2022-10-29T14:02:47Z</time>
      </trkpt>
      <trkpt lat="49.8604" lon="2.27781">
        <ele>112.1</ele>
        <time>2022-10-29T14:02:50Z</time>
      </trkpt>
      <trkpt lat="49.8604" lon="2.27783">
        <ele>112.1</ele>
        <time>2022-10-29T14:02:51Z</time>
      </trkpt>
      <trkpt lat="49.8604" lon="2.27784">
        <ele>112.1</ele>
        <time>2022-10-29T14:02:52Z</time>
      </trkpt>
      <trkpt lat="49.8604" lon="2.27785">
        <ele>112.1</ele>
        <time>2022-10-29T14:02:53Z</time>
      </trkpt>
      <trkpt lat="49.8604" lon="2.27787">
        <ele>112.1</ele>
        <time>2022-10-29T14:02:55Z</time>
      </trkpt>
      <trkpt lat="49.8604" lon="2.27788">
        <ele>112.1</ele>
        <time>2022-10-29T14:02:56Z</time>
      </trkpt>
      <trkpt lat="49.86041" lon="2.27791">
        <ele>112.1</ele>
        <time>2022-10-29T14:02:57Z</time>
      </trkpt>
      <trkpt lat="49.86041" lon="2.27793">
        <ele>112.1</ele>
        <time>2022-10-29T14:02:59Z</time>
      </trkpt>
      <trkpt lat="49.86041" lon="2.27794">
        <ele>112.1</ele>
        <time>2022-10-29T14:03:00Z</time>
      </trkpt>
      <trkpt lat="49.86041" lon="2.27795">
        <ele>112.1</ele>
        <time>2022-10-29T14:03:01Z</time>
      </trkpt>
      <trkpt lat="49.86042" lon="2.27795">
        <ele>112.1</ele>
        <time>2022-10-29T14:03:02Z</time>
      </trkpt>
      <trkpt lat="49.86042" lon="2.27794">
        <ele>112.2</ele>
        <time>2022-10-29T14:03:03Z</time>
      </trkpt>
      <trkpt lat="49.86042" lon="2.27793">
        <ele>112.2</ele>
        <time>2022-10-29T14:03:05Z</time>
      </trkpt>
      <trkpt lat="49.86042" lon="2.27792">
        <ele>112.2</ele>
        <time>2022-10-29T14:03:06Z</time>
      </trkpt>
      <trkpt lat="49.86042" lon="2.27792">
        <ele>112.2</ele>
        <time>2022-10-29T14:03:07Z</time>
      </trkpt>
      <trkpt lat="49.86042" lon="2.27792">
        <ele>112.2</ele>
        <time>2022-10-29T14:03:08Z</time>
      </trkpt>
      <trkpt lat="49.86042" lon="2.27791">
        <ele>112.2</ele>
        <time>2022-10-29T14:03:10Z</time>
      </trkpt>
      <trkpt lat="49.86042" lon="2.27791">
        <ele>112.2</ele>
        <time>2022-10-29T14:03:11Z</time>
      </trkpt>
      <trkpt lat="49.86042" lon="2.27791">
        <ele>112.2</ele>
        <time>2022-10-29T14:03:12Z</time>
      </trkpt>
      <trkpt lat="49.86042" lon="2.27791">
        <ele>112.2</ele>
        <time>2022-10-29T14:03:13Z</time>
      </trkpt>
      <trkpt lat="49.86043" lon="2.27791">
        <ele>112.2</ele>
        <time>2022-10-29T14:03:15Z</time>
      </trkpt>
      <trkpt lat="49.86043" lon="2.27791">
        <ele>112.2</ele>
        <time>2022-10-29T14:03:16Z</time>
      </trkpt>
      <trkpt lat="49.86043" lon="2.27791">
        <ele>112.2</ele>
        <time>2022-10-29T14:03:17Z</time>
      </trkpt>
      <trkpt lat="49.86043" lon="2.27791">
        <ele>112.2</ele>
        <time>2022-10-29T14:03:18Z</time>
      </trkpt>
      <trkpt lat="49.86043" lon="2.27791">
        <ele>112.2</ele>
        <time>2022-10-29T14:03:19Z</time>
      </trkpt>
      <trkpt lat="49.86043" lon="2.27791">
        <ele>112.2</ele>
        <time>2022-10-29T14:03:20Z</time>
      </trkpt>
      <trkpt lat="49.86043" lon="2.27789">
        <ele>112.2</ele>
        <time>2022-10-29T14:03:21Z</time>
      </trkpt>
      <trkpt lat="49.86043" lon="2.27788">
        <ele>112.2</ele>
        <time>2022-10-29T14:03:22Z</time>
      </trkpt>
      <trkpt lat="49.86043" lon="2.27787">
        <ele>112.2</ele>
        <time>2022-10-29T14:03:23Z</time>
      </trkpt>
      <trkpt lat="49.86044" lon="2.27787">
        <ele>112.2</ele>
        <time>2022-10-29T14:03:24Z</time>
      </trkpt>
      <trkpt lat="49.86044" lon="2.27786">
        <ele>112.2</ele>
        <time>2022-10-29T14:03:25Z</time>
      </trkpt>
      <trkpt lat="49.86044" lon="2.27786">
        <ele>112.2</ele>
        <time>2022-10-29T14:03:26Z</time>
      </trkpt>
      <trkpt lat="49.86043" lon="2.27786">
        <ele>112.2</ele>
        <time>2022-10-29T14:03:27Z</time>
      </trkpt>
      <trkpt lat="49.86043" lon="2.27786">
        <ele>112.2</ele>
        <time>2022-10-29T14:03:28Z</time>
      </trkpt>
      <trkpt lat="49.86043" lon="2.27786">
        <ele>112.2</ele>
        <time>2022-10-29T14:03:29Z</time>
      </trkpt>
      <trkpt lat="49.86043" lon="2.27786">
        <ele>112.2</ele>
        <time>2022-10-29T14:03:30Z</time>
      </trkpt>
      <trkpt lat="49.86043" lon="2.27786">
        <ele>112.2</ele>
        <time>2022-10-29T14:03:31Z</time>
      </trkpt>
      <trkpt lat="49.86043" lon="2.27786">
        <ele>112.2</ele>
        <time>2022-10-29T14:03:32Z</time>
      </trkpt>
      <trkpt lat="49.86043" lon="2.27786">
        <ele>112.2</ele>
        <time>2022-10-29T14:03:33Z</time>
      </trkpt>
      <trkpt lat="49.86043" lon="2.27786">
        <ele>112.2</ele>
        <time>2022-10-29T14:03:34Z</time>
      </trkpt>
      <trkpt lat="49.86044" lon="2.27786">
        <ele>112.2</ele>
        <time>2022-10-29T14:03:35Z</time>
      </trkpt>
      <trkpt lat="49.86044" lon="2.27786">
        <ele>112.2</ele>
        <time>2022-10-29T14:03:36Z</time>
      </trkpt>
      <trkpt lat="49.86044" lon="2.27786">
        <ele>112.2</ele>
        <time>2022-10-29T14:03:37Z</time>
      </trkpt>
      <trkpt lat="49.86044" lon="2.27787">
        <ele>112.2</ele>
        <time>2022-10-29T14:03:38Z</time>
      </trkpt>
      <trkpt lat="49.86044" lon="2.27787">
        <ele>112.2</ele>
        <time>2022-10-29T14:03:39Z</time>
      </trkpt>
      <trkpt lat="49.86044" lon="2.27787">
        <ele>112.2</ele>
        <time>2022-10-29T14:03:40Z</time>
      </trkpt>
      <trkpt lat="49.86043" lon="2.27787">
        <ele>112.2</ele>
        <time>2022-10-29T14:03:41Z</time>
      </trkpt>
      <trkpt lat="49.86043" lon="2.27786">
        <ele>112.2</ele>
        <time>2022-10-29T14:03:42Z</time>
      </trkpt>
      <trkpt lat="49.86043" lon="2.27786">
        <ele>112.2</ele>
        <time>2022-10-29T14:03:43Z</time>
      </trkpt>
      <trkpt lat="49.86043" lon="2.27786">
        <ele>112.2</ele>
        <time>2022-10-29T14:03:44Z</time>
      </trkpt>
      <trkpt lat="49.86043" lon="2.27786">
        <ele>112.2</ele>
        <time>2022-10-29T14:03:45Z</time>
      </trkpt>
      <trkpt lat="49.86043" lon="2.27786">
        <ele>112.2</ele>
        <time>2022-10-29T14:03:46Z</time>
      </trkpt>
      <trkpt lat="49.86043" lon="2.27786">
        <ele>112.2</ele>
        <time>2022-10-29T14:03:47Z</time>
      </trkpt>
      <trkpt lat="49.86043" lon="2.27786">
        <ele>112.2</ele>
        <time>2022-10-29T14:03:48Z</time>
      </trkpt>
      <trkpt lat="49.86043" lon="2.27786">
        <ele>112.2</ele>
        <time>2022-10-29T14:03:49Z</time>
      </trkpt>
      <trkpt lat="49.86043" lon="2.27786">
        <ele>112.2</ele>
        <time>2022-10-29T14:03:50Z</time>
      </trkpt>
      <trkpt lat="49.86043" lon="2.27786">
        <ele>112.2</ele>
        <time>2022-10-29T14:03:51Z</time>
      </trkpt>
      <trkpt lat="49.86043" lon="2.27786">
        <ele>112.2</ele>
        <time>2022-10-29T14:03:52Z</time>
      </trkpt>
      <trkpt lat="49.86043" lon="2.27786">
        <ele>112.2</ele>
        <time>2022-10-29T14:03:53Z</time>
      </trkpt>
      <trkpt lat="49.86043" lon="2.27786">
        <ele>112.2</ele>
        <time>2022-10-29T14:03:54Z</time>
      </trkpt>
      <trkpt lat="49.86043" lon="2.27786">
        <ele>112.2</ele>
        <time>2022-10-29T14:03:55Z</time>
      </trkpt>
      <trkpt lat="49.86044" lon="2.27786">
        <ele>112.2</ele>
        <time>2022-10-29T14:03:56Z</time>
      </trkpt>
      <trkpt lat="49.86044" lon="2.27786">
        <ele>112.2</ele>
        <time>2022-10-29T14:03:57Z</time>
      </trkpt>
      <trkpt lat="49.86044" lon="2.27786">
        <ele>112.2</ele>
        <time>2022-10-29T14:03:58Z</time>
      </trkpt>
    </trkseg>
  </trk>
</gpx>